<?xml version="1.0" encoding="UTF-8" standalone="no" ?>
<gpx xmlns="http://www.topografix.com/GPX/1/1" xmlns:xsi="http://www.w3.org/2001/XMLSchema-instance" xsi:schemaLocation="http://www.topografix.com/GPX/1/1 http://www.topografix.com/GPX/1/1/gpx.xsd" version="1.1" creator="VisuGPX - https://www.visugpx.com">
  <metadata>
    <name>ROQUEBRUNE VTT</name>
    <desc><![CDATA[Sens antihoraire 
41 km
D  1600m]]></desc>
  </metadata>
  <trk>
    <name><![CDATA[Roquebrune-sur-Argens Cyclisme]]></name>
    <trkseg>
      <trkpt lat="43.44035" lon="6.63438">
        <ele>48.200000762939</ele>
        <time>2018-02-03T08:30:07.000Z</time>
      </trkpt>
      <trkpt lat="43.44034" lon="6.63439">
        <ele>48.200000762939</ele>
        <time>2018-02-03T08:30:09.000Z</time>
      </trkpt>
      <trkpt lat="43.44034" lon="6.63439">
        <ele>48.400001525879</ele>
        <time>2018-02-03T08:30:12.000Z</time>
      </trkpt>
      <trkpt lat="43.44034" lon="6.63438">
        <ele>47.599998474121</ele>
        <time>2018-02-03T08:30:18.000Z</time>
      </trkpt>
      <trkpt lat="43.44034" lon="6.6344">
        <ele>47.599998474121</ele>
        <time>2018-02-03T08:30:24.000Z</time>
      </trkpt>
      <trkpt lat="43.44034" lon="6.63439">
        <ele>47.599998474121</ele>
        <time>2018-02-03T08:30:25.000Z</time>
      </trkpt>
      <trkpt lat="43.44033" lon="6.63439">
        <ele>47.599998474121</ele>
        <time>2018-02-03T08:30:31.000Z</time>
      </trkpt>
      <trkpt lat="43.44033" lon="6.63439">
        <ele>47.599998474121</ele>
        <time>2018-02-03T08:30:38.000Z</time>
      </trkpt>
      <trkpt lat="43.44034" lon="6.63439">
        <ele>48</ele>
        <time>2018-02-03T08:30:50.000Z</time>
      </trkpt>
      <trkpt lat="43.44034" lon="6.6344">
        <ele>48.200000762939</ele>
        <time>2018-02-03T08:30:58.000Z</time>
      </trkpt>
      <trkpt lat="43.44034" lon="6.6344">
        <ele>48</ele>
        <time>2018-02-03T08:31:05.000Z</time>
      </trkpt>
      <trkpt lat="43.44034" lon="6.63439">
        <ele>48.200000762939</ele>
        <time>2018-02-03T08:31:15.000Z</time>
      </trkpt>
      <trkpt lat="43.44034" lon="6.63439">
        <ele>47.799999237061</ele>
        <time>2018-02-03T08:31:23.000Z</time>
      </trkpt>
      <trkpt lat="43.44034" lon="6.63439">
        <ele>47.400001525879</ele>
        <time>2018-02-03T08:31:29.000Z</time>
      </trkpt>
      <trkpt lat="43.44034" lon="6.63438">
        <ele>47.799999237061</ele>
        <time>2018-02-03T08:31:35.000Z</time>
      </trkpt>
      <trkpt lat="43.44034" lon="6.63437">
        <ele>47.799999237061</ele>
        <time>2018-02-03T08:31:45.000Z</time>
      </trkpt>
      <trkpt lat="43.44034" lon="6.63437">
        <ele>47.799999237061</ele>
        <time>2018-02-03T08:31:55.000Z</time>
      </trkpt>
      <trkpt lat="43.44034" lon="6.63437">
        <ele>47.799999237061</ele>
        <time>2018-02-03T08:32:03.000Z</time>
      </trkpt>
      <trkpt lat="43.44035" lon="6.63436">
        <ele>47</ele>
        <time>2018-02-03T08:32:07.000Z</time>
      </trkpt>
      <trkpt lat="43.44035" lon="6.63437">
        <ele>46.799999237061</ele>
        <time>2018-02-03T08:32:08.000Z</time>
      </trkpt>
      <trkpt lat="43.44034" lon="6.6344">
        <ele>47.599998474121</ele>
        <time>2018-02-03T08:32:12.000Z</time>
      </trkpt>
      <trkpt lat="43.44034" lon="6.63441">
        <ele>47.599998474121</ele>
        <time>2018-02-03T08:32:13.000Z</time>
      </trkpt>
      <trkpt lat="43.44037" lon="6.63447">
        <ele>47.599998474121</ele>
        <time>2018-02-03T08:32:21.000Z</time>
      </trkpt>
      <trkpt lat="43.44036" lon="6.63446">
        <ele>47.599998474121</ele>
        <time>2018-02-03T08:32:28.000Z</time>
      </trkpt>
      <trkpt lat="43.44035" lon="6.63444">
        <ele>47.799999237061</ele>
        <time>2018-02-03T08:32:30.000Z</time>
      </trkpt>
      <trkpt lat="43.44033" lon="6.63441">
        <ele>47.400001525879</ele>
        <time>2018-02-03T08:32:33.000Z</time>
      </trkpt>
      <trkpt lat="43.44025" lon="6.63437">
        <ele>47.400001525879</ele>
        <time>2018-02-03T08:32:38.000Z</time>
      </trkpt>
      <trkpt lat="43.44014" lon="6.6343">
        <ele>48</ele>
        <time>2018-02-03T08:32:44.000Z</time>
      </trkpt>
      <trkpt lat="43.44012" lon="6.63429">
        <ele>48.200000762939</ele>
        <time>2018-02-03T08:32:45.000Z</time>
      </trkpt>
      <trkpt lat="43.44007" lon="6.6342">
        <ele>48.599998474121</ele>
        <time>2018-02-03T08:32:50.000Z</time>
      </trkpt>
      <trkpt lat="43.44006" lon="6.63415">
        <ele>49</ele>
        <time>2018-02-03T08:32:57.000Z</time>
      </trkpt>
      <trkpt lat="43.44006" lon="6.63415">
        <ele>49</ele>
        <time>2018-02-03T08:33:04.000Z</time>
      </trkpt>
      <trkpt lat="43.44006" lon="6.63415">
        <ele>49.200000762939</ele>
        <time>2018-02-03T08:33:07.000Z</time>
      </trkpt>
      <trkpt lat="43.44006" lon="6.63415">
        <ele>49.400001525879</ele>
        <time>2018-02-03T08:33:21.000Z</time>
      </trkpt>
      <trkpt lat="43.44006" lon="6.63415">
        <ele>49.200000762939</ele>
        <time>2018-02-03T08:33:29.000Z</time>
      </trkpt>
      <trkpt lat="43.44005" lon="6.63414">
        <ele>50</ele>
        <time>2018-02-03T08:33:39.000Z</time>
      </trkpt>
      <trkpt lat="43.44006" lon="6.63414">
        <ele>49.599998474121</ele>
        <time>2018-02-03T08:33:58.000Z</time>
      </trkpt>
      <trkpt lat="43.44006" lon="6.63414">
        <ele>50.200000762939</ele>
        <time>2018-02-03T08:34:04.000Z</time>
      </trkpt>
      <trkpt lat="43.44006" lon="6.63414">
        <ele>50.200000762939</ele>
        <time>2018-02-03T08:34:07.000Z</time>
      </trkpt>
      <trkpt lat="43.44006" lon="6.63415">
        <ele>49.400001525879</ele>
        <time>2018-02-03T08:34:26.000Z</time>
      </trkpt>
      <trkpt lat="43.44006" lon="6.63415">
        <ele>49.400001525879</ele>
        <time>2018-02-03T08:34:46.000Z</time>
      </trkpt>
      <trkpt lat="43.44006" lon="6.63415">
        <ele>49.400001525879</ele>
        <time>2018-02-03T08:35:09.000Z</time>
      </trkpt>
      <trkpt lat="43.44006" lon="6.63415">
        <ele>49.599998474121</ele>
        <time>2018-02-03T08:35:24.000Z</time>
      </trkpt>
      <trkpt lat="43.44005" lon="6.63415">
        <ele>49.599998474121</ele>
        <time>2018-02-03T08:35:39.000Z</time>
      </trkpt>
      <trkpt lat="43.44004" lon="6.63414">
        <ele>49.599998474121</ele>
        <time>2018-02-03T08:35:45.000Z</time>
      </trkpt>
      <trkpt lat="43.44004" lon="6.63414">
        <ele>49</ele>
        <time>2018-02-03T08:35:59.000Z</time>
      </trkpt>
      <trkpt lat="43.44004" lon="6.63414">
        <ele>49</ele>
        <time>2018-02-03T08:36:01.000Z</time>
      </trkpt>
      <trkpt lat="43.44002" lon="6.6341">
        <ele>49.400001525879</ele>
        <time>2018-02-03T08:36:08.000Z</time>
      </trkpt>
      <trkpt lat="43.43999" lon="6.63403">
        <ele>50.200000762939</ele>
        <time>2018-02-03T08:36:13.000Z</time>
      </trkpt>
      <trkpt lat="43.43998" lon="6.63401">
        <ele>50.200000762939</ele>
        <time>2018-02-03T08:36:15.000Z</time>
      </trkpt>
      <trkpt lat="43.43993" lon="6.63404">
        <ele>50</ele>
        <time>2018-02-03T08:36:18.000Z</time>
      </trkpt>
      <trkpt lat="43.43991" lon="6.63404">
        <ele>50</ele>
        <time>2018-02-03T08:36:19.000Z</time>
      </trkpt>
      <trkpt lat="43.43984" lon="6.63401">
        <ele>50.400001525879</ele>
        <time>2018-02-03T08:36:24.000Z</time>
      </trkpt>
      <trkpt lat="43.4398" lon="6.63399">
        <ele>50.799999237061</ele>
        <time>2018-02-03T08:36:28.000Z</time>
      </trkpt>
      <trkpt lat="43.4398" lon="6.63398">
        <ele>50.799999237061</ele>
        <time>2018-02-03T08:36:29.000Z</time>
      </trkpt>
      <trkpt lat="43.43979" lon="6.6339">
        <ele>51.200000762939</ele>
        <time>2018-02-03T08:36:33.000Z</time>
      </trkpt>
      <trkpt lat="43.43979" lon="6.63389">
        <ele>51.200000762939</ele>
        <time>2018-02-03T08:36:34.000Z</time>
      </trkpt>
      <trkpt lat="43.43979" lon="6.63386">
        <ele>51.599998474121</ele>
        <time>2018-02-03T08:36:37.000Z</time>
      </trkpt>
      <trkpt lat="43.43978" lon="6.63384">
        <ele>51.799999237061</ele>
        <time>2018-02-03T08:36:39.000Z</time>
      </trkpt>
      <trkpt lat="43.43975" lon="6.63382">
        <ele>52.400001525879</ele>
        <time>2018-02-03T08:36:41.000Z</time>
      </trkpt>
      <trkpt lat="43.43972" lon="6.63376">
        <ele>53.400001525879</ele>
        <time>2018-02-03T08:36:46.000Z</time>
      </trkpt>
      <trkpt lat="43.4397" lon="6.63375">
        <ele>54</ele>
        <time>2018-02-03T08:36:52.000Z</time>
      </trkpt>
      <trkpt lat="43.43967" lon="6.63375">
        <ele>54</ele>
        <time>2018-02-03T08:36:57.000Z</time>
      </trkpt>
      <trkpt lat="43.43962" lon="6.63373">
        <ele>54.400001525879</ele>
        <time>2018-02-03T08:37:03.000Z</time>
      </trkpt>
      <trkpt lat="43.43961" lon="6.63372">
        <ele>54.799999237061</ele>
        <time>2018-02-03T08:37:05.000Z</time>
      </trkpt>
      <trkpt lat="43.43955" lon="6.63368">
        <ele>55.599998474121</ele>
        <time>2018-02-03T08:37:12.000Z</time>
      </trkpt>
      <trkpt lat="43.43954" lon="6.63368">
        <ele>55.799999237061</ele>
        <time>2018-02-03T08:37:14.000Z</time>
      </trkpt>
      <trkpt lat="43.43951" lon="6.63364">
        <ele>56.799999237061</ele>
        <time>2018-02-03T08:37:19.000Z</time>
      </trkpt>
      <trkpt lat="43.43947" lon="6.63361">
        <ele>57.799999237061</ele>
        <time>2018-02-03T08:37:24.000Z</time>
      </trkpt>
      <trkpt lat="43.43945" lon="6.63358">
        <ele>58.400001525879</ele>
        <time>2018-02-03T08:37:28.000Z</time>
      </trkpt>
      <trkpt lat="43.43941" lon="6.63354">
        <ele>59</ele>
        <time>2018-02-03T08:37:34.000Z</time>
      </trkpt>
      <trkpt lat="43.43939" lon="6.63353">
        <ele>59.599998474121</ele>
        <time>2018-02-03T08:37:36.000Z</time>
      </trkpt>
      <trkpt lat="43.43937" lon="6.63349">
        <ele>60</ele>
        <time>2018-02-03T08:37:42.000Z</time>
      </trkpt>
      <trkpt lat="43.43937" lon="6.63349">
        <ele>60.400001525879</ele>
        <time>2018-02-03T08:37:43.000Z</time>
      </trkpt>
      <trkpt lat="43.43933" lon="6.63342">
        <ele>60.200000762939</ele>
        <time>2018-02-03T08:37:48.000Z</time>
      </trkpt>
      <trkpt lat="43.43929" lon="6.63337">
        <ele>59.799999237061</ele>
        <time>2018-02-03T08:37:52.000Z</time>
      </trkpt>
      <trkpt lat="43.43926" lon="6.63334">
        <ele>59.799999237061</ele>
        <time>2018-02-03T08:37:55.000Z</time>
      </trkpt>
      <trkpt lat="43.4392" lon="6.63326">
        <ele>61.200000762939</ele>
        <time>2018-02-03T08:38:02.000Z</time>
      </trkpt>
      <trkpt lat="43.43919" lon="6.63325">
        <ele>61.599998474121</ele>
        <time>2018-02-03T08:38:03.000Z</time>
      </trkpt>
      <trkpt lat="43.43915" lon="6.63324">
        <ele>62.200000762939</ele>
        <time>2018-02-03T08:38:06.000Z</time>
      </trkpt>
      <trkpt lat="43.43913" lon="6.63324">
        <ele>62.599998474121</ele>
        <time>2018-02-03T08:38:08.000Z</time>
      </trkpt>
      <trkpt lat="43.43908" lon="6.6333">
        <ele>63.200000762939</ele>
        <time>2018-02-03T08:38:12.000Z</time>
      </trkpt>
      <trkpt lat="43.43907" lon="6.63332">
        <ele>63.200000762939</ele>
        <time>2018-02-03T08:38:13.000Z</time>
      </trkpt>
      <trkpt lat="43.43905" lon="6.63333">
        <ele>63.400001525879</ele>
        <time>2018-02-03T08:38:14.000Z</time>
      </trkpt>
      <trkpt lat="43.43899" lon="6.63337">
        <ele>64.199996948242</ele>
        <time>2018-02-03T08:38:19.000Z</time>
      </trkpt>
      <trkpt lat="43.43898" lon="6.63337">
        <ele>64.400001525879</ele>
        <time>2018-02-03T08:38:20.000Z</time>
      </trkpt>
      <trkpt lat="43.43893" lon="6.63339">
        <ele>65</ele>
        <time>2018-02-03T08:38:24.000Z</time>
      </trkpt>
      <trkpt lat="43.43892" lon="6.63344">
        <ele>65.400001525879</ele>
        <time>2018-02-03T08:38:27.000Z</time>
      </trkpt>
      <trkpt lat="43.4389" lon="6.63346">
        <ele>65.599998474121</ele>
        <time>2018-02-03T08:38:28.000Z</time>
      </trkpt>
      <trkpt lat="43.43889" lon="6.63346">
        <ele>66</ele>
        <time>2018-02-03T08:38:29.000Z</time>
      </trkpt>
      <trkpt lat="43.43886" lon="6.63345">
        <ele>66.800003051758</ele>
        <time>2018-02-03T08:38:31.000Z</time>
      </trkpt>
      <trkpt lat="43.43885" lon="6.63344">
        <ele>67.199996948242</ele>
        <time>2018-02-03T08:38:32.000Z</time>
      </trkpt>
      <trkpt lat="43.43881" lon="6.63345">
        <ele>67.800003051758</ele>
        <time>2018-02-03T08:38:34.000Z</time>
      </trkpt>
      <trkpt lat="43.43881" lon="6.63346">
        <ele>68.199996948242</ele>
        <time>2018-02-03T08:38:35.000Z</time>
      </trkpt>
      <trkpt lat="43.43876" lon="6.63351">
        <ele>69</ele>
        <time>2018-02-03T08:38:39.000Z</time>
      </trkpt>
      <trkpt lat="43.43872" lon="6.63354">
        <ele>69.800003051758</ele>
        <time>2018-02-03T08:38:43.000Z</time>
      </trkpt>
      <trkpt lat="43.43871" lon="6.63354">
        <ele>70</ele>
        <time>2018-02-03T08:38:44.000Z</time>
      </trkpt>
      <trkpt lat="43.43867" lon="6.63354">
        <ele>70.599998474121</ele>
        <time>2018-02-03T08:38:47.000Z</time>
      </trkpt>
      <trkpt lat="43.43863" lon="6.63352">
        <ele>71</ele>
        <time>2018-02-03T08:38:50.000Z</time>
      </trkpt>
      <trkpt lat="43.43854" lon="6.63356">
        <ele>71</ele>
        <time>2018-02-03T08:38:56.000Z</time>
      </trkpt>
      <trkpt lat="43.43847" lon="6.63362">
        <ele>72</ele>
        <time>2018-02-03T08:39:02.000Z</time>
      </trkpt>
      <trkpt lat="43.43846" lon="6.63363">
        <ele>72.199996948242</ele>
        <time>2018-02-03T08:39:03.000Z</time>
      </trkpt>
      <trkpt lat="43.43842" lon="6.63366">
        <ele>73.599998474121</ele>
        <time>2018-02-03T08:39:07.000Z</time>
      </trkpt>
      <trkpt lat="43.4384" lon="6.63367">
        <ele>74</ele>
        <time>2018-02-03T08:39:08.000Z</time>
      </trkpt>
      <trkpt lat="43.43836" lon="6.63369">
        <ele>74.599998474121</ele>
        <time>2018-02-03T08:39:11.000Z</time>
      </trkpt>
      <trkpt lat="43.43832" lon="6.63369">
        <ele>75</ele>
        <time>2018-02-03T08:39:14.000Z</time>
      </trkpt>
      <trkpt lat="43.43824" lon="6.6337">
        <ele>75.400001525879</ele>
        <time>2018-02-03T08:39:20.000Z</time>
      </trkpt>
      <trkpt lat="43.43822" lon="6.63367">
        <ele>75.599998474121</ele>
        <time>2018-02-03T08:39:22.000Z</time>
      </trkpt>
      <trkpt lat="43.43821" lon="6.63366">
        <ele>75.599998474121</ele>
        <time>2018-02-03T08:39:23.000Z</time>
      </trkpt>
      <trkpt lat="43.4382" lon="6.63365">
        <ele>76</ele>
        <time>2018-02-03T08:39:24.000Z</time>
      </trkpt>
      <trkpt lat="43.4382" lon="6.63365">
        <ele>76.800003051758</ele>
        <time>2018-02-03T08:39:27.000Z</time>
      </trkpt>
      <trkpt lat="43.43819" lon="6.63367">
        <ele>77.199996948242</ele>
        <time>2018-02-03T08:39:28.000Z</time>
      </trkpt>
      <trkpt lat="43.43817" lon="6.63368">
        <ele>77.599998474121</ele>
        <time>2018-02-03T08:39:30.000Z</time>
      </trkpt>
      <trkpt lat="43.43816" lon="6.63367">
        <ele>77.800003051758</ele>
        <time>2018-02-03T08:39:31.000Z</time>
      </trkpt>
      <trkpt lat="43.43808" lon="6.63368">
        <ele>78</ele>
        <time>2018-02-03T08:39:36.000Z</time>
      </trkpt>
      <trkpt lat="43.43807" lon="6.6337">
        <ele>78</ele>
        <time>2018-02-03T08:39:37.000Z</time>
      </trkpt>
      <trkpt lat="43.43806" lon="6.63375">
        <ele>78.199996948242</ele>
        <time>2018-02-03T08:39:40.000Z</time>
      </trkpt>
      <trkpt lat="43.43804" lon="6.63382">
        <ele>78</ele>
        <time>2018-02-03T08:39:43.000Z</time>
      </trkpt>
      <trkpt lat="43.43805" lon="6.63384">
        <ele>78.199996948242</ele>
        <time>2018-02-03T08:39:44.000Z</time>
      </trkpt>
      <trkpt lat="43.43807" lon="6.63389">
        <ele>79</ele>
        <time>2018-02-03T08:39:47.000Z</time>
      </trkpt>
      <trkpt lat="43.43807" lon="6.63391">
        <ele>79.199996948242</ele>
        <time>2018-02-03T08:39:48.000Z</time>
      </trkpt>
      <trkpt lat="43.43808" lon="6.63398">
        <ele>80</ele>
        <time>2018-02-03T08:39:52.000Z</time>
      </trkpt>
      <trkpt lat="43.43808" lon="6.634">
        <ele>80.199996948242</ele>
        <time>2018-02-03T08:39:53.000Z</time>
      </trkpt>
      <trkpt lat="43.43807" lon="6.634">
        <ele>80.400001525879</ele>
        <time>2018-02-03T08:39:54.000Z</time>
      </trkpt>
      <trkpt lat="43.43808" lon="6.63402">
        <ele>80.400001525879</ele>
        <time>2018-02-03T08:39:56.000Z</time>
      </trkpt>
      <trkpt lat="43.43807" lon="6.63408">
        <ele>81</ele>
        <time>2018-02-03T08:40:01.000Z</time>
      </trkpt>
      <trkpt lat="43.43807" lon="6.63414">
        <ele>81.400001525879</ele>
        <time>2018-02-03T08:40:04.000Z</time>
      </trkpt>
      <trkpt lat="43.43806" lon="6.63423">
        <ele>81.400001525879</ele>
        <time>2018-02-03T08:40:07.000Z</time>
      </trkpt>
      <trkpt lat="43.43804" lon="6.63442">
        <ele>81.199996948242</ele>
        <time>2018-02-03T08:40:14.000Z</time>
      </trkpt>
      <trkpt lat="43.43804" lon="6.6346">
        <ele>81.800003051758</ele>
        <time>2018-02-03T08:40:21.000Z</time>
      </trkpt>
      <trkpt lat="43.43803" lon="6.63464">
        <ele>82.400001525879</ele>
        <time>2018-02-03T08:40:23.000Z</time>
      </trkpt>
      <trkpt lat="43.43802" lon="6.63472">
        <ele>83.400001525879</ele>
        <time>2018-02-03T08:40:27.000Z</time>
      </trkpt>
      <trkpt lat="43.43802" lon="6.63474">
        <ele>83.599998474121</ele>
        <time>2018-02-03T08:40:28.000Z</time>
      </trkpt>
      <trkpt lat="43.43798" lon="6.63485">
        <ele>84.199996948242</ele>
        <time>2018-02-03T08:40:33.000Z</time>
      </trkpt>
      <trkpt lat="43.43793" lon="6.63493">
        <ele>84.599998474121</ele>
        <time>2018-02-03T08:40:37.000Z</time>
      </trkpt>
      <trkpt lat="43.43789" lon="6.635">
        <ele>84.800003051758</ele>
        <time>2018-02-03T08:40:40.000Z</time>
      </trkpt>
      <trkpt lat="43.43781" lon="6.63512">
        <ele>85.800003051758</ele>
        <time>2018-02-03T08:40:46.000Z</time>
      </trkpt>
      <trkpt lat="43.43772" lon="6.63526">
        <ele>86.199996948242</ele>
        <time>2018-02-03T08:40:53.000Z</time>
      </trkpt>
      <trkpt lat="43.43767" lon="6.63531">
        <ele>86.800003051758</ele>
        <time>2018-02-03T08:40:56.000Z</time>
      </trkpt>
      <trkpt lat="43.43762" lon="6.63533">
        <ele>87.400001525879</ele>
        <time>2018-02-03T08:40:59.000Z</time>
      </trkpt>
      <trkpt lat="43.43758" lon="6.63533">
        <ele>87.800003051758</ele>
        <time>2018-02-03T08:41:01.000Z</time>
      </trkpt>
      <trkpt lat="43.43746" lon="6.63532">
        <ele>88.400001525879</ele>
        <time>2018-02-03T08:41:05.000Z</time>
      </trkpt>
      <trkpt lat="43.43741" lon="6.63537">
        <ele>88.199996948242</ele>
        <time>2018-02-03T08:41:07.000Z</time>
      </trkpt>
      <trkpt lat="43.43739" lon="6.63542">
        <ele>87.800003051758</ele>
        <time>2018-02-03T08:41:09.000Z</time>
      </trkpt>
      <trkpt lat="43.43737" lon="6.63558">
        <ele>87.800003051758</ele>
        <time>2018-02-03T08:41:14.000Z</time>
      </trkpt>
      <trkpt lat="43.43736" lon="6.63564">
        <ele>88.400001525879</ele>
        <time>2018-02-03T08:41:16.000Z</time>
      </trkpt>
      <trkpt lat="43.43733" lon="6.63572">
        <ele>89</ele>
        <time>2018-02-03T08:41:19.000Z</time>
      </trkpt>
      <trkpt lat="43.4373" lon="6.63579">
        <ele>89.199996948242</ele>
        <time>2018-02-03T08:41:22.000Z</time>
      </trkpt>
      <trkpt lat="43.43722" lon="6.63594">
        <ele>89.400001525879</ele>
        <time>2018-02-03T08:41:28.000Z</time>
      </trkpt>
      <trkpt lat="43.43712" lon="6.63609">
        <ele>89.199996948242</ele>
        <time>2018-02-03T08:41:34.000Z</time>
      </trkpt>
      <trkpt lat="43.43702" lon="6.63621">
        <ele>88.599998474121</ele>
        <time>2018-02-03T08:41:39.000Z</time>
      </trkpt>
      <trkpt lat="43.43691" lon="6.63637">
        <ele>89</ele>
        <time>2018-02-03T08:41:46.000Z</time>
      </trkpt>
      <trkpt lat="43.43683" lon="6.63641">
        <ele>89.199996948242</ele>
        <time>2018-02-03T08:41:51.000Z</time>
      </trkpt>
      <trkpt lat="43.43679" lon="6.6364">
        <ele>90</ele>
        <time>2018-02-03T08:41:56.000Z</time>
      </trkpt>
      <trkpt lat="43.43675" lon="6.63641">
        <ele>90.599998474121</ele>
        <time>2018-02-03T08:42:00.000Z</time>
      </trkpt>
      <trkpt lat="43.43672" lon="6.63643">
        <ele>90.599998474121</ele>
        <time>2018-02-03T08:42:01.000Z</time>
      </trkpt>
      <trkpt lat="43.43665" lon="6.63645">
        <ele>90.400001525879</ele>
        <time>2018-02-03T08:42:04.000Z</time>
      </trkpt>
      <trkpt lat="43.4366" lon="6.63643">
        <ele>90.400001525879</ele>
        <time>2018-02-03T08:42:06.000Z</time>
      </trkpt>
      <trkpt lat="43.43649" lon="6.63638">
        <ele>90</ele>
        <time>2018-02-03T08:42:11.000Z</time>
      </trkpt>
      <trkpt lat="43.43639" lon="6.63632">
        <ele>91</ele>
        <time>2018-02-03T08:42:16.000Z</time>
      </trkpt>
      <trkpt lat="43.43628" lon="6.63624">
        <ele>91.199996948242</ele>
        <time>2018-02-03T08:42:21.000Z</time>
      </trkpt>
      <trkpt lat="43.43626" lon="6.63622">
        <ele>91.199996948242</ele>
        <time>2018-02-03T08:42:22.000Z</time>
      </trkpt>
      <trkpt lat="43.43621" lon="6.63621">
        <ele>91.199996948242</ele>
        <time>2018-02-03T08:42:24.000Z</time>
      </trkpt>
      <trkpt lat="43.43616" lon="6.63623">
        <ele>91</ele>
        <time>2018-02-03T08:42:26.000Z</time>
      </trkpt>
      <trkpt lat="43.4361" lon="6.63628">
        <ele>91</ele>
        <time>2018-02-03T08:42:29.000Z</time>
      </trkpt>
      <trkpt lat="43.43605" lon="6.63633">
        <ele>91.199996948242</ele>
        <time>2018-02-03T08:42:32.000Z</time>
      </trkpt>
      <trkpt lat="43.43593" lon="6.63643">
        <ele>91.800003051758</ele>
        <time>2018-02-03T08:42:38.000Z</time>
      </trkpt>
      <trkpt lat="43.43589" lon="6.63641">
        <ele>92.199996948242</ele>
        <time>2018-02-03T08:42:40.000Z</time>
      </trkpt>
      <trkpt lat="43.43586" lon="6.63636">
        <ele>92.400001525879</ele>
        <time>2018-02-03T08:42:42.000Z</time>
      </trkpt>
      <trkpt lat="43.43578" lon="6.63622">
        <ele>92.599998474121</ele>
        <time>2018-02-03T08:42:47.000Z</time>
      </trkpt>
      <trkpt lat="43.43572" lon="6.63621">
        <ele>92.599998474121</ele>
        <time>2018-02-03T08:42:49.000Z</time>
      </trkpt>
      <trkpt lat="43.43564" lon="6.63622">
        <ele>92.599998474121</ele>
        <time>2018-02-03T08:42:52.000Z</time>
      </trkpt>
      <trkpt lat="43.43559" lon="6.6362">
        <ele>92.800003051758</ele>
        <time>2018-02-03T08:42:54.000Z</time>
      </trkpt>
      <trkpt lat="43.43556" lon="6.63614">
        <ele>93.400001525879</ele>
        <time>2018-02-03T08:42:56.000Z</time>
      </trkpt>
      <trkpt lat="43.43546" lon="6.63598">
        <ele>94.199996948242</ele>
        <time>2018-02-03T08:43:02.000Z</time>
      </trkpt>
      <trkpt lat="43.43536" lon="6.63583">
        <ele>93.599998474121</ele>
        <time>2018-02-03T08:43:07.000Z</time>
      </trkpt>
      <trkpt lat="43.43525" lon="6.6356">
        <ele>94</ele>
        <time>2018-02-03T08:43:14.000Z</time>
      </trkpt>
      <trkpt lat="43.43524" lon="6.63548">
        <ele>94</ele>
        <time>2018-02-03T08:43:17.000Z</time>
      </trkpt>
      <trkpt lat="43.43525" lon="6.6354">
        <ele>93.800003051758</ele>
        <time>2018-02-03T08:43:19.000Z</time>
      </trkpt>
      <trkpt lat="43.43517" lon="6.63531">
        <ele>93.800003051758</ele>
        <time>2018-02-03T08:43:23.000Z</time>
      </trkpt>
      <trkpt lat="43.43504" lon="6.63527">
        <ele>93.599998474121</ele>
        <time>2018-02-03T08:43:28.000Z</time>
      </trkpt>
      <trkpt lat="43.43502" lon="6.63526">
        <ele>93.800003051758</ele>
        <time>2018-02-03T08:43:29.000Z</time>
      </trkpt>
      <trkpt lat="43.43495" lon="6.63516">
        <ele>94</ele>
        <time>2018-02-03T08:43:33.000Z</time>
      </trkpt>
      <trkpt lat="43.4349" lon="6.63506">
        <ele>94.400001525879</ele>
        <time>2018-02-03T08:43:36.000Z</time>
      </trkpt>
      <trkpt lat="43.43486" lon="6.63498">
        <ele>94.400001525879</ele>
        <time>2018-02-03T08:43:39.000Z</time>
      </trkpt>
      <trkpt lat="43.43481" lon="6.63495">
        <ele>94.400001525879</ele>
        <time>2018-02-03T08:43:42.000Z</time>
      </trkpt>
      <trkpt lat="43.4348" lon="6.63497">
        <ele>94.400001525879</ele>
        <time>2018-02-03T08:43:44.000Z</time>
      </trkpt>
      <trkpt lat="43.43476" lon="6.63494">
        <ele>94.599998474121</ele>
        <time>2018-02-03T08:43:49.000Z</time>
      </trkpt>
      <trkpt lat="43.43476" lon="6.63494">
        <ele>95</ele>
        <time>2018-02-03T08:43:53.000Z</time>
      </trkpt>
      <trkpt lat="43.43475" lon="6.63495">
        <ele>95.199996948242</ele>
        <time>2018-02-03T08:44:07.000Z</time>
      </trkpt>
      <trkpt lat="43.43472" lon="6.63485">
        <ele>95.199996948242</ele>
        <time>2018-02-03T08:44:14.000Z</time>
      </trkpt>
      <trkpt lat="43.43468" lon="6.63481">
        <ele>95.199996948242</ele>
        <time>2018-02-03T08:44:21.000Z</time>
      </trkpt>
      <trkpt lat="43.43468" lon="6.63481">
        <ele>95.199996948242</ele>
        <time>2018-02-03T08:44:27.000Z</time>
      </trkpt>
      <trkpt lat="43.43468" lon="6.6348">
        <ele>95.400001525879</ele>
        <time>2018-02-03T08:44:38.000Z</time>
      </trkpt>
      <trkpt lat="43.43468" lon="6.6348">
        <ele>95.400001525879</ele>
        <time>2018-02-03T08:44:39.000Z</time>
      </trkpt>
      <trkpt lat="43.43468" lon="6.6348">
        <ele>95.599998474121</ele>
        <time>2018-02-03T08:44:50.000Z</time>
      </trkpt>
      <trkpt lat="43.43466" lon="6.6348">
        <ele>95.599998474121</ele>
        <time>2018-02-03T08:45:12.000Z</time>
      </trkpt>
      <trkpt lat="43.43466" lon="6.6348">
        <ele>95.400001525879</ele>
        <time>2018-02-03T08:45:20.000Z</time>
      </trkpt>
      <trkpt lat="43.43467" lon="6.63479">
        <ele>95.199996948242</ele>
        <time>2018-02-03T08:45:26.000Z</time>
      </trkpt>
      <trkpt lat="43.43467" lon="6.6348">
        <ele>94.800003051758</ele>
        <time>2018-02-03T08:45:34.000Z</time>
      </trkpt>
      <trkpt lat="43.43467" lon="6.6348">
        <ele>96.400001525879</ele>
        <time>2018-02-03T08:45:45.000Z</time>
      </trkpt>
      <trkpt lat="43.43467" lon="6.63481">
        <ele>95.199996948242</ele>
        <time>2018-02-03T08:45:58.000Z</time>
      </trkpt>
      <trkpt lat="43.43466" lon="6.63483">
        <ele>95</ele>
        <time>2018-02-03T08:46:10.000Z</time>
      </trkpt>
      <trkpt lat="43.43466" lon="6.63484">
        <ele>95</ele>
        <time>2018-02-03T08:46:24.000Z</time>
      </trkpt>
      <trkpt lat="43.43466" lon="6.63484">
        <ele>95</ele>
        <time>2018-02-03T08:46:30.000Z</time>
      </trkpt>
      <trkpt lat="43.43465" lon="6.63482">
        <ele>94.800003051758</ele>
        <time>2018-02-03T08:46:36.000Z</time>
      </trkpt>
      <trkpt lat="43.43467" lon="6.63482">
        <ele>95</ele>
        <time>2018-02-03T08:46:43.000Z</time>
      </trkpt>
      <trkpt lat="43.43467" lon="6.63484">
        <ele>95</ele>
        <time>2018-02-03T08:46:53.000Z</time>
      </trkpt>
      <trkpt lat="43.43468" lon="6.63484">
        <ele>95.400001525879</ele>
        <time>2018-02-03T08:47:00.000Z</time>
      </trkpt>
      <trkpt lat="43.43466" lon="6.63485">
        <ele>95.199996948242</ele>
        <time>2018-02-03T08:47:09.000Z</time>
      </trkpt>
      <trkpt lat="43.43466" lon="6.63486">
        <ele>95.199996948242</ele>
        <time>2018-02-03T08:47:19.000Z</time>
      </trkpt>
      <trkpt lat="43.43465" lon="6.63485">
        <ele>95.199996948242</ele>
        <time>2018-02-03T08:47:38.000Z</time>
      </trkpt>
      <trkpt lat="43.43465" lon="6.63486">
        <ele>95</ele>
        <time>2018-02-03T08:47:45.000Z</time>
      </trkpt>
      <trkpt lat="43.43464" lon="6.63485">
        <ele>94.800003051758</ele>
        <time>2018-02-03T08:47:54.000Z</time>
      </trkpt>
      <trkpt lat="43.43464" lon="6.63485">
        <ele>95</ele>
        <time>2018-02-03T08:48:05.000Z</time>
      </trkpt>
      <trkpt lat="43.43464" lon="6.63485">
        <ele>94.800003051758</ele>
        <time>2018-02-03T08:48:18.000Z</time>
      </trkpt>
      <trkpt lat="43.43465" lon="6.63486">
        <ele>94.599998474121</ele>
        <time>2018-02-03T08:48:31.000Z</time>
      </trkpt>
      <trkpt lat="43.43465" lon="6.63486">
        <ele>94.800003051758</ele>
        <time>2018-02-03T08:48:39.000Z</time>
      </trkpt>
      <trkpt lat="43.43464" lon="6.63485">
        <ele>94.800003051758</ele>
        <time>2018-02-03T08:48:44.000Z</time>
      </trkpt>
      <trkpt lat="43.43464" lon="6.63485">
        <ele>95</ele>
        <time>2018-02-03T08:48:52.000Z</time>
      </trkpt>
      <trkpt lat="43.43464" lon="6.63481">
        <ele>95</ele>
        <time>2018-02-03T08:49:13.000Z</time>
      </trkpt>
      <trkpt lat="43.43464" lon="6.63478">
        <ele>94.599998474121</ele>
        <time>2018-02-03T08:49:33.000Z</time>
      </trkpt>
      <trkpt lat="43.43464" lon="6.63478">
        <ele>94.599998474121</ele>
        <time>2018-02-03T08:49:49.000Z</time>
      </trkpt>
      <trkpt lat="43.43465" lon="6.63478">
        <ele>94.800003051758</ele>
        <time>2018-02-03T08:49:59.000Z</time>
      </trkpt>
      <trkpt lat="43.43464" lon="6.63472">
        <ele>94.800003051758</ele>
        <time>2018-02-03T08:50:04.000Z</time>
      </trkpt>
      <trkpt lat="43.4346" lon="6.6346">
        <ele>94.599998474121</ele>
        <time>2018-02-03T08:50:08.000Z</time>
      </trkpt>
      <trkpt lat="43.43458" lon="6.63459">
        <ele>94.400001525879</ele>
        <time>2018-02-03T08:50:09.000Z</time>
      </trkpt>
      <trkpt lat="43.43449" lon="6.63447">
        <ele>93.199996948242</ele>
        <time>2018-02-03T08:50:13.000Z</time>
      </trkpt>
      <trkpt lat="43.43443" lon="6.63432">
        <ele>92</ele>
        <time>2018-02-03T08:50:17.000Z</time>
      </trkpt>
      <trkpt lat="43.43441" lon="6.63427">
        <ele>91.800003051758</ele>
        <time>2018-02-03T08:50:18.000Z</time>
      </trkpt>
      <trkpt lat="43.43431" lon="6.63412">
        <ele>91.199996948242</ele>
        <time>2018-02-03T08:50:23.000Z</time>
      </trkpt>
      <trkpt lat="43.43416" lon="6.63395">
        <ele>91.800003051758</ele>
        <time>2018-02-03T08:50:30.000Z</time>
      </trkpt>
      <trkpt lat="43.43414" lon="6.63395">
        <ele>92</ele>
        <time>2018-02-03T08:50:31.000Z</time>
      </trkpt>
      <trkpt lat="43.43408" lon="6.63399">
        <ele>92.599998474121</ele>
        <time>2018-02-03T08:50:34.000Z</time>
      </trkpt>
      <trkpt lat="43.43402" lon="6.63398">
        <ele>93</ele>
        <time>2018-02-03T08:50:37.000Z</time>
      </trkpt>
      <trkpt lat="43.43401" lon="6.63398">
        <ele>93.199996948242</ele>
        <time>2018-02-03T08:50:38.000Z</time>
      </trkpt>
      <trkpt lat="43.43399" lon="6.63398">
        <ele>93.400001525879</ele>
        <time>2018-02-03T08:50:39.000Z</time>
      </trkpt>
      <trkpt lat="43.43397" lon="6.63397">
        <ele>94.199996948242</ele>
        <time>2018-02-03T08:50:41.000Z</time>
      </trkpt>
      <trkpt lat="43.43393" lon="6.63396">
        <ele>95</ele>
        <time>2018-02-03T08:50:43.000Z</time>
      </trkpt>
      <trkpt lat="43.43394" lon="6.63397">
        <ele>95.199996948242</ele>
        <time>2018-02-03T08:50:44.000Z</time>
      </trkpt>
      <trkpt lat="43.43393" lon="6.63397">
        <ele>95.400001525879</ele>
        <time>2018-02-03T08:50:50.000Z</time>
      </trkpt>
      <trkpt lat="43.43388" lon="6.63398">
        <ele>96.199996948242</ele>
        <time>2018-02-03T08:50:57.000Z</time>
      </trkpt>
      <trkpt lat="43.43386" lon="6.63398">
        <ele>96.800003051758</ele>
        <time>2018-02-03T08:50:59.000Z</time>
      </trkpt>
      <trkpt lat="43.43385" lon="6.63397">
        <ele>97.400001525879</ele>
        <time>2018-02-03T08:51:01.000Z</time>
      </trkpt>
      <trkpt lat="43.43384" lon="6.63398">
        <ele>97.599998474121</ele>
        <time>2018-02-03T08:51:03.000Z</time>
      </trkpt>
      <trkpt lat="43.43381" lon="6.63402">
        <ele>98.199996948242</ele>
        <time>2018-02-03T08:51:08.000Z</time>
      </trkpt>
      <trkpt lat="43.43375" lon="6.63413">
        <ele>98.199996948242</ele>
        <time>2018-02-03T08:51:13.000Z</time>
      </trkpt>
      <trkpt lat="43.43372" lon="6.6342">
        <ele>98.400001525879</ele>
        <time>2018-02-03T08:51:16.000Z</time>
      </trkpt>
      <trkpt lat="43.43371" lon="6.6343">
        <ele>98.800003051758</ele>
        <time>2018-02-03T08:51:19.000Z</time>
      </trkpt>
      <trkpt lat="43.43369" lon="6.63445">
        <ele>99.199996948242</ele>
        <time>2018-02-03T08:51:25.000Z</time>
      </trkpt>
      <trkpt lat="43.43369" lon="6.63446">
        <ele>98.800003051758</ele>
        <time>2018-02-03T08:51:31.000Z</time>
      </trkpt>
      <trkpt lat="43.43369" lon="6.63443">
        <ele>98.800003051758</ele>
        <time>2018-02-03T08:51:37.000Z</time>
      </trkpt>
      <trkpt lat="43.43369" lon="6.63441">
        <ele>99</ele>
        <time>2018-02-03T08:51:43.000Z</time>
      </trkpt>
      <trkpt lat="43.43369" lon="6.63433">
        <ele>98.800003051758</ele>
        <time>2018-02-03T08:51:47.000Z</time>
      </trkpt>
      <trkpt lat="43.43374" lon="6.63413">
        <ele>99</ele>
        <time>2018-02-03T08:51:52.000Z</time>
      </trkpt>
      <trkpt lat="43.43382" lon="6.63396">
        <ele>98.400001525879</ele>
        <time>2018-02-03T08:51:57.000Z</time>
      </trkpt>
      <trkpt lat="43.43385" lon="6.6338">
        <ele>98</ele>
        <time>2018-02-03T08:52:02.000Z</time>
      </trkpt>
      <trkpt lat="43.43385" lon="6.63379">
        <ele>98</ele>
        <time>2018-02-03T08:52:03.000Z</time>
      </trkpt>
      <trkpt lat="43.43385" lon="6.63379">
        <ele>97</ele>
        <time>2018-02-03T08:52:05.000Z</time>
      </trkpt>
      <trkpt lat="43.43385" lon="6.63378">
        <ele>96</ele>
        <time>2018-02-03T08:52:07.000Z</time>
      </trkpt>
      <trkpt lat="43.43385" lon="6.63378">
        <ele>95.400001525879</ele>
        <time>2018-02-03T08:52:09.000Z</time>
      </trkpt>
      <trkpt lat="43.43383" lon="6.63369">
        <ele>95.400001525879</ele>
        <time>2018-02-03T08:52:16.000Z</time>
      </trkpt>
      <trkpt lat="43.43382" lon="6.63363">
        <ele>95</ele>
        <time>2018-02-03T08:52:18.000Z</time>
      </trkpt>
      <trkpt lat="43.43382" lon="6.63348">
        <ele>94.599998474121</ele>
        <time>2018-02-03T08:52:21.000Z</time>
      </trkpt>
      <trkpt lat="43.43382" lon="6.63327">
        <ele>93.599998474121</ele>
        <time>2018-02-03T08:52:24.000Z</time>
      </trkpt>
      <trkpt lat="43.43382" lon="6.63318">
        <ele>93</ele>
        <time>2018-02-03T08:52:25.000Z</time>
      </trkpt>
      <trkpt lat="43.43381" lon="6.63311">
        <ele>92.400001525879</ele>
        <time>2018-02-03T08:52:26.000Z</time>
      </trkpt>
      <trkpt lat="43.43379" lon="6.63298">
        <ele>90.400001525879</ele>
        <time>2018-02-03T08:52:28.000Z</time>
      </trkpt>
      <trkpt lat="43.43375" lon="6.63287">
        <ele>89.400001525879</ele>
        <time>2018-02-03T08:52:30.000Z</time>
      </trkpt>
      <trkpt lat="43.43376" lon="6.63281">
        <ele>88.599998474121</ele>
        <time>2018-02-03T08:52:31.000Z</time>
      </trkpt>
      <trkpt lat="43.43376" lon="6.63274">
        <ele>87.599998474121</ele>
        <time>2018-02-03T08:52:32.000Z</time>
      </trkpt>
      <trkpt lat="43.43376" lon="6.63268">
        <ele>87.400001525879</ele>
        <time>2018-02-03T08:52:33.000Z</time>
      </trkpt>
      <trkpt lat="43.43377" lon="6.6325">
        <ele>86.599998474121</ele>
        <time>2018-02-03T08:52:36.000Z</time>
      </trkpt>
      <trkpt lat="43.43377" lon="6.63238">
        <ele>86.599998474121</ele>
        <time>2018-02-03T08:52:38.000Z</time>
      </trkpt>
      <trkpt lat="43.4338" lon="6.63212">
        <ele>86</ele>
        <time>2018-02-03T08:52:42.000Z</time>
      </trkpt>
      <trkpt lat="43.43382" lon="6.63205">
        <ele>85.599998474121</ele>
        <time>2018-02-03T08:52:43.000Z</time>
      </trkpt>
      <trkpt lat="43.43382" lon="6.63198">
        <ele>85.199996948242</ele>
        <time>2018-02-03T08:52:44.000Z</time>
      </trkpt>
      <trkpt lat="43.43384" lon="6.63176">
        <ele>84</ele>
        <time>2018-02-03T08:52:47.000Z</time>
      </trkpt>
      <trkpt lat="43.43384" lon="6.63169">
        <ele>83.599998474121</ele>
        <time>2018-02-03T08:52:48.000Z</time>
      </trkpt>
      <trkpt lat="43.43382" lon="6.63158">
        <ele>82.800003051758</ele>
        <time>2018-02-03T08:52:50.000Z</time>
      </trkpt>
      <trkpt lat="43.43382" lon="6.63153">
        <ele>82.599998474121</ele>
        <time>2018-02-03T08:52:51.000Z</time>
      </trkpt>
      <trkpt lat="43.43383" lon="6.63141">
        <ele>82.199996948242</ele>
        <time>2018-02-03T08:52:53.000Z</time>
      </trkpt>
      <trkpt lat="43.43383" lon="6.63135">
        <ele>81.800003051758</ele>
        <time>2018-02-03T08:52:54.000Z</time>
      </trkpt>
      <trkpt lat="43.43385" lon="6.63127">
        <ele>81.199996948242</ele>
        <time>2018-02-03T08:52:55.000Z</time>
      </trkpt>
      <trkpt lat="43.43386" lon="6.63121">
        <ele>80.800003051758</ele>
        <time>2018-02-03T08:52:56.000Z</time>
      </trkpt>
      <trkpt lat="43.43389" lon="6.63112">
        <ele>80.400001525879</ele>
        <time>2018-02-03T08:52:57.000Z</time>
      </trkpt>
      <trkpt lat="43.43389" lon="6.63106">
        <ele>79.800003051758</ele>
        <time>2018-02-03T08:52:58.000Z</time>
      </trkpt>
      <trkpt lat="43.43388" lon="6.63101">
        <ele>79.199996948242</ele>
        <time>2018-02-03T08:52:59.000Z</time>
      </trkpt>
      <trkpt lat="43.43388" lon="6.63094">
        <ele>78.400001525879</ele>
        <time>2018-02-03T08:53:00.000Z</time>
      </trkpt>
      <trkpt lat="43.43391" lon="6.63081">
        <ele>77.199996948242</ele>
        <time>2018-02-03T08:53:02.000Z</time>
      </trkpt>
      <trkpt lat="43.4339" lon="6.63074">
        <ele>76.800003051758</ele>
        <time>2018-02-03T08:53:03.000Z</time>
      </trkpt>
      <trkpt lat="43.43389" lon="6.63067">
        <ele>76.199996948242</ele>
        <time>2018-02-03T08:53:04.000Z</time>
      </trkpt>
      <trkpt lat="43.43389" lon="6.63053">
        <ele>75</ele>
        <time>2018-02-03T08:53:06.000Z</time>
      </trkpt>
      <trkpt lat="43.43389" lon="6.63047">
        <ele>74</ele>
        <time>2018-02-03T08:53:07.000Z</time>
      </trkpt>
      <trkpt lat="43.43389" lon="6.63043">
        <ele>73.199996948242</ele>
        <time>2018-02-03T08:53:08.000Z</time>
      </trkpt>
      <trkpt lat="43.43389" lon="6.63039">
        <ele>72.400001525879</ele>
        <time>2018-02-03T08:53:10.000Z</time>
      </trkpt>
      <trkpt lat="43.43392" lon="6.63034">
        <ele>72.199996948242</ele>
        <time>2018-02-03T08:53:13.000Z</time>
      </trkpt>
      <trkpt lat="43.43393" lon="6.63027">
        <ele>72.199996948242</ele>
        <time>2018-02-03T08:53:15.000Z</time>
      </trkpt>
      <trkpt lat="43.43393" lon="6.63019">
        <ele>71.800003051758</ele>
        <time>2018-02-03T08:53:17.000Z</time>
      </trkpt>
      <trkpt lat="43.43395" lon="6.63009">
        <ele>71.599998474121</ele>
        <time>2018-02-03T08:53:20.000Z</time>
      </trkpt>
      <trkpt lat="43.434" lon="6.62997">
        <ele>71.599998474121</ele>
        <time>2018-02-03T08:53:24.000Z</time>
      </trkpt>
      <trkpt lat="43.43401" lon="6.62988">
        <ele>71.800003051758</ele>
        <time>2018-02-03T08:53:26.000Z</time>
      </trkpt>
      <trkpt lat="43.43403" lon="6.62984">
        <ele>71.599998474121</ele>
        <time>2018-02-03T08:53:27.000Z</time>
      </trkpt>
      <trkpt lat="43.43411" lon="6.62973">
        <ele>71</ele>
        <time>2018-02-03T08:53:30.000Z</time>
      </trkpt>
      <trkpt lat="43.43414" lon="6.6297">
        <ele>70.599998474121</ele>
        <time>2018-02-03T08:53:31.000Z</time>
      </trkpt>
      <trkpt lat="43.43417" lon="6.62964">
        <ele>69.800003051758</ele>
        <time>2018-02-03T08:53:33.000Z</time>
      </trkpt>
      <trkpt lat="43.43421" lon="6.6296">
        <ele>69</ele>
        <time>2018-02-03T08:53:35.000Z</time>
      </trkpt>
      <trkpt lat="43.43423" lon="6.62957">
        <ele>68.599998474121</ele>
        <time>2018-02-03T08:53:36.000Z</time>
      </trkpt>
      <trkpt lat="43.43429" lon="6.62945">
        <ele>67.400001525879</ele>
        <time>2018-02-03T08:53:39.000Z</time>
      </trkpt>
      <trkpt lat="43.43435" lon="6.62935">
        <ele>66.199996948242</ele>
        <time>2018-02-03T08:53:42.000Z</time>
      </trkpt>
      <trkpt lat="43.43437" lon="6.6293">
        <ele>66</ele>
        <time>2018-02-03T08:53:43.000Z</time>
      </trkpt>
      <trkpt lat="43.43444" lon="6.62925">
        <ele>65.400001525879</ele>
        <time>2018-02-03T08:53:45.000Z</time>
      </trkpt>
      <trkpt lat="43.43446" lon="6.62924">
        <ele>65.199996948242</ele>
        <time>2018-02-03T08:53:46.000Z</time>
      </trkpt>
      <trkpt lat="43.4346" lon="6.62913">
        <ele>63.799999237061</ele>
        <time>2018-02-03T08:53:50.000Z</time>
      </trkpt>
      <trkpt lat="43.43462" lon="6.6291">
        <ele>63.400001525879</ele>
        <time>2018-02-03T08:53:51.000Z</time>
      </trkpt>
      <trkpt lat="43.43466" lon="6.62904">
        <ele>62.599998474121</ele>
        <time>2018-02-03T08:53:53.000Z</time>
      </trkpt>
      <trkpt lat="43.43466" lon="6.62902">
        <ele>62</ele>
        <time>2018-02-03T08:53:54.000Z</time>
      </trkpt>
      <trkpt lat="43.43467" lon="6.629">
        <ele>61.400001525879</ele>
        <time>2018-02-03T08:53:55.000Z</time>
      </trkpt>
      <trkpt lat="43.43471" lon="6.62898">
        <ele>60.799999237061</ele>
        <time>2018-02-03T08:53:57.000Z</time>
      </trkpt>
      <trkpt lat="43.43475" lon="6.62896">
        <ele>60</ele>
        <time>2018-02-03T08:53:59.000Z</time>
      </trkpt>
      <trkpt lat="43.43481" lon="6.62898">
        <ele>60</ele>
        <time>2018-02-03T08:54:02.000Z</time>
      </trkpt>
      <trkpt lat="43.43482" lon="6.62898">
        <ele>60</ele>
        <time>2018-02-03T08:54:03.000Z</time>
      </trkpt>
      <trkpt lat="43.43482" lon="6.62899">
        <ele>61</ele>
        <time>2018-02-03T08:54:08.000Z</time>
      </trkpt>
      <trkpt lat="43.43483" lon="6.62899">
        <ele>61.200000762939</ele>
        <time>2018-02-03T08:54:09.000Z</time>
      </trkpt>
      <trkpt lat="43.43485" lon="6.62898">
        <ele>61.599998474121</ele>
        <time>2018-02-03T08:54:11.000Z</time>
      </trkpt>
      <trkpt lat="43.43487" lon="6.62898">
        <ele>62.200000762939</ele>
        <time>2018-02-03T08:54:14.000Z</time>
      </trkpt>
      <trkpt lat="43.43489" lon="6.62896">
        <ele>62.799999237061</ele>
        <time>2018-02-03T08:54:22.000Z</time>
      </trkpt>
      <trkpt lat="43.43492" lon="6.62894">
        <ele>62.799999237061</ele>
        <time>2018-02-03T08:54:24.000Z</time>
      </trkpt>
      <trkpt lat="43.43496" lon="6.62896">
        <ele>63.400001525879</ele>
        <time>2018-02-03T08:54:27.000Z</time>
      </trkpt>
      <trkpt lat="43.43497" lon="6.62897">
        <ele>64.800003051758</ele>
        <time>2018-02-03T08:54:31.000Z</time>
      </trkpt>
      <trkpt lat="43.43496" lon="6.62897">
        <ele>65</ele>
        <time>2018-02-03T08:54:32.000Z</time>
      </trkpt>
      <trkpt lat="43.435" lon="6.62894">
        <ele>65.400001525879</ele>
        <time>2018-02-03T08:54:40.000Z</time>
      </trkpt>
      <trkpt lat="43.43502" lon="6.62894">
        <ele>66</ele>
        <time>2018-02-03T08:54:42.000Z</time>
      </trkpt>
      <trkpt lat="43.43504" lon="6.62893">
        <ele>66</ele>
        <time>2018-02-03T08:54:47.000Z</time>
      </trkpt>
      <trkpt lat="43.43513" lon="6.62892">
        <ele>66.199996948242</ele>
        <time>2018-02-03T08:54:52.000Z</time>
      </trkpt>
      <trkpt lat="43.43514" lon="6.62893">
        <ele>67</ele>
        <time>2018-02-03T08:54:54.000Z</time>
      </trkpt>
      <trkpt lat="43.43515" lon="6.62893">
        <ele>67.400001525879</ele>
        <time>2018-02-03T08:54:56.000Z</time>
      </trkpt>
      <trkpt lat="43.43517" lon="6.62894">
        <ele>68</ele>
        <time>2018-02-03T08:54:59.000Z</time>
      </trkpt>
      <trkpt lat="43.43518" lon="6.62895">
        <ele>68</ele>
        <time>2018-02-03T08:55:01.000Z</time>
      </trkpt>
      <trkpt lat="43.43518" lon="6.62895">
        <ele>68</ele>
        <time>2018-02-03T08:55:02.000Z</time>
      </trkpt>
      <trkpt lat="43.43519" lon="6.62896">
        <ele>69.199996948242</ele>
        <time>2018-02-03T08:55:09.000Z</time>
      </trkpt>
      <trkpt lat="43.43521" lon="6.62896">
        <ele>69.199996948242</ele>
        <time>2018-02-03T08:55:11.000Z</time>
      </trkpt>
      <trkpt lat="43.43522" lon="6.62895">
        <ele>69.199996948242</ele>
        <time>2018-02-03T08:55:12.000Z</time>
      </trkpt>
      <trkpt lat="43.43535" lon="6.62895">
        <ele>69.599998474121</ele>
        <time>2018-02-03T08:55:18.000Z</time>
      </trkpt>
      <trkpt lat="43.43538" lon="6.62895">
        <ele>70.199996948242</ele>
        <time>2018-02-03T08:55:20.000Z</time>
      </trkpt>
      <trkpt lat="43.43543" lon="6.62897">
        <ele>71.400001525879</ele>
        <time>2018-02-03T08:55:24.000Z</time>
      </trkpt>
      <trkpt lat="43.43546" lon="6.62898">
        <ele>72.400001525879</ele>
        <time>2018-02-03T08:55:28.000Z</time>
      </trkpt>
      <trkpt lat="43.43548" lon="6.62899">
        <ele>73</ele>
        <time>2018-02-03T08:55:30.000Z</time>
      </trkpt>
      <trkpt lat="43.4355" lon="6.62899">
        <ele>73.599998474121</ele>
        <time>2018-02-03T08:55:32.000Z</time>
      </trkpt>
      <trkpt lat="43.43555" lon="6.629">
        <ele>74.400001525879</ele>
        <time>2018-02-03T08:55:36.000Z</time>
      </trkpt>
      <trkpt lat="43.43556" lon="6.62901">
        <ele>74.800003051758</ele>
        <time>2018-02-03T08:55:37.000Z</time>
      </trkpt>
      <trkpt lat="43.43565" lon="6.62902">
        <ele>75.400001525879</ele>
        <time>2018-02-03T08:55:43.000Z</time>
      </trkpt>
      <trkpt lat="43.43571" lon="6.62909">
        <ele>75.400001525879</ele>
        <time>2018-02-03T08:55:47.000Z</time>
      </trkpt>
      <trkpt lat="43.43576" lon="6.62916">
        <ele>75.800003051758</ele>
        <time>2018-02-03T08:55:52.000Z</time>
      </trkpt>
      <trkpt lat="43.43577" lon="6.62917">
        <ele>76.400001525879</ele>
        <time>2018-02-03T08:55:53.000Z</time>
      </trkpt>
      <trkpt lat="43.43579" lon="6.62919">
        <ele>77</ele>
        <time>2018-02-03T08:55:55.000Z</time>
      </trkpt>
      <trkpt lat="43.43582" lon="6.62922">
        <ele>77.599998474121</ele>
        <time>2018-02-03T08:55:58.000Z</time>
      </trkpt>
      <trkpt lat="43.43585" lon="6.62924">
        <ele>77.800003051758</ele>
        <time>2018-02-03T08:56:00.000Z</time>
      </trkpt>
      <trkpt lat="43.43589" lon="6.62923">
        <ele>78</ele>
        <time>2018-02-03T08:56:03.000Z</time>
      </trkpt>
      <trkpt lat="43.43592" lon="6.62921">
        <ele>78</ele>
        <time>2018-02-03T08:56:06.000Z</time>
      </trkpt>
      <trkpt lat="43.43594" lon="6.62919">
        <ele>78.800003051758</ele>
        <time>2018-02-03T08:56:10.000Z</time>
      </trkpt>
      <trkpt lat="43.43595" lon="6.62919">
        <ele>79.199996948242</ele>
        <time>2018-02-03T08:56:12.000Z</time>
      </trkpt>
      <trkpt lat="43.43598" lon="6.62918">
        <ele>79.400001525879</ele>
        <time>2018-02-03T08:56:16.000Z</time>
      </trkpt>
      <trkpt lat="43.436" lon="6.62914">
        <ele>80.199996948242</ele>
        <time>2018-02-03T08:56:21.000Z</time>
      </trkpt>
      <trkpt lat="43.43601" lon="6.62911">
        <ele>81</ele>
        <time>2018-02-03T08:56:24.000Z</time>
      </trkpt>
      <trkpt lat="43.43602" lon="6.6291">
        <ele>81.400001525879</ele>
        <time>2018-02-03T08:56:25.000Z</time>
      </trkpt>
      <trkpt lat="43.43606" lon="6.62908">
        <ele>81.800003051758</ele>
        <time>2018-02-03T08:56:29.000Z</time>
      </trkpt>
      <trkpt lat="43.4361" lon="6.62908">
        <ele>82.400001525879</ele>
        <time>2018-02-03T08:56:35.000Z</time>
      </trkpt>
      <trkpt lat="43.43614" lon="6.62907">
        <ele>82.800003051758</ele>
        <time>2018-02-03T08:56:38.000Z</time>
      </trkpt>
      <trkpt lat="43.43616" lon="6.62907">
        <ele>83.599998474121</ele>
        <time>2018-02-03T08:56:41.000Z</time>
      </trkpt>
      <trkpt lat="43.43618" lon="6.6291">
        <ele>84.199996948242</ele>
        <time>2018-02-03T08:56:45.000Z</time>
      </trkpt>
      <trkpt lat="43.43618" lon="6.62912">
        <ele>84.599998474121</ele>
        <time>2018-02-03T08:56:48.000Z</time>
      </trkpt>
      <trkpt lat="43.43617" lon="6.62914">
        <ele>85.400001525879</ele>
        <time>2018-02-03T08:56:52.000Z</time>
      </trkpt>
      <trkpt lat="43.43617" lon="6.62915">
        <ele>85.599998474121</ele>
        <time>2018-02-03T08:56:53.000Z</time>
      </trkpt>
      <trkpt lat="43.43617" lon="6.6292">
        <ele>86.800003051758</ele>
        <time>2018-02-03T08:56:59.000Z</time>
      </trkpt>
      <trkpt lat="43.43618" lon="6.62921">
        <ele>86.800003051758</ele>
        <time>2018-02-03T08:57:00.000Z</time>
      </trkpt>
      <trkpt lat="43.43623" lon="6.62925">
        <ele>88</ele>
        <time>2018-02-03T08:57:08.000Z</time>
      </trkpt>
      <trkpt lat="43.43628" lon="6.62928">
        <ele>89</ele>
        <time>2018-02-03T08:57:15.000Z</time>
      </trkpt>
      <trkpt lat="43.43628" lon="6.62929">
        <ele>89.199996948242</ele>
        <time>2018-02-03T08:57:16.000Z</time>
      </trkpt>
      <trkpt lat="43.43631" lon="6.6293">
        <ele>90</ele>
        <time>2018-02-03T08:57:20.000Z</time>
      </trkpt>
      <trkpt lat="43.43633" lon="6.62932">
        <ele>91</ele>
        <time>2018-02-03T08:57:23.000Z</time>
      </trkpt>
      <trkpt lat="43.43634" lon="6.62932">
        <ele>91.199996948242</ele>
        <time>2018-02-03T08:57:24.000Z</time>
      </trkpt>
      <trkpt lat="43.43638" lon="6.62936">
        <ele>92.400001525879</ele>
        <time>2018-02-03T08:57:30.000Z</time>
      </trkpt>
      <trkpt lat="43.43638" lon="6.62936">
        <ele>92.599998474121</ele>
        <time>2018-02-03T08:57:31.000Z</time>
      </trkpt>
      <trkpt lat="43.43641" lon="6.62938">
        <ele>92.800003051758</ele>
        <time>2018-02-03T08:57:37.000Z</time>
      </trkpt>
      <trkpt lat="43.43647" lon="6.62943">
        <ele>93.400001525879</ele>
        <time>2018-02-03T08:57:43.000Z</time>
      </trkpt>
      <trkpt lat="43.43648" lon="6.62945">
        <ele>93.400001525879</ele>
        <time>2018-02-03T08:57:44.000Z</time>
      </trkpt>
      <trkpt lat="43.43653" lon="6.62949">
        <ele>94.400001525879</ele>
        <time>2018-02-03T08:57:48.000Z</time>
      </trkpt>
      <trkpt lat="43.43655" lon="6.62952">
        <ele>94.599998474121</ele>
        <time>2018-02-03T08:57:50.000Z</time>
      </trkpt>
      <trkpt lat="43.43659" lon="6.62957">
        <ele>94.599998474121</ele>
        <time>2018-02-03T08:57:53.000Z</time>
      </trkpt>
      <trkpt lat="43.4366" lon="6.62958">
        <ele>94.800003051758</ele>
        <time>2018-02-03T08:57:54.000Z</time>
      </trkpt>
      <trkpt lat="43.43662" lon="6.62959">
        <ele>95</ele>
        <time>2018-02-03T08:57:55.000Z</time>
      </trkpt>
      <trkpt lat="43.43664" lon="6.62962">
        <ele>95.400001525879</ele>
        <time>2018-02-03T08:57:57.000Z</time>
      </trkpt>
      <trkpt lat="43.43664" lon="6.62964">
        <ele>95.599998474121</ele>
        <time>2018-02-03T08:57:58.000Z</time>
      </trkpt>
      <trkpt lat="43.43667" lon="6.62968">
        <ele>96.199996948242</ele>
        <time>2018-02-03T08:58:01.000Z</time>
      </trkpt>
      <trkpt lat="43.43667" lon="6.6297">
        <ele>96.400001525879</ele>
        <time>2018-02-03T08:58:02.000Z</time>
      </trkpt>
      <trkpt lat="43.43668" lon="6.62973">
        <ele>97</ele>
        <time>2018-02-03T08:58:04.000Z</time>
      </trkpt>
      <trkpt lat="43.4367" lon="6.62976">
        <ele>97.800003051758</ele>
        <time>2018-02-03T08:58:07.000Z</time>
      </trkpt>
      <trkpt lat="43.43669" lon="6.62976">
        <ele>98.199996948242</ele>
        <time>2018-02-03T08:58:08.000Z</time>
      </trkpt>
      <trkpt lat="43.43675" lon="6.62978">
        <ele>99.400001525879</ele>
        <time>2018-02-03T08:58:12.000Z</time>
      </trkpt>
      <trkpt lat="43.43676" lon="6.6298">
        <ele>99.599998474121</ele>
        <time>2018-02-03T08:58:13.000Z</time>
      </trkpt>
      <trkpt lat="43.43681" lon="6.62983">
        <ele>100.59999847412</ele>
        <time>2018-02-03T08:58:18.000Z</time>
      </trkpt>
      <trkpt lat="43.43681" lon="6.62983">
        <ele>101</ele>
        <time>2018-02-03T08:58:19.000Z</time>
      </trkpt>
      <trkpt lat="43.43683" lon="6.62984">
        <ele>101.80000305176</ele>
        <time>2018-02-03T08:58:22.000Z</time>
      </trkpt>
      <trkpt lat="43.43683" lon="6.62986">
        <ele>101.80000305176</ele>
        <time>2018-02-03T08:58:23.000Z</time>
      </trkpt>
      <trkpt lat="43.43684" lon="6.62987">
        <ele>101.80000305176</ele>
        <time>2018-02-03T08:58:24.000Z</time>
      </trkpt>
      <trkpt lat="43.43686" lon="6.62989">
        <ele>101.80000305176</ele>
        <time>2018-02-03T08:58:26.000Z</time>
      </trkpt>
      <trkpt lat="43.43689" lon="6.62997">
        <ele>102.40000152588</ele>
        <time>2018-02-03T08:58:30.000Z</time>
      </trkpt>
      <trkpt lat="43.4369" lon="6.63">
        <ele>102.80000305176</ele>
        <time>2018-02-03T08:58:32.000Z</time>
      </trkpt>
      <trkpt lat="43.43691" lon="6.63002">
        <ele>103.19999694824</ele>
        <time>2018-02-03T08:58:34.000Z</time>
      </trkpt>
      <trkpt lat="43.43693" lon="6.63004">
        <ele>103.59999847412</ele>
        <time>2018-02-03T08:58:36.000Z</time>
      </trkpt>
      <trkpt lat="43.43696" lon="6.63004">
        <ele>103.80000305176</ele>
        <time>2018-02-03T08:58:38.000Z</time>
      </trkpt>
      <trkpt lat="43.43697" lon="6.63004">
        <ele>104.40000152588</ele>
        <time>2018-02-03T08:58:41.000Z</time>
      </trkpt>
      <trkpt lat="43.43699" lon="6.63005">
        <ele>105</ele>
        <time>2018-02-03T08:58:44.000Z</time>
      </trkpt>
      <trkpt lat="43.43701" lon="6.63007">
        <ele>105.40000152588</ele>
        <time>2018-02-03T08:58:48.000Z</time>
      </trkpt>
      <trkpt lat="43.43703" lon="6.63008">
        <ele>106</ele>
        <time>2018-02-03T08:58:52.000Z</time>
      </trkpt>
      <trkpt lat="43.43706" lon="6.63009">
        <ele>107</ele>
        <time>2018-02-03T08:58:57.000Z</time>
      </trkpt>
      <trkpt lat="43.43707" lon="6.6301">
        <ele>107.19999694824</ele>
        <time>2018-02-03T08:58:58.000Z</time>
      </trkpt>
      <trkpt lat="43.43711" lon="6.63012">
        <ele>108.40000152588</ele>
        <time>2018-02-03T08:59:05.000Z</time>
      </trkpt>
      <trkpt lat="43.43712" lon="6.63013">
        <ele>108.59999847412</ele>
        <time>2018-02-03T08:59:06.000Z</time>
      </trkpt>
      <trkpt lat="43.43714" lon="6.63013">
        <ele>109.40000152588</ele>
        <time>2018-02-03T08:59:09.000Z</time>
      </trkpt>
      <trkpt lat="43.43717" lon="6.63013">
        <ele>110.40000152588</ele>
        <time>2018-02-03T08:59:13.000Z</time>
      </trkpt>
      <trkpt lat="43.43718" lon="6.63013">
        <ele>110.59999847412</ele>
        <time>2018-02-03T08:59:14.000Z</time>
      </trkpt>
      <trkpt lat="43.43719" lon="6.63013">
        <ele>111</ele>
        <time>2018-02-03T08:59:15.000Z</time>
      </trkpt>
      <trkpt lat="43.43722" lon="6.63013">
        <ele>111.59999847412</ele>
        <time>2018-02-03T08:59:18.000Z</time>
      </trkpt>
      <trkpt lat="43.43723" lon="6.63013">
        <ele>111.80000305176</ele>
        <time>2018-02-03T08:59:20.000Z</time>
      </trkpt>
      <trkpt lat="43.43724" lon="6.63012">
        <ele>112.40000152588</ele>
        <time>2018-02-03T08:59:22.000Z</time>
      </trkpt>
      <trkpt lat="43.43725" lon="6.63011">
        <ele>112.59999847412</ele>
        <time>2018-02-03T08:59:23.000Z</time>
      </trkpt>
      <trkpt lat="43.43728" lon="6.63009">
        <ele>113.59999847412</ele>
        <time>2018-02-03T08:59:27.000Z</time>
      </trkpt>
      <trkpt lat="43.43729" lon="6.63008">
        <ele>113.59999847412</ele>
        <time>2018-02-03T08:59:28.000Z</time>
      </trkpt>
      <trkpt lat="43.43733" lon="6.63007">
        <ele>114.59999847412</ele>
        <time>2018-02-03T08:59:33.000Z</time>
      </trkpt>
      <trkpt lat="43.43733" lon="6.63007">
        <ele>115</ele>
        <time>2018-02-03T08:59:34.000Z</time>
      </trkpt>
      <trkpt lat="43.43736" lon="6.63007">
        <ele>116</ele>
        <time>2018-02-03T08:59:38.000Z</time>
      </trkpt>
      <trkpt lat="43.4374" lon="6.63004">
        <ele>116.59999847412</ele>
        <time>2018-02-03T08:59:42.000Z</time>
      </trkpt>
      <trkpt lat="43.43741" lon="6.63002">
        <ele>116.19999694824</ele>
        <time>2018-02-03T08:59:48.000Z</time>
      </trkpt>
      <trkpt lat="43.43742" lon="6.63003">
        <ele>115.59999847412</ele>
        <time>2018-02-03T08:59:58.000Z</time>
      </trkpt>
      <trkpt lat="43.43743" lon="6.63003">
        <ele>115.19999694824</ele>
        <time>2018-02-03T09:00:08.000Z</time>
      </trkpt>
      <trkpt lat="43.43743" lon="6.63002">
        <ele>115</ele>
        <time>2018-02-03T09:00:16.000Z</time>
      </trkpt>
      <trkpt lat="43.43744" lon="6.63002">
        <ele>115.19999694824</ele>
        <time>2018-02-03T09:00:22.000Z</time>
      </trkpt>
      <trkpt lat="43.43745" lon="6.63002">
        <ele>115.59999847412</ele>
        <time>2018-02-03T09:00:30.000Z</time>
      </trkpt>
      <trkpt lat="43.43746" lon="6.63002">
        <ele>115.19999694824</ele>
        <time>2018-02-03T09:00:42.000Z</time>
      </trkpt>
      <trkpt lat="43.43747" lon="6.63003">
        <ele>114.59999847412</ele>
        <time>2018-02-03T09:00:52.000Z</time>
      </trkpt>
      <trkpt lat="43.43748" lon="6.63004">
        <ele>116</ele>
        <time>2018-02-03T09:00:58.000Z</time>
      </trkpt>
      <trkpt lat="43.43748" lon="6.63003">
        <ele>116</ele>
        <time>2018-02-03T09:01:03.000Z</time>
      </trkpt>
      <trkpt lat="43.43748" lon="6.63004">
        <ele>116.19999694824</ele>
        <time>2018-02-03T09:01:08.000Z</time>
      </trkpt>
      <trkpt lat="43.43748" lon="6.63002">
        <ele>116.40000152588</ele>
        <time>2018-02-03T09:01:19.000Z</time>
      </trkpt>
      <trkpt lat="43.43749" lon="6.63">
        <ele>116.40000152588</ele>
        <time>2018-02-03T09:01:26.000Z</time>
      </trkpt>
      <trkpt lat="43.43751" lon="6.62996">
        <ele>116.59999847412</ele>
        <time>2018-02-03T09:01:31.000Z</time>
      </trkpt>
      <trkpt lat="43.43758" lon="6.62989">
        <ele>116.59999847412</ele>
        <time>2018-02-03T09:01:36.000Z</time>
      </trkpt>
      <trkpt lat="43.43762" lon="6.62987">
        <ele>117.40000152588</ele>
        <time>2018-02-03T09:01:39.000Z</time>
      </trkpt>
      <trkpt lat="43.43762" lon="6.62985">
        <ele>118</ele>
        <time>2018-02-03T09:01:41.000Z</time>
      </trkpt>
      <trkpt lat="43.43763" lon="6.62984">
        <ele>118.19999694824</ele>
        <time>2018-02-03T09:01:42.000Z</time>
      </trkpt>
      <trkpt lat="43.43765" lon="6.62981">
        <ele>118.40000152588</ele>
        <time>2018-02-03T09:01:44.000Z</time>
      </trkpt>
      <trkpt lat="43.43767" lon="6.62978">
        <ele>118.80000305176</ele>
        <time>2018-02-03T09:01:46.000Z</time>
      </trkpt>
      <trkpt lat="43.43783" lon="6.62963">
        <ele>119.40000152588</ele>
        <time>2018-02-03T09:01:55.000Z</time>
      </trkpt>
      <trkpt lat="43.43794" lon="6.62959">
        <ele>120.40000152588</ele>
        <time>2018-02-03T09:02:01.000Z</time>
      </trkpt>
      <trkpt lat="43.43795" lon="6.62958">
        <ele>120.59999847412</ele>
        <time>2018-02-03T09:02:02.000Z</time>
      </trkpt>
      <trkpt lat="43.43801" lon="6.62952">
        <ele>121.80000305176</ele>
        <time>2018-02-03T09:02:06.000Z</time>
      </trkpt>
      <trkpt lat="43.43809" lon="6.62943">
        <ele>122.59999847412</ele>
        <time>2018-02-03T09:02:12.000Z</time>
      </trkpt>
      <trkpt lat="43.4381" lon="6.62942">
        <ele>122.80000305176</ele>
        <time>2018-02-03T09:02:13.000Z</time>
      </trkpt>
      <trkpt lat="43.43814" lon="6.62932">
        <ele>123.59999847412</ele>
        <time>2018-02-03T09:02:18.000Z</time>
      </trkpt>
      <trkpt lat="43.43815" lon="6.62925">
        <ele>124</ele>
        <time>2018-02-03T09:02:21.000Z</time>
      </trkpt>
      <trkpt lat="43.43816" lon="6.62916">
        <ele>124.59999847412</ele>
        <time>2018-02-03T09:02:25.000Z</time>
      </trkpt>
      <trkpt lat="43.43817" lon="6.62911">
        <ele>125</ele>
        <time>2018-02-03T09:02:27.000Z</time>
      </trkpt>
      <trkpt lat="43.43819" lon="6.62899">
        <ele>126</ele>
        <time>2018-02-03T09:02:32.000Z</time>
      </trkpt>
      <trkpt lat="43.4382" lon="6.62895">
        <ele>126.40000152588</ele>
        <time>2018-02-03T09:02:34.000Z</time>
      </trkpt>
      <trkpt lat="43.43823" lon="6.62879">
        <ele>127</ele>
        <time>2018-02-03T09:02:40.000Z</time>
      </trkpt>
      <trkpt lat="43.43825" lon="6.6287">
        <ele>128.19999694824</ele>
        <time>2018-02-03T09:02:44.000Z</time>
      </trkpt>
      <trkpt lat="43.43826" lon="6.62867">
        <ele>128.60000610352</ele>
        <time>2018-02-03T09:02:45.000Z</time>
      </trkpt>
      <trkpt lat="43.43828" lon="6.62851">
        <ele>129</ele>
        <time>2018-02-03T09:02:50.000Z</time>
      </trkpt>
      <trkpt lat="43.43832" lon="6.62835">
        <ele>129.39999389648</ele>
        <time>2018-02-03T09:02:55.000Z</time>
      </trkpt>
      <trkpt lat="43.43832" lon="6.62832">
        <ele>129.19999694824</ele>
        <time>2018-02-03T09:02:56.000Z</time>
      </trkpt>
      <trkpt lat="43.43834" lon="6.62814">
        <ele>130.60000610352</ele>
        <time>2018-02-03T09:03:02.000Z</time>
      </trkpt>
      <trkpt lat="43.43834" lon="6.6281">
        <ele>130.80000305176</ele>
        <time>2018-02-03T09:03:03.000Z</time>
      </trkpt>
      <trkpt lat="43.43838" lon="6.62795">
        <ele>130.80000305176</ele>
        <time>2018-02-03T09:03:07.000Z</time>
      </trkpt>
      <trkpt lat="43.43843" lon="6.62786">
        <ele>130.80000305176</ele>
        <time>2018-02-03T09:03:09.000Z</time>
      </trkpt>
      <trkpt lat="43.43849" lon="6.62761">
        <ele>129.39999389648</ele>
        <time>2018-02-03T09:03:13.000Z</time>
      </trkpt>
      <trkpt lat="43.43851" lon="6.62755">
        <ele>129</ele>
        <time>2018-02-03T09:03:14.000Z</time>
      </trkpt>
      <trkpt lat="43.43854" lon="6.6275">
        <ele>128.39999389648</ele>
        <time>2018-02-03T09:03:15.000Z</time>
      </trkpt>
      <trkpt lat="43.43857" lon="6.62742">
        <ele>127.40000152588</ele>
        <time>2018-02-03T09:03:17.000Z</time>
      </trkpt>
      <trkpt lat="43.43858" lon="6.62738">
        <ele>126.59999847412</ele>
        <time>2018-02-03T09:03:18.000Z</time>
      </trkpt>
      <trkpt lat="43.4386" lon="6.62732">
        <ele>125.80000305176</ele>
        <time>2018-02-03T09:03:19.000Z</time>
      </trkpt>
      <trkpt lat="43.43861" lon="6.62727">
        <ele>125.40000152588</ele>
        <time>2018-02-03T09:03:20.000Z</time>
      </trkpt>
      <trkpt lat="43.43863" lon="6.62716">
        <ele>123.59999847412</ele>
        <time>2018-02-03T09:03:22.000Z</time>
      </trkpt>
      <trkpt lat="43.43864" lon="6.6271">
        <ele>122.80000305176</ele>
        <time>2018-02-03T09:03:23.000Z</time>
      </trkpt>
      <trkpt lat="43.43867" lon="6.62694">
        <ele>122.40000152588</ele>
        <time>2018-02-03T09:03:26.000Z</time>
      </trkpt>
      <trkpt lat="43.43874" lon="6.62676">
        <ele>121.80000305176</ele>
        <time>2018-02-03T09:03:30.000Z</time>
      </trkpt>
      <trkpt lat="43.43876" lon="6.62666">
        <ele>121</ele>
        <time>2018-02-03T09:03:32.000Z</time>
      </trkpt>
      <trkpt lat="43.43877" lon="6.62661">
        <ele>120.19999694824</ele>
        <time>2018-02-03T09:03:33.000Z</time>
      </trkpt>
      <trkpt lat="43.4388" lon="6.62652">
        <ele>119.59999847412</ele>
        <time>2018-02-03T09:03:35.000Z</time>
      </trkpt>
      <trkpt lat="43.43883" lon="6.62641">
        <ele>118.59999847412</ele>
        <time>2018-02-03T09:03:37.000Z</time>
      </trkpt>
      <trkpt lat="43.43884" lon="6.62637">
        <ele>118</ele>
        <time>2018-02-03T09:03:38.000Z</time>
      </trkpt>
      <trkpt lat="43.43892" lon="6.62628">
        <ele>117.19999694824</ele>
        <time>2018-02-03T09:03:41.000Z</time>
      </trkpt>
      <trkpt lat="43.43894" lon="6.62624">
        <ele>116.80000305176</ele>
        <time>2018-02-03T09:03:42.000Z</time>
      </trkpt>
      <trkpt lat="43.43898" lon="6.62608">
        <ele>115.59999847412</ele>
        <time>2018-02-03T09:03:45.000Z</time>
      </trkpt>
      <trkpt lat="43.439" lon="6.62595">
        <ele>114.40000152588</ele>
        <time>2018-02-03T09:03:48.000Z</time>
      </trkpt>
      <trkpt lat="43.43902" lon="6.6259">
        <ele>114</ele>
        <time>2018-02-03T09:03:49.000Z</time>
      </trkpt>
      <trkpt lat="43.43905" lon="6.62587">
        <ele>113.59999847412</ele>
        <time>2018-02-03T09:03:50.000Z</time>
      </trkpt>
      <trkpt lat="43.43909" lon="6.62584">
        <ele>113.19999694824</ele>
        <time>2018-02-03T09:03:51.000Z</time>
      </trkpt>
      <trkpt lat="43.43915" lon="6.62575">
        <ele>111.40000152588</ele>
        <time>2018-02-03T09:03:53.000Z</time>
      </trkpt>
      <trkpt lat="43.43918" lon="6.62569">
        <ele>111.19999694824</ele>
        <time>2018-02-03T09:03:54.000Z</time>
      </trkpt>
      <trkpt lat="43.43924" lon="6.6256">
        <ele>110.40000152588</ele>
        <time>2018-02-03T09:03:56.000Z</time>
      </trkpt>
      <trkpt lat="43.43927" lon="6.62555">
        <ele>110.19999694824</ele>
        <time>2018-02-03T09:03:57.000Z</time>
      </trkpt>
      <trkpt lat="43.43935" lon="6.62543">
        <ele>109.40000152588</ele>
        <time>2018-02-03T09:04:00.000Z</time>
      </trkpt>
      <trkpt lat="43.43942" lon="6.62533">
        <ele>108</ele>
        <time>2018-02-03T09:04:03.000Z</time>
      </trkpt>
      <trkpt lat="43.43945" lon="6.62532">
        <ele>107.59999847412</ele>
        <time>2018-02-03T09:04:04.000Z</time>
      </trkpt>
      <trkpt lat="43.43951" lon="6.62538">
        <ele>106.80000305176</ele>
        <time>2018-02-03T09:04:06.000Z</time>
      </trkpt>
      <trkpt lat="43.43953" lon="6.62542">
        <ele>106.59999847412</ele>
        <time>2018-02-03T09:04:07.000Z</time>
      </trkpt>
      <trkpt lat="43.43956" lon="6.62547">
        <ele>106.59999847412</ele>
        <time>2018-02-03T09:04:08.000Z</time>
      </trkpt>
      <trkpt lat="43.43962" lon="6.62565">
        <ele>106</ele>
        <time>2018-02-03T09:04:11.000Z</time>
      </trkpt>
      <trkpt lat="43.43963" lon="6.62571">
        <ele>105.19999694824</ele>
        <time>2018-02-03T09:04:12.000Z</time>
      </trkpt>
      <trkpt lat="43.43962" lon="6.62594">
        <ele>103.59999847412</ele>
        <time>2018-02-03T09:04:15.000Z</time>
      </trkpt>
      <trkpt lat="43.4396" lon="6.62601">
        <ele>103</ele>
        <time>2018-02-03T09:04:16.000Z</time>
      </trkpt>
      <trkpt lat="43.43956" lon="6.62614">
        <ele>102.19999694824</ele>
        <time>2018-02-03T09:04:18.000Z</time>
      </trkpt>
      <trkpt lat="43.43954" lon="6.62622">
        <ele>101.19999694824</ele>
        <time>2018-02-03T09:04:20.000Z</time>
      </trkpt>
      <trkpt lat="43.43954" lon="6.62623">
        <ele>100.19999694824</ele>
        <time>2018-02-03T09:04:22.000Z</time>
      </trkpt>
      <trkpt lat="43.43954" lon="6.62623">
        <ele>99.599998474121</ele>
        <time>2018-02-03T09:04:23.000Z</time>
      </trkpt>
      <trkpt lat="43.43954" lon="6.62623">
        <ele>99</ele>
        <time>2018-02-03T09:04:24.000Z</time>
      </trkpt>
      <trkpt lat="43.43954" lon="6.62622">
        <ele>98</ele>
        <time>2018-02-03T09:04:28.000Z</time>
      </trkpt>
      <trkpt lat="43.43954" lon="6.62622">
        <ele>97.199996948242</ele>
        <time>2018-02-03T09:04:34.000Z</time>
      </trkpt>
      <trkpt lat="43.43954" lon="6.62622">
        <ele>97</ele>
        <time>2018-02-03T09:04:35.000Z</time>
      </trkpt>
      <trkpt lat="43.43955" lon="6.62622">
        <ele>95.800003051758</ele>
        <time>2018-02-03T09:04:41.000Z</time>
      </trkpt>
      <trkpt lat="43.43955" lon="6.62622">
        <ele>95.599998474121</ele>
        <time>2018-02-03T09:04:43.000Z</time>
      </trkpt>
      <trkpt lat="43.43955" lon="6.62622">
        <ele>94.800003051758</ele>
        <time>2018-02-03T09:04:50.000Z</time>
      </trkpt>
      <trkpt lat="43.43954" lon="6.62622">
        <ele>94.400001525879</ele>
        <time>2018-02-03T09:04:52.000Z</time>
      </trkpt>
      <trkpt lat="43.43954" lon="6.62622">
        <ele>94.199996948242</ele>
        <time>2018-02-03T09:04:53.000Z</time>
      </trkpt>
      <trkpt lat="43.43957" lon="6.62624">
        <ele>93.599998474121</ele>
        <time>2018-02-03T09:04:57.000Z</time>
      </trkpt>
      <trkpt lat="43.43959" lon="6.62624">
        <ele>93.400001525879</ele>
        <time>2018-02-03T09:04:58.000Z</time>
      </trkpt>
      <trkpt lat="43.43962" lon="6.62622">
        <ele>92.199996948242</ele>
        <time>2018-02-03T09:05:00.000Z</time>
      </trkpt>
      <trkpt lat="43.43965" lon="6.62619">
        <ele>90.800003051758</ele>
        <time>2018-02-03T09:05:02.000Z</time>
      </trkpt>
      <trkpt lat="43.43968" lon="6.62617">
        <ele>89.199996948242</ele>
        <time>2018-02-03T09:05:04.000Z</time>
      </trkpt>
      <trkpt lat="43.43972" lon="6.62609">
        <ele>87.800003051758</ele>
        <time>2018-02-03T09:05:06.000Z</time>
      </trkpt>
      <trkpt lat="43.43979" lon="6.62607">
        <ele>86.599998474121</ele>
        <time>2018-02-03T09:05:08.000Z</time>
      </trkpt>
      <trkpt lat="43.4398" lon="6.62609">
        <ele>85.800003051758</ele>
        <time>2018-02-03T09:05:09.000Z</time>
      </trkpt>
      <trkpt lat="43.43981" lon="6.62613">
        <ele>84.800003051758</ele>
        <time>2018-02-03T09:05:10.000Z</time>
      </trkpt>
      <trkpt lat="43.43981" lon="6.6262">
        <ele>83</ele>
        <time>2018-02-03T09:05:12.000Z</time>
      </trkpt>
      <trkpt lat="43.43981" lon="6.62622">
        <ele>82</ele>
        <time>2018-02-03T09:05:13.000Z</time>
      </trkpt>
      <trkpt lat="43.43987" lon="6.62624">
        <ele>80.800003051758</ele>
        <time>2018-02-03T09:05:15.000Z</time>
      </trkpt>
      <trkpt lat="43.43991" lon="6.62627">
        <ele>79.800003051758</ele>
        <time>2018-02-03T09:05:17.000Z</time>
      </trkpt>
      <trkpt lat="43.43993" lon="6.62625">
        <ele>79.400001525879</ele>
        <time>2018-02-03T09:05:18.000Z</time>
      </trkpt>
      <trkpt lat="43.43994" lon="6.62623">
        <ele>78.400001525879</ele>
        <time>2018-02-03T09:05:19.000Z</time>
      </trkpt>
      <trkpt lat="43.43997" lon="6.62616">
        <ele>77.199996948242</ele>
        <time>2018-02-03T09:05:21.000Z</time>
      </trkpt>
      <trkpt lat="43.44" lon="6.62614">
        <ele>76.599998474121</ele>
        <time>2018-02-03T09:05:22.000Z</time>
      </trkpt>
      <trkpt lat="43.44004" lon="6.62613">
        <ele>75.400001525879</ele>
        <time>2018-02-03T09:05:23.000Z</time>
      </trkpt>
      <trkpt lat="43.44011" lon="6.62614">
        <ele>73.400001525879</ele>
        <time>2018-02-03T09:05:25.000Z</time>
      </trkpt>
      <trkpt lat="43.44013" lon="6.62616">
        <ele>71.800003051758</ele>
        <time>2018-02-03T09:05:26.000Z</time>
      </trkpt>
      <trkpt lat="43.44015" lon="6.62616">
        <ele>70.599998474121</ele>
        <time>2018-02-03T09:05:27.000Z</time>
      </trkpt>
      <trkpt lat="43.44016" lon="6.62617">
        <ele>69.400001525879</ele>
        <time>2018-02-03T09:05:28.000Z</time>
      </trkpt>
      <trkpt lat="43.44017" lon="6.62617">
        <ele>68</ele>
        <time>2018-02-03T09:05:29.000Z</time>
      </trkpt>
      <trkpt lat="43.44018" lon="6.62617">
        <ele>67</ele>
        <time>2018-02-03T09:05:30.000Z</time>
      </trkpt>
      <trkpt lat="43.44018" lon="6.62616">
        <ele>66.400001525879</ele>
        <time>2018-02-03T09:05:31.000Z</time>
      </trkpt>
      <trkpt lat="43.44021" lon="6.62616">
        <ele>64.800003051758</ele>
        <time>2018-02-03T09:05:33.000Z</time>
      </trkpt>
      <trkpt lat="43.44026" lon="6.62617">
        <ele>64</ele>
        <time>2018-02-03T09:05:35.000Z</time>
      </trkpt>
      <trkpt lat="43.44028" lon="6.62616">
        <ele>63.400001525879</ele>
        <time>2018-02-03T09:05:36.000Z</time>
      </trkpt>
      <trkpt lat="43.44029" lon="6.62616">
        <ele>63</ele>
        <time>2018-02-03T09:05:37.000Z</time>
      </trkpt>
      <trkpt lat="43.4403" lon="6.62615">
        <ele>62.400001525879</ele>
        <time>2018-02-03T09:05:38.000Z</time>
      </trkpt>
      <trkpt lat="43.4403" lon="6.62613">
        <ele>61.799999237061</ele>
        <time>2018-02-03T09:05:39.000Z</time>
      </trkpt>
      <trkpt lat="43.4403" lon="6.62612">
        <ele>61.400001525879</ele>
        <time>2018-02-03T09:05:40.000Z</time>
      </trkpt>
      <trkpt lat="43.44031" lon="6.62608">
        <ele>60.599998474121</ele>
        <time>2018-02-03T09:05:44.000Z</time>
      </trkpt>
      <trkpt lat="43.44031" lon="6.62608">
        <ele>60.799999237061</ele>
        <time>2018-02-03T09:05:53.000Z</time>
      </trkpt>
      <trkpt lat="43.44031" lon="6.62602">
        <ele>60.400001525879</ele>
        <time>2018-02-03T09:05:59.000Z</time>
      </trkpt>
      <trkpt lat="43.44032" lon="6.62599">
        <ele>60.200000762939</ele>
        <time>2018-02-03T09:06:00.000Z</time>
      </trkpt>
      <trkpt lat="43.44036" lon="6.62582">
        <ele>60</ele>
        <time>2018-02-03T09:06:04.000Z</time>
      </trkpt>
      <trkpt lat="43.44042" lon="6.62564">
        <ele>59.200000762939</ele>
        <time>2018-02-03T09:06:07.000Z</time>
      </trkpt>
      <trkpt lat="43.44046" lon="6.62549">
        <ele>58.200000762939</ele>
        <time>2018-02-03T09:06:09.000Z</time>
      </trkpt>
      <trkpt lat="43.4405" lon="6.62533">
        <ele>57</ele>
        <time>2018-02-03T09:06:11.000Z</time>
      </trkpt>
      <trkpt lat="43.44053" lon="6.6252">
        <ele>55.599998474121</ele>
        <time>2018-02-03T09:06:13.000Z</time>
      </trkpt>
      <trkpt lat="43.44054" lon="6.62516">
        <ele>55</ele>
        <time>2018-02-03T09:06:14.000Z</time>
      </trkpt>
      <trkpt lat="43.44055" lon="6.62514">
        <ele>54.200000762939</ele>
        <time>2018-02-03T09:06:15.000Z</time>
      </trkpt>
      <trkpt lat="43.44056" lon="6.62512">
        <ele>53.200000762939</ele>
        <time>2018-02-03T09:06:18.000Z</time>
      </trkpt>
      <trkpt lat="43.44056" lon="6.62512">
        <ele>53</ele>
        <time>2018-02-03T09:06:19.000Z</time>
      </trkpt>
      <trkpt lat="43.44056" lon="6.62512">
        <ele>52</ele>
        <time>2018-02-03T09:06:23.000Z</time>
      </trkpt>
      <trkpt lat="43.44058" lon="6.62509">
        <ele>51.799999237061</ele>
        <time>2018-02-03T09:06:39.000Z</time>
      </trkpt>
      <trkpt lat="43.4406" lon="6.62497">
        <ele>51.799999237061</ele>
        <time>2018-02-03T09:06:43.000Z</time>
      </trkpt>
      <trkpt lat="43.4406" lon="6.62491">
        <ele>51.799999237061</ele>
        <time>2018-02-03T09:06:44.000Z</time>
      </trkpt>
      <trkpt lat="43.44062" lon="6.62479">
        <ele>51.200000762939</ele>
        <time>2018-02-03T09:06:46.000Z</time>
      </trkpt>
      <trkpt lat="43.44064" lon="6.62472">
        <ele>50.799999237061</ele>
        <time>2018-02-03T09:06:47.000Z</time>
      </trkpt>
      <trkpt lat="43.44071" lon="6.62451">
        <ele>49.200000762939</ele>
        <time>2018-02-03T09:06:50.000Z</time>
      </trkpt>
      <trkpt lat="43.44073" lon="6.62438">
        <ele>47.799999237061</ele>
        <time>2018-02-03T09:06:52.000Z</time>
      </trkpt>
      <trkpt lat="43.44076" lon="6.62427">
        <ele>46.400001525879</ele>
        <time>2018-02-03T09:06:54.000Z</time>
      </trkpt>
      <trkpt lat="43.44077" lon="6.62417">
        <ele>45.200000762939</ele>
        <time>2018-02-03T09:06:56.000Z</time>
      </trkpt>
      <trkpt lat="43.44078" lon="6.62412">
        <ele>44.799999237061</ele>
        <time>2018-02-03T09:06:57.000Z</time>
      </trkpt>
      <trkpt lat="43.44079" lon="6.62407">
        <ele>44</ele>
        <time>2018-02-03T09:06:58.000Z</time>
      </trkpt>
      <trkpt lat="43.44082" lon="6.62389">
        <ele>42.599998474121</ele>
        <time>2018-02-03T09:07:01.000Z</time>
      </trkpt>
      <trkpt lat="43.44082" lon="6.62383">
        <ele>42</ele>
        <time>2018-02-03T09:07:02.000Z</time>
      </trkpt>
      <trkpt lat="43.44082" lon="6.62379">
        <ele>41.400001525879</ele>
        <time>2018-02-03T09:07:03.000Z</time>
      </trkpt>
      <trkpt lat="43.4408" lon="6.62373">
        <ele>40.400001525879</ele>
        <time>2018-02-03T09:07:05.000Z</time>
      </trkpt>
      <trkpt lat="43.44079" lon="6.62371">
        <ele>40.200000762939</ele>
        <time>2018-02-03T09:07:06.000Z</time>
      </trkpt>
      <trkpt lat="43.44079" lon="6.62369">
        <ele>39.799999237061</ele>
        <time>2018-02-03T09:07:10.000Z</time>
      </trkpt>
      <trkpt lat="43.44079" lon="6.62369">
        <ele>39.400001525879</ele>
        <time>2018-02-03T09:07:13.000Z</time>
      </trkpt>
      <trkpt lat="43.44076" lon="6.62365">
        <ele>39.400001525879</ele>
        <time>2018-02-03T09:07:17.000Z</time>
      </trkpt>
      <trkpt lat="43.44062" lon="6.62355">
        <ele>39.200000762939</ele>
        <time>2018-02-03T09:07:23.000Z</time>
      </trkpt>
      <trkpt lat="43.44051" lon="6.62348">
        <ele>38</ele>
        <time>2018-02-03T09:07:26.000Z</time>
      </trkpt>
      <trkpt lat="43.44039" lon="6.62341">
        <ele>37</ele>
        <time>2018-02-03T09:07:29.000Z</time>
      </trkpt>
      <trkpt lat="43.44035" lon="6.62339">
        <ele>36.799999237061</ele>
        <time>2018-02-03T09:07:30.000Z</time>
      </trkpt>
      <trkpt lat="43.44018" lon="6.62331">
        <ele>35.799999237061</ele>
        <time>2018-02-03T09:07:34.000Z</time>
      </trkpt>
      <trkpt lat="43.43999" lon="6.62322">
        <ele>35</ele>
        <time>2018-02-03T09:07:38.000Z</time>
      </trkpt>
      <trkpt lat="43.43995" lon="6.6232">
        <ele>34.799999237061</ele>
        <time>2018-02-03T09:07:39.000Z</time>
      </trkpt>
      <trkpt lat="43.43991" lon="6.62319">
        <ele>34.400001525879</ele>
        <time>2018-02-03T09:07:40.000Z</time>
      </trkpt>
      <trkpt lat="43.43983" lon="6.62319">
        <ele>33.599998474121</ele>
        <time>2018-02-03T09:07:42.000Z</time>
      </trkpt>
      <trkpt lat="43.4398" lon="6.6232">
        <ele>33.400001525879</ele>
        <time>2018-02-03T09:07:43.000Z</time>
      </trkpt>
      <trkpt lat="43.43972" lon="6.62324">
        <ele>33</ele>
        <time>2018-02-03T09:07:45.000Z</time>
      </trkpt>
      <trkpt lat="43.43968" lon="6.62326">
        <ele>32.599998474121</ele>
        <time>2018-02-03T09:07:46.000Z</time>
      </trkpt>
      <trkpt lat="43.43963" lon="6.62327">
        <ele>32.200000762939</ele>
        <time>2018-02-03T09:07:47.000Z</time>
      </trkpt>
      <trkpt lat="43.43959" lon="6.62327">
        <ele>31.799999237061</ele>
        <time>2018-02-03T09:07:48.000Z</time>
      </trkpt>
      <trkpt lat="43.43955" lon="6.62326">
        <ele>31.39999961853</ele>
        <time>2018-02-03T09:07:49.000Z</time>
      </trkpt>
      <trkpt lat="43.43946" lon="6.6232">
        <ele>31</ele>
        <time>2018-02-03T09:07:51.000Z</time>
      </trkpt>
      <trkpt lat="43.43942" lon="6.62317">
        <ele>31</ele>
        <time>2018-02-03T09:07:52.000Z</time>
      </trkpt>
      <trkpt lat="43.43932" lon="6.62313">
        <ele>30.200000762939</ele>
        <time>2018-02-03T09:07:54.000Z</time>
      </trkpt>
      <trkpt lat="43.43922" lon="6.62313">
        <ele>29</ele>
        <time>2018-02-03T09:07:56.000Z</time>
      </trkpt>
      <trkpt lat="43.43911" lon="6.62314">
        <ele>27.60000038147</ele>
        <time>2018-02-03T09:07:58.000Z</time>
      </trkpt>
      <trkpt lat="43.43899" lon="6.62311">
        <ele>26.200000762939</ele>
        <time>2018-02-03T09:08:00.000Z</time>
      </trkpt>
      <trkpt lat="43.43888" lon="6.62306">
        <ele>24.60000038147</ele>
        <time>2018-02-03T09:08:02.000Z</time>
      </trkpt>
      <trkpt lat="43.43875" lon="6.62302">
        <ele>23.200000762939</ele>
        <time>2018-02-03T09:08:04.000Z</time>
      </trkpt>
      <trkpt lat="43.43868" lon="6.623">
        <ele>22.799999237061</ele>
        <time>2018-02-03T09:08:05.000Z</time>
      </trkpt>
      <trkpt lat="43.43849" lon="6.62293">
        <ele>21.39999961853</ele>
        <time>2018-02-03T09:08:08.000Z</time>
      </trkpt>
      <trkpt lat="43.43841" lon="6.62291">
        <ele>20.799999237061</ele>
        <time>2018-02-03T09:08:09.000Z</time>
      </trkpt>
      <trkpt lat="43.43834" lon="6.6229">
        <ele>19.799999237061</ele>
        <time>2018-02-03T09:08:10.000Z</time>
      </trkpt>
      <trkpt lat="43.43825" lon="6.62289">
        <ele>18.60000038147</ele>
        <time>2018-02-03T09:08:11.000Z</time>
      </trkpt>
      <trkpt lat="43.43817" lon="6.62288">
        <ele>17.60000038147</ele>
        <time>2018-02-03T09:08:12.000Z</time>
      </trkpt>
      <trkpt lat="43.43801" lon="6.62285">
        <ele>16.200000762939</ele>
        <time>2018-02-03T09:08:14.000Z</time>
      </trkpt>
      <trkpt lat="43.43788" lon="6.62283">
        <ele>15.39999961853</ele>
        <time>2018-02-03T09:08:16.000Z</time>
      </trkpt>
      <trkpt lat="43.43771" lon="6.6228">
        <ele>15</ele>
        <time>2018-02-03T09:08:19.000Z</time>
      </trkpt>
      <trkpt lat="43.43763" lon="6.62277">
        <ele>15</ele>
        <time>2018-02-03T09:08:21.000Z</time>
      </trkpt>
      <trkpt lat="43.43749" lon="6.62271">
        <ele>16</ele>
        <time>2018-02-03T09:08:26.000Z</time>
      </trkpt>
      <trkpt lat="43.4374" lon="6.62267">
        <ele>17.200000762939</ele>
        <time>2018-02-03T09:08:30.000Z</time>
      </trkpt>
      <trkpt lat="43.4373" lon="6.62263">
        <ele>18.200000762939</ele>
        <time>2018-02-03T09:08:34.000Z</time>
      </trkpt>
      <trkpt lat="43.43719" lon="6.62261">
        <ele>19.200000762939</ele>
        <time>2018-02-03T09:08:39.000Z</time>
      </trkpt>
      <trkpt lat="43.43712" lon="6.62258">
        <ele>19.799999237061</ele>
        <time>2018-02-03T09:08:42.000Z</time>
      </trkpt>
      <trkpt lat="43.437" lon="6.62253">
        <ele>20.200000762939</ele>
        <time>2018-02-03T09:08:47.000Z</time>
      </trkpt>
      <trkpt lat="43.43695" lon="6.62251">
        <ele>20.39999961853</ele>
        <time>2018-02-03T09:08:49.000Z</time>
      </trkpt>
      <trkpt lat="43.4368" lon="6.62241">
        <ele>21.39999961853</ele>
        <time>2018-02-03T09:08:56.000Z</time>
      </trkpt>
      <trkpt lat="43.43676" lon="6.62239">
        <ele>21.799999237061</ele>
        <time>2018-02-03T09:08:58.000Z</time>
      </trkpt>
      <trkpt lat="43.43665" lon="6.62232">
        <ele>22.39999961853</ele>
        <time>2018-02-03T09:09:03.000Z</time>
      </trkpt>
      <trkpt lat="43.43655" lon="6.62227">
        <ele>23.200000762939</ele>
        <time>2018-02-03T09:09:08.000Z</time>
      </trkpt>
      <trkpt lat="43.43653" lon="6.62227">
        <ele>23.39999961853</ele>
        <time>2018-02-03T09:09:09.000Z</time>
      </trkpt>
      <trkpt lat="43.43639" lon="6.62229">
        <ele>24</ele>
        <time>2018-02-03T09:09:15.000Z</time>
      </trkpt>
      <trkpt lat="43.43633" lon="6.62231">
        <ele>24.39999961853</ele>
        <time>2018-02-03T09:09:18.000Z</time>
      </trkpt>
      <trkpt lat="43.43623" lon="6.62234">
        <ele>25.39999961853</ele>
        <time>2018-02-03T09:09:23.000Z</time>
      </trkpt>
      <trkpt lat="43.43621" lon="6.62235">
        <ele>25.60000038147</ele>
        <time>2018-02-03T09:09:24.000Z</time>
      </trkpt>
      <trkpt lat="43.43608" lon="6.62239">
        <ele>26.60000038147</ele>
        <time>2018-02-03T09:09:30.000Z</time>
      </trkpt>
      <trkpt lat="43.43604" lon="6.6224">
        <ele>26.799999237061</ele>
        <time>2018-02-03T09:09:32.000Z</time>
      </trkpt>
      <trkpt lat="43.43587" lon="6.62249">
        <ele>27.60000038147</ele>
        <time>2018-02-03T09:09:40.000Z</time>
      </trkpt>
      <trkpt lat="43.43572" lon="6.62258">
        <ele>28</ele>
        <time>2018-02-03T09:09:48.000Z</time>
      </trkpt>
      <trkpt lat="43.43563" lon="6.62263">
        <ele>28.60000038147</ele>
        <time>2018-02-03T09:09:52.000Z</time>
      </trkpt>
      <trkpt lat="43.43555" lon="6.62269">
        <ele>29</ele>
        <time>2018-02-03T09:09:56.000Z</time>
      </trkpt>
      <trkpt lat="43.43536" lon="6.62285">
        <ele>29.799999237061</ele>
        <time>2018-02-03T09:10:05.000Z</time>
      </trkpt>
      <trkpt lat="43.43521" lon="6.62295">
        <ele>30</ele>
        <time>2018-02-03T09:10:12.000Z</time>
      </trkpt>
      <trkpt lat="43.43504" lon="6.62302">
        <ele>30.799999237061</ele>
        <time>2018-02-03T09:10:19.000Z</time>
      </trkpt>
      <trkpt lat="43.43497" lon="6.62305">
        <ele>31.200000762939</ele>
        <time>2018-02-03T09:10:22.000Z</time>
      </trkpt>
      <trkpt lat="43.43478" lon="6.62313">
        <ele>31.60000038147</ele>
        <time>2018-02-03T09:10:30.000Z</time>
      </trkpt>
      <trkpt lat="43.43459" lon="6.62321">
        <ele>31.799999237061</ele>
        <time>2018-02-03T09:10:38.000Z</time>
      </trkpt>
      <trkpt lat="43.43444" lon="6.6233">
        <ele>32.799999237061</ele>
        <time>2018-02-03T09:10:45.000Z</time>
      </trkpt>
      <trkpt lat="43.43429" lon="6.62345">
        <ele>32.599998474121</ele>
        <time>2018-02-03T09:10:51.000Z</time>
      </trkpt>
      <trkpt lat="43.43416" lon="6.62367">
        <ele>31.799999237061</ele>
        <time>2018-02-03T09:10:57.000Z</time>
      </trkpt>
      <trkpt lat="43.4341" lon="6.62361">
        <ele>31.60000038147</ele>
        <time>2018-02-03T09:11:00.000Z</time>
      </trkpt>
      <trkpt lat="43.4341" lon="6.62347">
        <ele>32</ele>
        <time>2018-02-03T09:11:04.000Z</time>
      </trkpt>
      <trkpt lat="43.4341" lon="6.62343">
        <ele>32.200000762939</ele>
        <time>2018-02-03T09:11:05.000Z</time>
      </trkpt>
      <trkpt lat="43.43408" lon="6.62323">
        <ele>33</ele>
        <time>2018-02-03T09:11:12.000Z</time>
      </trkpt>
      <trkpt lat="43.434" lon="6.62313">
        <ele>32.599998474121</ele>
        <time>2018-02-03T09:11:16.000Z</time>
      </trkpt>
      <trkpt lat="43.43383" lon="6.62306">
        <ele>31.799999237061</ele>
        <time>2018-02-03T09:11:21.000Z</time>
      </trkpt>
      <trkpt lat="43.43377" lon="6.62304">
        <ele>31.60000038147</ele>
        <time>2018-02-03T09:11:23.000Z</time>
      </trkpt>
      <trkpt lat="43.43353" lon="6.62292">
        <ele>31.200000762939</ele>
        <time>2018-02-03T09:11:31.000Z</time>
      </trkpt>
      <trkpt lat="43.43331" lon="6.62281">
        <ele>30.799999237061</ele>
        <time>2018-02-03T09:11:39.000Z</time>
      </trkpt>
      <trkpt lat="43.4332" lon="6.62287">
        <ele>31.39999961853</ele>
        <time>2018-02-03T09:11:44.000Z</time>
      </trkpt>
      <trkpt lat="43.43311" lon="6.62294">
        <ele>31.799999237061</ele>
        <time>2018-02-03T09:11:48.000Z</time>
      </trkpt>
      <trkpt lat="43.43309" lon="6.62293">
        <ele>31.799999237061</ele>
        <time>2018-02-03T09:11:49.000Z</time>
      </trkpt>
      <trkpt lat="43.43306" lon="6.62286">
        <ele>32.200000762939</ele>
        <time>2018-02-03T09:11:52.000Z</time>
      </trkpt>
      <trkpt lat="43.43306" lon="6.62282">
        <ele>32.400001525879</ele>
        <time>2018-02-03T09:11:53.000Z</time>
      </trkpt>
      <trkpt lat="43.43305" lon="6.62272">
        <ele>32.799999237061</ele>
        <time>2018-02-03T09:11:56.000Z</time>
      </trkpt>
      <trkpt lat="43.43302" lon="6.62266">
        <ele>33</ele>
        <time>2018-02-03T09:11:58.000Z</time>
      </trkpt>
      <trkpt lat="43.43293" lon="6.62263">
        <ele>32.799999237061</ele>
        <time>2018-02-03T09:12:02.000Z</time>
      </trkpt>
      <trkpt lat="43.43287" lon="6.62265">
        <ele>33.200000762939</ele>
        <time>2018-02-03T09:12:08.000Z</time>
      </trkpt>
      <trkpt lat="43.43286" lon="6.62265">
        <ele>33.599998474121</ele>
        <time>2018-02-03T09:12:17.000Z</time>
      </trkpt>
      <trkpt lat="43.43285" lon="6.62266">
        <ele>33.400001525879</ele>
        <time>2018-02-03T09:12:35.000Z</time>
      </trkpt>
      <trkpt lat="43.43279" lon="6.62276">
        <ele>33.200000762939</ele>
        <time>2018-02-03T09:12:40.000Z</time>
      </trkpt>
      <trkpt lat="43.43267" lon="6.62282">
        <ele>33</ele>
        <time>2018-02-03T09:12:44.000Z</time>
      </trkpt>
      <trkpt lat="43.43264" lon="6.6228">
        <ele>33</ele>
        <time>2018-02-03T09:12:45.000Z</time>
      </trkpt>
      <trkpt lat="43.43261" lon="6.62275">
        <ele>32.799999237061</ele>
        <time>2018-02-03T09:12:47.000Z</time>
      </trkpt>
      <trkpt lat="43.4325" lon="6.62264">
        <ele>33.200000762939</ele>
        <time>2018-02-03T09:12:52.000Z</time>
      </trkpt>
      <trkpt lat="43.43247" lon="6.62262">
        <ele>33.200000762939</ele>
        <time>2018-02-03T09:12:53.000Z</time>
      </trkpt>
      <trkpt lat="43.43225" lon="6.62258">
        <ele>33.400001525879</ele>
        <time>2018-02-03T09:13:00.000Z</time>
      </trkpt>
      <trkpt lat="43.43199" lon="6.62253">
        <ele>33.799999237061</ele>
        <time>2018-02-03T09:13:09.000Z</time>
      </trkpt>
      <trkpt lat="43.43189" lon="6.6225">
        <ele>35</ele>
        <time>2018-02-03T09:13:13.000Z</time>
      </trkpt>
      <trkpt lat="43.43182" lon="6.62248">
        <ele>36.200000762939</ele>
        <time>2018-02-03T09:13:16.000Z</time>
      </trkpt>
      <trkpt lat="43.4318" lon="6.62246">
        <ele>36.599998474121</ele>
        <time>2018-02-03T09:13:17.000Z</time>
      </trkpt>
      <trkpt lat="43.43174" lon="6.62241">
        <ele>37.200000762939</ele>
        <time>2018-02-03T09:13:20.000Z</time>
      </trkpt>
      <trkpt lat="43.43167" lon="6.62234">
        <ele>37.799999237061</ele>
        <time>2018-02-03T09:13:24.000Z</time>
      </trkpt>
      <trkpt lat="43.43162" lon="6.62228">
        <ele>38.200000762939</ele>
        <time>2018-02-03T09:13:27.000Z</time>
      </trkpt>
      <trkpt lat="43.43151" lon="6.62222">
        <ele>39</ele>
        <time>2018-02-03T09:13:32.000Z</time>
      </trkpt>
      <trkpt lat="43.43147" lon="6.62221">
        <ele>39.400001525879</ele>
        <time>2018-02-03T09:13:34.000Z</time>
      </trkpt>
      <trkpt lat="43.43137" lon="6.6222">
        <ele>40.200000762939</ele>
        <time>2018-02-03T09:13:39.000Z</time>
      </trkpt>
      <trkpt lat="43.43135" lon="6.6222">
        <ele>40.400001525879</ele>
        <time>2018-02-03T09:13:40.000Z</time>
      </trkpt>
      <trkpt lat="43.43124" lon="6.62219">
        <ele>41.400001525879</ele>
        <time>2018-02-03T09:13:46.000Z</time>
      </trkpt>
      <trkpt lat="43.43122" lon="6.62218">
        <ele>41.599998474121</ele>
        <time>2018-02-03T09:13:47.000Z</time>
      </trkpt>
      <trkpt lat="43.4312" lon="6.62208">
        <ele>42.599998474121</ele>
        <time>2018-02-03T09:13:52.000Z</time>
      </trkpt>
      <trkpt lat="43.43128" lon="6.62205">
        <ele>42.799999237061</ele>
        <time>2018-02-03T09:13:56.000Z</time>
      </trkpt>
      <trkpt lat="43.43143" lon="6.62201">
        <ele>43.400001525879</ele>
        <time>2018-02-03T09:14:04.000Z</time>
      </trkpt>
      <trkpt lat="43.43148" lon="6.622">
        <ele>43.799999237061</ele>
        <time>2018-02-03T09:14:06.000Z</time>
      </trkpt>
      <trkpt lat="43.4316" lon="6.62197">
        <ele>44.799999237061</ele>
        <time>2018-02-03T09:14:12.000Z</time>
      </trkpt>
      <trkpt lat="43.43162" lon="6.62197">
        <ele>45</ele>
        <time>2018-02-03T09:14:13.000Z</time>
      </trkpt>
      <trkpt lat="43.43173" lon="6.62197">
        <ele>45.799999237061</ele>
        <time>2018-02-03T09:14:18.000Z</time>
      </trkpt>
      <trkpt lat="43.43177" lon="6.62198">
        <ele>46</ele>
        <time>2018-02-03T09:14:20.000Z</time>
      </trkpt>
      <trkpt lat="43.43195" lon="6.62199">
        <ele>46.599998474121</ele>
        <time>2018-02-03T09:14:28.000Z</time>
      </trkpt>
      <trkpt lat="43.43207" lon="6.622">
        <ele>47</ele>
        <time>2018-02-03T09:14:33.000Z</time>
      </trkpt>
      <trkpt lat="43.43214" lon="6.62199">
        <ele>47.200000762939</ele>
        <time>2018-02-03T09:14:36.000Z</time>
      </trkpt>
      <trkpt lat="43.43226" lon="6.62192">
        <ele>48</ele>
        <time>2018-02-03T09:14:42.000Z</time>
      </trkpt>
      <trkpt lat="43.43228" lon="6.6219">
        <ele>48.200000762939</ele>
        <time>2018-02-03T09:14:43.000Z</time>
      </trkpt>
      <trkpt lat="43.43234" lon="6.62181">
        <ele>49</ele>
        <time>2018-02-03T09:14:47.000Z</time>
      </trkpt>
      <trkpt lat="43.43237" lon="6.62174">
        <ele>49.799999237061</ele>
        <time>2018-02-03T09:14:50.000Z</time>
      </trkpt>
      <trkpt lat="43.43238" lon="6.62171">
        <ele>50.200000762939</ele>
        <time>2018-02-03T09:14:51.000Z</time>
      </trkpt>
      <trkpt lat="43.43242" lon="6.62152">
        <ele>51</ele>
        <time>2018-02-03T09:14:58.000Z</time>
      </trkpt>
      <trkpt lat="43.43243" lon="6.62146">
        <ele>51.200000762939</ele>
        <time>2018-02-03T09:15:00.000Z</time>
      </trkpt>
      <trkpt lat="43.43245" lon="6.6213">
        <ele>52.400001525879</ele>
        <time>2018-02-03T09:15:06.000Z</time>
      </trkpt>
      <trkpt lat="43.43248" lon="6.62115">
        <ele>53.400001525879</ele>
        <time>2018-02-03T09:15:11.000Z</time>
      </trkpt>
      <trkpt lat="43.43248" lon="6.62113">
        <ele>53.599998474121</ele>
        <time>2018-02-03T09:15:12.000Z</time>
      </trkpt>
      <trkpt lat="43.43253" lon="6.62095">
        <ele>54.599998474121</ele>
        <time>2018-02-03T09:15:19.000Z</time>
      </trkpt>
      <trkpt lat="43.43254" lon="6.62093">
        <ele>54.599998474121</ele>
        <time>2018-02-03T09:15:20.000Z</time>
      </trkpt>
      <trkpt lat="43.43256" lon="6.6208">
        <ele>55.799999237061</ele>
        <time>2018-02-03T09:15:25.000Z</time>
      </trkpt>
      <trkpt lat="43.43258" lon="6.62071">
        <ele>56.599998474121</ele>
        <time>2018-02-03T09:15:28.000Z</time>
      </trkpt>
      <trkpt lat="43.43259" lon="6.62065">
        <ele>56.799999237061</ele>
        <time>2018-02-03T09:15:30.000Z</time>
      </trkpt>
      <trkpt lat="43.43261" lon="6.62054">
        <ele>57</ele>
        <time>2018-02-03T09:15:34.000Z</time>
      </trkpt>
      <trkpt lat="43.43265" lon="6.62038">
        <ele>57.799999237061</ele>
        <time>2018-02-03T09:15:40.000Z</time>
      </trkpt>
      <trkpt lat="43.43268" lon="6.62033">
        <ele>58.400001525879</ele>
        <time>2018-02-03T09:15:42.000Z</time>
      </trkpt>
      <trkpt lat="43.43272" lon="6.62027">
        <ele>59</ele>
        <time>2018-02-03T09:15:45.000Z</time>
      </trkpt>
      <trkpt lat="43.43279" lon="6.62012">
        <ele>59.599998474121</ele>
        <time>2018-02-03T09:15:51.000Z</time>
      </trkpt>
      <trkpt lat="43.43282" lon="6.62005">
        <ele>60.200000762939</ele>
        <time>2018-02-03T09:15:54.000Z</time>
      </trkpt>
      <trkpt lat="43.43286" lon="6.61997">
        <ele>61</ele>
        <time>2018-02-03T09:15:58.000Z</time>
      </trkpt>
      <trkpt lat="43.43288" lon="6.61992">
        <ele>61.200000762939</ele>
        <time>2018-02-03T09:16:00.000Z</time>
      </trkpt>
      <trkpt lat="43.43293" lon="6.61979">
        <ele>62.200000762939</ele>
        <time>2018-02-03T09:16:05.000Z</time>
      </trkpt>
      <trkpt lat="43.43294" lon="6.61977">
        <ele>62.400001525879</ele>
        <time>2018-02-03T09:16:06.000Z</time>
      </trkpt>
      <trkpt lat="43.43296" lon="6.61964">
        <ele>63.200000762939</ele>
        <time>2018-02-03T09:16:11.000Z</time>
      </trkpt>
      <trkpt lat="43.43291" lon="6.61948">
        <ele>64</ele>
        <time>2018-02-03T09:16:18.000Z</time>
      </trkpt>
      <trkpt lat="43.43287" lon="6.61943">
        <ele>64.599998474121</ele>
        <time>2018-02-03T09:16:20.000Z</time>
      </trkpt>
      <trkpt lat="43.43278" lon="6.61934">
        <ele>65</ele>
        <time>2018-02-03T09:16:25.000Z</time>
      </trkpt>
      <trkpt lat="43.43272" lon="6.61927">
        <ele>65.599998474121</ele>
        <time>2018-02-03T09:16:29.000Z</time>
      </trkpt>
      <trkpt lat="43.43266" lon="6.61921">
        <ele>66.199996948242</ele>
        <time>2018-02-03T09:16:33.000Z</time>
      </trkpt>
      <trkpt lat="43.43258" lon="6.61913">
        <ele>66.599998474121</ele>
        <time>2018-02-03T09:16:38.000Z</time>
      </trkpt>
      <trkpt lat="43.43254" lon="6.61909">
        <ele>67.400001525879</ele>
        <time>2018-02-03T09:16:41.000Z</time>
      </trkpt>
      <trkpt lat="43.43251" lon="6.61906">
        <ele>67.800003051758</ele>
        <time>2018-02-03T09:16:43.000Z</time>
      </trkpt>
      <trkpt lat="43.43248" lon="6.61899">
        <ele>69</ele>
        <time>2018-02-03T09:16:47.000Z</time>
      </trkpt>
      <trkpt lat="43.43242" lon="6.61885">
        <ele>69.599998474121</ele>
        <time>2018-02-03T09:16:53.000Z</time>
      </trkpt>
      <trkpt lat="43.43241" lon="6.61875">
        <ele>70.199996948242</ele>
        <time>2018-02-03T09:16:57.000Z</time>
      </trkpt>
      <trkpt lat="43.43243" lon="6.61868">
        <ele>70.800003051758</ele>
        <time>2018-02-03T09:17:00.000Z</time>
      </trkpt>
      <trkpt lat="43.43244" lon="6.61864">
        <ele>71.400001525879</ele>
        <time>2018-02-03T09:17:02.000Z</time>
      </trkpt>
      <trkpt lat="43.43249" lon="6.61854">
        <ele>72.199996948242</ele>
        <time>2018-02-03T09:17:07.000Z</time>
      </trkpt>
      <trkpt lat="43.43252" lon="6.61851">
        <ele>72.400001525879</ele>
        <time>2018-02-03T09:17:09.000Z</time>
      </trkpt>
      <trkpt lat="43.43259" lon="6.61838">
        <ele>73.599998474121</ele>
        <time>2018-02-03T09:17:15.000Z</time>
      </trkpt>
      <trkpt lat="43.43264" lon="6.61817">
        <ele>74.400001525879</ele>
        <time>2018-02-03T09:17:23.000Z</time>
      </trkpt>
      <trkpt lat="43.43264" lon="6.61814">
        <ele>74.599998474121</ele>
        <time>2018-02-03T09:17:24.000Z</time>
      </trkpt>
      <trkpt lat="43.4326" lon="6.618">
        <ele>75.400001525879</ele>
        <time>2018-02-03T09:17:29.000Z</time>
      </trkpt>
      <trkpt lat="43.43257" lon="6.61795">
        <ele>75.800003051758</ele>
        <time>2018-02-03T09:17:31.000Z</time>
      </trkpt>
      <trkpt lat="43.43249" lon="6.61775">
        <ele>76.599998474121</ele>
        <time>2018-02-03T09:17:39.000Z</time>
      </trkpt>
      <trkpt lat="43.43248" lon="6.61772">
        <ele>76.800003051758</ele>
        <time>2018-02-03T09:17:40.000Z</time>
      </trkpt>
      <trkpt lat="43.43246" lon="6.61758">
        <ele>78</ele>
        <time>2018-02-03T09:17:45.000Z</time>
      </trkpt>
      <trkpt lat="43.43245" lon="6.61755">
        <ele>78</ele>
        <time>2018-02-03T09:17:46.000Z</time>
      </trkpt>
      <trkpt lat="43.43245" lon="6.6174">
        <ele>78.800003051758</ele>
        <time>2018-02-03T09:17:52.000Z</time>
      </trkpt>
      <trkpt lat="43.43246" lon="6.61733">
        <ele>79</ele>
        <time>2018-02-03T09:17:55.000Z</time>
      </trkpt>
      <trkpt lat="43.43246" lon="6.61719">
        <ele>80.199996948242</ele>
        <time>2018-02-03T09:18:01.000Z</time>
      </trkpt>
      <trkpt lat="43.43246" lon="6.61706">
        <ele>81.199996948242</ele>
        <time>2018-02-03T09:18:07.000Z</time>
      </trkpt>
      <trkpt lat="43.43245" lon="6.61702">
        <ele>81.400001525879</ele>
        <time>2018-02-03T09:18:09.000Z</time>
      </trkpt>
      <trkpt lat="43.43244" lon="6.61689">
        <ele>82.400001525879</ele>
        <time>2018-02-03T09:18:14.000Z</time>
      </trkpt>
      <trkpt lat="43.43243" lon="6.61684">
        <ele>83</ele>
        <time>2018-02-03T09:18:16.000Z</time>
      </trkpt>
      <trkpt lat="43.43241" lon="6.61676">
        <ele>83.400001525879</ele>
        <time>2018-02-03T09:18:19.000Z</time>
      </trkpt>
      <trkpt lat="43.4324" lon="6.6167">
        <ele>84</ele>
        <time>2018-02-03T09:18:22.000Z</time>
      </trkpt>
      <trkpt lat="43.43237" lon="6.61661">
        <ele>84.400001525879</ele>
        <time>2018-02-03T09:18:26.000Z</time>
      </trkpt>
      <trkpt lat="43.43235" lon="6.61657">
        <ele>84.800003051758</ele>
        <time>2018-02-03T09:18:28.000Z</time>
      </trkpt>
      <trkpt lat="43.4323" lon="6.61643">
        <ele>85.400001525879</ele>
        <time>2018-02-03T09:18:34.000Z</time>
      </trkpt>
      <trkpt lat="43.43229" lon="6.61641">
        <ele>85.400001525879</ele>
        <time>2018-02-03T09:18:35.000Z</time>
      </trkpt>
      <trkpt lat="43.43224" lon="6.61626">
        <ele>86.599998474121</ele>
        <time>2018-02-03T09:18:42.000Z</time>
      </trkpt>
      <trkpt lat="43.43223" lon="6.61624">
        <ele>86.599998474121</ele>
        <time>2018-02-03T09:18:43.000Z</time>
      </trkpt>
      <trkpt lat="43.43216" lon="6.61608">
        <ele>87.599998474121</ele>
        <time>2018-02-03T09:18:50.000Z</time>
      </trkpt>
      <trkpt lat="43.43211" lon="6.61595">
        <ele>88.800003051758</ele>
        <time>2018-02-03T09:18:56.000Z</time>
      </trkpt>
      <trkpt lat="43.43208" lon="6.61589">
        <ele>89.400001525879</ele>
        <time>2018-02-03T09:18:59.000Z</time>
      </trkpt>
      <trkpt lat="43.43206" lon="6.61584">
        <ele>89.800003051758</ele>
        <time>2018-02-03T09:19:02.000Z</time>
      </trkpt>
      <trkpt lat="43.43201" lon="6.61576">
        <ele>90.800003051758</ele>
        <time>2018-02-03T09:19:06.000Z</time>
      </trkpt>
      <trkpt lat="43.43199" lon="6.61572">
        <ele>90.800003051758</ele>
        <time>2018-02-03T09:19:08.000Z</time>
      </trkpt>
      <trkpt lat="43.4319" lon="6.61564">
        <ele>91.400001525879</ele>
        <time>2018-02-03T09:19:14.000Z</time>
      </trkpt>
      <trkpt lat="43.43187" lon="6.61562">
        <ele>92</ele>
        <time>2018-02-03T09:19:16.000Z</time>
      </trkpt>
      <trkpt lat="43.43176" lon="6.61558">
        <ele>92.400001525879</ele>
        <time>2018-02-03T09:19:22.000Z</time>
      </trkpt>
      <trkpt lat="43.43165" lon="6.61556">
        <ele>93</ele>
        <time>2018-02-03T09:19:27.000Z</time>
      </trkpt>
      <trkpt lat="43.43157" lon="6.61555">
        <ele>93.199996948242</ele>
        <time>2018-02-03T09:19:31.000Z</time>
      </trkpt>
      <trkpt lat="43.43147" lon="6.61554">
        <ele>94.199996948242</ele>
        <time>2018-02-03T09:19:36.000Z</time>
      </trkpt>
      <trkpt lat="43.43143" lon="6.61553">
        <ele>94.800003051758</ele>
        <time>2018-02-03T09:19:38.000Z</time>
      </trkpt>
      <trkpt lat="43.43139" lon="6.61553">
        <ele>95.199996948242</ele>
        <time>2018-02-03T09:19:40.000Z</time>
      </trkpt>
      <trkpt lat="43.43127" lon="6.61548">
        <ele>95.400001525879</ele>
        <time>2018-02-03T09:19:46.000Z</time>
      </trkpt>
      <trkpt lat="43.43116" lon="6.61537">
        <ele>96</ele>
        <time>2018-02-03T09:19:52.000Z</time>
      </trkpt>
      <trkpt lat="43.43115" lon="6.61529">
        <ele>96.199996948242</ele>
        <time>2018-02-03T09:19:55.000Z</time>
      </trkpt>
      <trkpt lat="43.43116" lon="6.61524">
        <ele>96.400001525879</ele>
        <time>2018-02-03T09:19:57.000Z</time>
      </trkpt>
      <trkpt lat="43.43118" lon="6.61512">
        <ele>97.400001525879</ele>
        <time>2018-02-03T09:20:02.000Z</time>
      </trkpt>
      <trkpt lat="43.43117" lon="6.61505">
        <ele>98</ele>
        <time>2018-02-03T09:20:05.000Z</time>
      </trkpt>
      <trkpt lat="43.43114" lon="6.61499">
        <ele>98.400001525879</ele>
        <time>2018-02-03T09:20:08.000Z</time>
      </trkpt>
      <trkpt lat="43.43108" lon="6.61495">
        <ele>99</ele>
        <time>2018-02-03T09:20:11.000Z</time>
      </trkpt>
      <trkpt lat="43.43101" lon="6.61492">
        <ele>99.599998474121</ele>
        <time>2018-02-03T09:20:15.000Z</time>
      </trkpt>
      <trkpt lat="43.43094" lon="6.61489">
        <ele>100.19999694824</ele>
        <time>2018-02-03T09:20:19.000Z</time>
      </trkpt>
      <trkpt lat="43.4309" lon="6.61488">
        <ele>100.59999847412</ele>
        <time>2018-02-03T09:20:21.000Z</time>
      </trkpt>
      <trkpt lat="43.43079" lon="6.61488">
        <ele>101.80000305176</ele>
        <time>2018-02-03T09:20:27.000Z</time>
      </trkpt>
      <trkpt lat="43.43066" lon="6.61493">
        <ele>102.19999694824</ele>
        <time>2018-02-03T09:20:34.000Z</time>
      </trkpt>
      <trkpt lat="43.43055" lon="6.61493">
        <ele>102.19999694824</ele>
        <time>2018-02-03T09:20:39.000Z</time>
      </trkpt>
      <trkpt lat="43.43054" lon="6.6149">
        <ele>102.19999694824</ele>
        <time>2018-02-03T09:20:40.000Z</time>
      </trkpt>
      <trkpt lat="43.43052" lon="6.61477">
        <ele>102.40000152588</ele>
        <time>2018-02-03T09:20:45.000Z</time>
      </trkpt>
      <trkpt lat="43.43052" lon="6.61474">
        <ele>102.40000152588</ele>
        <time>2018-02-03T09:20:46.000Z</time>
      </trkpt>
      <trkpt lat="43.43053" lon="6.61465">
        <ele>102.40000152588</ele>
        <time>2018-02-03T09:20:49.000Z</time>
      </trkpt>
      <trkpt lat="43.43053" lon="6.61463">
        <ele>102.40000152588</ele>
        <time>2018-02-03T09:20:50.000Z</time>
      </trkpt>
      <trkpt lat="43.43053" lon="6.61454">
        <ele>103</ele>
        <time>2018-02-03T09:20:54.000Z</time>
      </trkpt>
      <trkpt lat="43.43052" lon="6.6145">
        <ele>103.40000152588</ele>
        <time>2018-02-03T09:20:56.000Z</time>
      </trkpt>
      <trkpt lat="43.43048" lon="6.61442">
        <ele>104</ele>
        <time>2018-02-03T09:21:01.000Z</time>
      </trkpt>
      <trkpt lat="43.43046" lon="6.61439">
        <ele>104.19999694824</ele>
        <time>2018-02-03T09:21:03.000Z</time>
      </trkpt>
      <trkpt lat="43.43038" lon="6.61428">
        <ele>104.59999847412</ele>
        <time>2018-02-03T09:21:10.000Z</time>
      </trkpt>
      <trkpt lat="43.43032" lon="6.61419">
        <ele>105.19999694824</ele>
        <time>2018-02-03T09:21:15.000Z</time>
      </trkpt>
      <trkpt lat="43.43026" lon="6.61411">
        <ele>106</ele>
        <time>2018-02-03T09:21:19.000Z</time>
      </trkpt>
      <trkpt lat="43.43025" lon="6.61409">
        <ele>106.19999694824</ele>
        <time>2018-02-03T09:21:20.000Z</time>
      </trkpt>
      <trkpt lat="43.43021" lon="6.614">
        <ele>107.40000152588</ele>
        <time>2018-02-03T09:21:24.000Z</time>
      </trkpt>
      <trkpt lat="43.43017" lon="6.61393">
        <ele>108.59999847412</ele>
        <time>2018-02-03T09:21:28.000Z</time>
      </trkpt>
      <trkpt lat="43.43017" lon="6.61391">
        <ele>108.80000305176</ele>
        <time>2018-02-03T09:21:29.000Z</time>
      </trkpt>
      <trkpt lat="43.43015" lon="6.61386">
        <ele>109.19999694824</ele>
        <time>2018-02-03T09:21:32.000Z</time>
      </trkpt>
      <trkpt lat="43.43014" lon="6.61384">
        <ele>109.59999847412</ele>
        <time>2018-02-03T09:21:34.000Z</time>
      </trkpt>
      <trkpt lat="43.43014" lon="6.61385">
        <ele>109.59999847412</ele>
        <time>2018-02-03T09:21:36.000Z</time>
      </trkpt>
      <trkpt lat="43.43012" lon="6.61384">
        <ele>109.80000305176</ele>
        <time>2018-02-03T09:21:42.000Z</time>
      </trkpt>
      <trkpt lat="43.43011" lon="6.61384">
        <ele>109.40000152588</ele>
        <time>2018-02-03T09:21:48.000Z</time>
      </trkpt>
      <trkpt lat="43.43011" lon="6.61382">
        <ele>109.40000152588</ele>
        <time>2018-02-03T09:22:09.000Z</time>
      </trkpt>
      <trkpt lat="43.43012" lon="6.61383">
        <ele>109.80000305176</ele>
        <time>2018-02-03T09:22:17.000Z</time>
      </trkpt>
      <trkpt lat="43.43011" lon="6.61376">
        <ele>109.59999847412</ele>
        <time>2018-02-03T09:22:23.000Z</time>
      </trkpt>
      <trkpt lat="43.43012" lon="6.61358">
        <ele>110.80000305176</ele>
        <time>2018-02-03T09:22:29.000Z</time>
      </trkpt>
      <trkpt lat="43.43012" lon="6.61354">
        <ele>111.19999694824</ele>
        <time>2018-02-03T09:22:30.000Z</time>
      </trkpt>
      <trkpt lat="43.43012" lon="6.61344">
        <ele>112</ele>
        <time>2018-02-03T09:22:33.000Z</time>
      </trkpt>
      <trkpt lat="43.43009" lon="6.61331">
        <ele>112.80000305176</ele>
        <time>2018-02-03T09:22:37.000Z</time>
      </trkpt>
      <trkpt lat="43.43006" lon="6.61326">
        <ele>113.19999694824</ele>
        <time>2018-02-03T09:22:39.000Z</time>
      </trkpt>
      <trkpt lat="43.43" lon="6.61315">
        <ele>113.80000305176</ele>
        <time>2018-02-03T09:22:44.000Z</time>
      </trkpt>
      <trkpt lat="43.42997" lon="6.6131">
        <ele>114.19999694824</ele>
        <time>2018-02-03T09:22:47.000Z</time>
      </trkpt>
      <trkpt lat="43.42996" lon="6.6131">
        <ele>114.19999694824</ele>
        <time>2018-02-03T09:22:48.000Z</time>
      </trkpt>
      <trkpt lat="43.42994" lon="6.61309">
        <ele>114.19999694824</ele>
        <time>2018-02-03T09:22:49.000Z</time>
      </trkpt>
      <trkpt lat="43.42992" lon="6.61301">
        <ele>114.19999694824</ele>
        <time>2018-02-03T09:22:54.000Z</time>
      </trkpt>
      <trkpt lat="43.4299" lon="6.61297">
        <ele>114.59999847412</ele>
        <time>2018-02-03T09:22:56.000Z</time>
      </trkpt>
      <trkpt lat="43.42987" lon="6.61286">
        <ele>115.40000152588</ele>
        <time>2018-02-03T09:23:01.000Z</time>
      </trkpt>
      <trkpt lat="43.42985" lon="6.61269">
        <ele>116</ele>
        <time>2018-02-03T09:23:08.000Z</time>
      </trkpt>
      <trkpt lat="43.42984" lon="6.61264">
        <ele>116.40000152588</ele>
        <time>2018-02-03T09:23:10.000Z</time>
      </trkpt>
      <trkpt lat="43.42982" lon="6.61255">
        <ele>117</ele>
        <time>2018-02-03T09:23:14.000Z</time>
      </trkpt>
      <trkpt lat="43.4298" lon="6.61249">
        <ele>117.59999847412</ele>
        <time>2018-02-03T09:23:17.000Z</time>
      </trkpt>
      <trkpt lat="43.42976" lon="6.6124">
        <ele>118.40000152588</ele>
        <time>2018-02-03T09:23:21.000Z</time>
      </trkpt>
      <trkpt lat="43.42975" lon="6.61238">
        <ele>118.59999847412</ele>
        <time>2018-02-03T09:23:22.000Z</time>
      </trkpt>
      <trkpt lat="43.42971" lon="6.61227">
        <ele>119.40000152588</ele>
        <time>2018-02-03T09:23:27.000Z</time>
      </trkpt>
      <trkpt lat="43.42969" lon="6.61222">
        <ele>119.80000305176</ele>
        <time>2018-02-03T09:23:29.000Z</time>
      </trkpt>
      <trkpt lat="43.42963" lon="6.61208">
        <ele>120.59999847412</ele>
        <time>2018-02-03T09:23:35.000Z</time>
      </trkpt>
      <trkpt lat="43.4296" lon="6.61202">
        <ele>121</ele>
        <time>2018-02-03T09:23:38.000Z</time>
      </trkpt>
      <trkpt lat="43.42953" lon="6.61194">
        <ele>121.80000305176</ele>
        <time>2018-02-03T09:23:43.000Z</time>
      </trkpt>
      <trkpt lat="43.42951" lon="6.61193">
        <ele>122.19999694824</ele>
        <time>2018-02-03T09:23:44.000Z</time>
      </trkpt>
      <trkpt lat="43.42937" lon="6.61191">
        <ele>123</ele>
        <time>2018-02-03T09:23:51.000Z</time>
      </trkpt>
      <trkpt lat="43.4293" lon="6.6119">
        <ele>123.19999694824</ele>
        <time>2018-02-03T09:23:54.000Z</time>
      </trkpt>
      <trkpt lat="43.42923" lon="6.61186">
        <ele>124.19999694824</ele>
        <time>2018-02-03T09:23:58.000Z</time>
      </trkpt>
      <trkpt lat="43.42911" lon="6.61175">
        <ele>125.40000152588</ele>
        <time>2018-02-03T09:24:05.000Z</time>
      </trkpt>
      <trkpt lat="43.42902" lon="6.61163">
        <ele>126.59999847412</ele>
        <time>2018-02-03T09:24:11.000Z</time>
      </trkpt>
      <trkpt lat="43.42901" lon="6.6116">
        <ele>126.59999847412</ele>
        <time>2018-02-03T09:24:12.000Z</time>
      </trkpt>
      <trkpt lat="43.42894" lon="6.6115">
        <ele>127.59999847412</ele>
        <time>2018-02-03T09:24:17.000Z</time>
      </trkpt>
      <trkpt lat="43.4288" lon="6.61136">
        <ele>128.80000305176</ele>
        <time>2018-02-03T09:24:25.000Z</time>
      </trkpt>
      <trkpt lat="43.42867" lon="6.61129">
        <ele>129.80000305176</ele>
        <time>2018-02-03T09:24:32.000Z</time>
      </trkpt>
      <trkpt lat="43.42854" lon="6.61122">
        <ele>130.80000305176</ele>
        <time>2018-02-03T09:24:39.000Z</time>
      </trkpt>
      <trkpt lat="43.42852" lon="6.61121">
        <ele>131</ele>
        <time>2018-02-03T09:24:40.000Z</time>
      </trkpt>
      <trkpt lat="43.42839" lon="6.61115">
        <ele>131.80000305176</ele>
        <time>2018-02-03T09:24:47.000Z</time>
      </trkpt>
      <trkpt lat="43.42837" lon="6.61113">
        <ele>131.80000305176</ele>
        <time>2018-02-03T09:24:48.000Z</time>
      </trkpt>
      <trkpt lat="43.42826" lon="6.61102">
        <ele>132.80000305176</ele>
        <time>2018-02-03T09:24:54.000Z</time>
      </trkpt>
      <trkpt lat="43.42825" lon="6.611">
        <ele>133</ele>
        <time>2018-02-03T09:24:55.000Z</time>
      </trkpt>
      <trkpt lat="43.42813" lon="6.61088">
        <ele>134.19999694824</ele>
        <time>2018-02-03T09:25:02.000Z</time>
      </trkpt>
      <trkpt lat="43.42809" lon="6.61085">
        <ele>134.80000305176</ele>
        <time>2018-02-03T09:25:04.000Z</time>
      </trkpt>
      <trkpt lat="43.42803" lon="6.61084">
        <ele>135.19999694824</ele>
        <time>2018-02-03T09:25:07.000Z</time>
      </trkpt>
      <trkpt lat="43.42799" lon="6.61084">
        <ele>135.60000610352</ele>
        <time>2018-02-03T09:25:09.000Z</time>
      </trkpt>
      <trkpt lat="43.42789" lon="6.61087">
        <ele>136.39999389648</ele>
        <time>2018-02-03T09:25:14.000Z</time>
      </trkpt>
      <trkpt lat="43.42787" lon="6.61087">
        <ele>136.39999389648</ele>
        <time>2018-02-03T09:25:15.000Z</time>
      </trkpt>
      <trkpt lat="43.42768" lon="6.61097">
        <ele>137.19999694824</ele>
        <time>2018-02-03T09:25:24.000Z</time>
      </trkpt>
      <trkpt lat="43.42764" lon="6.611">
        <ele>137.39999389648</ele>
        <time>2018-02-03T09:25:26.000Z</time>
      </trkpt>
      <trkpt lat="43.42754" lon="6.61106">
        <ele>138.19999694824</ele>
        <time>2018-02-03T09:25:31.000Z</time>
      </trkpt>
      <trkpt lat="43.42751" lon="6.61108">
        <ele>138.60000610352</ele>
        <time>2018-02-03T09:25:33.000Z</time>
      </trkpt>
      <trkpt lat="43.42744" lon="6.61114">
        <ele>139.60000610352</ele>
        <time>2018-02-03T09:25:37.000Z</time>
      </trkpt>
      <trkpt lat="43.42743" lon="6.61115">
        <ele>139.80000305176</ele>
        <time>2018-02-03T09:25:38.000Z</time>
      </trkpt>
      <trkpt lat="43.42733" lon="6.61132">
        <ele>141</ele>
        <time>2018-02-03T09:25:45.000Z</time>
      </trkpt>
      <trkpt lat="43.4273" lon="6.61136">
        <ele>141.19999694824</ele>
        <time>2018-02-03T09:25:47.000Z</time>
      </trkpt>
      <trkpt lat="43.42719" lon="6.61143">
        <ele>141.80000305176</ele>
        <time>2018-02-03T09:25:53.000Z</time>
      </trkpt>
      <trkpt lat="43.42716" lon="6.61143">
        <ele>142</ele>
        <time>2018-02-03T09:25:54.000Z</time>
      </trkpt>
      <trkpt lat="43.42703" lon="6.61141">
        <ele>143</ele>
        <time>2018-02-03T09:26:00.000Z</time>
      </trkpt>
      <trkpt lat="43.42687" lon="6.61133">
        <ele>143.60000610352</ele>
        <time>2018-02-03T09:26:07.000Z</time>
      </trkpt>
      <trkpt lat="43.42681" lon="6.61125">
        <ele>144.19999694824</ele>
        <time>2018-02-03T09:26:11.000Z</time>
      </trkpt>
      <trkpt lat="43.42673" lon="6.61116">
        <ele>145</ele>
        <time>2018-02-03T09:26:16.000Z</time>
      </trkpt>
      <trkpt lat="43.42671" lon="6.61114">
        <ele>145.19999694824</ele>
        <time>2018-02-03T09:26:17.000Z</time>
      </trkpt>
      <trkpt lat="43.42661" lon="6.61108">
        <ele>146</ele>
        <time>2018-02-03T09:26:23.000Z</time>
      </trkpt>
      <trkpt lat="43.42655" lon="6.61107">
        <ele>146.19999694824</ele>
        <time>2018-02-03T09:26:26.000Z</time>
      </trkpt>
      <trkpt lat="43.42644" lon="6.61111">
        <ele>146.60000610352</ele>
        <time>2018-02-03T09:26:31.000Z</time>
      </trkpt>
      <trkpt lat="43.42634" lon="6.61114">
        <ele>147.19999694824</ele>
        <time>2018-02-03T09:26:36.000Z</time>
      </trkpt>
      <trkpt lat="43.4263" lon="6.61113">
        <ele>147.80000305176</ele>
        <time>2018-02-03T09:26:38.000Z</time>
      </trkpt>
      <trkpt lat="43.42623" lon="6.61112">
        <ele>148.39999389648</ele>
        <time>2018-02-03T09:26:41.000Z</time>
      </trkpt>
      <trkpt lat="43.42614" lon="6.61108">
        <ele>148.60000610352</ele>
        <time>2018-02-03T09:26:45.000Z</time>
      </trkpt>
      <trkpt lat="43.42603" lon="6.61098">
        <ele>149.60000610352</ele>
        <time>2018-02-03T09:26:51.000Z</time>
      </trkpt>
      <trkpt lat="43.426" lon="6.61094">
        <ele>149.80000305176</ele>
        <time>2018-02-03T09:26:53.000Z</time>
      </trkpt>
      <trkpt lat="43.42589" lon="6.61087">
        <ele>150.60000610352</ele>
        <time>2018-02-03T09:26:58.000Z</time>
      </trkpt>
      <trkpt lat="43.4258" lon="6.61081">
        <ele>151.19999694824</ele>
        <time>2018-02-03T09:27:02.000Z</time>
      </trkpt>
      <trkpt lat="43.42561" lon="6.61064">
        <ele>151.80000305176</ele>
        <time>2018-02-03T09:27:11.000Z</time>
      </trkpt>
      <trkpt lat="43.42559" lon="6.61062">
        <ele>152</ele>
        <time>2018-02-03T09:27:12.000Z</time>
      </trkpt>
      <trkpt lat="43.42556" lon="6.61046">
        <ele>152.60000610352</ele>
        <time>2018-02-03T09:27:17.000Z</time>
      </trkpt>
      <trkpt lat="43.42555" lon="6.61033">
        <ele>153</ele>
        <time>2018-02-03T09:27:21.000Z</time>
      </trkpt>
      <trkpt lat="43.42552" lon="6.61023">
        <ele>153.39999389648</ele>
        <time>2018-02-03T09:27:24.000Z</time>
      </trkpt>
      <trkpt lat="43.42543" lon="6.61011">
        <ele>154</ele>
        <time>2018-02-03T09:27:29.000Z</time>
      </trkpt>
      <trkpt lat="43.4254" lon="6.61005">
        <ele>154.19999694824</ele>
        <time>2018-02-03T09:27:31.000Z</time>
      </trkpt>
      <trkpt lat="43.4254" lon="6.61002">
        <ele>154.39999389648</ele>
        <time>2018-02-03T09:27:32.000Z</time>
      </trkpt>
      <trkpt lat="43.42541" lon="6.60993">
        <ele>155.19999694824</ele>
        <time>2018-02-03T09:27:35.000Z</time>
      </trkpt>
      <trkpt lat="43.42543" lon="6.60989">
        <ele>155.80000305176</ele>
        <time>2018-02-03T09:27:37.000Z</time>
      </trkpt>
      <trkpt lat="43.42544" lon="6.60987">
        <ele>156</ele>
        <time>2018-02-03T09:27:38.000Z</time>
      </trkpt>
      <trkpt lat="43.42545" lon="6.60984">
        <ele>156.19999694824</ele>
        <time>2018-02-03T09:27:39.000Z</time>
      </trkpt>
      <trkpt lat="43.42552" lon="6.6097">
        <ele>157.39999389648</ele>
        <time>2018-02-03T09:27:45.000Z</time>
      </trkpt>
      <trkpt lat="43.42554" lon="6.60965">
        <ele>157.80000305176</ele>
        <time>2018-02-03T09:27:47.000Z</time>
      </trkpt>
      <trkpt lat="43.42555" lon="6.6095">
        <ele>158.39999389648</ele>
        <time>2018-02-03T09:27:52.000Z</time>
      </trkpt>
      <trkpt lat="43.42554" lon="6.60946">
        <ele>158.60000610352</ele>
        <time>2018-02-03T09:27:53.000Z</time>
      </trkpt>
      <trkpt lat="43.42548" lon="6.60923">
        <ele>159.39999389648</ele>
        <time>2018-02-03T09:28:00.000Z</time>
      </trkpt>
      <trkpt lat="43.42545" lon="6.60917">
        <ele>159.39999389648</ele>
        <time>2018-02-03T09:28:02.000Z</time>
      </trkpt>
      <trkpt lat="43.42539" lon="6.60903">
        <ele>159.39999389648</ele>
        <time>2018-02-03T09:28:06.000Z</time>
      </trkpt>
      <trkpt lat="43.42538" lon="6.60887">
        <ele>159.39999389648</ele>
        <time>2018-02-03T09:28:11.000Z</time>
      </trkpt>
      <trkpt lat="43.42543" lon="6.60866">
        <ele>160.39999389648</ele>
        <time>2018-02-03T09:28:18.000Z</time>
      </trkpt>
      <trkpt lat="43.42545" lon="6.60847">
        <ele>161.39999389648</ele>
        <time>2018-02-03T09:28:24.000Z</time>
      </trkpt>
      <trkpt lat="43.42545" lon="6.60845">
        <ele>161.39999389648</ele>
        <time>2018-02-03T09:28:25.000Z</time>
      </trkpt>
      <trkpt lat="43.42544" lon="6.60829">
        <ele>162.60000610352</ele>
        <time>2018-02-03T09:28:30.000Z</time>
      </trkpt>
      <trkpt lat="43.42544" lon="6.60826">
        <ele>162.80000305176</ele>
        <time>2018-02-03T09:28:31.000Z</time>
      </trkpt>
      <trkpt lat="43.42542" lon="6.60809">
        <ele>163.60000610352</ele>
        <time>2018-02-03T09:28:37.000Z</time>
      </trkpt>
      <trkpt lat="43.4254" lon="6.60796">
        <ele>164.80000305176</ele>
        <time>2018-02-03T09:28:43.000Z</time>
      </trkpt>
      <trkpt lat="43.4254" lon="6.60797">
        <ele>165</ele>
        <time>2018-02-03T09:28:44.000Z</time>
      </trkpt>
      <trkpt lat="43.4254" lon="6.60795">
        <ele>165.19999694824</ele>
        <time>2018-02-03T09:28:51.000Z</time>
      </trkpt>
      <trkpt lat="43.4254" lon="6.60793">
        <ele>164.80000305176</ele>
        <time>2018-02-03T09:29:04.000Z</time>
      </trkpt>
      <trkpt lat="43.42538" lon="6.60791">
        <ele>165</ele>
        <time>2018-02-03T09:29:09.000Z</time>
      </trkpt>
      <trkpt lat="43.42535" lon="6.60788">
        <ele>165.19999694824</ele>
        <time>2018-02-03T09:29:12.000Z</time>
      </trkpt>
      <trkpt lat="43.42532" lon="6.60785">
        <ele>165.19999694824</ele>
        <time>2018-02-03T09:29:14.000Z</time>
      </trkpt>
      <trkpt lat="43.42527" lon="6.60779">
        <ele>165.19999694824</ele>
        <time>2018-02-03T09:29:18.000Z</time>
      </trkpt>
      <trkpt lat="43.42522" lon="6.60776">
        <ele>165.39999389648</ele>
        <time>2018-02-03T09:29:21.000Z</time>
      </trkpt>
      <trkpt lat="43.42509" lon="6.6077">
        <ele>165.80000305176</ele>
        <time>2018-02-03T09:29:28.000Z</time>
      </trkpt>
      <trkpt lat="43.42491" lon="6.60766">
        <ele>165.80000305176</ele>
        <time>2018-02-03T09:29:35.000Z</time>
      </trkpt>
      <trkpt lat="43.42475" lon="6.60756">
        <ele>166.60000610352</ele>
        <time>2018-02-03T09:29:42.000Z</time>
      </trkpt>
      <trkpt lat="43.42464" lon="6.60745">
        <ele>166.80000305176</ele>
        <time>2018-02-03T09:29:47.000Z</time>
      </trkpt>
      <trkpt lat="43.42457" lon="6.6074">
        <ele>167.39999389648</ele>
        <time>2018-02-03T09:29:50.000Z</time>
      </trkpt>
      <trkpt lat="43.42441" lon="6.60733">
        <ele>168</ele>
        <time>2018-02-03T09:29:56.000Z</time>
      </trkpt>
      <trkpt lat="43.42436" lon="6.60732">
        <ele>168.19999694824</ele>
        <time>2018-02-03T09:29:58.000Z</time>
      </trkpt>
      <trkpt lat="43.42415" lon="6.60731">
        <ele>168.60000610352</ele>
        <time>2018-02-03T09:30:05.000Z</time>
      </trkpt>
      <trkpt lat="43.4241" lon="6.60731">
        <ele>169</ele>
        <time>2018-02-03T09:30:07.000Z</time>
      </trkpt>
      <trkpt lat="43.42398" lon="6.60731">
        <ele>169.80000305176</ele>
        <time>2018-02-03T09:30:12.000Z</time>
      </trkpt>
      <trkpt lat="43.42396" lon="6.60731">
        <ele>170</ele>
        <time>2018-02-03T09:30:13.000Z</time>
      </trkpt>
      <trkpt lat="43.42385" lon="6.60728">
        <ele>171</ele>
        <time>2018-02-03T09:30:18.000Z</time>
      </trkpt>
      <trkpt lat="43.42383" lon="6.60726">
        <ele>171.19999694824</ele>
        <time>2018-02-03T09:30:19.000Z</time>
      </trkpt>
      <trkpt lat="43.42374" lon="6.6072">
        <ele>172.19999694824</ele>
        <time>2018-02-03T09:30:23.000Z</time>
      </trkpt>
      <trkpt lat="43.42369" lon="6.60716">
        <ele>173.39999389648</ele>
        <time>2018-02-03T09:30:26.000Z</time>
      </trkpt>
      <trkpt lat="43.42363" lon="6.60711">
        <ele>174.60000610352</ele>
        <time>2018-02-03T09:30:29.000Z</time>
      </trkpt>
      <trkpt lat="43.42358" lon="6.60702">
        <ele>175.39999389648</ele>
        <time>2018-02-03T09:30:33.000Z</time>
      </trkpt>
      <trkpt lat="43.42358" lon="6.60699">
        <ele>175.80000305176</ele>
        <time>2018-02-03T09:30:34.000Z</time>
      </trkpt>
      <trkpt lat="43.42357" lon="6.60692">
        <ele>176.39999389648</ele>
        <time>2018-02-03T09:30:37.000Z</time>
      </trkpt>
      <trkpt lat="43.42357" lon="6.60688">
        <ele>176.80000305176</ele>
        <time>2018-02-03T09:30:39.000Z</time>
      </trkpt>
      <trkpt lat="43.42358" lon="6.6068">
        <ele>177.39999389648</ele>
        <time>2018-02-03T09:30:43.000Z</time>
      </trkpt>
      <trkpt lat="43.42358" lon="6.60675">
        <ele>177.80000305176</ele>
        <time>2018-02-03T09:30:45.000Z</time>
      </trkpt>
      <trkpt lat="43.42357" lon="6.60672">
        <ele>177.80000305176</ele>
        <time>2018-02-03T09:30:46.000Z</time>
      </trkpt>
      <trkpt lat="43.42353" lon="6.60664">
        <ele>178.80000305176</ele>
        <time>2018-02-03T09:30:50.000Z</time>
      </trkpt>
      <trkpt lat="43.4235" lon="6.6066">
        <ele>179.39999389648</ele>
        <time>2018-02-03T09:30:52.000Z</time>
      </trkpt>
      <trkpt lat="43.42345" lon="6.60655">
        <ele>179.80000305176</ele>
        <time>2018-02-03T09:30:55.000Z</time>
      </trkpt>
      <trkpt lat="43.42339" lon="6.60651">
        <ele>180.60000610352</ele>
        <time>2018-02-03T09:30:59.000Z</time>
      </trkpt>
      <trkpt lat="43.42336" lon="6.60649">
        <ele>181</ele>
        <time>2018-02-03T09:31:01.000Z</time>
      </trkpt>
      <trkpt lat="43.42328" lon="6.60644">
        <ele>181.80000305176</ele>
        <time>2018-02-03T09:31:07.000Z</time>
      </trkpt>
      <trkpt lat="43.42326" lon="6.60643">
        <ele>182.19999694824</ele>
        <time>2018-02-03T09:31:08.000Z</time>
      </trkpt>
      <trkpt lat="43.42319" lon="6.60638">
        <ele>183.19999694824</ele>
        <time>2018-02-03T09:31:13.000Z</time>
      </trkpt>
      <trkpt lat="43.42318" lon="6.60638">
        <ele>183.39999389648</ele>
        <time>2018-02-03T09:31:14.000Z</time>
      </trkpt>
      <trkpt lat="43.4231" lon="6.60636">
        <ele>184.39999389648</ele>
        <time>2018-02-03T09:31:19.000Z</time>
      </trkpt>
      <trkpt lat="43.42306" lon="6.60635">
        <ele>184.80000305176</ele>
        <time>2018-02-03T09:31:22.000Z</time>
      </trkpt>
      <trkpt lat="43.42297" lon="6.60636">
        <ele>185.39999389648</ele>
        <time>2018-02-03T09:31:28.000Z</time>
      </trkpt>
      <trkpt lat="43.42295" lon="6.60636">
        <ele>185.60000610352</ele>
        <time>2018-02-03T09:31:29.000Z</time>
      </trkpt>
      <trkpt lat="43.42281" lon="6.60642">
        <ele>186.60000610352</ele>
        <time>2018-02-03T09:31:37.000Z</time>
      </trkpt>
      <trkpt lat="43.4228" lon="6.60643">
        <ele>186.60000610352</ele>
        <time>2018-02-03T09:31:38.000Z</time>
      </trkpt>
      <trkpt lat="43.4227" lon="6.60648">
        <ele>187.80000305176</ele>
        <time>2018-02-03T09:31:44.000Z</time>
      </trkpt>
      <trkpt lat="43.42269" lon="6.60649">
        <ele>188</ele>
        <time>2018-02-03T09:31:45.000Z</time>
      </trkpt>
      <trkpt lat="43.42257" lon="6.60657">
        <ele>188.39999389648</ele>
        <time>2018-02-03T09:31:52.000Z</time>
      </trkpt>
      <trkpt lat="43.42252" lon="6.6066">
        <ele>188.80000305176</ele>
        <time>2018-02-03T09:31:55.000Z</time>
      </trkpt>
      <trkpt lat="43.4224" lon="6.60667">
        <ele>189.39999389648</ele>
        <time>2018-02-03T09:32:02.000Z</time>
      </trkpt>
      <trkpt lat="43.42232" lon="6.60674">
        <ele>190</ele>
        <time>2018-02-03T09:32:06.000Z</time>
      </trkpt>
      <trkpt lat="43.42228" lon="6.60678">
        <ele>190.19999694824</ele>
        <time>2018-02-03T09:32:08.000Z</time>
      </trkpt>
      <trkpt lat="43.42214" lon="6.60698">
        <ele>190.39999389648</ele>
        <time>2018-02-03T09:32:16.000Z</time>
      </trkpt>
      <trkpt lat="43.42195" lon="6.60728">
        <ele>190.80000305176</ele>
        <time>2018-02-03T09:32:26.000Z</time>
      </trkpt>
      <trkpt lat="43.42184" lon="6.60741">
        <ele>189.80000305176</ele>
        <time>2018-02-03T09:32:31.000Z</time>
      </trkpt>
      <trkpt lat="43.42177" lon="6.60748">
        <ele>190.39999389648</ele>
        <time>2018-02-03T09:32:36.000Z</time>
      </trkpt>
      <trkpt lat="43.42172" lon="6.60754">
        <ele>191</ele>
        <time>2018-02-03T09:32:39.000Z</time>
      </trkpt>
      <trkpt lat="43.42162" lon="6.60765">
        <ele>191.19999694824</ele>
        <time>2018-02-03T09:32:44.000Z</time>
      </trkpt>
      <trkpt lat="43.42155" lon="6.60772">
        <ele>191.39999389648</ele>
        <time>2018-02-03T09:32:48.000Z</time>
      </trkpt>
      <trkpt lat="43.42153" lon="6.60776">
        <ele>191.60000610352</ele>
        <time>2018-02-03T09:32:50.000Z</time>
      </trkpt>
      <trkpt lat="43.4215" lon="6.60781">
        <ele>192.19999694824</ele>
        <time>2018-02-03T09:32:52.000Z</time>
      </trkpt>
      <trkpt lat="43.42147" lon="6.60784">
        <ele>192.19999694824</ele>
        <time>2018-02-03T09:32:54.000Z</time>
      </trkpt>
      <trkpt lat="43.42142" lon="6.60792">
        <ele>192.19999694824</ele>
        <time>2018-02-03T09:32:59.000Z</time>
      </trkpt>
      <trkpt lat="43.42133" lon="6.6081">
        <ele>192.80000305176</ele>
        <time>2018-02-03T09:33:06.000Z</time>
      </trkpt>
      <trkpt lat="43.42129" lon="6.60819">
        <ele>193.19999694824</ele>
        <time>2018-02-03T09:33:09.000Z</time>
      </trkpt>
      <trkpt lat="43.42123" lon="6.60831">
        <ele>193.60000610352</ele>
        <time>2018-02-03T09:33:13.000Z</time>
      </trkpt>
      <trkpt lat="43.42114" lon="6.60849">
        <ele>194.19999694824</ele>
        <time>2018-02-03T09:33:19.000Z</time>
      </trkpt>
      <trkpt lat="43.42112" lon="6.60854">
        <ele>194.39999389648</ele>
        <time>2018-02-03T09:33:21.000Z</time>
      </trkpt>
      <trkpt lat="43.42103" lon="6.60867">
        <ele>195</ele>
        <time>2018-02-03T09:33:26.000Z</time>
      </trkpt>
      <trkpt lat="43.42092" lon="6.60881">
        <ele>195</ele>
        <time>2018-02-03T09:33:32.000Z</time>
      </trkpt>
      <trkpt lat="43.42088" lon="6.60885">
        <ele>195.19999694824</ele>
        <time>2018-02-03T09:33:34.000Z</time>
      </trkpt>
      <trkpt lat="43.42073" lon="6.60901">
        <ele>196</ele>
        <time>2018-02-03T09:33:41.000Z</time>
      </trkpt>
      <trkpt lat="43.42066" lon="6.60907">
        <ele>196.39999389648</ele>
        <time>2018-02-03T09:33:44.000Z</time>
      </trkpt>
      <trkpt lat="43.42053" lon="6.60915">
        <ele>197.19999694824</ele>
        <time>2018-02-03T09:33:49.000Z</time>
      </trkpt>
      <trkpt lat="43.4205" lon="6.60916">
        <ele>197.39999389648</ele>
        <time>2018-02-03T09:33:50.000Z</time>
      </trkpt>
      <trkpt lat="43.42032" lon="6.60925">
        <ele>198.60000610352</ele>
        <time>2018-02-03T09:33:57.000Z</time>
      </trkpt>
      <trkpt lat="43.4202" lon="6.60934">
        <ele>199.60000610352</ele>
        <time>2018-02-03T09:34:02.000Z</time>
      </trkpt>
      <trkpt lat="43.42005" lon="6.60946">
        <ele>199.80000305176</ele>
        <time>2018-02-03T09:34:08.000Z</time>
      </trkpt>
      <trkpt lat="43.41988" lon="6.60962">
        <ele>200.19999694824</ele>
        <time>2018-02-03T09:34:15.000Z</time>
      </trkpt>
      <trkpt lat="43.41977" lon="6.60971">
        <ele>200.60000610352</ele>
        <time>2018-02-03T09:34:20.000Z</time>
      </trkpt>
      <trkpt lat="43.41972" lon="6.60973">
        <ele>201</ele>
        <time>2018-02-03T09:34:22.000Z</time>
      </trkpt>
      <trkpt lat="43.41966" lon="6.60976">
        <ele>201.80000305176</ele>
        <time>2018-02-03T09:34:25.000Z</time>
      </trkpt>
      <trkpt lat="43.41959" lon="6.60976">
        <ele>202.80000305176</ele>
        <time>2018-02-03T09:34:29.000Z</time>
      </trkpt>
      <trkpt lat="43.41954" lon="6.60974">
        <ele>203.60000610352</ele>
        <time>2018-02-03T09:34:32.000Z</time>
      </trkpt>
      <trkpt lat="43.41952" lon="6.60972">
        <ele>204</ele>
        <time>2018-02-03T09:34:34.000Z</time>
      </trkpt>
      <trkpt lat="43.4195" lon="6.6097">
        <ele>204</ele>
        <time>2018-02-03T09:34:35.000Z</time>
      </trkpt>
      <trkpt lat="43.41943" lon="6.60965">
        <ele>205.19999694824</ele>
        <time>2018-02-03T09:34:40.000Z</time>
      </trkpt>
      <trkpt lat="43.41942" lon="6.60964">
        <ele>205.39999389648</ele>
        <time>2018-02-03T09:34:41.000Z</time>
      </trkpt>
      <trkpt lat="43.4194" lon="6.60964">
        <ele>205.60000610352</ele>
        <time>2018-02-03T09:34:42.000Z</time>
      </trkpt>
      <trkpt lat="43.41937" lon="6.60963">
        <ele>206.39999389648</ele>
        <time>2018-02-03T09:34:44.000Z</time>
      </trkpt>
      <trkpt lat="43.41931" lon="6.60963">
        <ele>207.60000610352</ele>
        <time>2018-02-03T09:34:48.000Z</time>
      </trkpt>
      <trkpt lat="43.41929" lon="6.60963">
        <ele>207.60000610352</ele>
        <time>2018-02-03T09:34:49.000Z</time>
      </trkpt>
      <trkpt lat="43.41922" lon="6.60965">
        <ele>208.60000610352</ele>
        <time>2018-02-03T09:34:54.000Z</time>
      </trkpt>
      <trkpt lat="43.4192" lon="6.60966">
        <ele>209</ele>
        <time>2018-02-03T09:34:56.000Z</time>
      </trkpt>
      <trkpt lat="43.41915" lon="6.60968">
        <ele>209.80000305176</ele>
        <time>2018-02-03T09:34:59.000Z</time>
      </trkpt>
      <trkpt lat="43.4191" lon="6.60973">
        <ele>210.80000305176</ele>
        <time>2018-02-03T09:35:03.000Z</time>
      </trkpt>
      <trkpt lat="43.41905" lon="6.60981">
        <ele>211.80000305176</ele>
        <time>2018-02-03T09:35:08.000Z</time>
      </trkpt>
      <trkpt lat="43.41904" lon="6.60983">
        <ele>212</ele>
        <time>2018-02-03T09:35:09.000Z</time>
      </trkpt>
      <trkpt lat="43.41899" lon="6.61">
        <ele>212.80000305176</ele>
        <time>2018-02-03T09:35:15.000Z</time>
      </trkpt>
      <trkpt lat="43.41899" lon="6.61002">
        <ele>213.19999694824</ele>
        <time>2018-02-03T09:35:16.000Z</time>
      </trkpt>
      <trkpt lat="43.41901" lon="6.6101">
        <ele>214</ele>
        <time>2018-02-03T09:35:19.000Z</time>
      </trkpt>
      <trkpt lat="43.41904" lon="6.61014">
        <ele>214.60000610352</ele>
        <time>2018-02-03T09:35:21.000Z</time>
      </trkpt>
      <trkpt lat="43.41907" lon="6.61017">
        <ele>215.19999694824</ele>
        <time>2018-02-03T09:35:23.000Z</time>
      </trkpt>
      <trkpt lat="43.41915" lon="6.61021">
        <ele>216.19999694824</ele>
        <time>2018-02-03T09:35:27.000Z</time>
      </trkpt>
      <trkpt lat="43.41917" lon="6.61021">
        <ele>216.19999694824</ele>
        <time>2018-02-03T09:35:28.000Z</time>
      </trkpt>
      <trkpt lat="43.4193" lon="6.61029">
        <ele>217.19999694824</ele>
        <time>2018-02-03T09:35:36.000Z</time>
      </trkpt>
      <trkpt lat="43.41935" lon="6.61034">
        <ele>218.19999694824</ele>
        <time>2018-02-03T09:35:40.000Z</time>
      </trkpt>
      <trkpt lat="43.41939" lon="6.61039">
        <ele>219</ele>
        <time>2018-02-03T09:35:43.000Z</time>
      </trkpt>
      <trkpt lat="43.41942" lon="6.61043">
        <ele>219.39999389648</ele>
        <time>2018-02-03T09:35:45.000Z</time>
      </trkpt>
      <trkpt lat="43.41946" lon="6.61053">
        <ele>220.60000610352</ele>
        <time>2018-02-03T09:35:50.000Z</time>
      </trkpt>
      <trkpt lat="43.41945" lon="6.61068">
        <ele>221.19999694824</ele>
        <time>2018-02-03T09:35:56.000Z</time>
      </trkpt>
      <trkpt lat="43.41942" lon="6.61075">
        <ele>221.80000305176</ele>
        <time>2018-02-03T09:35:59.000Z</time>
      </trkpt>
      <trkpt lat="43.4194" lon="6.6108">
        <ele>222.60000610352</ele>
        <time>2018-02-03T09:36:02.000Z</time>
      </trkpt>
      <trkpt lat="43.41939" lon="6.61081">
        <ele>223</ele>
        <time>2018-02-03T09:36:03.000Z</time>
      </trkpt>
      <trkpt lat="43.41935" lon="6.6109">
        <ele>224.19999694824</ele>
        <time>2018-02-03T09:36:07.000Z</time>
      </trkpt>
      <trkpt lat="43.41926" lon="6.61102">
        <ele>224.80000305176</ele>
        <time>2018-02-03T09:36:14.000Z</time>
      </trkpt>
      <trkpt lat="43.41923" lon="6.61104">
        <ele>225.19999694824</ele>
        <time>2018-02-03T09:36:16.000Z</time>
      </trkpt>
      <trkpt lat="43.41912" lon="6.61109">
        <ele>226.19999694824</ele>
        <time>2018-02-03T09:36:22.000Z</time>
      </trkpt>
      <trkpt lat="43.41896" lon="6.6111">
        <ele>227.19999694824</ele>
        <time>2018-02-03T09:36:30.000Z</time>
      </trkpt>
      <trkpt lat="43.41894" lon="6.61111">
        <ele>227.39999389648</ele>
        <time>2018-02-03T09:36:31.000Z</time>
      </trkpt>
      <trkpt lat="43.41884" lon="6.61114">
        <ele>228.39999389648</ele>
        <time>2018-02-03T09:36:36.000Z</time>
      </trkpt>
      <trkpt lat="43.41868" lon="6.61123">
        <ele>229.19999694824</ele>
        <time>2018-02-03T09:36:43.000Z</time>
      </trkpt>
      <trkpt lat="43.41863" lon="6.61125">
        <ele>229.60000610352</ele>
        <time>2018-02-03T09:36:45.000Z</time>
      </trkpt>
      <trkpt lat="43.41849" lon="6.61129">
        <ele>230.60000610352</ele>
        <time>2018-02-03T09:36:51.000Z</time>
      </trkpt>
      <trkpt lat="43.41847" lon="6.6113">
        <ele>230.60000610352</ele>
        <time>2018-02-03T09:36:52.000Z</time>
      </trkpt>
      <trkpt lat="43.41835" lon="6.61131">
        <ele>231.60000610352</ele>
        <time>2018-02-03T09:36:57.000Z</time>
      </trkpt>
      <trkpt lat="43.41827" lon="6.61133">
        <ele>232.60000610352</ele>
        <time>2018-02-03T09:37:01.000Z</time>
      </trkpt>
      <trkpt lat="43.41825" lon="6.61135">
        <ele>232.60000610352</ele>
        <time>2018-02-03T09:37:02.000Z</time>
      </trkpt>
      <trkpt lat="43.41815" lon="6.61138">
        <ele>233.19999694824</ele>
        <time>2018-02-03T09:37:07.000Z</time>
      </trkpt>
      <trkpt lat="43.41809" lon="6.61139">
        <ele>233.80000305176</ele>
        <time>2018-02-03T09:37:10.000Z</time>
      </trkpt>
      <trkpt lat="43.41801" lon="6.61141">
        <ele>234.39999389648</ele>
        <time>2018-02-03T09:37:14.000Z</time>
      </trkpt>
      <trkpt lat="43.41796" lon="6.61142">
        <ele>234.80000305176</ele>
        <time>2018-02-03T09:37:16.000Z</time>
      </trkpt>
      <trkpt lat="43.41787" lon="6.61142">
        <ele>235.80000305176</ele>
        <time>2018-02-03T09:37:20.000Z</time>
      </trkpt>
      <trkpt lat="43.41783" lon="6.61141">
        <ele>236.19999694824</ele>
        <time>2018-02-03T09:37:22.000Z</time>
      </trkpt>
      <trkpt lat="43.41774" lon="6.61138">
        <ele>237</ele>
        <time>2018-02-03T09:37:26.000Z</time>
      </trkpt>
      <trkpt lat="43.41763" lon="6.61133">
        <ele>237.60000610352</ele>
        <time>2018-02-03T09:37:31.000Z</time>
      </trkpt>
      <trkpt lat="43.41755" lon="6.61128">
        <ele>238</ele>
        <time>2018-02-03T09:37:35.000Z</time>
      </trkpt>
      <trkpt lat="43.41746" lon="6.61125">
        <ele>239</ele>
        <time>2018-02-03T09:37:39.000Z</time>
      </trkpt>
      <trkpt lat="43.41732" lon="6.61124">
        <ele>239.80000305176</ele>
        <time>2018-02-03T09:37:46.000Z</time>
      </trkpt>
      <trkpt lat="43.4173" lon="6.61124">
        <ele>240</ele>
        <time>2018-02-03T09:37:47.000Z</time>
      </trkpt>
      <trkpt lat="43.4172" lon="6.61125">
        <ele>240.80000305176</ele>
        <time>2018-02-03T09:37:52.000Z</time>
      </trkpt>
      <trkpt lat="43.41719" lon="6.61125">
        <ele>241</ele>
        <time>2018-02-03T09:37:53.000Z</time>
      </trkpt>
      <trkpt lat="43.41711" lon="6.61125">
        <ele>242.19999694824</ele>
        <time>2018-02-03T09:37:58.000Z</time>
      </trkpt>
      <trkpt lat="43.41709" lon="6.61125">
        <ele>242.39999389648</ele>
        <time>2018-02-03T09:37:59.000Z</time>
      </trkpt>
      <trkpt lat="43.41702" lon="6.61124">
        <ele>243.19999694824</ele>
        <time>2018-02-03T09:38:03.000Z</time>
      </trkpt>
      <trkpt lat="43.41697" lon="6.61123">
        <ele>243.80000305176</ele>
        <time>2018-02-03T09:38:06.000Z</time>
      </trkpt>
      <trkpt lat="43.41693" lon="6.61122">
        <ele>244.19999694824</ele>
        <time>2018-02-03T09:38:08.000Z</time>
      </trkpt>
      <trkpt lat="43.41687" lon="6.61118">
        <ele>245.39999389648</ele>
        <time>2018-02-03T09:38:12.000Z</time>
      </trkpt>
      <trkpt lat="43.41685" lon="6.61117">
        <ele>245.60000610352</ele>
        <time>2018-02-03T09:38:13.000Z</time>
      </trkpt>
      <trkpt lat="43.4168" lon="6.61111">
        <ele>246.39999389648</ele>
        <time>2018-02-03T09:38:17.000Z</time>
      </trkpt>
      <trkpt lat="43.41677" lon="6.61104">
        <ele>246.80000305176</ele>
        <time>2018-02-03T09:38:20.000Z</time>
      </trkpt>
      <trkpt lat="43.41673" lon="6.61091">
        <ele>247.60000610352</ele>
        <time>2018-02-03T09:38:25.000Z</time>
      </trkpt>
      <trkpt lat="43.41671" lon="6.61084">
        <ele>248</ele>
        <time>2018-02-03T09:38:28.000Z</time>
      </trkpt>
      <trkpt lat="43.41666" lon="6.61075">
        <ele>248.80000305176</ele>
        <time>2018-02-03T09:38:32.000Z</time>
      </trkpt>
      <trkpt lat="43.41662" lon="6.6107">
        <ele>249.19999694824</ele>
        <time>2018-02-03T09:38:35.000Z</time>
      </trkpt>
      <trkpt lat="43.41656" lon="6.61067">
        <ele>249.80000305176</ele>
        <time>2018-02-03T09:38:38.000Z</time>
      </trkpt>
      <trkpt lat="43.41647" lon="6.61064">
        <ele>250.80000305176</ele>
        <time>2018-02-03T09:38:43.000Z</time>
      </trkpt>
      <trkpt lat="43.41645" lon="6.61063">
        <ele>251</ele>
        <time>2018-02-03T09:38:44.000Z</time>
      </trkpt>
      <trkpt lat="43.41637" lon="6.61057">
        <ele>252</ele>
        <time>2018-02-03T09:38:49.000Z</time>
      </trkpt>
      <trkpt lat="43.41633" lon="6.61054">
        <ele>252.39999389648</ele>
        <time>2018-02-03T09:38:51.000Z</time>
      </trkpt>
      <trkpt lat="43.41625" lon="6.61046">
        <ele>253.39999389648</ele>
        <time>2018-02-03T09:38:56.000Z</time>
      </trkpt>
      <trkpt lat="43.4162" lon="6.61042">
        <ele>254.39999389648</ele>
        <time>2018-02-03T09:38:59.000Z</time>
      </trkpt>
      <trkpt lat="43.41619" lon="6.6104">
        <ele>254.60000610352</ele>
        <time>2018-02-03T09:39:00.000Z</time>
      </trkpt>
      <trkpt lat="43.41612" lon="6.61032">
        <ele>255.80000305176</ele>
        <time>2018-02-03T09:39:05.000Z</time>
      </trkpt>
      <trkpt lat="43.41609" lon="6.61026">
        <ele>256.20001220703</ele>
        <time>2018-02-03T09:39:08.000Z</time>
      </trkpt>
      <trkpt lat="43.41605" lon="6.61018">
        <ele>256.79998779297</ele>
        <time>2018-02-03T09:39:12.000Z</time>
      </trkpt>
      <trkpt lat="43.41602" lon="6.61012">
        <ele>257.79998779297</ele>
        <time>2018-02-03T09:39:15.000Z</time>
      </trkpt>
      <trkpt lat="43.41601" lon="6.61011">
        <ele>258</ele>
        <time>2018-02-03T09:39:16.000Z</time>
      </trkpt>
      <trkpt lat="43.41596" lon="6.61004">
        <ele>258.60000610352</ele>
        <time>2018-02-03T09:39:20.000Z</time>
      </trkpt>
      <trkpt lat="43.41594" lon="6.61005">
        <ele>258.79998779297</ele>
        <time>2018-02-03T09:39:21.000Z</time>
      </trkpt>
      <trkpt lat="43.41592" lon="6.61008">
        <ele>259</ele>
        <time>2018-02-03T09:39:23.000Z</time>
      </trkpt>
      <trkpt lat="43.41591" lon="6.6101">
        <ele>259.20001220703</ele>
        <time>2018-02-03T09:39:24.000Z</time>
      </trkpt>
      <trkpt lat="43.4159" lon="6.61012">
        <ele>259.39999389648</ele>
        <time>2018-02-03T09:39:25.000Z</time>
      </trkpt>
      <trkpt lat="43.41588" lon="6.61022">
        <ele>260.39999389648</ele>
        <time>2018-02-03T09:39:29.000Z</time>
      </trkpt>
      <trkpt lat="43.41586" lon="6.6103">
        <ele>261</ele>
        <time>2018-02-03T09:39:32.000Z</time>
      </trkpt>
      <trkpt lat="43.41584" lon="6.61034">
        <ele>261.39999389648</ele>
        <time>2018-02-03T09:39:34.000Z</time>
      </trkpt>
      <trkpt lat="43.41579" lon="6.61042">
        <ele>262.20001220703</ele>
        <time>2018-02-03T09:39:38.000Z</time>
      </trkpt>
      <trkpt lat="43.41575" lon="6.61044">
        <ele>262.60000610352</ele>
        <time>2018-02-03T09:39:40.000Z</time>
      </trkpt>
      <trkpt lat="43.41566" lon="6.61044">
        <ele>263.39999389648</ele>
        <time>2018-02-03T09:39:44.000Z</time>
      </trkpt>
      <trkpt lat="43.41564" lon="6.61043">
        <ele>263.60000610352</ele>
        <time>2018-02-03T09:39:45.000Z</time>
      </trkpt>
      <trkpt lat="43.41554" lon="6.6104">
        <ele>264.60000610352</ele>
        <time>2018-02-03T09:39:50.000Z</time>
      </trkpt>
      <trkpt lat="43.41549" lon="6.61039">
        <ele>265</ele>
        <time>2018-02-03T09:39:52.000Z</time>
      </trkpt>
      <trkpt lat="43.41537" lon="6.61039">
        <ele>265.60000610352</ele>
        <time>2018-02-03T09:39:58.000Z</time>
      </trkpt>
      <trkpt lat="43.41535" lon="6.61038">
        <ele>265.79998779297</ele>
        <time>2018-02-03T09:39:59.000Z</time>
      </trkpt>
      <trkpt lat="43.41522" lon="6.61034">
        <ele>266.60000610352</ele>
        <time>2018-02-03T09:40:05.000Z</time>
      </trkpt>
      <trkpt lat="43.41518" lon="6.61031">
        <ele>267</ele>
        <time>2018-02-03T09:40:07.000Z</time>
      </trkpt>
      <trkpt lat="43.41508" lon="6.61021">
        <ele>267.79998779297</ele>
        <time>2018-02-03T09:40:12.000Z</time>
      </trkpt>
      <trkpt lat="43.41504" lon="6.6102">
        <ele>268.20001220703</ele>
        <time>2018-02-03T09:40:14.000Z</time>
      </trkpt>
      <trkpt lat="43.41498" lon="6.61019">
        <ele>268.60000610352</ele>
        <time>2018-02-03T09:40:17.000Z</time>
      </trkpt>
      <trkpt lat="43.4149" lon="6.6102">
        <ele>269.20001220703</ele>
        <time>2018-02-03T09:40:21.000Z</time>
      </trkpt>
      <trkpt lat="43.41488" lon="6.61021">
        <ele>269.20001220703</ele>
        <time>2018-02-03T09:40:22.000Z</time>
      </trkpt>
      <trkpt lat="43.41477" lon="6.61024">
        <ele>270.20001220703</ele>
        <time>2018-02-03T09:40:27.000Z</time>
      </trkpt>
      <trkpt lat="43.41475" lon="6.61024">
        <ele>270.39999389648</ele>
        <time>2018-02-03T09:40:28.000Z</time>
      </trkpt>
      <trkpt lat="43.41465" lon="6.61024">
        <ele>271.20001220703</ele>
        <time>2018-02-03T09:40:32.000Z</time>
      </trkpt>
      <trkpt lat="43.41457" lon="6.61021">
        <ele>271.79998779297</ele>
        <time>2018-02-03T09:40:35.000Z</time>
      </trkpt>
      <trkpt lat="43.41442" lon="6.61017">
        <ele>272.39999389648</ele>
        <time>2018-02-03T09:40:41.000Z</time>
      </trkpt>
      <trkpt lat="43.41437" lon="6.61016">
        <ele>272.60000610352</ele>
        <time>2018-02-03T09:40:43.000Z</time>
      </trkpt>
      <trkpt lat="43.41425" lon="6.61012">
        <ele>273.60000610352</ele>
        <time>2018-02-03T09:40:48.000Z</time>
      </trkpt>
      <trkpt lat="43.41416" lon="6.6101">
        <ele>274</ele>
        <time>2018-02-03T09:40:51.000Z</time>
      </trkpt>
      <trkpt lat="43.41405" lon="6.61007">
        <ele>274.60000610352</ele>
        <time>2018-02-03T09:40:55.000Z</time>
      </trkpt>
      <trkpt lat="43.41391" lon="6.61003">
        <ele>275.20001220703</ele>
        <time>2018-02-03T09:41:00.000Z</time>
      </trkpt>
      <trkpt lat="43.4138" lon="6.61">
        <ele>275.60000610352</ele>
        <time>2018-02-03T09:41:04.000Z</time>
      </trkpt>
      <trkpt lat="43.41367" lon="6.60994">
        <ele>275.79998779297</ele>
        <time>2018-02-03T09:41:08.000Z</time>
      </trkpt>
      <trkpt lat="43.41345" lon="6.60981">
        <ele>276</ele>
        <time>2018-02-03T09:41:16.000Z</time>
      </trkpt>
      <trkpt lat="43.4132" lon="6.60962">
        <ele>276.60000610352</ele>
        <time>2018-02-03T09:41:26.000Z</time>
      </trkpt>
      <trkpt lat="43.41308" lon="6.60948">
        <ele>277.79998779297</ele>
        <time>2018-02-03T09:41:32.000Z</time>
      </trkpt>
      <trkpt lat="43.41304" lon="6.60943">
        <ele>278</ele>
        <time>2018-02-03T09:41:34.000Z</time>
      </trkpt>
      <trkpt lat="43.41291" lon="6.60921">
        <ele>278.79998779297</ele>
        <time>2018-02-03T09:41:42.000Z</time>
      </trkpt>
      <trkpt lat="43.41282" lon="6.60904">
        <ele>280</ele>
        <time>2018-02-03T09:41:49.000Z</time>
      </trkpt>
      <trkpt lat="43.41279" lon="6.609">
        <ele>280.20001220703</ele>
        <time>2018-02-03T09:41:51.000Z</time>
      </trkpt>
      <trkpt lat="43.41273" lon="6.60892">
        <ele>281</ele>
        <time>2018-02-03T09:41:55.000Z</time>
      </trkpt>
      <trkpt lat="43.41269" lon="6.60887">
        <ele>281.60000610352</ele>
        <time>2018-02-03T09:41:58.000Z</time>
      </trkpt>
      <trkpt lat="43.41267" lon="6.60885">
        <ele>282</ele>
        <time>2018-02-03T09:41:59.000Z</time>
      </trkpt>
      <trkpt lat="43.41258" lon="6.60879">
        <ele>283</ele>
        <time>2018-02-03T09:42:04.000Z</time>
      </trkpt>
      <trkpt lat="43.41255" lon="6.60878">
        <ele>283.20001220703</ele>
        <time>2018-02-03T09:42:06.000Z</time>
      </trkpt>
      <trkpt lat="43.41245" lon="6.60875">
        <ele>284.20001220703</ele>
        <time>2018-02-03T09:42:11.000Z</time>
      </trkpt>
      <trkpt lat="43.4124" lon="6.60876">
        <ele>284.60000610352</ele>
        <time>2018-02-03T09:42:13.000Z</time>
      </trkpt>
      <trkpt lat="43.41232" lon="6.60875">
        <ele>285.20001220703</ele>
        <time>2018-02-03T09:42:17.000Z</time>
      </trkpt>
      <trkpt lat="43.41226" lon="6.60873">
        <ele>285.79998779297</ele>
        <time>2018-02-03T09:42:20.000Z</time>
      </trkpt>
      <trkpt lat="43.4122" lon="6.60868">
        <ele>286.39999389648</ele>
        <time>2018-02-03T09:42:23.000Z</time>
      </trkpt>
      <trkpt lat="43.41215" lon="6.60862">
        <ele>287.39999389648</ele>
        <time>2018-02-03T09:42:26.000Z</time>
      </trkpt>
      <trkpt lat="43.41209" lon="6.60857">
        <ele>288.60000610352</ele>
        <time>2018-02-03T09:42:29.000Z</time>
      </trkpt>
      <trkpt lat="43.41203" lon="6.60851">
        <ele>289.20001220703</ele>
        <time>2018-02-03T09:42:33.000Z</time>
      </trkpt>
      <trkpt lat="43.41197" lon="6.60846">
        <ele>289.79998779297</ele>
        <time>2018-02-03T09:42:37.000Z</time>
      </trkpt>
      <trkpt lat="43.41188" lon="6.60841">
        <ele>291</ele>
        <time>2018-02-03T09:42:42.000Z</time>
      </trkpt>
      <trkpt lat="43.41186" lon="6.60839">
        <ele>291.39999389648</ele>
        <time>2018-02-03T09:42:44.000Z</time>
      </trkpt>
      <trkpt lat="43.41181" lon="6.60837">
        <ele>292</ele>
        <time>2018-02-03T09:42:47.000Z</time>
      </trkpt>
      <trkpt lat="43.41175" lon="6.60833">
        <ele>292.60000610352</ele>
        <time>2018-02-03T09:42:50.000Z</time>
      </trkpt>
      <trkpt lat="43.41172" lon="6.6083">
        <ele>293</ele>
        <time>2018-02-03T09:42:52.000Z</time>
      </trkpt>
      <trkpt lat="43.41165" lon="6.60823">
        <ele>293.60000610352</ele>
        <time>2018-02-03T09:42:57.000Z</time>
      </trkpt>
      <trkpt lat="43.41161" lon="6.6082">
        <ele>294.20001220703</ele>
        <time>2018-02-03T09:43:00.000Z</time>
      </trkpt>
      <trkpt lat="43.41155" lon="6.60823">
        <ele>295</ele>
        <time>2018-02-03T09:43:04.000Z</time>
      </trkpt>
      <trkpt lat="43.41154" lon="6.60825">
        <ele>295.20001220703</ele>
        <time>2018-02-03T09:43:05.000Z</time>
      </trkpt>
      <trkpt lat="43.41154" lon="6.60828">
        <ele>295.39999389648</ele>
        <time>2018-02-03T09:43:06.000Z</time>
      </trkpt>
      <trkpt lat="43.41154" lon="6.60834">
        <ele>295.79998779297</ele>
        <time>2018-02-03T09:43:08.000Z</time>
      </trkpt>
      <trkpt lat="43.41155" lon="6.6084">
        <ele>296</ele>
        <time>2018-02-03T09:43:10.000Z</time>
      </trkpt>
      <trkpt lat="43.41157" lon="6.60846">
        <ele>296.60000610352</ele>
        <time>2018-02-03T09:43:12.000Z</time>
      </trkpt>
      <trkpt lat="43.41158" lon="6.60853">
        <ele>296.79998779297</ele>
        <time>2018-02-03T09:43:14.000Z</time>
      </trkpt>
      <trkpt lat="43.41164" lon="6.60871">
        <ele>297.60000610352</ele>
        <time>2018-02-03T09:43:21.000Z</time>
      </trkpt>
      <trkpt lat="43.41164" lon="6.60873">
        <ele>297.60000610352</ele>
        <time>2018-02-03T09:43:22.000Z</time>
      </trkpt>
      <trkpt lat="43.41171" lon="6.60889">
        <ele>298.79998779297</ele>
        <time>2018-02-03T09:43:29.000Z</time>
      </trkpt>
      <trkpt lat="43.41172" lon="6.60892">
        <ele>298.79998779297</ele>
        <time>2018-02-03T09:43:30.000Z</time>
      </trkpt>
      <trkpt lat="43.41179" lon="6.60906">
        <ele>299.60000610352</ele>
        <time>2018-02-03T09:43:36.000Z</time>
      </trkpt>
      <trkpt lat="43.41181" lon="6.60911">
        <ele>299.79998779297</ele>
        <time>2018-02-03T09:43:38.000Z</time>
      </trkpt>
      <trkpt lat="43.41186" lon="6.60919">
        <ele>300.39999389648</ele>
        <time>2018-02-03T09:43:42.000Z</time>
      </trkpt>
      <trkpt lat="43.41192" lon="6.60927">
        <ele>301</ele>
        <time>2018-02-03T09:43:46.000Z</time>
      </trkpt>
      <trkpt lat="43.41195" lon="6.60931">
        <ele>301</ele>
        <time>2018-02-03T09:43:48.000Z</time>
      </trkpt>
      <trkpt lat="43.41203" lon="6.60944">
        <ele>301.79998779297</ele>
        <time>2018-02-03T09:43:54.000Z</time>
      </trkpt>
      <trkpt lat="43.41204" lon="6.60946">
        <ele>302</ele>
        <time>2018-02-03T09:43:55.000Z</time>
      </trkpt>
      <trkpt lat="43.41211" lon="6.60962">
        <ele>303.20001220703</ele>
        <time>2018-02-03T09:44:01.000Z</time>
      </trkpt>
      <trkpt lat="43.41216" lon="6.60975">
        <ele>303.60000610352</ele>
        <time>2018-02-03T09:44:06.000Z</time>
      </trkpt>
      <trkpt lat="43.41221" lon="6.60988">
        <ele>304.20001220703</ele>
        <time>2018-02-03T09:44:11.000Z</time>
      </trkpt>
      <trkpt lat="43.41223" lon="6.60991">
        <ele>304.20001220703</ele>
        <time>2018-02-03T09:44:12.000Z</time>
      </trkpt>
      <trkpt lat="43.41229" lon="6.61004">
        <ele>305</ele>
        <time>2018-02-03T09:44:17.000Z</time>
      </trkpt>
      <trkpt lat="43.41231" lon="6.6101">
        <ele>305.20001220703</ele>
        <time>2018-02-03T09:44:19.000Z</time>
      </trkpt>
      <trkpt lat="43.41239" lon="6.61025">
        <ele>306.20001220703</ele>
        <time>2018-02-03T09:44:25.000Z</time>
      </trkpt>
      <trkpt lat="43.41241" lon="6.61028">
        <ele>306.20001220703</ele>
        <time>2018-02-03T09:44:26.000Z</time>
      </trkpt>
      <trkpt lat="43.41249" lon="6.61045">
        <ele>307.20001220703</ele>
        <time>2018-02-03T09:44:33.000Z</time>
      </trkpt>
      <trkpt lat="43.4125" lon="6.61047">
        <ele>307.39999389648</ele>
        <time>2018-02-03T09:44:34.000Z</time>
      </trkpt>
      <trkpt lat="43.41259" lon="6.61065">
        <ele>308.39999389648</ele>
        <time>2018-02-03T09:44:41.000Z</time>
      </trkpt>
      <trkpt lat="43.41261" lon="6.61084">
        <ele>309</ele>
        <time>2018-02-03T09:44:47.000Z</time>
      </trkpt>
      <trkpt lat="43.41253" lon="6.61089">
        <ele>309.60000610352</ele>
        <time>2018-02-03T09:44:51.000Z</time>
      </trkpt>
      <trkpt lat="43.41243" lon="6.61085">
        <ele>310.60000610352</ele>
        <time>2018-02-03T09:44:56.000Z</time>
      </trkpt>
      <trkpt lat="43.41241" lon="6.61083">
        <ele>310.79998779297</ele>
        <time>2018-02-03T09:44:57.000Z</time>
      </trkpt>
      <trkpt lat="43.41232" lon="6.61077">
        <ele>311.79998779297</ele>
        <time>2018-02-03T09:45:02.000Z</time>
      </trkpt>
      <trkpt lat="43.41226" lon="6.61073">
        <ele>312.39999389648</ele>
        <time>2018-02-03T09:45:05.000Z</time>
      </trkpt>
      <trkpt lat="43.41216" lon="6.61071">
        <ele>312.79998779297</ele>
        <time>2018-02-03T09:45:10.000Z</time>
      </trkpt>
      <trkpt lat="43.41212" lon="6.61071">
        <ele>313.79998779297</ele>
        <time>2018-02-03T09:45:12.000Z</time>
      </trkpt>
      <trkpt lat="43.41206" lon="6.61071">
        <ele>315</ele>
        <time>2018-02-03T09:45:15.000Z</time>
      </trkpt>
      <trkpt lat="43.412" lon="6.6107">
        <ele>315</ele>
        <time>2018-02-03T09:45:18.000Z</time>
      </trkpt>
      <trkpt lat="43.41185" lon="6.61071">
        <ele>315.79998779297</ele>
        <time>2018-02-03T09:45:24.000Z</time>
      </trkpt>
      <trkpt lat="43.41183" lon="6.61071">
        <ele>316</ele>
        <time>2018-02-03T09:45:25.000Z</time>
      </trkpt>
      <trkpt lat="43.41167" lon="6.61068">
        <ele>317.20001220703</ele>
        <time>2018-02-03T09:45:31.000Z</time>
      </trkpt>
      <trkpt lat="43.41163" lon="6.61067">
        <ele>317.79998779297</ele>
        <time>2018-02-03T09:45:33.000Z</time>
      </trkpt>
      <trkpt lat="43.41158" lon="6.61066">
        <ele>318.20001220703</ele>
        <time>2018-02-03T09:45:35.000Z</time>
      </trkpt>
      <trkpt lat="43.41148" lon="6.61062">
        <ele>318.60000610352</ele>
        <time>2018-02-03T09:45:39.000Z</time>
      </trkpt>
      <trkpt lat="43.41136" lon="6.61059">
        <ele>319.39999389648</ele>
        <time>2018-02-03T09:45:44.000Z</time>
      </trkpt>
      <trkpt lat="43.41131" lon="6.61058">
        <ele>319.60000610352</ele>
        <time>2018-02-03T09:45:46.000Z</time>
      </trkpt>
      <trkpt lat="43.41119" lon="6.61054">
        <ele>320</ele>
        <time>2018-02-03T09:45:51.000Z</time>
      </trkpt>
      <trkpt lat="43.41115" lon="6.61051">
        <ele>320.39999389648</ele>
        <time>2018-02-03T09:45:53.000Z</time>
      </trkpt>
      <trkpt lat="43.41101" lon="6.61041">
        <ele>321.39999389648</ele>
        <time>2018-02-03T09:45:59.000Z</time>
      </trkpt>
      <trkpt lat="43.41097" lon="6.61038">
        <ele>321.39999389648</ele>
        <time>2018-02-03T09:46:01.000Z</time>
      </trkpt>
      <trkpt lat="43.41084" lon="6.61021">
        <ele>322</ele>
        <time>2018-02-03T09:46:08.000Z</time>
      </trkpt>
      <trkpt lat="43.41074" lon="6.60995">
        <ele>322.39999389648</ele>
        <time>2018-02-03T09:46:16.000Z</time>
      </trkpt>
      <trkpt lat="43.41067" lon="6.6097">
        <ele>321.79998779297</ele>
        <time>2018-02-03T09:46:23.000Z</time>
      </trkpt>
      <trkpt lat="43.41064" lon="6.6094">
        <ele>321.60000610352</ele>
        <time>2018-02-03T09:46:31.000Z</time>
      </trkpt>
      <trkpt lat="43.41059" lon="6.60907">
        <ele>322.39999389648</ele>
        <time>2018-02-03T09:46:40.000Z</time>
      </trkpt>
      <trkpt lat="43.41059" lon="6.60903">
        <ele>322.60000610352</ele>
        <time>2018-02-03T09:46:41.000Z</time>
      </trkpt>
      <trkpt lat="43.41052" lon="6.60878">
        <ele>323.79998779297</ele>
        <time>2018-02-03T09:46:48.000Z</time>
      </trkpt>
      <trkpt lat="43.4104" lon="6.60852">
        <ele>325</ele>
        <time>2018-02-03T09:46:56.000Z</time>
      </trkpt>
      <trkpt lat="43.41024" lon="6.60823">
        <ele>325.79998779297</ele>
        <time>2018-02-03T09:47:05.000Z</time>
      </trkpt>
      <trkpt lat="43.41013" lon="6.60809">
        <ele>326</ele>
        <time>2018-02-03T09:47:10.000Z</time>
      </trkpt>
      <trkpt lat="43.41008" lon="6.60805">
        <ele>326.39999389648</ele>
        <time>2018-02-03T09:47:12.000Z</time>
      </trkpt>
      <trkpt lat="43.41" lon="6.608">
        <ele>327.20001220703</ele>
        <time>2018-02-03T09:47:15.000Z</time>
      </trkpt>
      <trkpt lat="43.40992" lon="6.60797">
        <ele>328</ele>
        <time>2018-02-03T09:47:18.000Z</time>
      </trkpt>
      <trkpt lat="43.40979" lon="6.6079">
        <ele>328.39999389648</ele>
        <time>2018-02-03T09:47:23.000Z</time>
      </trkpt>
      <trkpt lat="43.40968" lon="6.60783">
        <ele>329.20001220703</ele>
        <time>2018-02-03T09:47:27.000Z</time>
      </trkpt>
      <trkpt lat="43.4096" lon="6.60775">
        <ele>329.39999389648</ele>
        <time>2018-02-03T09:47:30.000Z</time>
      </trkpt>
      <trkpt lat="43.40948" lon="6.60762">
        <ele>330</ele>
        <time>2018-02-03T09:47:35.000Z</time>
      </trkpt>
      <trkpt lat="43.40935" lon="6.6076">
        <ele>330.39999389648</ele>
        <time>2018-02-03T09:47:39.000Z</time>
      </trkpt>
      <trkpt lat="43.40915" lon="6.60771">
        <ele>330.39999389648</ele>
        <time>2018-02-03T09:47:45.000Z</time>
      </trkpt>
      <trkpt lat="43.40896" lon="6.60782">
        <ele>329.79998779297</ele>
        <time>2018-02-03T09:47:51.000Z</time>
      </trkpt>
      <trkpt lat="43.4088" lon="6.60788">
        <ele>329.39999389648</ele>
        <time>2018-02-03T09:47:56.000Z</time>
      </trkpt>
      <trkpt lat="43.40876" lon="6.60789">
        <ele>329.39999389648</ele>
        <time>2018-02-03T09:47:57.000Z</time>
      </trkpt>
      <trkpt lat="43.40856" lon="6.60789">
        <ele>329.39999389648</ele>
        <time>2018-02-03T09:48:03.000Z</time>
      </trkpt>
      <trkpt lat="43.40839" lon="6.60779">
        <ele>329.39999389648</ele>
        <time>2018-02-03T09:48:08.000Z</time>
      </trkpt>
      <trkpt lat="43.40816" lon="6.60757">
        <ele>329.39999389648</ele>
        <time>2018-02-03T09:48:15.000Z</time>
      </trkpt>
      <trkpt lat="43.40813" lon="6.60754">
        <ele>329.39999389648</ele>
        <time>2018-02-03T09:48:16.000Z</time>
      </trkpt>
      <trkpt lat="43.40797" lon="6.60746">
        <ele>329.60000610352</ele>
        <time>2018-02-03T09:48:20.000Z</time>
      </trkpt>
      <trkpt lat="43.40793" lon="6.60743">
        <ele>329.39999389648</ele>
        <time>2018-02-03T09:48:21.000Z</time>
      </trkpt>
      <trkpt lat="43.40786" lon="6.60735">
        <ele>329.39999389648</ele>
        <time>2018-02-03T09:48:23.000Z</time>
      </trkpt>
      <trkpt lat="43.40775" lon="6.6072">
        <ele>329</ele>
        <time>2018-02-03T09:48:26.000Z</time>
      </trkpt>
      <trkpt lat="43.40757" lon="6.60708">
        <ele>328.79998779297</ele>
        <time>2018-02-03T09:48:30.000Z</time>
      </trkpt>
      <trkpt lat="43.4073" lon="6.60698">
        <ele>329</ele>
        <time>2018-02-03T09:48:36.000Z</time>
      </trkpt>
      <trkpt lat="43.40726" lon="6.60697">
        <ele>329.20001220703</ele>
        <time>2018-02-03T09:48:37.000Z</time>
      </trkpt>
      <trkpt lat="43.40695" lon="6.6069">
        <ele>329.79998779297</ele>
        <time>2018-02-03T09:48:45.000Z</time>
      </trkpt>
      <trkpt lat="43.40684" lon="6.60686">
        <ele>330.79998779297</ele>
        <time>2018-02-03T09:48:48.000Z</time>
      </trkpt>
      <trkpt lat="43.40669" lon="6.60678">
        <ele>331.20001220703</ele>
        <time>2018-02-03T09:48:52.000Z</time>
      </trkpt>
      <trkpt lat="43.40656" lon="6.60666">
        <ele>332</ele>
        <time>2018-02-03T09:48:56.000Z</time>
      </trkpt>
      <trkpt lat="43.40645" lon="6.6066">
        <ele>332.60000610352</ele>
        <time>2018-02-03T09:48:59.000Z</time>
      </trkpt>
      <trkpt lat="43.40633" lon="6.60665">
        <ele>332.79998779297</ele>
        <time>2018-02-03T09:49:03.000Z</time>
      </trkpt>
      <trkpt lat="43.40634" lon="6.6067">
        <ele>333</ele>
        <time>2018-02-03T09:49:04.000Z</time>
      </trkpt>
      <trkpt lat="43.40637" lon="6.60678">
        <ele>333</ele>
        <time>2018-02-03T09:49:06.000Z</time>
      </trkpt>
      <trkpt lat="43.40646" lon="6.60689">
        <ele>333.60000610352</ele>
        <time>2018-02-03T09:49:09.000Z</time>
      </trkpt>
      <trkpt lat="43.40656" lon="6.607">
        <ele>333.79998779297</ele>
        <time>2018-02-03T09:49:12.000Z</time>
      </trkpt>
      <trkpt lat="43.40685" lon="6.60728">
        <ele>333.20001220703</ele>
        <time>2018-02-03T09:49:19.000Z</time>
      </trkpt>
      <trkpt lat="43.40711" lon="6.60753">
        <ele>332.20001220703</ele>
        <time>2018-02-03T09:49:25.000Z</time>
      </trkpt>
      <trkpt lat="43.40715" lon="6.60757">
        <ele>331.79998779297</ele>
        <time>2018-02-03T09:49:26.000Z</time>
      </trkpt>
      <trkpt lat="43.40719" lon="6.60761">
        <ele>331.60000610352</ele>
        <time>2018-02-03T09:49:27.000Z</time>
      </trkpt>
      <trkpt lat="43.40723" lon="6.60764">
        <ele>331.20001220703</ele>
        <time>2018-02-03T09:49:28.000Z</time>
      </trkpt>
      <trkpt lat="43.40731" lon="6.60784">
        <ele>331</ele>
        <time>2018-02-03T09:49:31.000Z</time>
      </trkpt>
      <trkpt lat="43.40733" lon="6.60792">
        <ele>331.20001220703</ele>
        <time>2018-02-03T09:49:32.000Z</time>
      </trkpt>
      <trkpt lat="43.40738" lon="6.60813">
        <ele>330.79998779297</ele>
        <time>2018-02-03T09:49:35.000Z</time>
      </trkpt>
      <trkpt lat="43.40743" lon="6.60847">
        <ele>330.39999389648</ele>
        <time>2018-02-03T09:49:40.000Z</time>
      </trkpt>
      <trkpt lat="43.40747" lon="6.60891">
        <ele>331.20001220703</ele>
        <time>2018-02-03T09:49:47.000Z</time>
      </trkpt>
      <trkpt lat="43.4075" lon="6.60902">
        <ele>331.60000610352</ele>
        <time>2018-02-03T09:49:49.000Z</time>
      </trkpt>
      <trkpt lat="43.40754" lon="6.60913">
        <ele>331.79998779297</ele>
        <time>2018-02-03T09:49:51.000Z</time>
      </trkpt>
      <trkpt lat="43.40756" lon="6.60917">
        <ele>332</ele>
        <time>2018-02-03T09:49:52.000Z</time>
      </trkpt>
      <trkpt lat="43.40761" lon="6.60926">
        <ele>332.60000610352</ele>
        <time>2018-02-03T09:49:54.000Z</time>
      </trkpt>
      <trkpt lat="43.40768" lon="6.60935">
        <ele>333</ele>
        <time>2018-02-03T09:49:56.000Z</time>
      </trkpt>
      <trkpt lat="43.40773" lon="6.60944">
        <ele>333.39999389648</ele>
        <time>2018-02-03T09:49:58.000Z</time>
      </trkpt>
      <trkpt lat="43.40777" lon="6.6095">
        <ele>333.60000610352</ele>
        <time>2018-02-03T09:49:59.000Z</time>
      </trkpt>
      <trkpt lat="43.4078" lon="6.60967">
        <ele>334</ele>
        <time>2018-02-03T09:50:02.000Z</time>
      </trkpt>
      <trkpt lat="43.40779" lon="6.60972">
        <ele>334</ele>
        <time>2018-02-03T09:50:03.000Z</time>
      </trkpt>
      <trkpt lat="43.40772" lon="6.60979">
        <ele>334.20001220703</ele>
        <time>2018-02-03T09:50:05.000Z</time>
      </trkpt>
      <trkpt lat="43.40752" lon="6.60974">
        <ele>335</ele>
        <time>2018-02-03T09:50:09.000Z</time>
      </trkpt>
      <trkpt lat="43.4072" lon="6.6096">
        <ele>333.79998779297</ele>
        <time>2018-02-03T09:50:16.000Z</time>
      </trkpt>
      <trkpt lat="43.4071" lon="6.60966">
        <ele>333.39999389648</ele>
        <time>2018-02-03T09:50:19.000Z</time>
      </trkpt>
      <trkpt lat="43.40711" lon="6.60977">
        <ele>333.20001220703</ele>
        <time>2018-02-03T09:50:21.000Z</time>
      </trkpt>
      <trkpt lat="43.40712" lon="6.60982">
        <ele>333.39999389648</ele>
        <time>2018-02-03T09:50:22.000Z</time>
      </trkpt>
      <trkpt lat="43.40713" lon="6.60987">
        <ele>333.79998779297</ele>
        <time>2018-02-03T09:50:23.000Z</time>
      </trkpt>
      <trkpt lat="43.40715" lon="6.61">
        <ele>334.60000610352</ele>
        <time>2018-02-03T09:50:25.000Z</time>
      </trkpt>
      <trkpt lat="43.40713" lon="6.61006">
        <ele>335</ele>
        <time>2018-02-03T09:50:26.000Z</time>
      </trkpt>
      <trkpt lat="43.40702" lon="6.61024">
        <ele>336</ele>
        <time>2018-02-03T09:50:30.000Z</time>
      </trkpt>
      <trkpt lat="43.40699" lon="6.61027">
        <ele>336.20001220703</ele>
        <time>2018-02-03T09:50:31.000Z</time>
      </trkpt>
      <trkpt lat="43.40694" lon="6.61042">
        <ele>336.60000610352</ele>
        <time>2018-02-03T09:50:34.000Z</time>
      </trkpt>
      <trkpt lat="43.40692" lon="6.61058">
        <ele>336.79998779297</ele>
        <time>2018-02-03T09:50:37.000Z</time>
      </trkpt>
      <trkpt lat="43.40691" lon="6.61074">
        <ele>337.39999389648</ele>
        <time>2018-02-03T09:50:40.000Z</time>
      </trkpt>
      <trkpt lat="43.40691" lon="6.61085">
        <ele>337.79998779297</ele>
        <time>2018-02-03T09:50:42.000Z</time>
      </trkpt>
      <trkpt lat="43.40695" lon="6.61103">
        <ele>338.39999389648</ele>
        <time>2018-02-03T09:50:46.000Z</time>
      </trkpt>
      <trkpt lat="43.40697" lon="6.61108">
        <ele>338.60000610352</ele>
        <time>2018-02-03T09:50:47.000Z</time>
      </trkpt>
      <trkpt lat="43.40706" lon="6.6113">
        <ele>339.60000610352</ele>
        <time>2018-02-03T09:50:52.000Z</time>
      </trkpt>
      <trkpt lat="43.40709" lon="6.61141">
        <ele>340</ele>
        <time>2018-02-03T09:50:54.000Z</time>
      </trkpt>
      <trkpt lat="43.40712" lon="6.61161">
        <ele>340.79998779297</ele>
        <time>2018-02-03T09:50:58.000Z</time>
      </trkpt>
      <trkpt lat="43.40714" lon="6.61166">
        <ele>340.79998779297</ele>
        <time>2018-02-03T09:50:59.000Z</time>
      </trkpt>
      <trkpt lat="43.40718" lon="6.61181">
        <ele>342</ele>
        <time>2018-02-03T09:51:02.000Z</time>
      </trkpt>
      <trkpt lat="43.40719" lon="6.61192">
        <ele>342.39999389648</ele>
        <time>2018-02-03T09:51:04.000Z</time>
      </trkpt>
      <trkpt lat="43.40717" lon="6.61208">
        <ele>342.79998779297</ele>
        <time>2018-02-03T09:51:07.000Z</time>
      </trkpt>
      <trkpt lat="43.40716" lon="6.61213">
        <ele>343</ele>
        <time>2018-02-03T09:51:08.000Z</time>
      </trkpt>
      <trkpt lat="43.40714" lon="6.61218">
        <ele>343.20001220703</ele>
        <time>2018-02-03T09:51:09.000Z</time>
      </trkpt>
      <trkpt lat="43.407" lon="6.61236">
        <ele>344</ele>
        <time>2018-02-03T09:51:14.000Z</time>
      </trkpt>
      <trkpt lat="43.40693" lon="6.6124">
        <ele>344</ele>
        <time>2018-02-03T09:51:16.000Z</time>
      </trkpt>
      <trkpt lat="43.40682" lon="6.61244">
        <ele>344.60000610352</ele>
        <time>2018-02-03T09:51:19.000Z</time>
      </trkpt>
      <trkpt lat="43.40675" lon="6.61243">
        <ele>345.20001220703</ele>
        <time>2018-02-03T09:51:21.000Z</time>
      </trkpt>
      <trkpt lat="43.40664" lon="6.61241">
        <ele>346</ele>
        <time>2018-02-03T09:51:24.000Z</time>
      </trkpt>
      <trkpt lat="43.40657" lon="6.6124">
        <ele>346.20001220703</ele>
        <time>2018-02-03T09:51:26.000Z</time>
      </trkpt>
      <trkpt lat="43.40642" lon="6.61241">
        <ele>346.79998779297</ele>
        <time>2018-02-03T09:51:30.000Z</time>
      </trkpt>
      <trkpt lat="43.40632" lon="6.61242">
        <ele>347.39999389648</ele>
        <time>2018-02-03T09:51:33.000Z</time>
      </trkpt>
      <trkpt lat="43.40623" lon="6.61247">
        <ele>348</ele>
        <time>2018-02-03T09:51:36.000Z</time>
      </trkpt>
      <trkpt lat="43.40613" lon="6.61255">
        <ele>348.39999389648</ele>
        <time>2018-02-03T09:51:39.000Z</time>
      </trkpt>
      <trkpt lat="43.40607" lon="6.6126">
        <ele>348.60000610352</ele>
        <time>2018-02-03T09:51:41.000Z</time>
      </trkpt>
      <trkpt lat="43.40585" lon="6.61267">
        <ele>349.20001220703</ele>
        <time>2018-02-03T09:51:47.000Z</time>
      </trkpt>
      <trkpt lat="43.40577" lon="6.61266">
        <ele>349.60000610352</ele>
        <time>2018-02-03T09:51:49.000Z</time>
      </trkpt>
      <trkpt lat="43.40558" lon="6.61259">
        <ele>349.60000610352</ele>
        <time>2018-02-03T09:51:54.000Z</time>
      </trkpt>
      <trkpt lat="43.40534" lon="6.61243">
        <ele>350.60000610352</ele>
        <time>2018-02-03T09:52:01.000Z</time>
      </trkpt>
      <trkpt lat="43.40531" lon="6.61239">
        <ele>350.79998779297</ele>
        <time>2018-02-03T09:52:02.000Z</time>
      </trkpt>
      <trkpt lat="43.40519" lon="6.6122">
        <ele>351.60000610352</ele>
        <time>2018-02-03T09:52:07.000Z</time>
      </trkpt>
      <trkpt lat="43.40515" lon="6.61219">
        <ele>351.79998779297</ele>
        <time>2018-02-03T09:52:08.000Z</time>
      </trkpt>
      <trkpt lat="43.40505" lon="6.61217">
        <ele>352.20001220703</ele>
        <time>2018-02-03T09:52:11.000Z</time>
      </trkpt>
      <trkpt lat="43.40495" lon="6.61216">
        <ele>352.79998779297</ele>
        <time>2018-02-03T09:52:14.000Z</time>
      </trkpt>
      <trkpt lat="43.4049" lon="6.61214">
        <ele>353.39999389648</ele>
        <time>2018-02-03T09:52:16.000Z</time>
      </trkpt>
      <trkpt lat="43.40487" lon="6.61212">
        <ele>353.60000610352</ele>
        <time>2018-02-03T09:52:17.000Z</time>
      </trkpt>
      <trkpt lat="43.40482" lon="6.61208">
        <ele>354</ele>
        <time>2018-02-03T09:52:19.000Z</time>
      </trkpt>
      <trkpt lat="43.4047" lon="6.61198">
        <ele>354</ele>
        <time>2018-02-03T09:52:24.000Z</time>
      </trkpt>
      <trkpt lat="43.40455" lon="6.6119">
        <ele>354.79998779297</ele>
        <time>2018-02-03T09:52:30.000Z</time>
      </trkpt>
      <trkpt lat="43.40454" lon="6.61191">
        <ele>354.79998779297</ele>
        <time>2018-02-03T09:52:31.000Z</time>
      </trkpt>
      <trkpt lat="43.40452" lon="6.61202">
        <ele>354.79998779297</ele>
        <time>2018-02-03T09:52:35.000Z</time>
      </trkpt>
      <trkpt lat="43.40453" lon="6.61208">
        <ele>355</ele>
        <time>2018-02-03T09:52:37.000Z</time>
      </trkpt>
      <trkpt lat="43.40453" lon="6.61211">
        <ele>355</ele>
        <time>2018-02-03T09:52:38.000Z</time>
      </trkpt>
      <trkpt lat="43.40454" lon="6.61223">
        <ele>355</ele>
        <time>2018-02-03T09:52:41.000Z</time>
      </trkpt>
      <trkpt lat="43.40457" lon="6.61246">
        <ele>355.39999389648</ele>
        <time>2018-02-03T09:52:47.000Z</time>
      </trkpt>
      <trkpt lat="43.40458" lon="6.61269">
        <ele>355.79998779297</ele>
        <time>2018-02-03T09:52:53.000Z</time>
      </trkpt>
      <trkpt lat="43.40456" lon="6.61283">
        <ele>356.20001220703</ele>
        <time>2018-02-03T09:52:58.000Z</time>
      </trkpt>
      <trkpt lat="43.40453" lon="6.61294">
        <ele>356.20001220703</ele>
        <time>2018-02-03T09:53:01.000Z</time>
      </trkpt>
      <trkpt lat="43.40446" lon="6.61306">
        <ele>356.60000610352</ele>
        <time>2018-02-03T09:53:06.000Z</time>
      </trkpt>
      <trkpt lat="43.40443" lon="6.6132">
        <ele>356.79998779297</ele>
        <time>2018-02-03T09:53:10.000Z</time>
      </trkpt>
      <trkpt lat="43.40444" lon="6.61326">
        <ele>357</ele>
        <time>2018-02-03T09:53:12.000Z</time>
      </trkpt>
      <trkpt lat="43.40446" lon="6.61331">
        <ele>357.39999389648</ele>
        <time>2018-02-03T09:53:14.000Z</time>
      </trkpt>
      <trkpt lat="43.40447" lon="6.61334">
        <ele>357.60000610352</ele>
        <time>2018-02-03T09:53:15.000Z</time>
      </trkpt>
      <trkpt lat="43.4045" lon="6.61339">
        <ele>358</ele>
        <time>2018-02-03T09:53:17.000Z</time>
      </trkpt>
      <trkpt lat="43.40457" lon="6.61349">
        <ele>358.39999389648</ele>
        <time>2018-02-03T09:53:21.000Z</time>
      </trkpt>
      <trkpt lat="43.40459" lon="6.61351">
        <ele>358.39999389648</ele>
        <time>2018-02-03T09:53:22.000Z</time>
      </trkpt>
      <trkpt lat="43.40475" lon="6.61369">
        <ele>359.20001220703</ele>
        <time>2018-02-03T09:53:30.000Z</time>
      </trkpt>
      <trkpt lat="43.40479" lon="6.61374">
        <ele>359.60000610352</ele>
        <time>2018-02-03T09:53:32.000Z</time>
      </trkpt>
      <trkpt lat="43.40489" lon="6.61387">
        <ele>360</ele>
        <time>2018-02-03T09:53:37.000Z</time>
      </trkpt>
      <trkpt lat="43.40501" lon="6.61406">
        <ele>360.79998779297</ele>
        <time>2018-02-03T09:53:44.000Z</time>
      </trkpt>
      <trkpt lat="43.40516" lon="6.61434">
        <ele>361.79998779297</ele>
        <time>2018-02-03T09:53:53.000Z</time>
      </trkpt>
      <trkpt lat="43.40527" lon="6.61461">
        <ele>361.79998779297</ele>
        <time>2018-02-03T09:54:00.000Z</time>
      </trkpt>
      <trkpt lat="43.40529" lon="6.61464">
        <ele>362</ele>
        <time>2018-02-03T09:54:01.000Z</time>
      </trkpt>
      <trkpt lat="43.40541" lon="6.61478">
        <ele>362.60000610352</ele>
        <time>2018-02-03T09:54:07.000Z</time>
      </trkpt>
      <trkpt lat="43.40548" lon="6.61484">
        <ele>363</ele>
        <time>2018-02-03T09:54:10.000Z</time>
      </trkpt>
      <trkpt lat="43.40557" lon="6.61493">
        <ele>363.60000610352</ele>
        <time>2018-02-03T09:54:14.000Z</time>
      </trkpt>
      <trkpt lat="43.40561" lon="6.61499">
        <ele>364</ele>
        <time>2018-02-03T09:54:16.000Z</time>
      </trkpt>
      <trkpt lat="43.40569" lon="6.61508">
        <ele>365</ele>
        <time>2018-02-03T09:54:20.000Z</time>
      </trkpt>
      <trkpt lat="43.40572" lon="6.61511">
        <ele>365.20001220703</ele>
        <time>2018-02-03T09:54:21.000Z</time>
      </trkpt>
      <trkpt lat="43.4059" lon="6.61521">
        <ele>365.60000610352</ele>
        <time>2018-02-03T09:54:28.000Z</time>
      </trkpt>
      <trkpt lat="43.40611" lon="6.61526">
        <ele>366.20001220703</ele>
        <time>2018-02-03T09:54:35.000Z</time>
      </trkpt>
      <trkpt lat="43.40636" lon="6.61533">
        <ele>367.20001220703</ele>
        <time>2018-02-03T09:54:43.000Z</time>
      </trkpt>
      <trkpt lat="43.40639" lon="6.61533">
        <ele>367.20001220703</ele>
        <time>2018-02-03T09:54:44.000Z</time>
      </trkpt>
      <trkpt lat="43.40661" lon="6.61539">
        <ele>368.39999389648</ele>
        <time>2018-02-03T09:54:51.000Z</time>
      </trkpt>
      <trkpt lat="43.40682" lon="6.61546">
        <ele>369</ele>
        <time>2018-02-03T09:54:58.000Z</time>
      </trkpt>
      <trkpt lat="43.40688" lon="6.61548">
        <ele>369.39999389648</ele>
        <time>2018-02-03T09:55:00.000Z</time>
      </trkpt>
      <trkpt lat="43.40701" lon="6.61553">
        <ele>370.60000610352</ele>
        <time>2018-02-03T09:55:05.000Z</time>
      </trkpt>
      <trkpt lat="43.40706" lon="6.61555">
        <ele>371</ele>
        <time>2018-02-03T09:55:07.000Z</time>
      </trkpt>
      <trkpt lat="43.40714" lon="6.61558">
        <ele>371.79998779297</ele>
        <time>2018-02-03T09:55:10.000Z</time>
      </trkpt>
      <trkpt lat="43.40722" lon="6.61561">
        <ele>372.20001220703</ele>
        <time>2018-02-03T09:55:13.000Z</time>
      </trkpt>
      <trkpt lat="43.40733" lon="6.61569">
        <ele>373</ele>
        <time>2018-02-03T09:55:18.000Z</time>
      </trkpt>
      <trkpt lat="43.40738" lon="6.61573">
        <ele>373.39999389648</ele>
        <time>2018-02-03T09:55:20.000Z</time>
      </trkpt>
      <trkpt lat="43.40748" lon="6.61583">
        <ele>374</ele>
        <time>2018-02-03T09:55:25.000Z</time>
      </trkpt>
      <trkpt lat="43.40753" lon="6.61587">
        <ele>374.20001220703</ele>
        <time>2018-02-03T09:55:27.000Z</time>
      </trkpt>
      <trkpt lat="43.40771" lon="6.61604">
        <ele>375.20001220703</ele>
        <time>2018-02-03T09:55:35.000Z</time>
      </trkpt>
      <trkpt lat="43.40776" lon="6.61608">
        <ele>375.39999389648</ele>
        <time>2018-02-03T09:55:37.000Z</time>
      </trkpt>
      <trkpt lat="43.40788" lon="6.61624">
        <ele>376.20001220703</ele>
        <time>2018-02-03T09:55:43.000Z</time>
      </trkpt>
      <trkpt lat="43.40792" lon="6.6163">
        <ele>376.60000610352</ele>
        <time>2018-02-03T09:55:45.000Z</time>
      </trkpt>
      <trkpt lat="43.40791" lon="6.61646">
        <ele>377.20001220703</ele>
        <time>2018-02-03T09:55:49.000Z</time>
      </trkpt>
      <trkpt lat="43.40783" lon="6.61657">
        <ele>378.39999389648</ele>
        <time>2018-02-03T09:55:54.000Z</time>
      </trkpt>
      <trkpt lat="43.40772" lon="6.61663">
        <ele>378.79998779297</ele>
        <time>2018-02-03T09:55:59.000Z</time>
      </trkpt>
      <trkpt lat="43.40758" lon="6.6167">
        <ele>379.20001220703</ele>
        <time>2018-02-03T09:56:05.000Z</time>
      </trkpt>
      <trkpt lat="43.40754" lon="6.61673">
        <ele>379.39999389648</ele>
        <time>2018-02-03T09:56:07.000Z</time>
      </trkpt>
      <trkpt lat="43.4074" lon="6.61681">
        <ele>380.20001220703</ele>
        <time>2018-02-03T09:56:13.000Z</time>
      </trkpt>
      <trkpt lat="43.40735" lon="6.61684">
        <ele>380.60000610352</ele>
        <time>2018-02-03T09:56:15.000Z</time>
      </trkpt>
      <trkpt lat="43.40726" lon="6.6169">
        <ele>381.60000610352</ele>
        <time>2018-02-03T09:56:19.000Z</time>
      </trkpt>
      <trkpt lat="43.40721" lon="6.61692">
        <ele>381.79998779297</ele>
        <time>2018-02-03T09:56:21.000Z</time>
      </trkpt>
      <trkpt lat="43.40711" lon="6.61698">
        <ele>383</ele>
        <time>2018-02-03T09:56:26.000Z</time>
      </trkpt>
      <trkpt lat="43.40708" lon="6.617">
        <ele>383.20001220703</ele>
        <time>2018-02-03T09:56:27.000Z</time>
      </trkpt>
      <trkpt lat="43.4069" lon="6.61715">
        <ele>383.39999389648</ele>
        <time>2018-02-03T09:56:35.000Z</time>
      </trkpt>
      <trkpt lat="43.4068" lon="6.61722">
        <ele>384</ele>
        <time>2018-02-03T09:56:39.000Z</time>
      </trkpt>
      <trkpt lat="43.40672" lon="6.61723">
        <ele>384.60000610352</ele>
        <time>2018-02-03T09:56:42.000Z</time>
      </trkpt>
      <trkpt lat="43.40664" lon="6.61724">
        <ele>385</ele>
        <time>2018-02-03T09:56:45.000Z</time>
      </trkpt>
      <trkpt lat="43.40659" lon="6.61725">
        <ele>385.20001220703</ele>
        <time>2018-02-03T09:56:47.000Z</time>
      </trkpt>
      <trkpt lat="43.40646" lon="6.61731">
        <ele>386.20001220703</ele>
        <time>2018-02-03T09:56:53.000Z</time>
      </trkpt>
      <trkpt lat="43.40629" lon="6.61745">
        <ele>387</ele>
        <time>2018-02-03T09:57:00.000Z</time>
      </trkpt>
      <trkpt lat="43.40627" lon="6.61747">
        <ele>387.20001220703</ele>
        <time>2018-02-03T09:57:01.000Z</time>
      </trkpt>
      <trkpt lat="43.40615" lon="6.61758">
        <ele>388</ele>
        <time>2018-02-03T09:57:06.000Z</time>
      </trkpt>
      <trkpt lat="43.40609" lon="6.61764">
        <ele>388.39999389648</ele>
        <time>2018-02-03T09:57:09.000Z</time>
      </trkpt>
      <trkpt lat="43.40601" lon="6.61775">
        <ele>388.79998779297</ele>
        <time>2018-02-03T09:57:13.000Z</time>
      </trkpt>
      <trkpt lat="43.40592" lon="6.6179">
        <ele>389.39999389648</ele>
        <time>2018-02-03T09:57:18.000Z</time>
      </trkpt>
      <trkpt lat="43.40588" lon="6.61795">
        <ele>389.60000610352</ele>
        <time>2018-02-03T09:57:20.000Z</time>
      </trkpt>
      <trkpt lat="43.40576" lon="6.61817">
        <ele>390.39999389648</ele>
        <time>2018-02-03T09:57:27.000Z</time>
      </trkpt>
      <trkpt lat="43.40572" lon="6.61823">
        <ele>390.79998779297</ele>
        <time>2018-02-03T09:57:29.000Z</time>
      </trkpt>
      <trkpt lat="43.40561" lon="6.61844">
        <ele>391.60000610352</ele>
        <time>2018-02-03T09:57:35.000Z</time>
      </trkpt>
      <trkpt lat="43.40558" lon="6.61851">
        <ele>392</ele>
        <time>2018-02-03T09:57:37.000Z</time>
      </trkpt>
      <trkpt lat="43.40549" lon="6.61869">
        <ele>392.60000610352</ele>
        <time>2018-02-03T09:57:42.000Z</time>
      </trkpt>
      <trkpt lat="43.40544" lon="6.61879">
        <ele>392.79998779297</ele>
        <time>2018-02-03T09:57:45.000Z</time>
      </trkpt>
      <trkpt lat="43.40529" lon="6.61901">
        <ele>393.39999389648</ele>
        <time>2018-02-03T09:57:52.000Z</time>
      </trkpt>
      <trkpt lat="43.40514" lon="6.61913">
        <ele>393.39999389648</ele>
        <time>2018-02-03T09:57:56.000Z</time>
      </trkpt>
      <trkpt lat="43.40509" lon="6.61915">
        <ele>393.20001220703</ele>
        <time>2018-02-03T09:57:57.000Z</time>
      </trkpt>
      <trkpt lat="43.40498" lon="6.61918">
        <ele>393.20001220703</ele>
        <time>2018-02-03T09:58:00.000Z</time>
      </trkpt>
      <trkpt lat="43.40495" lon="6.6192">
        <ele>393.20001220703</ele>
        <time>2018-02-03T09:58:01.000Z</time>
      </trkpt>
      <trkpt lat="43.40472" lon="6.61931">
        <ele>393</ele>
        <time>2018-02-03T09:58:07.000Z</time>
      </trkpt>
      <trkpt lat="43.40462" lon="6.61947">
        <ele>393.20001220703</ele>
        <time>2018-02-03T09:58:11.000Z</time>
      </trkpt>
      <trkpt lat="43.40461" lon="6.61953">
        <ele>393.20001220703</ele>
        <time>2018-02-03T09:58:12.000Z</time>
      </trkpt>
      <trkpt lat="43.40459" lon="6.61976">
        <ele>393</ele>
        <time>2018-02-03T09:58:16.000Z</time>
      </trkpt>
      <trkpt lat="43.40459" lon="6.62005">
        <ele>393.60000610352</ele>
        <time>2018-02-03T09:58:22.000Z</time>
      </trkpt>
      <trkpt lat="43.40457" lon="6.62036">
        <ele>394.79998779297</ele>
        <time>2018-02-03T09:58:29.000Z</time>
      </trkpt>
      <trkpt lat="43.4045" lon="6.62065">
        <ele>395.79998779297</ele>
        <time>2018-02-03T09:58:36.000Z</time>
      </trkpt>
      <trkpt lat="43.4044" lon="6.62087">
        <ele>397</ele>
        <time>2018-02-03T09:58:42.000Z</time>
      </trkpt>
      <trkpt lat="43.40438" lon="6.6209">
        <ele>397</ele>
        <time>2018-02-03T09:58:43.000Z</time>
      </trkpt>
      <trkpt lat="43.40433" lon="6.62101">
        <ele>397.39999389648</ele>
        <time>2018-02-03T09:58:47.000Z</time>
      </trkpt>
      <trkpt lat="43.40426" lon="6.62112">
        <ele>398.20001220703</ele>
        <time>2018-02-03T09:58:51.000Z</time>
      </trkpt>
      <trkpt lat="43.40423" lon="6.62116">
        <ele>398.79998779297</ele>
        <time>2018-02-03T09:58:54.000Z</time>
      </trkpt>
      <trkpt lat="43.4042" lon="6.62121">
        <ele>399.20001220703</ele>
        <time>2018-02-03T09:58:56.000Z</time>
      </trkpt>
      <trkpt lat="43.40417" lon="6.62127">
        <ele>399.60000610352</ele>
        <time>2018-02-03T09:58:58.000Z</time>
      </trkpt>
      <trkpt lat="43.4041" lon="6.62138">
        <ele>400.39999389648</ele>
        <time>2018-02-03T09:59:02.000Z</time>
      </trkpt>
      <trkpt lat="43.40408" lon="6.62142">
        <ele>400.60000610352</ele>
        <time>2018-02-03T09:59:04.000Z</time>
      </trkpt>
      <trkpt lat="43.40401" lon="6.62156">
        <ele>401.20001220703</ele>
        <time>2018-02-03T09:59:09.000Z</time>
      </trkpt>
      <trkpt lat="43.40391" lon="6.62177">
        <ele>401</ele>
        <time>2018-02-03T09:59:16.000Z</time>
      </trkpt>
      <trkpt lat="43.40389" lon="6.62184">
        <ele>401.39999389648</ele>
        <time>2018-02-03T09:59:18.000Z</time>
      </trkpt>
      <trkpt lat="43.40385" lon="6.6219">
        <ele>401.39999389648</ele>
        <time>2018-02-03T09:59:22.000Z</time>
      </trkpt>
      <trkpt lat="43.40385" lon="6.62192">
        <ele>401.20001220703</ele>
        <time>2018-02-03T09:59:26.000Z</time>
      </trkpt>
      <trkpt lat="43.40384" lon="6.62193">
        <ele>402</ele>
        <time>2018-02-03T09:59:33.000Z</time>
      </trkpt>
      <trkpt lat="43.40384" lon="6.62194">
        <ele>402</ele>
        <time>2018-02-03T09:59:41.000Z</time>
      </trkpt>
      <trkpt lat="43.40385" lon="6.62192">
        <ele>402.39999389648</ele>
        <time>2018-02-03T09:59:50.000Z</time>
      </trkpt>
      <trkpt lat="43.40385" lon="6.62192">
        <ele>402.60000610352</ele>
        <time>2018-02-03T09:59:53.000Z</time>
      </trkpt>
      <trkpt lat="43.40385" lon="6.62193">
        <ele>402.60000610352</ele>
        <time>2018-02-03T10:00:01.000Z</time>
      </trkpt>
      <trkpt lat="43.40384" lon="6.62194">
        <ele>401.60000610352</ele>
        <time>2018-02-03T10:00:11.000Z</time>
      </trkpt>
      <trkpt lat="43.40383" lon="6.62194">
        <ele>402</ele>
        <time>2018-02-03T10:00:20.000Z</time>
      </trkpt>
      <trkpt lat="43.40383" lon="6.62193">
        <ele>402</ele>
        <time>2018-02-03T10:00:29.000Z</time>
      </trkpt>
      <trkpt lat="43.40382" lon="6.62192">
        <ele>401.79998779297</ele>
        <time>2018-02-03T10:00:43.000Z</time>
      </trkpt>
      <trkpt lat="43.40382" lon="6.6219">
        <ele>401.39999389648</ele>
        <time>2018-02-03T10:00:51.000Z</time>
      </trkpt>
      <trkpt lat="43.40382" lon="6.6219">
        <ele>401.39999389648</ele>
        <time>2018-02-03T10:00:52.000Z</time>
      </trkpt>
      <trkpt lat="43.40381" lon="6.62189">
        <ele>402.20001220703</ele>
        <time>2018-02-03T10:01:11.000Z</time>
      </trkpt>
      <trkpt lat="43.40381" lon="6.62188">
        <ele>401.79998779297</ele>
        <time>2018-02-03T10:01:21.000Z</time>
      </trkpt>
      <trkpt lat="43.40381" lon="6.62189">
        <ele>402.39999389648</ele>
        <time>2018-02-03T10:01:24.000Z</time>
      </trkpt>
      <trkpt lat="43.40382" lon="6.6219">
        <ele>402.20001220703</ele>
        <time>2018-02-03T10:01:40.000Z</time>
      </trkpt>
      <trkpt lat="43.40382" lon="6.62191">
        <ele>402.20001220703</ele>
        <time>2018-02-03T10:01:53.000Z</time>
      </trkpt>
      <trkpt lat="43.40382" lon="6.62192">
        <ele>402.20001220703</ele>
        <time>2018-02-03T10:02:00.000Z</time>
      </trkpt>
      <trkpt lat="43.40382" lon="6.62193">
        <ele>402.20001220703</ele>
        <time>2018-02-03T10:02:10.000Z</time>
      </trkpt>
      <trkpt lat="43.40382" lon="6.62194">
        <ele>402.20001220703</ele>
        <time>2018-02-03T10:02:19.000Z</time>
      </trkpt>
      <trkpt lat="43.40382" lon="6.62195">
        <ele>402.20001220703</ele>
        <time>2018-02-03T10:02:23.000Z</time>
      </trkpt>
      <trkpt lat="43.40382" lon="6.62195">
        <ele>402</ele>
        <time>2018-02-03T10:02:25.000Z</time>
      </trkpt>
      <trkpt lat="43.40381" lon="6.62196">
        <ele>401.79998779297</ele>
        <time>2018-02-03T10:02:26.000Z</time>
      </trkpt>
      <trkpt lat="43.40381" lon="6.62196">
        <ele>401.20001220703</ele>
        <time>2018-02-03T10:02:28.000Z</time>
      </trkpt>
      <trkpt lat="43.40381" lon="6.62196">
        <ele>401.39999389648</ele>
        <time>2018-02-03T10:02:29.000Z</time>
      </trkpt>
      <trkpt lat="43.40381" lon="6.62196">
        <ele>401.79998779297</ele>
        <time>2018-02-03T10:02:36.000Z</time>
      </trkpt>
      <trkpt lat="43.40382" lon="6.62196">
        <ele>402.20001220703</ele>
        <time>2018-02-03T10:02:44.000Z</time>
      </trkpt>
      <trkpt lat="43.40382" lon="6.62196">
        <ele>402.20001220703</ele>
        <time>2018-02-03T10:02:45.000Z</time>
      </trkpt>
      <trkpt lat="43.40382" lon="6.62196">
        <ele>402.39999389648</ele>
        <time>2018-02-03T10:02:50.000Z</time>
      </trkpt>
      <trkpt lat="43.40381" lon="6.62196">
        <ele>401.20001220703</ele>
        <time>2018-02-03T10:02:58.000Z</time>
      </trkpt>
      <trkpt lat="43.40381" lon="6.62196">
        <ele>401.20001220703</ele>
        <time>2018-02-03T10:03:04.000Z</time>
      </trkpt>
      <trkpt lat="43.40381" lon="6.62197">
        <ele>401.79998779297</ele>
        <time>2018-02-03T10:03:16.000Z</time>
      </trkpt>
      <trkpt lat="43.40382" lon="6.62197">
        <ele>401</ele>
        <time>2018-02-03T10:03:23.000Z</time>
      </trkpt>
      <trkpt lat="43.40382" lon="6.62197">
        <ele>401.20001220703</ele>
        <time>2018-02-03T10:03:30.000Z</time>
      </trkpt>
      <trkpt lat="43.40382" lon="6.62197">
        <ele>400.79998779297</ele>
        <time>2018-02-03T10:03:50.000Z</time>
      </trkpt>
      <trkpt lat="43.40382" lon="6.62197">
        <ele>401.39999389648</ele>
        <time>2018-02-03T10:03:58.000Z</time>
      </trkpt>
      <trkpt lat="43.40383" lon="6.62196">
        <ele>401.20001220703</ele>
        <time>2018-02-03T10:04:12.000Z</time>
      </trkpt>
      <trkpt lat="43.40383" lon="6.62196">
        <ele>400.79998779297</ele>
        <time>2018-02-03T10:04:21.000Z</time>
      </trkpt>
      <trkpt lat="43.40383" lon="6.62196">
        <ele>401</ele>
        <time>2018-02-03T10:04:27.000Z</time>
      </trkpt>
      <trkpt lat="43.40383" lon="6.62196">
        <ele>400.79998779297</ele>
        <time>2018-02-03T10:04:35.000Z</time>
      </trkpt>
      <trkpt lat="43.40383" lon="6.62194">
        <ele>401.20001220703</ele>
        <time>2018-02-03T10:04:46.000Z</time>
      </trkpt>
      <trkpt lat="43.40383" lon="6.62194">
        <ele>401.20001220703</ele>
        <time>2018-02-03T10:04:57.000Z</time>
      </trkpt>
      <trkpt lat="43.40383" lon="6.62195">
        <ele>401</ele>
        <time>2018-02-03T10:05:03.000Z</time>
      </trkpt>
      <trkpt lat="43.40384" lon="6.62194">
        <ele>401</ele>
        <time>2018-02-03T10:05:20.000Z</time>
      </trkpt>
      <trkpt lat="43.40384" lon="6.62194">
        <ele>401</ele>
        <time>2018-02-03T10:05:29.000Z</time>
      </trkpt>
      <trkpt lat="43.40385" lon="6.62194">
        <ele>400.60000610352</ele>
        <time>2018-02-03T10:05:38.000Z</time>
      </trkpt>
      <trkpt lat="43.40385" lon="6.62194">
        <ele>401</ele>
        <time>2018-02-03T10:05:54.000Z</time>
      </trkpt>
      <trkpt lat="43.40385" lon="6.62194">
        <ele>400.79998779297</ele>
        <time>2018-02-03T10:06:02.000Z</time>
      </trkpt>
      <trkpt lat="43.40385" lon="6.62195">
        <ele>401.79998779297</ele>
        <time>2018-02-03T10:06:11.000Z</time>
      </trkpt>
      <trkpt lat="43.40385" lon="6.62195">
        <ele>400.79998779297</ele>
        <time>2018-02-03T10:06:17.000Z</time>
      </trkpt>
      <trkpt lat="43.40386" lon="6.62194">
        <ele>400.60000610352</ele>
        <time>2018-02-03T10:06:18.000Z</time>
      </trkpt>
      <trkpt lat="43.40386" lon="6.62194">
        <ele>400.79998779297</ele>
        <time>2018-02-03T10:06:20.000Z</time>
      </trkpt>
      <trkpt lat="43.40386" lon="6.62194">
        <ele>400.79998779297</ele>
        <time>2018-02-03T10:06:25.000Z</time>
      </trkpt>
      <trkpt lat="43.40386" lon="6.62195">
        <ele>400.60000610352</ele>
        <time>2018-02-03T10:06:33.000Z</time>
      </trkpt>
      <trkpt lat="43.40385" lon="6.62196">
        <ele>400.79998779297</ele>
        <time>2018-02-03T10:06:41.000Z</time>
      </trkpt>
      <trkpt lat="43.40385" lon="6.62196">
        <ele>400.79998779297</ele>
        <time>2018-02-03T10:06:49.000Z</time>
      </trkpt>
      <trkpt lat="43.40386" lon="6.62196">
        <ele>401.20001220703</ele>
        <time>2018-02-03T10:06:56.000Z</time>
      </trkpt>
      <trkpt lat="43.40385" lon="6.62198">
        <ele>401</ele>
        <time>2018-02-03T10:07:04.000Z</time>
      </trkpt>
      <trkpt lat="43.40385" lon="6.62199">
        <ele>401</ele>
        <time>2018-02-03T10:07:15.000Z</time>
      </trkpt>
      <trkpt lat="43.40385" lon="6.62199">
        <ele>401</ele>
        <time>2018-02-03T10:07:21.000Z</time>
      </trkpt>
      <trkpt lat="43.40385" lon="6.62199">
        <ele>400.60000610352</ele>
        <time>2018-02-03T10:07:34.000Z</time>
      </trkpt>
      <trkpt lat="43.40385" lon="6.622">
        <ele>400.79998779297</ele>
        <time>2018-02-03T10:07:43.000Z</time>
      </trkpt>
      <trkpt lat="43.40385" lon="6.622">
        <ele>400.60000610352</ele>
        <time>2018-02-03T10:07:52.000Z</time>
      </trkpt>
      <trkpt lat="43.40386" lon="6.622">
        <ele>400.60000610352</ele>
        <time>2018-02-03T10:08:01.000Z</time>
      </trkpt>
      <trkpt lat="43.40386" lon="6.622">
        <ele>401</ele>
        <time>2018-02-03T10:08:08.000Z</time>
      </trkpt>
      <trkpt lat="43.40385" lon="6.62199">
        <ele>401.39999389648</ele>
        <time>2018-02-03T10:08:20.000Z</time>
      </trkpt>
      <trkpt lat="43.40385" lon="6.62199">
        <ele>401.39999389648</ele>
        <time>2018-02-03T10:08:25.000Z</time>
      </trkpt>
      <trkpt lat="43.40384" lon="6.62199">
        <ele>401</ele>
        <time>2018-02-03T10:08:43.000Z</time>
      </trkpt>
      <trkpt lat="43.40383" lon="6.62197">
        <ele>400.60000610352</ele>
        <time>2018-02-03T10:08:51.000Z</time>
      </trkpt>
      <trkpt lat="43.40383" lon="6.62196">
        <ele>400.20001220703</ele>
        <time>2018-02-03T10:08:55.000Z</time>
      </trkpt>
      <trkpt lat="43.40383" lon="6.62196">
        <ele>400.20001220703</ele>
        <time>2018-02-03T10:08:56.000Z</time>
      </trkpt>
      <trkpt lat="43.40383" lon="6.62195">
        <ele>400.60000610352</ele>
        <time>2018-02-03T10:09:01.000Z</time>
      </trkpt>
      <trkpt lat="43.40377" lon="6.62195">
        <ele>401</ele>
        <time>2018-02-03T10:09:06.000Z</time>
      </trkpt>
      <trkpt lat="43.40367" lon="6.62205">
        <ele>400.39999389648</ele>
        <time>2018-02-03T10:09:12.000Z</time>
      </trkpt>
      <trkpt lat="43.40359" lon="6.62227">
        <ele>400</ele>
        <time>2018-02-03T10:09:18.000Z</time>
      </trkpt>
      <trkpt lat="43.40356" lon="6.62247">
        <ele>399.20001220703</ele>
        <time>2018-02-03T10:09:22.000Z</time>
      </trkpt>
      <trkpt lat="43.40354" lon="6.62269">
        <ele>398.20001220703</ele>
        <time>2018-02-03T10:09:26.000Z</time>
      </trkpt>
      <trkpt lat="43.40353" lon="6.62275">
        <ele>398</ele>
        <time>2018-02-03T10:09:27.000Z</time>
      </trkpt>
      <trkpt lat="43.40352" lon="6.62311">
        <ele>396.79998779297</ele>
        <time>2018-02-03T10:09:33.000Z</time>
      </trkpt>
      <trkpt lat="43.40352" lon="6.62317">
        <ele>396.60000610352</ele>
        <time>2018-02-03T10:09:34.000Z</time>
      </trkpt>
      <trkpt lat="43.40352" lon="6.6233">
        <ele>396.20001220703</ele>
        <time>2018-02-03T10:09:36.000Z</time>
      </trkpt>
      <trkpt lat="43.40351" lon="6.62336">
        <ele>395.79998779297</ele>
        <time>2018-02-03T10:09:37.000Z</time>
      </trkpt>
      <trkpt lat="43.40346" lon="6.62353">
        <ele>395</ele>
        <time>2018-02-03T10:09:40.000Z</time>
      </trkpt>
      <trkpt lat="43.40344" lon="6.62357">
        <ele>395</ele>
        <time>2018-02-03T10:09:41.000Z</time>
      </trkpt>
      <trkpt lat="43.40338" lon="6.62366">
        <ele>394.79998779297</ele>
        <time>2018-02-03T10:09:43.000Z</time>
      </trkpt>
      <trkpt lat="43.40333" lon="6.62372">
        <ele>394.60000610352</ele>
        <time>2018-02-03T10:09:45.000Z</time>
      </trkpt>
      <trkpt lat="43.40322" lon="6.6239">
        <ele>393.79998779297</ele>
        <time>2018-02-03T10:09:49.000Z</time>
      </trkpt>
      <trkpt lat="43.40319" lon="6.62395">
        <ele>393.60000610352</ele>
        <time>2018-02-03T10:09:50.000Z</time>
      </trkpt>
      <trkpt lat="43.40306" lon="6.62417">
        <ele>393</ele>
        <time>2018-02-03T10:09:54.000Z</time>
      </trkpt>
      <trkpt lat="43.403" lon="6.62428">
        <ele>392.39999389648</ele>
        <time>2018-02-03T10:09:56.000Z</time>
      </trkpt>
      <trkpt lat="43.40296" lon="6.62432">
        <ele>392.20001220703</ele>
        <time>2018-02-03T10:09:57.000Z</time>
      </trkpt>
      <trkpt lat="43.40281" lon="6.6245">
        <ele>391.60000610352</ele>
        <time>2018-02-03T10:10:01.000Z</time>
      </trkpt>
      <trkpt lat="43.40277" lon="6.62454">
        <ele>391.39999389648</ele>
        <time>2018-02-03T10:10:02.000Z</time>
      </trkpt>
      <trkpt lat="43.40252" lon="6.62475">
        <ele>390.20001220703</ele>
        <time>2018-02-03T10:10:08.000Z</time>
      </trkpt>
      <trkpt lat="43.40229" lon="6.62494">
        <ele>389</ele>
        <time>2018-02-03T10:10:13.000Z</time>
      </trkpt>
      <trkpt lat="43.40214" lon="6.62505">
        <ele>388.39999389648</ele>
        <time>2018-02-03T10:10:16.000Z</time>
      </trkpt>
      <trkpt lat="43.40193" lon="6.62523">
        <ele>387.79998779297</ele>
        <time>2018-02-03T10:10:20.000Z</time>
      </trkpt>
      <trkpt lat="43.40178" lon="6.62536">
        <ele>387</ele>
        <time>2018-02-03T10:10:23.000Z</time>
      </trkpt>
      <trkpt lat="43.40173" lon="6.6254">
        <ele>386.79998779297</ele>
        <time>2018-02-03T10:10:24.000Z</time>
      </trkpt>
      <trkpt lat="43.40147" lon="6.62561">
        <ele>385.79998779297</ele>
        <time>2018-02-03T10:10:29.000Z</time>
      </trkpt>
      <trkpt lat="43.40142" lon="6.62565">
        <ele>385.39999389648</ele>
        <time>2018-02-03T10:10:30.000Z</time>
      </trkpt>
      <trkpt lat="43.40137" lon="6.62569">
        <ele>384.79998779297</ele>
        <time>2018-02-03T10:10:31.000Z</time>
      </trkpt>
      <trkpt lat="43.40127" lon="6.62577">
        <ele>383.60000610352</ele>
        <time>2018-02-03T10:10:33.000Z</time>
      </trkpt>
      <trkpt lat="43.40103" lon="6.62599">
        <ele>383.39999389648</ele>
        <time>2018-02-03T10:10:38.000Z</time>
      </trkpt>
      <trkpt lat="43.40079" lon="6.62627">
        <ele>382.60000610352</ele>
        <time>2018-02-03T10:10:43.000Z</time>
      </trkpt>
      <trkpt lat="43.4007" lon="6.6264">
        <ele>382.20001220703</ele>
        <time>2018-02-03T10:10:45.000Z</time>
      </trkpt>
      <trkpt lat="43.40052" lon="6.62666">
        <ele>381.39999389648</ele>
        <time>2018-02-03T10:10:49.000Z</time>
      </trkpt>
      <trkpt lat="43.40035" lon="6.62684">
        <ele>380.60000610352</ele>
        <time>2018-02-03T10:10:52.000Z</time>
      </trkpt>
      <trkpt lat="43.40031" lon="6.62689">
        <ele>380.20001220703</ele>
        <time>2018-02-03T10:10:53.000Z</time>
      </trkpt>
      <trkpt lat="43.40005" lon="6.62724">
        <ele>379.60000610352</ele>
        <time>2018-02-03T10:10:58.000Z</time>
      </trkpt>
      <trkpt lat="43.39988" lon="6.62758">
        <ele>379</ele>
        <time>2018-02-03T10:11:02.000Z</time>
      </trkpt>
      <trkpt lat="43.3998" lon="6.62777">
        <ele>378.60000610352</ele>
        <time>2018-02-03T10:11:04.000Z</time>
      </trkpt>
      <trkpt lat="43.39971" lon="6.62796">
        <ele>377.79998779297</ele>
        <time>2018-02-03T10:11:06.000Z</time>
      </trkpt>
      <trkpt lat="43.39954" lon="6.62822">
        <ele>376.60000610352</ele>
        <time>2018-02-03T10:11:09.000Z</time>
      </trkpt>
      <trkpt lat="43.3992" lon="6.62874">
        <ele>375.39999389648</ele>
        <time>2018-02-03T10:11:15.000Z</time>
      </trkpt>
      <trkpt lat="43.39899" lon="6.62913">
        <ele>374</ele>
        <time>2018-02-03T10:11:19.000Z</time>
      </trkpt>
      <trkpt lat="43.39894" lon="6.62921">
        <ele>373.60000610352</ele>
        <time>2018-02-03T10:11:20.000Z</time>
      </trkpt>
      <trkpt lat="43.39885" lon="6.62936">
        <ele>372.79998779297</ele>
        <time>2018-02-03T10:11:22.000Z</time>
      </trkpt>
      <trkpt lat="43.39872" lon="6.62962">
        <ele>371.60000610352</ele>
        <time>2018-02-03T10:11:26.000Z</time>
      </trkpt>
      <trkpt lat="43.39863" lon="6.62992">
        <ele>370.39999389648</ele>
        <time>2018-02-03T10:11:31.000Z</time>
      </trkpt>
      <trkpt lat="43.39862" lon="6.62998">
        <ele>370.20001220703</ele>
        <time>2018-02-03T10:11:32.000Z</time>
      </trkpt>
      <trkpt lat="43.39855" lon="6.63025">
        <ele>369.39999389648</ele>
        <time>2018-02-03T10:11:36.000Z</time>
      </trkpt>
      <trkpt lat="43.39849" lon="6.63054">
        <ele>368.60000610352</ele>
        <time>2018-02-03T10:11:40.000Z</time>
      </trkpt>
      <trkpt lat="43.39846" lon="6.63067">
        <ele>368.20001220703</ele>
        <time>2018-02-03T10:11:42.000Z</time>
      </trkpt>
      <trkpt lat="43.39833" lon="6.63106">
        <ele>367.20001220703</ele>
        <time>2018-02-03T10:11:48.000Z</time>
      </trkpt>
      <trkpt lat="43.39831" lon="6.63112">
        <ele>367.20001220703</ele>
        <time>2018-02-03T10:11:49.000Z</time>
      </trkpt>
      <trkpt lat="43.39821" lon="6.63137">
        <ele>366.20001220703</ele>
        <time>2018-02-03T10:11:53.000Z</time>
      </trkpt>
      <trkpt lat="43.39817" lon="6.63151">
        <ele>365.60000610352</ele>
        <time>2018-02-03T10:11:55.000Z</time>
      </trkpt>
      <trkpt lat="43.39815" lon="6.63158">
        <ele>365.39999389648</ele>
        <time>2018-02-03T10:11:56.000Z</time>
      </trkpt>
      <trkpt lat="43.39812" lon="6.63173">
        <ele>365</ele>
        <time>2018-02-03T10:11:58.000Z</time>
      </trkpt>
      <trkpt lat="43.39804" lon="6.63195">
        <ele>364.20001220703</ele>
        <time>2018-02-03T10:12:01.000Z</time>
      </trkpt>
      <trkpt lat="43.39801" lon="6.63201">
        <ele>364</ele>
        <time>2018-02-03T10:12:02.000Z</time>
      </trkpt>
      <trkpt lat="43.39798" lon="6.63207">
        <ele>364</ele>
        <time>2018-02-03T10:12:03.000Z</time>
      </trkpt>
      <trkpt lat="43.39781" lon="6.63244">
        <ele>363.20001220703</ele>
        <time>2018-02-03T10:12:09.000Z</time>
      </trkpt>
      <trkpt lat="43.39775" lon="6.63257">
        <ele>362.79998779297</ele>
        <time>2018-02-03T10:12:11.000Z</time>
      </trkpt>
      <trkpt lat="43.39764" lon="6.63282">
        <ele>362.39999389648</ele>
        <time>2018-02-03T10:12:15.000Z</time>
      </trkpt>
      <trkpt lat="43.39761" lon="6.63287">
        <ele>362.20001220703</ele>
        <time>2018-02-03T10:12:16.000Z</time>
      </trkpt>
      <trkpt lat="43.39752" lon="6.63296">
        <ele>361.60000610352</ele>
        <time>2018-02-03T10:12:19.000Z</time>
      </trkpt>
      <trkpt lat="43.39749" lon="6.63299">
        <ele>361.39999389648</ele>
        <time>2018-02-03T10:12:20.000Z</time>
      </trkpt>
      <trkpt lat="43.39739" lon="6.63321">
        <ele>361.20001220703</ele>
        <time>2018-02-03T10:12:26.000Z</time>
      </trkpt>
      <trkpt lat="43.3973" lon="6.6335">
        <ele>360.79998779297</ele>
        <time>2018-02-03T10:12:32.000Z</time>
      </trkpt>
      <trkpt lat="43.39729" lon="6.63359">
        <ele>360.39999389648</ele>
        <time>2018-02-03T10:12:34.000Z</time>
      </trkpt>
      <trkpt lat="43.39729" lon="6.63366">
        <ele>360</ele>
        <time>2018-02-03T10:12:36.000Z</time>
      </trkpt>
      <trkpt lat="43.3973" lon="6.63375">
        <ele>359.39999389648</ele>
        <time>2018-02-03T10:12:39.000Z</time>
      </trkpt>
      <trkpt lat="43.39729" lon="6.63379">
        <ele>359.20001220703</ele>
        <time>2018-02-03T10:12:41.000Z</time>
      </trkpt>
      <trkpt lat="43.39728" lon="6.6338">
        <ele>359.20001220703</ele>
        <time>2018-02-03T10:12:42.000Z</time>
      </trkpt>
      <trkpt lat="43.39728" lon="6.63381">
        <ele>359.79998779297</ele>
        <time>2018-02-03T10:12:47.000Z</time>
      </trkpt>
      <trkpt lat="43.39729" lon="6.63381">
        <ele>359.60000610352</ele>
        <time>2018-02-03T10:12:57.000Z</time>
      </trkpt>
      <trkpt lat="43.39729" lon="6.63381">
        <ele>359.39999389648</ele>
        <time>2018-02-03T10:13:23.000Z</time>
      </trkpt>
      <trkpt lat="43.39729" lon="6.63381">
        <ele>359.20001220703</ele>
        <time>2018-02-03T10:13:51.000Z</time>
      </trkpt>
      <trkpt lat="43.39726" lon="6.63386">
        <ele>359.20001220703</ele>
        <time>2018-02-03T10:13:58.000Z</time>
      </trkpt>
      <trkpt lat="43.39714" lon="6.63395">
        <ele>357.79998779297</ele>
        <time>2018-02-03T10:14:01.000Z</time>
      </trkpt>
      <trkpt lat="43.39704" lon="6.63402">
        <ele>355.79998779297</ele>
        <time>2018-02-03T10:14:03.000Z</time>
      </trkpt>
      <trkpt lat="43.39699" lon="6.63406">
        <ele>354.60000610352</ele>
        <time>2018-02-03T10:14:04.000Z</time>
      </trkpt>
      <trkpt lat="43.39694" lon="6.63409">
        <ele>354.20001220703</ele>
        <time>2018-02-03T10:14:05.000Z</time>
      </trkpt>
      <trkpt lat="43.39691" lon="6.63414">
        <ele>352.79998779297</ele>
        <time>2018-02-03T10:14:06.000Z</time>
      </trkpt>
      <trkpt lat="43.39689" lon="6.63419">
        <ele>351.79998779297</ele>
        <time>2018-02-03T10:14:07.000Z</time>
      </trkpt>
      <trkpt lat="43.39687" lon="6.63423">
        <ele>351</ele>
        <time>2018-02-03T10:14:08.000Z</time>
      </trkpt>
      <trkpt lat="43.39684" lon="6.63427">
        <ele>350.39999389648</ele>
        <time>2018-02-03T10:14:09.000Z</time>
      </trkpt>
      <trkpt lat="43.39677" lon="6.63432">
        <ele>349</ele>
        <time>2018-02-03T10:14:11.000Z</time>
      </trkpt>
      <trkpt lat="43.39674" lon="6.63436">
        <ele>349</ele>
        <time>2018-02-03T10:14:12.000Z</time>
      </trkpt>
      <trkpt lat="43.39671" lon="6.63444">
        <ele>348.79998779297</ele>
        <time>2018-02-03T10:14:14.000Z</time>
      </trkpt>
      <trkpt lat="43.39662" lon="6.63449">
        <ele>348.79998779297</ele>
        <time>2018-02-03T10:14:17.000Z</time>
      </trkpt>
      <trkpt lat="43.39646" lon="6.63448">
        <ele>347.39999389648</ele>
        <time>2018-02-03T10:14:21.000Z</time>
      </trkpt>
      <trkpt lat="43.39641" lon="6.6345">
        <ele>346.20001220703</ele>
        <time>2018-02-03T10:14:22.000Z</time>
      </trkpt>
      <trkpt lat="43.39631" lon="6.63452">
        <ele>344.60000610352</ele>
        <time>2018-02-03T10:14:24.000Z</time>
      </trkpt>
      <trkpt lat="43.39627" lon="6.63452">
        <ele>343.39999389648</ele>
        <time>2018-02-03T10:14:25.000Z</time>
      </trkpt>
      <trkpt lat="43.3962" lon="6.63455">
        <ele>342</ele>
        <time>2018-02-03T10:14:27.000Z</time>
      </trkpt>
      <trkpt lat="43.39617" lon="6.63458">
        <ele>341</ele>
        <time>2018-02-03T10:14:28.000Z</time>
      </trkpt>
      <trkpt lat="43.39616" lon="6.63461">
        <ele>340.20001220703</ele>
        <time>2018-02-03T10:14:29.000Z</time>
      </trkpt>
      <trkpt lat="43.39614" lon="6.63466">
        <ele>339.60000610352</ele>
        <time>2018-02-03T10:14:30.000Z</time>
      </trkpt>
      <trkpt lat="43.39613" lon="6.63471">
        <ele>339.20001220703</ele>
        <time>2018-02-03T10:14:31.000Z</time>
      </trkpt>
      <trkpt lat="43.39611" lon="6.63476">
        <ele>338.79998779297</ele>
        <time>2018-02-03T10:14:32.000Z</time>
      </trkpt>
      <trkpt lat="43.39603" lon="6.63494">
        <ele>337.79998779297</ele>
        <time>2018-02-03T10:14:35.000Z</time>
      </trkpt>
      <trkpt lat="43.39597" lon="6.63503">
        <ele>336.60000610352</ele>
        <time>2018-02-03T10:14:37.000Z</time>
      </trkpt>
      <trkpt lat="43.39589" lon="6.63508">
        <ele>335.39999389648</ele>
        <time>2018-02-03T10:14:39.000Z</time>
      </trkpt>
      <trkpt lat="43.39586" lon="6.63507">
        <ele>334.39999389648</ele>
        <time>2018-02-03T10:14:40.000Z</time>
      </trkpt>
      <trkpt lat="43.39583" lon="6.63505">
        <ele>334</ele>
        <time>2018-02-03T10:14:41.000Z</time>
      </trkpt>
      <trkpt lat="43.39576" lon="6.63502">
        <ele>332.79998779297</ele>
        <time>2018-02-03T10:14:43.000Z</time>
      </trkpt>
      <trkpt lat="43.39575" lon="6.63502">
        <ele>332.20001220703</ele>
        <time>2018-02-03T10:14:44.000Z</time>
      </trkpt>
      <trkpt lat="43.39575" lon="6.63502">
        <ele>331.39999389648</ele>
        <time>2018-02-03T10:14:45.000Z</time>
      </trkpt>
      <trkpt lat="43.39573" lon="6.63503">
        <ele>331.20001220703</ele>
        <time>2018-02-03T10:14:49.000Z</time>
      </trkpt>
      <trkpt lat="43.39569" lon="6.63501">
        <ele>331.79998779297</ele>
        <time>2018-02-03T10:14:55.000Z</time>
      </trkpt>
      <trkpt lat="43.39568" lon="6.63497">
        <ele>331</ele>
        <time>2018-02-03T10:15:01.000Z</time>
      </trkpt>
      <trkpt lat="43.39567" lon="6.63496">
        <ele>330.60000610352</ele>
        <time>2018-02-03T10:15:02.000Z</time>
      </trkpt>
      <trkpt lat="43.39566" lon="6.63496">
        <ele>330.20001220703</ele>
        <time>2018-02-03T10:15:03.000Z</time>
      </trkpt>
      <trkpt lat="43.39566" lon="6.63495">
        <ele>328.60000610352</ele>
        <time>2018-02-03T10:15:06.000Z</time>
      </trkpt>
      <trkpt lat="43.39564" lon="6.63493">
        <ele>327.60000610352</ele>
        <time>2018-02-03T10:15:08.000Z</time>
      </trkpt>
      <trkpt lat="43.39563" lon="6.63492">
        <ele>327.20001220703</ele>
        <time>2018-02-03T10:15:09.000Z</time>
      </trkpt>
      <trkpt lat="43.3956" lon="6.63491">
        <ele>326.39999389648</ele>
        <time>2018-02-03T10:15:11.000Z</time>
      </trkpt>
      <trkpt lat="43.39555" lon="6.63492">
        <ele>325.39999389648</ele>
        <time>2018-02-03T10:15:13.000Z</time>
      </trkpt>
      <trkpt lat="43.39553" lon="6.63493">
        <ele>324.79998779297</ele>
        <time>2018-02-03T10:15:14.000Z</time>
      </trkpt>
      <trkpt lat="43.39551" lon="6.63494">
        <ele>324.20001220703</ele>
        <time>2018-02-03T10:15:16.000Z</time>
      </trkpt>
      <trkpt lat="43.39549" lon="6.63496">
        <ele>323.60000610352</ele>
        <time>2018-02-03T10:15:17.000Z</time>
      </trkpt>
      <trkpt lat="43.39544" lon="6.63505">
        <ele>323.20001220703</ele>
        <time>2018-02-03T10:15:20.000Z</time>
      </trkpt>
      <trkpt lat="43.39537" lon="6.63509">
        <ele>323.20001220703</ele>
        <time>2018-02-03T10:15:23.000Z</time>
      </trkpt>
      <trkpt lat="43.39534" lon="6.63509">
        <ele>323</ele>
        <time>2018-02-03T10:15:24.000Z</time>
      </trkpt>
      <trkpt lat="43.39524" lon="6.63515">
        <ele>322.20001220703</ele>
        <time>2018-02-03T10:15:27.000Z</time>
      </trkpt>
      <trkpt lat="43.39521" lon="6.63519">
        <ele>321.39999389648</ele>
        <time>2018-02-03T10:15:28.000Z</time>
      </trkpt>
      <trkpt lat="43.39517" lon="6.63521">
        <ele>320.79998779297</ele>
        <time>2018-02-03T10:15:29.000Z</time>
      </trkpt>
      <trkpt lat="43.39507" lon="6.63524">
        <ele>318.79998779297</ele>
        <time>2018-02-03T10:15:31.000Z</time>
      </trkpt>
      <trkpt lat="43.39495" lon="6.63527">
        <ele>317</ele>
        <time>2018-02-03T10:15:33.000Z</time>
      </trkpt>
      <trkpt lat="43.39482" lon="6.63529">
        <ele>315.79998779297</ele>
        <time>2018-02-03T10:15:35.000Z</time>
      </trkpt>
      <trkpt lat="43.39476" lon="6.63531">
        <ele>315.20001220703</ele>
        <time>2018-02-03T10:15:36.000Z</time>
      </trkpt>
      <trkpt lat="43.3947" lon="6.63534">
        <ele>314.60000610352</ele>
        <time>2018-02-03T10:15:37.000Z</time>
      </trkpt>
      <trkpt lat="43.39466" lon="6.63538">
        <ele>313.79998779297</ele>
        <time>2018-02-03T10:15:38.000Z</time>
      </trkpt>
      <trkpt lat="43.39461" lon="6.63542">
        <ele>313.20001220703</ele>
        <time>2018-02-03T10:15:39.000Z</time>
      </trkpt>
      <trkpt lat="43.39454" lon="6.63551">
        <ele>311</ele>
        <time>2018-02-03T10:15:41.000Z</time>
      </trkpt>
      <trkpt lat="43.39451" lon="6.63555">
        <ele>309.79998779297</ele>
        <time>2018-02-03T10:15:42.000Z</time>
      </trkpt>
      <trkpt lat="43.3945" lon="6.63558">
        <ele>308.39999389648</ele>
        <time>2018-02-03T10:15:43.000Z</time>
      </trkpt>
      <trkpt lat="43.39448" lon="6.63561">
        <ele>307</ele>
        <time>2018-02-03T10:15:44.000Z</time>
      </trkpt>
      <trkpt lat="43.39446" lon="6.63565">
        <ele>305.60000610352</ele>
        <time>2018-02-03T10:15:45.000Z</time>
      </trkpt>
      <trkpt lat="43.39442" lon="6.63567">
        <ele>304.79998779297</ele>
        <time>2018-02-03T10:15:46.000Z</time>
      </trkpt>
      <trkpt lat="43.39438" lon="6.63569">
        <ele>303.79998779297</ele>
        <time>2018-02-03T10:15:47.000Z</time>
      </trkpt>
      <trkpt lat="43.39432" lon="6.63572">
        <ele>302.79998779297</ele>
        <time>2018-02-03T10:15:48.000Z</time>
      </trkpt>
      <trkpt lat="43.39429" lon="6.63575">
        <ele>302</ele>
        <time>2018-02-03T10:15:49.000Z</time>
      </trkpt>
      <trkpt lat="43.39427" lon="6.6358">
        <ele>300.79998779297</ele>
        <time>2018-02-03T10:15:50.000Z</time>
      </trkpt>
      <trkpt lat="43.39425" lon="6.63585">
        <ele>299.20001220703</ele>
        <time>2018-02-03T10:15:51.000Z</time>
      </trkpt>
      <trkpt lat="43.39422" lon="6.63593">
        <ele>298</ele>
        <time>2018-02-03T10:15:52.000Z</time>
      </trkpt>
      <trkpt lat="43.3942" lon="6.63599">
        <ele>296.79998779297</ele>
        <time>2018-02-03T10:15:53.000Z</time>
      </trkpt>
      <trkpt lat="43.39418" lon="6.63607">
        <ele>295.39999389648</ele>
        <time>2018-02-03T10:15:54.000Z</time>
      </trkpt>
      <trkpt lat="43.39415" lon="6.63616">
        <ele>294</ele>
        <time>2018-02-03T10:15:55.000Z</time>
      </trkpt>
      <trkpt lat="43.39413" lon="6.63624">
        <ele>292.60000610352</ele>
        <time>2018-02-03T10:15:56.000Z</time>
      </trkpt>
      <trkpt lat="43.3941" lon="6.63633">
        <ele>291.20001220703</ele>
        <time>2018-02-03T10:15:57.000Z</time>
      </trkpt>
      <trkpt lat="43.39407" lon="6.63641">
        <ele>290.79998779297</ele>
        <time>2018-02-03T10:15:58.000Z</time>
      </trkpt>
      <trkpt lat="43.39404" lon="6.63645">
        <ele>290.20001220703</ele>
        <time>2018-02-03T10:15:59.000Z</time>
      </trkpt>
      <trkpt lat="43.394" lon="6.63651">
        <ele>289.60000610352</ele>
        <time>2018-02-03T10:16:00.000Z</time>
      </trkpt>
      <trkpt lat="43.39397" lon="6.63658">
        <ele>289.20001220703</ele>
        <time>2018-02-03T10:16:01.000Z</time>
      </trkpt>
      <trkpt lat="43.39395" lon="6.63664">
        <ele>288</ele>
        <time>2018-02-03T10:16:02.000Z</time>
      </trkpt>
      <trkpt lat="43.39391" lon="6.63675">
        <ele>286</ele>
        <time>2018-02-03T10:16:04.000Z</time>
      </trkpt>
      <trkpt lat="43.39388" lon="6.63679">
        <ele>285</ele>
        <time>2018-02-03T10:16:05.000Z</time>
      </trkpt>
      <trkpt lat="43.39386" lon="6.63684">
        <ele>283.79998779297</ele>
        <time>2018-02-03T10:16:06.000Z</time>
      </trkpt>
      <trkpt lat="43.39382" lon="6.63691">
        <ele>282.79998779297</ele>
        <time>2018-02-03T10:16:08.000Z</time>
      </trkpt>
      <trkpt lat="43.39381" lon="6.63692">
        <ele>281.79998779297</ele>
        <time>2018-02-03T10:16:09.000Z</time>
      </trkpt>
      <trkpt lat="43.39381" lon="6.63694">
        <ele>281</ele>
        <time>2018-02-03T10:16:10.000Z</time>
      </trkpt>
      <trkpt lat="43.39377" lon="6.637">
        <ele>279.79998779297</ele>
        <time>2018-02-03T10:16:12.000Z</time>
      </trkpt>
      <trkpt lat="43.39376" lon="6.63703">
        <ele>278.79998779297</ele>
        <time>2018-02-03T10:16:13.000Z</time>
      </trkpt>
      <trkpt lat="43.39372" lon="6.63713">
        <ele>277.60000610352</ele>
        <time>2018-02-03T10:16:15.000Z</time>
      </trkpt>
      <trkpt lat="43.39369" lon="6.63717">
        <ele>277</ele>
        <time>2018-02-03T10:16:16.000Z</time>
      </trkpt>
      <trkpt lat="43.39367" lon="6.6372">
        <ele>276.20001220703</ele>
        <time>2018-02-03T10:16:17.000Z</time>
      </trkpt>
      <trkpt lat="43.3936" lon="6.63724">
        <ele>275.20001220703</ele>
        <time>2018-02-03T10:16:19.000Z</time>
      </trkpt>
      <trkpt lat="43.39357" lon="6.63728">
        <ele>274.20001220703</ele>
        <time>2018-02-03T10:16:20.000Z</time>
      </trkpt>
      <trkpt lat="43.39353" lon="6.63733">
        <ele>272.79998779297</ele>
        <time>2018-02-03T10:16:21.000Z</time>
      </trkpt>
      <trkpt lat="43.39349" lon="6.63736">
        <ele>271.39999389648</ele>
        <time>2018-02-03T10:16:22.000Z</time>
      </trkpt>
      <trkpt lat="43.39344" lon="6.63739">
        <ele>270</ele>
        <time>2018-02-03T10:16:23.000Z</time>
      </trkpt>
      <trkpt lat="43.3934" lon="6.63744">
        <ele>268.39999389648</ele>
        <time>2018-02-03T10:16:24.000Z</time>
      </trkpt>
      <trkpt lat="43.39337" lon="6.63751">
        <ele>267</ele>
        <time>2018-02-03T10:16:25.000Z</time>
      </trkpt>
      <trkpt lat="43.39334" lon="6.63758">
        <ele>265.79998779297</ele>
        <time>2018-02-03T10:16:26.000Z</time>
      </trkpt>
      <trkpt lat="43.39332" lon="6.63764">
        <ele>264.60000610352</ele>
        <time>2018-02-03T10:16:27.000Z</time>
      </trkpt>
      <trkpt lat="43.3933" lon="6.63768">
        <ele>263.60000610352</ele>
        <time>2018-02-03T10:16:28.000Z</time>
      </trkpt>
      <trkpt lat="43.39329" lon="6.63771">
        <ele>262.39999389648</ele>
        <time>2018-02-03T10:16:29.000Z</time>
      </trkpt>
      <trkpt lat="43.39326" lon="6.63773">
        <ele>261.39999389648</ele>
        <time>2018-02-03T10:16:30.000Z</time>
      </trkpt>
      <trkpt lat="43.39323" lon="6.63776">
        <ele>260.20001220703</ele>
        <time>2018-02-03T10:16:31.000Z</time>
      </trkpt>
      <trkpt lat="43.39319" lon="6.63779">
        <ele>259.60000610352</ele>
        <time>2018-02-03T10:16:32.000Z</time>
      </trkpt>
      <trkpt lat="43.39317" lon="6.63784">
        <ele>258.20001220703</ele>
        <time>2018-02-03T10:16:33.000Z</time>
      </trkpt>
      <trkpt lat="43.39315" lon="6.6379">
        <ele>256.60000610352</ele>
        <time>2018-02-03T10:16:35.000Z</time>
      </trkpt>
      <trkpt lat="43.39314" lon="6.63792">
        <ele>255.60000610352</ele>
        <time>2018-02-03T10:16:36.000Z</time>
      </trkpt>
      <trkpt lat="43.39313" lon="6.63793">
        <ele>255</ele>
        <time>2018-02-03T10:16:37.000Z</time>
      </trkpt>
      <trkpt lat="43.39313" lon="6.63793">
        <ele>254</ele>
        <time>2018-02-03T10:16:38.000Z</time>
      </trkpt>
      <trkpt lat="43.39312" lon="6.63795">
        <ele>253</ele>
        <time>2018-02-03T10:16:40.000Z</time>
      </trkpt>
      <trkpt lat="43.39311" lon="6.63797">
        <ele>252.60000610352</ele>
        <time>2018-02-03T10:16:41.000Z</time>
      </trkpt>
      <trkpt lat="43.39304" lon="6.63808">
        <ele>252</ele>
        <time>2018-02-03T10:16:45.000Z</time>
      </trkpt>
      <trkpt lat="43.39299" lon="6.63816">
        <ele>250.60000610352</ele>
        <time>2018-02-03T10:16:47.000Z</time>
      </trkpt>
      <trkpt lat="43.39297" lon="6.63821">
        <ele>249.60000610352</ele>
        <time>2018-02-03T10:16:48.000Z</time>
      </trkpt>
      <trkpt lat="43.39295" lon="6.63825">
        <ele>248.39999389648</ele>
        <time>2018-02-03T10:16:49.000Z</time>
      </trkpt>
      <trkpt lat="43.39294" lon="6.63829">
        <ele>246.60000610352</ele>
        <time>2018-02-03T10:16:50.000Z</time>
      </trkpt>
      <trkpt lat="43.39292" lon="6.63833">
        <ele>245</ele>
        <time>2018-02-03T10:16:51.000Z</time>
      </trkpt>
      <trkpt lat="43.39291" lon="6.63837">
        <ele>243.19999694824</ele>
        <time>2018-02-03T10:16:52.000Z</time>
      </trkpt>
      <trkpt lat="43.3929" lon="6.63841">
        <ele>241.60000610352</ele>
        <time>2018-02-03T10:16:53.000Z</time>
      </trkpt>
      <trkpt lat="43.39289" lon="6.63845">
        <ele>240.60000610352</ele>
        <time>2018-02-03T10:16:54.000Z</time>
      </trkpt>
      <trkpt lat="43.39288" lon="6.63849">
        <ele>239.39999389648</ele>
        <time>2018-02-03T10:16:55.000Z</time>
      </trkpt>
      <trkpt lat="43.39288" lon="6.63854">
        <ele>238.19999694824</ele>
        <time>2018-02-03T10:16:56.000Z</time>
      </trkpt>
      <trkpt lat="43.39287" lon="6.63858">
        <ele>236.60000610352</ele>
        <time>2018-02-03T10:16:57.000Z</time>
      </trkpt>
      <trkpt lat="43.39285" lon="6.63863">
        <ele>237.80000305176</ele>
        <time>2018-02-03T10:16:58.000Z</time>
      </trkpt>
      <trkpt lat="43.39283" lon="6.63866">
        <ele>237</ele>
        <time>2018-02-03T10:16:59.000Z</time>
      </trkpt>
      <trkpt lat="43.39282" lon="6.63868">
        <ele>235.60000610352</ele>
        <time>2018-02-03T10:17:00.000Z</time>
      </trkpt>
      <trkpt lat="43.39281" lon="6.63869">
        <ele>234.19999694824</ele>
        <time>2018-02-03T10:17:01.000Z</time>
      </trkpt>
      <trkpt lat="43.3928" lon="6.63871">
        <ele>233.80000305176</ele>
        <time>2018-02-03T10:17:02.000Z</time>
      </trkpt>
      <trkpt lat="43.3928" lon="6.63872">
        <ele>232.80000305176</ele>
        <time>2018-02-03T10:17:03.000Z</time>
      </trkpt>
      <trkpt lat="43.39277" lon="6.63876">
        <ele>231.19999694824</ele>
        <time>2018-02-03T10:17:06.000Z</time>
      </trkpt>
      <trkpt lat="43.39275" lon="6.63878">
        <ele>230.39999389648</ele>
        <time>2018-02-03T10:17:07.000Z</time>
      </trkpt>
      <trkpt lat="43.39273" lon="6.63879">
        <ele>230.19999694824</ele>
        <time>2018-02-03T10:17:08.000Z</time>
      </trkpt>
      <trkpt lat="43.3927" lon="6.63884">
        <ele>228.60000610352</ele>
        <time>2018-02-03T10:17:11.000Z</time>
      </trkpt>
      <trkpt lat="43.3927" lon="6.63884">
        <ele>228</ele>
        <time>2018-02-03T10:17:13.000Z</time>
      </trkpt>
      <trkpt lat="43.39269" lon="6.63884">
        <ele>227.60000610352</ele>
        <time>2018-02-03T10:17:18.000Z</time>
      </trkpt>
      <trkpt lat="43.39269" lon="6.63885">
        <ele>227.80000305176</ele>
        <time>2018-02-03T10:17:26.000Z</time>
      </trkpt>
      <trkpt lat="43.39268" lon="6.63886">
        <ele>227</ele>
        <time>2018-02-03T10:17:46.000Z</time>
      </trkpt>
      <trkpt lat="43.39268" lon="6.63886">
        <ele>226.60000610352</ele>
        <time>2018-02-03T10:17:48.000Z</time>
      </trkpt>
      <trkpt lat="43.39268" lon="6.63886">
        <ele>225.60000610352</ele>
        <time>2018-02-03T10:17:55.000Z</time>
      </trkpt>
      <trkpt lat="43.39268" lon="6.63886">
        <ele>224.60000610352</ele>
        <time>2018-02-03T10:18:03.000Z</time>
      </trkpt>
      <trkpt lat="43.39268" lon="6.63886">
        <ele>224.39999389648</ele>
        <time>2018-02-03T10:18:04.000Z</time>
      </trkpt>
      <trkpt lat="43.39268" lon="6.63886">
        <ele>223.39999389648</ele>
        <time>2018-02-03T10:18:11.000Z</time>
      </trkpt>
      <trkpt lat="43.39268" lon="6.63887">
        <ele>222.80000305176</ele>
        <time>2018-02-03T10:18:23.000Z</time>
      </trkpt>
      <trkpt lat="43.39268" lon="6.63887">
        <ele>222.39999389648</ele>
        <time>2018-02-03T10:18:31.000Z</time>
      </trkpt>
      <trkpt lat="43.39267" lon="6.63887">
        <ele>222.60000610352</ele>
        <time>2018-02-03T10:18:43.000Z</time>
      </trkpt>
      <trkpt lat="43.39268" lon="6.63887">
        <ele>222.39999389648</ele>
        <time>2018-02-03T10:19:03.000Z</time>
      </trkpt>
      <trkpt lat="43.39265" lon="6.63898">
        <ele>222</ele>
        <time>2018-02-03T10:19:08.000Z</time>
      </trkpt>
      <trkpt lat="43.39262" lon="6.63905">
        <ele>221.19999694824</ele>
        <time>2018-02-03T10:19:10.000Z</time>
      </trkpt>
      <trkpt lat="43.39259" lon="6.63912">
        <ele>219.60000610352</ele>
        <time>2018-02-03T10:19:12.000Z</time>
      </trkpt>
      <trkpt lat="43.39257" lon="6.63917">
        <ele>219</ele>
        <time>2018-02-03T10:19:13.000Z</time>
      </trkpt>
      <trkpt lat="43.39256" lon="6.63922">
        <ele>218</ele>
        <time>2018-02-03T10:19:14.000Z</time>
      </trkpt>
      <trkpt lat="43.39255" lon="6.63939">
        <ele>217</ele>
        <time>2018-02-03T10:19:17.000Z</time>
      </trkpt>
      <trkpt lat="43.39254" lon="6.63945">
        <ele>216.60000610352</ele>
        <time>2018-02-03T10:19:18.000Z</time>
      </trkpt>
      <trkpt lat="43.39252" lon="6.63955">
        <ele>216</ele>
        <time>2018-02-03T10:19:20.000Z</time>
      </trkpt>
      <trkpt lat="43.3925" lon="6.6396">
        <ele>215.60000610352</ele>
        <time>2018-02-03T10:19:21.000Z</time>
      </trkpt>
      <trkpt lat="43.39249" lon="6.6397">
        <ele>214.60000610352</ele>
        <time>2018-02-03T10:19:23.000Z</time>
      </trkpt>
      <trkpt lat="43.3925" lon="6.63975">
        <ele>213.80000305176</ele>
        <time>2018-02-03T10:19:24.000Z</time>
      </trkpt>
      <trkpt lat="43.39251" lon="6.63981">
        <ele>213.19999694824</ele>
        <time>2018-02-03T10:19:25.000Z</time>
      </trkpt>
      <trkpt lat="43.39256" lon="6.63999">
        <ele>212.19999694824</ele>
        <time>2018-02-03T10:19:28.000Z</time>
      </trkpt>
      <trkpt lat="43.3926" lon="6.64002">
        <ele>211.80000305176</ele>
        <time>2018-02-03T10:19:29.000Z</time>
      </trkpt>
      <trkpt lat="43.39265" lon="6.64006">
        <ele>211.39999389648</ele>
        <time>2018-02-03T10:19:30.000Z</time>
      </trkpt>
      <trkpt lat="43.39268" lon="6.64008">
        <ele>210.60000610352</ele>
        <time>2018-02-03T10:19:31.000Z</time>
      </trkpt>
      <trkpt lat="43.39271" lon="6.64012">
        <ele>209.19999694824</ele>
        <time>2018-02-03T10:19:33.000Z</time>
      </trkpt>
      <trkpt lat="43.39271" lon="6.64012">
        <ele>208.60000610352</ele>
        <time>2018-02-03T10:19:34.000Z</time>
      </trkpt>
      <trkpt lat="43.39271" lon="6.64013">
        <ele>208</ele>
        <time>2018-02-03T10:19:36.000Z</time>
      </trkpt>
      <trkpt lat="43.39271" lon="6.64013">
        <ele>208</ele>
        <time>2018-02-03T10:19:43.000Z</time>
      </trkpt>
      <trkpt lat="43.39272" lon="6.64023">
        <ele>207.80000305176</ele>
        <time>2018-02-03T10:19:50.000Z</time>
      </trkpt>
      <trkpt lat="43.39274" lon="6.64049">
        <ele>206.60000610352</ele>
        <time>2018-02-03T10:19:55.000Z</time>
      </trkpt>
      <trkpt lat="43.39274" lon="6.64057">
        <ele>206.19999694824</ele>
        <time>2018-02-03T10:19:56.000Z</time>
      </trkpt>
      <trkpt lat="43.39274" lon="6.6407">
        <ele>205.39999389648</ele>
        <time>2018-02-03T10:19:58.000Z</time>
      </trkpt>
      <trkpt lat="43.39273" lon="6.64076">
        <ele>204.39999389648</ele>
        <time>2018-02-03T10:19:59.000Z</time>
      </trkpt>
      <trkpt lat="43.39272" lon="6.64083">
        <ele>202.80000305176</ele>
        <time>2018-02-03T10:20:00.000Z</time>
      </trkpt>
      <trkpt lat="43.39271" lon="6.64089">
        <ele>201.60000610352</ele>
        <time>2018-02-03T10:20:01.000Z</time>
      </trkpt>
      <trkpt lat="43.3927" lon="6.64096">
        <ele>199.60000610352</ele>
        <time>2018-02-03T10:20:02.000Z</time>
      </trkpt>
      <trkpt lat="43.3927" lon="6.64104">
        <ele>198</ele>
        <time>2018-02-03T10:20:03.000Z</time>
      </trkpt>
      <trkpt lat="43.39269" lon="6.6411">
        <ele>196.39999389648</ele>
        <time>2018-02-03T10:20:04.000Z</time>
      </trkpt>
      <trkpt lat="43.39269" lon="6.64115">
        <ele>194.80000305176</ele>
        <time>2018-02-03T10:20:05.000Z</time>
      </trkpt>
      <trkpt lat="43.39269" lon="6.64119">
        <ele>193</ele>
        <time>2018-02-03T10:20:06.000Z</time>
      </trkpt>
      <trkpt lat="43.39271" lon="6.64124">
        <ele>191.60000610352</ele>
        <time>2018-02-03T10:20:07.000Z</time>
      </trkpt>
      <trkpt lat="43.39275" lon="6.6413">
        <ele>190.19999694824</ele>
        <time>2018-02-03T10:20:08.000Z</time>
      </trkpt>
      <trkpt lat="43.39278" lon="6.64136">
        <ele>188.60000610352</ele>
        <time>2018-02-03T10:20:09.000Z</time>
      </trkpt>
      <trkpt lat="43.39281" lon="6.64143">
        <ele>187.60000610352</ele>
        <time>2018-02-03T10:20:10.000Z</time>
      </trkpt>
      <trkpt lat="43.39283" lon="6.64151">
        <ele>186.19999694824</ele>
        <time>2018-02-03T10:20:11.000Z</time>
      </trkpt>
      <trkpt lat="43.39284" lon="6.64159">
        <ele>184.60000610352</ele>
        <time>2018-02-03T10:20:12.000Z</time>
      </trkpt>
      <trkpt lat="43.39283" lon="6.64164">
        <ele>182.80000305176</ele>
        <time>2018-02-03T10:20:13.000Z</time>
      </trkpt>
      <trkpt lat="43.39283" lon="6.64169">
        <ele>181.80000305176</ele>
        <time>2018-02-03T10:20:14.000Z</time>
      </trkpt>
      <trkpt lat="43.39283" lon="6.64174">
        <ele>180.39999389648</ele>
        <time>2018-02-03T10:20:15.000Z</time>
      </trkpt>
      <trkpt lat="43.39283" lon="6.64179">
        <ele>179.39999389648</ele>
        <time>2018-02-03T10:20:16.000Z</time>
      </trkpt>
      <trkpt lat="43.39283" lon="6.64183">
        <ele>178.19999694824</ele>
        <time>2018-02-03T10:20:17.000Z</time>
      </trkpt>
      <trkpt lat="43.39285" lon="6.64187">
        <ele>177</ele>
        <time>2018-02-03T10:20:18.000Z</time>
      </trkpt>
      <trkpt lat="43.39287" lon="6.6419">
        <ele>176</ele>
        <time>2018-02-03T10:20:19.000Z</time>
      </trkpt>
      <trkpt lat="43.39289" lon="6.64194">
        <ele>175</ele>
        <time>2018-02-03T10:20:20.000Z</time>
      </trkpt>
      <trkpt lat="43.39291" lon="6.64199">
        <ele>173.80000305176</ele>
        <time>2018-02-03T10:20:21.000Z</time>
      </trkpt>
      <trkpt lat="43.39294" lon="6.64204">
        <ele>172.39999389648</ele>
        <time>2018-02-03T10:20:22.000Z</time>
      </trkpt>
      <trkpt lat="43.39295" lon="6.64208">
        <ele>171.19999694824</ele>
        <time>2018-02-03T10:20:23.000Z</time>
      </trkpt>
      <trkpt lat="43.39296" lon="6.64214">
        <ele>169.80000305176</ele>
        <time>2018-02-03T10:20:24.000Z</time>
      </trkpt>
      <trkpt lat="43.39296" lon="6.64219">
        <ele>168.39999389648</ele>
        <time>2018-02-03T10:20:25.000Z</time>
      </trkpt>
      <trkpt lat="43.39296" lon="6.64223">
        <ele>166.80000305176</ele>
        <time>2018-02-03T10:20:26.000Z</time>
      </trkpt>
      <trkpt lat="43.39295" lon="6.64227">
        <ele>165.39999389648</ele>
        <time>2018-02-03T10:20:27.000Z</time>
      </trkpt>
      <trkpt lat="43.39295" lon="6.64231">
        <ele>164</ele>
        <time>2018-02-03T10:20:28.000Z</time>
      </trkpt>
      <trkpt lat="43.39294" lon="6.64236">
        <ele>162.80000305176</ele>
        <time>2018-02-03T10:20:29.000Z</time>
      </trkpt>
      <trkpt lat="43.39292" lon="6.64242">
        <ele>161</ele>
        <time>2018-02-03T10:20:30.000Z</time>
      </trkpt>
      <trkpt lat="43.39291" lon="6.64248">
        <ele>159.80000305176</ele>
        <time>2018-02-03T10:20:31.000Z</time>
      </trkpt>
      <trkpt lat="43.3929" lon="6.64255">
        <ele>158.60000610352</ele>
        <time>2018-02-03T10:20:32.000Z</time>
      </trkpt>
      <trkpt lat="43.3929" lon="6.64261">
        <ele>157.39999389648</ele>
        <time>2018-02-03T10:20:33.000Z</time>
      </trkpt>
      <trkpt lat="43.39291" lon="6.64271">
        <ele>154.80000305176</ele>
        <time>2018-02-03T10:20:35.000Z</time>
      </trkpt>
      <trkpt lat="43.39293" lon="6.64276">
        <ele>153.39999389648</ele>
        <time>2018-02-03T10:20:36.000Z</time>
      </trkpt>
      <trkpt lat="43.39295" lon="6.6428">
        <ele>151.80000305176</ele>
        <time>2018-02-03T10:20:37.000Z</time>
      </trkpt>
      <trkpt lat="43.39299" lon="6.64284">
        <ele>149.80000305176</ele>
        <time>2018-02-03T10:20:38.000Z</time>
      </trkpt>
      <trkpt lat="43.39304" lon="6.64289">
        <ele>148</ele>
        <time>2018-02-03T10:20:39.000Z</time>
      </trkpt>
      <trkpt lat="43.39308" lon="6.64293">
        <ele>146.60000610352</ele>
        <time>2018-02-03T10:20:40.000Z</time>
      </trkpt>
      <trkpt lat="43.39311" lon="6.64298">
        <ele>145</ele>
        <time>2018-02-03T10:20:41.000Z</time>
      </trkpt>
      <trkpt lat="43.39311" lon="6.64303">
        <ele>143.60000610352</ele>
        <time>2018-02-03T10:20:42.000Z</time>
      </trkpt>
      <trkpt lat="43.39309" lon="6.64308">
        <ele>142.60000610352</ele>
        <time>2018-02-03T10:20:43.000Z</time>
      </trkpt>
      <trkpt lat="43.39302" lon="6.64315">
        <ele>140.39999389648</ele>
        <time>2018-02-03T10:20:45.000Z</time>
      </trkpt>
      <trkpt lat="43.393" lon="6.64318">
        <ele>139.39999389648</ele>
        <time>2018-02-03T10:20:46.000Z</time>
      </trkpt>
      <trkpt lat="43.39298" lon="6.6432">
        <ele>138.19999694824</ele>
        <time>2018-02-03T10:20:47.000Z</time>
      </trkpt>
      <trkpt lat="43.39296" lon="6.64325">
        <ele>136.60000610352</ele>
        <time>2018-02-03T10:20:48.000Z</time>
      </trkpt>
      <trkpt lat="43.39294" lon="6.6433">
        <ele>135.39999389648</ele>
        <time>2018-02-03T10:20:49.000Z</time>
      </trkpt>
      <trkpt lat="43.3929" lon="6.64334">
        <ele>134.19999694824</ele>
        <time>2018-02-03T10:20:50.000Z</time>
      </trkpt>
      <trkpt lat="43.39285" lon="6.64337">
        <ele>132.80000305176</ele>
        <time>2018-02-03T10:20:51.000Z</time>
      </trkpt>
      <trkpt lat="43.39282" lon="6.6434">
        <ele>131.39999389648</ele>
        <time>2018-02-03T10:20:52.000Z</time>
      </trkpt>
      <trkpt lat="43.3928" lon="6.64343">
        <ele>130.19999694824</ele>
        <time>2018-02-03T10:20:53.000Z</time>
      </trkpt>
      <trkpt lat="43.39277" lon="6.64349">
        <ele>128.80000305176</ele>
        <time>2018-02-03T10:20:55.000Z</time>
      </trkpt>
      <trkpt lat="43.39276" lon="6.64351">
        <ele>128.39999389648</ele>
        <time>2018-02-03T10:20:56.000Z</time>
      </trkpt>
      <trkpt lat="43.39276" lon="6.64353">
        <ele>128.19999694824</ele>
        <time>2018-02-03T10:20:57.000Z</time>
      </trkpt>
      <trkpt lat="43.39274" lon="6.64359">
        <ele>127.59999847412</ele>
        <time>2018-02-03T10:21:00.000Z</time>
      </trkpt>
      <trkpt lat="43.39274" lon="6.64361">
        <ele>127.59999847412</ele>
        <time>2018-02-03T10:21:01.000Z</time>
      </trkpt>
      <trkpt lat="43.39273" lon="6.6437">
        <ele>127.40000152588</ele>
        <time>2018-02-03T10:21:06.000Z</time>
      </trkpt>
      <trkpt lat="43.39269" lon="6.64385">
        <ele>127.40000152588</ele>
        <time>2018-02-03T10:21:11.000Z</time>
      </trkpt>
      <trkpt lat="43.3926" lon="6.64393">
        <ele>127.40000152588</ele>
        <time>2018-02-03T10:21:15.000Z</time>
      </trkpt>
      <trkpt lat="43.39247" lon="6.64398">
        <ele>127</ele>
        <time>2018-02-03T10:21:19.000Z</time>
      </trkpt>
      <trkpt lat="43.39243" lon="6.64397">
        <ele>126.80000305176</ele>
        <time>2018-02-03T10:21:20.000Z</time>
      </trkpt>
      <trkpt lat="43.3924" lon="6.64396">
        <ele>126.59999847412</ele>
        <time>2018-02-03T10:21:21.000Z</time>
      </trkpt>
      <trkpt lat="43.39228" lon="6.64392">
        <ele>126.59999847412</ele>
        <time>2018-02-03T10:21:25.000Z</time>
      </trkpt>
      <trkpt lat="43.39213" lon="6.64388">
        <ele>125.80000305176</ele>
        <time>2018-02-03T10:21:30.000Z</time>
      </trkpt>
      <trkpt lat="43.39205" lon="6.64388">
        <ele>125.40000152588</ele>
        <time>2018-02-03T10:21:32.000Z</time>
      </trkpt>
      <trkpt lat="43.39196" lon="6.64389">
        <ele>124.80000305176</ele>
        <time>2018-02-03T10:21:35.000Z</time>
      </trkpt>
      <trkpt lat="43.39191" lon="6.64391">
        <ele>124.40000152588</ele>
        <time>2018-02-03T10:21:37.000Z</time>
      </trkpt>
      <trkpt lat="43.39176" lon="6.64398">
        <ele>124.80000305176</ele>
        <time>2018-02-03T10:21:42.000Z</time>
      </trkpt>
      <trkpt lat="43.39169" lon="6.64402">
        <ele>125.59999847412</ele>
        <time>2018-02-03T10:21:45.000Z</time>
      </trkpt>
      <trkpt lat="43.3916" lon="6.64408">
        <ele>126.19999694824</ele>
        <time>2018-02-03T10:21:48.000Z</time>
      </trkpt>
      <trkpt lat="43.39151" lon="6.64413">
        <ele>126.59999847412</ele>
        <time>2018-02-03T10:21:51.000Z</time>
      </trkpt>
      <trkpt lat="43.39143" lon="6.64417">
        <ele>127.19999694824</ele>
        <time>2018-02-03T10:21:54.000Z</time>
      </trkpt>
      <trkpt lat="43.39134" lon="6.64421">
        <ele>127.80000305176</ele>
        <time>2018-02-03T10:21:57.000Z</time>
      </trkpt>
      <trkpt lat="43.39114" lon="6.64429">
        <ele>128.80000305176</ele>
        <time>2018-02-03T10:22:03.000Z</time>
      </trkpt>
      <trkpt lat="43.39112" lon="6.64431">
        <ele>128.80000305176</ele>
        <time>2018-02-03T10:22:04.000Z</time>
      </trkpt>
      <trkpt lat="43.39095" lon="6.64439">
        <ele>130</ele>
        <time>2018-02-03T10:22:10.000Z</time>
      </trkpt>
      <trkpt lat="43.39087" lon="6.64444">
        <ele>130.39999389648</ele>
        <time>2018-02-03T10:22:13.000Z</time>
      </trkpt>
      <trkpt lat="43.39063" lon="6.64462">
        <ele>130.80000305176</ele>
        <time>2018-02-03T10:22:21.000Z</time>
      </trkpt>
      <trkpt lat="43.39052" lon="6.64472">
        <ele>131</ele>
        <time>2018-02-03T10:22:25.000Z</time>
      </trkpt>
      <trkpt lat="43.39042" lon="6.64482">
        <ele>131.39999389648</ele>
        <time>2018-02-03T10:22:29.000Z</time>
      </trkpt>
      <trkpt lat="43.3903" lon="6.64492">
        <ele>132.19999694824</ele>
        <time>2018-02-03T10:22:34.000Z</time>
      </trkpt>
      <trkpt lat="43.3902" lon="6.645">
        <ele>133.19999694824</ele>
        <time>2018-02-03T10:22:38.000Z</time>
      </trkpt>
      <trkpt lat="43.39018" lon="6.64503">
        <ele>133.39999389648</ele>
        <time>2018-02-03T10:22:39.000Z</time>
      </trkpt>
      <trkpt lat="43.38996" lon="6.64515">
        <ele>133.39999389648</ele>
        <time>2018-02-03T10:22:45.000Z</time>
      </trkpt>
      <trkpt lat="43.38984" lon="6.64522">
        <ele>133.19999694824</ele>
        <time>2018-02-03T10:22:48.000Z</time>
      </trkpt>
      <trkpt lat="43.38976" lon="6.64529">
        <ele>133</ele>
        <time>2018-02-03T10:22:50.000Z</time>
      </trkpt>
      <trkpt lat="43.38966" lon="6.64556">
        <ele>132.39999389648</ele>
        <time>2018-02-03T10:22:55.000Z</time>
      </trkpt>
      <trkpt lat="43.38964" lon="6.64582">
        <ele>133.39999389648</ele>
        <time>2018-02-03T10:23:00.000Z</time>
      </trkpt>
      <trkpt lat="43.38961" lon="6.6461">
        <ele>134.19999694824</ele>
        <time>2018-02-03T10:23:06.000Z</time>
      </trkpt>
      <trkpt lat="43.3896" lon="6.64615">
        <ele>134.39999389648</ele>
        <time>2018-02-03T10:23:07.000Z</time>
      </trkpt>
      <trkpt lat="43.38957" lon="6.64628">
        <ele>134.39999389648</ele>
        <time>2018-02-03T10:23:09.000Z</time>
      </trkpt>
      <trkpt lat="43.3895" lon="6.64641">
        <ele>133.60000610352</ele>
        <time>2018-02-03T10:23:11.000Z</time>
      </trkpt>
      <trkpt lat="43.38945" lon="6.64646">
        <ele>132.80000305176</ele>
        <time>2018-02-03T10:23:12.000Z</time>
      </trkpt>
      <trkpt lat="43.38939" lon="6.6465">
        <ele>131.80000305176</ele>
        <time>2018-02-03T10:23:13.000Z</time>
      </trkpt>
      <trkpt lat="43.38934" lon="6.64652">
        <ele>131.39999389648</ele>
        <time>2018-02-03T10:23:14.000Z</time>
      </trkpt>
      <trkpt lat="43.38928" lon="6.64654">
        <ele>130.80000305176</ele>
        <time>2018-02-03T10:23:15.000Z</time>
      </trkpt>
      <trkpt lat="43.38923" lon="6.64656">
        <ele>130.19999694824</ele>
        <time>2018-02-03T10:23:16.000Z</time>
      </trkpt>
      <trkpt lat="43.38912" lon="6.64661">
        <ele>130</ele>
        <time>2018-02-03T10:23:18.000Z</time>
      </trkpt>
      <trkpt lat="43.38907" lon="6.64664">
        <ele>129.80000305176</ele>
        <time>2018-02-03T10:23:19.000Z</time>
      </trkpt>
      <trkpt lat="43.3887" lon="6.64695">
        <ele>129.19999694824</ele>
        <time>2018-02-03T10:23:27.000Z</time>
      </trkpt>
      <trkpt lat="43.38862" lon="6.64701">
        <ele>129.19999694824</ele>
        <time>2018-02-03T10:23:29.000Z</time>
      </trkpt>
      <trkpt lat="43.38852" lon="6.64705">
        <ele>129</ele>
        <time>2018-02-03T10:23:31.000Z</time>
      </trkpt>
      <trkpt lat="43.38838" lon="6.64702">
        <ele>129.39999389648</ele>
        <time>2018-02-03T10:23:35.000Z</time>
      </trkpt>
      <trkpt lat="43.38829" lon="6.64701">
        <ele>129.80000305176</ele>
        <time>2018-02-03T10:23:37.000Z</time>
      </trkpt>
      <trkpt lat="43.38811" lon="6.64701">
        <ele>130</ele>
        <time>2018-02-03T10:23:41.000Z</time>
      </trkpt>
      <trkpt lat="43.38807" lon="6.64701">
        <ele>130</ele>
        <time>2018-02-03T10:23:42.000Z</time>
      </trkpt>
      <trkpt lat="43.38794" lon="6.64704">
        <ele>130</ele>
        <time>2018-02-03T10:23:45.000Z</time>
      </trkpt>
      <trkpt lat="43.3879" lon="6.64705">
        <ele>130.19999694824</ele>
        <time>2018-02-03T10:23:46.000Z</time>
      </trkpt>
      <trkpt lat="43.3878" lon="6.64709">
        <ele>130.19999694824</ele>
        <time>2018-02-03T10:23:49.000Z</time>
      </trkpt>
      <trkpt lat="43.38776" lon="6.64711">
        <ele>130.19999694824</ele>
        <time>2018-02-03T10:23:51.000Z</time>
      </trkpt>
      <trkpt lat="43.38773" lon="6.64713">
        <ele>131.39999389648</ele>
        <time>2018-02-03T10:23:55.000Z</time>
      </trkpt>
      <trkpt lat="43.38772" lon="6.64713">
        <ele>131.80000305176</ele>
        <time>2018-02-03T10:23:56.000Z</time>
      </trkpt>
      <trkpt lat="43.3877" lon="6.64715">
        <ele>131.60000610352</ele>
        <time>2018-02-03T10:24:08.000Z</time>
      </trkpt>
      <trkpt lat="43.38769" lon="6.64717">
        <ele>131.80000305176</ele>
        <time>2018-02-03T10:24:09.000Z</time>
      </trkpt>
      <trkpt lat="43.38768" lon="6.64724">
        <ele>131.80000305176</ele>
        <time>2018-02-03T10:24:12.000Z</time>
      </trkpt>
      <trkpt lat="43.38767" lon="6.64732">
        <ele>132.39999389648</ele>
        <time>2018-02-03T10:24:15.000Z</time>
      </trkpt>
      <trkpt lat="43.38766" lon="6.64734">
        <ele>132.60000610352</ele>
        <time>2018-02-03T10:24:16.000Z</time>
      </trkpt>
      <trkpt lat="43.38765" lon="6.64739">
        <ele>132.80000305176</ele>
        <time>2018-02-03T10:24:18.000Z</time>
      </trkpt>
      <trkpt lat="43.38763" lon="6.6475">
        <ele>133.80000305176</ele>
        <time>2018-02-03T10:24:22.000Z</time>
      </trkpt>
      <trkpt lat="43.38762" lon="6.64756">
        <ele>134.80000305176</ele>
        <time>2018-02-03T10:24:25.000Z</time>
      </trkpt>
      <trkpt lat="43.38762" lon="6.64757">
        <ele>135</ele>
        <time>2018-02-03T10:24:26.000Z</time>
      </trkpt>
      <trkpt lat="43.38761" lon="6.64757">
        <ele>136</ele>
        <time>2018-02-03T10:24:30.000Z</time>
      </trkpt>
      <trkpt lat="43.38761" lon="6.64757">
        <ele>136.19999694824</ele>
        <time>2018-02-03T10:24:31.000Z</time>
      </trkpt>
      <trkpt lat="43.38761" lon="6.64757">
        <ele>136.80000305176</ele>
        <time>2018-02-03T10:24:36.000Z</time>
      </trkpt>
      <trkpt lat="43.38761" lon="6.64756">
        <ele>136.39999389648</ele>
        <time>2018-02-03T10:24:45.000Z</time>
      </trkpt>
      <trkpt lat="43.38761" lon="6.64756">
        <ele>136.39999389648</ele>
        <time>2018-02-03T10:25:04.000Z</time>
      </trkpt>
      <trkpt lat="43.38761" lon="6.64756">
        <ele>135.80000305176</ele>
        <time>2018-02-03T10:25:28.000Z</time>
      </trkpt>
      <trkpt lat="43.38761" lon="6.64757">
        <ele>135.60000610352</ele>
        <time>2018-02-03T10:25:34.000Z</time>
      </trkpt>
      <trkpt lat="43.38762" lon="6.64757">
        <ele>136</ele>
        <time>2018-02-03T10:25:43.000Z</time>
      </trkpt>
      <trkpt lat="43.38761" lon="6.64757">
        <ele>136.39999389648</ele>
        <time>2018-02-03T10:26:12.000Z</time>
      </trkpt>
      <trkpt lat="43.38762" lon="6.6476">
        <ele>137</ele>
        <time>2018-02-03T10:26:22.000Z</time>
      </trkpt>
      <trkpt lat="43.38762" lon="6.6476">
        <ele>136.19999694824</ele>
        <time>2018-02-03T10:26:42.000Z</time>
      </trkpt>
      <trkpt lat="43.38761" lon="6.6476">
        <ele>136.39999389648</ele>
        <time>2018-02-03T10:27:06.000Z</time>
      </trkpt>
      <trkpt lat="43.38762" lon="6.64764">
        <ele>136.39999389648</ele>
        <time>2018-02-03T10:27:16.000Z</time>
      </trkpt>
      <trkpt lat="43.38762" lon="6.64766">
        <ele>136.39999389648</ele>
        <time>2018-02-03T10:27:17.000Z</time>
      </trkpt>
      <trkpt lat="43.38761" lon="6.64785">
        <ele>136</ele>
        <time>2018-02-03T10:27:23.000Z</time>
      </trkpt>
      <trkpt lat="43.38758" lon="6.648">
        <ele>135.19999694824</ele>
        <time>2018-02-03T10:27:27.000Z</time>
      </trkpt>
      <trkpt lat="43.38755" lon="6.64813">
        <ele>134.60000610352</ele>
        <time>2018-02-03T10:27:29.000Z</time>
      </trkpt>
      <trkpt lat="43.38749" lon="6.64825">
        <ele>134.19999694824</ele>
        <time>2018-02-03T10:27:32.000Z</time>
      </trkpt>
      <trkpt lat="43.38745" lon="6.6483">
        <ele>134</ele>
        <time>2018-02-03T10:27:34.000Z</time>
      </trkpt>
      <trkpt lat="43.38739" lon="6.64836">
        <ele>133.60000610352</ele>
        <time>2018-02-03T10:27:36.000Z</time>
      </trkpt>
      <trkpt lat="43.38731" lon="6.6484">
        <ele>132.80000305176</ele>
        <time>2018-02-03T10:27:38.000Z</time>
      </trkpt>
      <trkpt lat="43.38715" lon="6.64845">
        <ele>131.60000610352</ele>
        <time>2018-02-03T10:27:41.000Z</time>
      </trkpt>
      <trkpt lat="43.38703" lon="6.64849">
        <ele>130</ele>
        <time>2018-02-03T10:27:43.000Z</time>
      </trkpt>
      <trkpt lat="43.3869" lon="6.64853">
        <ele>128.19999694824</ele>
        <time>2018-02-03T10:27:45.000Z</time>
      </trkpt>
      <trkpt lat="43.38676" lon="6.64855">
        <ele>126.80000305176</ele>
        <time>2018-02-03T10:27:47.000Z</time>
      </trkpt>
      <trkpt lat="43.38654" lon="6.6486">
        <ele>125.59999847412</ele>
        <time>2018-02-03T10:27:50.000Z</time>
      </trkpt>
      <trkpt lat="43.38641" lon="6.64868">
        <ele>124</ele>
        <time>2018-02-03T10:27:52.000Z</time>
      </trkpt>
      <trkpt lat="43.38628" lon="6.64876">
        <ele>122.19999694824</ele>
        <time>2018-02-03T10:27:54.000Z</time>
      </trkpt>
      <trkpt lat="43.38609" lon="6.64887">
        <ele>122.19999694824</ele>
        <time>2018-02-03T10:27:57.000Z</time>
      </trkpt>
      <trkpt lat="43.38604" lon="6.64891">
        <ele>122.19999694824</ele>
        <time>2018-02-03T10:27:58.000Z</time>
      </trkpt>
      <trkpt lat="43.386" lon="6.64895">
        <ele>122.19999694824</ele>
        <time>2018-02-03T10:27:59.000Z</time>
      </trkpt>
      <trkpt lat="43.38587" lon="6.64906">
        <ele>120.80000305176</ele>
        <time>2018-02-03T10:28:02.000Z</time>
      </trkpt>
      <trkpt lat="43.38584" lon="6.6491">
        <ele>119.59999847412</ele>
        <time>2018-02-03T10:28:03.000Z</time>
      </trkpt>
      <trkpt lat="43.38581" lon="6.64912">
        <ele>117.80000305176</ele>
        <time>2018-02-03T10:28:05.000Z</time>
      </trkpt>
      <trkpt lat="43.38581" lon="6.64913">
        <ele>116.80000305176</ele>
        <time>2018-02-03T10:28:09.000Z</time>
      </trkpt>
      <trkpt lat="43.38582" lon="6.64913">
        <ele>116.80000305176</ele>
        <time>2018-02-03T10:28:16.000Z</time>
      </trkpt>
      <trkpt lat="43.38582" lon="6.64913">
        <ele>117.40000152588</ele>
        <time>2018-02-03T10:28:35.000Z</time>
      </trkpt>
      <trkpt lat="43.3858" lon="6.64916">
        <ele>117.40000152588</ele>
        <time>2018-02-03T10:28:40.000Z</time>
      </trkpt>
      <trkpt lat="43.38579" lon="6.64916">
        <ele>117.40000152588</ele>
        <time>2018-02-03T10:28:41.000Z</time>
      </trkpt>
      <trkpt lat="43.38569" lon="6.64912">
        <ele>116.59999847412</ele>
        <time>2018-02-03T10:28:45.000Z</time>
      </trkpt>
      <trkpt lat="43.38561" lon="6.6491">
        <ele>115.40000152588</ele>
        <time>2018-02-03T10:28:47.000Z</time>
      </trkpt>
      <trkpt lat="43.38556" lon="6.64909">
        <ele>114.40000152588</ele>
        <time>2018-02-03T10:28:48.000Z</time>
      </trkpt>
      <trkpt lat="43.38547" lon="6.64906">
        <ele>112.40000152588</ele>
        <time>2018-02-03T10:28:50.000Z</time>
      </trkpt>
      <trkpt lat="43.38542" lon="6.64904">
        <ele>111.19999694824</ele>
        <time>2018-02-03T10:28:51.000Z</time>
      </trkpt>
      <trkpt lat="43.38537" lon="6.64903">
        <ele>110</ele>
        <time>2018-02-03T10:28:52.000Z</time>
      </trkpt>
      <trkpt lat="43.38532" lon="6.64901">
        <ele>108.19999694824</ele>
        <time>2018-02-03T10:28:53.000Z</time>
      </trkpt>
      <trkpt lat="43.38528" lon="6.64899">
        <ele>107.59999847412</ele>
        <time>2018-02-03T10:28:54.000Z</time>
      </trkpt>
      <trkpt lat="43.38524" lon="6.64896">
        <ele>106.40000152588</ele>
        <time>2018-02-03T10:28:55.000Z</time>
      </trkpt>
      <trkpt lat="43.38521" lon="6.64893">
        <ele>105.59999847412</ele>
        <time>2018-02-03T10:28:56.000Z</time>
      </trkpt>
      <trkpt lat="43.38517" lon="6.64889">
        <ele>105</ele>
        <time>2018-02-03T10:28:57.000Z</time>
      </trkpt>
      <trkpt lat="43.38514" lon="6.64886">
        <ele>103.80000305176</ele>
        <time>2018-02-03T10:28:58.000Z</time>
      </trkpt>
      <trkpt lat="43.38511" lon="6.64883">
        <ele>102.80000305176</ele>
        <time>2018-02-03T10:28:59.000Z</time>
      </trkpt>
      <trkpt lat="43.38503" lon="6.64876">
        <ele>100.59999847412</ele>
        <time>2018-02-03T10:29:01.000Z</time>
      </trkpt>
      <trkpt lat="43.385" lon="6.64873">
        <ele>99.400001525879</ele>
        <time>2018-02-03T10:29:02.000Z</time>
      </trkpt>
      <trkpt lat="43.38496" lon="6.6487">
        <ele>98.400001525879</ele>
        <time>2018-02-03T10:29:03.000Z</time>
      </trkpt>
      <trkpt lat="43.38493" lon="6.64868">
        <ele>96.800003051758</ele>
        <time>2018-02-03T10:29:04.000Z</time>
      </trkpt>
      <trkpt lat="43.3849" lon="6.64866">
        <ele>95.400001525879</ele>
        <time>2018-02-03T10:29:05.000Z</time>
      </trkpt>
      <trkpt lat="43.38488" lon="6.64863">
        <ele>93.800003051758</ele>
        <time>2018-02-03T10:29:06.000Z</time>
      </trkpt>
      <trkpt lat="43.38485" lon="6.64861">
        <ele>92.400001525879</ele>
        <time>2018-02-03T10:29:07.000Z</time>
      </trkpt>
      <trkpt lat="43.38482" lon="6.64859">
        <ele>90.800003051758</ele>
        <time>2018-02-03T10:29:08.000Z</time>
      </trkpt>
      <trkpt lat="43.38474" lon="6.6486">
        <ele>89.400001525879</ele>
        <time>2018-02-03T10:29:10.000Z</time>
      </trkpt>
      <trkpt lat="43.38468" lon="6.64861">
        <ele>87.400001525879</ele>
        <time>2018-02-03T10:29:11.000Z</time>
      </trkpt>
      <trkpt lat="43.38462" lon="6.64861">
        <ele>86.199996948242</ele>
        <time>2018-02-03T10:29:12.000Z</time>
      </trkpt>
      <trkpt lat="43.38457" lon="6.64859">
        <ele>84.800003051758</ele>
        <time>2018-02-03T10:29:13.000Z</time>
      </trkpt>
      <trkpt lat="43.38452" lon="6.64858">
        <ele>83.599998474121</ele>
        <time>2018-02-03T10:29:14.000Z</time>
      </trkpt>
      <trkpt lat="43.38446" lon="6.64858">
        <ele>82.199996948242</ele>
        <time>2018-02-03T10:29:15.000Z</time>
      </trkpt>
      <trkpt lat="43.38436" lon="6.64859">
        <ele>79.800003051758</ele>
        <time>2018-02-03T10:29:17.000Z</time>
      </trkpt>
      <trkpt lat="43.3843" lon="6.64862">
        <ele>78.199996948242</ele>
        <time>2018-02-03T10:29:18.000Z</time>
      </trkpt>
      <trkpt lat="43.38425" lon="6.64865">
        <ele>76.800003051758</ele>
        <time>2018-02-03T10:29:19.000Z</time>
      </trkpt>
      <trkpt lat="43.3842" lon="6.64868">
        <ele>75.599998474121</ele>
        <time>2018-02-03T10:29:20.000Z</time>
      </trkpt>
      <trkpt lat="43.38414" lon="6.64871">
        <ele>74.199996948242</ele>
        <time>2018-02-03T10:29:21.000Z</time>
      </trkpt>
      <trkpt lat="43.38408" lon="6.6487">
        <ele>73</ele>
        <time>2018-02-03T10:29:22.000Z</time>
      </trkpt>
      <trkpt lat="43.38403" lon="6.64867">
        <ele>71.599998474121</ele>
        <time>2018-02-03T10:29:23.000Z</time>
      </trkpt>
      <trkpt lat="43.38398" lon="6.64861">
        <ele>70.800003051758</ele>
        <time>2018-02-03T10:29:24.000Z</time>
      </trkpt>
      <trkpt lat="43.38394" lon="6.64854">
        <ele>70.199996948242</ele>
        <time>2018-02-03T10:29:25.000Z</time>
      </trkpt>
      <trkpt lat="43.38388" lon="6.64848">
        <ele>69</ele>
        <time>2018-02-03T10:29:26.000Z</time>
      </trkpt>
      <trkpt lat="43.38375" lon="6.64843">
        <ele>67.599998474121</ele>
        <time>2018-02-03T10:29:28.000Z</time>
      </trkpt>
      <trkpt lat="43.3837" lon="6.64843">
        <ele>66.199996948242</ele>
        <time>2018-02-03T10:29:29.000Z</time>
      </trkpt>
      <trkpt lat="43.38366" lon="6.64843">
        <ele>65.400001525879</ele>
        <time>2018-02-03T10:29:30.000Z</time>
      </trkpt>
      <trkpt lat="43.38364" lon="6.64843">
        <ele>64.800003051758</ele>
        <time>2018-02-03T10:29:31.000Z</time>
      </trkpt>
      <trkpt lat="43.38362" lon="6.64844">
        <ele>64</ele>
        <time>2018-02-03T10:29:32.000Z</time>
      </trkpt>
      <trkpt lat="43.38359" lon="6.64846">
        <ele>63.400001525879</ele>
        <time>2018-02-03T10:29:33.000Z</time>
      </trkpt>
      <trkpt lat="43.38356" lon="6.64847">
        <ele>62.400001525879</ele>
        <time>2018-02-03T10:29:35.000Z</time>
      </trkpt>
      <trkpt lat="43.38351" lon="6.64851">
        <ele>61.400001525879</ele>
        <time>2018-02-03T10:29:37.000Z</time>
      </trkpt>
      <trkpt lat="43.38349" lon="6.64855">
        <ele>61</ele>
        <time>2018-02-03T10:29:38.000Z</time>
      </trkpt>
      <trkpt lat="43.38345" lon="6.64862">
        <ele>59.799999237061</ele>
        <time>2018-02-03T10:29:40.000Z</time>
      </trkpt>
      <trkpt lat="43.38343" lon="6.64863">
        <ele>59.200000762939</ele>
        <time>2018-02-03T10:29:41.000Z</time>
      </trkpt>
      <trkpt lat="43.38341" lon="6.64862">
        <ele>58.799999237061</ele>
        <time>2018-02-03T10:29:42.000Z</time>
      </trkpt>
      <trkpt lat="43.38333" lon="6.6486">
        <ele>58.200000762939</ele>
        <time>2018-02-03T10:29:44.000Z</time>
      </trkpt>
      <trkpt lat="43.38327" lon="6.64859">
        <ele>57.799999237061</ele>
        <time>2018-02-03T10:29:46.000Z</time>
      </trkpt>
      <trkpt lat="43.38325" lon="6.6486">
        <ele>57.200000762939</ele>
        <time>2018-02-03T10:29:47.000Z</time>
      </trkpt>
      <trkpt lat="43.38321" lon="6.6486">
        <ele>56.599998474121</ele>
        <time>2018-02-03T10:29:48.000Z</time>
      </trkpt>
      <trkpt lat="43.38319" lon="6.64859">
        <ele>56.400001525879</ele>
        <time>2018-02-03T10:29:49.000Z</time>
      </trkpt>
      <trkpt lat="43.38315" lon="6.64857">
        <ele>55.599998474121</ele>
        <time>2018-02-03T10:29:50.000Z</time>
      </trkpt>
      <trkpt lat="43.38314" lon="6.64856">
        <ele>55</ele>
        <time>2018-02-03T10:29:51.000Z</time>
      </trkpt>
      <trkpt lat="43.38314" lon="6.64852">
        <ele>54</ele>
        <time>2018-02-03T10:29:52.000Z</time>
      </trkpt>
      <trkpt lat="43.38313" lon="6.64845">
        <ele>52.799999237061</ele>
        <time>2018-02-03T10:29:54.000Z</time>
      </trkpt>
      <trkpt lat="43.38312" lon="6.64837">
        <ele>51.799999237061</ele>
        <time>2018-02-03T10:29:56.000Z</time>
      </trkpt>
      <trkpt lat="43.38308" lon="6.64827">
        <ele>51</ele>
        <time>2018-02-03T10:29:59.000Z</time>
      </trkpt>
      <trkpt lat="43.38307" lon="6.64821">
        <ele>50.400001525879</ele>
        <time>2018-02-03T10:30:01.000Z</time>
      </trkpt>
      <trkpt lat="43.38308" lon="6.64816">
        <ele>49.599998474121</ele>
        <time>2018-02-03T10:30:04.000Z</time>
      </trkpt>
      <trkpt lat="43.38309" lon="6.64816">
        <ele>49.400001525879</ele>
        <time>2018-02-03T10:30:05.000Z</time>
      </trkpt>
      <trkpt lat="43.3831" lon="6.64812">
        <ele>49.400001525879</ele>
        <time>2018-02-03T10:30:07.000Z</time>
      </trkpt>
      <trkpt lat="43.38309" lon="6.64809">
        <ele>49.599998474121</ele>
        <time>2018-02-03T10:30:09.000Z</time>
      </trkpt>
      <trkpt lat="43.38303" lon="6.64807">
        <ele>50</ele>
        <time>2018-02-03T10:30:14.000Z</time>
      </trkpt>
      <trkpt lat="43.38299" lon="6.64807">
        <ele>50.599998474121</ele>
        <time>2018-02-03T10:30:16.000Z</time>
      </trkpt>
      <trkpt lat="43.38293" lon="6.64805">
        <ele>51.400001525879</ele>
        <time>2018-02-03T10:30:19.000Z</time>
      </trkpt>
      <trkpt lat="43.38291" lon="6.64804">
        <ele>51.599998474121</ele>
        <time>2018-02-03T10:30:20.000Z</time>
      </trkpt>
      <trkpt lat="43.38285" lon="6.64802">
        <ele>52.799999237061</ele>
        <time>2018-02-03T10:30:24.000Z</time>
      </trkpt>
      <trkpt lat="43.38286" lon="6.64802">
        <ele>53.200000762939</ele>
        <time>2018-02-03T10:30:25.000Z</time>
      </trkpt>
      <trkpt lat="43.38283" lon="6.64801">
        <ele>53.599998474121</ele>
        <time>2018-02-03T10:30:31.000Z</time>
      </trkpt>
      <trkpt lat="43.38281" lon="6.648">
        <ele>53.799999237061</ele>
        <time>2018-02-03T10:30:33.000Z</time>
      </trkpt>
      <trkpt lat="43.38278" lon="6.64798">
        <ele>54.599998474121</ele>
        <time>2018-02-03T10:30:38.000Z</time>
      </trkpt>
      <trkpt lat="43.38277" lon="6.64795">
        <ele>55</ele>
        <time>2018-02-03T10:30:41.000Z</time>
      </trkpt>
      <trkpt lat="43.38275" lon="6.64793">
        <ele>55.400001525879</ele>
        <time>2018-02-03T10:30:44.000Z</time>
      </trkpt>
      <trkpt lat="43.38274" lon="6.64792">
        <ele>55.799999237061</ele>
        <time>2018-02-03T10:30:49.000Z</time>
      </trkpt>
      <trkpt lat="43.38269" lon="6.64787">
        <ele>55.799999237061</ele>
        <time>2018-02-03T10:30:54.000Z</time>
      </trkpt>
      <trkpt lat="43.38268" lon="6.64786">
        <ele>56.200000762939</ele>
        <time>2018-02-03T10:30:56.000Z</time>
      </trkpt>
      <trkpt lat="43.38265" lon="6.64784">
        <ele>57.200000762939</ele>
        <time>2018-02-03T10:31:03.000Z</time>
      </trkpt>
      <trkpt lat="43.38265" lon="6.64783">
        <ele>57.599998474121</ele>
        <time>2018-02-03T10:31:14.000Z</time>
      </trkpt>
      <trkpt lat="43.38264" lon="6.64784">
        <ele>57.400001525879</ele>
        <time>2018-02-03T10:31:25.000Z</time>
      </trkpt>
      <trkpt lat="43.38264" lon="6.64785">
        <ele>57.200000762939</ele>
        <time>2018-02-03T10:31:38.000Z</time>
      </trkpt>
      <trkpt lat="43.38264" lon="6.64785">
        <ele>57</ele>
        <time>2018-02-03T10:31:52.000Z</time>
      </trkpt>
      <trkpt lat="43.38263" lon="6.64785">
        <ele>56.799999237061</ele>
        <time>2018-02-03T10:32:10.000Z</time>
      </trkpt>
      <trkpt lat="43.38263" lon="6.64785">
        <ele>57</ele>
        <time>2018-02-03T10:32:32.000Z</time>
      </trkpt>
      <trkpt lat="43.38263" lon="6.64784">
        <ele>57</ele>
        <time>2018-02-03T10:32:50.000Z</time>
      </trkpt>
      <trkpt lat="43.38262" lon="6.64784">
        <ele>57</ele>
        <time>2018-02-03T10:33:13.000Z</time>
      </trkpt>
      <trkpt lat="43.38262" lon="6.64785">
        <ele>57.200000762939</ele>
        <time>2018-02-03T10:33:24.000Z</time>
      </trkpt>
      <trkpt lat="43.38262" lon="6.64785">
        <ele>56.799999237061</ele>
        <time>2018-02-03T10:33:56.000Z</time>
      </trkpt>
      <trkpt lat="43.38262" lon="6.64785">
        <ele>56.599998474121</ele>
        <time>2018-02-03T10:34:19.000Z</time>
      </trkpt>
      <trkpt lat="43.38262" lon="6.64785">
        <ele>56.599998474121</ele>
        <time>2018-02-03T10:34:50.000Z</time>
      </trkpt>
      <trkpt lat="43.38262" lon="6.64785">
        <ele>56.200000762939</ele>
        <time>2018-02-03T10:35:01.000Z</time>
      </trkpt>
      <trkpt lat="43.38263" lon="6.64785">
        <ele>56.400001525879</ele>
        <time>2018-02-03T10:35:28.000Z</time>
      </trkpt>
      <trkpt lat="43.38263" lon="6.64785">
        <ele>56.200000762939</ele>
        <time>2018-02-03T10:35:48.000Z</time>
      </trkpt>
      <trkpt lat="43.38262" lon="6.64786">
        <ele>56.200000762939</ele>
        <time>2018-02-03T10:36:01.000Z</time>
      </trkpt>
      <trkpt lat="43.38261" lon="6.64785">
        <ele>56.200000762939</ele>
        <time>2018-02-03T10:36:11.000Z</time>
      </trkpt>
      <trkpt lat="43.38259" lon="6.64784">
        <ele>56</ele>
        <time>2018-02-03T10:36:13.000Z</time>
      </trkpt>
      <trkpt lat="43.38252" lon="6.6478">
        <ele>55.799999237061</ele>
        <time>2018-02-03T10:36:16.000Z</time>
      </trkpt>
      <trkpt lat="43.38235" lon="6.64775">
        <ele>55.400001525879</ele>
        <time>2018-02-03T10:36:21.000Z</time>
      </trkpt>
      <trkpt lat="43.38217" lon="6.64772">
        <ele>55.799999237061</ele>
        <time>2018-02-03T10:36:27.000Z</time>
      </trkpt>
      <trkpt lat="43.38197" lon="6.64771">
        <ele>57.400001525879</ele>
        <time>2018-02-03T10:36:36.000Z</time>
      </trkpt>
      <trkpt lat="43.38188" lon="6.64769">
        <ele>58.400001525879</ele>
        <time>2018-02-03T10:36:41.000Z</time>
      </trkpt>
      <trkpt lat="43.38185" lon="6.64769">
        <ele>58.599998474121</ele>
        <time>2018-02-03T10:36:43.000Z</time>
      </trkpt>
      <trkpt lat="43.38177" lon="6.6477">
        <ele>59.799999237061</ele>
        <time>2018-02-03T10:36:48.000Z</time>
      </trkpt>
      <trkpt lat="43.38175" lon="6.6477">
        <ele>60.400001525879</ele>
        <time>2018-02-03T10:36:50.000Z</time>
      </trkpt>
      <trkpt lat="43.38174" lon="6.64768">
        <ele>60.599998474121</ele>
        <time>2018-02-03T10:36:51.000Z</time>
      </trkpt>
      <trkpt lat="43.38175" lon="6.64768">
        <ele>61</ele>
        <time>2018-02-03T10:36:52.000Z</time>
      </trkpt>
      <trkpt lat="43.38174" lon="6.64768">
        <ele>61.599998474121</ele>
        <time>2018-02-03T10:36:54.000Z</time>
      </trkpt>
      <trkpt lat="43.3817" lon="6.64768">
        <ele>61.799999237061</ele>
        <time>2018-02-03T10:37:02.000Z</time>
      </trkpt>
      <trkpt lat="43.38169" lon="6.64768">
        <ele>62.200000762939</ele>
        <time>2018-02-03T10:37:05.000Z</time>
      </trkpt>
      <trkpt lat="43.38168" lon="6.64768">
        <ele>62.400001525879</ele>
        <time>2018-02-03T10:37:07.000Z</time>
      </trkpt>
      <trkpt lat="43.38165" lon="6.64767">
        <ele>63.200000762939</ele>
        <time>2018-02-03T10:37:12.000Z</time>
      </trkpt>
      <trkpt lat="43.38165" lon="6.64767">
        <ele>63.599998474121</ele>
        <time>2018-02-03T10:37:14.000Z</time>
      </trkpt>
      <trkpt lat="43.38163" lon="6.64766">
        <ele>64.400001525879</ele>
        <time>2018-02-03T10:37:21.000Z</time>
      </trkpt>
      <trkpt lat="43.38163" lon="6.64766">
        <ele>65</ele>
        <time>2018-02-03T10:37:29.000Z</time>
      </trkpt>
      <trkpt lat="43.3816" lon="6.64766">
        <ele>65</ele>
        <time>2018-02-03T10:37:35.000Z</time>
      </trkpt>
      <trkpt lat="43.3816" lon="6.64767">
        <ele>65</ele>
        <time>2018-02-03T10:37:36.000Z</time>
      </trkpt>
      <trkpt lat="43.38159" lon="6.64768">
        <ele>65.199996948242</ele>
        <time>2018-02-03T10:37:37.000Z</time>
      </trkpt>
      <trkpt lat="43.38157" lon="6.64767">
        <ele>65.400001525879</ele>
        <time>2018-02-03T10:37:39.000Z</time>
      </trkpt>
      <trkpt lat="43.38156" lon="6.64767">
        <ele>65.599998474121</ele>
        <time>2018-02-03T10:37:40.000Z</time>
      </trkpt>
      <trkpt lat="43.38155" lon="6.64766">
        <ele>65.800003051758</ele>
        <time>2018-02-03T10:37:42.000Z</time>
      </trkpt>
      <trkpt lat="43.38153" lon="6.64765">
        <ele>66.599998474121</ele>
        <time>2018-02-03T10:37:47.000Z</time>
      </trkpt>
      <trkpt lat="43.38152" lon="6.64765">
        <ele>67.199996948242</ele>
        <time>2018-02-03T10:37:50.000Z</time>
      </trkpt>
      <trkpt lat="43.38151" lon="6.64763">
        <ele>66.599998474121</ele>
        <time>2018-02-03T10:37:57.000Z</time>
      </trkpt>
      <trkpt lat="43.3815" lon="6.64759">
        <ele>67.199996948242</ele>
        <time>2018-02-03T10:38:01.000Z</time>
      </trkpt>
      <trkpt lat="43.3815" lon="6.6476">
        <ele>67.400001525879</ele>
        <time>2018-02-03T10:38:03.000Z</time>
      </trkpt>
      <trkpt lat="43.38147" lon="6.64759">
        <ele>67.400001525879</ele>
        <time>2018-02-03T10:38:10.000Z</time>
      </trkpt>
      <trkpt lat="43.38138" lon="6.64757">
        <ele>67.599998474121</ele>
        <time>2018-02-03T10:38:16.000Z</time>
      </trkpt>
      <trkpt lat="43.38135" lon="6.64756">
        <ele>67.800003051758</ele>
        <time>2018-02-03T10:38:18.000Z</time>
      </trkpt>
      <trkpt lat="43.38124" lon="6.64753">
        <ele>68.199996948242</ele>
        <time>2018-02-03T10:38:25.000Z</time>
      </trkpt>
      <trkpt lat="43.38123" lon="6.64754">
        <ele>68.599998474121</ele>
        <time>2018-02-03T10:38:26.000Z</time>
      </trkpt>
      <trkpt lat="43.38121" lon="6.64756">
        <ele>68.800003051758</ele>
        <time>2018-02-03T10:38:27.000Z</time>
      </trkpt>
      <trkpt lat="43.38118" lon="6.64758">
        <ele>69.599998474121</ele>
        <time>2018-02-03T10:38:30.000Z</time>
      </trkpt>
      <trkpt lat="43.38116" lon="6.64758">
        <ele>69.400001525879</ele>
        <time>2018-02-03T10:38:35.000Z</time>
      </trkpt>
      <trkpt lat="43.38112" lon="6.64758">
        <ele>69.800003051758</ele>
        <time>2018-02-03T10:38:40.000Z</time>
      </trkpt>
      <trkpt lat="43.38109" lon="6.64758">
        <ele>70.800003051758</ele>
        <time>2018-02-03T10:38:43.000Z</time>
      </trkpt>
      <trkpt lat="43.38109" lon="6.64758">
        <ele>71</ele>
        <time>2018-02-03T10:38:44.000Z</time>
      </trkpt>
      <trkpt lat="43.381" lon="6.64759">
        <ele>71.400001525879</ele>
        <time>2018-02-03T10:38:53.000Z</time>
      </trkpt>
      <trkpt lat="43.38098" lon="6.64757">
        <ele>71.199996948242</ele>
        <time>2018-02-03T10:38:58.000Z</time>
      </trkpt>
      <trkpt lat="43.38099" lon="6.64758">
        <ele>71.199996948242</ele>
        <time>2018-02-03T10:39:02.000Z</time>
      </trkpt>
      <trkpt lat="43.38099" lon="6.64758">
        <ele>71.599998474121</ele>
        <time>2018-02-03T10:39:15.000Z</time>
      </trkpt>
      <trkpt lat="43.38098" lon="6.64756">
        <ele>71.599998474121</ele>
        <time>2018-02-03T10:39:24.000Z</time>
      </trkpt>
      <trkpt lat="43.38097" lon="6.64755">
        <ele>71.800003051758</ele>
        <time>2018-02-03T10:39:25.000Z</time>
      </trkpt>
      <trkpt lat="43.38092" lon="6.64752">
        <ele>72</ele>
        <time>2018-02-03T10:39:28.000Z</time>
      </trkpt>
      <trkpt lat="43.38089" lon="6.64748">
        <ele>72.199996948242</ele>
        <time>2018-02-03T10:39:30.000Z</time>
      </trkpt>
      <trkpt lat="43.3808" lon="6.64727">
        <ele>72.199996948242</ele>
        <time>2018-02-03T10:39:37.000Z</time>
      </trkpt>
      <trkpt lat="43.38076" lon="6.647">
        <ele>72.199996948242</ele>
        <time>2018-02-03T10:39:44.000Z</time>
      </trkpt>
      <trkpt lat="43.38081" lon="6.64676">
        <ele>72</ele>
        <time>2018-02-03T10:39:49.000Z</time>
      </trkpt>
      <trkpt lat="43.38087" lon="6.64656">
        <ele>70.800003051758</ele>
        <time>2018-02-03T10:39:53.000Z</time>
      </trkpt>
      <trkpt lat="43.38089" lon="6.64651">
        <ele>70.199996948242</ele>
        <time>2018-02-03T10:39:54.000Z</time>
      </trkpt>
      <trkpt lat="43.38094" lon="6.64633">
        <ele>69.800003051758</ele>
        <time>2018-02-03T10:39:59.000Z</time>
      </trkpt>
      <trkpt lat="43.38098" lon="6.64614">
        <ele>70</ele>
        <time>2018-02-03T10:40:04.000Z</time>
      </trkpt>
      <trkpt lat="43.38098" lon="6.64597">
        <ele>70.199996948242</ele>
        <time>2018-02-03T10:40:09.000Z</time>
      </trkpt>
      <trkpt lat="43.38098" lon="6.64594">
        <ele>70</ele>
        <time>2018-02-03T10:40:13.000Z</time>
      </trkpt>
      <trkpt lat="43.38097" lon="6.64594">
        <ele>70.599998474121</ele>
        <time>2018-02-03T10:40:18.000Z</time>
      </trkpt>
      <trkpt lat="43.38095" lon="6.6459">
        <ele>70.599998474121</ele>
        <time>2018-02-03T10:40:27.000Z</time>
      </trkpt>
      <trkpt lat="43.38094" lon="6.64585">
        <ele>70.400001525879</ele>
        <time>2018-02-03T10:40:31.000Z</time>
      </trkpt>
      <trkpt lat="43.38092" lon="6.64582">
        <ele>70.199996948242</ele>
        <time>2018-02-03T10:40:36.000Z</time>
      </trkpt>
      <trkpt lat="43.38093" lon="6.64569">
        <ele>70.400001525879</ele>
        <time>2018-02-03T10:40:41.000Z</time>
      </trkpt>
      <trkpt lat="43.381" lon="6.6454">
        <ele>70.800003051758</ele>
        <time>2018-02-03T10:40:49.000Z</time>
      </trkpt>
      <trkpt lat="43.38103" lon="6.64523">
        <ele>71.800003051758</ele>
        <time>2018-02-03T10:40:54.000Z</time>
      </trkpt>
      <trkpt lat="43.38103" lon="6.64516">
        <ele>72.199996948242</ele>
        <time>2018-02-03T10:40:56.000Z</time>
      </trkpt>
      <trkpt lat="43.38095" lon="6.64493">
        <ele>72.199996948242</ele>
        <time>2018-02-03T10:41:02.000Z</time>
      </trkpt>
      <trkpt lat="43.38083" lon="6.64489">
        <ele>72.599998474121</ele>
        <time>2018-02-03T10:41:06.000Z</time>
      </trkpt>
      <trkpt lat="43.3808" lon="6.64488">
        <ele>72.800003051758</ele>
        <time>2018-02-03T10:41:07.000Z</time>
      </trkpt>
      <trkpt lat="43.38063" lon="6.64481">
        <ele>73.599998474121</ele>
        <time>2018-02-03T10:41:13.000Z</time>
      </trkpt>
      <trkpt lat="43.38049" lon="6.6448">
        <ele>73.800003051758</ele>
        <time>2018-02-03T10:41:17.000Z</time>
      </trkpt>
      <trkpt lat="43.38033" lon="6.64482">
        <ele>73.800003051758</ele>
        <time>2018-02-03T10:41:21.000Z</time>
      </trkpt>
      <trkpt lat="43.38011" lon="6.64492">
        <ele>74.800003051758</ele>
        <time>2018-02-03T10:41:27.000Z</time>
      </trkpt>
      <trkpt lat="43.37993" lon="6.64493">
        <ele>75.800003051758</ele>
        <time>2018-02-03T10:41:33.000Z</time>
      </trkpt>
      <trkpt lat="43.3798" lon="6.64492">
        <ele>77</ele>
        <time>2018-02-03T10:41:38.000Z</time>
      </trkpt>
      <trkpt lat="43.37977" lon="6.64491">
        <ele>77.199996948242</ele>
        <time>2018-02-03T10:41:39.000Z</time>
      </trkpt>
      <trkpt lat="43.37956" lon="6.64484">
        <ele>77.599998474121</ele>
        <time>2018-02-03T10:41:46.000Z</time>
      </trkpt>
      <trkpt lat="43.37944" lon="6.64486">
        <ele>78</ele>
        <time>2018-02-03T10:41:50.000Z</time>
      </trkpt>
      <trkpt lat="43.37938" lon="6.64486">
        <ele>78.400001525879</ele>
        <time>2018-02-03T10:41:52.000Z</time>
      </trkpt>
      <trkpt lat="43.37925" lon="6.64484">
        <ele>79.199996948242</ele>
        <time>2018-02-03T10:41:56.000Z</time>
      </trkpt>
      <trkpt lat="43.37911" lon="6.64481">
        <ele>79.599998474121</ele>
        <time>2018-02-03T10:42:00.000Z</time>
      </trkpt>
      <trkpt lat="43.3788" lon="6.64479">
        <ele>79.599998474121</ele>
        <time>2018-02-03T10:42:08.000Z</time>
      </trkpt>
      <trkpt lat="43.37868" lon="6.64481">
        <ele>79.199996948242</ele>
        <time>2018-02-03T10:42:11.000Z</time>
      </trkpt>
      <trkpt lat="43.37859" lon="6.64478">
        <ele>78.800003051758</ele>
        <time>2018-02-03T10:42:13.000Z</time>
      </trkpt>
      <trkpt lat="43.37853" lon="6.64479">
        <ele>78.199996948242</ele>
        <time>2018-02-03T10:42:15.000Z</time>
      </trkpt>
      <trkpt lat="43.37849" lon="6.64482">
        <ele>77.800003051758</ele>
        <time>2018-02-03T10:42:17.000Z</time>
      </trkpt>
      <trkpt lat="43.37845" lon="6.64483">
        <ele>78</ele>
        <time>2018-02-03T10:42:19.000Z</time>
      </trkpt>
      <trkpt lat="43.37835" lon="6.64487">
        <ele>78.800003051758</ele>
        <time>2018-02-03T10:42:23.000Z</time>
      </trkpt>
      <trkpt lat="43.37826" lon="6.64491">
        <ele>79.199996948242</ele>
        <time>2018-02-03T10:42:26.000Z</time>
      </trkpt>
      <trkpt lat="43.37811" lon="6.645">
        <ele>79.800003051758</ele>
        <time>2018-02-03T10:42:31.000Z</time>
      </trkpt>
      <trkpt lat="43.37794" lon="6.6451">
        <ele>80.199996948242</ele>
        <time>2018-02-03T10:42:37.000Z</time>
      </trkpt>
      <trkpt lat="43.37788" lon="6.64512">
        <ele>80.400001525879</ele>
        <time>2018-02-03T10:42:39.000Z</time>
      </trkpt>
      <trkpt lat="43.3777" lon="6.64519">
        <ele>81.199996948242</ele>
        <time>2018-02-03T10:42:45.000Z</time>
      </trkpt>
      <trkpt lat="43.37763" lon="6.64529">
        <ele>81.199996948242</ele>
        <time>2018-02-03T10:42:49.000Z</time>
      </trkpt>
      <trkpt lat="43.37754" lon="6.64551">
        <ele>82.199996948242</ele>
        <time>2018-02-03T10:42:57.000Z</time>
      </trkpt>
      <trkpt lat="43.3775" lon="6.64561">
        <ele>83.800003051758</ele>
        <time>2018-02-03T10:43:01.000Z</time>
      </trkpt>
      <trkpt lat="43.37745" lon="6.64567">
        <ele>84.800003051758</ele>
        <time>2018-02-03T10:43:04.000Z</time>
      </trkpt>
      <trkpt lat="43.37735" lon="6.6458">
        <ele>85.800003051758</ele>
        <time>2018-02-03T10:43:11.000Z</time>
      </trkpt>
      <trkpt lat="43.3772" lon="6.64589">
        <ele>86.800003051758</ele>
        <time>2018-02-03T10:43:18.000Z</time>
      </trkpt>
      <trkpt lat="43.37697" lon="6.64595">
        <ele>87.599998474121</ele>
        <time>2018-02-03T10:43:27.000Z</time>
      </trkpt>
      <trkpt lat="43.37691" lon="6.64596">
        <ele>88</ele>
        <time>2018-02-03T10:43:29.000Z</time>
      </trkpt>
      <trkpt lat="43.37675" lon="6.64594">
        <ele>89</ele>
        <time>2018-02-03T10:43:35.000Z</time>
      </trkpt>
      <trkpt lat="43.37665" lon="6.64589">
        <ele>90</ele>
        <time>2018-02-03T10:43:39.000Z</time>
      </trkpt>
      <trkpt lat="43.37657" lon="6.64585">
        <ele>90.800003051758</ele>
        <time>2018-02-03T10:43:42.000Z</time>
      </trkpt>
      <trkpt lat="43.37653" lon="6.64582">
        <ele>91.199996948242</ele>
        <time>2018-02-03T10:43:44.000Z</time>
      </trkpt>
      <trkpt lat="43.37638" lon="6.64576">
        <ele>91.199996948242</ele>
        <time>2018-02-03T10:43:48.000Z</time>
      </trkpt>
      <trkpt lat="43.37629" lon="6.64574">
        <ele>90.800003051758</ele>
        <time>2018-02-03T10:43:50.000Z</time>
      </trkpt>
      <trkpt lat="43.37616" lon="6.64575">
        <ele>90.199996948242</ele>
        <time>2018-02-03T10:43:53.000Z</time>
      </trkpt>
      <trkpt lat="43.37584" lon="6.64586">
        <ele>89.199996948242</ele>
        <time>2018-02-03T10:44:00.000Z</time>
      </trkpt>
      <trkpt lat="43.3758" lon="6.64588">
        <ele>89</ele>
        <time>2018-02-03T10:44:01.000Z</time>
      </trkpt>
      <trkpt lat="43.37556" lon="6.64606">
        <ele>88.400001525879</ele>
        <time>2018-02-03T10:44:07.000Z</time>
      </trkpt>
      <trkpt lat="43.37545" lon="6.64615">
        <ele>88.199996948242</ele>
        <time>2018-02-03T10:44:10.000Z</time>
      </trkpt>
      <trkpt lat="43.3753" lon="6.64628">
        <ele>88</ele>
        <time>2018-02-03T10:44:14.000Z</time>
      </trkpt>
      <trkpt lat="43.37497" lon="6.64655">
        <ele>88.400001525879</ele>
        <time>2018-02-03T10:44:23.000Z</time>
      </trkpt>
      <trkpt lat="43.37482" lon="6.64666">
        <ele>89.199996948242</ele>
        <time>2018-02-03T10:44:28.000Z</time>
      </trkpt>
      <trkpt lat="43.37477" lon="6.6467">
        <ele>90</ele>
        <time>2018-02-03T10:44:30.000Z</time>
      </trkpt>
      <trkpt lat="43.37471" lon="6.64674">
        <ele>90.400001525879</ele>
        <time>2018-02-03T10:44:32.000Z</time>
      </trkpt>
      <trkpt lat="43.37451" lon="6.64691">
        <ele>91</ele>
        <time>2018-02-03T10:44:39.000Z</time>
      </trkpt>
      <trkpt lat="43.37439" lon="6.64701">
        <ele>91.599998474121</ele>
        <time>2018-02-03T10:44:43.000Z</time>
      </trkpt>
      <trkpt lat="43.37417" lon="6.64719">
        <ele>92.599998474121</ele>
        <time>2018-02-03T10:44:50.000Z</time>
      </trkpt>
      <trkpt lat="43.37414" lon="6.64721">
        <ele>92.800003051758</ele>
        <time>2018-02-03T10:44:51.000Z</time>
      </trkpt>
      <trkpt lat="43.37392" lon="6.64741">
        <ele>93.800003051758</ele>
        <time>2018-02-03T10:44:58.000Z</time>
      </trkpt>
      <trkpt lat="43.37382" lon="6.6475">
        <ele>93.800003051758</ele>
        <time>2018-02-03T10:45:01.000Z</time>
      </trkpt>
      <trkpt lat="43.37358" lon="6.64763">
        <ele>94</ele>
        <time>2018-02-03T10:45:08.000Z</time>
      </trkpt>
      <trkpt lat="43.3733" lon="6.64764">
        <ele>94.199996948242</ele>
        <time>2018-02-03T10:45:15.000Z</time>
      </trkpt>
      <trkpt lat="43.37306" lon="6.64767">
        <ele>94.800003051758</ele>
        <time>2018-02-03T10:45:22.000Z</time>
      </trkpt>
      <trkpt lat="43.37303" lon="6.64768">
        <ele>94.800003051758</ele>
        <time>2018-02-03T10:45:23.000Z</time>
      </trkpt>
      <trkpt lat="43.37291" lon="6.64768">
        <ele>94.199996948242</ele>
        <time>2018-02-03T10:45:28.000Z</time>
      </trkpt>
      <trkpt lat="43.37287" lon="6.64767">
        <ele>93.400001525879</ele>
        <time>2018-02-03T10:45:30.000Z</time>
      </trkpt>
      <trkpt lat="43.37282" lon="6.64765">
        <ele>93</ele>
        <time>2018-02-03T10:45:33.000Z</time>
      </trkpt>
      <trkpt lat="43.37269" lon="6.64753">
        <ele>93.599998474121</ele>
        <time>2018-02-03T10:45:38.000Z</time>
      </trkpt>
      <trkpt lat="43.3726" lon="6.64741">
        <ele>94.400001525879</ele>
        <time>2018-02-03T10:45:42.000Z</time>
      </trkpt>
      <trkpt lat="43.37254" lon="6.64731">
        <ele>95</ele>
        <time>2018-02-03T10:45:45.000Z</time>
      </trkpt>
      <trkpt lat="43.37247" lon="6.6472">
        <ele>95.599998474121</ele>
        <time>2018-02-03T10:45:48.000Z</time>
      </trkpt>
      <trkpt lat="43.37238" lon="6.64703">
        <ele>95.599998474121</ele>
        <time>2018-02-03T10:45:52.000Z</time>
      </trkpt>
      <trkpt lat="43.37222" lon="6.64691">
        <ele>95.800003051758</ele>
        <time>2018-02-03T10:45:57.000Z</time>
      </trkpt>
      <trkpt lat="43.37204" lon="6.64696">
        <ele>96</ele>
        <time>2018-02-03T10:46:02.000Z</time>
      </trkpt>
      <trkpt lat="43.37179" lon="6.64705">
        <ele>96.199996948242</ele>
        <time>2018-02-03T10:46:10.000Z</time>
      </trkpt>
      <trkpt lat="43.37171" lon="6.6471">
        <ele>96.599998474121</ele>
        <time>2018-02-03T10:46:13.000Z</time>
      </trkpt>
      <trkpt lat="43.37163" lon="6.64714">
        <ele>97.400001525879</ele>
        <time>2018-02-03T10:46:16.000Z</time>
      </trkpt>
      <trkpt lat="43.3716" lon="6.64716">
        <ele>97.800003051758</ele>
        <time>2018-02-03T10:46:17.000Z</time>
      </trkpt>
      <trkpt lat="43.37139" lon="6.64725">
        <ele>98.199996948242</ele>
        <time>2018-02-03T10:46:23.000Z</time>
      </trkpt>
      <trkpt lat="43.37114" lon="6.64735">
        <ele>97.400001525879</ele>
        <time>2018-02-03T10:46:31.000Z</time>
      </trkpt>
      <trkpt lat="43.37088" lon="6.64753">
        <ele>97.599998474121</ele>
        <time>2018-02-03T10:46:40.000Z</time>
      </trkpt>
      <trkpt lat="43.37069" lon="6.64764">
        <ele>98.800003051758</ele>
        <time>2018-02-03T10:46:46.000Z</time>
      </trkpt>
      <trkpt lat="43.37059" lon="6.64767">
        <ele>99.199996948242</ele>
        <time>2018-02-03T10:46:49.000Z</time>
      </trkpt>
      <trkpt lat="43.37039" lon="6.64771">
        <ele>100</ele>
        <time>2018-02-03T10:46:55.000Z</time>
      </trkpt>
      <trkpt lat="43.37032" lon="6.64772">
        <ele>100.19999694824</ele>
        <time>2018-02-03T10:46:57.000Z</time>
      </trkpt>
      <trkpt lat="43.37015" lon="6.64769">
        <ele>101</ele>
        <time>2018-02-03T10:47:02.000Z</time>
      </trkpt>
      <trkpt lat="43.37008" lon="6.64767">
        <ele>101.19999694824</ele>
        <time>2018-02-03T10:47:04.000Z</time>
      </trkpt>
      <trkpt lat="43.36975" lon="6.64758">
        <ele>100.80000305176</ele>
        <time>2018-02-03T10:47:14.000Z</time>
      </trkpt>
      <trkpt lat="43.36946" lon="6.64758">
        <ele>102</ele>
        <time>2018-02-03T10:47:23.000Z</time>
      </trkpt>
      <trkpt lat="43.3694" lon="6.64759">
        <ele>102.19999694824</ele>
        <time>2018-02-03T10:47:25.000Z</time>
      </trkpt>
      <trkpt lat="43.36921" lon="6.64766">
        <ele>103.19999694824</ele>
        <time>2018-02-03T10:47:31.000Z</time>
      </trkpt>
      <trkpt lat="43.36894" lon="6.64782">
        <ele>104.40000152588</ele>
        <time>2018-02-03T10:47:40.000Z</time>
      </trkpt>
      <trkpt lat="43.36883" lon="6.64799">
        <ele>105.40000152588</ele>
        <time>2018-02-03T10:47:46.000Z</time>
      </trkpt>
      <trkpt lat="43.36875" lon="6.64816">
        <ele>105.40000152588</ele>
        <time>2018-02-03T10:47:51.000Z</time>
      </trkpt>
      <trkpt lat="43.36874" lon="6.64821">
        <ele>105.59999847412</ele>
        <time>2018-02-03T10:47:52.000Z</time>
      </trkpt>
      <trkpt lat="43.3687" lon="6.6484">
        <ele>106.19999694824</ele>
        <time>2018-02-03T10:47:57.000Z</time>
      </trkpt>
      <trkpt lat="43.36869" lon="6.64843">
        <ele>106.40000152588</ele>
        <time>2018-02-03T10:47:58.000Z</time>
      </trkpt>
      <trkpt lat="43.36866" lon="6.64854">
        <ele>107</ele>
        <time>2018-02-03T10:48:02.000Z</time>
      </trkpt>
      <trkpt lat="43.36862" lon="6.64858">
        <ele>107.59999847412</ele>
        <time>2018-02-03T10:48:05.000Z</time>
      </trkpt>
      <trkpt lat="43.36856" lon="6.6486">
        <ele>108.19999694824</ele>
        <time>2018-02-03T10:48:07.000Z</time>
      </trkpt>
      <trkpt lat="43.36836" lon="6.64863">
        <ele>108</ele>
        <time>2018-02-03T10:48:14.000Z</time>
      </trkpt>
      <trkpt lat="43.36813" lon="6.6487">
        <ele>108</ele>
        <time>2018-02-03T10:48:22.000Z</time>
      </trkpt>
      <trkpt lat="43.36803" lon="6.64873">
        <ele>108.80000305176</ele>
        <time>2018-02-03T10:48:26.000Z</time>
      </trkpt>
      <trkpt lat="43.36796" lon="6.64875">
        <ele>109.59999847412</ele>
        <time>2018-02-03T10:48:29.000Z</time>
      </trkpt>
      <trkpt lat="43.36791" lon="6.64875">
        <ele>110</ele>
        <time>2018-02-03T10:48:31.000Z</time>
      </trkpt>
      <trkpt lat="43.36775" lon="6.64877">
        <ele>110.80000305176</ele>
        <time>2018-02-03T10:48:37.000Z</time>
      </trkpt>
      <trkpt lat="43.3676" lon="6.64877">
        <ele>111.19999694824</ele>
        <time>2018-02-03T10:48:42.000Z</time>
      </trkpt>
      <trkpt lat="43.36751" lon="6.64877">
        <ele>111.19999694824</ele>
        <time>2018-02-03T10:48:45.000Z</time>
      </trkpt>
      <trkpt lat="43.36721" lon="6.64884">
        <ele>111.59999847412</ele>
        <time>2018-02-03T10:48:55.000Z</time>
      </trkpt>
      <trkpt lat="43.36702" lon="6.64892">
        <ele>112.19999694824</ele>
        <time>2018-02-03T10:49:02.000Z</time>
      </trkpt>
      <trkpt lat="43.36697" lon="6.64894">
        <ele>112.59999847412</ele>
        <time>2018-02-03T10:49:04.000Z</time>
      </trkpt>
      <trkpt lat="43.36676" lon="6.64903">
        <ele>113.19999694824</ele>
        <time>2018-02-03T10:49:12.000Z</time>
      </trkpt>
      <trkpt lat="43.36674" lon="6.64904">
        <ele>113.19999694824</ele>
        <time>2018-02-03T10:49:13.000Z</time>
      </trkpt>
      <trkpt lat="43.36659" lon="6.64912">
        <ele>114.59999847412</ele>
        <time>2018-02-03T10:49:19.000Z</time>
      </trkpt>
      <trkpt lat="43.36651" lon="6.64916">
        <ele>115.19999694824</ele>
        <time>2018-02-03T10:49:22.000Z</time>
      </trkpt>
      <trkpt lat="43.36638" lon="6.64923">
        <ele>115.59999847412</ele>
        <time>2018-02-03T10:49:26.000Z</time>
      </trkpt>
      <trkpt lat="43.36624" lon="6.64931">
        <ele>115.59999847412</ele>
        <time>2018-02-03T10:49:30.000Z</time>
      </trkpt>
      <trkpt lat="43.36598" lon="6.64949">
        <ele>116.19999694824</ele>
        <time>2018-02-03T10:49:38.000Z</time>
      </trkpt>
      <trkpt lat="43.36587" lon="6.64958">
        <ele>116.80000305176</ele>
        <time>2018-02-03T10:49:42.000Z</time>
      </trkpt>
      <trkpt lat="43.36581" lon="6.64964">
        <ele>117.40000152588</ele>
        <time>2018-02-03T10:49:45.000Z</time>
      </trkpt>
      <trkpt lat="43.36576" lon="6.64972">
        <ele>117.80000305176</ele>
        <time>2018-02-03T10:49:48.000Z</time>
      </trkpt>
      <trkpt lat="43.36572" lon="6.64979">
        <ele>118.40000152588</ele>
        <time>2018-02-03T10:49:51.000Z</time>
      </trkpt>
      <trkpt lat="43.36571" lon="6.64984">
        <ele>119</ele>
        <time>2018-02-03T10:49:53.000Z</time>
      </trkpt>
      <trkpt lat="43.3657" lon="6.64989">
        <ele>119.40000152588</ele>
        <time>2018-02-03T10:49:55.000Z</time>
      </trkpt>
      <trkpt lat="43.3657" lon="6.64991">
        <ele>119.80000305176</ele>
        <time>2018-02-03T10:49:56.000Z</time>
      </trkpt>
      <trkpt lat="43.3657" lon="6.64996">
        <ele>120</ele>
        <time>2018-02-03T10:49:58.000Z</time>
      </trkpt>
      <trkpt lat="43.3657" lon="6.64998">
        <ele>120</ele>
        <time>2018-02-03T10:49:59.000Z</time>
      </trkpt>
      <trkpt lat="43.36569" lon="6.65007">
        <ele>119.59999847412</ele>
        <time>2018-02-03T10:50:02.000Z</time>
      </trkpt>
      <trkpt lat="43.36568" lon="6.6502">
        <ele>119.59999847412</ele>
        <time>2018-02-03T10:50:09.000Z</time>
      </trkpt>
      <trkpt lat="43.3657" lon="6.65038">
        <ele>120.19999694824</ele>
        <time>2018-02-03T10:50:15.000Z</time>
      </trkpt>
      <trkpt lat="43.36572" lon="6.65064">
        <ele>120.59999847412</ele>
        <time>2018-02-03T10:50:22.000Z</time>
      </trkpt>
      <trkpt lat="43.36573" lon="6.65077">
        <ele>121</ele>
        <time>2018-02-03T10:50:25.000Z</time>
      </trkpt>
      <trkpt lat="43.36575" lon="6.65094">
        <ele>121.19999694824</ele>
        <time>2018-02-03T10:50:29.000Z</time>
      </trkpt>
      <trkpt lat="43.36584" lon="6.65122">
        <ele>121.59999847412</ele>
        <time>2018-02-03T10:50:36.000Z</time>
      </trkpt>
      <trkpt lat="43.36586" lon="6.65134">
        <ele>122.19999694824</ele>
        <time>2018-02-03T10:50:39.000Z</time>
      </trkpt>
      <trkpt lat="43.36588" lon="6.65151">
        <ele>122.59999847412</ele>
        <time>2018-02-03T10:50:43.000Z</time>
      </trkpt>
      <trkpt lat="43.36589" lon="6.65168">
        <ele>123.19999694824</ele>
        <time>2018-02-03T10:50:47.000Z</time>
      </trkpt>
      <trkpt lat="43.3659" lon="6.65181">
        <ele>124</ele>
        <time>2018-02-03T10:50:50.000Z</time>
      </trkpt>
      <trkpt lat="43.36591" lon="6.65188">
        <ele>124.40000152588</ele>
        <time>2018-02-03T10:50:52.000Z</time>
      </trkpt>
      <trkpt lat="43.36591" lon="6.65209">
        <ele>125</ele>
        <time>2018-02-03T10:50:57.000Z</time>
      </trkpt>
      <trkpt lat="43.36586" lon="6.65256">
        <ele>125.40000152588</ele>
        <time>2018-02-03T10:51:08.000Z</time>
      </trkpt>
      <trkpt lat="43.36586" lon="6.6526">
        <ele>125.59999847412</ele>
        <time>2018-02-03T10:51:09.000Z</time>
      </trkpt>
      <trkpt lat="43.36585" lon="6.65294">
        <ele>126.59999847412</ele>
        <time>2018-02-03T10:51:17.000Z</time>
      </trkpt>
      <trkpt lat="43.36586" lon="6.65298">
        <ele>126.80000305176</ele>
        <time>2018-02-03T10:51:18.000Z</time>
      </trkpt>
      <trkpt lat="43.3659" lon="6.65313">
        <ele>127.80000305176</ele>
        <time>2018-02-03T10:51:22.000Z</time>
      </trkpt>
      <trkpt lat="43.36592" lon="6.6532">
        <ele>128.19999694824</ele>
        <time>2018-02-03T10:51:24.000Z</time>
      </trkpt>
      <trkpt lat="43.36596" lon="6.65346">
        <ele>128.80000305176</ele>
        <time>2018-02-03T10:51:30.000Z</time>
      </trkpt>
      <trkpt lat="43.36596" lon="6.65378">
        <ele>128.80000305176</ele>
        <time>2018-02-03T10:51:38.000Z</time>
      </trkpt>
      <trkpt lat="43.36595" lon="6.65388">
        <ele>128.80000305176</ele>
        <time>2018-02-03T10:51:41.000Z</time>
      </trkpt>
      <trkpt lat="43.36596" lon="6.65406">
        <ele>129.39999389648</ele>
        <time>2018-02-03T10:51:47.000Z</time>
      </trkpt>
      <trkpt lat="43.36596" lon="6.65416">
        <ele>130</ele>
        <time>2018-02-03T10:51:50.000Z</time>
      </trkpt>
      <trkpt lat="43.36597" lon="6.6544">
        <ele>130.19999694824</ele>
        <time>2018-02-03T10:51:56.000Z</time>
      </trkpt>
      <trkpt lat="43.36598" lon="6.65464">
        <ele>129.39999389648</ele>
        <time>2018-02-03T10:52:02.000Z</time>
      </trkpt>
      <trkpt lat="43.36605" lon="6.65485">
        <ele>130.80000305176</ele>
        <time>2018-02-03T10:52:09.000Z</time>
      </trkpt>
      <trkpt lat="43.36605" lon="6.65488">
        <ele>131</ele>
        <time>2018-02-03T10:52:10.000Z</time>
      </trkpt>
      <trkpt lat="43.36609" lon="6.65503">
        <ele>132</ele>
        <time>2018-02-03T10:52:15.000Z</time>
      </trkpt>
      <trkpt lat="43.3661" lon="6.65505">
        <ele>132.39999389648</ele>
        <time>2018-02-03T10:52:16.000Z</time>
      </trkpt>
      <trkpt lat="43.36612" lon="6.6551">
        <ele>133.19999694824</ele>
        <time>2018-02-03T10:52:18.000Z</time>
      </trkpt>
      <trkpt lat="43.36614" lon="6.65519">
        <ele>134.39999389648</ele>
        <time>2018-02-03T10:52:22.000Z</time>
      </trkpt>
      <trkpt lat="43.36615" lon="6.65522">
        <ele>134.60000610352</ele>
        <time>2018-02-03T10:52:23.000Z</time>
      </trkpt>
      <trkpt lat="43.36614" lon="6.65528">
        <ele>135.39999389648</ele>
        <time>2018-02-03T10:52:25.000Z</time>
      </trkpt>
      <trkpt lat="43.36613" lon="6.65537">
        <ele>136.19999694824</ele>
        <time>2018-02-03T10:52:29.000Z</time>
      </trkpt>
      <trkpt lat="43.36611" lon="6.65546">
        <ele>136.39999389648</ele>
        <time>2018-02-03T10:52:31.000Z</time>
      </trkpt>
      <trkpt lat="43.36609" lon="6.65563">
        <ele>136.39999389648</ele>
        <time>2018-02-03T10:52:35.000Z</time>
      </trkpt>
      <trkpt lat="43.36611" lon="6.65592">
        <ele>136.19999694824</ele>
        <time>2018-02-03T10:52:42.000Z</time>
      </trkpt>
      <trkpt lat="43.36615" lon="6.65602">
        <ele>136</ele>
        <time>2018-02-03T10:52:46.000Z</time>
      </trkpt>
      <trkpt lat="43.36621" lon="6.65613">
        <ele>137.60000610352</ele>
        <time>2018-02-03T10:52:51.000Z</time>
      </trkpt>
      <trkpt lat="43.36623" lon="6.65617">
        <ele>138</ele>
        <time>2018-02-03T10:52:53.000Z</time>
      </trkpt>
      <trkpt lat="43.36627" lon="6.65623">
        <ele>138.60000610352</ele>
        <time>2018-02-03T10:52:56.000Z</time>
      </trkpt>
      <trkpt lat="43.36629" lon="6.6563">
        <ele>139.19999694824</ele>
        <time>2018-02-03T10:52:59.000Z</time>
      </trkpt>
      <trkpt lat="43.36631" lon="6.65638">
        <ele>139.60000610352</ele>
        <time>2018-02-03T10:53:02.000Z</time>
      </trkpt>
      <trkpt lat="43.36636" lon="6.65654">
        <ele>140.60000610352</ele>
        <time>2018-02-03T10:53:08.000Z</time>
      </trkpt>
      <trkpt lat="43.36646" lon="6.65679">
        <ele>141.80000305176</ele>
        <time>2018-02-03T10:53:16.000Z</time>
      </trkpt>
      <trkpt lat="43.36657" lon="6.65704">
        <ele>143</ele>
        <time>2018-02-03T10:53:24.000Z</time>
      </trkpt>
      <trkpt lat="43.3667" lon="6.65729">
        <ele>143.39999389648</ele>
        <time>2018-02-03T10:53:32.000Z</time>
      </trkpt>
      <trkpt lat="43.36673" lon="6.65734">
        <ele>144.19999694824</ele>
        <time>2018-02-03T10:53:34.000Z</time>
      </trkpt>
      <trkpt lat="43.3668" lon="6.65747">
        <ele>145</ele>
        <time>2018-02-03T10:53:38.000Z</time>
      </trkpt>
      <trkpt lat="43.36681" lon="6.65749">
        <ele>145.19999694824</ele>
        <time>2018-02-03T10:53:39.000Z</time>
      </trkpt>
      <trkpt lat="43.36683" lon="6.65762">
        <ele>146.39999389648</ele>
        <time>2018-02-03T10:53:43.000Z</time>
      </trkpt>
      <trkpt lat="43.36683" lon="6.65768">
        <ele>147</ele>
        <time>2018-02-03T10:53:45.000Z</time>
      </trkpt>
      <trkpt lat="43.36682" lon="6.65774">
        <ele>147.60000610352</ele>
        <time>2018-02-03T10:53:47.000Z</time>
      </trkpt>
      <trkpt lat="43.36676" lon="6.65791">
        <ele>148.19999694824</ele>
        <time>2018-02-03T10:53:53.000Z</time>
      </trkpt>
      <trkpt lat="43.36669" lon="6.65804">
        <ele>148.80000305176</ele>
        <time>2018-02-03T10:53:57.000Z</time>
      </trkpt>
      <trkpt lat="43.36663" lon="6.65812">
        <ele>149.19999694824</ele>
        <time>2018-02-03T10:54:00.000Z</time>
      </trkpt>
      <trkpt lat="43.36659" lon="6.6582">
        <ele>149.80000305176</ele>
        <time>2018-02-03T10:54:03.000Z</time>
      </trkpt>
      <trkpt lat="43.36656" lon="6.65826">
        <ele>150</ele>
        <time>2018-02-03T10:54:05.000Z</time>
      </trkpt>
      <trkpt lat="43.36653" lon="6.6584">
        <ele>151</ele>
        <time>2018-02-03T10:54:09.000Z</time>
      </trkpt>
      <trkpt lat="43.36652" lon="6.65855">
        <ele>151.19999694824</ele>
        <time>2018-02-03T10:54:13.000Z</time>
      </trkpt>
      <trkpt lat="43.36659" lon="6.65873">
        <ele>151</ele>
        <time>2018-02-03T10:54:18.000Z</time>
      </trkpt>
      <trkpt lat="43.36667" lon="6.65873">
        <ele>152</ele>
        <time>2018-02-03T10:54:22.000Z</time>
      </trkpt>
      <trkpt lat="43.36673" lon="6.65871">
        <ele>153</ele>
        <time>2018-02-03T10:54:25.000Z</time>
      </trkpt>
      <trkpt lat="43.36678" lon="6.65869">
        <ele>154</ele>
        <time>2018-02-03T10:54:28.000Z</time>
      </trkpt>
      <trkpt lat="43.3669" lon="6.65862">
        <ele>155.19999694824</ele>
        <time>2018-02-03T10:54:34.000Z</time>
      </trkpt>
      <trkpt lat="43.36694" lon="6.6586">
        <ele>155.39999389648</ele>
        <time>2018-02-03T10:54:36.000Z</time>
      </trkpt>
      <trkpt lat="43.36705" lon="6.65858">
        <ele>156.19999694824</ele>
        <time>2018-02-03T10:54:41.000Z</time>
      </trkpt>
      <trkpt lat="43.36706" lon="6.6586">
        <ele>156.39999389648</ele>
        <time>2018-02-03T10:54:42.000Z</time>
      </trkpt>
      <trkpt lat="43.36708" lon="6.65861">
        <ele>156.60000610352</ele>
        <time>2018-02-03T10:54:43.000Z</time>
      </trkpt>
      <trkpt lat="43.36712" lon="6.65865">
        <ele>157.19999694824</ele>
        <time>2018-02-03T10:54:45.000Z</time>
      </trkpt>
      <trkpt lat="43.36715" lon="6.65868">
        <ele>157.60000610352</ele>
        <time>2018-02-03T10:54:47.000Z</time>
      </trkpt>
      <trkpt lat="43.36716" lon="6.6587">
        <ele>157.80000305176</ele>
        <time>2018-02-03T10:54:48.000Z</time>
      </trkpt>
      <trkpt lat="43.36718" lon="6.65875">
        <ele>158.39999389648</ele>
        <time>2018-02-03T10:54:50.000Z</time>
      </trkpt>
      <trkpt lat="43.36722" lon="6.65887">
        <ele>159.60000610352</ele>
        <time>2018-02-03T10:54:55.000Z</time>
      </trkpt>
      <trkpt lat="43.36723" lon="6.65889">
        <ele>159.80000305176</ele>
        <time>2018-02-03T10:54:56.000Z</time>
      </trkpt>
      <trkpt lat="43.36726" lon="6.65898">
        <ele>160.60000610352</ele>
        <time>2018-02-03T10:55:00.000Z</time>
      </trkpt>
      <trkpt lat="43.36729" lon="6.65908">
        <ele>161.80000305176</ele>
        <time>2018-02-03T10:55:04.000Z</time>
      </trkpt>
      <trkpt lat="43.36734" lon="6.65923">
        <ele>163</ele>
        <time>2018-02-03T10:55:10.000Z</time>
      </trkpt>
      <trkpt lat="43.36736" lon="6.65929">
        <ele>163.39999389648</ele>
        <time>2018-02-03T10:55:12.000Z</time>
      </trkpt>
      <trkpt lat="43.36737" lon="6.65936">
        <ele>164.19999694824</ele>
        <time>2018-02-03T10:55:15.000Z</time>
      </trkpt>
      <trkpt lat="43.3674" lon="6.65947">
        <ele>165.19999694824</ele>
        <time>2018-02-03T10:55:20.000Z</time>
      </trkpt>
      <trkpt lat="43.36741" lon="6.65955">
        <ele>166.39999389648</ele>
        <time>2018-02-03T10:55:24.000Z</time>
      </trkpt>
      <trkpt lat="43.36743" lon="6.65961">
        <ele>167.39999389648</ele>
        <time>2018-02-03T10:55:27.000Z</time>
      </trkpt>
      <trkpt lat="43.36744" lon="6.65963">
        <ele>167.80000305176</ele>
        <time>2018-02-03T10:55:28.000Z</time>
      </trkpt>
      <trkpt lat="43.36745" lon="6.6597">
        <ele>168.80000305176</ele>
        <time>2018-02-03T10:55:31.000Z</time>
      </trkpt>
      <trkpt lat="43.36748" lon="6.65979">
        <ele>169.39999389648</ele>
        <time>2018-02-03T10:55:35.000Z</time>
      </trkpt>
      <trkpt lat="43.3675" lon="6.65989">
        <ele>169.80000305176</ele>
        <time>2018-02-03T10:55:39.000Z</time>
      </trkpt>
      <trkpt lat="43.36752" lon="6.66">
        <ele>170.19999694824</ele>
        <time>2018-02-03T10:55:43.000Z</time>
      </trkpt>
      <trkpt lat="43.36754" lon="6.6602">
        <ele>170.19999694824</ele>
        <time>2018-02-03T10:55:50.000Z</time>
      </trkpt>
      <trkpt lat="43.36758" lon="6.6603">
        <ele>170.80000305176</ele>
        <time>2018-02-03T10:55:54.000Z</time>
      </trkpt>
      <trkpt lat="43.3676" lon="6.66038">
        <ele>171.60000610352</ele>
        <time>2018-02-03T10:55:57.000Z</time>
      </trkpt>
      <trkpt lat="43.3676" lon="6.66042">
        <ele>172</ele>
        <time>2018-02-03T10:55:59.000Z</time>
      </trkpt>
      <trkpt lat="43.36761" lon="6.66052">
        <ele>173.19999694824</ele>
        <time>2018-02-03T10:56:03.000Z</time>
      </trkpt>
      <trkpt lat="43.36761" lon="6.66053">
        <ele>173.19999694824</ele>
        <time>2018-02-03T10:56:04.000Z</time>
      </trkpt>
      <trkpt lat="43.36762" lon="6.66055">
        <ele>173.39999389648</ele>
        <time>2018-02-03T10:56:05.000Z</time>
      </trkpt>
      <trkpt lat="43.36766" lon="6.66059">
        <ele>174</ele>
        <time>2018-02-03T10:56:09.000Z</time>
      </trkpt>
      <trkpt lat="43.36768" lon="6.6606">
        <ele>174.19999694824</ele>
        <time>2018-02-03T10:56:10.000Z</time>
      </trkpt>
      <trkpt lat="43.36769" lon="6.66061">
        <ele>174.39999389648</ele>
        <time>2018-02-03T10:56:11.000Z</time>
      </trkpt>
      <trkpt lat="43.36774" lon="6.6607">
        <ele>175.19999694824</ele>
        <time>2018-02-03T10:56:16.000Z</time>
      </trkpt>
      <trkpt lat="43.36777" lon="6.66075">
        <ele>176.39999389648</ele>
        <time>2018-02-03T10:56:20.000Z</time>
      </trkpt>
      <trkpt lat="43.36777" lon="6.66076">
        <ele>176.80000305176</ele>
        <time>2018-02-03T10:56:21.000Z</time>
      </trkpt>
      <trkpt lat="43.36779" lon="6.66078">
        <ele>177.60000610352</ele>
        <time>2018-02-03T10:56:23.000Z</time>
      </trkpt>
      <trkpt lat="43.36781" lon="6.66083">
        <ele>178.39999389648</ele>
        <time>2018-02-03T10:56:27.000Z</time>
      </trkpt>
      <trkpt lat="43.36782" lon="6.66084">
        <ele>178.80000305176</ele>
        <time>2018-02-03T10:56:28.000Z</time>
      </trkpt>
      <trkpt lat="43.36784" lon="6.66084">
        <ele>179.39999389648</ele>
        <time>2018-02-03T10:56:31.000Z</time>
      </trkpt>
      <trkpt lat="43.36785" lon="6.66084">
        <ele>179.39999389648</ele>
        <time>2018-02-03T10:56:32.000Z</time>
      </trkpt>
      <trkpt lat="43.36785" lon="6.66083">
        <ele>179.80000305176</ele>
        <time>2018-02-03T10:56:36.000Z</time>
      </trkpt>
      <trkpt lat="43.36785" lon="6.66083">
        <ele>180.19999694824</ele>
        <time>2018-02-03T10:56:38.000Z</time>
      </trkpt>
      <trkpt lat="43.36784" lon="6.66083">
        <ele>180.60000610352</ele>
        <time>2018-02-03T10:56:59.000Z</time>
      </trkpt>
      <trkpt lat="43.36782" lon="6.66083">
        <ele>180.60000610352</ele>
        <time>2018-02-03T10:57:11.000Z</time>
      </trkpt>
      <trkpt lat="43.36779" lon="6.66092">
        <ele>180.39999389648</ele>
        <time>2018-02-03T10:57:16.000Z</time>
      </trkpt>
      <trkpt lat="43.36777" lon="6.66098">
        <ele>180.39999389648</ele>
        <time>2018-02-03T10:57:19.000Z</time>
      </trkpt>
      <trkpt lat="43.36774" lon="6.66111">
        <ele>180.39999389648</ele>
        <time>2018-02-03T10:57:24.000Z</time>
      </trkpt>
      <trkpt lat="43.36765" lon="6.66129">
        <ele>180</ele>
        <time>2018-02-03T10:57:30.000Z</time>
      </trkpt>
      <trkpt lat="43.36754" lon="6.66145">
        <ele>179.60000610352</ele>
        <time>2018-02-03T10:57:35.000Z</time>
      </trkpt>
      <trkpt lat="43.36746" lon="6.66159">
        <ele>180</ele>
        <time>2018-02-03T10:57:39.000Z</time>
      </trkpt>
      <trkpt lat="43.36737" lon="6.66179">
        <ele>180.60000610352</ele>
        <time>2018-02-03T10:57:44.000Z</time>
      </trkpt>
      <trkpt lat="43.36735" lon="6.66182">
        <ele>181</ele>
        <time>2018-02-03T10:57:45.000Z</time>
      </trkpt>
      <trkpt lat="43.36728" lon="6.66196">
        <ele>181.80000305176</ele>
        <time>2018-02-03T10:57:49.000Z</time>
      </trkpt>
      <trkpt lat="43.36727" lon="6.66199">
        <ele>182.19999694824</ele>
        <time>2018-02-03T10:57:50.000Z</time>
      </trkpt>
      <trkpt lat="43.36721" lon="6.66212">
        <ele>183.19999694824</ele>
        <time>2018-02-03T10:57:54.000Z</time>
      </trkpt>
      <trkpt lat="43.36714" lon="6.66224">
        <ele>183.80000305176</ele>
        <time>2018-02-03T10:57:58.000Z</time>
      </trkpt>
      <trkpt lat="43.36708" lon="6.66229">
        <ele>184.19999694824</ele>
        <time>2018-02-03T10:58:01.000Z</time>
      </trkpt>
      <trkpt lat="43.36704" lon="6.66231">
        <ele>184.60000610352</ele>
        <time>2018-02-03T10:58:03.000Z</time>
      </trkpt>
      <trkpt lat="43.3669" lon="6.66242">
        <ele>185.39999389648</ele>
        <time>2018-02-03T10:58:10.000Z</time>
      </trkpt>
      <trkpt lat="43.36687" lon="6.66243">
        <ele>185.60000610352</ele>
        <time>2018-02-03T10:58:12.000Z</time>
      </trkpt>
      <trkpt lat="43.36684" lon="6.66244">
        <ele>186</ele>
        <time>2018-02-03T10:58:15.000Z</time>
      </trkpt>
      <trkpt lat="43.36684" lon="6.66244">
        <ele>186.19999694824</ele>
        <time>2018-02-03T10:58:17.000Z</time>
      </trkpt>
      <trkpt lat="43.36683" lon="6.66243">
        <ele>186.39999389648</ele>
        <time>2018-02-03T10:58:24.000Z</time>
      </trkpt>
      <trkpt lat="43.36681" lon="6.66242">
        <ele>186.39999389648</ele>
        <time>2018-02-03T10:58:26.000Z</time>
      </trkpt>
      <trkpt lat="43.36681" lon="6.66236">
        <ele>186.39999389648</ele>
        <time>2018-02-03T10:58:29.000Z</time>
      </trkpt>
      <trkpt lat="43.36678" lon="6.66217">
        <ele>186.80000305176</ele>
        <time>2018-02-03T10:58:37.000Z</time>
      </trkpt>
      <trkpt lat="43.36669" lon="6.66198">
        <ele>186.80000305176</ele>
        <time>2018-02-03T10:58:43.000Z</time>
      </trkpt>
      <trkpt lat="43.36652" lon="6.66172">
        <ele>186.39999389648</ele>
        <time>2018-02-03T10:58:51.000Z</time>
      </trkpt>
      <trkpt lat="43.36635" lon="6.66142">
        <ele>185.80000305176</ele>
        <time>2018-02-03T10:58:59.000Z</time>
      </trkpt>
      <trkpt lat="43.36612" lon="6.6611">
        <ele>185.60000610352</ele>
        <time>2018-02-03T10:59:08.000Z</time>
      </trkpt>
      <trkpt lat="43.36605" lon="6.66107">
        <ele>185.19999694824</ele>
        <time>2018-02-03T10:59:10.000Z</time>
      </trkpt>
      <trkpt lat="43.36594" lon="6.66105">
        <ele>185</ele>
        <time>2018-02-03T10:59:13.000Z</time>
      </trkpt>
      <trkpt lat="43.36574" lon="6.66105">
        <ele>185</ele>
        <time>2018-02-03T10:59:19.000Z</time>
      </trkpt>
      <trkpt lat="43.36549" lon="6.66113">
        <ele>185</ele>
        <time>2018-02-03T10:59:27.000Z</time>
      </trkpt>
      <trkpt lat="43.36521" lon="6.66112">
        <ele>184.39999389648</ele>
        <time>2018-02-03T10:59:35.000Z</time>
      </trkpt>
      <trkpt lat="43.3652" lon="6.66106">
        <ele>184.19999694824</ele>
        <time>2018-02-03T10:59:36.000Z</time>
      </trkpt>
      <trkpt lat="43.36523" lon="6.66099">
        <ele>184</ele>
        <time>2018-02-03T10:59:38.000Z</time>
      </trkpt>
      <trkpt lat="43.36527" lon="6.66093">
        <ele>184</ele>
        <time>2018-02-03T10:59:40.000Z</time>
      </trkpt>
      <trkpt lat="43.36533" lon="6.66079">
        <ele>184.19999694824</ele>
        <time>2018-02-03T10:59:44.000Z</time>
      </trkpt>
      <trkpt lat="43.36542" lon="6.66051">
        <ele>184.80000305176</ele>
        <time>2018-02-03T10:59:51.000Z</time>
      </trkpt>
      <trkpt lat="43.36548" lon="6.66035">
        <ele>185.39999389648</ele>
        <time>2018-02-03T10:59:55.000Z</time>
      </trkpt>
      <trkpt lat="43.36554" lon="6.66024">
        <ele>185.80000305176</ele>
        <time>2018-02-03T10:59:58.000Z</time>
      </trkpt>
      <trkpt lat="43.36564" lon="6.66001">
        <ele>186.39999389648</ele>
        <time>2018-02-03T11:00:04.000Z</time>
      </trkpt>
      <trkpt lat="43.36565" lon="6.6598">
        <ele>187</ele>
        <time>2018-02-03T11:00:09.000Z</time>
      </trkpt>
      <trkpt lat="43.36564" lon="6.65971">
        <ele>187.39999389648</ele>
        <time>2018-02-03T11:00:11.000Z</time>
      </trkpt>
      <trkpt lat="43.3656" lon="6.65953">
        <ele>188.19999694824</ele>
        <time>2018-02-03T11:00:15.000Z</time>
      </trkpt>
      <trkpt lat="43.36556" lon="6.65941">
        <ele>188.39999389648</ele>
        <time>2018-02-03T11:00:18.000Z</time>
      </trkpt>
      <trkpt lat="43.36549" lon="6.65924">
        <ele>188.60000610352</ele>
        <time>2018-02-03T11:00:22.000Z</time>
      </trkpt>
      <trkpt lat="43.36534" lon="6.65895">
        <ele>189.39999389648</ele>
        <time>2018-02-03T11:00:30.000Z</time>
      </trkpt>
      <trkpt lat="43.36532" lon="6.65891">
        <ele>189.80000305176</ele>
        <time>2018-02-03T11:00:31.000Z</time>
      </trkpt>
      <trkpt lat="43.36517" lon="6.65873">
        <ele>190.80000305176</ele>
        <time>2018-02-03T11:00:37.000Z</time>
      </trkpt>
      <trkpt lat="43.36491" lon="6.65851">
        <ele>190.60000610352</ele>
        <time>2018-02-03T11:00:46.000Z</time>
      </trkpt>
      <trkpt lat="43.36468" lon="6.65842">
        <ele>190.39999389648</ele>
        <time>2018-02-03T11:00:53.000Z</time>
      </trkpt>
      <trkpt lat="43.36451" lon="6.65842">
        <ele>189.60000610352</ele>
        <time>2018-02-03T11:00:57.000Z</time>
      </trkpt>
      <trkpt lat="43.36441" lon="6.65842">
        <ele>189</ele>
        <time>2018-02-03T11:00:59.000Z</time>
      </trkpt>
      <trkpt lat="43.36436" lon="6.65843">
        <ele>188.60000610352</ele>
        <time>2018-02-03T11:01:00.000Z</time>
      </trkpt>
      <trkpt lat="43.36417" lon="6.65842">
        <ele>187.39999389648</ele>
        <time>2018-02-03T11:01:03.000Z</time>
      </trkpt>
      <trkpt lat="43.36405" lon="6.65839">
        <ele>186.19999694824</ele>
        <time>2018-02-03T11:01:05.000Z</time>
      </trkpt>
      <trkpt lat="43.36392" lon="6.65838">
        <ele>184.80000305176</ele>
        <time>2018-02-03T11:01:07.000Z</time>
      </trkpt>
      <trkpt lat="43.3638" lon="6.65839">
        <ele>183.80000305176</ele>
        <time>2018-02-03T11:01:09.000Z</time>
      </trkpt>
      <trkpt lat="43.36372" lon="6.65841">
        <ele>183.60000610352</ele>
        <time>2018-02-03T11:01:10.000Z</time>
      </trkpt>
      <trkpt lat="43.3635" lon="6.65847">
        <ele>182.39999389648</ele>
        <time>2018-02-03T11:01:13.000Z</time>
      </trkpt>
      <trkpt lat="43.36344" lon="6.6585">
        <ele>181.60000610352</ele>
        <time>2018-02-03T11:01:14.000Z</time>
      </trkpt>
      <trkpt lat="43.36337" lon="6.65854">
        <ele>180.80000305176</ele>
        <time>2018-02-03T11:01:15.000Z</time>
      </trkpt>
      <trkpt lat="43.36331" lon="6.65857">
        <ele>179.80000305176</ele>
        <time>2018-02-03T11:01:16.000Z</time>
      </trkpt>
      <trkpt lat="43.36325" lon="6.65857">
        <ele>179</ele>
        <time>2018-02-03T11:01:17.000Z</time>
      </trkpt>
      <trkpt lat="43.36319" lon="6.65853">
        <ele>178.39999389648</ele>
        <time>2018-02-03T11:01:18.000Z</time>
      </trkpt>
      <trkpt lat="43.36316" lon="6.65846">
        <ele>178</ele>
        <time>2018-02-03T11:01:19.000Z</time>
      </trkpt>
      <trkpt lat="43.36313" lon="6.65829">
        <ele>177.60000610352</ele>
        <time>2018-02-03T11:01:22.000Z</time>
      </trkpt>
      <trkpt lat="43.36313" lon="6.65821">
        <ele>178</ele>
        <time>2018-02-03T11:01:24.000Z</time>
      </trkpt>
      <trkpt lat="43.36312" lon="6.65807">
        <ele>179.39999389648</ele>
        <time>2018-02-03T11:01:28.000Z</time>
      </trkpt>
      <trkpt lat="43.36311" lon="6.65795">
        <ele>180.60000610352</ele>
        <time>2018-02-03T11:01:32.000Z</time>
      </trkpt>
      <trkpt lat="43.36311" lon="6.65784">
        <ele>181.60000610352</ele>
        <time>2018-02-03T11:01:35.000Z</time>
      </trkpt>
      <trkpt lat="43.36312" lon="6.6578">
        <ele>182</ele>
        <time>2018-02-03T11:01:36.000Z</time>
      </trkpt>
      <trkpt lat="43.36318" lon="6.6577">
        <ele>183.19999694824</ele>
        <time>2018-02-03T11:01:40.000Z</time>
      </trkpt>
      <trkpt lat="43.36326" lon="6.65766">
        <ele>184.39999389648</ele>
        <time>2018-02-03T11:01:44.000Z</time>
      </trkpt>
      <trkpt lat="43.36328" lon="6.65765">
        <ele>184.80000305176</ele>
        <time>2018-02-03T11:01:45.000Z</time>
      </trkpt>
      <trkpt lat="43.36333" lon="6.65762">
        <ele>185.60000610352</ele>
        <time>2018-02-03T11:01:48.000Z</time>
      </trkpt>
      <trkpt lat="43.3634" lon="6.65755">
        <ele>186.60000610352</ele>
        <time>2018-02-03T11:01:52.000Z</time>
      </trkpt>
      <trkpt lat="43.36345" lon="6.65745">
        <ele>188</ele>
        <time>2018-02-03T11:01:56.000Z</time>
      </trkpt>
      <trkpt lat="43.36348" lon="6.65738">
        <ele>189.19999694824</ele>
        <time>2018-02-03T11:01:59.000Z</time>
      </trkpt>
      <trkpt lat="43.36352" lon="6.65729">
        <ele>190.19999694824</ele>
        <time>2018-02-03T11:02:02.000Z</time>
      </trkpt>
      <trkpt lat="43.36353" lon="6.65723">
        <ele>190.60000610352</ele>
        <time>2018-02-03T11:02:04.000Z</time>
      </trkpt>
      <trkpt lat="43.36355" lon="6.65712">
        <ele>191.19999694824</ele>
        <time>2018-02-03T11:02:08.000Z</time>
      </trkpt>
      <trkpt lat="43.36357" lon="6.65704">
        <ele>192</ele>
        <time>2018-02-03T11:02:11.000Z</time>
      </trkpt>
      <trkpt lat="43.36359" lon="6.65698">
        <ele>192.39999389648</ele>
        <time>2018-02-03T11:02:13.000Z</time>
      </trkpt>
      <trkpt lat="43.36365" lon="6.6569">
        <ele>193.19999694824</ele>
        <time>2018-02-03T11:02:17.000Z</time>
      </trkpt>
      <trkpt lat="43.36368" lon="6.65687">
        <ele>193.60000610352</ele>
        <time>2018-02-03T11:02:19.000Z</time>
      </trkpt>
      <trkpt lat="43.36371" lon="6.65685">
        <ele>194.39999389648</ele>
        <time>2018-02-03T11:02:23.000Z</time>
      </trkpt>
      <trkpt lat="43.3637" lon="6.65685">
        <ele>194.60000610352</ele>
        <time>2018-02-03T11:02:24.000Z</time>
      </trkpt>
      <trkpt lat="43.36371" lon="6.65685">
        <ele>195</ele>
        <time>2018-02-03T11:02:31.000Z</time>
      </trkpt>
      <trkpt lat="43.36373" lon="6.65681">
        <ele>195</ele>
        <time>2018-02-03T11:02:50.000Z</time>
      </trkpt>
      <trkpt lat="43.36375" lon="6.65677">
        <ele>195</ele>
        <time>2018-02-03T11:02:53.000Z</time>
      </trkpt>
      <trkpt lat="43.36379" lon="6.65671">
        <ele>195.39999389648</ele>
        <time>2018-02-03T11:02:56.000Z</time>
      </trkpt>
      <trkpt lat="43.36381" lon="6.65667">
        <ele>195.60000610352</ele>
        <time>2018-02-03T11:02:58.000Z</time>
      </trkpt>
      <trkpt lat="43.36384" lon="6.65658">
        <ele>196.19999694824</ele>
        <time>2018-02-03T11:03:02.000Z</time>
      </trkpt>
      <trkpt lat="43.36385" lon="6.65649">
        <ele>196.60000610352</ele>
        <time>2018-02-03T11:03:05.000Z</time>
      </trkpt>
      <trkpt lat="43.36384" lon="6.65643">
        <ele>197.19999694824</ele>
        <time>2018-02-03T11:03:08.000Z</time>
      </trkpt>
      <trkpt lat="43.36381" lon="6.65639">
        <ele>197.80000305176</ele>
        <time>2018-02-03T11:03:10.000Z</time>
      </trkpt>
      <trkpt lat="43.36377" lon="6.65635">
        <ele>198.60000610352</ele>
        <time>2018-02-03T11:03:13.000Z</time>
      </trkpt>
      <trkpt lat="43.36373" lon="6.65633">
        <ele>199</ele>
        <time>2018-02-03T11:03:15.000Z</time>
      </trkpt>
      <trkpt lat="43.36362" lon="6.65634">
        <ele>200.19999694824</ele>
        <time>2018-02-03T11:03:20.000Z</time>
      </trkpt>
      <trkpt lat="43.36356" lon="6.65637">
        <ele>201.39999389648</ele>
        <time>2018-02-03T11:03:23.000Z</time>
      </trkpt>
      <trkpt lat="43.3635" lon="6.6564">
        <ele>202.39999389648</ele>
        <time>2018-02-03T11:03:26.000Z</time>
      </trkpt>
      <trkpt lat="43.36346" lon="6.65642">
        <ele>203</ele>
        <time>2018-02-03T11:03:28.000Z</time>
      </trkpt>
      <trkpt lat="43.36345" lon="6.65643">
        <ele>203.39999389648</ele>
        <time>2018-02-03T11:03:29.000Z</time>
      </trkpt>
      <trkpt lat="43.36337" lon="6.65647">
        <ele>204.60000610352</ele>
        <time>2018-02-03T11:03:33.000Z</time>
      </trkpt>
      <trkpt lat="43.36335" lon="6.65649">
        <ele>204.80000305176</ele>
        <time>2018-02-03T11:03:34.000Z</time>
      </trkpt>
      <trkpt lat="43.36321" lon="6.6566">
        <ele>205.39999389648</ele>
        <time>2018-02-03T11:03:41.000Z</time>
      </trkpt>
      <trkpt lat="43.36318" lon="6.65663">
        <ele>205.80000305176</ele>
        <time>2018-02-03T11:03:43.000Z</time>
      </trkpt>
      <trkpt lat="43.3631" lon="6.65677">
        <ele>206.80000305176</ele>
        <time>2018-02-03T11:03:49.000Z</time>
      </trkpt>
      <trkpt lat="43.36302" lon="6.65691">
        <ele>208</ele>
        <time>2018-02-03T11:03:55.000Z</time>
      </trkpt>
      <trkpt lat="43.36294" lon="6.65698">
        <ele>208.60000610352</ele>
        <time>2018-02-03T11:03:59.000Z</time>
      </trkpt>
      <trkpt lat="43.36287" lon="6.65701">
        <ele>209</ele>
        <time>2018-02-03T11:04:02.000Z</time>
      </trkpt>
      <trkpt lat="43.36279" lon="6.65702">
        <ele>209.60000610352</ele>
        <time>2018-02-03T11:04:05.000Z</time>
      </trkpt>
      <trkpt lat="43.36268" lon="6.657">
        <ele>210.19999694824</ele>
        <time>2018-02-03T11:04:09.000Z</time>
      </trkpt>
      <trkpt lat="43.36259" lon="6.65696">
        <ele>210.39999389648</ele>
        <time>2018-02-03T11:04:12.000Z</time>
      </trkpt>
      <trkpt lat="43.36247" lon="6.65681">
        <ele>211</ele>
        <time>2018-02-03T11:04:18.000Z</time>
      </trkpt>
      <trkpt lat="43.36236" lon="6.65655">
        <ele>210.80000305176</ele>
        <time>2018-02-03T11:04:25.000Z</time>
      </trkpt>
      <trkpt lat="43.36225" lon="6.65641">
        <ele>210.19999694824</ele>
        <time>2018-02-03T11:04:29.000Z</time>
      </trkpt>
      <trkpt lat="43.3622" lon="6.65639">
        <ele>210</ele>
        <time>2018-02-03T11:04:30.000Z</time>
      </trkpt>
      <trkpt lat="43.36205" lon="6.65638">
        <ele>209</ele>
        <time>2018-02-03T11:04:33.000Z</time>
      </trkpt>
      <trkpt lat="43.36195" lon="6.65639">
        <ele>208.60000610352</ele>
        <time>2018-02-03T11:04:35.000Z</time>
      </trkpt>
      <trkpt lat="43.36185" lon="6.65637">
        <ele>208</ele>
        <time>2018-02-03T11:04:37.000Z</time>
      </trkpt>
      <trkpt lat="43.36181" lon="6.65632">
        <ele>207.80000305176</ele>
        <time>2018-02-03T11:04:38.000Z</time>
      </trkpt>
      <trkpt lat="43.36179" lon="6.65627">
        <ele>207.60000610352</ele>
        <time>2018-02-03T11:04:39.000Z</time>
      </trkpt>
      <trkpt lat="43.36182" lon="6.6561">
        <ele>207.39999389648</ele>
        <time>2018-02-03T11:04:42.000Z</time>
      </trkpt>
      <trkpt lat="43.36184" lon="6.65605">
        <ele>207.39999389648</ele>
        <time>2018-02-03T11:04:43.000Z</time>
      </trkpt>
      <trkpt lat="43.3619" lon="6.65578">
        <ele>207.39999389648</ele>
        <time>2018-02-03T11:04:48.000Z</time>
      </trkpt>
      <trkpt lat="43.3619" lon="6.65572">
        <ele>207.39999389648</ele>
        <time>2018-02-03T11:04:49.000Z</time>
      </trkpt>
      <trkpt lat="43.36188" lon="6.65555">
        <ele>207.60000610352</ele>
        <time>2018-02-03T11:04:52.000Z</time>
      </trkpt>
      <trkpt lat="43.36185" lon="6.65537">
        <ele>207.60000610352</ele>
        <time>2018-02-03T11:04:55.000Z</time>
      </trkpt>
      <trkpt lat="43.36184" lon="6.65532">
        <ele>207.39999389648</ele>
        <time>2018-02-03T11:04:56.000Z</time>
      </trkpt>
      <trkpt lat="43.36181" lon="6.65508">
        <ele>207.39999389648</ele>
        <time>2018-02-03T11:05:01.000Z</time>
      </trkpt>
      <trkpt lat="43.36174" lon="6.65475">
        <ele>207.60000610352</ele>
        <time>2018-02-03T11:05:08.000Z</time>
      </trkpt>
      <trkpt lat="43.36169" lon="6.6545">
        <ele>207.39999389648</ele>
        <time>2018-02-03T11:05:13.000Z</time>
      </trkpt>
      <trkpt lat="43.36164" lon="6.65422">
        <ele>207.19999694824</ele>
        <time>2018-02-03T11:05:19.000Z</time>
      </trkpt>
      <trkpt lat="43.36169" lon="6.65397">
        <ele>207.80000305176</ele>
        <time>2018-02-03T11:05:24.000Z</time>
      </trkpt>
      <trkpt lat="43.36179" lon="6.65364">
        <ele>209</ele>
        <time>2018-02-03T11:05:32.000Z</time>
      </trkpt>
      <trkpt lat="43.36184" lon="6.65344">
        <ele>210</ele>
        <time>2018-02-03T11:05:38.000Z</time>
      </trkpt>
      <trkpt lat="43.36184" lon="6.65342">
        <ele>210.19999694824</ele>
        <time>2018-02-03T11:05:39.000Z</time>
      </trkpt>
      <trkpt lat="43.36188" lon="6.65329">
        <ele>211.60000610352</ele>
        <time>2018-02-03T11:05:43.000Z</time>
      </trkpt>
      <trkpt lat="43.36195" lon="6.65312">
        <ele>212.60000610352</ele>
        <time>2018-02-03T11:05:49.000Z</time>
      </trkpt>
      <trkpt lat="43.36197" lon="6.65307">
        <ele>212.80000305176</ele>
        <time>2018-02-03T11:05:50.000Z</time>
      </trkpt>
      <trkpt lat="43.36199" lon="6.65297">
        <ele>213.60000610352</ele>
        <time>2018-02-03T11:05:53.000Z</time>
      </trkpt>
      <trkpt lat="43.36203" lon="6.65284">
        <ele>214.39999389648</ele>
        <time>2018-02-03T11:05:57.000Z</time>
      </trkpt>
      <trkpt lat="43.36204" lon="6.65273">
        <ele>214.80000305176</ele>
        <time>2018-02-03T11:06:00.000Z</time>
      </trkpt>
      <trkpt lat="43.36204" lon="6.6526">
        <ele>215.39999389648</ele>
        <time>2018-02-03T11:06:04.000Z</time>
      </trkpt>
      <trkpt lat="43.36203" lon="6.65252">
        <ele>215.80000305176</ele>
        <time>2018-02-03T11:06:06.000Z</time>
      </trkpt>
      <trkpt lat="43.362" lon="6.65239">
        <ele>217</ele>
        <time>2018-02-03T11:06:10.000Z</time>
      </trkpt>
      <trkpt lat="43.36199" lon="6.65236">
        <ele>217.19999694824</ele>
        <time>2018-02-03T11:06:11.000Z</time>
      </trkpt>
      <trkpt lat="43.36192" lon="6.65215">
        <ele>218</ele>
        <time>2018-02-03T11:06:17.000Z</time>
      </trkpt>
      <trkpt lat="43.36189" lon="6.65209">
        <ele>218.19999694824</ele>
        <time>2018-02-03T11:06:19.000Z</time>
      </trkpt>
      <trkpt lat="43.36179" lon="6.65193">
        <ele>219</ele>
        <time>2018-02-03T11:06:25.000Z</time>
      </trkpt>
      <trkpt lat="43.36178" lon="6.65191">
        <ele>219.19999694824</ele>
        <time>2018-02-03T11:06:26.000Z</time>
      </trkpt>
      <trkpt lat="43.36171" lon="6.6518">
        <ele>220.19999694824</ele>
        <time>2018-02-03T11:06:32.000Z</time>
      </trkpt>
      <trkpt lat="43.36169" lon="6.65179">
        <ele>220.60000610352</ele>
        <time>2018-02-03T11:06:33.000Z</time>
      </trkpt>
      <trkpt lat="43.36166" lon="6.6518">
        <ele>220.80000305176</ele>
        <time>2018-02-03T11:06:38.000Z</time>
      </trkpt>
      <trkpt lat="43.36165" lon="6.6518">
        <ele>221.39999389648</ele>
        <time>2018-02-03T11:06:46.000Z</time>
      </trkpt>
      <trkpt lat="43.36165" lon="6.6518">
        <ele>221.39999389648</ele>
        <time>2018-02-03T11:06:48.000Z</time>
      </trkpt>
      <trkpt lat="43.36165" lon="6.65179">
        <ele>221.19999694824</ele>
        <time>2018-02-03T11:06:59.000Z</time>
      </trkpt>
      <trkpt lat="43.36164" lon="6.65178">
        <ele>221.19999694824</ele>
        <time>2018-02-03T11:07:32.000Z</time>
      </trkpt>
      <trkpt lat="43.36164" lon="6.65178">
        <ele>221.60000610352</ele>
        <time>2018-02-03T11:07:44.000Z</time>
      </trkpt>
      <trkpt lat="43.36164" lon="6.65178">
        <ele>221.39999389648</ele>
        <time>2018-02-03T11:07:57.000Z</time>
      </trkpt>
      <trkpt lat="43.36163" lon="6.65181">
        <ele>221.39999389648</ele>
        <time>2018-02-03T11:08:15.000Z</time>
      </trkpt>
      <trkpt lat="43.36165" lon="6.65191">
        <ele>221.39999389648</ele>
        <time>2018-02-03T11:08:19.000Z</time>
      </trkpt>
      <trkpt lat="43.36166" lon="6.65196">
        <ele>221.39999389648</ele>
        <time>2018-02-03T11:08:20.000Z</time>
      </trkpt>
      <trkpt lat="43.36168" lon="6.65206">
        <ele>221.39999389648</ele>
        <time>2018-02-03T11:08:24.000Z</time>
      </trkpt>
      <trkpt lat="43.36169" lon="6.65216">
        <ele>222.39999389648</ele>
        <time>2018-02-03T11:08:29.000Z</time>
      </trkpt>
      <trkpt lat="43.36169" lon="6.65218">
        <ele>223</ele>
        <time>2018-02-03T11:08:30.000Z</time>
      </trkpt>
      <trkpt lat="43.36169" lon="6.65222">
        <ele>223.80000305176</ele>
        <time>2018-02-03T11:08:32.000Z</time>
      </trkpt>
      <trkpt lat="43.36167" lon="6.65234">
        <ele>225</ele>
        <time>2018-02-03T11:08:37.000Z</time>
      </trkpt>
      <trkpt lat="43.36163" lon="6.65253">
        <ele>225.19999694824</ele>
        <time>2018-02-03T11:08:44.000Z</time>
      </trkpt>
      <trkpt lat="43.36155" lon="6.65277">
        <ele>225.19999694824</ele>
        <time>2018-02-03T11:08:51.000Z</time>
      </trkpt>
      <trkpt lat="43.36149" lon="6.65284">
        <ele>225</ele>
        <time>2018-02-03T11:08:54.000Z</time>
      </trkpt>
      <trkpt lat="43.36144" lon="6.65288">
        <ele>224.80000305176</ele>
        <time>2018-02-03T11:08:56.000Z</time>
      </trkpt>
      <trkpt lat="43.36142" lon="6.65293">
        <ele>224.60000610352</ele>
        <time>2018-02-03T11:08:58.000Z</time>
      </trkpt>
      <trkpt lat="43.36143" lon="6.65296">
        <ele>224.39999389648</ele>
        <time>2018-02-03T11:08:59.000Z</time>
      </trkpt>
      <trkpt lat="43.36143" lon="6.65302">
        <ele>224.39999389648</ele>
        <time>2018-02-03T11:09:01.000Z</time>
      </trkpt>
      <trkpt lat="43.36137" lon="6.65329">
        <ele>224.80000305176</ele>
        <time>2018-02-03T11:09:09.000Z</time>
      </trkpt>
      <trkpt lat="43.36133" lon="6.65359">
        <ele>224.39999389648</ele>
        <time>2018-02-03T11:09:15.000Z</time>
      </trkpt>
      <trkpt lat="43.3613" lon="6.65372">
        <ele>223.80000305176</ele>
        <time>2018-02-03T11:09:17.000Z</time>
      </trkpt>
      <trkpt lat="43.36125" lon="6.65388">
        <ele>222.39999389648</ele>
        <time>2018-02-03T11:09:19.000Z</time>
      </trkpt>
      <trkpt lat="43.3612" lon="6.65403">
        <ele>220.60000610352</ele>
        <time>2018-02-03T11:09:21.000Z</time>
      </trkpt>
      <trkpt lat="43.36117" lon="6.65414">
        <ele>219.19999694824</ele>
        <time>2018-02-03T11:09:23.000Z</time>
      </trkpt>
      <trkpt lat="43.36114" lon="6.65429">
        <ele>220</ele>
        <time>2018-02-03T11:09:28.000Z</time>
      </trkpt>
      <trkpt lat="43.36114" lon="6.6543">
        <ele>220.39999389648</ele>
        <time>2018-02-03T11:09:29.000Z</time>
      </trkpt>
      <trkpt lat="43.36113" lon="6.65435">
        <ele>221.39999389648</ele>
        <time>2018-02-03T11:09:32.000Z</time>
      </trkpt>
      <trkpt lat="43.36112" lon="6.65438">
        <ele>222</ele>
        <time>2018-02-03T11:09:34.000Z</time>
      </trkpt>
      <trkpt lat="43.36111" lon="6.65442">
        <ele>222.60000610352</ele>
        <time>2018-02-03T11:09:36.000Z</time>
      </trkpt>
      <trkpt lat="43.36111" lon="6.65444">
        <ele>223.39999389648</ele>
        <time>2018-02-03T11:09:38.000Z</time>
      </trkpt>
      <trkpt lat="43.36111" lon="6.65446">
        <ele>223.80000305176</ele>
        <time>2018-02-03T11:09:39.000Z</time>
      </trkpt>
      <trkpt lat="43.36109" lon="6.65451">
        <ele>225</ele>
        <time>2018-02-03T11:09:43.000Z</time>
      </trkpt>
      <trkpt lat="43.36108" lon="6.65455">
        <ele>226.19999694824</ele>
        <time>2018-02-03T11:09:46.000Z</time>
      </trkpt>
      <trkpt lat="43.36107" lon="6.65463">
        <ele>227.19999694824</ele>
        <time>2018-02-03T11:09:51.000Z</time>
      </trkpt>
      <trkpt lat="43.36106" lon="6.65467">
        <ele>228.19999694824</ele>
        <time>2018-02-03T11:09:54.000Z</time>
      </trkpt>
      <trkpt lat="43.36106" lon="6.65468">
        <ele>228.60000610352</ele>
        <time>2018-02-03T11:09:55.000Z</time>
      </trkpt>
      <trkpt lat="43.36106" lon="6.65471">
        <ele>229.19999694824</ele>
        <time>2018-02-03T11:09:57.000Z</time>
      </trkpt>
      <trkpt lat="43.36105" lon="6.65472">
        <ele>229.80000305176</ele>
        <time>2018-02-03T11:09:59.000Z</time>
      </trkpt>
      <trkpt lat="43.36105" lon="6.65472">
        <ele>230.19999694824</ele>
        <time>2018-02-03T11:10:00.000Z</time>
      </trkpt>
      <trkpt lat="43.36105" lon="6.65472">
        <ele>230.80000305176</ele>
        <time>2018-02-03T11:10:04.000Z</time>
      </trkpt>
      <trkpt lat="43.36106" lon="6.65475">
        <ele>231</ele>
        <time>2018-02-03T11:10:07.000Z</time>
      </trkpt>
      <trkpt lat="43.36105" lon="6.65479">
        <ele>232</ele>
        <time>2018-02-03T11:10:13.000Z</time>
      </trkpt>
      <trkpt lat="43.36105" lon="6.6548">
        <ele>232</ele>
        <time>2018-02-03T11:10:14.000Z</time>
      </trkpt>
      <trkpt lat="43.36104" lon="6.65484">
        <ele>233</ele>
        <time>2018-02-03T11:10:18.000Z</time>
      </trkpt>
      <trkpt lat="43.36104" lon="6.65489">
        <ele>233.39999389648</ele>
        <time>2018-02-03T11:10:23.000Z</time>
      </trkpt>
      <trkpt lat="43.36103" lon="6.65491">
        <ele>234</ele>
        <time>2018-02-03T11:10:25.000Z</time>
      </trkpt>
      <trkpt lat="43.36103" lon="6.65492">
        <ele>235.19999694824</ele>
        <time>2018-02-03T11:10:29.000Z</time>
      </trkpt>
      <trkpt lat="43.36103" lon="6.65492">
        <ele>235.39999389648</ele>
        <time>2018-02-03T11:10:31.000Z</time>
      </trkpt>
      <trkpt lat="43.36103" lon="6.65496">
        <ele>236.19999694824</ele>
        <time>2018-02-03T11:10:39.000Z</time>
      </trkpt>
      <trkpt lat="43.36101" lon="6.65505">
        <ele>236.39999389648</ele>
        <time>2018-02-03T11:10:46.000Z</time>
      </trkpt>
      <trkpt lat="43.36099" lon="6.6551">
        <ele>237.60000610352</ele>
        <time>2018-02-03T11:10:49.000Z</time>
      </trkpt>
      <trkpt lat="43.36098" lon="6.65513">
        <ele>238.39999389648</ele>
        <time>2018-02-03T11:10:52.000Z</time>
      </trkpt>
      <trkpt lat="43.36098" lon="6.65514">
        <ele>238.60000610352</ele>
        <time>2018-02-03T11:10:53.000Z</time>
      </trkpt>
      <trkpt lat="43.36097" lon="6.65518">
        <ele>239.80000305176</ele>
        <time>2018-02-03T11:10:56.000Z</time>
      </trkpt>
      <trkpt lat="43.36097" lon="6.65518">
        <ele>240.19999694824</ele>
        <time>2018-02-03T11:10:58.000Z</time>
      </trkpt>
      <trkpt lat="43.36097" lon="6.65518">
        <ele>240.80000305176</ele>
        <time>2018-02-03T11:10:59.000Z</time>
      </trkpt>
      <trkpt lat="43.36097" lon="6.65521">
        <ele>241.19999694824</ele>
        <time>2018-02-03T11:11:03.000Z</time>
      </trkpt>
      <trkpt lat="43.36094" lon="6.65529">
        <ele>242</ele>
        <time>2018-02-03T11:11:09.000Z</time>
      </trkpt>
      <trkpt lat="43.36093" lon="6.65534">
        <ele>243.19999694824</ele>
        <time>2018-02-03T11:11:13.000Z</time>
      </trkpt>
      <trkpt lat="43.36091" lon="6.65538">
        <ele>243.80000305176</ele>
        <time>2018-02-03T11:11:16.000Z</time>
      </trkpt>
      <trkpt lat="43.36089" lon="6.65542">
        <ele>244.19999694824</ele>
        <time>2018-02-03T11:11:19.000Z</time>
      </trkpt>
      <trkpt lat="43.36087" lon="6.65548">
        <ele>245</ele>
        <time>2018-02-03T11:11:23.000Z</time>
      </trkpt>
      <trkpt lat="43.36087" lon="6.65551">
        <ele>245.39999389648</ele>
        <time>2018-02-03T11:11:25.000Z</time>
      </trkpt>
      <trkpt lat="43.36082" lon="6.65563">
        <ele>246</ele>
        <time>2018-02-03T11:11:33.000Z</time>
      </trkpt>
      <trkpt lat="43.36081" lon="6.65568">
        <ele>246.60000610352</ele>
        <time>2018-02-03T11:11:36.000Z</time>
      </trkpt>
      <trkpt lat="43.36078" lon="6.65576">
        <ele>247.39999389648</ele>
        <time>2018-02-03T11:11:40.000Z</time>
      </trkpt>
      <trkpt lat="43.36077" lon="6.65578">
        <ele>247.60000610352</ele>
        <time>2018-02-03T11:11:41.000Z</time>
      </trkpt>
      <trkpt lat="43.36075" lon="6.65594">
        <ele>248.19999694824</ele>
        <time>2018-02-03T11:11:48.000Z</time>
      </trkpt>
      <trkpt lat="43.36074" lon="6.65606">
        <ele>248.60000610352</ele>
        <time>2018-02-03T11:11:53.000Z</time>
      </trkpt>
      <trkpt lat="43.36073" lon="6.65613">
        <ele>248.60000610352</ele>
        <time>2018-02-03T11:11:56.000Z</time>
      </trkpt>
      <trkpt lat="43.36074" lon="6.65629">
        <ele>249.60000610352</ele>
        <time>2018-02-03T11:12:04.000Z</time>
      </trkpt>
      <trkpt lat="43.36076" lon="6.65637">
        <ele>250.80000305176</ele>
        <time>2018-02-03T11:12:09.000Z</time>
      </trkpt>
      <trkpt lat="43.36075" lon="6.65642">
        <ele>251.39999389648</ele>
        <time>2018-02-03T11:12:12.000Z</time>
      </trkpt>
      <trkpt lat="43.36074" lon="6.65647">
        <ele>251.80000305176</ele>
        <time>2018-02-03T11:12:16.000Z</time>
      </trkpt>
      <trkpt lat="43.36073" lon="6.65651">
        <ele>253</ele>
        <time>2018-02-03T11:12:19.000Z</time>
      </trkpt>
      <trkpt lat="43.36072" lon="6.65651">
        <ele>254</ele>
        <time>2018-02-03T11:12:24.000Z</time>
      </trkpt>
      <trkpt lat="43.36069" lon="6.65656">
        <ele>254.19999694824</ele>
        <time>2018-02-03T11:12:31.000Z</time>
      </trkpt>
      <trkpt lat="43.36068" lon="6.65658">
        <ele>254.39999389648</ele>
        <time>2018-02-03T11:12:33.000Z</time>
      </trkpt>
      <trkpt lat="43.36066" lon="6.65659">
        <ele>255</ele>
        <time>2018-02-03T11:12:35.000Z</time>
      </trkpt>
      <trkpt lat="43.36065" lon="6.65662">
        <ele>256</ele>
        <time>2018-02-03T11:12:38.000Z</time>
      </trkpt>
      <trkpt lat="43.36063" lon="6.65666">
        <ele>257.39999389648</ele>
        <time>2018-02-03T11:12:42.000Z</time>
      </trkpt>
      <trkpt lat="43.3606" lon="6.65669">
        <ele>258.39999389648</ele>
        <time>2018-02-03T11:12:46.000Z</time>
      </trkpt>
      <trkpt lat="43.36059" lon="6.6567">
        <ele>258.39999389648</ele>
        <time>2018-02-03T11:12:47.000Z</time>
      </trkpt>
      <trkpt lat="43.36055" lon="6.65674">
        <ele>259.60000610352</ele>
        <time>2018-02-03T11:12:52.000Z</time>
      </trkpt>
      <trkpt lat="43.36054" lon="6.65676">
        <ele>260.20001220703</ele>
        <time>2018-02-03T11:12:54.000Z</time>
      </trkpt>
      <trkpt lat="43.36052" lon="6.65678">
        <ele>260.79998779297</ele>
        <time>2018-02-03T11:12:56.000Z</time>
      </trkpt>
      <trkpt lat="43.36049" lon="6.65683">
        <ele>262</ele>
        <time>2018-02-03T11:13:01.000Z</time>
      </trkpt>
      <trkpt lat="43.36046" lon="6.65688">
        <ele>262.79998779297</ele>
        <time>2018-02-03T11:13:05.000Z</time>
      </trkpt>
      <trkpt lat="43.36045" lon="6.65689">
        <ele>263</ele>
        <time>2018-02-03T11:13:06.000Z</time>
      </trkpt>
      <trkpt lat="43.36044" lon="6.65692">
        <ele>264.20001220703</ele>
        <time>2018-02-03T11:13:09.000Z</time>
      </trkpt>
      <trkpt lat="43.36044" lon="6.65694">
        <ele>264.79998779297</ele>
        <time>2018-02-03T11:13:11.000Z</time>
      </trkpt>
      <trkpt lat="43.36045" lon="6.65697">
        <ele>265.39999389648</ele>
        <time>2018-02-03T11:13:13.000Z</time>
      </trkpt>
      <trkpt lat="43.36046" lon="6.65702">
        <ele>265.60000610352</ele>
        <time>2018-02-03T11:13:17.000Z</time>
      </trkpt>
      <trkpt lat="43.36047" lon="6.65707">
        <ele>266.39999389648</ele>
        <time>2018-02-03T11:13:21.000Z</time>
      </trkpt>
      <trkpt lat="43.36048" lon="6.65709">
        <ele>266.79998779297</ele>
        <time>2018-02-03T11:13:23.000Z</time>
      </trkpt>
      <trkpt lat="43.36048" lon="6.6571">
        <ele>267.60000610352</ele>
        <time>2018-02-03T11:13:27.000Z</time>
      </trkpt>
      <trkpt lat="43.36048" lon="6.6571">
        <ele>267.60000610352</ele>
        <time>2018-02-03T11:13:28.000Z</time>
      </trkpt>
      <trkpt lat="43.3605" lon="6.65714">
        <ele>268.60000610352</ele>
        <time>2018-02-03T11:13:34.000Z</time>
      </trkpt>
      <trkpt lat="43.36051" lon="6.65717">
        <ele>269.39999389648</ele>
        <time>2018-02-03T11:13:37.000Z</time>
      </trkpt>
      <trkpt lat="43.36053" lon="6.6572">
        <ele>269.60000610352</ele>
        <time>2018-02-03T11:13:41.000Z</time>
      </trkpt>
      <trkpt lat="43.36054" lon="6.65723">
        <ele>270.20001220703</ele>
        <time>2018-02-03T11:13:45.000Z</time>
      </trkpt>
      <trkpt lat="43.36055" lon="6.65724">
        <ele>270.79998779297</ele>
        <time>2018-02-03T11:13:47.000Z</time>
      </trkpt>
      <trkpt lat="43.36056" lon="6.65728">
        <ele>271.79998779297</ele>
        <time>2018-02-03T11:13:52.000Z</time>
      </trkpt>
      <trkpt lat="43.36057" lon="6.6573">
        <ele>272.20001220703</ele>
        <time>2018-02-03T11:13:54.000Z</time>
      </trkpt>
      <trkpt lat="43.36059" lon="6.65738">
        <ele>272.79998779297</ele>
        <time>2018-02-03T11:14:03.000Z</time>
      </trkpt>
      <trkpt lat="43.36061" lon="6.65744">
        <ele>273.79998779297</ele>
        <time>2018-02-03T11:14:10.000Z</time>
      </trkpt>
      <trkpt lat="43.36061" lon="6.65745">
        <ele>274</ele>
        <time>2018-02-03T11:14:11.000Z</time>
      </trkpt>
      <trkpt lat="43.36062" lon="6.6575">
        <ele>275</ele>
        <time>2018-02-03T11:14:18.000Z</time>
      </trkpt>
      <trkpt lat="43.36062" lon="6.65751">
        <ele>275.20001220703</ele>
        <time>2018-02-03T11:14:19.000Z</time>
      </trkpt>
      <trkpt lat="43.36061" lon="6.65753">
        <ele>276</ele>
        <time>2018-02-03T11:14:22.000Z</time>
      </trkpt>
      <trkpt lat="43.3606" lon="6.65759">
        <ele>277</ele>
        <time>2018-02-03T11:14:28.000Z</time>
      </trkpt>
      <trkpt lat="43.3606" lon="6.65759">
        <ele>277.20001220703</ele>
        <time>2018-02-03T11:14:29.000Z</time>
      </trkpt>
      <trkpt lat="43.36057" lon="6.65765">
        <ele>278.20001220703</ele>
        <time>2018-02-03T11:14:36.000Z</time>
      </trkpt>
      <trkpt lat="43.36055" lon="6.65766">
        <ele>279.39999389648</ele>
        <time>2018-02-03T11:14:43.000Z</time>
      </trkpt>
      <trkpt lat="43.36055" lon="6.65766">
        <ele>279.60000610352</ele>
        <time>2018-02-03T11:14:45.000Z</time>
      </trkpt>
      <trkpt lat="43.36053" lon="6.65768">
        <ele>279.79998779297</ele>
        <time>2018-02-03T11:14:48.000Z</time>
      </trkpt>
      <trkpt lat="43.36052" lon="6.65772">
        <ele>280</ele>
        <time>2018-02-03T11:14:51.000Z</time>
      </trkpt>
      <trkpt lat="43.36052" lon="6.6578">
        <ele>280.39999389648</ele>
        <time>2018-02-03T11:14:55.000Z</time>
      </trkpt>
      <trkpt lat="43.36053" lon="6.65785">
        <ele>280.60000610352</ele>
        <time>2018-02-03T11:14:57.000Z</time>
      </trkpt>
      <trkpt lat="43.36053" lon="6.65792">
        <ele>281.60000610352</ele>
        <time>2018-02-03T11:15:01.000Z</time>
      </trkpt>
      <trkpt lat="43.36053" lon="6.65796">
        <ele>283</ele>
        <time>2018-02-03T11:15:04.000Z</time>
      </trkpt>
      <trkpt lat="43.36054" lon="6.65801">
        <ele>284.20001220703</ele>
        <time>2018-02-03T11:15:07.000Z</time>
      </trkpt>
      <trkpt lat="43.36055" lon="6.65808">
        <ele>285.20001220703</ele>
        <time>2018-02-03T11:15:11.000Z</time>
      </trkpt>
      <trkpt lat="43.36056" lon="6.65813">
        <ele>286.39999389648</ele>
        <time>2018-02-03T11:15:14.000Z</time>
      </trkpt>
      <trkpt lat="43.36057" lon="6.65819">
        <ele>287.39999389648</ele>
        <time>2018-02-03T11:15:18.000Z</time>
      </trkpt>
      <trkpt lat="43.36057" lon="6.65821">
        <ele>287.60000610352</ele>
        <time>2018-02-03T11:15:19.000Z</time>
      </trkpt>
      <trkpt lat="43.36056" lon="6.65835">
        <ele>288</ele>
        <time>2018-02-03T11:15:26.000Z</time>
      </trkpt>
      <trkpt lat="43.36057" lon="6.65854">
        <ele>287.79998779297</ele>
        <time>2018-02-03T11:15:31.000Z</time>
      </trkpt>
      <trkpt lat="43.36052" lon="6.65863">
        <ele>287.39999389648</ele>
        <time>2018-02-03T11:15:33.000Z</time>
      </trkpt>
      <trkpt lat="43.36045" lon="6.65871">
        <ele>286.79998779297</ele>
        <time>2018-02-03T11:15:35.000Z</time>
      </trkpt>
      <trkpt lat="43.3604" lon="6.65875">
        <ele>286.39999389648</ele>
        <time>2018-02-03T11:15:36.000Z</time>
      </trkpt>
      <trkpt lat="43.36031" lon="6.65884">
        <ele>284.20001220703</ele>
        <time>2018-02-03T11:15:38.000Z</time>
      </trkpt>
      <trkpt lat="43.36027" lon="6.6589">
        <ele>283.20001220703</ele>
        <time>2018-02-03T11:15:39.000Z</time>
      </trkpt>
      <trkpt lat="43.36024" lon="6.65895">
        <ele>282</ele>
        <time>2018-02-03T11:15:40.000Z</time>
      </trkpt>
      <trkpt lat="43.36021" lon="6.659">
        <ele>280.79998779297</ele>
        <time>2018-02-03T11:15:41.000Z</time>
      </trkpt>
      <trkpt lat="43.3602" lon="6.65903">
        <ele>280.20001220703</ele>
        <time>2018-02-03T11:15:42.000Z</time>
      </trkpt>
      <trkpt lat="43.36019" lon="6.65905">
        <ele>279.60000610352</ele>
        <time>2018-02-03T11:15:43.000Z</time>
      </trkpt>
      <trkpt lat="43.36016" lon="6.65909">
        <ele>278.60000610352</ele>
        <time>2018-02-03T11:15:47.000Z</time>
      </trkpt>
      <trkpt lat="43.36015" lon="6.65913">
        <ele>278.60000610352</ele>
        <time>2018-02-03T11:15:49.000Z</time>
      </trkpt>
      <trkpt lat="43.36014" lon="6.6593">
        <ele>279.60000610352</ele>
        <time>2018-02-03T11:15:56.000Z</time>
      </trkpt>
      <trkpt lat="43.36014" lon="6.65944">
        <ele>280.60000610352</ele>
        <time>2018-02-03T11:16:03.000Z</time>
      </trkpt>
      <trkpt lat="43.36014" lon="6.65946">
        <ele>280.60000610352</ele>
        <time>2018-02-03T11:16:04.000Z</time>
      </trkpt>
      <trkpt lat="43.36012" lon="6.65954">
        <ele>281.79998779297</ele>
        <time>2018-02-03T11:16:09.000Z</time>
      </trkpt>
      <trkpt lat="43.36012" lon="6.65955">
        <ele>281.79998779297</ele>
        <time>2018-02-03T11:16:10.000Z</time>
      </trkpt>
      <trkpt lat="43.36011" lon="6.65959">
        <ele>282.79998779297</ele>
        <time>2018-02-03T11:16:13.000Z</time>
      </trkpt>
      <trkpt lat="43.36011" lon="6.6596">
        <ele>283</ele>
        <time>2018-02-03T11:16:14.000Z</time>
      </trkpt>
      <trkpt lat="43.36011" lon="6.65961">
        <ele>283.39999389648</ele>
        <time>2018-02-03T11:16:16.000Z</time>
      </trkpt>
      <trkpt lat="43.3601" lon="6.65961">
        <ele>283.60000610352</ele>
        <time>2018-02-03T11:16:24.000Z</time>
      </trkpt>
      <trkpt lat="43.3601" lon="6.65961">
        <ele>283.79998779297</ele>
        <time>2018-02-03T11:16:28.000Z</time>
      </trkpt>
      <trkpt lat="43.36009" lon="6.65961">
        <ele>283.79998779297</ele>
        <time>2018-02-03T11:16:29.000Z</time>
      </trkpt>
      <trkpt lat="43.36009" lon="6.65964">
        <ele>283.79998779297</ele>
        <time>2018-02-03T11:16:35.000Z</time>
      </trkpt>
      <trkpt lat="43.36007" lon="6.65975">
        <ele>285</ele>
        <time>2018-02-03T11:16:41.000Z</time>
      </trkpt>
      <trkpt lat="43.36007" lon="6.65976">
        <ele>285.20001220703</ele>
        <time>2018-02-03T11:16:42.000Z</time>
      </trkpt>
      <trkpt lat="43.36007" lon="6.65978">
        <ele>286</ele>
        <time>2018-02-03T11:16:45.000Z</time>
      </trkpt>
      <trkpt lat="43.36007" lon="6.65979">
        <ele>286.60000610352</ele>
        <time>2018-02-03T11:16:47.000Z</time>
      </trkpt>
      <trkpt lat="43.36006" lon="6.65985">
        <ele>287.20001220703</ele>
        <time>2018-02-03T11:16:54.000Z</time>
      </trkpt>
      <trkpt lat="43.36006" lon="6.65986">
        <ele>287.39999389648</ele>
        <time>2018-02-03T11:16:55.000Z</time>
      </trkpt>
      <trkpt lat="43.36006" lon="6.65989">
        <ele>288.20001220703</ele>
        <time>2018-02-03T11:16:58.000Z</time>
      </trkpt>
      <trkpt lat="43.36006" lon="6.65991">
        <ele>289.20001220703</ele>
        <time>2018-02-03T11:17:02.000Z</time>
      </trkpt>
      <trkpt lat="43.36006" lon="6.65992">
        <ele>289.20001220703</ele>
        <time>2018-02-03T11:17:04.000Z</time>
      </trkpt>
      <trkpt lat="43.36005" lon="6.65995">
        <ele>289.79998779297</ele>
        <time>2018-02-03T11:17:08.000Z</time>
      </trkpt>
      <trkpt lat="43.36005" lon="6.66">
        <ele>290.39999389648</ele>
        <time>2018-02-03T11:17:14.000Z</time>
      </trkpt>
      <trkpt lat="43.36005" lon="6.66002">
        <ele>290.79998779297</ele>
        <time>2018-02-03T11:17:16.000Z</time>
      </trkpt>
      <trkpt lat="43.36005" lon="6.66005">
        <ele>291.39999389648</ele>
        <time>2018-02-03T11:17:21.000Z</time>
      </trkpt>
      <trkpt lat="43.36005" lon="6.66007">
        <ele>291.79998779297</ele>
        <time>2018-02-03T11:17:23.000Z</time>
      </trkpt>
      <trkpt lat="43.36004" lon="6.66012">
        <ele>292.60000610352</ele>
        <time>2018-02-03T11:17:29.000Z</time>
      </trkpt>
      <trkpt lat="43.36004" lon="6.66014">
        <ele>293.39999389648</ele>
        <time>2018-02-03T11:17:32.000Z</time>
      </trkpt>
      <trkpt lat="43.36004" lon="6.66014">
        <ele>293.60000610352</ele>
        <time>2018-02-03T11:17:33.000Z</time>
      </trkpt>
      <trkpt lat="43.36003" lon="6.66019">
        <ele>294.20001220703</ele>
        <time>2018-02-03T11:17:38.000Z</time>
      </trkpt>
      <trkpt lat="43.36003" lon="6.6602">
        <ele>294.79998779297</ele>
        <time>2018-02-03T11:17:40.000Z</time>
      </trkpt>
      <trkpt lat="43.36003" lon="6.66023">
        <ele>296.20001220703</ele>
        <time>2018-02-03T11:17:43.000Z</time>
      </trkpt>
      <trkpt lat="43.36002" lon="6.66027">
        <ele>297</ele>
        <time>2018-02-03T11:17:47.000Z</time>
      </trkpt>
      <trkpt lat="43.36002" lon="6.66028">
        <ele>297.20001220703</ele>
        <time>2018-02-03T11:17:49.000Z</time>
      </trkpt>
      <trkpt lat="43.36001" lon="6.66034">
        <ele>298</ele>
        <time>2018-02-03T11:17:56.000Z</time>
      </trkpt>
      <trkpt lat="43.36001" lon="6.66039">
        <ele>298.39999389648</ele>
        <time>2018-02-03T11:18:01.000Z</time>
      </trkpt>
      <trkpt lat="43.36001" lon="6.66043">
        <ele>299.20001220703</ele>
        <time>2018-02-03T11:18:05.000Z</time>
      </trkpt>
      <trkpt lat="43.36001" lon="6.66044">
        <ele>299.39999389648</ele>
        <time>2018-02-03T11:18:06.000Z</time>
      </trkpt>
      <trkpt lat="43.36" lon="6.66051">
        <ele>300.39999389648</ele>
        <time>2018-02-03T11:18:13.000Z</time>
      </trkpt>
      <trkpt lat="43.36" lon="6.66052">
        <ele>300.39999389648</ele>
        <time>2018-02-03T11:18:14.000Z</time>
      </trkpt>
      <trkpt lat="43.36" lon="6.66058">
        <ele>301.20001220703</ele>
        <time>2018-02-03T11:18:20.000Z</time>
      </trkpt>
      <trkpt lat="43.36001" lon="6.66061">
        <ele>301.39999389648</ele>
        <time>2018-02-03T11:18:23.000Z</time>
      </trkpt>
      <trkpt lat="43.36001" lon="6.66065">
        <ele>302.39999389648</ele>
        <time>2018-02-03T11:18:27.000Z</time>
      </trkpt>
      <trkpt lat="43.36001" lon="6.66065">
        <ele>302.60000610352</ele>
        <time>2018-02-03T11:18:28.000Z</time>
      </trkpt>
      <trkpt lat="43.36001" lon="6.66065">
        <ele>303</ele>
        <time>2018-02-03T11:18:32.000Z</time>
      </trkpt>
      <trkpt lat="43.36004" lon="6.66071">
        <ele>303</ele>
        <time>2018-02-03T11:18:39.000Z</time>
      </trkpt>
      <trkpt lat="43.36005" lon="6.66074">
        <ele>303.20001220703</ele>
        <time>2018-02-03T11:18:41.000Z</time>
      </trkpt>
      <trkpt lat="43.36005" lon="6.66077">
        <ele>303.79998779297</ele>
        <time>2018-02-03T11:18:43.000Z</time>
      </trkpt>
      <trkpt lat="43.36006" lon="6.66078">
        <ele>304.20001220703</ele>
        <time>2018-02-03T11:18:44.000Z</time>
      </trkpt>
      <trkpt lat="43.36007" lon="6.66081">
        <ele>305</ele>
        <time>2018-02-03T11:18:47.000Z</time>
      </trkpt>
      <trkpt lat="43.36007" lon="6.66085">
        <ele>305.79998779297</ele>
        <time>2018-02-03T11:18:50.000Z</time>
      </trkpt>
      <trkpt lat="43.36008" lon="6.66088">
        <ele>306</ele>
        <time>2018-02-03T11:18:52.000Z</time>
      </trkpt>
      <trkpt lat="43.3601" lon="6.66096">
        <ele>307</ele>
        <time>2018-02-03T11:18:57.000Z</time>
      </trkpt>
      <trkpt lat="43.3601" lon="6.66098">
        <ele>307.39999389648</ele>
        <time>2018-02-03T11:18:58.000Z</time>
      </trkpt>
      <trkpt lat="43.3601" lon="6.66101">
        <ele>308.20001220703</ele>
        <time>2018-02-03T11:19:00.000Z</time>
      </trkpt>
      <trkpt lat="43.36012" lon="6.66108">
        <ele>309.20001220703</ele>
        <time>2018-02-03T11:19:04.000Z</time>
      </trkpt>
      <trkpt lat="43.36013" lon="6.66109">
        <ele>309.39999389648</ele>
        <time>2018-02-03T11:19:05.000Z</time>
      </trkpt>
      <trkpt lat="43.36014" lon="6.66115">
        <ele>310.60000610352</ele>
        <time>2018-02-03T11:19:09.000Z</time>
      </trkpt>
      <trkpt lat="43.36014" lon="6.66116">
        <ele>310.79998779297</ele>
        <time>2018-02-03T11:19:10.000Z</time>
      </trkpt>
      <trkpt lat="43.36015" lon="6.66117">
        <ele>311.60000610352</ele>
        <time>2018-02-03T11:19:16.000Z</time>
      </trkpt>
      <trkpt lat="43.36015" lon="6.66118">
        <ele>312</ele>
        <time>2018-02-03T11:19:24.000Z</time>
      </trkpt>
      <trkpt lat="43.36016" lon="6.6612">
        <ele>312</ele>
        <time>2018-02-03T11:19:30.000Z</time>
      </trkpt>
      <trkpt lat="43.36016" lon="6.66121">
        <ele>312.60000610352</ele>
        <time>2018-02-03T11:19:35.000Z</time>
      </trkpt>
      <trkpt lat="43.36016" lon="6.66121">
        <ele>312.39999389648</ele>
        <time>2018-02-03T11:19:37.000Z</time>
      </trkpt>
      <trkpt lat="43.36015" lon="6.66126">
        <ele>312.79998779297</ele>
        <time>2018-02-03T11:19:41.000Z</time>
      </trkpt>
      <trkpt lat="43.36016" lon="6.66129">
        <ele>313</ele>
        <time>2018-02-03T11:19:43.000Z</time>
      </trkpt>
      <trkpt lat="43.36017" lon="6.66133">
        <ele>313.60000610352</ele>
        <time>2018-02-03T11:19:46.000Z</time>
      </trkpt>
      <trkpt lat="43.36018" lon="6.66135">
        <ele>313.79998779297</ele>
        <time>2018-02-03T11:19:47.000Z</time>
      </trkpt>
      <trkpt lat="43.36019" lon="6.66136">
        <ele>314</ele>
        <time>2018-02-03T11:19:48.000Z</time>
      </trkpt>
      <trkpt lat="43.36021" lon="6.6614">
        <ele>314.60000610352</ele>
        <time>2018-02-03T11:19:51.000Z</time>
      </trkpt>
      <trkpt lat="43.36022" lon="6.66143">
        <ele>315.39999389648</ele>
        <time>2018-02-03T11:19:54.000Z</time>
      </trkpt>
      <trkpt lat="43.36023" lon="6.66144">
        <ele>315.60000610352</ele>
        <time>2018-02-03T11:19:55.000Z</time>
      </trkpt>
      <trkpt lat="43.36025" lon="6.66146">
        <ele>316.20001220703</ele>
        <time>2018-02-03T11:19:58.000Z</time>
      </trkpt>
      <trkpt lat="43.36027" lon="6.66147">
        <ele>316.79998779297</ele>
        <time>2018-02-03T11:20:00.000Z</time>
      </trkpt>
      <trkpt lat="43.36029" lon="6.6615">
        <ele>317.79998779297</ele>
        <time>2018-02-03T11:20:04.000Z</time>
      </trkpt>
      <trkpt lat="43.36032" lon="6.66153">
        <ele>318.60000610352</ele>
        <time>2018-02-03T11:20:07.000Z</time>
      </trkpt>
      <trkpt lat="43.36032" lon="6.66153">
        <ele>318.79998779297</ele>
        <time>2018-02-03T11:20:08.000Z</time>
      </trkpt>
      <trkpt lat="43.36036" lon="6.66156">
        <ele>319.60000610352</ele>
        <time>2018-02-03T11:20:12.000Z</time>
      </trkpt>
      <trkpt lat="43.36037" lon="6.66156">
        <ele>319.79998779297</ele>
        <time>2018-02-03T11:20:13.000Z</time>
      </trkpt>
      <trkpt lat="43.36039" lon="6.66158">
        <ele>319.79998779297</ele>
        <time>2018-02-03T11:20:15.000Z</time>
      </trkpt>
      <trkpt lat="43.36041" lon="6.66161">
        <ele>320.60000610352</ele>
        <time>2018-02-03T11:20:19.000Z</time>
      </trkpt>
      <trkpt lat="43.36041" lon="6.66162">
        <ele>321.20001220703</ele>
        <time>2018-02-03T11:20:20.000Z</time>
      </trkpt>
      <trkpt lat="43.36042" lon="6.6617">
        <ele>322.39999389648</ele>
        <time>2018-02-03T11:20:26.000Z</time>
      </trkpt>
      <trkpt lat="43.36041" lon="6.66174">
        <ele>323.39999389648</ele>
        <time>2018-02-03T11:20:29.000Z</time>
      </trkpt>
      <trkpt lat="43.36038" lon="6.66177">
        <ele>324.20001220703</ele>
        <time>2018-02-03T11:20:32.000Z</time>
      </trkpt>
      <trkpt lat="43.36037" lon="6.66178">
        <ele>324.39999389648</ele>
        <time>2018-02-03T11:20:33.000Z</time>
      </trkpt>
      <trkpt lat="43.36034" lon="6.66182">
        <ele>325.39999389648</ele>
        <time>2018-02-03T11:20:37.000Z</time>
      </trkpt>
      <trkpt lat="43.36034" lon="6.66185">
        <ele>325.79998779297</ele>
        <time>2018-02-03T11:20:39.000Z</time>
      </trkpt>
      <trkpt lat="43.36034" lon="6.6619">
        <ele>326.20001220703</ele>
        <time>2018-02-03T11:20:42.000Z</time>
      </trkpt>
      <trkpt lat="43.36034" lon="6.66193">
        <ele>326.79998779297</ele>
        <time>2018-02-03T11:20:44.000Z</time>
      </trkpt>
      <trkpt lat="43.36035" lon="6.66199">
        <ele>327.79998779297</ele>
        <time>2018-02-03T11:20:48.000Z</time>
      </trkpt>
      <trkpt lat="43.36037" lon="6.66205">
        <ele>329</ele>
        <time>2018-02-03T11:20:53.000Z</time>
      </trkpt>
      <trkpt lat="43.36041" lon="6.66216">
        <ele>329.60000610352</ele>
        <time>2018-02-03T11:21:00.000Z</time>
      </trkpt>
      <trkpt lat="43.36043" lon="6.66226">
        <ele>330</ele>
        <time>2018-02-03T11:21:07.000Z</time>
      </trkpt>
      <trkpt lat="43.36044" lon="6.66228">
        <ele>330</ele>
        <time>2018-02-03T11:21:08.000Z</time>
      </trkpt>
      <trkpt lat="43.36046" lon="6.66234">
        <ele>330.20001220703</ele>
        <time>2018-02-03T11:21:13.000Z</time>
      </trkpt>
      <trkpt lat="43.36046" lon="6.66236">
        <ele>330.20001220703</ele>
        <time>2018-02-03T11:21:14.000Z</time>
      </trkpt>
      <trkpt lat="43.36049" lon="6.66243">
        <ele>331</ele>
        <time>2018-02-03T11:21:20.000Z</time>
      </trkpt>
      <trkpt lat="43.36049" lon="6.66243">
        <ele>331</ele>
        <time>2018-02-03T11:21:21.000Z</time>
      </trkpt>
      <trkpt lat="43.36052" lon="6.66249">
        <ele>331.60000610352</ele>
        <time>2018-02-03T11:21:26.000Z</time>
      </trkpt>
      <trkpt lat="43.36055" lon="6.66259">
        <ele>332.20001220703</ele>
        <time>2018-02-03T11:21:32.000Z</time>
      </trkpt>
      <trkpt lat="43.36056" lon="6.6626">
        <ele>332.39999389648</ele>
        <time>2018-02-03T11:21:33.000Z</time>
      </trkpt>
      <trkpt lat="43.36061" lon="6.66282">
        <ele>332.60000610352</ele>
        <time>2018-02-03T11:21:40.000Z</time>
      </trkpt>
      <trkpt lat="43.36066" lon="6.66306">
        <ele>332.39999389648</ele>
        <time>2018-02-03T11:21:47.000Z</time>
      </trkpt>
      <trkpt lat="43.36068" lon="6.66321">
        <ele>333.20001220703</ele>
        <time>2018-02-03T11:21:51.000Z</time>
      </trkpt>
      <trkpt lat="43.36068" lon="6.66327">
        <ele>333.79998779297</ele>
        <time>2018-02-03T11:21:53.000Z</time>
      </trkpt>
      <trkpt lat="43.36068" lon="6.66331">
        <ele>334.20001220703</ele>
        <time>2018-02-03T11:21:54.000Z</time>
      </trkpt>
      <trkpt lat="43.36068" lon="6.66337">
        <ele>335.20001220703</ele>
        <time>2018-02-03T11:21:56.000Z</time>
      </trkpt>
      <trkpt lat="43.36067" lon="6.66345">
        <ele>336.39999389648</ele>
        <time>2018-02-03T11:21:59.000Z</time>
      </trkpt>
      <trkpt lat="43.36066" lon="6.66347">
        <ele>336.79998779297</ele>
        <time>2018-02-03T11:22:00.000Z</time>
      </trkpt>
      <trkpt lat="43.36066" lon="6.66352">
        <ele>337.39999389648</ele>
        <time>2018-02-03T11:22:02.000Z</time>
      </trkpt>
      <trkpt lat="43.36065" lon="6.66361">
        <ele>338.39999389648</ele>
        <time>2018-02-03T11:22:06.000Z</time>
      </trkpt>
      <trkpt lat="43.36065" lon="6.66363">
        <ele>338.79998779297</ele>
        <time>2018-02-03T11:22:07.000Z</time>
      </trkpt>
      <trkpt lat="43.36065" lon="6.66368">
        <ele>340.20001220703</ele>
        <time>2018-02-03T11:22:10.000Z</time>
      </trkpt>
      <trkpt lat="43.36064" lon="6.66371">
        <ele>341</ele>
        <time>2018-02-03T11:22:12.000Z</time>
      </trkpt>
      <trkpt lat="43.36065" lon="6.66375">
        <ele>341.39999389648</ele>
        <time>2018-02-03T11:22:14.000Z</time>
      </trkpt>
      <trkpt lat="43.36067" lon="6.6638">
        <ele>342.39999389648</ele>
        <time>2018-02-03T11:22:18.000Z</time>
      </trkpt>
      <trkpt lat="43.36067" lon="6.66381">
        <ele>342.60000610352</ele>
        <time>2018-02-03T11:22:19.000Z</time>
      </trkpt>
      <trkpt lat="43.36073" lon="6.66386">
        <ele>343.20001220703</ele>
        <time>2018-02-03T11:22:25.000Z</time>
      </trkpt>
      <trkpt lat="43.36076" lon="6.66389">
        <ele>343.60000610352</ele>
        <time>2018-02-03T11:22:29.000Z</time>
      </trkpt>
      <trkpt lat="43.36079" lon="6.66391">
        <ele>344.60000610352</ele>
        <time>2018-02-03T11:22:32.000Z</time>
      </trkpt>
      <trkpt lat="43.3608" lon="6.66392">
        <ele>344.79998779297</ele>
        <time>2018-02-03T11:22:33.000Z</time>
      </trkpt>
      <trkpt lat="43.36083" lon="6.66392">
        <ele>346.20001220703</ele>
        <time>2018-02-03T11:22:36.000Z</time>
      </trkpt>
      <trkpt lat="43.36084" lon="6.66392">
        <ele>346.79998779297</ele>
        <time>2018-02-03T11:22:38.000Z</time>
      </trkpt>
      <trkpt lat="43.36085" lon="6.66392">
        <ele>347.20001220703</ele>
        <time>2018-02-03T11:22:39.000Z</time>
      </trkpt>
      <trkpt lat="43.36089" lon="6.66391">
        <ele>347.79998779297</ele>
        <time>2018-02-03T11:22:44.000Z</time>
      </trkpt>
      <trkpt lat="43.3609" lon="6.66391">
        <ele>348.20001220703</ele>
        <time>2018-02-03T11:22:45.000Z</time>
      </trkpt>
      <trkpt lat="43.36094" lon="6.66391">
        <ele>349.39999389648</ele>
        <time>2018-02-03T11:22:49.000Z</time>
      </trkpt>
      <trkpt lat="43.36094" lon="6.66392">
        <ele>349.60000610352</ele>
        <time>2018-02-03T11:22:50.000Z</time>
      </trkpt>
      <trkpt lat="43.36095" lon="6.66395">
        <ele>349.79998779297</ele>
        <time>2018-02-03T11:22:52.000Z</time>
      </trkpt>
      <trkpt lat="43.36097" lon="6.66397">
        <ele>350.39999389648</ele>
        <time>2018-02-03T11:22:55.000Z</time>
      </trkpt>
      <trkpt lat="43.36098" lon="6.66397">
        <ele>350.60000610352</ele>
        <time>2018-02-03T11:22:56.000Z</time>
      </trkpt>
      <trkpt lat="43.361" lon="6.66398">
        <ele>350.79998779297</ele>
        <time>2018-02-03T11:22:58.000Z</time>
      </trkpt>
      <trkpt lat="43.36105" lon="6.664">
        <ele>351.39999389648</ele>
        <time>2018-02-03T11:23:04.000Z</time>
      </trkpt>
      <trkpt lat="43.36106" lon="6.664">
        <ele>351.79998779297</ele>
        <time>2018-02-03T11:23:05.000Z</time>
      </trkpt>
      <trkpt lat="43.36108" lon="6.664">
        <ele>352.39999389648</ele>
        <time>2018-02-03T11:23:09.000Z</time>
      </trkpt>
      <trkpt lat="43.36109" lon="6.66401">
        <ele>352.39999389648</ele>
        <time>2018-02-03T11:23:11.000Z</time>
      </trkpt>
      <trkpt lat="43.36109" lon="6.66402">
        <ele>352</ele>
        <time>2018-02-03T11:23:18.000Z</time>
      </trkpt>
      <trkpt lat="43.3611" lon="6.66403">
        <ele>352</ele>
        <time>2018-02-03T11:23:37.000Z</time>
      </trkpt>
      <trkpt lat="43.3611" lon="6.66404">
        <ele>352</ele>
        <time>2018-02-03T11:24:01.000Z</time>
      </trkpt>
      <trkpt lat="43.36108" lon="6.66405">
        <ele>352</ele>
        <time>2018-02-03T11:24:07.000Z</time>
      </trkpt>
      <trkpt lat="43.36105" lon="6.66403">
        <ele>351.79998779297</ele>
        <time>2018-02-03T11:24:16.000Z</time>
      </trkpt>
      <trkpt lat="43.36101" lon="6.664">
        <ele>352</ele>
        <time>2018-02-03T11:24:23.000Z</time>
      </trkpt>
      <trkpt lat="43.36097" lon="6.66397">
        <ele>351.60000610352</ele>
        <time>2018-02-03T11:24:29.000Z</time>
      </trkpt>
      <trkpt lat="43.36097" lon="6.66396">
        <ele>351.39999389648</ele>
        <time>2018-02-03T11:24:30.000Z</time>
      </trkpt>
      <trkpt lat="43.36096" lon="6.66395">
        <ele>350.60000610352</ele>
        <time>2018-02-03T11:24:35.000Z</time>
      </trkpt>
      <trkpt lat="43.36095" lon="6.66396">
        <ele>350.79998779297</ele>
        <time>2018-02-03T11:24:41.000Z</time>
      </trkpt>
      <trkpt lat="43.36094" lon="6.66394">
        <ele>350.39999389648</ele>
        <time>2018-02-03T11:24:47.000Z</time>
      </trkpt>
      <trkpt lat="43.36094" lon="6.66394">
        <ele>350.20001220703</ele>
        <time>2018-02-03T11:24:48.000Z</time>
      </trkpt>
      <trkpt lat="43.36094" lon="6.66393">
        <ele>350.20001220703</ele>
        <time>2018-02-03T11:24:54.000Z</time>
      </trkpt>
      <trkpt lat="43.36094" lon="6.66393">
        <ele>350.60000610352</ele>
        <time>2018-02-03T11:25:03.000Z</time>
      </trkpt>
      <trkpt lat="43.36094" lon="6.66392">
        <ele>350.39999389648</ele>
        <time>2018-02-03T11:25:08.000Z</time>
      </trkpt>
      <trkpt lat="43.36094" lon="6.66389">
        <ele>350.60000610352</ele>
        <time>2018-02-03T11:25:15.000Z</time>
      </trkpt>
      <trkpt lat="43.36094" lon="6.66389">
        <ele>349.79998779297</ele>
        <time>2018-02-03T11:25:23.000Z</time>
      </trkpt>
      <trkpt lat="43.36093" lon="6.66389">
        <ele>350</ele>
        <time>2018-02-03T11:25:33.000Z</time>
      </trkpt>
      <trkpt lat="43.36093" lon="6.66389">
        <ele>349.79998779297</ele>
        <time>2018-02-03T11:25:43.000Z</time>
      </trkpt>
      <trkpt lat="43.36093" lon="6.66389">
        <ele>350.60000610352</ele>
        <time>2018-02-03T11:25:53.000Z</time>
      </trkpt>
      <trkpt lat="43.36094" lon="6.66389">
        <ele>350.20001220703</ele>
        <time>2018-02-03T11:26:07.000Z</time>
      </trkpt>
      <trkpt lat="43.36093" lon="6.66392">
        <ele>350.39999389648</ele>
        <time>2018-02-03T11:26:14.000Z</time>
      </trkpt>
      <trkpt lat="43.36088" lon="6.66389">
        <ele>349.79998779297</ele>
        <time>2018-02-03T11:26:22.000Z</time>
      </trkpt>
      <trkpt lat="43.36089" lon="6.66389">
        <ele>349.20001220703</ele>
        <time>2018-02-03T11:26:25.000Z</time>
      </trkpt>
      <trkpt lat="43.36089" lon="6.66389">
        <ele>348.79998779297</ele>
        <time>2018-02-03T11:26:27.000Z</time>
      </trkpt>
      <trkpt lat="43.36088" lon="6.66389">
        <ele>348.79998779297</ele>
        <time>2018-02-03T11:26:35.000Z</time>
      </trkpt>
      <trkpt lat="43.36088" lon="6.66388">
        <ele>349.20001220703</ele>
        <time>2018-02-03T11:26:42.000Z</time>
      </trkpt>
      <trkpt lat="43.36087" lon="6.66389">
        <ele>349</ele>
        <time>2018-02-03T11:26:51.000Z</time>
      </trkpt>
      <trkpt lat="43.36087" lon="6.66389">
        <ele>349</ele>
        <time>2018-02-03T11:26:56.000Z</time>
      </trkpt>
      <trkpt lat="43.36087" lon="6.66389">
        <ele>348.79998779297</ele>
        <time>2018-02-03T11:26:57.000Z</time>
      </trkpt>
      <trkpt lat="43.36089" lon="6.66389">
        <ele>348.20001220703</ele>
        <time>2018-02-03T11:27:01.000Z</time>
      </trkpt>
      <trkpt lat="43.36088" lon="6.66388">
        <ele>348.39999389648</ele>
        <time>2018-02-03T11:27:03.000Z</time>
      </trkpt>
      <trkpt lat="43.36086" lon="6.66388">
        <ele>349</ele>
        <time>2018-02-03T11:27:10.000Z</time>
      </trkpt>
      <trkpt lat="43.36088" lon="6.66388">
        <ele>348.39999389648</ele>
        <time>2018-02-03T11:27:20.000Z</time>
      </trkpt>
      <trkpt lat="43.36091" lon="6.66389">
        <ele>349</ele>
        <time>2018-02-03T11:27:27.000Z</time>
      </trkpt>
      <trkpt lat="43.36091" lon="6.66389">
        <ele>349.20001220703</ele>
        <time>2018-02-03T11:27:28.000Z</time>
      </trkpt>
      <trkpt lat="43.36092" lon="6.66389">
        <ele>349.20001220703</ele>
        <time>2018-02-03T11:27:32.000Z</time>
      </trkpt>
      <trkpt lat="43.36092" lon="6.66389">
        <ele>349.20001220703</ele>
        <time>2018-02-03T11:27:34.000Z</time>
      </trkpt>
      <trkpt lat="43.36092" lon="6.66389">
        <ele>349.20001220703</ele>
        <time>2018-02-03T11:27:35.000Z</time>
      </trkpt>
      <trkpt lat="43.36091" lon="6.66389">
        <ele>349.20001220703</ele>
        <time>2018-02-03T11:27:38.000Z</time>
      </trkpt>
      <trkpt lat="43.36092" lon="6.66389">
        <ele>349.60000610352</ele>
        <time>2018-02-03T11:27:47.000Z</time>
      </trkpt>
      <trkpt lat="43.36092" lon="6.66389">
        <ele>349.79998779297</ele>
        <time>2018-02-03T11:27:58.000Z</time>
      </trkpt>
      <trkpt lat="43.36093" lon="6.66389">
        <ele>349.79998779297</ele>
        <time>2018-02-03T11:28:08.000Z</time>
      </trkpt>
      <trkpt lat="43.36093" lon="6.66389">
        <ele>349.60000610352</ele>
        <time>2018-02-03T11:28:17.000Z</time>
      </trkpt>
      <trkpt lat="43.36093" lon="6.66389">
        <ele>350</ele>
        <time>2018-02-03T11:28:31.000Z</time>
      </trkpt>
      <trkpt lat="43.36093" lon="6.66389">
        <ele>349.79998779297</ele>
        <time>2018-02-03T11:28:39.000Z</time>
      </trkpt>
      <trkpt lat="43.36093" lon="6.6639">
        <ele>349.39999389648</ele>
        <time>2018-02-03T11:28:57.000Z</time>
      </trkpt>
      <trkpt lat="43.36094" lon="6.6639">
        <ele>349.20001220703</ele>
        <time>2018-02-03T11:29:11.000Z</time>
      </trkpt>
      <trkpt lat="43.36094" lon="6.66389">
        <ele>349.39999389648</ele>
        <time>2018-02-03T11:29:20.000Z</time>
      </trkpt>
      <trkpt lat="43.36094" lon="6.6639">
        <ele>349.79998779297</ele>
        <time>2018-02-03T11:29:36.000Z</time>
      </trkpt>
      <trkpt lat="43.36094" lon="6.6639">
        <ele>349.20001220703</ele>
        <time>2018-02-03T11:29:56.000Z</time>
      </trkpt>
      <trkpt lat="43.36094" lon="6.6639">
        <ele>349.20001220703</ele>
        <time>2018-02-03T11:30:19.000Z</time>
      </trkpt>
      <trkpt lat="43.36094" lon="6.6639">
        <ele>349.20001220703</ele>
        <time>2018-02-03T11:30:42.000Z</time>
      </trkpt>
      <trkpt lat="43.36094" lon="6.6639">
        <ele>349.20001220703</ele>
        <time>2018-02-03T11:31:05.000Z</time>
      </trkpt>
      <trkpt lat="43.36094" lon="6.6639">
        <ele>349.20001220703</ele>
        <time>2018-02-03T11:31:31.000Z</time>
      </trkpt>
      <trkpt lat="43.36094" lon="6.66391">
        <ele>349.20001220703</ele>
        <time>2018-02-03T11:32:04.000Z</time>
      </trkpt>
      <trkpt lat="43.36094" lon="6.66391">
        <ele>349.20001220703</ele>
        <time>2018-02-03T11:32:25.000Z</time>
      </trkpt>
      <trkpt lat="43.36094" lon="6.66391">
        <ele>348.79998779297</ele>
        <time>2018-02-03T11:32:51.000Z</time>
      </trkpt>
      <trkpt lat="43.36095" lon="6.66391">
        <ele>348.60000610352</ele>
        <time>2018-02-03T11:33:17.000Z</time>
      </trkpt>
      <trkpt lat="43.36095" lon="6.66391">
        <ele>348.79998779297</ele>
        <time>2018-02-03T11:33:35.000Z</time>
      </trkpt>
      <trkpt lat="43.36095" lon="6.6639">
        <ele>348.60000610352</ele>
        <time>2018-02-03T11:33:57.000Z</time>
      </trkpt>
      <trkpt lat="43.36095" lon="6.6639">
        <ele>348.39999389648</ele>
        <time>2018-02-03T11:34:16.000Z</time>
      </trkpt>
      <trkpt lat="43.36095" lon="6.6639">
        <ele>348.20001220703</ele>
        <time>2018-02-03T11:34:18.000Z</time>
      </trkpt>
      <trkpt lat="43.36095" lon="6.66391">
        <ele>348.60000610352</ele>
        <time>2018-02-03T11:34:42.000Z</time>
      </trkpt>
      <trkpt lat="43.36094" lon="6.66391">
        <ele>348.79998779297</ele>
        <time>2018-02-03T11:35:10.000Z</time>
      </trkpt>
      <trkpt lat="43.36094" lon="6.66391">
        <ele>348.60000610352</ele>
        <time>2018-02-03T11:35:39.000Z</time>
      </trkpt>
      <trkpt lat="43.36093" lon="6.66392">
        <ele>348.60000610352</ele>
        <time>2018-02-03T11:36:06.000Z</time>
      </trkpt>
      <trkpt lat="43.36093" lon="6.66392">
        <ele>348.79998779297</ele>
        <time>2018-02-03T11:36:29.000Z</time>
      </trkpt>
      <trkpt lat="43.36093" lon="6.66392">
        <ele>348.60000610352</ele>
        <time>2018-02-03T11:37:00.000Z</time>
      </trkpt>
      <trkpt lat="43.36092" lon="6.66392">
        <ele>348.60000610352</ele>
        <time>2018-02-03T11:37:23.000Z</time>
      </trkpt>
      <trkpt lat="43.36092" lon="6.66392">
        <ele>348.39999389648</ele>
        <time>2018-02-03T11:37:48.000Z</time>
      </trkpt>
      <trkpt lat="43.36092" lon="6.66391">
        <ele>348.39999389648</ele>
        <time>2018-02-03T11:38:18.000Z</time>
      </trkpt>
      <trkpt lat="43.36092" lon="6.66391">
        <ele>348</ele>
        <time>2018-02-03T11:38:49.000Z</time>
      </trkpt>
      <trkpt lat="43.36093" lon="6.66391">
        <ele>348</ele>
        <time>2018-02-03T11:39:02.000Z</time>
      </trkpt>
      <trkpt lat="43.36093" lon="6.66391">
        <ele>347.60000610352</ele>
        <time>2018-02-03T11:39:29.000Z</time>
      </trkpt>
      <trkpt lat="43.36093" lon="6.66391">
        <ele>347.60000610352</ele>
        <time>2018-02-03T11:39:48.000Z</time>
      </trkpt>
      <trkpt lat="43.36093" lon="6.66391">
        <ele>347.60000610352</ele>
        <time>2018-02-03T11:40:18.000Z</time>
      </trkpt>
      <trkpt lat="43.36093" lon="6.66391">
        <ele>347.79998779297</ele>
        <time>2018-02-03T11:40:43.000Z</time>
      </trkpt>
      <trkpt lat="43.36093" lon="6.66391">
        <ele>347.79998779297</ele>
        <time>2018-02-03T11:41:05.000Z</time>
      </trkpt>
      <trkpt lat="43.36093" lon="6.66391">
        <ele>347.79998779297</ele>
        <time>2018-02-03T11:41:29.000Z</time>
      </trkpt>
      <trkpt lat="43.36093" lon="6.66391">
        <ele>347.60000610352</ele>
        <time>2018-02-03T11:41:48.000Z</time>
      </trkpt>
      <trkpt lat="43.36093" lon="6.66391">
        <ele>347.79998779297</ele>
        <time>2018-02-03T11:42:08.000Z</time>
      </trkpt>
      <trkpt lat="43.36094" lon="6.66391">
        <ele>347.39999389648</ele>
        <time>2018-02-03T11:42:36.000Z</time>
      </trkpt>
      <trkpt lat="43.36094" lon="6.66391">
        <ele>347.20001220703</ele>
        <time>2018-02-03T11:42:40.000Z</time>
      </trkpt>
      <trkpt lat="43.36094" lon="6.66391">
        <ele>347.39999389648</ele>
        <time>2018-02-03T11:43:05.000Z</time>
      </trkpt>
      <trkpt lat="43.36094" lon="6.66391">
        <ele>347.39999389648</ele>
        <time>2018-02-03T11:43:33.000Z</time>
      </trkpt>
      <trkpt lat="43.36094" lon="6.66391">
        <ele>347.60000610352</ele>
        <time>2018-02-03T11:43:44.000Z</time>
      </trkpt>
      <trkpt lat="43.36093" lon="6.66392">
        <ele>347.60000610352</ele>
        <time>2018-02-03T11:44:03.000Z</time>
      </trkpt>
      <trkpt lat="43.36093" lon="6.66392">
        <ele>347.20001220703</ele>
        <time>2018-02-03T11:44:16.000Z</time>
      </trkpt>
      <trkpt lat="43.36093" lon="6.66391">
        <ele>347.20001220703</ele>
        <time>2018-02-03T11:44:34.000Z</time>
      </trkpt>
      <trkpt lat="43.36094" lon="6.66391">
        <ele>347.20001220703</ele>
        <time>2018-02-03T11:44:42.000Z</time>
      </trkpt>
      <trkpt lat="43.36094" lon="6.66391">
        <ele>347.20001220703</ele>
        <time>2018-02-03T11:45:00.000Z</time>
      </trkpt>
      <trkpt lat="43.36094" lon="6.6639">
        <ele>347.39999389648</ele>
        <time>2018-02-03T11:45:28.000Z</time>
      </trkpt>
      <trkpt lat="43.36095" lon="6.66391">
        <ele>347.20001220703</ele>
        <time>2018-02-03T11:45:59.000Z</time>
      </trkpt>
      <trkpt lat="43.36095" lon="6.66391">
        <ele>347.20001220703</ele>
        <time>2018-02-03T11:46:19.000Z</time>
      </trkpt>
      <trkpt lat="43.36094" lon="6.66392">
        <ele>347.20001220703</ele>
        <time>2018-02-03T11:46:31.000Z</time>
      </trkpt>
      <trkpt lat="43.36093" lon="6.66392">
        <ele>347.20001220703</ele>
        <time>2018-02-03T11:46:55.000Z</time>
      </trkpt>
      <trkpt lat="43.36092" lon="6.66393">
        <ele>347</ele>
        <time>2018-02-03T11:47:18.000Z</time>
      </trkpt>
      <trkpt lat="43.36093" lon="6.66393">
        <ele>347.20001220703</ele>
        <time>2018-02-03T11:47:44.000Z</time>
      </trkpt>
      <trkpt lat="43.36093" lon="6.66393">
        <ele>347.20001220703</ele>
        <time>2018-02-03T11:48:02.000Z</time>
      </trkpt>
      <trkpt lat="43.36093" lon="6.66392">
        <ele>347</ele>
        <time>2018-02-03T11:48:25.000Z</time>
      </trkpt>
      <trkpt lat="43.36094" lon="6.66393">
        <ele>346.79998779297</ele>
        <time>2018-02-03T11:48:42.000Z</time>
      </trkpt>
      <trkpt lat="43.36094" lon="6.66393">
        <ele>347.20001220703</ele>
        <time>2018-02-03T11:48:47.000Z</time>
      </trkpt>
      <trkpt lat="43.36093" lon="6.66391">
        <ele>347.20001220703</ele>
        <time>2018-02-03T11:48:52.000Z</time>
      </trkpt>
      <trkpt lat="43.36094" lon="6.6639">
        <ele>347.20001220703</ele>
        <time>2018-02-03T11:48:57.000Z</time>
      </trkpt>
      <trkpt lat="43.36095" lon="6.66389">
        <ele>347.20001220703</ele>
        <time>2018-02-03T11:49:03.000Z</time>
      </trkpt>
      <trkpt lat="43.36096" lon="6.6639">
        <ele>346.79998779297</ele>
        <time>2018-02-03T11:49:10.000Z</time>
      </trkpt>
      <trkpt lat="43.36097" lon="6.6639">
        <ele>347.60000610352</ele>
        <time>2018-02-03T11:49:16.000Z</time>
      </trkpt>
      <trkpt lat="43.36101" lon="6.66389">
        <ele>347.60000610352</ele>
        <time>2018-02-03T11:49:22.000Z</time>
      </trkpt>
      <trkpt lat="43.36103" lon="6.66387">
        <ele>347.20001220703</ele>
        <time>2018-02-03T11:49:28.000Z</time>
      </trkpt>
      <trkpt lat="43.36107" lon="6.66385">
        <ele>347.20001220703</ele>
        <time>2018-02-03T11:49:34.000Z</time>
      </trkpt>
      <trkpt lat="43.36105" lon="6.66384">
        <ele>347.39999389648</ele>
        <time>2018-02-03T11:49:40.000Z</time>
      </trkpt>
      <trkpt lat="43.36101" lon="6.66385">
        <ele>347.39999389648</ele>
        <time>2018-02-03T11:49:42.000Z</time>
      </trkpt>
      <trkpt lat="43.36099" lon="6.66388">
        <ele>347.39999389648</ele>
        <time>2018-02-03T11:49:45.000Z</time>
      </trkpt>
      <trkpt lat="43.36095" lon="6.66391">
        <ele>346.60000610352</ele>
        <time>2018-02-03T11:50:13.000Z</time>
      </trkpt>
      <trkpt lat="43.36094" lon="6.66392">
        <ele>346.39999389648</ele>
        <time>2018-02-03T11:50:33.000Z</time>
      </trkpt>
      <trkpt lat="43.36093" lon="6.66393">
        <ele>346.79998779297</ele>
        <time>2018-02-03T11:50:50.000Z</time>
      </trkpt>
      <trkpt lat="43.36093" lon="6.66392">
        <ele>346.39999389648</ele>
        <time>2018-02-03T11:51:03.000Z</time>
      </trkpt>
      <trkpt lat="43.36093" lon="6.66391">
        <ele>347</ele>
        <time>2018-02-03T11:51:22.000Z</time>
      </trkpt>
      <trkpt lat="43.36093" lon="6.66391">
        <ele>347</ele>
        <time>2018-02-03T11:51:40.000Z</time>
      </trkpt>
      <trkpt lat="43.36093" lon="6.6639">
        <ele>347.39999389648</ele>
        <time>2018-02-03T11:51:55.000Z</time>
      </trkpt>
      <trkpt lat="43.36093" lon="6.6639">
        <ele>347</ele>
        <time>2018-02-03T11:52:17.000Z</time>
      </trkpt>
      <trkpt lat="43.36093" lon="6.66391">
        <ele>347.20001220703</ele>
        <time>2018-02-03T11:52:26.000Z</time>
      </trkpt>
      <trkpt lat="43.36093" lon="6.6639">
        <ele>347.79998779297</ele>
        <time>2018-02-03T11:52:53.000Z</time>
      </trkpt>
      <trkpt lat="43.36093" lon="6.6639">
        <ele>346.60000610352</ele>
        <time>2018-02-03T11:53:04.000Z</time>
      </trkpt>
      <trkpt lat="43.36093" lon="6.6639">
        <ele>346.79998779297</ele>
        <time>2018-02-03T11:53:16.000Z</time>
      </trkpt>
      <trkpt lat="43.36093" lon="6.6639">
        <ele>347</ele>
        <time>2018-02-03T11:53:28.000Z</time>
      </trkpt>
      <trkpt lat="43.36093" lon="6.6639">
        <ele>347.20001220703</ele>
        <time>2018-02-03T11:53:34.000Z</time>
      </trkpt>
      <trkpt lat="43.36093" lon="6.66391">
        <ele>347</ele>
        <time>2018-02-03T11:54:04.000Z</time>
      </trkpt>
      <trkpt lat="43.36093" lon="6.66391">
        <ele>347</ele>
        <time>2018-02-03T11:54:30.000Z</time>
      </trkpt>
      <trkpt lat="43.36093" lon="6.66391">
        <ele>347.39999389648</ele>
        <time>2018-02-03T11:54:48.000Z</time>
      </trkpt>
      <trkpt lat="43.36093" lon="6.66391">
        <ele>347.20001220703</ele>
        <time>2018-02-03T11:54:55.000Z</time>
      </trkpt>
      <trkpt lat="43.36093" lon="6.66392">
        <ele>347.20001220703</ele>
        <time>2018-02-03T11:55:18.000Z</time>
      </trkpt>
      <trkpt lat="43.36092" lon="6.66392">
        <ele>347.20001220703</ele>
        <time>2018-02-03T11:55:29.000Z</time>
      </trkpt>
      <trkpt lat="43.36093" lon="6.66392">
        <ele>347.39999389648</ele>
        <time>2018-02-03T11:55:38.000Z</time>
      </trkpt>
      <trkpt lat="43.36093" lon="6.66392">
        <ele>347.20001220703</ele>
        <time>2018-02-03T11:55:58.000Z</time>
      </trkpt>
      <trkpt lat="43.36093" lon="6.66392">
        <ele>347</ele>
        <time>2018-02-03T11:56:13.000Z</time>
      </trkpt>
      <trkpt lat="43.36093" lon="6.66392">
        <ele>346.20001220703</ele>
        <time>2018-02-03T11:56:22.000Z</time>
      </trkpt>
      <trkpt lat="43.36093" lon="6.66393">
        <ele>346</ele>
        <time>2018-02-03T11:56:26.000Z</time>
      </trkpt>
      <trkpt lat="43.36092" lon="6.66393">
        <ele>346.60000610352</ele>
        <time>2018-02-03T11:56:38.000Z</time>
      </trkpt>
      <trkpt lat="43.36092" lon="6.66393">
        <ele>347.20001220703</ele>
        <time>2018-02-03T11:56:46.000Z</time>
      </trkpt>
      <trkpt lat="43.36091" lon="6.66393">
        <ele>347.20001220703</ele>
        <time>2018-02-03T11:57:06.000Z</time>
      </trkpt>
      <trkpt lat="43.36091" lon="6.66393">
        <ele>347.20001220703</ele>
        <time>2018-02-03T11:57:17.000Z</time>
      </trkpt>
      <trkpt lat="43.36091" lon="6.66393">
        <ele>347.39999389648</ele>
        <time>2018-02-03T11:57:33.000Z</time>
      </trkpt>
      <trkpt lat="43.36091" lon="6.66393">
        <ele>347.20001220703</ele>
        <time>2018-02-03T11:58:00.000Z</time>
      </trkpt>
      <trkpt lat="43.36091" lon="6.66393">
        <ele>347.20001220703</ele>
        <time>2018-02-03T11:58:35.000Z</time>
      </trkpt>
      <trkpt lat="43.36092" lon="6.66393">
        <ele>347</ele>
        <time>2018-02-03T11:58:45.000Z</time>
      </trkpt>
      <trkpt lat="43.36092" lon="6.66393">
        <ele>347.20001220703</ele>
        <time>2018-02-03T11:59:13.000Z</time>
      </trkpt>
      <trkpt lat="43.36093" lon="6.66393">
        <ele>347.20001220703</ele>
        <time>2018-02-03T11:59:47.000Z</time>
      </trkpt>
      <trkpt lat="43.36093" lon="6.66392">
        <ele>346.79998779297</ele>
        <time>2018-02-03T11:59:57.000Z</time>
      </trkpt>
      <trkpt lat="43.36093" lon="6.66392">
        <ele>346.79998779297</ele>
        <time>2018-02-03T12:00:09.000Z</time>
      </trkpt>
      <trkpt lat="43.36093" lon="6.66392">
        <ele>346.79998779297</ele>
        <time>2018-02-03T12:00:31.000Z</time>
      </trkpt>
      <trkpt lat="43.36093" lon="6.66392">
        <ele>346.79998779297</ele>
        <time>2018-02-03T12:00:46.000Z</time>
      </trkpt>
      <trkpt lat="43.36093" lon="6.66392">
        <ele>346.79998779297</ele>
        <time>2018-02-03T12:00:54.000Z</time>
      </trkpt>
      <trkpt lat="43.36093" lon="6.66392">
        <ele>346.79998779297</ele>
        <time>2018-02-03T12:01:01.000Z</time>
      </trkpt>
      <trkpt lat="43.36093" lon="6.66392">
        <ele>346.60000610352</ele>
        <time>2018-02-03T12:01:10.000Z</time>
      </trkpt>
      <trkpt lat="43.36093" lon="6.66391">
        <ele>346.39999389648</ele>
        <time>2018-02-03T12:01:23.000Z</time>
      </trkpt>
      <trkpt lat="43.36094" lon="6.66391">
        <ele>346.79998779297</ele>
        <time>2018-02-03T12:01:41.000Z</time>
      </trkpt>
      <trkpt lat="43.36094" lon="6.66391">
        <ele>346</ele>
        <time>2018-02-03T12:02:01.000Z</time>
      </trkpt>
      <trkpt lat="43.36094" lon="6.66391">
        <ele>346.39999389648</ele>
        <time>2018-02-03T12:02:22.000Z</time>
      </trkpt>
      <trkpt lat="43.36094" lon="6.66391">
        <ele>346.60000610352</ele>
        <time>2018-02-03T12:02:36.000Z</time>
      </trkpt>
      <trkpt lat="43.36094" lon="6.66391">
        <ele>346.60000610352</ele>
        <time>2018-02-03T12:03:01.000Z</time>
      </trkpt>
      <trkpt lat="43.36093" lon="6.66392">
        <ele>347</ele>
        <time>2018-02-03T12:03:22.000Z</time>
      </trkpt>
      <trkpt lat="43.36093" lon="6.66392">
        <ele>347</ele>
        <time>2018-02-03T12:03:27.000Z</time>
      </trkpt>
      <trkpt lat="43.36093" lon="6.66392">
        <ele>346.79998779297</ele>
        <time>2018-02-03T12:03:43.000Z</time>
      </trkpt>
      <trkpt lat="43.36094" lon="6.66391">
        <ele>346.60000610352</ele>
        <time>2018-02-03T12:04:07.000Z</time>
      </trkpt>
      <trkpt lat="43.36094" lon="6.66391">
        <ele>346.39999389648</ele>
        <time>2018-02-03T12:04:25.000Z</time>
      </trkpt>
      <trkpt lat="43.36094" lon="6.66391">
        <ele>346.39999389648</ele>
        <time>2018-02-03T12:04:53.000Z</time>
      </trkpt>
      <trkpt lat="43.36094" lon="6.66391">
        <ele>346.39999389648</ele>
        <time>2018-02-03T12:05:29.000Z</time>
      </trkpt>
      <trkpt lat="43.36094" lon="6.66391">
        <ele>346</ele>
        <time>2018-02-03T12:05:44.000Z</time>
      </trkpt>
      <trkpt lat="43.36094" lon="6.66391">
        <ele>346.20001220703</ele>
        <time>2018-02-03T12:05:52.000Z</time>
      </trkpt>
      <trkpt lat="43.36094" lon="6.66392">
        <ele>346.39999389648</ele>
        <time>2018-02-03T12:06:16.000Z</time>
      </trkpt>
      <trkpt lat="43.36094" lon="6.66392">
        <ele>346.79998779297</ele>
        <time>2018-02-03T12:06:33.000Z</time>
      </trkpt>
      <trkpt lat="43.36094" lon="6.66391">
        <ele>346.39999389648</ele>
        <time>2018-02-03T12:06:41.000Z</time>
      </trkpt>
      <trkpt lat="43.36094" lon="6.66391">
        <ele>346.79998779297</ele>
        <time>2018-02-03T12:06:49.000Z</time>
      </trkpt>
      <trkpt lat="43.36092" lon="6.66392">
        <ele>346.60000610352</ele>
        <time>2018-02-03T12:06:56.000Z</time>
      </trkpt>
      <trkpt lat="43.36091" lon="6.66393">
        <ele>345</ele>
        <time>2018-02-03T12:07:04.000Z</time>
      </trkpt>
      <trkpt lat="43.36091" lon="6.66393">
        <ele>345</ele>
        <time>2018-02-03T12:07:06.000Z</time>
      </trkpt>
      <trkpt lat="43.3609" lon="6.66393">
        <ele>345.39999389648</ele>
        <time>2018-02-03T12:07:18.000Z</time>
      </trkpt>
      <trkpt lat="43.3609" lon="6.66393">
        <ele>346.20001220703</ele>
        <time>2018-02-03T12:07:21.000Z</time>
      </trkpt>
      <trkpt lat="43.3609" lon="6.66392">
        <ele>346</ele>
        <time>2018-02-03T12:07:24.000Z</time>
      </trkpt>
      <trkpt lat="43.36089" lon="6.66392">
        <ele>345.79998779297</ele>
        <time>2018-02-03T12:07:41.000Z</time>
      </trkpt>
      <trkpt lat="43.36088" lon="6.66393">
        <ele>345.39999389648</ele>
        <time>2018-02-03T12:07:46.000Z</time>
      </trkpt>
      <trkpt lat="43.36088" lon="6.66393">
        <ele>345.20001220703</ele>
        <time>2018-02-03T12:07:48.000Z</time>
      </trkpt>
      <trkpt lat="43.36086" lon="6.66391">
        <ele>345</ele>
        <time>2018-02-03T12:07:51.000Z</time>
      </trkpt>
      <trkpt lat="43.36087" lon="6.66392">
        <ele>345</ele>
        <time>2018-02-03T12:07:52.000Z</time>
      </trkpt>
      <trkpt lat="43.36089" lon="6.66391">
        <ele>345.20001220703</ele>
        <time>2018-02-03T12:08:00.000Z</time>
      </trkpt>
      <trkpt lat="43.36089" lon="6.66391">
        <ele>346</ele>
        <time>2018-02-03T12:08:09.000Z</time>
      </trkpt>
      <trkpt lat="43.36089" lon="6.66391">
        <ele>346</ele>
        <time>2018-02-03T12:08:15.000Z</time>
      </trkpt>
      <trkpt lat="43.36089" lon="6.66391">
        <ele>346.20001220703</ele>
        <time>2018-02-03T12:08:17.000Z</time>
      </trkpt>
      <trkpt lat="43.36089" lon="6.66391">
        <ele>346.79998779297</ele>
        <time>2018-02-03T12:08:23.000Z</time>
      </trkpt>
      <trkpt lat="43.3609" lon="6.6639">
        <ele>346.39999389648</ele>
        <time>2018-02-03T12:08:30.000Z</time>
      </trkpt>
      <trkpt lat="43.36089" lon="6.66389">
        <ele>346.39999389648</ele>
        <time>2018-02-03T12:08:41.000Z</time>
      </trkpt>
      <trkpt lat="43.36089" lon="6.66388">
        <ele>345.60000610352</ele>
        <time>2018-02-03T12:08:48.000Z</time>
      </trkpt>
      <trkpt lat="43.36089" lon="6.66389">
        <ele>345.20001220703</ele>
        <time>2018-02-03T12:08:56.000Z</time>
      </trkpt>
      <trkpt lat="43.36089" lon="6.66389">
        <ele>345</ele>
        <time>2018-02-03T12:08:57.000Z</time>
      </trkpt>
      <trkpt lat="43.36088" lon="6.66389">
        <ele>345</ele>
        <time>2018-02-03T12:08:58.000Z</time>
      </trkpt>
      <trkpt lat="43.36087" lon="6.66389">
        <ele>345</ele>
        <time>2018-02-03T12:09:00.000Z</time>
      </trkpt>
      <trkpt lat="43.36087" lon="6.66389">
        <ele>345</ele>
        <time>2018-02-03T12:09:02.000Z</time>
      </trkpt>
      <trkpt lat="43.36087" lon="6.66389">
        <ele>344.60000610352</ele>
        <time>2018-02-03T12:09:09.000Z</time>
      </trkpt>
      <trkpt lat="43.36086" lon="6.66389">
        <ele>344.60000610352</ele>
        <time>2018-02-03T12:09:19.000Z</time>
      </trkpt>
      <trkpt lat="43.36088" lon="6.66389">
        <ele>344.60000610352</ele>
        <time>2018-02-03T12:09:31.000Z</time>
      </trkpt>
      <trkpt lat="43.3609" lon="6.66389">
        <ele>345.60000610352</ele>
        <time>2018-02-03T12:09:38.000Z</time>
      </trkpt>
      <trkpt lat="43.36091" lon="6.66389">
        <ele>346.20001220703</ele>
        <time>2018-02-03T12:09:44.000Z</time>
      </trkpt>
      <trkpt lat="43.36091" lon="6.66389">
        <ele>345.79998779297</ele>
        <time>2018-02-03T12:09:49.000Z</time>
      </trkpt>
      <trkpt lat="43.36091" lon="6.66389">
        <ele>346.20001220703</ele>
        <time>2018-02-03T12:09:51.000Z</time>
      </trkpt>
      <trkpt lat="43.36091" lon="6.66389">
        <ele>346.39999389648</ele>
        <time>2018-02-03T12:10:00.000Z</time>
      </trkpt>
      <trkpt lat="43.3609" lon="6.6639">
        <ele>346.20001220703</ele>
        <time>2018-02-03T12:10:06.000Z</time>
      </trkpt>
      <trkpt lat="43.36091" lon="6.6639">
        <ele>346.60000610352</ele>
        <time>2018-02-03T12:10:23.000Z</time>
      </trkpt>
      <trkpt lat="43.3609" lon="6.6639">
        <ele>346.60000610352</ele>
        <time>2018-02-03T12:10:33.000Z</time>
      </trkpt>
      <trkpt lat="43.3609" lon="6.6639">
        <ele>346.60000610352</ele>
        <time>2018-02-03T12:10:41.000Z</time>
      </trkpt>
      <trkpt lat="43.36091" lon="6.6639">
        <ele>346.39999389648</ele>
        <time>2018-02-03T12:10:52.000Z</time>
      </trkpt>
      <trkpt lat="43.36091" lon="6.66389">
        <ele>346.39999389648</ele>
        <time>2018-02-03T12:10:58.000Z</time>
      </trkpt>
      <trkpt lat="43.3609" lon="6.66389">
        <ele>346.20001220703</ele>
        <time>2018-02-03T12:11:07.000Z</time>
      </trkpt>
      <trkpt lat="43.36091" lon="6.66389">
        <ele>346.60000610352</ele>
        <time>2018-02-03T12:11:17.000Z</time>
      </trkpt>
      <trkpt lat="43.36091" lon="6.6639">
        <ele>346.60000610352</ele>
        <time>2018-02-03T12:11:30.000Z</time>
      </trkpt>
      <trkpt lat="43.36091" lon="6.6639">
        <ele>346.60000610352</ele>
        <time>2018-02-03T12:11:39.000Z</time>
      </trkpt>
      <trkpt lat="43.36091" lon="6.6639">
        <ele>346.60000610352</ele>
        <time>2018-02-03T12:11:51.000Z</time>
      </trkpt>
      <trkpt lat="43.36091" lon="6.6639">
        <ele>346.60000610352</ele>
        <time>2018-02-03T12:12:04.000Z</time>
      </trkpt>
      <trkpt lat="43.36091" lon="6.6639">
        <ele>346.79998779297</ele>
        <time>2018-02-03T12:12:13.000Z</time>
      </trkpt>
      <trkpt lat="43.36092" lon="6.66391">
        <ele>346.79998779297</ele>
        <time>2018-02-03T12:12:18.000Z</time>
      </trkpt>
      <trkpt lat="43.36092" lon="6.66393">
        <ele>346.60000610352</ele>
        <time>2018-02-03T12:12:22.000Z</time>
      </trkpt>
      <trkpt lat="43.36093" lon="6.66396">
        <ele>346.79998779297</ele>
        <time>2018-02-03T12:12:30.000Z</time>
      </trkpt>
      <trkpt lat="43.36094" lon="6.66396">
        <ele>347</ele>
        <time>2018-02-03T12:12:42.000Z</time>
      </trkpt>
      <trkpt lat="43.36094" lon="6.66397">
        <ele>346.79998779297</ele>
        <time>2018-02-03T12:12:52.000Z</time>
      </trkpt>
      <trkpt lat="43.36096" lon="6.66397">
        <ele>346.79998779297</ele>
        <time>2018-02-03T12:12:54.000Z</time>
      </trkpt>
      <trkpt lat="43.36098" lon="6.66397">
        <ele>347</ele>
        <time>2018-02-03T12:12:56.000Z</time>
      </trkpt>
      <trkpt lat="43.36099" lon="6.66398">
        <ele>347.39999389648</ele>
        <time>2018-02-03T12:12:58.000Z</time>
      </trkpt>
      <trkpt lat="43.361" lon="6.66399">
        <ele>347.39999389648</ele>
        <time>2018-02-03T12:13:00.000Z</time>
      </trkpt>
      <trkpt lat="43.36101" lon="6.664">
        <ele>347.60000610352</ele>
        <time>2018-02-03T12:13:02.000Z</time>
      </trkpt>
      <trkpt lat="43.36105" lon="6.66401">
        <ele>348.39999389648</ele>
        <time>2018-02-03T12:13:06.000Z</time>
      </trkpt>
      <trkpt lat="43.36106" lon="6.66401">
        <ele>349</ele>
        <time>2018-02-03T12:13:11.000Z</time>
      </trkpt>
      <trkpt lat="43.36106" lon="6.66401">
        <ele>349.20001220703</ele>
        <time>2018-02-03T12:13:19.000Z</time>
      </trkpt>
      <trkpt lat="43.36111" lon="6.66407">
        <ele>349</ele>
        <time>2018-02-03T12:13:26.000Z</time>
      </trkpt>
      <trkpt lat="43.36117" lon="6.66416">
        <ele>348.20001220703</ele>
        <time>2018-02-03T12:13:32.000Z</time>
      </trkpt>
      <trkpt lat="43.3612" lon="6.66424">
        <ele>347.60000610352</ele>
        <time>2018-02-03T12:13:35.000Z</time>
      </trkpt>
      <trkpt lat="43.3612" lon="6.66429">
        <ele>347.20001220703</ele>
        <time>2018-02-03T12:13:36.000Z</time>
      </trkpt>
      <trkpt lat="43.36117" lon="6.66436">
        <ele>346.20001220703</ele>
        <time>2018-02-03T12:13:38.000Z</time>
      </trkpt>
      <trkpt lat="43.36114" lon="6.66442">
        <ele>344.39999389648</ele>
        <time>2018-02-03T12:13:40.000Z</time>
      </trkpt>
      <trkpt lat="43.36114" lon="6.66446">
        <ele>343.39999389648</ele>
        <time>2018-02-03T12:13:42.000Z</time>
      </trkpt>
      <trkpt lat="43.36117" lon="6.66449">
        <ele>342.60000610352</ele>
        <time>2018-02-03T12:13:44.000Z</time>
      </trkpt>
      <trkpt lat="43.36118" lon="6.66452">
        <ele>342.20001220703</ele>
        <time>2018-02-03T12:13:45.000Z</time>
      </trkpt>
      <trkpt lat="43.36117" lon="6.66459">
        <ele>341.60000610352</ele>
        <time>2018-02-03T12:13:48.000Z</time>
      </trkpt>
      <trkpt lat="43.3612" lon="6.6646">
        <ele>341</ele>
        <time>2018-02-03T12:13:50.000Z</time>
      </trkpt>
      <trkpt lat="43.36123" lon="6.66462">
        <ele>340.39999389648</ele>
        <time>2018-02-03T12:13:51.000Z</time>
      </trkpt>
      <trkpt lat="43.36124" lon="6.66465">
        <ele>339.79998779297</ele>
        <time>2018-02-03T12:13:52.000Z</time>
      </trkpt>
      <trkpt lat="43.36127" lon="6.66471">
        <ele>338.60000610352</ele>
        <time>2018-02-03T12:13:54.000Z</time>
      </trkpt>
      <trkpt lat="43.36135" lon="6.66473">
        <ele>337</ele>
        <time>2018-02-03T12:13:56.000Z</time>
      </trkpt>
      <trkpt lat="43.3614" lon="6.66477">
        <ele>336</ele>
        <time>2018-02-03T12:13:57.000Z</time>
      </trkpt>
      <trkpt lat="43.36143" lon="6.66482">
        <ele>334.39999389648</ele>
        <time>2018-02-03T12:13:58.000Z</time>
      </trkpt>
      <trkpt lat="43.36145" lon="6.66486">
        <ele>333.39999389648</ele>
        <time>2018-02-03T12:13:59.000Z</time>
      </trkpt>
      <trkpt lat="43.36148" lon="6.66491">
        <ele>332.20001220703</ele>
        <time>2018-02-03T12:14:00.000Z</time>
      </trkpt>
      <trkpt lat="43.3615" lon="6.66496">
        <ele>331.39999389648</ele>
        <time>2018-02-03T12:14:01.000Z</time>
      </trkpt>
      <trkpt lat="43.36152" lon="6.66501">
        <ele>330.79998779297</ele>
        <time>2018-02-03T12:14:02.000Z</time>
      </trkpt>
      <trkpt lat="43.36152" lon="6.66509">
        <ele>329.60000610352</ele>
        <time>2018-02-03T12:14:04.000Z</time>
      </trkpt>
      <trkpt lat="43.36152" lon="6.66508">
        <ele>328.60000610352</ele>
        <time>2018-02-03T12:14:06.000Z</time>
      </trkpt>
      <trkpt lat="43.36152" lon="6.66508">
        <ele>328</ele>
        <time>2018-02-03T12:14:07.000Z</time>
      </trkpt>
      <trkpt lat="43.36152" lon="6.66508">
        <ele>327</ele>
        <time>2018-02-03T12:14:08.000Z</time>
      </trkpt>
      <trkpt lat="43.36151" lon="6.66512">
        <ele>327.20001220703</ele>
        <time>2018-02-03T12:14:13.000Z</time>
      </trkpt>
      <trkpt lat="43.36149" lon="6.66518">
        <ele>327.20001220703</ele>
        <time>2018-02-03T12:14:16.000Z</time>
      </trkpt>
      <trkpt lat="43.36149" lon="6.66524">
        <ele>326.20001220703</ele>
        <time>2018-02-03T12:14:19.000Z</time>
      </trkpt>
      <trkpt lat="43.3615" lon="6.66526">
        <ele>325.79998779297</ele>
        <time>2018-02-03T12:14:20.000Z</time>
      </trkpt>
      <trkpt lat="43.36153" lon="6.66532">
        <ele>324.60000610352</ele>
        <time>2018-02-03T12:14:23.000Z</time>
      </trkpt>
      <trkpt lat="43.36154" lon="6.66534">
        <ele>324.20001220703</ele>
        <time>2018-02-03T12:14:24.000Z</time>
      </trkpt>
      <trkpt lat="43.36154" lon="6.66536">
        <ele>323</ele>
        <time>2018-02-03T12:14:26.000Z</time>
      </trkpt>
      <trkpt lat="43.36155" lon="6.66539">
        <ele>322</ele>
        <time>2018-02-03T12:14:28.000Z</time>
      </trkpt>
      <trkpt lat="43.36154" lon="6.6654">
        <ele>321.79998779297</ele>
        <time>2018-02-03T12:14:29.000Z</time>
      </trkpt>
      <trkpt lat="43.3615" lon="6.66543">
        <ele>321</ele>
        <time>2018-02-03T12:14:32.000Z</time>
      </trkpt>
      <trkpt lat="43.3615" lon="6.66543">
        <ele>320.20001220703</ele>
        <time>2018-02-03T12:14:34.000Z</time>
      </trkpt>
      <trkpt lat="43.3615" lon="6.66543">
        <ele>320</ele>
        <time>2018-02-03T12:14:35.000Z</time>
      </trkpt>
      <trkpt lat="43.36146" lon="6.66546">
        <ele>319.39999389648</ele>
        <time>2018-02-03T12:14:46.000Z</time>
      </trkpt>
      <trkpt lat="43.36146" lon="6.66549">
        <ele>319.20001220703</ele>
        <time>2018-02-03T12:14:48.000Z</time>
      </trkpt>
      <trkpt lat="43.36146" lon="6.6655">
        <ele>318.79998779297</ele>
        <time>2018-02-03T12:14:49.000Z</time>
      </trkpt>
      <trkpt lat="43.36146" lon="6.6655">
        <ele>318</ele>
        <time>2018-02-03T12:14:51.000Z</time>
      </trkpt>
      <trkpt lat="43.36146" lon="6.6655">
        <ele>317.60000610352</ele>
        <time>2018-02-03T12:14:52.000Z</time>
      </trkpt>
      <trkpt lat="43.36147" lon="6.6655">
        <ele>317.39999389648</ele>
        <time>2018-02-03T12:14:59.000Z</time>
      </trkpt>
      <trkpt lat="43.36147" lon="6.6655">
        <ele>317.79998779297</ele>
        <time>2018-02-03T12:15:06.000Z</time>
      </trkpt>
      <trkpt lat="43.36147" lon="6.6655">
        <ele>317.79998779297</ele>
        <time>2018-02-03T12:15:19.000Z</time>
      </trkpt>
      <trkpt lat="43.36147" lon="6.6655">
        <ele>318.20001220703</ele>
        <time>2018-02-03T12:15:34.000Z</time>
      </trkpt>
      <trkpt lat="43.36147" lon="6.6655">
        <ele>318</ele>
        <time>2018-02-03T12:15:50.000Z</time>
      </trkpt>
      <trkpt lat="43.36147" lon="6.6655">
        <ele>318.20001220703</ele>
        <time>2018-02-03T12:16:08.000Z</time>
      </trkpt>
      <trkpt lat="43.36147" lon="6.66551">
        <ele>318.20001220703</ele>
        <time>2018-02-03T12:16:18.000Z</time>
      </trkpt>
      <trkpt lat="43.36147" lon="6.6655">
        <ele>318</ele>
        <time>2018-02-03T12:16:22.000Z</time>
      </trkpt>
      <trkpt lat="43.36147" lon="6.6655">
        <ele>318</ele>
        <time>2018-02-03T12:16:28.000Z</time>
      </trkpt>
      <trkpt lat="43.36149" lon="6.66556">
        <ele>317.79998779297</ele>
        <time>2018-02-03T12:16:35.000Z</time>
      </trkpt>
      <trkpt lat="43.36157" lon="6.66568">
        <ele>316.60000610352</ele>
        <time>2018-02-03T12:16:39.000Z</time>
      </trkpt>
      <trkpt lat="43.36161" lon="6.6657">
        <ele>316</ele>
        <time>2018-02-03T12:16:40.000Z</time>
      </trkpt>
      <trkpt lat="43.36164" lon="6.66571">
        <ele>315.39999389648</ele>
        <time>2018-02-03T12:16:41.000Z</time>
      </trkpt>
      <trkpt lat="43.36172" lon="6.66574">
        <ele>314.20001220703</ele>
        <time>2018-02-03T12:16:44.000Z</time>
      </trkpt>
      <trkpt lat="43.36177" lon="6.66579">
        <ele>313.79998779297</ele>
        <time>2018-02-03T12:16:48.000Z</time>
      </trkpt>
      <trkpt lat="43.36188" lon="6.66593">
        <ele>313.39999389648</ele>
        <time>2018-02-03T12:16:53.000Z</time>
      </trkpt>
      <trkpt lat="43.36191" lon="6.66596">
        <ele>313.20001220703</ele>
        <time>2018-02-03T12:16:54.000Z</time>
      </trkpt>
      <trkpt lat="43.36197" lon="6.66602">
        <ele>312.20001220703</ele>
        <time>2018-02-03T12:16:56.000Z</time>
      </trkpt>
      <trkpt lat="43.36205" lon="6.66604">
        <ele>311</ele>
        <time>2018-02-03T12:16:58.000Z</time>
      </trkpt>
      <trkpt lat="43.36214" lon="6.66602">
        <ele>310</ele>
        <time>2018-02-03T12:17:00.000Z</time>
      </trkpt>
      <trkpt lat="43.3622" lon="6.66597">
        <ele>309</ele>
        <time>2018-02-03T12:17:02.000Z</time>
      </trkpt>
      <trkpt lat="43.36221" lon="6.66596">
        <ele>308.20001220703</ele>
        <time>2018-02-03T12:17:03.000Z</time>
      </trkpt>
      <trkpt lat="43.36221" lon="6.66596">
        <ele>307.79998779297</ele>
        <time>2018-02-03T12:17:05.000Z</time>
      </trkpt>
      <trkpt lat="43.36222" lon="6.66596">
        <ele>307</ele>
        <time>2018-02-03T12:17:07.000Z</time>
      </trkpt>
      <trkpt lat="43.36221" lon="6.66597">
        <ele>307.20001220703</ele>
        <time>2018-02-03T12:17:22.000Z</time>
      </trkpt>
      <trkpt lat="43.36222" lon="6.66598">
        <ele>307.20001220703</ele>
        <time>2018-02-03T12:17:26.000Z</time>
      </trkpt>
      <trkpt lat="43.36224" lon="6.66602">
        <ele>307.20001220703</ele>
        <time>2018-02-03T12:17:28.000Z</time>
      </trkpt>
      <trkpt lat="43.36222" lon="6.66614">
        <ele>306.39999389648</ele>
        <time>2018-02-03T12:17:32.000Z</time>
      </trkpt>
      <trkpt lat="43.36223" lon="6.66617">
        <ele>305.79998779297</ele>
        <time>2018-02-03T12:17:34.000Z</time>
      </trkpt>
      <trkpt lat="43.36223" lon="6.66619">
        <ele>305.79998779297</ele>
        <time>2018-02-03T12:17:35.000Z</time>
      </trkpt>
      <trkpt lat="43.36223" lon="6.66621">
        <ele>305.60000610352</ele>
        <time>2018-02-03T12:17:36.000Z</time>
      </trkpt>
      <trkpt lat="43.36223" lon="6.66623">
        <ele>305.60000610352</ele>
        <time>2018-02-03T12:17:37.000Z</time>
      </trkpt>
      <trkpt lat="43.36226" lon="6.66629">
        <ele>304.60000610352</ele>
        <time>2018-02-03T12:17:40.000Z</time>
      </trkpt>
      <trkpt lat="43.36227" lon="6.6663">
        <ele>304.20001220703</ele>
        <time>2018-02-03T12:17:41.000Z</time>
      </trkpt>
      <trkpt lat="43.36228" lon="6.66632">
        <ele>303.39999389648</ele>
        <time>2018-02-03T12:17:42.000Z</time>
      </trkpt>
      <trkpt lat="43.3623" lon="6.66636">
        <ele>301.79998779297</ele>
        <time>2018-02-03T12:17:44.000Z</time>
      </trkpt>
      <trkpt lat="43.36228" lon="6.66639">
        <ele>302</ele>
        <time>2018-02-03T12:17:46.000Z</time>
      </trkpt>
      <trkpt lat="43.36225" lon="6.66644">
        <ele>300.79998779297</ele>
        <time>2018-02-03T12:17:49.000Z</time>
      </trkpt>
      <trkpt lat="43.36226" lon="6.66648">
        <ele>299.79998779297</ele>
        <time>2018-02-03T12:17:51.000Z</time>
      </trkpt>
      <trkpt lat="43.36227" lon="6.6665">
        <ele>299.60000610352</ele>
        <time>2018-02-03T12:17:52.000Z</time>
      </trkpt>
      <trkpt lat="43.36237" lon="6.66654">
        <ele>299</ele>
        <time>2018-02-03T12:17:55.000Z</time>
      </trkpt>
      <trkpt lat="43.36244" lon="6.66657">
        <ele>298.39999389648</ele>
        <time>2018-02-03T12:17:59.000Z</time>
      </trkpt>
      <trkpt lat="43.36241" lon="6.66668">
        <ele>297.39999389648</ele>
        <time>2018-02-03T12:18:02.000Z</time>
      </trkpt>
      <trkpt lat="43.36244" lon="6.66674">
        <ele>296</ele>
        <time>2018-02-03T12:18:04.000Z</time>
      </trkpt>
      <trkpt lat="43.36247" lon="6.66676">
        <ele>295.20001220703</ele>
        <time>2018-02-03T12:18:05.000Z</time>
      </trkpt>
      <trkpt lat="43.3625" lon="6.66679">
        <ele>294.60000610352</ele>
        <time>2018-02-03T12:18:06.000Z</time>
      </trkpt>
      <trkpt lat="43.36248" lon="6.66687">
        <ele>292.79998779297</ele>
        <time>2018-02-03T12:18:08.000Z</time>
      </trkpt>
      <trkpt lat="43.36252" lon="6.66691">
        <ele>291.39999389648</ele>
        <time>2018-02-03T12:18:10.000Z</time>
      </trkpt>
      <trkpt lat="43.36258" lon="6.66695">
        <ele>290.20001220703</ele>
        <time>2018-02-03T12:18:12.000Z</time>
      </trkpt>
      <trkpt lat="43.3626" lon="6.66699">
        <ele>289.39999389648</ele>
        <time>2018-02-03T12:18:13.000Z</time>
      </trkpt>
      <trkpt lat="43.36259" lon="6.6671">
        <ele>288.20001220703</ele>
        <time>2018-02-03T12:18:15.000Z</time>
      </trkpt>
      <trkpt lat="43.36259" lon="6.66715">
        <ele>287</ele>
        <time>2018-02-03T12:18:16.000Z</time>
      </trkpt>
      <trkpt lat="43.36259" lon="6.6672">
        <ele>285.39999389648</ele>
        <time>2018-02-03T12:18:17.000Z</time>
      </trkpt>
      <trkpt lat="43.36259" lon="6.66724">
        <ele>284.39999389648</ele>
        <time>2018-02-03T12:18:18.000Z</time>
      </trkpt>
      <trkpt lat="43.36261" lon="6.66726">
        <ele>284</ele>
        <time>2018-02-03T12:18:19.000Z</time>
      </trkpt>
      <trkpt lat="43.36263" lon="6.66726">
        <ele>283</ele>
        <time>2018-02-03T12:18:20.000Z</time>
      </trkpt>
      <trkpt lat="43.36266" lon="6.66727">
        <ele>282</ele>
        <time>2018-02-03T12:18:21.000Z</time>
      </trkpt>
      <trkpt lat="43.36269" lon="6.6673">
        <ele>280.39999389648</ele>
        <time>2018-02-03T12:18:22.000Z</time>
      </trkpt>
      <trkpt lat="43.3627" lon="6.66734">
        <ele>279.60000610352</ele>
        <time>2018-02-03T12:18:23.000Z</time>
      </trkpt>
      <trkpt lat="43.36269" lon="6.6674">
        <ele>278.60000610352</ele>
        <time>2018-02-03T12:18:24.000Z</time>
      </trkpt>
      <trkpt lat="43.36267" lon="6.66746">
        <ele>276.79998779297</ele>
        <time>2018-02-03T12:18:25.000Z</time>
      </trkpt>
      <trkpt lat="43.36264" lon="6.66755">
        <ele>275</ele>
        <time>2018-02-03T12:18:27.000Z</time>
      </trkpt>
      <trkpt lat="43.36263" lon="6.66759">
        <ele>274</ele>
        <time>2018-02-03T12:18:28.000Z</time>
      </trkpt>
      <trkpt lat="43.36269" lon="6.66764">
        <ele>272.60000610352</ele>
        <time>2018-02-03T12:18:30.000Z</time>
      </trkpt>
      <trkpt lat="43.36272" lon="6.66766">
        <ele>271.60000610352</ele>
        <time>2018-02-03T12:18:31.000Z</time>
      </trkpt>
      <trkpt lat="43.36275" lon="6.66768">
        <ele>270.39999389648</ele>
        <time>2018-02-03T12:18:32.000Z</time>
      </trkpt>
      <trkpt lat="43.36278" lon="6.66769">
        <ele>269.39999389648</ele>
        <time>2018-02-03T12:18:33.000Z</time>
      </trkpt>
      <trkpt lat="43.36281" lon="6.66772">
        <ele>268.20001220703</ele>
        <time>2018-02-03T12:18:34.000Z</time>
      </trkpt>
      <trkpt lat="43.36281" lon="6.66775">
        <ele>266.79998779297</ele>
        <time>2018-02-03T12:18:35.000Z</time>
      </trkpt>
      <trkpt lat="43.36283" lon="6.66782">
        <ele>264.79998779297</ele>
        <time>2018-02-03T12:18:37.000Z</time>
      </trkpt>
      <trkpt lat="43.36283" lon="6.66783">
        <ele>263.60000610352</ele>
        <time>2018-02-03T12:18:38.000Z</time>
      </trkpt>
      <trkpt lat="43.36283" lon="6.66782">
        <ele>262.60000610352</ele>
        <time>2018-02-03T12:18:39.000Z</time>
      </trkpt>
      <trkpt lat="43.36283" lon="6.66783">
        <ele>261</ele>
        <time>2018-02-03T12:18:41.000Z</time>
      </trkpt>
      <trkpt lat="43.36282" lon="6.66783">
        <ele>260</ele>
        <time>2018-02-03T12:18:45.000Z</time>
      </trkpt>
      <trkpt lat="43.36282" lon="6.66783">
        <ele>258.79998779297</ele>
        <time>2018-02-03T12:18:53.000Z</time>
      </trkpt>
      <trkpt lat="43.36283" lon="6.66785">
        <ele>257.79998779297</ele>
        <time>2018-02-03T12:18:59.000Z</time>
      </trkpt>
      <trkpt lat="43.36286" lon="6.66788">
        <ele>257.60000610352</ele>
        <time>2018-02-03T12:19:01.000Z</time>
      </trkpt>
      <trkpt lat="43.3629" lon="6.6679">
        <ele>256.60000610352</ele>
        <time>2018-02-03T12:19:03.000Z</time>
      </trkpt>
      <trkpt lat="43.36291" lon="6.66792">
        <ele>256</ele>
        <time>2018-02-03T12:19:04.000Z</time>
      </trkpt>
      <trkpt lat="43.36293" lon="6.66795">
        <ele>254.39999389648</ele>
        <time>2018-02-03T12:19:06.000Z</time>
      </trkpt>
      <trkpt lat="43.36297" lon="6.66792">
        <ele>252.39999389648</ele>
        <time>2018-02-03T12:19:08.000Z</time>
      </trkpt>
      <trkpt lat="43.36299" lon="6.6679">
        <ele>251.60000610352</ele>
        <time>2018-02-03T12:19:09.000Z</time>
      </trkpt>
      <trkpt lat="43.36303" lon="6.66788">
        <ele>250.60000610352</ele>
        <time>2018-02-03T12:19:10.000Z</time>
      </trkpt>
      <trkpt lat="43.36305" lon="6.66791">
        <ele>249.80000305176</ele>
        <time>2018-02-03T12:19:11.000Z</time>
      </trkpt>
      <trkpt lat="43.36306" lon="6.66796">
        <ele>249.19999694824</ele>
        <time>2018-02-03T12:19:12.000Z</time>
      </trkpt>
      <trkpt lat="43.36303" lon="6.66807">
        <ele>248</ele>
        <time>2018-02-03T12:19:14.000Z</time>
      </trkpt>
      <trkpt lat="43.36301" lon="6.66814">
        <ele>247.39999389648</ele>
        <time>2018-02-03T12:19:15.000Z</time>
      </trkpt>
      <trkpt lat="43.36298" lon="6.6682">
        <ele>246.39999389648</ele>
        <time>2018-02-03T12:19:16.000Z</time>
      </trkpt>
      <trkpt lat="43.36298" lon="6.66825">
        <ele>245.19999694824</ele>
        <time>2018-02-03T12:19:17.000Z</time>
      </trkpt>
      <trkpt lat="43.36297" lon="6.66832">
        <ele>244.19999694824</ele>
        <time>2018-02-03T12:19:18.000Z</time>
      </trkpt>
      <trkpt lat="43.36296" lon="6.66838">
        <ele>243</ele>
        <time>2018-02-03T12:19:19.000Z</time>
      </trkpt>
      <trkpt lat="43.3629" lon="6.66851">
        <ele>241</ele>
        <time>2018-02-03T12:19:21.000Z</time>
      </trkpt>
      <trkpt lat="43.36285" lon="6.66857">
        <ele>239.80000305176</ele>
        <time>2018-02-03T12:19:22.000Z</time>
      </trkpt>
      <trkpt lat="43.36281" lon="6.66859">
        <ele>238.39999389648</ele>
        <time>2018-02-03T12:19:23.000Z</time>
      </trkpt>
      <trkpt lat="43.36277" lon="6.66862">
        <ele>237.19999694824</ele>
        <time>2018-02-03T12:19:24.000Z</time>
      </trkpt>
      <trkpt lat="43.36274" lon="6.66863">
        <ele>236</ele>
        <time>2018-02-03T12:19:25.000Z</time>
      </trkpt>
      <trkpt lat="43.36273" lon="6.66871">
        <ele>234.60000610352</ele>
        <time>2018-02-03T12:19:27.000Z</time>
      </trkpt>
      <trkpt lat="43.36274" lon="6.66876">
        <ele>234.19999694824</ele>
        <time>2018-02-03T12:19:28.000Z</time>
      </trkpt>
      <trkpt lat="43.36275" lon="6.6688">
        <ele>233.39999389648</ele>
        <time>2018-02-03T12:19:29.000Z</time>
      </trkpt>
      <trkpt lat="43.36277" lon="6.66884">
        <ele>233</ele>
        <time>2018-02-03T12:19:30.000Z</time>
      </trkpt>
      <trkpt lat="43.36281" lon="6.6689">
        <ele>231.80000305176</ele>
        <time>2018-02-03T12:19:32.000Z</time>
      </trkpt>
      <trkpt lat="43.36284" lon="6.66892">
        <ele>230.80000305176</ele>
        <time>2018-02-03T12:19:33.000Z</time>
      </trkpt>
      <trkpt lat="43.36286" lon="6.66896">
        <ele>230.19999694824</ele>
        <time>2018-02-03T12:19:34.000Z</time>
      </trkpt>
      <trkpt lat="43.36286" lon="6.66901">
        <ele>229.19999694824</ele>
        <time>2018-02-03T12:19:35.000Z</time>
      </trkpt>
      <trkpt lat="43.36284" lon="6.66906">
        <ele>227.60000610352</ele>
        <time>2018-02-03T12:19:36.000Z</time>
      </trkpt>
      <trkpt lat="43.36282" lon="6.66914">
        <ele>226</ele>
        <time>2018-02-03T12:19:38.000Z</time>
      </trkpt>
      <trkpt lat="43.36283" lon="6.66917">
        <ele>224.80000305176</ele>
        <time>2018-02-03T12:19:39.000Z</time>
      </trkpt>
      <trkpt lat="43.36285" lon="6.66918">
        <ele>223.80000305176</ele>
        <time>2018-02-03T12:19:40.000Z</time>
      </trkpt>
      <trkpt lat="43.36289" lon="6.66918">
        <ele>222</ele>
        <time>2018-02-03T12:19:42.000Z</time>
      </trkpt>
      <trkpt lat="43.36293" lon="6.66918">
        <ele>220.80000305176</ele>
        <time>2018-02-03T12:19:44.000Z</time>
      </trkpt>
      <trkpt lat="43.36298" lon="6.66919">
        <ele>220.19999694824</ele>
        <time>2018-02-03T12:19:47.000Z</time>
      </trkpt>
      <trkpt lat="43.36299" lon="6.66921">
        <ele>220.19999694824</ele>
        <time>2018-02-03T12:19:48.000Z</time>
      </trkpt>
      <trkpt lat="43.36299" lon="6.66922">
        <ele>219.80000305176</ele>
        <time>2018-02-03T12:19:49.000Z</time>
      </trkpt>
      <trkpt lat="43.36299" lon="6.66921">
        <ele>218.80000305176</ele>
        <time>2018-02-03T12:19:52.000Z</time>
      </trkpt>
      <trkpt lat="43.36298" lon="6.66922">
        <ele>218.39999389648</ele>
        <time>2018-02-03T12:20:01.000Z</time>
      </trkpt>
      <trkpt lat="43.36299" lon="6.66921">
        <ele>219</ele>
        <time>2018-02-03T12:20:14.000Z</time>
      </trkpt>
      <trkpt lat="43.363" lon="6.6692">
        <ele>218.60000610352</ele>
        <time>2018-02-03T12:20:16.000Z</time>
      </trkpt>
      <trkpt lat="43.36305" lon="6.66922">
        <ele>218.60000610352</ele>
        <time>2018-02-03T12:20:18.000Z</time>
      </trkpt>
      <trkpt lat="43.3631" lon="6.6692">
        <ele>218.19999694824</ele>
        <time>2018-02-03T12:20:20.000Z</time>
      </trkpt>
      <trkpt lat="43.36311" lon="6.66919">
        <ele>217.80000305176</ele>
        <time>2018-02-03T12:20:21.000Z</time>
      </trkpt>
      <trkpt lat="43.36317" lon="6.66914">
        <ele>216.80000305176</ele>
        <time>2018-02-03T12:20:23.000Z</time>
      </trkpt>
      <trkpt lat="43.36319" lon="6.66911">
        <ele>216.19999694824</ele>
        <time>2018-02-03T12:20:24.000Z</time>
      </trkpt>
      <trkpt lat="43.36322" lon="6.66912">
        <ele>215.60000610352</ele>
        <time>2018-02-03T12:20:25.000Z</time>
      </trkpt>
      <trkpt lat="43.36322" lon="6.66916">
        <ele>215.19999694824</ele>
        <time>2018-02-03T12:20:26.000Z</time>
      </trkpt>
      <trkpt lat="43.3632" lon="6.66922">
        <ele>214.19999694824</ele>
        <time>2018-02-03T12:20:28.000Z</time>
      </trkpt>
      <trkpt lat="43.36321" lon="6.66923">
        <ele>213.39999389648</ele>
        <time>2018-02-03T12:20:29.000Z</time>
      </trkpt>
      <trkpt lat="43.36322" lon="6.66923">
        <ele>212.60000610352</ele>
        <time>2018-02-03T12:20:30.000Z</time>
      </trkpt>
      <trkpt lat="43.36327" lon="6.66917">
        <ele>211.60000610352</ele>
        <time>2018-02-03T12:20:32.000Z</time>
      </trkpt>
      <trkpt lat="43.36331" lon="6.66915">
        <ele>211.39999389648</ele>
        <time>2018-02-03T12:20:33.000Z</time>
      </trkpt>
      <trkpt lat="43.36338" lon="6.66916">
        <ele>210.80000305176</ele>
        <time>2018-02-03T12:20:36.000Z</time>
      </trkpt>
      <trkpt lat="43.36337" lon="6.66921">
        <ele>210.19999694824</ele>
        <time>2018-02-03T12:20:37.000Z</time>
      </trkpt>
      <trkpt lat="43.36337" lon="6.66928">
        <ele>209.19999694824</ele>
        <time>2018-02-03T12:20:39.000Z</time>
      </trkpt>
      <trkpt lat="43.36336" lon="6.66939">
        <ele>207.39999389648</ele>
        <time>2018-02-03T12:20:41.000Z</time>
      </trkpt>
      <trkpt lat="43.36334" lon="6.66943">
        <ele>206.39999389648</ele>
        <time>2018-02-03T12:20:42.000Z</time>
      </trkpt>
      <trkpt lat="43.36334" lon="6.66947">
        <ele>205.60000610352</ele>
        <time>2018-02-03T12:20:43.000Z</time>
      </trkpt>
      <trkpt lat="43.36337" lon="6.66948">
        <ele>205</ele>
        <time>2018-02-03T12:20:44.000Z</time>
      </trkpt>
      <trkpt lat="43.36339" lon="6.66945">
        <ele>204.39999389648</ele>
        <time>2018-02-03T12:20:45.000Z</time>
      </trkpt>
      <trkpt lat="43.36341" lon="6.6694">
        <ele>203.60000610352</ele>
        <time>2018-02-03T12:20:46.000Z</time>
      </trkpt>
      <trkpt lat="43.36343" lon="6.66936">
        <ele>203</ele>
        <time>2018-02-03T12:20:47.000Z</time>
      </trkpt>
      <trkpt lat="43.3635" lon="6.6693">
        <ele>201.60000610352</ele>
        <time>2018-02-03T12:20:49.000Z</time>
      </trkpt>
      <trkpt lat="43.36353" lon="6.66927">
        <ele>201</ele>
        <time>2018-02-03T12:20:50.000Z</time>
      </trkpt>
      <trkpt lat="43.36356" lon="6.66929">
        <ele>200.80000305176</ele>
        <time>2018-02-03T12:20:51.000Z</time>
      </trkpt>
      <trkpt lat="43.36357" lon="6.66932">
        <ele>200.80000305176</ele>
        <time>2018-02-03T12:20:52.000Z</time>
      </trkpt>
      <trkpt lat="43.36356" lon="6.66934">
        <ele>200.60000610352</ele>
        <time>2018-02-03T12:20:53.000Z</time>
      </trkpt>
      <trkpt lat="43.36353" lon="6.66936">
        <ele>199.60000610352</ele>
        <time>2018-02-03T12:20:55.000Z</time>
      </trkpt>
      <trkpt lat="43.36352" lon="6.66939">
        <ele>199</ele>
        <time>2018-02-03T12:20:56.000Z</time>
      </trkpt>
      <trkpt lat="43.36351" lon="6.66949">
        <ele>197.80000305176</ele>
        <time>2018-02-03T12:20:58.000Z</time>
      </trkpt>
      <trkpt lat="43.36347" lon="6.66955">
        <ele>196.60000610352</ele>
        <time>2018-02-03T12:21:01.000Z</time>
      </trkpt>
      <trkpt lat="43.36345" lon="6.66956">
        <ele>196.39999389648</ele>
        <time>2018-02-03T12:21:02.000Z</time>
      </trkpt>
      <trkpt lat="43.36341" lon="6.66964">
        <ele>197.80000305176</ele>
        <time>2018-02-03T12:21:07.000Z</time>
      </trkpt>
      <trkpt lat="43.36336" lon="6.66971">
        <ele>198.60000610352</ele>
        <time>2018-02-03T12:21:13.000Z</time>
      </trkpt>
      <trkpt lat="43.36336" lon="6.66971">
        <ele>198.80000305176</ele>
        <time>2018-02-03T12:21:14.000Z</time>
      </trkpt>
      <trkpt lat="43.36336" lon="6.66971">
        <ele>199.39999389648</ele>
        <time>2018-02-03T12:21:19.000Z</time>
      </trkpt>
      <trkpt lat="43.36335" lon="6.66971">
        <ele>199.80000305176</ele>
        <time>2018-02-03T12:21:25.000Z</time>
      </trkpt>
      <trkpt lat="43.36335" lon="6.66971">
        <ele>199.60000610352</ele>
        <time>2018-02-03T12:21:30.000Z</time>
      </trkpt>
      <trkpt lat="43.36334" lon="6.66973">
        <ele>199.60000610352</ele>
        <time>2018-02-03T12:21:42.000Z</time>
      </trkpt>
      <trkpt lat="43.36334" lon="6.66973">
        <ele>199.60000610352</ele>
        <time>2018-02-03T12:21:47.000Z</time>
      </trkpt>
      <trkpt lat="43.36337" lon="6.66973">
        <ele>199.80000305176</ele>
        <time>2018-02-03T12:21:52.000Z</time>
      </trkpt>
      <trkpt lat="43.36339" lon="6.66974">
        <ele>199.19999694824</ele>
        <time>2018-02-03T12:21:58.000Z</time>
      </trkpt>
      <trkpt lat="43.36343" lon="6.66976">
        <ele>199</ele>
        <time>2018-02-03T12:22:00.000Z</time>
      </trkpt>
      <trkpt lat="43.36345" lon="6.66977">
        <ele>198.60000610352</ele>
        <time>2018-02-03T12:22:01.000Z</time>
      </trkpt>
      <trkpt lat="43.36349" lon="6.66979">
        <ele>197.19999694824</ele>
        <time>2018-02-03T12:22:03.000Z</time>
      </trkpt>
      <trkpt lat="43.36352" lon="6.66978">
        <ele>196</ele>
        <time>2018-02-03T12:22:04.000Z</time>
      </trkpt>
      <trkpt lat="43.36355" lon="6.66976">
        <ele>194.80000305176</ele>
        <time>2018-02-03T12:22:05.000Z</time>
      </trkpt>
      <trkpt lat="43.36358" lon="6.66975">
        <ele>193.39999389648</ele>
        <time>2018-02-03T12:22:06.000Z</time>
      </trkpt>
      <trkpt lat="43.36363" lon="6.66974">
        <ele>192.19999694824</ele>
        <time>2018-02-03T12:22:07.000Z</time>
      </trkpt>
      <trkpt lat="43.36367" lon="6.66974">
        <ele>190.60000610352</ele>
        <time>2018-02-03T12:22:08.000Z</time>
      </trkpt>
      <trkpt lat="43.36367" lon="6.66974">
        <ele>189.60000610352</ele>
        <time>2018-02-03T12:22:09.000Z</time>
      </trkpt>
      <trkpt lat="43.36367" lon="6.66975">
        <ele>187.80000305176</ele>
        <time>2018-02-03T12:22:11.000Z</time>
      </trkpt>
      <trkpt lat="43.36368" lon="6.66978">
        <ele>187.19999694824</ele>
        <time>2018-02-03T12:22:13.000Z</time>
      </trkpt>
      <trkpt lat="43.36369" lon="6.66983">
        <ele>187.39999389648</ele>
        <time>2018-02-03T12:22:15.000Z</time>
      </trkpt>
      <trkpt lat="43.36367" lon="6.66991">
        <ele>186.80000305176</ele>
        <time>2018-02-03T12:22:17.000Z</time>
      </trkpt>
      <trkpt lat="43.36362" lon="6.67006">
        <ele>185.19999694824</ele>
        <time>2018-02-03T12:22:19.000Z</time>
      </trkpt>
      <trkpt lat="43.36359" lon="6.67011">
        <ele>183.80000305176</ele>
        <time>2018-02-03T12:22:20.000Z</time>
      </trkpt>
      <trkpt lat="43.36358" lon="6.67013">
        <ele>182.19999694824</ele>
        <time>2018-02-03T12:22:21.000Z</time>
      </trkpt>
      <trkpt lat="43.36359" lon="6.67015">
        <ele>181</ele>
        <time>2018-02-03T12:22:22.000Z</time>
      </trkpt>
      <trkpt lat="43.36362" lon="6.67017">
        <ele>180</ele>
        <time>2018-02-03T12:22:23.000Z</time>
      </trkpt>
      <trkpt lat="43.36367" lon="6.67019">
        <ele>179.80000305176</ele>
        <time>2018-02-03T12:22:24.000Z</time>
      </trkpt>
      <trkpt lat="43.36373" lon="6.67022">
        <ele>179.80000305176</ele>
        <time>2018-02-03T12:22:25.000Z</time>
      </trkpt>
      <trkpt lat="43.36378" lon="6.67024">
        <ele>179.39999389648</ele>
        <time>2018-02-03T12:22:26.000Z</time>
      </trkpt>
      <trkpt lat="43.3638" lon="6.67025">
        <ele>178.39999389648</ele>
        <time>2018-02-03T12:22:27.000Z</time>
      </trkpt>
      <trkpt lat="43.36385" lon="6.6703">
        <ele>177</ele>
        <time>2018-02-03T12:22:29.000Z</time>
      </trkpt>
      <trkpt lat="43.36385" lon="6.6704">
        <ele>177.19999694824</ele>
        <time>2018-02-03T12:22:32.000Z</time>
      </trkpt>
      <trkpt lat="43.36382" lon="6.67042">
        <ele>177.60000610352</ele>
        <time>2018-02-03T12:22:33.000Z</time>
      </trkpt>
      <trkpt lat="43.36367" lon="6.67051">
        <ele>176</ele>
        <time>2018-02-03T12:22:36.000Z</time>
      </trkpt>
      <trkpt lat="43.36361" lon="6.67054">
        <ele>175</ele>
        <time>2018-02-03T12:22:37.000Z</time>
      </trkpt>
      <trkpt lat="43.36359" lon="6.67054">
        <ele>172.19999694824</ele>
        <time>2018-02-03T12:22:38.000Z</time>
      </trkpt>
      <trkpt lat="43.36357" lon="6.67055">
        <ele>171</ele>
        <time>2018-02-03T12:22:39.000Z</time>
      </trkpt>
      <trkpt lat="43.36356" lon="6.67057">
        <ele>170.39999389648</ele>
        <time>2018-02-03T12:22:40.000Z</time>
      </trkpt>
      <trkpt lat="43.36361" lon="6.67061">
        <ele>171.80000305176</ele>
        <time>2018-02-03T12:22:43.000Z</time>
      </trkpt>
      <trkpt lat="43.36365" lon="6.67061">
        <ele>172</ele>
        <time>2018-02-03T12:22:44.000Z</time>
      </trkpt>
      <trkpt lat="43.36375" lon="6.67064">
        <ele>170.39999389648</ele>
        <time>2018-02-03T12:22:47.000Z</time>
      </trkpt>
      <trkpt lat="43.36376" lon="6.67065">
        <ele>169.60000610352</ele>
        <time>2018-02-03T12:22:48.000Z</time>
      </trkpt>
      <trkpt lat="43.3638" lon="6.6707">
        <ele>169.19999694824</ele>
        <time>2018-02-03T12:22:51.000Z</time>
      </trkpt>
      <trkpt lat="43.36381" lon="6.67079">
        <ele>170.19999694824</ele>
        <time>2018-02-03T12:22:54.000Z</time>
      </trkpt>
      <trkpt lat="43.36378" lon="6.67082">
        <ele>170.19999694824</ele>
        <time>2018-02-03T12:22:55.000Z</time>
      </trkpt>
      <trkpt lat="43.36368" lon="6.67093">
        <ele>168.39999389648</ele>
        <time>2018-02-03T12:22:58.000Z</time>
      </trkpt>
      <trkpt lat="43.36365" lon="6.67096">
        <ele>167.80000305176</ele>
        <time>2018-02-03T12:22:59.000Z</time>
      </trkpt>
      <trkpt lat="43.36362" lon="6.67098">
        <ele>166.60000610352</ele>
        <time>2018-02-03T12:23:00.000Z</time>
      </trkpt>
      <trkpt lat="43.36363" lon="6.671">
        <ele>165.39999389648</ele>
        <time>2018-02-03T12:23:01.000Z</time>
      </trkpt>
      <trkpt lat="43.36364" lon="6.67102">
        <ele>164.39999389648</ele>
        <time>2018-02-03T12:23:02.000Z</time>
      </trkpt>
      <trkpt lat="43.36367" lon="6.67104">
        <ele>164</ele>
        <time>2018-02-03T12:23:03.000Z</time>
      </trkpt>
      <trkpt lat="43.36376" lon="6.67104">
        <ele>163.80000305176</ele>
        <time>2018-02-03T12:23:05.000Z</time>
      </trkpt>
      <trkpt lat="43.36382" lon="6.67108">
        <ele>163</ele>
        <time>2018-02-03T12:23:08.000Z</time>
      </trkpt>
      <trkpt lat="43.36384" lon="6.67109">
        <ele>162.80000305176</ele>
        <time>2018-02-03T12:23:09.000Z</time>
      </trkpt>
      <trkpt lat="43.36385" lon="6.67112">
        <ele>163.19999694824</ele>
        <time>2018-02-03T12:23:10.000Z</time>
      </trkpt>
      <trkpt lat="43.36387" lon="6.67118">
        <ele>164</ele>
        <time>2018-02-03T12:23:12.000Z</time>
      </trkpt>
      <trkpt lat="43.36387" lon="6.67121">
        <ele>164.19999694824</ele>
        <time>2018-02-03T12:23:13.000Z</time>
      </trkpt>
      <trkpt lat="43.36386" lon="6.67137">
        <ele>164.60000610352</ele>
        <time>2018-02-03T12:23:18.000Z</time>
      </trkpt>
      <trkpt lat="43.36381" lon="6.67142">
        <ele>164.39999389648</ele>
        <time>2018-02-03T12:23:20.000Z</time>
      </trkpt>
      <trkpt lat="43.36377" lon="6.6715">
        <ele>163.19999694824</ele>
        <time>2018-02-03T12:23:22.000Z</time>
      </trkpt>
      <trkpt lat="43.36378" lon="6.67155">
        <ele>162.39999389648</ele>
        <time>2018-02-03T12:23:23.000Z</time>
      </trkpt>
      <trkpt lat="43.3638" lon="6.67158">
        <ele>161.19999694824</ele>
        <time>2018-02-03T12:23:24.000Z</time>
      </trkpt>
      <trkpt lat="43.3638" lon="6.67161">
        <ele>160.19999694824</ele>
        <time>2018-02-03T12:23:25.000Z</time>
      </trkpt>
      <trkpt lat="43.36383" lon="6.67171">
        <ele>159</ele>
        <time>2018-02-03T12:23:28.000Z</time>
      </trkpt>
      <trkpt lat="43.36383" lon="6.67173">
        <ele>159.19999694824</ele>
        <time>2018-02-03T12:23:29.000Z</time>
      </trkpt>
      <trkpt lat="43.36379" lon="6.67182">
        <ele>159.80000305176</ele>
        <time>2018-02-03T12:23:33.000Z</time>
      </trkpt>
      <trkpt lat="43.36372" lon="6.67179">
        <ele>159.39999389648</ele>
        <time>2018-02-03T12:23:35.000Z</time>
      </trkpt>
      <trkpt lat="43.36368" lon="6.67177">
        <ele>159</ele>
        <time>2018-02-03T12:23:36.000Z</time>
      </trkpt>
      <trkpt lat="43.36362" lon="6.67176">
        <ele>157.19999694824</ele>
        <time>2018-02-03T12:23:38.000Z</time>
      </trkpt>
      <trkpt lat="43.36361" lon="6.67178">
        <ele>156.60000610352</ele>
        <time>2018-02-03T12:23:39.000Z</time>
      </trkpt>
      <trkpt lat="43.36361" lon="6.67182">
        <ele>155.80000305176</ele>
        <time>2018-02-03T12:23:40.000Z</time>
      </trkpt>
      <trkpt lat="43.36363" lon="6.67189">
        <ele>154.60000610352</ele>
        <time>2018-02-03T12:23:42.000Z</time>
      </trkpt>
      <trkpt lat="43.36365" lon="6.67192">
        <ele>154.60000610352</ele>
        <time>2018-02-03T12:23:43.000Z</time>
      </trkpt>
      <trkpt lat="43.36366" lon="6.67194">
        <ele>154.19999694824</ele>
        <time>2018-02-03T12:23:44.000Z</time>
      </trkpt>
      <trkpt lat="43.36375" lon="6.67214">
        <ele>154.39999389648</ele>
        <time>2018-02-03T12:23:51.000Z</time>
      </trkpt>
      <trkpt lat="43.36378" lon="6.67223">
        <ele>156</ele>
        <time>2018-02-03T12:23:56.000Z</time>
      </trkpt>
      <trkpt lat="43.36379" lon="6.67225">
        <ele>156.39999389648</ele>
        <time>2018-02-03T12:23:57.000Z</time>
      </trkpt>
      <trkpt lat="43.3638" lon="6.67228">
        <ele>157</ele>
        <time>2018-02-03T12:23:59.000Z</time>
      </trkpt>
      <trkpt lat="43.36383" lon="6.67238">
        <ele>158.19999694824</ele>
        <time>2018-02-03T12:24:03.000Z</time>
      </trkpt>
      <trkpt lat="43.36383" lon="6.67242">
        <ele>159.19999694824</ele>
        <time>2018-02-03T12:24:05.000Z</time>
      </trkpt>
      <trkpt lat="43.36384" lon="6.67244">
        <ele>159.60000610352</ele>
        <time>2018-02-03T12:24:06.000Z</time>
      </trkpt>
      <trkpt lat="43.36385" lon="6.67248">
        <ele>160.80000305176</ele>
        <time>2018-02-03T12:24:09.000Z</time>
      </trkpt>
      <trkpt lat="43.36386" lon="6.67251">
        <ele>161</ele>
        <time>2018-02-03T12:24:11.000Z</time>
      </trkpt>
      <trkpt lat="43.36387" lon="6.67253">
        <ele>160.80000305176</ele>
        <time>2018-02-03T12:24:17.000Z</time>
      </trkpt>
      <trkpt lat="43.36387" lon="6.67253">
        <ele>161</ele>
        <time>2018-02-03T12:24:28.000Z</time>
      </trkpt>
      <trkpt lat="43.36387" lon="6.67253">
        <ele>161.19999694824</ele>
        <time>2018-02-03T12:24:42.000Z</time>
      </trkpt>
      <trkpt lat="43.36387" lon="6.67253">
        <ele>161</ele>
        <time>2018-02-03T12:24:51.000Z</time>
      </trkpt>
      <trkpt lat="43.36386" lon="6.67256">
        <ele>161.39999389648</ele>
        <time>2018-02-03T12:24:56.000Z</time>
      </trkpt>
      <trkpt lat="43.36384" lon="6.67256">
        <ele>161.39999389648</ele>
        <time>2018-02-03T12:24:57.000Z</time>
      </trkpt>
      <trkpt lat="43.36385" lon="6.67249">
        <ele>161.19999694824</ele>
        <time>2018-02-03T12:25:00.000Z</time>
      </trkpt>
      <trkpt lat="43.3639" lon="6.67239">
        <ele>162</ele>
        <time>2018-02-03T12:25:05.000Z</time>
      </trkpt>
      <trkpt lat="43.3639" lon="6.67237">
        <ele>162.19999694824</ele>
        <time>2018-02-03T12:25:06.000Z</time>
      </trkpt>
      <trkpt lat="43.36393" lon="6.67232">
        <ele>163.19999694824</ele>
        <time>2018-02-03T12:25:09.000Z</time>
      </trkpt>
      <trkpt lat="43.36397" lon="6.67222">
        <ele>163.80000305176</ele>
        <time>2018-02-03T12:25:13.000Z</time>
      </trkpt>
      <trkpt lat="43.36399" lon="6.67215">
        <ele>164.39999389648</ele>
        <time>2018-02-03T12:25:16.000Z</time>
      </trkpt>
      <trkpt lat="43.36401" lon="6.67208">
        <ele>165</ele>
        <time>2018-02-03T12:25:19.000Z</time>
      </trkpt>
      <trkpt lat="43.36402" lon="6.67204">
        <ele>165.39999389648</ele>
        <time>2018-02-03T12:25:21.000Z</time>
      </trkpt>
      <trkpt lat="43.36406" lon="6.67193">
        <ele>166</ele>
        <time>2018-02-03T12:25:26.000Z</time>
      </trkpt>
      <trkpt lat="43.36407" lon="6.67189">
        <ele>166.60000610352</ele>
        <time>2018-02-03T12:25:28.000Z</time>
      </trkpt>
      <trkpt lat="43.3641" lon="6.67178">
        <ele>167.80000305176</ele>
        <time>2018-02-03T12:25:33.000Z</time>
      </trkpt>
      <trkpt lat="43.36413" lon="6.67167">
        <ele>169</ele>
        <time>2018-02-03T12:25:38.000Z</time>
      </trkpt>
      <trkpt lat="43.36415" lon="6.67162">
        <ele>169.80000305176</ele>
        <time>2018-02-03T12:25:41.000Z</time>
      </trkpt>
      <trkpt lat="43.36416" lon="6.67159">
        <ele>170.19999694824</ele>
        <time>2018-02-03T12:25:43.000Z</time>
      </trkpt>
      <trkpt lat="43.36419" lon="6.6715">
        <ele>171</ele>
        <time>2018-02-03T12:25:48.000Z</time>
      </trkpt>
      <trkpt lat="43.36419" lon="6.67148">
        <ele>171.19999694824</ele>
        <time>2018-02-03T12:25:49.000Z</time>
      </trkpt>
      <trkpt lat="43.36419" lon="6.67146">
        <ele>171.19999694824</ele>
        <time>2018-02-03T12:25:50.000Z</time>
      </trkpt>
      <trkpt lat="43.36422" lon="6.67139">
        <ele>171.80000305176</ele>
        <time>2018-02-03T12:25:54.000Z</time>
      </trkpt>
      <trkpt lat="43.36422" lon="6.67137">
        <ele>171.80000305176</ele>
        <time>2018-02-03T12:25:55.000Z</time>
      </trkpt>
      <trkpt lat="43.36423" lon="6.67133">
        <ele>172.39999389648</ele>
        <time>2018-02-03T12:25:57.000Z</time>
      </trkpt>
      <trkpt lat="43.36429" lon="6.67122">
        <ele>173.39999389648</ele>
        <time>2018-02-03T12:26:03.000Z</time>
      </trkpt>
      <trkpt lat="43.36433" lon="6.67117">
        <ele>174.60000610352</ele>
        <time>2018-02-03T12:26:08.000Z</time>
      </trkpt>
      <trkpt lat="43.36436" lon="6.67117">
        <ele>174.80000305176</ele>
        <time>2018-02-03T12:26:10.000Z</time>
      </trkpt>
      <trkpt lat="43.36437" lon="6.67118">
        <ele>174.80000305176</ele>
        <time>2018-02-03T12:26:11.000Z</time>
      </trkpt>
      <trkpt lat="43.36443" lon="6.67121">
        <ele>175</ele>
        <time>2018-02-03T12:26:16.000Z</time>
      </trkpt>
      <trkpt lat="43.36448" lon="6.67123">
        <ele>175</ele>
        <time>2018-02-03T12:26:21.000Z</time>
      </trkpt>
      <trkpt lat="43.36449" lon="6.67124">
        <ele>175.19999694824</ele>
        <time>2018-02-03T12:26:22.000Z</time>
      </trkpt>
      <trkpt lat="43.36449" lon="6.67124">
        <ele>175.80000305176</ele>
        <time>2018-02-03T12:26:26.000Z</time>
      </trkpt>
      <trkpt lat="43.36449" lon="6.67124">
        <ele>176</ele>
        <time>2018-02-03T12:26:27.000Z</time>
      </trkpt>
      <trkpt lat="43.36449" lon="6.67127">
        <ele>175.80000305176</ele>
        <time>2018-02-03T12:26:36.000Z</time>
      </trkpt>
      <trkpt lat="43.36449" lon="6.67129">
        <ele>175.39999389648</ele>
        <time>2018-02-03T12:26:41.000Z</time>
      </trkpt>
      <trkpt lat="43.36448" lon="6.67132">
        <ele>176.39999389648</ele>
        <time>2018-02-03T12:26:49.000Z</time>
      </trkpt>
      <trkpt lat="43.36448" lon="6.67132">
        <ele>177</ele>
        <time>2018-02-03T12:26:53.000Z</time>
      </trkpt>
      <trkpt lat="43.36448" lon="6.67132">
        <ele>177.19999694824</ele>
        <time>2018-02-03T12:26:55.000Z</time>
      </trkpt>
      <trkpt lat="43.36452" lon="6.67134">
        <ele>177.39999389648</ele>
        <time>2018-02-03T12:27:05.000Z</time>
      </trkpt>
      <trkpt lat="43.36457" lon="6.67143">
        <ele>177</ele>
        <time>2018-02-03T12:27:09.000Z</time>
      </trkpt>
      <trkpt lat="43.36461" lon="6.67151">
        <ele>176.60000610352</ele>
        <time>2018-02-03T12:27:15.000Z</time>
      </trkpt>
      <trkpt lat="43.36461" lon="6.67152">
        <ele>176.80000305176</ele>
        <time>2018-02-03T12:27:24.000Z</time>
      </trkpt>
      <trkpt lat="43.36461" lon="6.67155">
        <ele>177.19999694824</ele>
        <time>2018-02-03T12:27:47.000Z</time>
      </trkpt>
      <trkpt lat="43.36463" lon="6.67159">
        <ele>177</ele>
        <time>2018-02-03T12:27:51.000Z</time>
      </trkpt>
      <trkpt lat="43.36466" lon="6.67161">
        <ele>177</ele>
        <time>2018-02-03T12:27:53.000Z</time>
      </trkpt>
      <trkpt lat="43.36467" lon="6.67161">
        <ele>177</ele>
        <time>2018-02-03T12:27:54.000Z</time>
      </trkpt>
      <trkpt lat="43.36469" lon="6.67154">
        <ele>176</ele>
        <time>2018-02-03T12:27:57.000Z</time>
      </trkpt>
      <trkpt lat="43.36468" lon="6.67149">
        <ele>175.60000610352</ele>
        <time>2018-02-03T12:27:58.000Z</time>
      </trkpt>
      <trkpt lat="43.36466" lon="6.67144">
        <ele>174.80000305176</ele>
        <time>2018-02-03T12:28:00.000Z</time>
      </trkpt>
      <trkpt lat="43.36467" lon="6.67141">
        <ele>174.39999389648</ele>
        <time>2018-02-03T12:28:01.000Z</time>
      </trkpt>
      <trkpt lat="43.36473" lon="6.67142">
        <ele>173.39999389648</ele>
        <time>2018-02-03T12:28:04.000Z</time>
      </trkpt>
      <trkpt lat="43.36474" lon="6.67142">
        <ele>173</ele>
        <time>2018-02-03T12:28:05.000Z</time>
      </trkpt>
      <trkpt lat="43.36475" lon="6.67139">
        <ele>171.80000305176</ele>
        <time>2018-02-03T12:28:07.000Z</time>
      </trkpt>
      <trkpt lat="43.36474" lon="6.67136">
        <ele>170.80000305176</ele>
        <time>2018-02-03T12:28:08.000Z</time>
      </trkpt>
      <trkpt lat="43.36475" lon="6.67134">
        <ele>170.19999694824</ele>
        <time>2018-02-03T12:28:09.000Z</time>
      </trkpt>
      <trkpt lat="43.36478" lon="6.67132">
        <ele>169</ele>
        <time>2018-02-03T12:28:11.000Z</time>
      </trkpt>
      <trkpt lat="43.36482" lon="6.67134">
        <ele>167.60000610352</ele>
        <time>2018-02-03T12:28:13.000Z</time>
      </trkpt>
      <trkpt lat="43.36486" lon="6.67136">
        <ele>166</ele>
        <time>2018-02-03T12:28:15.000Z</time>
      </trkpt>
      <trkpt lat="43.36487" lon="6.67133">
        <ele>164.80000305176</ele>
        <time>2018-02-03T12:28:17.000Z</time>
      </trkpt>
      <trkpt lat="43.36487" lon="6.6713">
        <ele>163.80000305176</ele>
        <time>2018-02-03T12:28:18.000Z</time>
      </trkpt>
      <trkpt lat="43.36487" lon="6.67125">
        <ele>163.60000610352</ele>
        <time>2018-02-03T12:28:19.000Z</time>
      </trkpt>
      <trkpt lat="43.36487" lon="6.67119">
        <ele>162.80000305176</ele>
        <time>2018-02-03T12:28:20.000Z</time>
      </trkpt>
      <trkpt lat="43.36487" lon="6.67113">
        <ele>162.39999389648</ele>
        <time>2018-02-03T12:28:21.000Z</time>
      </trkpt>
      <trkpt lat="43.36488" lon="6.67104">
        <ele>161</ele>
        <time>2018-02-03T12:28:23.000Z</time>
      </trkpt>
      <trkpt lat="43.36491" lon="6.67097">
        <ele>160</ele>
        <time>2018-02-03T12:28:25.000Z</time>
      </trkpt>
      <trkpt lat="43.36493" lon="6.67094">
        <ele>158.80000305176</ele>
        <time>2018-02-03T12:28:26.000Z</time>
      </trkpt>
      <trkpt lat="43.36495" lon="6.67093">
        <ele>157.80000305176</ele>
        <time>2018-02-03T12:28:27.000Z</time>
      </trkpt>
      <trkpt lat="43.36497" lon="6.67092">
        <ele>156.80000305176</ele>
        <time>2018-02-03T12:28:28.000Z</time>
      </trkpt>
      <trkpt lat="43.36498" lon="6.67092">
        <ele>155.60000610352</ele>
        <time>2018-02-03T12:28:29.000Z</time>
      </trkpt>
      <trkpt lat="43.365" lon="6.67091">
        <ele>154.60000610352</ele>
        <time>2018-02-03T12:28:30.000Z</time>
      </trkpt>
      <trkpt lat="43.36502" lon="6.67089">
        <ele>153.39999389648</ele>
        <time>2018-02-03T12:28:31.000Z</time>
      </trkpt>
      <trkpt lat="43.36505" lon="6.67088">
        <ele>152.60000610352</ele>
        <time>2018-02-03T12:28:32.000Z</time>
      </trkpt>
      <trkpt lat="43.36507" lon="6.6709">
        <ele>151.80000305176</ele>
        <time>2018-02-03T12:28:33.000Z</time>
      </trkpt>
      <trkpt lat="43.36508" lon="6.67097">
        <ele>150.39999389648</ele>
        <time>2018-02-03T12:28:35.000Z</time>
      </trkpt>
      <trkpt lat="43.36509" lon="6.67102">
        <ele>149.60000610352</ele>
        <time>2018-02-03T12:28:36.000Z</time>
      </trkpt>
      <trkpt lat="43.3651" lon="6.67107">
        <ele>149.19999694824</ele>
        <time>2018-02-03T12:28:37.000Z</time>
      </trkpt>
      <trkpt lat="43.36511" lon="6.67111">
        <ele>148.39999389648</ele>
        <time>2018-02-03T12:28:38.000Z</time>
      </trkpt>
      <trkpt lat="43.36513" lon="6.67115">
        <ele>148</ele>
        <time>2018-02-03T12:28:39.000Z</time>
      </trkpt>
      <trkpt lat="43.36517" lon="6.67124">
        <ele>147.60000610352</ele>
        <time>2018-02-03T12:28:42.000Z</time>
      </trkpt>
      <trkpt lat="43.36523" lon="6.67126">
        <ele>147.19999694824</ele>
        <time>2018-02-03T12:28:46.000Z</time>
      </trkpt>
      <trkpt lat="43.36523" lon="6.67125">
        <ele>146.60000610352</ele>
        <time>2018-02-03T12:28:47.000Z</time>
      </trkpt>
      <trkpt lat="43.36523" lon="6.67122">
        <ele>145.39999389648</ele>
        <time>2018-02-03T12:28:49.000Z</time>
      </trkpt>
      <trkpt lat="43.36522" lon="6.67117">
        <ele>145</ele>
        <time>2018-02-03T12:28:50.000Z</time>
      </trkpt>
      <trkpt lat="43.36523" lon="6.67113">
        <ele>144.60000610352</ele>
        <time>2018-02-03T12:28:51.000Z</time>
      </trkpt>
      <trkpt lat="43.36525" lon="6.6711">
        <ele>144.39999389648</ele>
        <time>2018-02-03T12:28:52.000Z</time>
      </trkpt>
      <trkpt lat="43.36527" lon="6.67108">
        <ele>144</ele>
        <time>2018-02-03T12:28:53.000Z</time>
      </trkpt>
      <trkpt lat="43.36531" lon="6.67105">
        <ele>143.19999694824</ele>
        <time>2018-02-03T12:28:55.000Z</time>
      </trkpt>
      <trkpt lat="43.36536" lon="6.6711">
        <ele>141.39999389648</ele>
        <time>2018-02-03T12:28:57.000Z</time>
      </trkpt>
      <trkpt lat="43.36538" lon="6.67114">
        <ele>140.19999694824</ele>
        <time>2018-02-03T12:28:58.000Z</time>
      </trkpt>
      <trkpt lat="43.3654" lon="6.67117">
        <ele>139</ele>
        <time>2018-02-03T12:28:59.000Z</time>
      </trkpt>
      <trkpt lat="43.36542" lon="6.67123">
        <ele>137.39999389648</ele>
        <time>2018-02-03T12:29:01.000Z</time>
      </trkpt>
      <trkpt lat="43.36543" lon="6.67124">
        <ele>136.60000610352</ele>
        <time>2018-02-03T12:29:02.000Z</time>
      </trkpt>
      <trkpt lat="43.36542" lon="6.67123">
        <ele>136</ele>
        <time>2018-02-03T12:29:03.000Z</time>
      </trkpt>
      <trkpt lat="43.36543" lon="6.67124">
        <ele>135.19999694824</ele>
        <time>2018-02-03T12:29:08.000Z</time>
      </trkpt>
      <trkpt lat="43.36542" lon="6.67124">
        <ele>135.60000610352</ele>
        <time>2018-02-03T12:29:35.000Z</time>
      </trkpt>
      <trkpt lat="43.36545" lon="6.67126">
        <ele>135.19999694824</ele>
        <time>2018-02-03T12:29:42.000Z</time>
      </trkpt>
      <trkpt lat="43.36545" lon="6.67126">
        <ele>135</ele>
        <time>2018-02-03T12:29:43.000Z</time>
      </trkpt>
      <trkpt lat="43.36546" lon="6.67126">
        <ele>134.39999389648</ele>
        <time>2018-02-03T12:29:47.000Z</time>
      </trkpt>
      <trkpt lat="43.36545" lon="6.67125">
        <ele>134.19999694824</ele>
        <time>2018-02-03T12:30:04.000Z</time>
      </trkpt>
      <trkpt lat="43.36545" lon="6.67123">
        <ele>134</ele>
        <time>2018-02-03T12:30:09.000Z</time>
      </trkpt>
      <trkpt lat="43.36545" lon="6.67122">
        <ele>133.60000610352</ele>
        <time>2018-02-03T12:30:12.000Z</time>
      </trkpt>
      <trkpt lat="43.36545" lon="6.67122">
        <ele>132.80000305176</ele>
        <time>2018-02-03T12:30:16.000Z</time>
      </trkpt>
      <trkpt lat="43.36544" lon="6.67121">
        <ele>132.80000305176</ele>
        <time>2018-02-03T12:30:21.000Z</time>
      </trkpt>
      <trkpt lat="43.36545" lon="6.67118">
        <ele>132</ele>
        <time>2018-02-03T12:30:29.000Z</time>
      </trkpt>
      <trkpt lat="43.36545" lon="6.67118">
        <ele>131.80000305176</ele>
        <time>2018-02-03T12:30:31.000Z</time>
      </trkpt>
      <trkpt lat="43.36546" lon="6.67117">
        <ele>130.80000305176</ele>
        <time>2018-02-03T12:30:37.000Z</time>
      </trkpt>
      <trkpt lat="43.36547" lon="6.67117">
        <ele>130.80000305176</ele>
        <time>2018-02-03T12:30:42.000Z</time>
      </trkpt>
      <trkpt lat="43.36554" lon="6.67114">
        <ele>130.60000610352</ele>
        <time>2018-02-03T12:30:44.000Z</time>
      </trkpt>
      <trkpt lat="43.36562" lon="6.67116">
        <ele>129.39999389648</ele>
        <time>2018-02-03T12:30:47.000Z</time>
      </trkpt>
      <trkpt lat="43.3657" lon="6.67119">
        <ele>128</ele>
        <time>2018-02-03T12:30:50.000Z</time>
      </trkpt>
      <trkpt lat="43.36572" lon="6.67116">
        <ele>127.19999694824</ele>
        <time>2018-02-03T12:30:51.000Z</time>
      </trkpt>
      <trkpt lat="43.36574" lon="6.67114">
        <ele>126.40000152588</ele>
        <time>2018-02-03T12:30:52.000Z</time>
      </trkpt>
      <trkpt lat="43.36577" lon="6.67113">
        <ele>125.40000152588</ele>
        <time>2018-02-03T12:30:53.000Z</time>
      </trkpt>
      <trkpt lat="43.36582" lon="6.67116">
        <ele>124.80000305176</ele>
        <time>2018-02-03T12:30:55.000Z</time>
      </trkpt>
      <trkpt lat="43.36583" lon="6.67127">
        <ele>124.19999694824</ele>
        <time>2018-02-03T12:30:57.000Z</time>
      </trkpt>
      <trkpt lat="43.36585" lon="6.67131">
        <ele>123.59999847412</ele>
        <time>2018-02-03T12:30:58.000Z</time>
      </trkpt>
      <trkpt lat="43.36586" lon="6.67135">
        <ele>123</ele>
        <time>2018-02-03T12:30:59.000Z</time>
      </trkpt>
      <trkpt lat="43.36589" lon="6.67143">
        <ele>121.80000305176</ele>
        <time>2018-02-03T12:31:01.000Z</time>
      </trkpt>
      <trkpt lat="43.3659" lon="6.67147">
        <ele>121.40000152588</ele>
        <time>2018-02-03T12:31:02.000Z</time>
      </trkpt>
      <trkpt lat="43.36591" lon="6.67151">
        <ele>121.40000152588</ele>
        <time>2018-02-03T12:31:03.000Z</time>
      </trkpt>
      <trkpt lat="43.36598" lon="6.67163">
        <ele>122</ele>
        <time>2018-02-03T12:31:06.000Z</time>
      </trkpt>
      <trkpt lat="43.36601" lon="6.67167">
        <ele>121.59999847412</ele>
        <time>2018-02-03T12:31:07.000Z</time>
      </trkpt>
      <trkpt lat="43.36604" lon="6.67171">
        <ele>121.19999694824</ele>
        <time>2018-02-03T12:31:08.000Z</time>
      </trkpt>
      <trkpt lat="43.36606" lon="6.67175">
        <ele>120.80000305176</ele>
        <time>2018-02-03T12:31:09.000Z</time>
      </trkpt>
      <trkpt lat="43.36615" lon="6.6719">
        <ele>120</ele>
        <time>2018-02-03T12:31:12.000Z</time>
      </trkpt>
      <trkpt lat="43.36618" lon="6.67196">
        <ele>119.59999847412</ele>
        <time>2018-02-03T12:31:13.000Z</time>
      </trkpt>
      <trkpt lat="43.36625" lon="6.67204">
        <ele>118.59999847412</ele>
        <time>2018-02-03T12:31:15.000Z</time>
      </trkpt>
      <trkpt lat="43.36627" lon="6.6721">
        <ele>118.19999694824</ele>
        <time>2018-02-03T12:31:16.000Z</time>
      </trkpt>
      <trkpt lat="43.36628" lon="6.67216">
        <ele>117.40000152588</ele>
        <time>2018-02-03T12:31:17.000Z</time>
      </trkpt>
      <trkpt lat="43.36631" lon="6.6722">
        <ele>116.59999847412</ele>
        <time>2018-02-03T12:31:19.000Z</time>
      </trkpt>
      <trkpt lat="43.36633" lon="6.67222">
        <ele>116.19999694824</ele>
        <time>2018-02-03T12:31:20.000Z</time>
      </trkpt>
      <trkpt lat="43.36637" lon="6.67227">
        <ele>114.59999847412</ele>
        <time>2018-02-03T12:31:23.000Z</time>
      </trkpt>
      <trkpt lat="43.36638" lon="6.67228">
        <ele>114</ele>
        <time>2018-02-03T12:31:24.000Z</time>
      </trkpt>
      <trkpt lat="43.36642" lon="6.67231">
        <ele>113.19999694824</ele>
        <time>2018-02-03T12:31:25.000Z</time>
      </trkpt>
      <trkpt lat="43.36648" lon="6.67233">
        <ele>111.59999847412</ele>
        <time>2018-02-03T12:31:27.000Z</time>
      </trkpt>
      <trkpt lat="43.36656" lon="6.67231">
        <ele>109.40000152588</ele>
        <time>2018-02-03T12:31:29.000Z</time>
      </trkpt>
      <trkpt lat="43.36662" lon="6.67232">
        <ele>108.19999694824</ele>
        <time>2018-02-03T12:31:30.000Z</time>
      </trkpt>
      <trkpt lat="43.36662" lon="6.67232">
        <ele>107.19999694824</ele>
        <time>2018-02-03T12:31:31.000Z</time>
      </trkpt>
      <trkpt lat="43.36662" lon="6.67231">
        <ele>106.19999694824</ele>
        <time>2018-02-03T12:31:32.000Z</time>
      </trkpt>
      <trkpt lat="43.36662" lon="6.67231">
        <ele>104.80000305176</ele>
        <time>2018-02-03T12:31:34.000Z</time>
      </trkpt>
      <trkpt lat="43.36663" lon="6.67229">
        <ele>104</ele>
        <time>2018-02-03T12:31:38.000Z</time>
      </trkpt>
      <trkpt lat="43.36666" lon="6.67223">
        <ele>104.59999847412</ele>
        <time>2018-02-03T12:31:43.000Z</time>
      </trkpt>
      <trkpt lat="43.36673" lon="6.67222">
        <ele>105.80000305176</ele>
        <time>2018-02-03T12:31:48.000Z</time>
      </trkpt>
      <trkpt lat="43.36676" lon="6.6722">
        <ele>106.19999694824</ele>
        <time>2018-02-03T12:31:51.000Z</time>
      </trkpt>
      <trkpt lat="43.36678" lon="6.67221">
        <ele>106.40000152588</ele>
        <time>2018-02-03T12:31:52.000Z</time>
      </trkpt>
      <trkpt lat="43.3668" lon="6.67221">
        <ele>106.40000152588</ele>
        <time>2018-02-03T12:31:53.000Z</time>
      </trkpt>
      <trkpt lat="43.36687" lon="6.67214">
        <ele>106</ele>
        <time>2018-02-03T12:31:58.000Z</time>
      </trkpt>
      <trkpt lat="43.36689" lon="6.67212">
        <ele>106</ele>
        <time>2018-02-03T12:31:59.000Z</time>
      </trkpt>
      <trkpt lat="43.36691" lon="6.67199">
        <ele>106.80000305176</ele>
        <time>2018-02-03T12:32:04.000Z</time>
      </trkpt>
      <trkpt lat="43.36691" lon="6.67196">
        <ele>107</ele>
        <time>2018-02-03T12:32:05.000Z</time>
      </trkpt>
      <trkpt lat="43.36692" lon="6.67177">
        <ele>106.80000305176</ele>
        <time>2018-02-03T12:32:10.000Z</time>
      </trkpt>
      <trkpt lat="43.36694" lon="6.6715">
        <ele>107.80000305176</ele>
        <time>2018-02-03T12:32:18.000Z</time>
      </trkpt>
      <trkpt lat="43.36694" lon="6.67144">
        <ele>108</ele>
        <time>2018-02-03T12:32:20.000Z</time>
      </trkpt>
      <trkpt lat="43.36694" lon="6.67136">
        <ele>109.19999694824</ele>
        <time>2018-02-03T12:32:24.000Z</time>
      </trkpt>
      <trkpt lat="43.36692" lon="6.6713">
        <ele>110.40000152588</ele>
        <time>2018-02-03T12:32:27.000Z</time>
      </trkpt>
      <trkpt lat="43.36691" lon="6.67123">
        <ele>111</ele>
        <time>2018-02-03T12:32:30.000Z</time>
      </trkpt>
      <trkpt lat="43.3669" lon="6.6712">
        <ele>111.59999847412</ele>
        <time>2018-02-03T12:32:32.000Z</time>
      </trkpt>
      <trkpt lat="43.36688" lon="6.67114">
        <ele>112.59999847412</ele>
        <time>2018-02-03T12:32:36.000Z</time>
      </trkpt>
      <trkpt lat="43.36688" lon="6.67112">
        <ele>112.80000305176</ele>
        <time>2018-02-03T12:32:37.000Z</time>
      </trkpt>
      <trkpt lat="43.36685" lon="6.67105">
        <ele>113.80000305176</ele>
        <time>2018-02-03T12:32:41.000Z</time>
      </trkpt>
      <trkpt lat="43.36684" lon="6.67101">
        <ele>114.19999694824</ele>
        <time>2018-02-03T12:32:43.000Z</time>
      </trkpt>
      <trkpt lat="43.36683" lon="6.67097">
        <ele>114.80000305176</ele>
        <time>2018-02-03T12:32:45.000Z</time>
      </trkpt>
      <trkpt lat="43.36684" lon="6.67096">
        <ele>115</ele>
        <time>2018-02-03T12:32:46.000Z</time>
      </trkpt>
      <trkpt lat="43.36684" lon="6.67092">
        <ele>115.59999847412</ele>
        <time>2018-02-03T12:32:48.000Z</time>
      </trkpt>
      <trkpt lat="43.36686" lon="6.67088">
        <ele>116.19999694824</ele>
        <time>2018-02-03T12:32:51.000Z</time>
      </trkpt>
      <trkpt lat="43.36686" lon="6.67085">
        <ele>116.59999847412</ele>
        <time>2018-02-03T12:32:53.000Z</time>
      </trkpt>
      <trkpt lat="43.36687" lon="6.67082">
        <ele>116.80000305176</ele>
        <time>2018-02-03T12:32:55.000Z</time>
      </trkpt>
      <trkpt lat="43.36689" lon="6.67072">
        <ele>116.80000305176</ele>
        <time>2018-02-03T12:33:01.000Z</time>
      </trkpt>
      <trkpt lat="43.3669" lon="6.67068">
        <ele>116.80000305176</ele>
        <time>2018-02-03T12:33:03.000Z</time>
      </trkpt>
      <trkpt lat="43.36692" lon="6.6706">
        <ele>116.59999847412</ele>
        <time>2018-02-03T12:33:06.000Z</time>
      </trkpt>
      <trkpt lat="43.36699" lon="6.67042">
        <ele>116.59999847412</ele>
        <time>2018-02-03T12:33:13.000Z</time>
      </trkpt>
      <trkpt lat="43.36701" lon="6.67032">
        <ele>117.19999694824</ele>
        <time>2018-02-03T12:33:16.000Z</time>
      </trkpt>
      <trkpt lat="43.36703" lon="6.6702">
        <ele>118</ele>
        <time>2018-02-03T12:33:20.000Z</time>
      </trkpt>
      <trkpt lat="43.36703" lon="6.67017">
        <ele>118.19999694824</ele>
        <time>2018-02-03T12:33:21.000Z</time>
      </trkpt>
      <trkpt lat="43.36708" lon="6.66997">
        <ele>118.40000152588</ele>
        <time>2018-02-03T12:33:26.000Z</time>
      </trkpt>
      <trkpt lat="43.3671" lon="6.66978">
        <ele>117.19999694824</ele>
        <time>2018-02-03T12:33:30.000Z</time>
      </trkpt>
      <trkpt lat="43.3671" lon="6.66961">
        <ele>116.59999847412</ele>
        <time>2018-02-03T12:33:33.000Z</time>
      </trkpt>
      <trkpt lat="43.36708" lon="6.66933">
        <ele>115.80000305176</ele>
        <time>2018-02-03T12:33:37.000Z</time>
      </trkpt>
      <trkpt lat="43.36707" lon="6.66918">
        <ele>115.19999694824</ele>
        <time>2018-02-03T12:33:39.000Z</time>
      </trkpt>
      <trkpt lat="43.36704" lon="6.66903">
        <ele>114.59999847412</ele>
        <time>2018-02-03T12:33:41.000Z</time>
      </trkpt>
      <trkpt lat="43.36701" lon="6.66891">
        <ele>113.40000152588</ele>
        <time>2018-02-03T12:33:43.000Z</time>
      </trkpt>
      <trkpt lat="43.367" lon="6.66885">
        <ele>113</ele>
        <time>2018-02-03T12:33:44.000Z</time>
      </trkpt>
      <trkpt lat="43.36699" lon="6.66878">
        <ele>112.40000152588</ele>
        <time>2018-02-03T12:33:45.000Z</time>
      </trkpt>
      <trkpt lat="43.36699" lon="6.66872">
        <ele>112</ele>
        <time>2018-02-03T12:33:46.000Z</time>
      </trkpt>
      <trkpt lat="43.36701" lon="6.66869">
        <ele>111</ele>
        <time>2018-02-03T12:33:47.000Z</time>
      </trkpt>
      <trkpt lat="43.36703" lon="6.66868">
        <ele>110.59999847412</ele>
        <time>2018-02-03T12:33:48.000Z</time>
      </trkpt>
      <trkpt lat="43.36711" lon="6.6687">
        <ele>110.19999694824</ele>
        <time>2018-02-03T12:33:51.000Z</time>
      </trkpt>
      <trkpt lat="43.36715" lon="6.66871">
        <ele>110.59999847412</ele>
        <time>2018-02-03T12:33:53.000Z</time>
      </trkpt>
      <trkpt lat="43.36723" lon="6.66868">
        <ele>112.40000152588</ele>
        <time>2018-02-03T12:33:58.000Z</time>
      </trkpt>
      <trkpt lat="43.36724" lon="6.66866">
        <ele>112.40000152588</ele>
        <time>2018-02-03T12:33:59.000Z</time>
      </trkpt>
      <trkpt lat="43.3673" lon="6.66851">
        <ele>113.40000152588</ele>
        <time>2018-02-03T12:34:04.000Z</time>
      </trkpt>
      <trkpt lat="43.36732" lon="6.66845">
        <ele>114</ele>
        <time>2018-02-03T12:34:06.000Z</time>
      </trkpt>
      <trkpt lat="43.36732" lon="6.66839">
        <ele>114.59999847412</ele>
        <time>2018-02-03T12:34:08.000Z</time>
      </trkpt>
      <trkpt lat="43.3673" lon="6.6683">
        <ele>115.59999847412</ele>
        <time>2018-02-03T12:34:11.000Z</time>
      </trkpt>
      <trkpt lat="43.36731" lon="6.66827">
        <ele>115.59999847412</ele>
        <time>2018-02-03T12:34:12.000Z</time>
      </trkpt>
      <trkpt lat="43.36732" lon="6.66819">
        <ele>116</ele>
        <time>2018-02-03T12:34:16.000Z</time>
      </trkpt>
      <trkpt lat="43.3673" lon="6.66812">
        <ele>116.80000305176</ele>
        <time>2018-02-03T12:34:19.000Z</time>
      </trkpt>
      <trkpt lat="43.36729" lon="6.66805">
        <ele>117.40000152588</ele>
        <time>2018-02-03T12:34:22.000Z</time>
      </trkpt>
      <trkpt lat="43.36726" lon="6.66797">
        <ele>117.80000305176</ele>
        <time>2018-02-03T12:34:25.000Z</time>
      </trkpt>
      <trkpt lat="43.36726" lon="6.66788">
        <ele>118.80000305176</ele>
        <time>2018-02-03T12:34:28.000Z</time>
      </trkpt>
      <trkpt lat="43.36726" lon="6.66786">
        <ele>119</ele>
        <time>2018-02-03T12:34:29.000Z</time>
      </trkpt>
      <trkpt lat="43.36728" lon="6.66774">
        <ele>119.80000305176</ele>
        <time>2018-02-03T12:34:33.000Z</time>
      </trkpt>
      <trkpt lat="43.36729" lon="6.66769">
        <ele>119.80000305176</ele>
        <time>2018-02-03T12:34:35.000Z</time>
      </trkpt>
      <trkpt lat="43.36729" lon="6.66752">
        <ele>120.19999694824</ele>
        <time>2018-02-03T12:34:40.000Z</time>
      </trkpt>
      <trkpt lat="43.36728" lon="6.66749">
        <ele>120.40000152588</ele>
        <time>2018-02-03T12:34:41.000Z</time>
      </trkpt>
      <trkpt lat="43.36728" lon="6.66737">
        <ele>121.19999694824</ele>
        <time>2018-02-03T12:34:45.000Z</time>
      </trkpt>
      <trkpt lat="43.36729" lon="6.66734">
        <ele>121.40000152588</ele>
        <time>2018-02-03T12:34:46.000Z</time>
      </trkpt>
      <trkpt lat="43.36731" lon="6.66717">
        <ele>122.19999694824</ele>
        <time>2018-02-03T12:34:53.000Z</time>
      </trkpt>
      <trkpt lat="43.36731" lon="6.66712">
        <ele>122.40000152588</ele>
        <time>2018-02-03T12:34:55.000Z</time>
      </trkpt>
      <trkpt lat="43.3673" lon="6.66699">
        <ele>123.40000152588</ele>
        <time>2018-02-03T12:35:00.000Z</time>
      </trkpt>
      <trkpt lat="43.36731" lon="6.66696">
        <ele>123.40000152588</ele>
        <time>2018-02-03T12:35:01.000Z</time>
      </trkpt>
      <trkpt lat="43.3673" lon="6.66686">
        <ele>124.80000305176</ele>
        <time>2018-02-03T12:35:06.000Z</time>
      </trkpt>
      <trkpt lat="43.3673" lon="6.66685">
        <ele>125.19999694824</ele>
        <time>2018-02-03T12:35:07.000Z</time>
      </trkpt>
      <trkpt lat="43.3673" lon="6.66683">
        <ele>126.19999694824</ele>
        <time>2018-02-03T12:35:09.000Z</time>
      </trkpt>
      <trkpt lat="43.36727" lon="6.66676">
        <ele>127.40000152588</ele>
        <time>2018-02-03T12:35:14.000Z</time>
      </trkpt>
      <trkpt lat="43.36726" lon="6.66672">
        <ele>128.19999694824</ele>
        <time>2018-02-03T12:35:19.000Z</time>
      </trkpt>
      <trkpt lat="43.36726" lon="6.66672">
        <ele>128.39999389648</ele>
        <time>2018-02-03T12:35:20.000Z</time>
      </trkpt>
      <trkpt lat="43.36726" lon="6.66671">
        <ele>128.39999389648</ele>
        <time>2018-02-03T12:35:27.000Z</time>
      </trkpt>
      <trkpt lat="43.36725" lon="6.6667">
        <ele>128.80000305176</ele>
        <time>2018-02-03T12:35:32.000Z</time>
      </trkpt>
      <trkpt lat="43.36725" lon="6.66668">
        <ele>128.80000305176</ele>
        <time>2018-02-03T12:35:33.000Z</time>
      </trkpt>
      <trkpt lat="43.36724" lon="6.66666">
        <ele>128.80000305176</ele>
        <time>2018-02-03T12:35:36.000Z</time>
      </trkpt>
      <trkpt lat="43.36724" lon="6.66662">
        <ele>129.39999389648</ele>
        <time>2018-02-03T12:35:39.000Z</time>
      </trkpt>
      <trkpt lat="43.36723" lon="6.66658">
        <ele>130.60000610352</ele>
        <time>2018-02-03T12:35:43.000Z</time>
      </trkpt>
      <trkpt lat="43.36722" lon="6.66655">
        <ele>131</ele>
        <time>2018-02-03T12:35:45.000Z</time>
      </trkpt>
      <trkpt lat="43.36722" lon="6.66652">
        <ele>131.39999389648</ele>
        <time>2018-02-03T12:35:48.000Z</time>
      </trkpt>
      <trkpt lat="43.36722" lon="6.66651">
        <ele>131.80000305176</ele>
        <time>2018-02-03T12:35:50.000Z</time>
      </trkpt>
      <trkpt lat="43.36721" lon="6.66647">
        <ele>132.60000610352</ele>
        <time>2018-02-03T12:35:53.000Z</time>
      </trkpt>
      <trkpt lat="43.36721" lon="6.66646">
        <ele>132.80000305176</ele>
        <time>2018-02-03T12:35:54.000Z</time>
      </trkpt>
      <trkpt lat="43.3672" lon="6.66642">
        <ele>133.39999389648</ele>
        <time>2018-02-03T12:35:58.000Z</time>
      </trkpt>
      <trkpt lat="43.3672" lon="6.66639">
        <ele>133.80000305176</ele>
        <time>2018-02-03T12:36:01.000Z</time>
      </trkpt>
      <trkpt lat="43.3672" lon="6.66637">
        <ele>134.80000305176</ele>
        <time>2018-02-03T12:36:05.000Z</time>
      </trkpt>
      <trkpt lat="43.36719" lon="6.66631">
        <ele>135.80000305176</ele>
        <time>2018-02-03T12:36:11.000Z</time>
      </trkpt>
      <trkpt lat="43.36719" lon="6.66631">
        <ele>135.80000305176</ele>
        <time>2018-02-03T12:36:12.000Z</time>
      </trkpt>
      <trkpt lat="43.36718" lon="6.66627">
        <ele>136.39999389648</ele>
        <time>2018-02-03T12:36:16.000Z</time>
      </trkpt>
      <trkpt lat="43.36718" lon="6.66625">
        <ele>136.80000305176</ele>
        <time>2018-02-03T12:36:18.000Z</time>
      </trkpt>
      <trkpt lat="43.36718" lon="6.66624">
        <ele>137</ele>
        <time>2018-02-03T12:36:19.000Z</time>
      </trkpt>
      <trkpt lat="43.36716" lon="6.66618">
        <ele>138</ele>
        <time>2018-02-03T12:36:24.000Z</time>
      </trkpt>
      <trkpt lat="43.36716" lon="6.66617">
        <ele>138.19999694824</ele>
        <time>2018-02-03T12:36:25.000Z</time>
      </trkpt>
      <trkpt lat="43.36714" lon="6.66611">
        <ele>139.19999694824</ele>
        <time>2018-02-03T12:36:30.000Z</time>
      </trkpt>
      <trkpt lat="43.36712" lon="6.66606">
        <ele>140.19999694824</ele>
        <time>2018-02-03T12:36:35.000Z</time>
      </trkpt>
      <trkpt lat="43.36712" lon="6.66605">
        <ele>140.39999389648</ele>
        <time>2018-02-03T12:36:36.000Z</time>
      </trkpt>
      <trkpt lat="43.36707" lon="6.666">
        <ele>141.39999389648</ele>
        <time>2018-02-03T12:36:42.000Z</time>
      </trkpt>
      <trkpt lat="43.36706" lon="6.66594">
        <ele>142.39999389648</ele>
        <time>2018-02-03T12:36:47.000Z</time>
      </trkpt>
      <trkpt lat="43.36704" lon="6.66588">
        <ele>143.39999389648</ele>
        <time>2018-02-03T12:36:51.000Z</time>
      </trkpt>
      <trkpt lat="43.36703" lon="6.66584">
        <ele>143.80000305176</ele>
        <time>2018-02-03T12:36:55.000Z</time>
      </trkpt>
      <trkpt lat="43.36701" lon="6.66577">
        <ele>144.60000610352</ele>
        <time>2018-02-03T12:37:00.000Z</time>
      </trkpt>
      <trkpt lat="43.36701" lon="6.66576">
        <ele>144.80000305176</ele>
        <time>2018-02-03T12:37:02.000Z</time>
      </trkpt>
      <trkpt lat="43.367" lon="6.66574">
        <ele>145.19999694824</ele>
        <time>2018-02-03T12:37:04.000Z</time>
      </trkpt>
      <trkpt lat="43.36699" lon="6.66572">
        <ele>145.60000610352</ele>
        <time>2018-02-03T12:37:06.000Z</time>
      </trkpt>
      <trkpt lat="43.36699" lon="6.66571">
        <ele>145.80000305176</ele>
        <time>2018-02-03T12:37:07.000Z</time>
      </trkpt>
      <trkpt lat="43.36697" lon="6.66561">
        <ele>146.80000305176</ele>
        <time>2018-02-03T12:37:14.000Z</time>
      </trkpt>
      <trkpt lat="43.36697" lon="6.66559">
        <ele>147</ele>
        <time>2018-02-03T12:37:15.000Z</time>
      </trkpt>
      <trkpt lat="43.36697" lon="6.66551">
        <ele>147.80000305176</ele>
        <time>2018-02-03T12:37:21.000Z</time>
      </trkpt>
      <trkpt lat="43.36696" lon="6.66548">
        <ele>148.19999694824</ele>
        <time>2018-02-03T12:37:24.000Z</time>
      </trkpt>
      <trkpt lat="43.36696" lon="6.66544">
        <ele>148.80000305176</ele>
        <time>2018-02-03T12:37:27.000Z</time>
      </trkpt>
      <trkpt lat="43.36694" lon="6.66538">
        <ele>149.60000610352</ele>
        <time>2018-02-03T12:37:33.000Z</time>
      </trkpt>
      <trkpt lat="43.36694" lon="6.66536">
        <ele>150</ele>
        <time>2018-02-03T12:37:35.000Z</time>
      </trkpt>
      <trkpt lat="43.36692" lon="6.6653">
        <ele>151.19999694824</ele>
        <time>2018-02-03T12:37:40.000Z</time>
      </trkpt>
      <trkpt lat="43.36691" lon="6.66528">
        <ele>151.39999389648</ele>
        <time>2018-02-03T12:37:42.000Z</time>
      </trkpt>
      <trkpt lat="43.36691" lon="6.66525">
        <ele>152.19999694824</ele>
        <time>2018-02-03T12:37:46.000Z</time>
      </trkpt>
      <trkpt lat="43.36691" lon="6.66525">
        <ele>152.80000305176</ele>
        <time>2018-02-03T12:37:49.000Z</time>
      </trkpt>
      <trkpt lat="43.3669" lon="6.66522">
        <ele>153.19999694824</ele>
        <time>2018-02-03T12:37:52.000Z</time>
      </trkpt>
      <trkpt lat="43.3669" lon="6.6652">
        <ele>153.19999694824</ele>
        <time>2018-02-03T12:37:54.000Z</time>
      </trkpt>
      <trkpt lat="43.36689" lon="6.66516">
        <ele>153.19999694824</ele>
        <time>2018-02-03T12:37:59.000Z</time>
      </trkpt>
      <trkpt lat="43.36689" lon="6.66514">
        <ele>153.39999389648</ele>
        <time>2018-02-03T12:38:00.000Z</time>
      </trkpt>
      <trkpt lat="43.36688" lon="6.6651">
        <ele>154.19999694824</ele>
        <time>2018-02-03T12:38:05.000Z</time>
      </trkpt>
      <trkpt lat="43.36688" lon="6.66506">
        <ele>155.39999389648</ele>
        <time>2018-02-03T12:38:10.000Z</time>
      </trkpt>
      <trkpt lat="43.36688" lon="6.66503">
        <ele>155.80000305176</ele>
        <time>2018-02-03T12:38:12.000Z</time>
      </trkpt>
      <trkpt lat="43.36688" lon="6.66501">
        <ele>156.39999389648</ele>
        <time>2018-02-03T12:38:15.000Z</time>
      </trkpt>
      <trkpt lat="43.36688" lon="6.665">
        <ele>156.80000305176</ele>
        <time>2018-02-03T12:38:17.000Z</time>
      </trkpt>
      <trkpt lat="43.36688" lon="6.66496">
        <ele>157.60000610352</ele>
        <time>2018-02-03T12:38:20.000Z</time>
      </trkpt>
      <trkpt lat="43.36687" lon="6.66494">
        <ele>158.39999389648</ele>
        <time>2018-02-03T12:38:23.000Z</time>
      </trkpt>
      <trkpt lat="43.36687" lon="6.66493">
        <ele>158.60000610352</ele>
        <time>2018-02-03T12:38:24.000Z</time>
      </trkpt>
      <trkpt lat="43.36687" lon="6.66492">
        <ele>158.80000305176</ele>
        <time>2018-02-03T12:38:25.000Z</time>
      </trkpt>
      <trkpt lat="43.36687" lon="6.66488">
        <ele>159.39999389648</ele>
        <time>2018-02-03T12:38:29.000Z</time>
      </trkpt>
      <trkpt lat="43.36687" lon="6.66488">
        <ele>159.60000610352</ele>
        <time>2018-02-03T12:38:30.000Z</time>
      </trkpt>
      <trkpt lat="43.36686" lon="6.66485">
        <ele>160.80000305176</ele>
        <time>2018-02-03T12:38:35.000Z</time>
      </trkpt>
      <trkpt lat="43.36686" lon="6.66483">
        <ele>161</ele>
        <time>2018-02-03T12:38:36.000Z</time>
      </trkpt>
      <trkpt lat="43.36685" lon="6.66478">
        <ele>161.60000610352</ele>
        <time>2018-02-03T12:38:40.000Z</time>
      </trkpt>
      <trkpt lat="43.36685" lon="6.66477">
        <ele>161.80000305176</ele>
        <time>2018-02-03T12:38:41.000Z</time>
      </trkpt>
      <trkpt lat="43.36684" lon="6.66469">
        <ele>163</ele>
        <time>2018-02-03T12:38:47.000Z</time>
      </trkpt>
      <trkpt lat="43.36683" lon="6.66466">
        <ele>163.39999389648</ele>
        <time>2018-02-03T12:38:50.000Z</time>
      </trkpt>
      <trkpt lat="43.36683" lon="6.66462">
        <ele>164.19999694824</ele>
        <time>2018-02-03T12:38:53.000Z</time>
      </trkpt>
      <trkpt lat="43.36683" lon="6.66457">
        <ele>165.19999694824</ele>
        <time>2018-02-03T12:38:58.000Z</time>
      </trkpt>
      <trkpt lat="43.36683" lon="6.66456">
        <ele>165.39999389648</ele>
        <time>2018-02-03T12:38:59.000Z</time>
      </trkpt>
      <trkpt lat="43.36681" lon="6.66449">
        <ele>166.19999694824</ele>
        <time>2018-02-03T12:39:05.000Z</time>
      </trkpt>
      <trkpt lat="43.3668" lon="6.66447">
        <ele>166.60000610352</ele>
        <time>2018-02-03T12:39:07.000Z</time>
      </trkpt>
      <trkpt lat="43.36679" lon="6.66441">
        <ele>167.19999694824</ele>
        <time>2018-02-03T12:39:12.000Z</time>
      </trkpt>
      <trkpt lat="43.36679" lon="6.6644">
        <ele>167.39999389648</ele>
        <time>2018-02-03T12:39:13.000Z</time>
      </trkpt>
      <trkpt lat="43.36677" lon="6.66434">
        <ele>168.19999694824</ele>
        <time>2018-02-03T12:39:18.000Z</time>
      </trkpt>
      <trkpt lat="43.36677" lon="6.66433">
        <ele>168.39999389648</ele>
        <time>2018-02-03T12:39:19.000Z</time>
      </trkpt>
      <trkpt lat="43.36677" lon="6.66431">
        <ele>168.39999389648</ele>
        <time>2018-02-03T12:39:20.000Z</time>
      </trkpt>
      <trkpt lat="43.36676" lon="6.66427">
        <ele>169.60000610352</ele>
        <time>2018-02-03T12:39:25.000Z</time>
      </trkpt>
      <trkpt lat="43.36676" lon="6.66426">
        <ele>169.80000305176</ele>
        <time>2018-02-03T12:39:26.000Z</time>
      </trkpt>
      <trkpt lat="43.36675" lon="6.66421">
        <ele>170.60000610352</ele>
        <time>2018-02-03T12:39:30.000Z</time>
      </trkpt>
      <trkpt lat="43.36675" lon="6.6642">
        <ele>171</ele>
        <time>2018-02-03T12:39:31.000Z</time>
      </trkpt>
      <trkpt lat="43.36675" lon="6.66417">
        <ele>171.60000610352</ele>
        <time>2018-02-03T12:39:33.000Z</time>
      </trkpt>
      <trkpt lat="43.36675" lon="6.66415">
        <ele>171.80000305176</ele>
        <time>2018-02-03T12:39:34.000Z</time>
      </trkpt>
      <trkpt lat="43.36674" lon="6.6641">
        <ele>172.39999389648</ele>
        <time>2018-02-03T12:39:37.000Z</time>
      </trkpt>
      <trkpt lat="43.36674" lon="6.66409">
        <ele>172.39999389648</ele>
        <time>2018-02-03T12:39:38.000Z</time>
      </trkpt>
      <trkpt lat="43.36674" lon="6.66407">
        <ele>172.80000305176</ele>
        <time>2018-02-03T12:39:40.000Z</time>
      </trkpt>
      <trkpt lat="43.36672" lon="6.66401">
        <ele>173.39999389648</ele>
        <time>2018-02-03T12:39:43.000Z</time>
      </trkpt>
      <trkpt lat="43.3667" lon="6.6638">
        <ele>172.60000610352</ele>
        <time>2018-02-03T12:39:50.000Z</time>
      </trkpt>
      <trkpt lat="43.36669" lon="6.66364">
        <ele>173</ele>
        <time>2018-02-03T12:39:55.000Z</time>
      </trkpt>
      <trkpt lat="43.3667" lon="6.66343">
        <ele>174</ele>
        <time>2018-02-03T12:40:02.000Z</time>
      </trkpt>
      <trkpt lat="43.3667" lon="6.66339">
        <ele>174</ele>
        <time>2018-02-03T12:40:03.000Z</time>
      </trkpt>
      <trkpt lat="43.36672" lon="6.66325">
        <ele>174.80000305176</ele>
        <time>2018-02-03T12:40:08.000Z</time>
      </trkpt>
      <trkpt lat="43.36672" lon="6.66316">
        <ele>175</ele>
        <time>2018-02-03T12:40:11.000Z</time>
      </trkpt>
      <trkpt lat="43.36672" lon="6.66311">
        <ele>175.19999694824</ele>
        <time>2018-02-03T12:40:13.000Z</time>
      </trkpt>
      <trkpt lat="43.36674" lon="6.66301">
        <ele>176.19999694824</ele>
        <time>2018-02-03T12:40:17.000Z</time>
      </trkpt>
      <trkpt lat="43.36675" lon="6.66299">
        <ele>176.60000610352</ele>
        <time>2018-02-03T12:40:18.000Z</time>
      </trkpt>
      <trkpt lat="43.36678" lon="6.66297">
        <ele>177.39999389648</ele>
        <time>2018-02-03T12:40:20.000Z</time>
      </trkpt>
      <trkpt lat="43.3668" lon="6.66296">
        <ele>178.60000610352</ele>
        <time>2018-02-03T12:40:22.000Z</time>
      </trkpt>
      <trkpt lat="43.36682" lon="6.66295">
        <ele>179</ele>
        <time>2018-02-03T12:40:23.000Z</time>
      </trkpt>
      <trkpt lat="43.36684" lon="6.66294">
        <ele>179.80000305176</ele>
        <time>2018-02-03T12:40:25.000Z</time>
      </trkpt>
      <trkpt lat="43.36688" lon="6.66291">
        <ele>180.39999389648</ele>
        <time>2018-02-03T12:40:29.000Z</time>
      </trkpt>
      <trkpt lat="43.3669" lon="6.66288">
        <ele>180.80000305176</ele>
        <time>2018-02-03T12:40:31.000Z</time>
      </trkpt>
      <trkpt lat="43.36694" lon="6.66282">
        <ele>181.39999389648</ele>
        <time>2018-02-03T12:40:36.000Z</time>
      </trkpt>
      <trkpt lat="43.36695" lon="6.6628">
        <ele>181.80000305176</ele>
        <time>2018-02-03T12:40:38.000Z</time>
      </trkpt>
      <trkpt lat="43.36698" lon="6.66274">
        <ele>182.19999694824</ele>
        <time>2018-02-03T12:40:42.000Z</time>
      </trkpt>
      <trkpt lat="43.367" lon="6.66268">
        <ele>182.80000305176</ele>
        <time>2018-02-03T12:40:46.000Z</time>
      </trkpt>
      <trkpt lat="43.367" lon="6.66265">
        <ele>183.39999389648</ele>
        <time>2018-02-03T12:40:49.000Z</time>
      </trkpt>
      <trkpt lat="43.36697" lon="6.66262">
        <ele>184</ele>
        <time>2018-02-03T12:40:52.000Z</time>
      </trkpt>
      <trkpt lat="43.36697" lon="6.6626">
        <ele>184.60000610352</ele>
        <time>2018-02-03T12:40:54.000Z</time>
      </trkpt>
      <trkpt lat="43.36697" lon="6.66259">
        <ele>184.80000305176</ele>
        <time>2018-02-03T12:40:59.000Z</time>
      </trkpt>
      <trkpt lat="43.36697" lon="6.66256">
        <ele>184.80000305176</ele>
        <time>2018-02-03T12:41:06.000Z</time>
      </trkpt>
      <trkpt lat="43.36697" lon="6.66255">
        <ele>184.60000610352</ele>
        <time>2018-02-03T12:41:16.000Z</time>
      </trkpt>
      <trkpt lat="43.36698" lon="6.66253">
        <ele>184.80000305176</ele>
        <time>2018-02-03T12:41:23.000Z</time>
      </trkpt>
      <trkpt lat="43.36698" lon="6.66253">
        <ele>185</ele>
        <time>2018-02-03T12:41:24.000Z</time>
      </trkpt>
      <trkpt lat="43.36699" lon="6.6625">
        <ele>185</ele>
        <time>2018-02-03T12:41:28.000Z</time>
      </trkpt>
      <trkpt lat="43.36704" lon="6.66243">
        <ele>184</ele>
        <time>2018-02-03T12:41:35.000Z</time>
      </trkpt>
      <trkpt lat="43.36705" lon="6.66241">
        <ele>183.80000305176</ele>
        <time>2018-02-03T12:41:37.000Z</time>
      </trkpt>
      <trkpt lat="43.36706" lon="6.6624">
        <ele>183.80000305176</ele>
        <time>2018-02-03T12:41:41.000Z</time>
      </trkpt>
      <trkpt lat="43.36705" lon="6.66238">
        <ele>183.19999694824</ele>
        <time>2018-02-03T12:42:00.000Z</time>
      </trkpt>
      <trkpt lat="43.36703" lon="6.66239">
        <ele>183.80000305176</ele>
        <time>2018-02-03T12:42:10.000Z</time>
      </trkpt>
      <trkpt lat="43.367" lon="6.66242">
        <ele>184.19999694824</ele>
        <time>2018-02-03T12:42:16.000Z</time>
      </trkpt>
      <trkpt lat="43.36699" lon="6.66243">
        <ele>184.19999694824</ele>
        <time>2018-02-03T12:42:17.000Z</time>
      </trkpt>
      <trkpt lat="43.36698" lon="6.66247">
        <ele>184</ele>
        <time>2018-02-03T12:42:22.000Z</time>
      </trkpt>
      <trkpt lat="43.36698" lon="6.66248">
        <ele>184.80000305176</ele>
        <time>2018-02-03T12:42:28.000Z</time>
      </trkpt>
      <trkpt lat="43.36698" lon="6.66248">
        <ele>184.39999389648</ele>
        <time>2018-02-03T12:42:36.000Z</time>
      </trkpt>
      <trkpt lat="43.36697" lon="6.66249">
        <ele>184.19999694824</ele>
        <time>2018-02-03T12:42:47.000Z</time>
      </trkpt>
      <trkpt lat="43.36697" lon="6.6625">
        <ele>184.39999389648</ele>
        <time>2018-02-03T12:42:58.000Z</time>
      </trkpt>
      <trkpt lat="43.36696" lon="6.6625">
        <ele>184.80000305176</ele>
        <time>2018-02-03T12:43:17.000Z</time>
      </trkpt>
      <trkpt lat="43.36697" lon="6.66252">
        <ele>185.39999389648</ele>
        <time>2018-02-03T12:43:24.000Z</time>
      </trkpt>
      <trkpt lat="43.36696" lon="6.66252">
        <ele>185</ele>
        <time>2018-02-03T12:43:36.000Z</time>
      </trkpt>
      <trkpt lat="43.36695" lon="6.66253">
        <ele>185.19999694824</ele>
        <time>2018-02-03T12:43:43.000Z</time>
      </trkpt>
      <trkpt lat="43.36695" lon="6.66253">
        <ele>185.19999694824</ele>
        <time>2018-02-03T12:43:58.000Z</time>
      </trkpt>
      <trkpt lat="43.36694" lon="6.66253">
        <ele>185.60000610352</ele>
        <time>2018-02-03T12:44:18.000Z</time>
      </trkpt>
      <trkpt lat="43.36695" lon="6.66253">
        <ele>185.39999389648</ele>
        <time>2018-02-03T12:44:29.000Z</time>
      </trkpt>
      <trkpt lat="43.36694" lon="6.66251">
        <ele>185.60000610352</ele>
        <time>2018-02-03T12:44:44.000Z</time>
      </trkpt>
      <trkpt lat="43.36694" lon="6.66251">
        <ele>186</ele>
        <time>2018-02-03T12:44:46.000Z</time>
      </trkpt>
      <trkpt lat="43.36694" lon="6.66251">
        <ele>185.39999389648</ele>
        <time>2018-02-03T12:44:51.000Z</time>
      </trkpt>
      <trkpt lat="43.36694" lon="6.6625">
        <ele>185.39999389648</ele>
        <time>2018-02-03T12:45:03.000Z</time>
      </trkpt>
      <trkpt lat="43.36695" lon="6.66249">
        <ele>185.39999389648</ele>
        <time>2018-02-03T12:45:19.000Z</time>
      </trkpt>
      <trkpt lat="43.36695" lon="6.66249">
        <ele>185</ele>
        <time>2018-02-03T12:45:29.000Z</time>
      </trkpt>
      <trkpt lat="43.36694" lon="6.66249">
        <ele>185.39999389648</ele>
        <time>2018-02-03T12:45:38.000Z</time>
      </trkpt>
      <trkpt lat="43.36695" lon="6.66249">
        <ele>185.60000610352</ele>
        <time>2018-02-03T12:45:55.000Z</time>
      </trkpt>
      <trkpt lat="43.36695" lon="6.66249">
        <ele>185.39999389648</ele>
        <time>2018-02-03T12:46:12.000Z</time>
      </trkpt>
      <trkpt lat="43.36695" lon="6.6625">
        <ele>185.19999694824</ele>
        <time>2018-02-03T12:46:26.000Z</time>
      </trkpt>
      <trkpt lat="43.36695" lon="6.6625">
        <ele>185.19999694824</ele>
        <time>2018-02-03T12:46:37.000Z</time>
      </trkpt>
      <trkpt lat="43.36695" lon="6.6625">
        <ele>185.80000305176</ele>
        <time>2018-02-03T12:46:46.000Z</time>
      </trkpt>
      <trkpt lat="43.36695" lon="6.6625">
        <ele>184.80000305176</ele>
        <time>2018-02-03T12:47:13.000Z</time>
      </trkpt>
      <trkpt lat="43.36695" lon="6.66249">
        <ele>184.80000305176</ele>
        <time>2018-02-03T12:47:23.000Z</time>
      </trkpt>
      <trkpt lat="43.36695" lon="6.6625">
        <ele>184.80000305176</ele>
        <time>2018-02-03T12:47:40.000Z</time>
      </trkpt>
      <trkpt lat="43.36695" lon="6.6625">
        <ele>184.60000610352</ele>
        <time>2018-02-03T12:48:01.000Z</time>
      </trkpt>
      <trkpt lat="43.36696" lon="6.66249">
        <ele>184.60000610352</ele>
        <time>2018-02-03T12:48:12.000Z</time>
      </trkpt>
      <trkpt lat="43.36696" lon="6.66249">
        <ele>184.60000610352</ele>
        <time>2018-02-03T12:48:16.000Z</time>
      </trkpt>
      <trkpt lat="43.36697" lon="6.66249">
        <ele>184.80000305176</ele>
        <time>2018-02-03T12:48:27.000Z</time>
      </trkpt>
      <trkpt lat="43.36697" lon="6.66249">
        <ele>183.80000305176</ele>
        <time>2018-02-03T12:48:42.000Z</time>
      </trkpt>
      <trkpt lat="43.36697" lon="6.66249">
        <ele>183.80000305176</ele>
        <time>2018-02-03T12:48:43.000Z</time>
      </trkpt>
      <trkpt lat="43.36698" lon="6.66249">
        <ele>183.60000610352</ele>
        <time>2018-02-03T12:48:59.000Z</time>
      </trkpt>
      <trkpt lat="43.36698" lon="6.66249">
        <ele>183.19999694824</ele>
        <time>2018-02-03T12:49:14.000Z</time>
      </trkpt>
      <trkpt lat="43.36697" lon="6.66248">
        <ele>183</ele>
        <time>2018-02-03T12:49:27.000Z</time>
      </trkpt>
      <trkpt lat="43.36698" lon="6.66245">
        <ele>183.39999389648</ele>
        <time>2018-02-03T12:49:31.000Z</time>
      </trkpt>
      <trkpt lat="43.36699" lon="6.66244">
        <ele>183.60000610352</ele>
        <time>2018-02-03T12:49:32.000Z</time>
      </trkpt>
      <trkpt lat="43.36706" lon="6.66236">
        <ele>183.39999389648</ele>
        <time>2018-02-03T12:49:36.000Z</time>
      </trkpt>
      <trkpt lat="43.36708" lon="6.66232">
        <ele>183.19999694824</ele>
        <time>2018-02-03T12:49:37.000Z</time>
      </trkpt>
      <trkpt lat="43.36711" lon="6.6622">
        <ele>182.80000305176</ele>
        <time>2018-02-03T12:49:40.000Z</time>
      </trkpt>
      <trkpt lat="43.36713" lon="6.66214">
        <ele>182</ele>
        <time>2018-02-03T12:49:42.000Z</time>
      </trkpt>
      <trkpt lat="43.36715" lon="6.66211">
        <ele>181.60000610352</ele>
        <time>2018-02-03T12:49:43.000Z</time>
      </trkpt>
      <trkpt lat="43.36723" lon="6.66196">
        <ele>181.39999389648</ele>
        <time>2018-02-03T12:49:47.000Z</time>
      </trkpt>
      <trkpt lat="43.36731" lon="6.66174">
        <ele>180.60000610352</ele>
        <time>2018-02-03T12:49:52.000Z</time>
      </trkpt>
      <trkpt lat="43.36732" lon="6.6617">
        <ele>180.19999694824</ele>
        <time>2018-02-03T12:49:53.000Z</time>
      </trkpt>
      <trkpt lat="43.36737" lon="6.66159">
        <ele>179.80000305176</ele>
        <time>2018-02-03T12:49:55.000Z</time>
      </trkpt>
      <trkpt lat="43.36745" lon="6.66151">
        <ele>179.39999389648</ele>
        <time>2018-02-03T12:49:57.000Z</time>
      </trkpt>
      <trkpt lat="43.36755" lon="6.66138">
        <ele>178</ele>
        <time>2018-02-03T12:50:00.000Z</time>
      </trkpt>
      <trkpt lat="43.3676" lon="6.6613">
        <ele>177.19999694824</ele>
        <time>2018-02-03T12:50:02.000Z</time>
      </trkpt>
      <trkpt lat="43.36762" lon="6.66126">
        <ele>177</ele>
        <time>2018-02-03T12:50:04.000Z</time>
      </trkpt>
      <trkpt lat="43.36762" lon="6.66127">
        <ele>177</ele>
        <time>2018-02-03T12:50:05.000Z</time>
      </trkpt>
      <trkpt lat="43.36762" lon="6.66128">
        <ele>177.60000610352</ele>
        <time>2018-02-03T12:50:21.000Z</time>
      </trkpt>
      <trkpt lat="43.36762" lon="6.66128">
        <ele>178</ele>
        <time>2018-02-03T12:50:25.000Z</time>
      </trkpt>
      <trkpt lat="43.36762" lon="6.66128">
        <ele>177.80000305176</ele>
        <time>2018-02-03T12:50:29.000Z</time>
      </trkpt>
      <trkpt lat="43.36763" lon="6.66127">
        <ele>178.19999694824</ele>
        <time>2018-02-03T12:50:36.000Z</time>
      </trkpt>
      <trkpt lat="43.36768" lon="6.66121">
        <ele>177.80000305176</ele>
        <time>2018-02-03T12:50:41.000Z</time>
      </trkpt>
      <trkpt lat="43.36776" lon="6.66103">
        <ele>178</ele>
        <time>2018-02-03T12:50:47.000Z</time>
      </trkpt>
      <trkpt lat="43.36785" lon="6.6608">
        <ele>178</ele>
        <time>2018-02-03T12:50:54.000Z</time>
      </trkpt>
      <trkpt lat="43.36794" lon="6.66046">
        <ele>177.60000610352</ele>
        <time>2018-02-03T12:51:02.000Z</time>
      </trkpt>
      <trkpt lat="43.36798" lon="6.66031">
        <ele>177.39999389648</ele>
        <time>2018-02-03T12:51:05.000Z</time>
      </trkpt>
      <trkpt lat="43.36799" lon="6.66018">
        <ele>176.80000305176</ele>
        <time>2018-02-03T12:51:07.000Z</time>
      </trkpt>
      <trkpt lat="43.36799" lon="6.66013">
        <ele>176.19999694824</ele>
        <time>2018-02-03T12:51:08.000Z</time>
      </trkpt>
      <trkpt lat="43.36801" lon="6.66003">
        <ele>175.60000610352</ele>
        <time>2018-02-03T12:51:10.000Z</time>
      </trkpt>
      <trkpt lat="43.36805" lon="6.65993">
        <ele>176</ele>
        <time>2018-02-03T12:51:12.000Z</time>
      </trkpt>
      <trkpt lat="43.36806" lon="6.65988">
        <ele>176</ele>
        <time>2018-02-03T12:51:13.000Z</time>
      </trkpt>
      <trkpt lat="43.3681" lon="6.65966">
        <ele>175.60000610352</ele>
        <time>2018-02-03T12:51:17.000Z</time>
      </trkpt>
      <trkpt lat="43.36813" lon="6.65949">
        <ele>174.39999389648</ele>
        <time>2018-02-03T12:51:21.000Z</time>
      </trkpt>
      <trkpt lat="43.36817" lon="6.65926">
        <ele>174.60000610352</ele>
        <time>2018-02-03T12:51:27.000Z</time>
      </trkpt>
      <trkpt lat="43.36822" lon="6.65908">
        <ele>175.19999694824</ele>
        <time>2018-02-03T12:51:33.000Z</time>
      </trkpt>
      <trkpt lat="43.36827" lon="6.65903">
        <ele>175.60000610352</ele>
        <time>2018-02-03T12:51:36.000Z</time>
      </trkpt>
      <trkpt lat="43.36829" lon="6.65903">
        <ele>175.80000305176</ele>
        <time>2018-02-03T12:51:37.000Z</time>
      </trkpt>
      <trkpt lat="43.36832" lon="6.65899">
        <ele>176.60000610352</ele>
        <time>2018-02-03T12:51:40.000Z</time>
      </trkpt>
      <trkpt lat="43.36835" lon="6.65895">
        <ele>177.60000610352</ele>
        <time>2018-02-03T12:51:43.000Z</time>
      </trkpt>
      <trkpt lat="43.3684" lon="6.6589">
        <ele>178.80000305176</ele>
        <time>2018-02-03T12:51:47.000Z</time>
      </trkpt>
      <trkpt lat="43.36844" lon="6.65885">
        <ele>180</ele>
        <time>2018-02-03T12:51:51.000Z</time>
      </trkpt>
      <trkpt lat="43.36845" lon="6.65883">
        <ele>180.60000610352</ele>
        <time>2018-02-03T12:51:53.000Z</time>
      </trkpt>
      <trkpt lat="43.36846" lon="6.6588">
        <ele>181</ele>
        <time>2018-02-03T12:51:55.000Z</time>
      </trkpt>
      <trkpt lat="43.36848" lon="6.65877">
        <ele>181.39999389648</ele>
        <time>2018-02-03T12:51:57.000Z</time>
      </trkpt>
      <trkpt lat="43.36849" lon="6.6587">
        <ele>182.39999389648</ele>
        <time>2018-02-03T12:52:01.000Z</time>
      </trkpt>
      <trkpt lat="43.36848" lon="6.65866">
        <ele>183</ele>
        <time>2018-02-03T12:52:03.000Z</time>
      </trkpt>
      <trkpt lat="43.36848" lon="6.65864">
        <ele>183.60000610352</ele>
        <time>2018-02-03T12:52:05.000Z</time>
      </trkpt>
      <trkpt lat="43.36846" lon="6.65857">
        <ele>184.39999389648</ele>
        <time>2018-02-03T12:52:09.000Z</time>
      </trkpt>
      <trkpt lat="43.36844" lon="6.65849">
        <ele>184.60000610352</ele>
        <time>2018-02-03T12:52:15.000Z</time>
      </trkpt>
      <trkpt lat="43.36843" lon="6.65847">
        <ele>185.39999389648</ele>
        <time>2018-02-03T12:52:18.000Z</time>
      </trkpt>
      <trkpt lat="43.36843" lon="6.65846">
        <ele>185.60000610352</ele>
        <time>2018-02-03T12:52:19.000Z</time>
      </trkpt>
      <trkpt lat="43.36841" lon="6.65838">
        <ele>186.19999694824</ele>
        <time>2018-02-03T12:52:25.000Z</time>
      </trkpt>
      <trkpt lat="43.3684" lon="6.65835">
        <ele>186.80000305176</ele>
        <time>2018-02-03T12:52:28.000Z</time>
      </trkpt>
      <trkpt lat="43.3684" lon="6.6583">
        <ele>187.60000610352</ele>
        <time>2018-02-03T12:52:31.000Z</time>
      </trkpt>
      <trkpt lat="43.3684" lon="6.65828">
        <ele>188</ele>
        <time>2018-02-03T12:52:33.000Z</time>
      </trkpt>
      <trkpt lat="43.36841" lon="6.6582">
        <ele>189.19999694824</ele>
        <time>2018-02-03T12:52:38.000Z</time>
      </trkpt>
      <trkpt lat="43.36841" lon="6.65811">
        <ele>190.39999389648</ele>
        <time>2018-02-03T12:52:44.000Z</time>
      </trkpt>
      <trkpt lat="43.36841" lon="6.65805">
        <ele>191.39999389648</ele>
        <time>2018-02-03T12:52:48.000Z</time>
      </trkpt>
      <trkpt lat="43.36841" lon="6.65803">
        <ele>191.80000305176</ele>
        <time>2018-02-03T12:52:50.000Z</time>
      </trkpt>
      <trkpt lat="43.36841" lon="6.65798">
        <ele>192.39999389648</ele>
        <time>2018-02-03T12:52:53.000Z</time>
      </trkpt>
      <trkpt lat="43.3684" lon="6.65796">
        <ele>192.80000305176</ele>
        <time>2018-02-03T12:52:55.000Z</time>
      </trkpt>
      <trkpt lat="43.36839" lon="6.65789">
        <ele>193.39999389648</ele>
        <time>2018-02-03T12:53:00.000Z</time>
      </trkpt>
      <trkpt lat="43.36838" lon="6.6578">
        <ele>194.39999389648</ele>
        <time>2018-02-03T12:53:06.000Z</time>
      </trkpt>
      <trkpt lat="43.36838" lon="6.65773">
        <ele>195.60000610352</ele>
        <time>2018-02-03T12:53:12.000Z</time>
      </trkpt>
      <trkpt lat="43.36838" lon="6.65771">
        <ele>195.80000305176</ele>
        <time>2018-02-03T12:53:13.000Z</time>
      </trkpt>
      <trkpt lat="43.36838" lon="6.65764">
        <ele>196.60000610352</ele>
        <time>2018-02-03T12:53:18.000Z</time>
      </trkpt>
      <trkpt lat="43.36838" lon="6.65763">
        <ele>196.80000305176</ele>
        <time>2018-02-03T12:53:19.000Z</time>
      </trkpt>
      <trkpt lat="43.36838" lon="6.65749">
        <ele>197.60000610352</ele>
        <time>2018-02-03T12:53:27.000Z</time>
      </trkpt>
      <trkpt lat="43.36838" lon="6.65739">
        <ele>198.80000305176</ele>
        <time>2018-02-03T12:53:33.000Z</time>
      </trkpt>
      <trkpt lat="43.36838" lon="6.65737">
        <ele>199</ele>
        <time>2018-02-03T12:53:34.000Z</time>
      </trkpt>
      <trkpt lat="43.36837" lon="6.65734">
        <ele>199.39999389648</ele>
        <time>2018-02-03T12:53:36.000Z</time>
      </trkpt>
      <trkpt lat="43.36837" lon="6.6573">
        <ele>199.80000305176</ele>
        <time>2018-02-03T12:53:38.000Z</time>
      </trkpt>
      <trkpt lat="43.36837" lon="6.65729">
        <ele>200</ele>
        <time>2018-02-03T12:53:39.000Z</time>
      </trkpt>
      <trkpt lat="43.36837" lon="6.65719">
        <ele>201</ele>
        <time>2018-02-03T12:53:45.000Z</time>
      </trkpt>
      <trkpt lat="43.36837" lon="6.65718">
        <ele>201.19999694824</ele>
        <time>2018-02-03T12:53:46.000Z</time>
      </trkpt>
      <trkpt lat="43.36837" lon="6.65711">
        <ele>202</ele>
        <time>2018-02-03T12:53:50.000Z</time>
      </trkpt>
      <trkpt lat="43.36838" lon="6.65708">
        <ele>202.80000305176</ele>
        <time>2018-02-03T12:53:52.000Z</time>
      </trkpt>
      <trkpt lat="43.36839" lon="6.65706">
        <ele>203.19999694824</ele>
        <time>2018-02-03T12:53:54.000Z</time>
      </trkpt>
      <trkpt lat="43.36842" lon="6.65702">
        <ele>203.60000610352</ele>
        <time>2018-02-03T12:53:57.000Z</time>
      </trkpt>
      <trkpt lat="43.36844" lon="6.657">
        <ele>204.19999694824</ele>
        <time>2018-02-03T12:53:59.000Z</time>
      </trkpt>
      <trkpt lat="43.36849" lon="6.65697">
        <ele>205.19999694824</ele>
        <time>2018-02-03T12:54:03.000Z</time>
      </trkpt>
      <trkpt lat="43.3685" lon="6.65696">
        <ele>205.39999389648</ele>
        <time>2018-02-03T12:54:04.000Z</time>
      </trkpt>
      <trkpt lat="43.36854" lon="6.65692">
        <ele>206.19999694824</ele>
        <time>2018-02-03T12:54:07.000Z</time>
      </trkpt>
      <trkpt lat="43.36859" lon="6.65683">
        <ele>206.19999694824</ele>
        <time>2018-02-03T12:54:11.000Z</time>
      </trkpt>
      <trkpt lat="43.36866" lon="6.65668">
        <ele>206.39999389648</ele>
        <time>2018-02-03T12:54:16.000Z</time>
      </trkpt>
      <trkpt lat="43.36875" lon="6.65645">
        <ele>204.80000305176</ele>
        <time>2018-02-03T12:54:21.000Z</time>
      </trkpt>
      <trkpt lat="43.36885" lon="6.65622">
        <ele>203.80000305176</ele>
        <time>2018-02-03T12:54:25.000Z</time>
      </trkpt>
      <trkpt lat="43.36888" lon="6.65615">
        <ele>203.39999389648</ele>
        <time>2018-02-03T12:54:26.000Z</time>
      </trkpt>
      <trkpt lat="43.36892" lon="6.65608">
        <ele>203</ele>
        <time>2018-02-03T12:54:27.000Z</time>
      </trkpt>
      <trkpt lat="43.36897" lon="6.65601">
        <ele>202.39999389648</ele>
        <time>2018-02-03T12:54:28.000Z</time>
      </trkpt>
      <trkpt lat="43.36907" lon="6.65587">
        <ele>201.19999694824</ele>
        <time>2018-02-03T12:54:30.000Z</time>
      </trkpt>
      <trkpt lat="43.36916" lon="6.65576">
        <ele>199.80000305176</ele>
        <time>2018-02-03T12:54:32.000Z</time>
      </trkpt>
      <trkpt lat="43.36927" lon="6.6556">
        <ele>198.80000305176</ele>
        <time>2018-02-03T12:54:35.000Z</time>
      </trkpt>
      <trkpt lat="43.36939" lon="6.65541">
        <ele>197.60000610352</ele>
        <time>2018-02-03T12:54:38.000Z</time>
      </trkpt>
      <trkpt lat="43.36947" lon="6.65529">
        <ele>196.39999389648</ele>
        <time>2018-02-03T12:54:40.000Z</time>
      </trkpt>
      <trkpt lat="43.3695" lon="6.65525">
        <ele>195.80000305176</ele>
        <time>2018-02-03T12:54:41.000Z</time>
      </trkpt>
      <trkpt lat="43.36954" lon="6.6552">
        <ele>195</ele>
        <time>2018-02-03T12:54:42.000Z</time>
      </trkpt>
      <trkpt lat="43.36959" lon="6.65514">
        <ele>193.80000305176</ele>
        <time>2018-02-03T12:54:44.000Z</time>
      </trkpt>
      <trkpt lat="43.36961" lon="6.65512">
        <ele>193.39999389648</ele>
        <time>2018-02-03T12:54:45.000Z</time>
      </trkpt>
      <trkpt lat="43.36964" lon="6.65505">
        <ele>192.80000305176</ele>
        <time>2018-02-03T12:54:50.000Z</time>
      </trkpt>
      <trkpt lat="43.36963" lon="6.65489">
        <ele>193</ele>
        <time>2018-02-03T12:54:55.000Z</time>
      </trkpt>
      <trkpt lat="43.36963" lon="6.6547">
        <ele>192.80000305176</ele>
        <time>2018-02-03T12:54:58.000Z</time>
      </trkpt>
      <trkpt lat="43.36963" lon="6.65455">
        <ele>192</ele>
        <time>2018-02-03T12:55:00.000Z</time>
      </trkpt>
      <trkpt lat="43.36964" lon="6.65447">
        <ele>191.39999389648</ele>
        <time>2018-02-03T12:55:01.000Z</time>
      </trkpt>
      <trkpt lat="43.36968" lon="6.65432">
        <ele>190.39999389648</ele>
        <time>2018-02-03T12:55:03.000Z</time>
      </trkpt>
      <trkpt lat="43.36972" lon="6.65426">
        <ele>189.80000305176</ele>
        <time>2018-02-03T12:55:04.000Z</time>
      </trkpt>
      <trkpt lat="43.36983" lon="6.65416">
        <ele>188.80000305176</ele>
        <time>2018-02-03T12:55:06.000Z</time>
      </trkpt>
      <trkpt lat="43.36988" lon="6.65415">
        <ele>188</ele>
        <time>2018-02-03T12:55:07.000Z</time>
      </trkpt>
      <trkpt lat="43.36992" lon="6.65414">
        <ele>187.19999694824</ele>
        <time>2018-02-03T12:55:08.000Z</time>
      </trkpt>
      <trkpt lat="43.37001" lon="6.65414">
        <ele>186</ele>
        <time>2018-02-03T12:55:10.000Z</time>
      </trkpt>
      <trkpt lat="43.37011" lon="6.65413">
        <ele>185.19999694824</ele>
        <time>2018-02-03T12:55:12.000Z</time>
      </trkpt>
      <trkpt lat="43.37015" lon="6.65413">
        <ele>184.60000610352</ele>
        <time>2018-02-03T12:55:13.000Z</time>
      </trkpt>
      <trkpt lat="43.37024" lon="6.65414">
        <ele>184</ele>
        <time>2018-02-03T12:55:15.000Z</time>
      </trkpt>
      <trkpt lat="43.37029" lon="6.65416">
        <ele>183.39999389648</ele>
        <time>2018-02-03T12:55:16.000Z</time>
      </trkpt>
      <trkpt lat="43.37034" lon="6.65417">
        <ele>183</ele>
        <time>2018-02-03T12:55:17.000Z</time>
      </trkpt>
      <trkpt lat="43.3704" lon="6.65419">
        <ele>182.39999389648</ele>
        <time>2018-02-03T12:55:18.000Z</time>
      </trkpt>
      <trkpt lat="43.37053" lon="6.65418">
        <ele>181</ele>
        <time>2018-02-03T12:55:20.000Z</time>
      </trkpt>
      <trkpt lat="43.37058" lon="6.65418">
        <ele>180</ele>
        <time>2018-02-03T12:55:21.000Z</time>
      </trkpt>
      <trkpt lat="43.37061" lon="6.65418">
        <ele>178.80000305176</ele>
        <time>2018-02-03T12:55:22.000Z</time>
      </trkpt>
      <trkpt lat="43.3707" lon="6.65415">
        <ele>177</ele>
        <time>2018-02-03T12:55:24.000Z</time>
      </trkpt>
      <trkpt lat="43.37081" lon="6.65408">
        <ele>175.19999694824</ele>
        <time>2018-02-03T12:55:26.000Z</time>
      </trkpt>
      <trkpt lat="43.3709" lon="6.65401">
        <ele>173.80000305176</ele>
        <time>2018-02-03T12:55:28.000Z</time>
      </trkpt>
      <trkpt lat="43.37094" lon="6.65394">
        <ele>172.39999389648</ele>
        <time>2018-02-03T12:55:30.000Z</time>
      </trkpt>
      <trkpt lat="43.37097" lon="6.65389">
        <ele>172.60000610352</ele>
        <time>2018-02-03T12:55:32.000Z</time>
      </trkpt>
      <trkpt lat="43.37101" lon="6.65379">
        <ele>173</ele>
        <time>2018-02-03T12:55:37.000Z</time>
      </trkpt>
      <trkpt lat="43.37108" lon="6.65356">
        <ele>173.60000610352</ele>
        <time>2018-02-03T12:55:44.000Z</time>
      </trkpt>
      <trkpt lat="43.37109" lon="6.65352">
        <ele>174</ele>
        <time>2018-02-03T12:55:45.000Z</time>
      </trkpt>
      <trkpt lat="43.37114" lon="6.65341">
        <ele>174.80000305176</ele>
        <time>2018-02-03T12:55:48.000Z</time>
      </trkpt>
      <trkpt lat="43.37121" lon="6.65331">
        <ele>176</ele>
        <time>2018-02-03T12:55:52.000Z</time>
      </trkpt>
      <trkpt lat="43.37128" lon="6.65321">
        <ele>177</ele>
        <time>2018-02-03T12:55:56.000Z</time>
      </trkpt>
      <trkpt lat="43.37134" lon="6.65317">
        <ele>177.39999389648</ele>
        <time>2018-02-03T12:55:58.000Z</time>
      </trkpt>
      <trkpt lat="43.37155" lon="6.65308">
        <ele>177.19999694824</ele>
        <time>2018-02-03T12:56:04.000Z</time>
      </trkpt>
      <trkpt lat="43.37172" lon="6.6531">
        <ele>177.80000305176</ele>
        <time>2018-02-03T12:56:10.000Z</time>
      </trkpt>
      <trkpt lat="43.37174" lon="6.65311">
        <ele>178.19999694824</ele>
        <time>2018-02-03T12:56:11.000Z</time>
      </trkpt>
      <trkpt lat="43.37185" lon="6.65318">
        <ele>179.39999389648</ele>
        <time>2018-02-03T12:56:16.000Z</time>
      </trkpt>
      <trkpt lat="43.37186" lon="6.6532">
        <ele>179.60000610352</ele>
        <time>2018-02-03T12:56:17.000Z</time>
      </trkpt>
      <trkpt lat="43.37193" lon="6.65327">
        <ele>180.39999389648</ele>
        <time>2018-02-03T12:56:21.000Z</time>
      </trkpt>
      <trkpt lat="43.37197" lon="6.65329">
        <ele>180.80000305176</ele>
        <time>2018-02-03T12:56:23.000Z</time>
      </trkpt>
      <trkpt lat="43.37202" lon="6.65332">
        <ele>181.60000610352</ele>
        <time>2018-02-03T12:56:26.000Z</time>
      </trkpt>
      <trkpt lat="43.37207" lon="6.65335">
        <ele>182.80000305176</ele>
        <time>2018-02-03T12:56:29.000Z</time>
      </trkpt>
      <trkpt lat="43.37209" lon="6.65336">
        <ele>183.19999694824</ele>
        <time>2018-02-03T12:56:30.000Z</time>
      </trkpt>
      <trkpt lat="43.37212" lon="6.65337">
        <ele>184</ele>
        <time>2018-02-03T12:56:32.000Z</time>
      </trkpt>
      <trkpt lat="43.37221" lon="6.65339">
        <ele>184.80000305176</ele>
        <time>2018-02-03T12:56:36.000Z</time>
      </trkpt>
      <trkpt lat="43.37223" lon="6.6534">
        <ele>185</ele>
        <time>2018-02-03T12:56:37.000Z</time>
      </trkpt>
      <trkpt lat="43.37228" lon="6.65345">
        <ele>186.19999694824</ele>
        <time>2018-02-03T12:56:41.000Z</time>
      </trkpt>
      <trkpt lat="43.37234" lon="6.65344">
        <ele>187.19999694824</ele>
        <time>2018-02-03T12:56:44.000Z</time>
      </trkpt>
      <trkpt lat="43.37236" lon="6.65344">
        <ele>187.60000610352</ele>
        <time>2018-02-03T12:56:45.000Z</time>
      </trkpt>
      <trkpt lat="43.37238" lon="6.65344">
        <ele>187.80000305176</ele>
        <time>2018-02-03T12:56:46.000Z</time>
      </trkpt>
      <trkpt lat="43.37244" lon="6.65346">
        <ele>188.39999389648</ele>
        <time>2018-02-03T12:56:49.000Z</time>
      </trkpt>
      <trkpt lat="43.37252" lon="6.65346">
        <ele>189</ele>
        <time>2018-02-03T12:56:53.000Z</time>
      </trkpt>
      <trkpt lat="43.37259" lon="6.65346">
        <ele>189.39999389648</ele>
        <time>2018-02-03T12:56:56.000Z</time>
      </trkpt>
      <trkpt lat="43.37272" lon="6.65345">
        <ele>190.39999389648</ele>
        <time>2018-02-03T12:57:02.000Z</time>
      </trkpt>
      <trkpt lat="43.37274" lon="6.65345">
        <ele>190.39999389648</ele>
        <time>2018-02-03T12:57:03.000Z</time>
      </trkpt>
      <trkpt lat="43.37289" lon="6.65348">
        <ele>191</ele>
        <time>2018-02-03T12:57:10.000Z</time>
      </trkpt>
      <trkpt lat="43.37304" lon="6.65359">
        <ele>191</ele>
        <time>2018-02-03T12:57:17.000Z</time>
      </trkpt>
      <trkpt lat="43.3732" lon="6.65372">
        <ele>190.80000305176</ele>
        <time>2018-02-03T12:57:23.000Z</time>
      </trkpt>
      <trkpt lat="43.37343" lon="6.65396">
        <ele>190.19999694824</ele>
        <time>2018-02-03T12:57:31.000Z</time>
      </trkpt>
      <trkpt lat="43.37366" lon="6.65404">
        <ele>189.60000610352</ele>
        <time>2018-02-03T12:57:37.000Z</time>
      </trkpt>
      <trkpt lat="43.37372" lon="6.65405">
        <ele>189.39999389648</ele>
        <time>2018-02-03T12:57:38.000Z</time>
      </trkpt>
      <trkpt lat="43.3739" lon="6.65406">
        <ele>188.19999694824</ele>
        <time>2018-02-03T12:57:41.000Z</time>
      </trkpt>
      <trkpt lat="43.37395" lon="6.65406">
        <ele>187.60000610352</ele>
        <time>2018-02-03T12:57:42.000Z</time>
      </trkpt>
      <trkpt lat="43.37401" lon="6.65404">
        <ele>187</ele>
        <time>2018-02-03T12:57:43.000Z</time>
      </trkpt>
      <trkpt lat="43.37412" lon="6.65402">
        <ele>185.60000610352</ele>
        <time>2018-02-03T12:57:45.000Z</time>
      </trkpt>
      <trkpt lat="43.37417" lon="6.654">
        <ele>185</ele>
        <time>2018-02-03T12:57:46.000Z</time>
      </trkpt>
      <trkpt lat="43.37422" lon="6.65398">
        <ele>184.60000610352</ele>
        <time>2018-02-03T12:57:47.000Z</time>
      </trkpt>
      <trkpt lat="43.37427" lon="6.65396">
        <ele>184.19999694824</ele>
        <time>2018-02-03T12:57:48.000Z</time>
      </trkpt>
      <trkpt lat="43.37437" lon="6.65392">
        <ele>183.60000610352</ele>
        <time>2018-02-03T12:57:50.000Z</time>
      </trkpt>
      <trkpt lat="43.37442" lon="6.65391">
        <ele>183.39999389648</ele>
        <time>2018-02-03T12:57:51.000Z</time>
      </trkpt>
      <trkpt lat="43.37447" lon="6.6539">
        <ele>183.19999694824</ele>
        <time>2018-02-03T12:57:52.000Z</time>
      </trkpt>
      <trkpt lat="43.37465" lon="6.65385">
        <ele>183</ele>
        <time>2018-02-03T12:57:57.000Z</time>
      </trkpt>
      <trkpt lat="43.37466" lon="6.65386">
        <ele>183.19999694824</ele>
        <time>2018-02-03T12:58:01.000Z</time>
      </trkpt>
      <trkpt lat="43.37466" lon="6.65387">
        <ele>184</ele>
        <time>2018-02-03T12:58:14.000Z</time>
      </trkpt>
      <trkpt lat="43.37465" lon="6.65388">
        <ele>184.39999389648</ele>
        <time>2018-02-03T12:58:32.000Z</time>
      </trkpt>
      <trkpt lat="43.37463" lon="6.6539">
        <ele>184.60000610352</ele>
        <time>2018-02-03T12:58:39.000Z</time>
      </trkpt>
      <trkpt lat="43.37463" lon="6.6539">
        <ele>184.80000305176</ele>
        <time>2018-02-03T12:58:46.000Z</time>
      </trkpt>
      <trkpt lat="43.37463" lon="6.6539">
        <ele>185.60000610352</ele>
        <time>2018-02-03T12:58:54.000Z</time>
      </trkpt>
      <trkpt lat="43.37463" lon="6.6539">
        <ele>185.60000610352</ele>
        <time>2018-02-03T12:58:56.000Z</time>
      </trkpt>
      <trkpt lat="43.37463" lon="6.6539">
        <ele>185.60000610352</ele>
        <time>2018-02-03T12:59:10.000Z</time>
      </trkpt>
      <trkpt lat="43.37464" lon="6.65392">
        <ele>185</ele>
        <time>2018-02-03T12:59:17.000Z</time>
      </trkpt>
      <trkpt lat="43.37464" lon="6.6539">
        <ele>185</ele>
        <time>2018-02-03T12:59:28.000Z</time>
      </trkpt>
      <trkpt lat="43.37464" lon="6.6539">
        <ele>184.60000610352</ele>
        <time>2018-02-03T12:59:33.000Z</time>
      </trkpt>
      <trkpt lat="43.37464" lon="6.65389">
        <ele>185</ele>
        <time>2018-02-03T12:59:39.000Z</time>
      </trkpt>
      <trkpt lat="43.37465" lon="6.65389">
        <ele>184.39999389648</ele>
        <time>2018-02-03T12:59:47.000Z</time>
      </trkpt>
      <trkpt lat="43.37465" lon="6.6539">
        <ele>184.39999389648</ele>
        <time>2018-02-03T12:59:53.000Z</time>
      </trkpt>
      <trkpt lat="43.37465" lon="6.65391">
        <ele>184.39999389648</ele>
        <time>2018-02-03T12:59:59.000Z</time>
      </trkpt>
      <trkpt lat="43.37466" lon="6.65391">
        <ele>184.80000305176</ele>
        <time>2018-02-03T13:00:12.000Z</time>
      </trkpt>
      <trkpt lat="43.37466" lon="6.65391">
        <ele>184.80000305176</ele>
        <time>2018-02-03T13:00:23.000Z</time>
      </trkpt>
      <trkpt lat="43.37466" lon="6.65391">
        <ele>184.60000610352</ele>
        <time>2018-02-03T13:00:34.000Z</time>
      </trkpt>
      <trkpt lat="43.37468" lon="6.65391">
        <ele>185</ele>
        <time>2018-02-03T13:00:48.000Z</time>
      </trkpt>
      <trkpt lat="43.37468" lon="6.65391">
        <ele>185.39999389648</ele>
        <time>2018-02-03T13:00:58.000Z</time>
      </trkpt>
      <trkpt lat="43.37469" lon="6.65391">
        <ele>185.80000305176</ele>
        <time>2018-02-03T13:01:01.000Z</time>
      </trkpt>
      <trkpt lat="43.37468" lon="6.65391">
        <ele>185.60000610352</ele>
        <time>2018-02-03T13:01:07.000Z</time>
      </trkpt>
      <trkpt lat="43.37468" lon="6.65391">
        <ele>185.19999694824</ele>
        <time>2018-02-03T13:01:13.000Z</time>
      </trkpt>
      <trkpt lat="43.37468" lon="6.65392">
        <ele>185.80000305176</ele>
        <time>2018-02-03T13:01:31.000Z</time>
      </trkpt>
      <trkpt lat="43.37468" lon="6.65392">
        <ele>185.39999389648</ele>
        <time>2018-02-03T13:01:41.000Z</time>
      </trkpt>
      <trkpt lat="43.37468" lon="6.65392">
        <ele>185.39999389648</ele>
        <time>2018-02-03T13:01:51.000Z</time>
      </trkpt>
      <trkpt lat="43.37468" lon="6.65392">
        <ele>185.39999389648</ele>
        <time>2018-02-03T13:01:56.000Z</time>
      </trkpt>
      <trkpt lat="43.37468" lon="6.65391">
        <ele>185</ele>
        <time>2018-02-03T13:02:13.000Z</time>
      </trkpt>
      <trkpt lat="43.37468" lon="6.65391">
        <ele>185</ele>
        <time>2018-02-03T13:02:24.000Z</time>
      </trkpt>
      <trkpt lat="43.37469" lon="6.6539">
        <ele>185</ele>
        <time>2018-02-03T13:02:42.000Z</time>
      </trkpt>
      <trkpt lat="43.37469" lon="6.6539">
        <ele>185.19999694824</ele>
        <time>2018-02-03T13:02:54.000Z</time>
      </trkpt>
      <trkpt lat="43.37469" lon="6.6539">
        <ele>185</ele>
        <time>2018-02-03T13:03:11.000Z</time>
      </trkpt>
      <trkpt lat="43.3747" lon="6.6539">
        <ele>185.19999694824</ele>
        <time>2018-02-03T13:03:23.000Z</time>
      </trkpt>
      <trkpt lat="43.3747" lon="6.65389">
        <ele>185</ele>
        <time>2018-02-03T13:03:40.000Z</time>
      </trkpt>
      <trkpt lat="43.3747" lon="6.65388">
        <ele>184.80000305176</ele>
        <time>2018-02-03T13:03:58.000Z</time>
      </trkpt>
      <trkpt lat="43.3747" lon="6.65388">
        <ele>184.60000610352</ele>
        <time>2018-02-03T13:04:07.000Z</time>
      </trkpt>
      <trkpt lat="43.3747" lon="6.65388">
        <ele>184.60000610352</ele>
        <time>2018-02-03T13:04:19.000Z</time>
      </trkpt>
      <trkpt lat="43.37469" lon="6.65386">
        <ele>184.60000610352</ele>
        <time>2018-02-03T13:04:33.000Z</time>
      </trkpt>
      <trkpt lat="43.37469" lon="6.65386">
        <ele>184.39999389648</ele>
        <time>2018-02-03T13:04:39.000Z</time>
      </trkpt>
      <trkpt lat="43.37469" lon="6.65386">
        <ele>184.19999694824</ele>
        <time>2018-02-03T13:04:50.000Z</time>
      </trkpt>
      <trkpt lat="43.37469" lon="6.65386">
        <ele>184.19999694824</ele>
        <time>2018-02-03T13:04:59.000Z</time>
      </trkpt>
      <trkpt lat="43.3747" lon="6.65387">
        <ele>184.19999694824</ele>
        <time>2018-02-03T13:05:08.000Z</time>
      </trkpt>
      <trkpt lat="43.3747" lon="6.65386">
        <ele>184.60000610352</ele>
        <time>2018-02-03T13:05:18.000Z</time>
      </trkpt>
      <trkpt lat="43.37469" lon="6.65385">
        <ele>184.80000305176</ele>
        <time>2018-02-03T13:05:26.000Z</time>
      </trkpt>
      <trkpt lat="43.37468" lon="6.65385">
        <ele>184.19999694824</ele>
        <time>2018-02-03T13:05:31.000Z</time>
      </trkpt>
      <trkpt lat="43.37468" lon="6.65385">
        <ele>184.60000610352</ele>
        <time>2018-02-03T13:05:44.000Z</time>
      </trkpt>
      <trkpt lat="43.3747" lon="6.65385">
        <ele>184</ele>
        <time>2018-02-03T13:05:49.000Z</time>
      </trkpt>
      <trkpt lat="43.37472" lon="6.65385">
        <ele>184</ele>
        <time>2018-02-03T13:05:50.000Z</time>
      </trkpt>
      <trkpt lat="43.37481" lon="6.65377">
        <ele>184</ele>
        <time>2018-02-03T13:05:54.000Z</time>
      </trkpt>
      <trkpt lat="43.37483" lon="6.65374">
        <ele>183.80000305176</ele>
        <time>2018-02-03T13:05:55.000Z</time>
      </trkpt>
      <trkpt lat="43.37484" lon="6.65372">
        <ele>183.39999389648</ele>
        <time>2018-02-03T13:05:56.000Z</time>
      </trkpt>
      <trkpt lat="43.37485" lon="6.65369">
        <ele>183</ele>
        <time>2018-02-03T13:05:57.000Z</time>
      </trkpt>
      <trkpt lat="43.37485" lon="6.65367">
        <ele>182.60000610352</ele>
        <time>2018-02-03T13:05:58.000Z</time>
      </trkpt>
      <trkpt lat="43.37484" lon="6.65364">
        <ele>182.19999694824</ele>
        <time>2018-02-03T13:05:59.000Z</time>
      </trkpt>
      <trkpt lat="43.37486" lon="6.65357">
        <ele>181.19999694824</ele>
        <time>2018-02-03T13:06:02.000Z</time>
      </trkpt>
      <trkpt lat="43.37488" lon="6.65352">
        <ele>180.60000610352</ele>
        <time>2018-02-03T13:06:04.000Z</time>
      </trkpt>
      <trkpt lat="43.37489" lon="6.65349">
        <ele>180.19999694824</ele>
        <time>2018-02-03T13:06:05.000Z</time>
      </trkpt>
      <trkpt lat="43.37492" lon="6.65343">
        <ele>178.60000610352</ele>
        <time>2018-02-03T13:06:07.000Z</time>
      </trkpt>
      <trkpt lat="43.37495" lon="6.65336">
        <ele>176.80000305176</ele>
        <time>2018-02-03T13:06:09.000Z</time>
      </trkpt>
      <trkpt lat="43.37498" lon="6.6533">
        <ele>175.60000610352</ele>
        <time>2018-02-03T13:06:11.000Z</time>
      </trkpt>
      <trkpt lat="43.375" lon="6.65323">
        <ele>174.39999389648</ele>
        <time>2018-02-03T13:06:13.000Z</time>
      </trkpt>
      <trkpt lat="43.37501" lon="6.65316">
        <ele>173.19999694824</ele>
        <time>2018-02-03T13:06:15.000Z</time>
      </trkpt>
      <trkpt lat="43.37502" lon="6.65309">
        <ele>171.60000610352</ele>
        <time>2018-02-03T13:06:17.000Z</time>
      </trkpt>
      <trkpt lat="43.37503" lon="6.65306">
        <ele>169.80000305176</ele>
        <time>2018-02-03T13:06:19.000Z</time>
      </trkpt>
      <trkpt lat="43.37504" lon="6.65305">
        <ele>169</ele>
        <time>2018-02-03T13:06:20.000Z</time>
      </trkpt>
      <trkpt lat="43.37505" lon="6.65303">
        <ele>168.39999389648</ele>
        <time>2018-02-03T13:06:21.000Z</time>
      </trkpt>
      <trkpt lat="43.37513" lon="6.65295">
        <ele>166.60000610352</ele>
        <time>2018-02-03T13:06:24.000Z</time>
      </trkpt>
      <trkpt lat="43.37517" lon="6.65288">
        <ele>165.39999389648</ele>
        <time>2018-02-03T13:06:26.000Z</time>
      </trkpt>
      <trkpt lat="43.3752" lon="6.65281">
        <ele>164</ele>
        <time>2018-02-03T13:06:28.000Z</time>
      </trkpt>
      <trkpt lat="43.3752" lon="6.65279">
        <ele>163.80000305176</ele>
        <time>2018-02-03T13:06:29.000Z</time>
      </trkpt>
      <trkpt lat="43.37522" lon="6.65273">
        <ele>163</ele>
        <time>2018-02-03T13:06:32.000Z</time>
      </trkpt>
      <trkpt lat="43.37522" lon="6.65272">
        <ele>162.80000305176</ele>
        <time>2018-02-03T13:06:34.000Z</time>
      </trkpt>
      <trkpt lat="43.37526" lon="6.65269">
        <ele>162</ele>
        <time>2018-02-03T13:06:38.000Z</time>
      </trkpt>
      <trkpt lat="43.37528" lon="6.65268">
        <ele>161.80000305176</ele>
        <time>2018-02-03T13:06:39.000Z</time>
      </trkpt>
      <trkpt lat="43.37534" lon="6.65263">
        <ele>161.60000610352</ele>
        <time>2018-02-03T13:06:42.000Z</time>
      </trkpt>
      <trkpt lat="43.37535" lon="6.65259">
        <ele>161.39999389648</ele>
        <time>2018-02-03T13:06:43.000Z</time>
      </trkpt>
      <trkpt lat="43.37537" lon="6.65253">
        <ele>160.80000305176</ele>
        <time>2018-02-03T13:06:45.000Z</time>
      </trkpt>
      <trkpt lat="43.37537" lon="6.65249">
        <ele>160.19999694824</ele>
        <time>2018-02-03T13:06:46.000Z</time>
      </trkpt>
      <trkpt lat="43.37537" lon="6.65243">
        <ele>159.39999389648</ele>
        <time>2018-02-03T13:06:48.000Z</time>
      </trkpt>
      <trkpt lat="43.37538" lon="6.65241">
        <ele>159</ele>
        <time>2018-02-03T13:06:49.000Z</time>
      </trkpt>
      <trkpt lat="43.37541" lon="6.65238">
        <ele>158</ele>
        <time>2018-02-03T13:06:51.000Z</time>
      </trkpt>
      <trkpt lat="43.37543" lon="6.65237">
        <ele>157.60000610352</ele>
        <time>2018-02-03T13:06:52.000Z</time>
      </trkpt>
      <trkpt lat="43.37545" lon="6.65235">
        <ele>157.19999694824</ele>
        <time>2018-02-03T13:06:53.000Z</time>
      </trkpt>
      <trkpt lat="43.37547" lon="6.65234">
        <ele>157</ele>
        <time>2018-02-03T13:06:54.000Z</time>
      </trkpt>
      <trkpt lat="43.37556" lon="6.65222">
        <ele>156.39999389648</ele>
        <time>2018-02-03T13:06:59.000Z</time>
      </trkpt>
      <trkpt lat="43.37563" lon="6.65211">
        <ele>157.19999694824</ele>
        <time>2018-02-03T13:07:05.000Z</time>
      </trkpt>
      <trkpt lat="43.37567" lon="6.65204">
        <ele>158</ele>
        <time>2018-02-03T13:07:09.000Z</time>
      </trkpt>
      <trkpt lat="43.37571" lon="6.65198">
        <ele>159.19999694824</ele>
        <time>2018-02-03T13:07:13.000Z</time>
      </trkpt>
      <trkpt lat="43.37576" lon="6.65189">
        <ele>160.39999389648</ele>
        <time>2018-02-03T13:07:18.000Z</time>
      </trkpt>
      <trkpt lat="43.37578" lon="6.65184">
        <ele>161</ele>
        <time>2018-02-03T13:07:21.000Z</time>
      </trkpt>
      <trkpt lat="43.3758" lon="6.65181">
        <ele>161.39999389648</ele>
        <time>2018-02-03T13:07:23.000Z</time>
      </trkpt>
      <trkpt lat="43.37586" lon="6.6517">
        <ele>162.39999389648</ele>
        <time>2018-02-03T13:07:28.000Z</time>
      </trkpt>
      <trkpt lat="43.37587" lon="6.65167">
        <ele>163.19999694824</ele>
        <time>2018-02-03T13:07:30.000Z</time>
      </trkpt>
      <trkpt lat="43.37588" lon="6.65166">
        <ele>163.60000610352</ele>
        <time>2018-02-03T13:07:31.000Z</time>
      </trkpt>
      <trkpt lat="43.37594" lon="6.65155">
        <ele>164.80000305176</ele>
        <time>2018-02-03T13:07:37.000Z</time>
      </trkpt>
      <trkpt lat="43.37595" lon="6.65154">
        <ele>165</ele>
        <time>2018-02-03T13:07:38.000Z</time>
      </trkpt>
      <trkpt lat="43.37597" lon="6.65149">
        <ele>165.80000305176</ele>
        <time>2018-02-03T13:07:41.000Z</time>
      </trkpt>
      <trkpt lat="43.376" lon="6.65142">
        <ele>166.39999389648</ele>
        <time>2018-02-03T13:07:45.000Z</time>
      </trkpt>
      <trkpt lat="43.37603" lon="6.65137">
        <ele>166.80000305176</ele>
        <time>2018-02-03T13:07:48.000Z</time>
      </trkpt>
      <trkpt lat="43.37608" lon="6.65129">
        <ele>167.39999389648</ele>
        <time>2018-02-03T13:07:53.000Z</time>
      </trkpt>
      <trkpt lat="43.37611" lon="6.65126">
        <ele>168</ele>
        <time>2018-02-03T13:07:55.000Z</time>
      </trkpt>
      <trkpt lat="43.37621" lon="6.65117">
        <ele>168.60000610352</ele>
        <time>2018-02-03T13:08:01.000Z</time>
      </trkpt>
      <trkpt lat="43.37634" lon="6.65113">
        <ele>169</ele>
        <time>2018-02-03T13:08:08.000Z</time>
      </trkpt>
      <trkpt lat="43.37636" lon="6.65113">
        <ele>169.19999694824</ele>
        <time>2018-02-03T13:08:09.000Z</time>
      </trkpt>
      <trkpt lat="43.37644" lon="6.65112">
        <ele>170.19999694824</ele>
        <time>2018-02-03T13:08:14.000Z</time>
      </trkpt>
      <trkpt lat="43.37646" lon="6.65112">
        <ele>170.80000305176</ele>
        <time>2018-02-03T13:08:16.000Z</time>
      </trkpt>
      <trkpt lat="43.3765" lon="6.65112">
        <ele>171.19999694824</ele>
        <time>2018-02-03T13:08:19.000Z</time>
      </trkpt>
      <trkpt lat="43.37656" lon="6.65113">
        <ele>172.39999389648</ele>
        <time>2018-02-03T13:08:24.000Z</time>
      </trkpt>
      <trkpt lat="43.37663" lon="6.65113">
        <ele>173.60000610352</ele>
        <time>2018-02-03T13:08:29.000Z</time>
      </trkpt>
      <trkpt lat="43.37666" lon="6.65114">
        <ele>173.80000305176</ele>
        <time>2018-02-03T13:08:31.000Z</time>
      </trkpt>
      <trkpt lat="43.37674" lon="6.65115">
        <ele>174.80000305176</ele>
        <time>2018-02-03T13:08:37.000Z</time>
      </trkpt>
      <trkpt lat="43.37675" lon="6.65115">
        <ele>175</ele>
        <time>2018-02-03T13:08:38.000Z</time>
      </trkpt>
      <trkpt lat="43.37679" lon="6.65116">
        <ele>175.80000305176</ele>
        <time>2018-02-03T13:08:41.000Z</time>
      </trkpt>
      <trkpt lat="43.37684" lon="6.65117">
        <ele>177</ele>
        <time>2018-02-03T13:08:46.000Z</time>
      </trkpt>
      <trkpt lat="43.37689" lon="6.65117">
        <ele>178</ele>
        <time>2018-02-03T13:08:50.000Z</time>
      </trkpt>
      <trkpt lat="43.37692" lon="6.65117">
        <ele>178.80000305176</ele>
        <time>2018-02-03T13:08:53.000Z</time>
      </trkpt>
      <trkpt lat="43.37694" lon="6.65117">
        <ele>179.19999694824</ele>
        <time>2018-02-03T13:08:55.000Z</time>
      </trkpt>
      <trkpt lat="43.37699" lon="6.65116">
        <ele>180.19999694824</ele>
        <time>2018-02-03T13:08:59.000Z</time>
      </trkpt>
      <trkpt lat="43.377" lon="6.65116">
        <ele>180.39999389648</ele>
        <time>2018-02-03T13:09:00.000Z</time>
      </trkpt>
      <trkpt lat="43.37703" lon="6.65115">
        <ele>181.19999694824</ele>
        <time>2018-02-03T13:09:03.000Z</time>
      </trkpt>
      <trkpt lat="43.37708" lon="6.65114">
        <ele>182.19999694824</ele>
        <time>2018-02-03T13:09:07.000Z</time>
      </trkpt>
      <trkpt lat="43.37709" lon="6.65113">
        <ele>182.39999389648</ele>
        <time>2018-02-03T13:09:08.000Z</time>
      </trkpt>
      <trkpt lat="43.37715" lon="6.65111">
        <ele>183.39999389648</ele>
        <time>2018-02-03T13:09:14.000Z</time>
      </trkpt>
      <trkpt lat="43.37723" lon="6.65111">
        <ele>184.60000610352</ele>
        <time>2018-02-03T13:09:20.000Z</time>
      </trkpt>
      <trkpt lat="43.3773" lon="6.65111">
        <ele>185.80000305176</ele>
        <time>2018-02-03T13:09:25.000Z</time>
      </trkpt>
      <trkpt lat="43.37731" lon="6.65111">
        <ele>186</ele>
        <time>2018-02-03T13:09:26.000Z</time>
      </trkpt>
      <trkpt lat="43.37736" lon="6.6511">
        <ele>186.80000305176</ele>
        <time>2018-02-03T13:09:30.000Z</time>
      </trkpt>
      <trkpt lat="43.37741" lon="6.65108">
        <ele>187.80000305176</ele>
        <time>2018-02-03T13:09:34.000Z</time>
      </trkpt>
      <trkpt lat="43.37743" lon="6.65107">
        <ele>188</ele>
        <time>2018-02-03T13:09:35.000Z</time>
      </trkpt>
      <trkpt lat="43.3775" lon="6.65104">
        <ele>189.19999694824</ele>
        <time>2018-02-03T13:09:40.000Z</time>
      </trkpt>
      <trkpt lat="43.37753" lon="6.65102">
        <ele>189.39999389648</ele>
        <time>2018-02-03T13:09:42.000Z</time>
      </trkpt>
      <trkpt lat="43.37762" lon="6.65098">
        <ele>190.19999694824</ele>
        <time>2018-02-03T13:09:48.000Z</time>
      </trkpt>
      <trkpt lat="43.37767" lon="6.65096">
        <ele>190.60000610352</ele>
        <time>2018-02-03T13:09:51.000Z</time>
      </trkpt>
      <trkpt lat="43.37774" lon="6.65093">
        <ele>191.19999694824</ele>
        <time>2018-02-03T13:09:55.000Z</time>
      </trkpt>
      <trkpt lat="43.37779" lon="6.6509">
        <ele>192.19999694824</ele>
        <time>2018-02-03T13:09:59.000Z</time>
      </trkpt>
      <trkpt lat="43.37781" lon="6.65089">
        <ele>192.39999389648</ele>
        <time>2018-02-03T13:10:00.000Z</time>
      </trkpt>
      <trkpt lat="43.37791" lon="6.65085">
        <ele>193.39999389648</ele>
        <time>2018-02-03T13:10:06.000Z</time>
      </trkpt>
      <trkpt lat="43.37811" lon="6.65084">
        <ele>192.80000305176</ele>
        <time>2018-02-03T13:10:13.000Z</time>
      </trkpt>
      <trkpt lat="43.37822" lon="6.65087">
        <ele>192</ele>
        <time>2018-02-03T13:10:15.000Z</time>
      </trkpt>
      <trkpt lat="43.37827" lon="6.6509">
        <ele>191</ele>
        <time>2018-02-03T13:10:16.000Z</time>
      </trkpt>
      <trkpt lat="43.37833" lon="6.65094">
        <ele>190</ele>
        <time>2018-02-03T13:10:17.000Z</time>
      </trkpt>
      <trkpt lat="43.37839" lon="6.65098">
        <ele>188.80000305176</ele>
        <time>2018-02-03T13:10:18.000Z</time>
      </trkpt>
      <trkpt lat="43.37844" lon="6.65103">
        <ele>187.39999389648</ele>
        <time>2018-02-03T13:10:19.000Z</time>
      </trkpt>
      <trkpt lat="43.37849" lon="6.65109">
        <ele>186</ele>
        <time>2018-02-03T13:10:20.000Z</time>
      </trkpt>
      <trkpt lat="43.37853" lon="6.65115">
        <ele>184.80000305176</ele>
        <time>2018-02-03T13:10:21.000Z</time>
      </trkpt>
      <trkpt lat="43.37857" lon="6.6512">
        <ele>183.80000305176</ele>
        <time>2018-02-03T13:10:22.000Z</time>
      </trkpt>
      <trkpt lat="43.37862" lon="6.65129">
        <ele>182.19999694824</ele>
        <time>2018-02-03T13:10:24.000Z</time>
      </trkpt>
      <trkpt lat="43.37865" lon="6.65134">
        <ele>181.60000610352</ele>
        <time>2018-02-03T13:10:25.000Z</time>
      </trkpt>
      <trkpt lat="43.37868" lon="6.65139">
        <ele>180.80000305176</ele>
        <time>2018-02-03T13:10:26.000Z</time>
      </trkpt>
      <trkpt lat="43.37869" lon="6.65144">
        <ele>179.80000305176</ele>
        <time>2018-02-03T13:10:27.000Z</time>
      </trkpt>
      <trkpt lat="43.37871" lon="6.65149">
        <ele>178.80000305176</ele>
        <time>2018-02-03T13:10:28.000Z</time>
      </trkpt>
      <trkpt lat="43.37873" lon="6.65153">
        <ele>177.60000610352</ele>
        <time>2018-02-03T13:10:29.000Z</time>
      </trkpt>
      <trkpt lat="43.37875" lon="6.65158">
        <ele>176.60000610352</ele>
        <time>2018-02-03T13:10:30.000Z</time>
      </trkpt>
      <trkpt lat="43.37875" lon="6.65161">
        <ele>175.60000610352</ele>
        <time>2018-02-03T13:10:31.000Z</time>
      </trkpt>
      <trkpt lat="43.37876" lon="6.65163">
        <ele>175</ele>
        <time>2018-02-03T13:10:32.000Z</time>
      </trkpt>
      <trkpt lat="43.37877" lon="6.65165">
        <ele>174.39999389648</ele>
        <time>2018-02-03T13:10:33.000Z</time>
      </trkpt>
      <trkpt lat="43.37878" lon="6.65166">
        <ele>174</ele>
        <time>2018-02-03T13:10:34.000Z</time>
      </trkpt>
      <trkpt lat="43.37878" lon="6.65166">
        <ele>173.19999694824</ele>
        <time>2018-02-03T13:10:37.000Z</time>
      </trkpt>
      <trkpt lat="43.37879" lon="6.65166">
        <ele>173</ele>
        <time>2018-02-03T13:10:41.000Z</time>
      </trkpt>
      <trkpt lat="43.3788" lon="6.65166">
        <ele>173</ele>
        <time>2018-02-03T13:10:44.000Z</time>
      </trkpt>
      <trkpt lat="43.37885" lon="6.65166">
        <ele>172.80000305176</ele>
        <time>2018-02-03T13:10:47.000Z</time>
      </trkpt>
      <trkpt lat="43.37897" lon="6.65172">
        <ele>172.60000610352</ele>
        <time>2018-02-03T13:10:51.000Z</time>
      </trkpt>
      <trkpt lat="43.37901" lon="6.65174">
        <ele>172.19999694824</ele>
        <time>2018-02-03T13:10:52.000Z</time>
      </trkpt>
      <trkpt lat="43.37913" lon="6.65184">
        <ele>170.80000305176</ele>
        <time>2018-02-03T13:10:55.000Z</time>
      </trkpt>
      <trkpt lat="43.37918" lon="6.65188">
        <ele>170.39999389648</ele>
        <time>2018-02-03T13:10:56.000Z</time>
      </trkpt>
      <trkpt lat="43.37925" lon="6.65193">
        <ele>169.80000305176</ele>
        <time>2018-02-03T13:10:57.000Z</time>
      </trkpt>
      <trkpt lat="43.37934" lon="6.65202">
        <ele>168</ele>
        <time>2018-02-03T13:10:59.000Z</time>
      </trkpt>
      <trkpt lat="43.37939" lon="6.65206">
        <ele>167.19999694824</ele>
        <time>2018-02-03T13:11:00.000Z</time>
      </trkpt>
      <trkpt lat="43.37944" lon="6.65209">
        <ele>166</ele>
        <time>2018-02-03T13:11:01.000Z</time>
      </trkpt>
      <trkpt lat="43.3795" lon="6.65211">
        <ele>164.80000305176</ele>
        <time>2018-02-03T13:11:02.000Z</time>
      </trkpt>
      <trkpt lat="43.37956" lon="6.6521">
        <ele>163.60000610352</ele>
        <time>2018-02-03T13:11:03.000Z</time>
      </trkpt>
      <trkpt lat="43.37962" lon="6.65209">
        <ele>162.19999694824</ele>
        <time>2018-02-03T13:11:04.000Z</time>
      </trkpt>
      <trkpt lat="43.37974" lon="6.65204">
        <ele>160.39999389648</ele>
        <time>2018-02-03T13:11:06.000Z</time>
      </trkpt>
      <trkpt lat="43.3798" lon="6.652">
        <ele>159</ele>
        <time>2018-02-03T13:11:07.000Z</time>
      </trkpt>
      <trkpt lat="43.37985" lon="6.65196">
        <ele>158</ele>
        <time>2018-02-03T13:11:08.000Z</time>
      </trkpt>
      <trkpt lat="43.3799" lon="6.65192">
        <ele>156.39999389648</ele>
        <time>2018-02-03T13:11:09.000Z</time>
      </trkpt>
      <trkpt lat="43.37996" lon="6.65188">
        <ele>155.19999694824</ele>
        <time>2018-02-03T13:11:10.000Z</time>
      </trkpt>
      <trkpt lat="43.38001" lon="6.65185">
        <ele>153.80000305176</ele>
        <time>2018-02-03T13:11:11.000Z</time>
      </trkpt>
      <trkpt lat="43.38005" lon="6.65181">
        <ele>153</ele>
        <time>2018-02-03T13:11:12.000Z</time>
      </trkpt>
      <trkpt lat="43.3801" lon="6.65176">
        <ele>152</ele>
        <time>2018-02-03T13:11:13.000Z</time>
      </trkpt>
      <trkpt lat="43.3802" lon="6.65165">
        <ele>150.19999694824</ele>
        <time>2018-02-03T13:11:15.000Z</time>
      </trkpt>
      <trkpt lat="43.38026" lon="6.65162">
        <ele>149.19999694824</ele>
        <time>2018-02-03T13:11:16.000Z</time>
      </trkpt>
      <trkpt lat="43.38032" lon="6.6516">
        <ele>147.80000305176</ele>
        <time>2018-02-03T13:11:17.000Z</time>
      </trkpt>
      <trkpt lat="43.3804" lon="6.65158">
        <ele>146.80000305176</ele>
        <time>2018-02-03T13:11:18.000Z</time>
      </trkpt>
      <trkpt lat="43.38046" lon="6.65157">
        <ele>145.60000610352</ele>
        <time>2018-02-03T13:11:19.000Z</time>
      </trkpt>
      <trkpt lat="43.38052" lon="6.65155">
        <ele>144.60000610352</ele>
        <time>2018-02-03T13:11:20.000Z</time>
      </trkpt>
      <trkpt lat="43.38067" lon="6.65149">
        <ele>142.60000610352</ele>
        <time>2018-02-03T13:11:22.000Z</time>
      </trkpt>
      <trkpt lat="43.38084" lon="6.65144">
        <ele>140.80000305176</ele>
        <time>2018-02-03T13:11:24.000Z</time>
      </trkpt>
      <trkpt lat="43.38093" lon="6.6514">
        <ele>139.60000610352</ele>
        <time>2018-02-03T13:11:25.000Z</time>
      </trkpt>
      <trkpt lat="43.381" lon="6.65135">
        <ele>137.80000305176</ele>
        <time>2018-02-03T13:11:26.000Z</time>
      </trkpt>
      <trkpt lat="43.38105" lon="6.6513">
        <ele>135.60000610352</ele>
        <time>2018-02-03T13:11:27.000Z</time>
      </trkpt>
      <trkpt lat="43.38109" lon="6.65126">
        <ele>134.19999694824</ele>
        <time>2018-02-03T13:11:28.000Z</time>
      </trkpt>
      <trkpt lat="43.38117" lon="6.65119">
        <ele>133</ele>
        <time>2018-02-03T13:11:30.000Z</time>
      </trkpt>
      <trkpt lat="43.38122" lon="6.65114">
        <ele>134</ele>
        <time>2018-02-03T13:11:32.000Z</time>
      </trkpt>
      <trkpt lat="43.38124" lon="6.65112">
        <ele>134.39999389648</ele>
        <time>2018-02-03T13:11:33.000Z</time>
      </trkpt>
      <trkpt lat="43.38131" lon="6.65107">
        <ele>135.19999694824</ele>
        <time>2018-02-03T13:11:36.000Z</time>
      </trkpt>
      <trkpt lat="43.38133" lon="6.65105">
        <ele>135.39999389648</ele>
        <time>2018-02-03T13:11:37.000Z</time>
      </trkpt>
      <trkpt lat="43.38142" lon="6.65098">
        <ele>136.80000305176</ele>
        <time>2018-02-03T13:11:41.000Z</time>
      </trkpt>
      <trkpt lat="43.38149" lon="6.65093">
        <ele>137.60000610352</ele>
        <time>2018-02-03T13:11:44.000Z</time>
      </trkpt>
      <trkpt lat="43.38151" lon="6.65091">
        <ele>138.19999694824</ele>
        <time>2018-02-03T13:11:45.000Z</time>
      </trkpt>
      <trkpt lat="43.38157" lon="6.65087">
        <ele>139.19999694824</ele>
        <time>2018-02-03T13:11:48.000Z</time>
      </trkpt>
      <trkpt lat="43.38163" lon="6.65082">
        <ele>140.60000610352</ele>
        <time>2018-02-03T13:11:52.000Z</time>
      </trkpt>
      <trkpt lat="43.38167" lon="6.65076">
        <ele>141.80000305176</ele>
        <time>2018-02-03T13:11:56.000Z</time>
      </trkpt>
      <trkpt lat="43.38169" lon="6.65069">
        <ele>142</ele>
        <time>2018-02-03T13:12:00.000Z</time>
      </trkpt>
      <trkpt lat="43.38174" lon="6.65052">
        <ele>141.80000305176</ele>
        <time>2018-02-03T13:12:04.000Z</time>
      </trkpt>
      <trkpt lat="43.38178" lon="6.65037">
        <ele>140.39999389648</ele>
        <time>2018-02-03T13:12:06.000Z</time>
      </trkpt>
      <trkpt lat="43.38179" lon="6.6503">
        <ele>139.19999694824</ele>
        <time>2018-02-03T13:12:07.000Z</time>
      </trkpt>
      <trkpt lat="43.38181" lon="6.65018">
        <ele>137.19999694824</ele>
        <time>2018-02-03T13:12:09.000Z</time>
      </trkpt>
      <trkpt lat="43.38182" lon="6.65006">
        <ele>135.39999389648</ele>
        <time>2018-02-03T13:12:11.000Z</time>
      </trkpt>
      <trkpt lat="43.38182" lon="6.64997">
        <ele>133.60000610352</ele>
        <time>2018-02-03T13:12:13.000Z</time>
      </trkpt>
      <trkpt lat="43.38182" lon="6.64994">
        <ele>132.60000610352</ele>
        <time>2018-02-03T13:12:14.000Z</time>
      </trkpt>
      <trkpt lat="43.38182" lon="6.64991">
        <ele>131.19999694824</ele>
        <time>2018-02-03T13:12:16.000Z</time>
      </trkpt>
      <trkpt lat="43.38182" lon="6.64991">
        <ele>130.80000305176</ele>
        <time>2018-02-03T13:12:18.000Z</time>
      </trkpt>
      <trkpt lat="43.38182" lon="6.6499">
        <ele>131.19999694824</ele>
        <time>2018-02-03T13:12:32.000Z</time>
      </trkpt>
      <trkpt lat="43.38182" lon="6.6499">
        <ele>131.80000305176</ele>
        <time>2018-02-03T13:12:47.000Z</time>
      </trkpt>
      <trkpt lat="43.38183" lon="6.64991">
        <ele>132.19999694824</ele>
        <time>2018-02-03T13:12:58.000Z</time>
      </trkpt>
      <trkpt lat="43.38183" lon="6.64991">
        <ele>132.39999389648</ele>
        <time>2018-02-03T13:12:59.000Z</time>
      </trkpt>
      <trkpt lat="43.38182" lon="6.64991">
        <ele>132.39999389648</ele>
        <time>2018-02-03T13:13:09.000Z</time>
      </trkpt>
      <trkpt lat="43.38183" lon="6.64993">
        <ele>132.39999389648</ele>
        <time>2018-02-03T13:13:14.000Z</time>
      </trkpt>
      <trkpt lat="43.38184" lon="6.64998">
        <ele>133.39999389648</ele>
        <time>2018-02-03T13:13:22.000Z</time>
      </trkpt>
      <trkpt lat="43.38184" lon="6.65005">
        <ele>133.80000305176</ele>
        <time>2018-02-03T13:13:31.000Z</time>
      </trkpt>
      <trkpt lat="43.38184" lon="6.65005">
        <ele>134.39999389648</ele>
        <time>2018-02-03T13:13:34.000Z</time>
      </trkpt>
      <trkpt lat="43.38184" lon="6.65007">
        <ele>134.39999389648</ele>
        <time>2018-02-03T13:13:36.000Z</time>
      </trkpt>
      <trkpt lat="43.38184" lon="6.65008">
        <ele>134.39999389648</ele>
        <time>2018-02-03T13:13:37.000Z</time>
      </trkpt>
      <trkpt lat="43.38184" lon="6.65016">
        <ele>135.39999389648</ele>
        <time>2018-02-03T13:13:45.000Z</time>
      </trkpt>
      <trkpt lat="43.38184" lon="6.65017">
        <ele>135.60000610352</ele>
        <time>2018-02-03T13:13:46.000Z</time>
      </trkpt>
      <trkpt lat="43.38182" lon="6.65024">
        <ele>136.60000610352</ele>
        <time>2018-02-03T13:13:52.000Z</time>
      </trkpt>
      <trkpt lat="43.38182" lon="6.65027">
        <ele>137</ele>
        <time>2018-02-03T13:13:55.000Z</time>
      </trkpt>
      <trkpt lat="43.38181" lon="6.65031">
        <ele>137.80000305176</ele>
        <time>2018-02-03T13:14:00.000Z</time>
      </trkpt>
      <trkpt lat="43.38181" lon="6.65032">
        <ele>138.19999694824</ele>
        <time>2018-02-03T13:14:02.000Z</time>
      </trkpt>
      <trkpt lat="43.38181" lon="6.65033">
        <ele>138</ele>
        <time>2018-02-03T13:14:06.000Z</time>
      </trkpt>
      <trkpt lat="43.3818" lon="6.65036">
        <ele>138</ele>
        <time>2018-02-03T13:14:08.000Z</time>
      </trkpt>
      <trkpt lat="43.38178" lon="6.65043">
        <ele>138.80000305176</ele>
        <time>2018-02-03T13:14:12.000Z</time>
      </trkpt>
      <trkpt lat="43.38177" lon="6.65047">
        <ele>139.39999389648</ele>
        <time>2018-02-03T13:14:14.000Z</time>
      </trkpt>
      <trkpt lat="43.38176" lon="6.65049">
        <ele>139.60000610352</ele>
        <time>2018-02-03T13:14:15.000Z</time>
      </trkpt>
      <trkpt lat="43.38175" lon="6.65051">
        <ele>139.80000305176</ele>
        <time>2018-02-03T13:14:16.000Z</time>
      </trkpt>
      <trkpt lat="43.38172" lon="6.65064">
        <ele>140.80000305176</ele>
        <time>2018-02-03T13:14:21.000Z</time>
      </trkpt>
      <trkpt lat="43.38172" lon="6.65065">
        <ele>141</ele>
        <time>2018-02-03T13:14:22.000Z</time>
      </trkpt>
      <trkpt lat="43.38172" lon="6.6507">
        <ele>142</ele>
        <time>2018-02-03T13:14:25.000Z</time>
      </trkpt>
      <trkpt lat="43.38171" lon="6.65074">
        <ele>143.19999694824</ele>
        <time>2018-02-03T13:14:28.000Z</time>
      </trkpt>
      <trkpt lat="43.38171" lon="6.65074">
        <ele>143.39999389648</ele>
        <time>2018-02-03T13:14:30.000Z</time>
      </trkpt>
      <trkpt lat="43.38171" lon="6.65077">
        <ele>143.60000610352</ele>
        <time>2018-02-03T13:14:40.000Z</time>
      </trkpt>
      <trkpt lat="43.3817" lon="6.65078">
        <ele>143.80000305176</ele>
        <time>2018-02-03T13:14:44.000Z</time>
      </trkpt>
      <trkpt lat="43.38166" lon="6.65081">
        <ele>143.80000305176</ele>
        <time>2018-02-03T13:14:47.000Z</time>
      </trkpt>
      <trkpt lat="43.38164" lon="6.65083">
        <ele>143.80000305176</ele>
        <time>2018-02-03T13:14:48.000Z</time>
      </trkpt>
      <trkpt lat="43.38153" lon="6.65092">
        <ele>143.39999389648</ele>
        <time>2018-02-03T13:14:51.000Z</time>
      </trkpt>
      <trkpt lat="43.38137" lon="6.65104">
        <ele>142</ele>
        <time>2018-02-03T13:14:54.000Z</time>
      </trkpt>
      <trkpt lat="43.38133" lon="6.65109">
        <ele>142.39999389648</ele>
        <time>2018-02-03T13:14:55.000Z</time>
      </trkpt>
      <trkpt lat="43.38129" lon="6.65112">
        <ele>142.19999694824</ele>
        <time>2018-02-03T13:14:56.000Z</time>
      </trkpt>
      <trkpt lat="43.38123" lon="6.65116">
        <ele>140.60000610352</ele>
        <time>2018-02-03T13:14:58.000Z</time>
      </trkpt>
      <trkpt lat="43.3812" lon="6.65119">
        <ele>140.39999389648</ele>
        <time>2018-02-03T13:14:59.000Z</time>
      </trkpt>
      <trkpt lat="43.38113" lon="6.65125">
        <ele>139.39999389648</ele>
        <time>2018-02-03T13:15:01.000Z</time>
      </trkpt>
      <trkpt lat="43.38101" lon="6.65136">
        <ele>138.80000305176</ele>
        <time>2018-02-03T13:15:06.000Z</time>
      </trkpt>
      <trkpt lat="43.38082" lon="6.65144">
        <ele>139.39999389648</ele>
        <time>2018-02-03T13:15:13.000Z</time>
      </trkpt>
      <trkpt lat="43.38069" lon="6.65147">
        <ele>140.60000610352</ele>
        <time>2018-02-03T13:15:18.000Z</time>
      </trkpt>
      <trkpt lat="43.38065" lon="6.65148">
        <ele>141.60000610352</ele>
        <time>2018-02-03T13:15:20.000Z</time>
      </trkpt>
      <trkpt lat="43.38063" lon="6.65149">
        <ele>142</ele>
        <time>2018-02-03T13:15:21.000Z</time>
      </trkpt>
      <trkpt lat="43.3806" lon="6.6515">
        <ele>142.80000305176</ele>
        <time>2018-02-03T13:15:23.000Z</time>
      </trkpt>
      <trkpt lat="43.38055" lon="6.65152">
        <ele>143.80000305176</ele>
        <time>2018-02-03T13:15:26.000Z</time>
      </trkpt>
      <trkpt lat="43.38051" lon="6.65154">
        <ele>144.60000610352</ele>
        <time>2018-02-03T13:15:29.000Z</time>
      </trkpt>
      <trkpt lat="43.38046" lon="6.65155">
        <ele>145</ele>
        <time>2018-02-03T13:15:31.000Z</time>
      </trkpt>
      <trkpt lat="43.38037" lon="6.65157">
        <ele>146</ele>
        <time>2018-02-03T13:15:36.000Z</time>
      </trkpt>
      <trkpt lat="43.38035" lon="6.65158">
        <ele>146.19999694824</ele>
        <time>2018-02-03T13:15:37.000Z</time>
      </trkpt>
      <trkpt lat="43.38022" lon="6.65164">
        <ele>147.39999389648</ele>
        <time>2018-02-03T13:15:45.000Z</time>
      </trkpt>
      <trkpt lat="43.38014" lon="6.65173">
        <ele>148.60000610352</ele>
        <time>2018-02-03T13:15:52.000Z</time>
      </trkpt>
      <trkpt lat="43.38013" lon="6.65174">
        <ele>148.80000305176</ele>
        <time>2018-02-03T13:15:53.000Z</time>
      </trkpt>
      <trkpt lat="43.3801" lon="6.65177">
        <ele>150</ele>
        <time>2018-02-03T13:15:56.000Z</time>
      </trkpt>
      <trkpt lat="43.38005" lon="6.65182">
        <ele>151</ele>
        <time>2018-02-03T13:16:00.000Z</time>
      </trkpt>
      <trkpt lat="43.38002" lon="6.65185">
        <ele>151.60000610352</ele>
        <time>2018-02-03T13:16:03.000Z</time>
      </trkpt>
      <trkpt lat="43.37996" lon="6.65188">
        <ele>152.19999694824</ele>
        <time>2018-02-03T13:16:08.000Z</time>
      </trkpt>
      <trkpt lat="43.37995" lon="6.65189">
        <ele>152.19999694824</ele>
        <time>2018-02-03T13:16:09.000Z</time>
      </trkpt>
      <trkpt lat="43.3799" lon="6.65194">
        <ele>153.19999694824</ele>
        <time>2018-02-03T13:16:14.000Z</time>
      </trkpt>
      <trkpt lat="43.37986" lon="6.65196">
        <ele>153.80000305176</ele>
        <time>2018-02-03T13:16:17.000Z</time>
      </trkpt>
      <trkpt lat="43.37984" lon="6.65197">
        <ele>154.39999389648</ele>
        <time>2018-02-03T13:16:19.000Z</time>
      </trkpt>
      <trkpt lat="43.3798" lon="6.65199">
        <ele>155.39999389648</ele>
        <time>2018-02-03T13:16:23.000Z</time>
      </trkpt>
      <trkpt lat="43.37976" lon="6.65202">
        <ele>156.60000610352</ele>
        <time>2018-02-03T13:16:28.000Z</time>
      </trkpt>
      <trkpt lat="43.37975" lon="6.65202">
        <ele>156.80000305176</ele>
        <time>2018-02-03T13:16:29.000Z</time>
      </trkpt>
      <trkpt lat="43.37972" lon="6.65204">
        <ele>157.60000610352</ele>
        <time>2018-02-03T13:16:32.000Z</time>
      </trkpt>
      <trkpt lat="43.3797" lon="6.65205">
        <ele>158</ele>
        <time>2018-02-03T13:16:34.000Z</time>
      </trkpt>
      <trkpt lat="43.37967" lon="6.65206">
        <ele>158.80000305176</ele>
        <time>2018-02-03T13:16:37.000Z</time>
      </trkpt>
      <trkpt lat="43.37964" lon="6.65207">
        <ele>159.60000610352</ele>
        <time>2018-02-03T13:16:40.000Z</time>
      </trkpt>
      <trkpt lat="43.37962" lon="6.65207">
        <ele>159.80000305176</ele>
        <time>2018-02-03T13:16:42.000Z</time>
      </trkpt>
      <trkpt lat="43.37958" lon="6.65208">
        <ele>160.60000610352</ele>
        <time>2018-02-03T13:16:46.000Z</time>
      </trkpt>
      <trkpt lat="43.37956" lon="6.65208">
        <ele>161</ele>
        <time>2018-02-03T13:16:48.000Z</time>
      </trkpt>
      <trkpt lat="43.37952" lon="6.65207">
        <ele>161.80000305176</ele>
        <time>2018-02-03T13:16:52.000Z</time>
      </trkpt>
      <trkpt lat="43.37951" lon="6.65207">
        <ele>162</ele>
        <time>2018-02-03T13:16:53.000Z</time>
      </trkpt>
      <trkpt lat="43.37946" lon="6.65205">
        <ele>163</ele>
        <time>2018-02-03T13:16:58.000Z</time>
      </trkpt>
      <trkpt lat="43.37945" lon="6.65204">
        <ele>163.39999389648</ele>
        <time>2018-02-03T13:17:00.000Z</time>
      </trkpt>
      <trkpt lat="43.3794" lon="6.652">
        <ele>164</ele>
        <time>2018-02-03T13:17:05.000Z</time>
      </trkpt>
      <trkpt lat="43.37939" lon="6.65199">
        <ele>164.19999694824</ele>
        <time>2018-02-03T13:17:06.000Z</time>
      </trkpt>
      <trkpt lat="43.37936" lon="6.65196">
        <ele>165.19999694824</ele>
        <time>2018-02-03T13:17:10.000Z</time>
      </trkpt>
      <trkpt lat="43.37933" lon="6.65193">
        <ele>165.80000305176</ele>
        <time>2018-02-03T13:17:14.000Z</time>
      </trkpt>
      <trkpt lat="43.37931" lon="6.65191">
        <ele>166.19999694824</ele>
        <time>2018-02-03T13:17:16.000Z</time>
      </trkpt>
      <trkpt lat="43.37924" lon="6.65186">
        <ele>167.19999694824</ele>
        <time>2018-02-03T13:17:23.000Z</time>
      </trkpt>
      <trkpt lat="43.37923" lon="6.65185">
        <ele>167.39999389648</ele>
        <time>2018-02-03T13:17:24.000Z</time>
      </trkpt>
      <trkpt lat="43.37918" lon="6.65181">
        <ele>168.39999389648</ele>
        <time>2018-02-03T13:17:28.000Z</time>
      </trkpt>
      <trkpt lat="43.37915" lon="6.65179">
        <ele>169.19999694824</ele>
        <time>2018-02-03T13:17:31.000Z</time>
      </trkpt>
      <trkpt lat="43.37914" lon="6.65178">
        <ele>169.39999389648</ele>
        <time>2018-02-03T13:17:32.000Z</time>
      </trkpt>
      <trkpt lat="43.37909" lon="6.65173">
        <ele>170.39999389648</ele>
        <time>2018-02-03T13:17:38.000Z</time>
      </trkpt>
      <trkpt lat="43.37908" lon="6.65173">
        <ele>170.60000610352</ele>
        <time>2018-02-03T13:17:39.000Z</time>
      </trkpt>
      <trkpt lat="43.37903" lon="6.65169">
        <ele>171.60000610352</ele>
        <time>2018-02-03T13:17:44.000Z</time>
      </trkpt>
      <trkpt lat="43.37898" lon="6.65167">
        <ele>172.39999389648</ele>
        <time>2018-02-03T13:17:48.000Z</time>
      </trkpt>
      <trkpt lat="43.37896" lon="6.65166">
        <ele>172.80000305176</ele>
        <time>2018-02-03T13:17:50.000Z</time>
      </trkpt>
      <trkpt lat="43.37892" lon="6.65165">
        <ele>173</ele>
        <time>2018-02-03T13:17:53.000Z</time>
      </trkpt>
      <trkpt lat="43.37891" lon="6.65165">
        <ele>173</ele>
        <time>2018-02-03T13:17:54.000Z</time>
      </trkpt>
      <trkpt lat="43.37885" lon="6.65166">
        <ele>173.80000305176</ele>
        <time>2018-02-03T13:18:00.000Z</time>
      </trkpt>
      <trkpt lat="43.37885" lon="6.65166">
        <ele>174</ele>
        <time>2018-02-03T13:18:01.000Z</time>
      </trkpt>
      <trkpt lat="43.37885" lon="6.65166">
        <ele>174.80000305176</ele>
        <time>2018-02-03T13:18:09.000Z</time>
      </trkpt>
      <trkpt lat="43.37885" lon="6.65166">
        <ele>175</ele>
        <time>2018-02-03T13:18:15.000Z</time>
      </trkpt>
      <trkpt lat="43.37885" lon="6.65166">
        <ele>175.19999694824</ele>
        <time>2018-02-03T13:18:17.000Z</time>
      </trkpt>
      <trkpt lat="43.37884" lon="6.65167">
        <ele>175.19999694824</ele>
        <time>2018-02-03T13:18:26.000Z</time>
      </trkpt>
      <trkpt lat="43.37884" lon="6.65167">
        <ele>175</ele>
        <time>2018-02-03T13:18:36.000Z</time>
      </trkpt>
      <trkpt lat="43.37883" lon="6.65169">
        <ele>174.80000305176</ele>
        <time>2018-02-03T13:18:40.000Z</time>
      </trkpt>
      <trkpt lat="43.37884" lon="6.65171">
        <ele>175</ele>
        <time>2018-02-03T13:18:41.000Z</time>
      </trkpt>
      <trkpt lat="43.37885" lon="6.65182">
        <ele>174.60000610352</ele>
        <time>2018-02-03T13:18:43.000Z</time>
      </trkpt>
      <trkpt lat="43.37887" lon="6.65187">
        <ele>174.39999389648</ele>
        <time>2018-02-03T13:18:44.000Z</time>
      </trkpt>
      <trkpt lat="43.37888" lon="6.65193">
        <ele>173.80000305176</ele>
        <time>2018-02-03T13:18:45.000Z</time>
      </trkpt>
      <trkpt lat="43.37891" lon="6.65202">
        <ele>172.39999389648</ele>
        <time>2018-02-03T13:18:47.000Z</time>
      </trkpt>
      <trkpt lat="43.37897" lon="6.65214">
        <ele>171</ele>
        <time>2018-02-03T13:18:49.000Z</time>
      </trkpt>
      <trkpt lat="43.379" lon="6.6522">
        <ele>170</ele>
        <time>2018-02-03T13:18:50.000Z</time>
      </trkpt>
      <trkpt lat="43.37905" lon="6.65233">
        <ele>168.19999694824</ele>
        <time>2018-02-03T13:18:52.000Z</time>
      </trkpt>
      <trkpt lat="43.3791" lon="6.65246">
        <ele>166</ele>
        <time>2018-02-03T13:18:54.000Z</time>
      </trkpt>
      <trkpt lat="43.37913" lon="6.65255">
        <ele>165</ele>
        <time>2018-02-03T13:18:55.000Z</time>
      </trkpt>
      <trkpt lat="43.37914" lon="6.65263">
        <ele>163.80000305176</ele>
        <time>2018-02-03T13:18:56.000Z</time>
      </trkpt>
      <trkpt lat="43.37914" lon="6.6527">
        <ele>162.39999389648</ele>
        <time>2018-02-03T13:18:57.000Z</time>
      </trkpt>
      <trkpt lat="43.37914" lon="6.65277">
        <ele>161</ele>
        <time>2018-02-03T13:18:58.000Z</time>
      </trkpt>
      <trkpt lat="43.37913" lon="6.65284">
        <ele>160</ele>
        <time>2018-02-03T13:18:59.000Z</time>
      </trkpt>
      <trkpt lat="43.37909" lon="6.65295">
        <ele>158.80000305176</ele>
        <time>2018-02-03T13:19:00.000Z</time>
      </trkpt>
      <trkpt lat="43.37904" lon="6.65304">
        <ele>157.60000610352</ele>
        <time>2018-02-03T13:19:01.000Z</time>
      </trkpt>
      <trkpt lat="43.37898" lon="6.65313">
        <ele>156</ele>
        <time>2018-02-03T13:19:02.000Z</time>
      </trkpt>
      <trkpt lat="43.37891" lon="6.65321">
        <ele>154.39999389648</ele>
        <time>2018-02-03T13:19:03.000Z</time>
      </trkpt>
      <trkpt lat="43.37885" lon="6.65328">
        <ele>153.39999389648</ele>
        <time>2018-02-03T13:19:04.000Z</time>
      </trkpt>
      <trkpt lat="43.37874" lon="6.65346">
        <ele>151</ele>
        <time>2018-02-03T13:19:06.000Z</time>
      </trkpt>
      <trkpt lat="43.37873" lon="6.65355">
        <ele>150.19999694824</ele>
        <time>2018-02-03T13:19:07.000Z</time>
      </trkpt>
      <trkpt lat="43.37872" lon="6.65364">
        <ele>149.60000610352</ele>
        <time>2018-02-03T13:19:08.000Z</time>
      </trkpt>
      <trkpt lat="43.37873" lon="6.65373">
        <ele>148.39999389648</ele>
        <time>2018-02-03T13:19:10.000Z</time>
      </trkpt>
      <trkpt lat="43.37877" lon="6.65384">
        <ele>146.80000305176</ele>
        <time>2018-02-03T13:19:12.000Z</time>
      </trkpt>
      <trkpt lat="43.37878" lon="6.6539">
        <ele>146.80000305176</ele>
        <time>2018-02-03T13:19:13.000Z</time>
      </trkpt>
      <trkpt lat="43.37875" lon="6.65402">
        <ele>145.19999694824</ele>
        <time>2018-02-03T13:19:15.000Z</time>
      </trkpt>
      <trkpt lat="43.37877" lon="6.65414">
        <ele>143.80000305176</ele>
        <time>2018-02-03T13:19:18.000Z</time>
      </trkpt>
      <trkpt lat="43.37879" lon="6.65416">
        <ele>143.60000610352</ele>
        <time>2018-02-03T13:19:19.000Z</time>
      </trkpt>
      <trkpt lat="43.37883" lon="6.6542">
        <ele>143.80000305176</ele>
        <time>2018-02-03T13:19:21.000Z</time>
      </trkpt>
      <trkpt lat="43.3789" lon="6.65427">
        <ele>144.60000610352</ele>
        <time>2018-02-03T13:19:24.000Z</time>
      </trkpt>
      <trkpt lat="43.37911" lon="6.65446">
        <ele>143.80000305176</ele>
        <time>2018-02-03T13:19:30.000Z</time>
      </trkpt>
      <trkpt lat="43.37926" lon="6.65455">
        <ele>142.60000610352</ele>
        <time>2018-02-03T13:19:33.000Z</time>
      </trkpt>
      <trkpt lat="43.37931" lon="6.65456">
        <ele>142</ele>
        <time>2018-02-03T13:19:34.000Z</time>
      </trkpt>
      <trkpt lat="43.37935" lon="6.65457">
        <ele>141.39999389648</ele>
        <time>2018-02-03T13:19:35.000Z</time>
      </trkpt>
      <trkpt lat="43.37945" lon="6.65461">
        <ele>140.19999694824</ele>
        <time>2018-02-03T13:19:37.000Z</time>
      </trkpt>
      <trkpt lat="43.37953" lon="6.65464">
        <ele>139.60000610352</ele>
        <time>2018-02-03T13:19:39.000Z</time>
      </trkpt>
      <trkpt lat="43.37957" lon="6.65462">
        <ele>139.39999389648</ele>
        <time>2018-02-03T13:19:40.000Z</time>
      </trkpt>
      <trkpt lat="43.37962" lon="6.6546">
        <ele>138.60000610352</ele>
        <time>2018-02-03T13:19:41.000Z</time>
      </trkpt>
      <trkpt lat="43.37972" lon="6.65453">
        <ele>136.39999389648</ele>
        <time>2018-02-03T13:19:43.000Z</time>
      </trkpt>
      <trkpt lat="43.37977" lon="6.6545">
        <ele>135</ele>
        <time>2018-02-03T13:19:44.000Z</time>
      </trkpt>
      <trkpt lat="43.37983" lon="6.65447">
        <ele>136.19999694824</ele>
        <time>2018-02-03T13:19:45.000Z</time>
      </trkpt>
      <trkpt lat="43.37988" lon="6.65444">
        <ele>135</ele>
        <time>2018-02-03T13:19:46.000Z</time>
      </trkpt>
      <trkpt lat="43.37994" lon="6.65443">
        <ele>133.60000610352</ele>
        <time>2018-02-03T13:19:47.000Z</time>
      </trkpt>
      <trkpt lat="43.37999" lon="6.6544">
        <ele>132.19999694824</ele>
        <time>2018-02-03T13:19:48.000Z</time>
      </trkpt>
      <trkpt lat="43.38003" lon="6.65435">
        <ele>130.80000305176</ele>
        <time>2018-02-03T13:19:49.000Z</time>
      </trkpt>
      <trkpt lat="43.38007" lon="6.6543">
        <ele>129.39999389648</ele>
        <time>2018-02-03T13:19:50.000Z</time>
      </trkpt>
      <trkpt lat="43.3801" lon="6.65426">
        <ele>128.39999389648</ele>
        <time>2018-02-03T13:19:51.000Z</time>
      </trkpt>
      <trkpt lat="43.38014" lon="6.65422">
        <ele>127.40000152588</ele>
        <time>2018-02-03T13:19:52.000Z</time>
      </trkpt>
      <trkpt lat="43.38018" lon="6.65419">
        <ele>126</ele>
        <time>2018-02-03T13:19:53.000Z</time>
      </trkpt>
      <trkpt lat="43.38022" lon="6.65417">
        <ele>124.59999847412</ele>
        <time>2018-02-03T13:19:54.000Z</time>
      </trkpt>
      <trkpt lat="43.38026" lon="6.65415">
        <ele>123.40000152588</ele>
        <time>2018-02-03T13:19:55.000Z</time>
      </trkpt>
      <trkpt lat="43.38028" lon="6.65413">
        <ele>122.19999694824</ele>
        <time>2018-02-03T13:19:56.000Z</time>
      </trkpt>
      <trkpt lat="43.38033" lon="6.6541">
        <ele>120.59999847412</ele>
        <time>2018-02-03T13:19:58.000Z</time>
      </trkpt>
      <trkpt lat="43.38037" lon="6.65409">
        <ele>120.40000152588</ele>
        <time>2018-02-03T13:19:59.000Z</time>
      </trkpt>
      <trkpt lat="43.38046" lon="6.65406">
        <ele>118.80000305176</ele>
        <time>2018-02-03T13:20:01.000Z</time>
      </trkpt>
      <trkpt lat="43.3805" lon="6.65404">
        <ele>117</ele>
        <time>2018-02-03T13:20:02.000Z</time>
      </trkpt>
      <trkpt lat="43.38055" lon="6.65403">
        <ele>115.59999847412</ele>
        <time>2018-02-03T13:20:03.000Z</time>
      </trkpt>
      <trkpt lat="43.38061" lon="6.65402">
        <ele>114.19999694824</ele>
        <time>2018-02-03T13:20:04.000Z</time>
      </trkpt>
      <trkpt lat="43.38066" lon="6.65403">
        <ele>112.80000305176</ele>
        <time>2018-02-03T13:20:05.000Z</time>
      </trkpt>
      <trkpt lat="43.38071" lon="6.65403">
        <ele>111</ele>
        <time>2018-02-03T13:20:06.000Z</time>
      </trkpt>
      <trkpt lat="43.38074" lon="6.65404">
        <ele>109.40000152588</ele>
        <time>2018-02-03T13:20:07.000Z</time>
      </trkpt>
      <trkpt lat="43.38074" lon="6.65404">
        <ele>108.19999694824</ele>
        <time>2018-02-03T13:20:08.000Z</time>
      </trkpt>
      <trkpt lat="43.38073" lon="6.65404">
        <ele>106.80000305176</ele>
        <time>2018-02-03T13:20:09.000Z</time>
      </trkpt>
      <trkpt lat="43.38075" lon="6.65404">
        <ele>105.59999847412</ele>
        <time>2018-02-03T13:20:12.000Z</time>
      </trkpt>
      <trkpt lat="43.38075" lon="6.65404">
        <ele>105.59999847412</ele>
        <time>2018-02-03T13:20:13.000Z</time>
      </trkpt>
      <trkpt lat="43.38076" lon="6.65404">
        <ele>105.40000152588</ele>
        <time>2018-02-03T13:20:15.000Z</time>
      </trkpt>
      <trkpt lat="43.38083" lon="6.65409">
        <ele>105</ele>
        <time>2018-02-03T13:20:18.000Z</time>
      </trkpt>
      <trkpt lat="43.38085" lon="6.65411">
        <ele>104.40000152588</ele>
        <time>2018-02-03T13:20:19.000Z</time>
      </trkpt>
      <trkpt lat="43.38089" lon="6.65412">
        <ele>102.80000305176</ele>
        <time>2018-02-03T13:20:21.000Z</time>
      </trkpt>
      <trkpt lat="43.38092" lon="6.65413">
        <ele>102.19999694824</ele>
        <time>2018-02-03T13:20:22.000Z</time>
      </trkpt>
      <trkpt lat="43.38094" lon="6.65415">
        <ele>101.40000152588</ele>
        <time>2018-02-03T13:20:23.000Z</time>
      </trkpt>
      <trkpt lat="43.38098" lon="6.65419">
        <ele>99.800003051758</ele>
        <time>2018-02-03T13:20:25.000Z</time>
      </trkpt>
      <trkpt lat="43.38102" lon="6.65422">
        <ele>98.599998474121</ele>
        <time>2018-02-03T13:20:27.000Z</time>
      </trkpt>
      <trkpt lat="43.38107" lon="6.65424">
        <ele>97.599998474121</ele>
        <time>2018-02-03T13:20:29.000Z</time>
      </trkpt>
      <trkpt lat="43.38116" lon="6.65424">
        <ele>96.599998474121</ele>
        <time>2018-02-03T13:20:31.000Z</time>
      </trkpt>
      <trkpt lat="43.38125" lon="6.65424">
        <ele>95.400001525879</ele>
        <time>2018-02-03T13:20:33.000Z</time>
      </trkpt>
      <trkpt lat="43.38136" lon="6.65421">
        <ele>94</ele>
        <time>2018-02-03T13:20:36.000Z</time>
      </trkpt>
      <trkpt lat="43.38138" lon="6.6542">
        <ele>93</ele>
        <time>2018-02-03T13:20:37.000Z</time>
      </trkpt>
      <trkpt lat="43.38141" lon="6.6542">
        <ele>91.800003051758</ele>
        <time>2018-02-03T13:20:39.000Z</time>
      </trkpt>
      <trkpt lat="43.38142" lon="6.6542">
        <ele>91.599998474121</ele>
        <time>2018-02-03T13:20:40.000Z</time>
      </trkpt>
      <trkpt lat="43.38142" lon="6.6542">
        <ele>90.599998474121</ele>
        <time>2018-02-03T13:20:46.000Z</time>
      </trkpt>
      <trkpt lat="43.38143" lon="6.65419">
        <ele>89.599998474121</ele>
        <time>2018-02-03T13:20:53.000Z</time>
      </trkpt>
      <trkpt lat="43.38143" lon="6.65419">
        <ele>88.400001525879</ele>
        <time>2018-02-03T13:21:05.000Z</time>
      </trkpt>
      <trkpt lat="43.38145" lon="6.65418">
        <ele>87.800003051758</ele>
        <time>2018-02-03T13:21:08.000Z</time>
      </trkpt>
      <trkpt lat="43.38152" lon="6.65417">
        <ele>87.400001525879</ele>
        <time>2018-02-03T13:21:11.000Z</time>
      </trkpt>
      <trkpt lat="43.38156" lon="6.65418">
        <ele>87.199996948242</ele>
        <time>2018-02-03T13:21:12.000Z</time>
      </trkpt>
      <trkpt lat="43.38168" lon="6.65423">
        <ele>86</ele>
        <time>2018-02-03T13:21:16.000Z</time>
      </trkpt>
      <trkpt lat="43.38175" lon="6.65436">
        <ele>85.199996948242</ele>
        <time>2018-02-03T13:21:20.000Z</time>
      </trkpt>
      <trkpt lat="43.38182" lon="6.65437">
        <ele>85</ele>
        <time>2018-02-03T13:21:22.000Z</time>
      </trkpt>
      <trkpt lat="43.38184" lon="6.65435">
        <ele>84.800003051758</ele>
        <time>2018-02-03T13:21:23.000Z</time>
      </trkpt>
      <trkpt lat="43.38204" lon="6.65434">
        <ele>85.199996948242</ele>
        <time>2018-02-03T13:21:28.000Z</time>
      </trkpt>
      <trkpt lat="43.38213" lon="6.65436">
        <ele>84.800003051758</ele>
        <time>2018-02-03T13:21:30.000Z</time>
      </trkpt>
      <trkpt lat="43.38218" lon="6.65438">
        <ele>84.400001525879</ele>
        <time>2018-02-03T13:21:31.000Z</time>
      </trkpt>
      <trkpt lat="43.38223" lon="6.65442">
        <ele>83.800003051758</ele>
        <time>2018-02-03T13:21:32.000Z</time>
      </trkpt>
      <trkpt lat="43.38227" lon="6.65445">
        <ele>83.599998474121</ele>
        <time>2018-02-03T13:21:33.000Z</time>
      </trkpt>
      <trkpt lat="43.38232" lon="6.65448">
        <ele>83.199996948242</ele>
        <time>2018-02-03T13:21:34.000Z</time>
      </trkpt>
      <trkpt lat="43.38244" lon="6.65446">
        <ele>82.599998474121</ele>
        <time>2018-02-03T13:21:36.000Z</time>
      </trkpt>
      <trkpt lat="43.38254" lon="6.65442">
        <ele>81.400001525879</ele>
        <time>2018-02-03T13:21:38.000Z</time>
      </trkpt>
      <trkpt lat="43.38258" lon="6.65444">
        <ele>80.800003051758</ele>
        <time>2018-02-03T13:21:39.000Z</time>
      </trkpt>
      <trkpt lat="43.38263" lon="6.65448">
        <ele>80</ele>
        <time>2018-02-03T13:21:40.000Z</time>
      </trkpt>
      <trkpt lat="43.38269" lon="6.65457">
        <ele>78.599998474121</ele>
        <time>2018-02-03T13:21:42.000Z</time>
      </trkpt>
      <trkpt lat="43.38276" lon="6.65461">
        <ele>77.199996948242</ele>
        <time>2018-02-03T13:21:44.000Z</time>
      </trkpt>
      <trkpt lat="43.38282" lon="6.65469">
        <ele>75.800003051758</ele>
        <time>2018-02-03T13:21:46.000Z</time>
      </trkpt>
      <trkpt lat="43.38286" lon="6.6548">
        <ele>74.199996948242</ele>
        <time>2018-02-03T13:21:48.000Z</time>
      </trkpt>
      <trkpt lat="43.38289" lon="6.65485">
        <ele>73.199996948242</ele>
        <time>2018-02-03T13:21:49.000Z</time>
      </trkpt>
      <trkpt lat="43.38294" lon="6.6549">
        <ele>72.199996948242</ele>
        <time>2018-02-03T13:21:50.000Z</time>
      </trkpt>
      <trkpt lat="43.38299" lon="6.655">
        <ele>70.199996948242</ele>
        <time>2018-02-03T13:21:52.000Z</time>
      </trkpt>
      <trkpt lat="43.38301" lon="6.65506">
        <ele>69.400001525879</ele>
        <time>2018-02-03T13:21:53.000Z</time>
      </trkpt>
      <trkpt lat="43.38304" lon="6.65512">
        <ele>68.400001525879</ele>
        <time>2018-02-03T13:21:54.000Z</time>
      </trkpt>
      <trkpt lat="43.38311" lon="6.65524">
        <ele>67</ele>
        <time>2018-02-03T13:21:56.000Z</time>
      </trkpt>
      <trkpt lat="43.38312" lon="6.65532">
        <ele>66.199996948242</ele>
        <time>2018-02-03T13:21:57.000Z</time>
      </trkpt>
      <trkpt lat="43.38313" lon="6.65539">
        <ele>65.199996948242</ele>
        <time>2018-02-03T13:21:58.000Z</time>
      </trkpt>
      <trkpt lat="43.38316" lon="6.65552">
        <ele>63.799999237061</ele>
        <time>2018-02-03T13:22:00.000Z</time>
      </trkpt>
      <trkpt lat="43.38318" lon="6.65556">
        <ele>62.799999237061</ele>
        <time>2018-02-03T13:22:01.000Z</time>
      </trkpt>
      <trkpt lat="43.38318" lon="6.65562">
        <ele>62</ele>
        <time>2018-02-03T13:22:02.000Z</time>
      </trkpt>
      <trkpt lat="43.38319" lon="6.65576">
        <ele>60.400001525879</ele>
        <time>2018-02-03T13:22:04.000Z</time>
      </trkpt>
      <trkpt lat="43.3832" lon="6.65593">
        <ele>58.799999237061</ele>
        <time>2018-02-03T13:22:06.000Z</time>
      </trkpt>
      <trkpt lat="43.38323" lon="6.65609">
        <ele>58.799999237061</ele>
        <time>2018-02-03T13:22:08.000Z</time>
      </trkpt>
      <trkpt lat="43.38325" lon="6.65615">
        <ele>57.799999237061</ele>
        <time>2018-02-03T13:22:09.000Z</time>
      </trkpt>
      <trkpt lat="43.38328" lon="6.6562">
        <ele>57.400001525879</ele>
        <time>2018-02-03T13:22:10.000Z</time>
      </trkpt>
      <trkpt lat="43.3833" lon="6.65626">
        <ele>56</ele>
        <time>2018-02-03T13:22:12.000Z</time>
      </trkpt>
      <trkpt lat="43.38332" lon="6.65628">
        <ele>55.200000762939</ele>
        <time>2018-02-03T13:22:13.000Z</time>
      </trkpt>
      <trkpt lat="43.38334" lon="6.65632">
        <ele>54.599998474121</ele>
        <time>2018-02-03T13:22:14.000Z</time>
      </trkpt>
      <trkpt lat="43.38336" lon="6.65641">
        <ele>52.799999237061</ele>
        <time>2018-02-03T13:22:16.000Z</time>
      </trkpt>
      <trkpt lat="43.38338" lon="6.6565">
        <ele>50.799999237061</ele>
        <time>2018-02-03T13:22:18.000Z</time>
      </trkpt>
      <trkpt lat="43.38339" lon="6.65656">
        <ele>49.400001525879</ele>
        <time>2018-02-03T13:22:19.000Z</time>
      </trkpt>
      <trkpt lat="43.3834" lon="6.65663">
        <ele>48.200000762939</ele>
        <time>2018-02-03T13:22:20.000Z</time>
      </trkpt>
      <trkpt lat="43.38342" lon="6.65669">
        <ele>46.599998474121</ele>
        <time>2018-02-03T13:22:21.000Z</time>
      </trkpt>
      <trkpt lat="43.38345" lon="6.65675">
        <ele>45.400001525879</ele>
        <time>2018-02-03T13:22:22.000Z</time>
      </trkpt>
      <trkpt lat="43.38348" lon="6.65679">
        <ele>44.200000762939</ele>
        <time>2018-02-03T13:22:23.000Z</time>
      </trkpt>
      <trkpt lat="43.38351" lon="6.6568">
        <ele>42.799999237061</ele>
        <time>2018-02-03T13:22:24.000Z</time>
      </trkpt>
      <trkpt lat="43.38355" lon="6.65681">
        <ele>42</ele>
        <time>2018-02-03T13:22:25.000Z</time>
      </trkpt>
      <trkpt lat="43.38359" lon="6.6568">
        <ele>40.799999237061</ele>
        <time>2018-02-03T13:22:26.000Z</time>
      </trkpt>
      <trkpt lat="43.38367" lon="6.65676">
        <ele>39.599998474121</ele>
        <time>2018-02-03T13:22:28.000Z</time>
      </trkpt>
      <trkpt lat="43.38369" lon="6.65675">
        <ele>39.200000762939</ele>
        <time>2018-02-03T13:22:29.000Z</time>
      </trkpt>
      <trkpt lat="43.38372" lon="6.65675">
        <ele>38.599998474121</ele>
        <time>2018-02-03T13:22:31.000Z</time>
      </trkpt>
      <trkpt lat="43.38372" lon="6.65676">
        <ele>38.200000762939</ele>
        <time>2018-02-03T13:22:32.000Z</time>
      </trkpt>
      <trkpt lat="43.38374" lon="6.65676">
        <ele>37.599998474121</ele>
        <time>2018-02-03T13:22:37.000Z</time>
      </trkpt>
      <trkpt lat="43.38375" lon="6.65677">
        <ele>37.400001525879</ele>
        <time>2018-02-03T13:22:38.000Z</time>
      </trkpt>
      <trkpt lat="43.38378" lon="6.6568">
        <ele>37.200000762939</ele>
        <time>2018-02-03T13:22:42.000Z</time>
      </trkpt>
      <trkpt lat="43.38378" lon="6.65682">
        <ele>37.200000762939</ele>
        <time>2018-02-03T13:22:44.000Z</time>
      </trkpt>
      <trkpt lat="43.38378" lon="6.65684">
        <ele>36.799999237061</ele>
        <time>2018-02-03T13:22:50.000Z</time>
      </trkpt>
      <trkpt lat="43.38378" lon="6.65684">
        <ele>36.400001525879</ele>
        <time>2018-02-03T13:22:56.000Z</time>
      </trkpt>
      <trkpt lat="43.38378" lon="6.65684">
        <ele>36.200000762939</ele>
        <time>2018-02-03T13:22:57.000Z</time>
      </trkpt>
      <trkpt lat="43.38379" lon="6.65683">
        <ele>35.400001525879</ele>
        <time>2018-02-03T13:23:00.000Z</time>
      </trkpt>
      <trkpt lat="43.38378" lon="6.65683">
        <ele>35.400001525879</ele>
        <time>2018-02-03T13:23:03.000Z</time>
      </trkpt>
      <trkpt lat="43.38378" lon="6.65681">
        <ele>35.400001525879</ele>
        <time>2018-02-03T13:23:09.000Z</time>
      </trkpt>
      <trkpt lat="43.38378" lon="6.65681">
        <ele>35.599998474121</ele>
        <time>2018-02-03T13:23:17.000Z</time>
      </trkpt>
      <trkpt lat="43.38378" lon="6.6568">
        <ele>35.599998474121</ele>
        <time>2018-02-03T13:23:29.000Z</time>
      </trkpt>
      <trkpt lat="43.38379" lon="6.6568">
        <ele>35.599998474121</ele>
        <time>2018-02-03T13:23:39.000Z</time>
      </trkpt>
      <trkpt lat="43.38379" lon="6.65679">
        <ele>35.799999237061</ele>
        <time>2018-02-03T13:23:58.000Z</time>
      </trkpt>
      <trkpt lat="43.38379" lon="6.65679">
        <ele>36</ele>
        <time>2018-02-03T13:24:05.000Z</time>
      </trkpt>
      <trkpt lat="43.38379" lon="6.65679">
        <ele>36</ele>
        <time>2018-02-03T13:24:11.000Z</time>
      </trkpt>
      <trkpt lat="43.38379" lon="6.65679">
        <ele>35.599998474121</ele>
        <time>2018-02-03T13:24:32.000Z</time>
      </trkpt>
      <trkpt lat="43.3838" lon="6.6568">
        <ele>35.799999237061</ele>
        <time>2018-02-03T13:24:55.000Z</time>
      </trkpt>
      <trkpt lat="43.38381" lon="6.65682">
        <ele>35.799999237061</ele>
        <time>2018-02-03T13:25:05.000Z</time>
      </trkpt>
      <trkpt lat="43.38381" lon="6.65682">
        <ele>35.400001525879</ele>
        <time>2018-02-03T13:25:16.000Z</time>
      </trkpt>
      <trkpt lat="43.3838" lon="6.65681">
        <ele>35.599998474121</ele>
        <time>2018-02-03T13:25:24.000Z</time>
      </trkpt>
      <trkpt lat="43.3838" lon="6.65681">
        <ele>35.599998474121</ele>
        <time>2018-02-03T13:25:32.000Z</time>
      </trkpt>
      <trkpt lat="43.3838" lon="6.6568">
        <ele>36</ele>
        <time>2018-02-03T13:25:48.000Z</time>
      </trkpt>
      <trkpt lat="43.3838" lon="6.6568">
        <ele>36</ele>
        <time>2018-02-03T13:26:02.000Z</time>
      </trkpt>
      <trkpt lat="43.3838" lon="6.65679">
        <ele>35.799999237061</ele>
        <time>2018-02-03T13:26:26.000Z</time>
      </trkpt>
      <trkpt lat="43.3838" lon="6.65679">
        <ele>36</ele>
        <time>2018-02-03T13:26:39.000Z</time>
      </trkpt>
      <trkpt lat="43.3838" lon="6.65679">
        <ele>36.200000762939</ele>
        <time>2018-02-03T13:26:50.000Z</time>
      </trkpt>
      <trkpt lat="43.38381" lon="6.65679">
        <ele>36</ele>
        <time>2018-02-03T13:27:02.000Z</time>
      </trkpt>
      <trkpt lat="43.38381" lon="6.65678">
        <ele>36</ele>
        <time>2018-02-03T13:27:12.000Z</time>
      </trkpt>
      <trkpt lat="43.38382" lon="6.65677">
        <ele>36</ele>
        <time>2018-02-03T13:27:17.000Z</time>
      </trkpt>
      <trkpt lat="43.38383" lon="6.65674">
        <ele>35.799999237061</ele>
        <time>2018-02-03T13:27:23.000Z</time>
      </trkpt>
      <trkpt lat="43.38384" lon="6.65674">
        <ele>36</ele>
        <time>2018-02-03T13:27:25.000Z</time>
      </trkpt>
      <trkpt lat="43.38385" lon="6.65674">
        <ele>36.400001525879</ele>
        <time>2018-02-03T13:27:27.000Z</time>
      </trkpt>
      <trkpt lat="43.38388" lon="6.65671">
        <ele>36.599998474121</ele>
        <time>2018-02-03T13:27:32.000Z</time>
      </trkpt>
      <trkpt lat="43.38388" lon="6.65669">
        <ele>36.599998474121</ele>
        <time>2018-02-03T13:27:34.000Z</time>
      </trkpt>
      <trkpt lat="43.3839" lon="6.65665">
        <ele>36.799999237061</ele>
        <time>2018-02-03T13:27:39.000Z</time>
      </trkpt>
      <trkpt lat="43.38393" lon="6.65664">
        <ele>37.400001525879</ele>
        <time>2018-02-03T13:27:46.000Z</time>
      </trkpt>
      <trkpt lat="43.38396" lon="6.65657">
        <ele>38</ele>
        <time>2018-02-03T13:27:54.000Z</time>
      </trkpt>
      <trkpt lat="43.38397" lon="6.65654">
        <ele>38.400001525879</ele>
        <time>2018-02-03T13:27:58.000Z</time>
      </trkpt>
      <trkpt lat="43.38397" lon="6.65651">
        <ele>39</ele>
        <time>2018-02-03T13:28:03.000Z</time>
      </trkpt>
      <trkpt lat="43.38398" lon="6.65649">
        <ele>39.400001525879</ele>
        <time>2018-02-03T13:28:07.000Z</time>
      </trkpt>
      <trkpt lat="43.38399" lon="6.65647">
        <ele>40</ele>
        <time>2018-02-03T13:28:10.000Z</time>
      </trkpt>
      <trkpt lat="43.384" lon="6.65644">
        <ele>40.599998474121</ele>
        <time>2018-02-03T13:28:14.000Z</time>
      </trkpt>
      <trkpt lat="43.38401" lon="6.65641">
        <ele>41.400001525879</ele>
        <time>2018-02-03T13:28:19.000Z</time>
      </trkpt>
      <trkpt lat="43.38401" lon="6.6564">
        <ele>41.599998474121</ele>
        <time>2018-02-03T13:28:20.000Z</time>
      </trkpt>
      <trkpt lat="43.38404" lon="6.65635">
        <ele>42.599998474121</ele>
        <time>2018-02-03T13:28:27.000Z</time>
      </trkpt>
      <trkpt lat="43.38406" lon="6.65631">
        <ele>43.599998474121</ele>
        <time>2018-02-03T13:28:35.000Z</time>
      </trkpt>
      <trkpt lat="43.38407" lon="6.6563">
        <ele>43.799999237061</ele>
        <time>2018-02-03T13:28:36.000Z</time>
      </trkpt>
      <trkpt lat="43.38411" lon="6.65628">
        <ele>44.599998474121</ele>
        <time>2018-02-03T13:28:43.000Z</time>
      </trkpt>
      <trkpt lat="43.38412" lon="6.65629">
        <ele>44.799999237061</ele>
        <time>2018-02-03T13:28:45.000Z</time>
      </trkpt>
      <trkpt lat="43.38412" lon="6.65629">
        <ele>45.200000762939</ele>
        <time>2018-02-03T13:28:50.000Z</time>
      </trkpt>
      <trkpt lat="43.38412" lon="6.65629">
        <ele>44.799999237061</ele>
        <time>2018-02-03T13:28:58.000Z</time>
      </trkpt>
      <trkpt lat="43.38415" lon="6.65631">
        <ele>44.799999237061</ele>
        <time>2018-02-03T13:29:05.000Z</time>
      </trkpt>
      <trkpt lat="43.38421" lon="6.65637">
        <ele>45.599998474121</ele>
        <time>2018-02-03T13:29:12.000Z</time>
      </trkpt>
      <trkpt lat="43.38421" lon="6.65637">
        <ele>45.799999237061</ele>
        <time>2018-02-03T13:29:13.000Z</time>
      </trkpt>
      <trkpt lat="43.38423" lon="6.65637">
        <ele>46.200000762939</ele>
        <time>2018-02-03T13:29:17.000Z</time>
      </trkpt>
      <trkpt lat="43.38426" lon="6.65636">
        <ele>46.799999237061</ele>
        <time>2018-02-03T13:29:21.000Z</time>
      </trkpt>
      <trkpt lat="43.38427" lon="6.65636">
        <ele>47.400001525879</ele>
        <time>2018-02-03T13:29:24.000Z</time>
      </trkpt>
      <trkpt lat="43.3843" lon="6.65635">
        <ele>47.799999237061</ele>
        <time>2018-02-03T13:29:29.000Z</time>
      </trkpt>
      <trkpt lat="43.38432" lon="6.65635">
        <ele>47.799999237061</ele>
        <time>2018-02-03T13:29:30.000Z</time>
      </trkpt>
      <trkpt lat="43.38438" lon="6.65632">
        <ele>48.400001525879</ele>
        <time>2018-02-03T13:29:35.000Z</time>
      </trkpt>
      <trkpt lat="43.38439" lon="6.65632">
        <ele>48.799999237061</ele>
        <time>2018-02-03T13:29:36.000Z</time>
      </trkpt>
      <trkpt lat="43.38442" lon="6.65627">
        <ele>49.799999237061</ele>
        <time>2018-02-03T13:29:40.000Z</time>
      </trkpt>
      <trkpt lat="43.38442" lon="6.65626">
        <ele>50</ele>
        <time>2018-02-03T13:29:41.000Z</time>
      </trkpt>
      <trkpt lat="43.38446" lon="6.65616">
        <ele>51.200000762939</ele>
        <time>2018-02-03T13:29:47.000Z</time>
      </trkpt>
      <trkpt lat="43.38447" lon="6.65614">
        <ele>51.599998474121</ele>
        <time>2018-02-03T13:29:48.000Z</time>
      </trkpt>
      <trkpt lat="43.38449" lon="6.65608">
        <ele>52.200000762939</ele>
        <time>2018-02-03T13:29:52.000Z</time>
      </trkpt>
      <trkpt lat="43.3845" lon="6.65603">
        <ele>52.599998474121</ele>
        <time>2018-02-03T13:29:55.000Z</time>
      </trkpt>
      <trkpt lat="43.38452" lon="6.65599">
        <ele>53.400001525879</ele>
        <time>2018-02-03T13:29:58.000Z</time>
      </trkpt>
      <trkpt lat="43.38452" lon="6.65597">
        <ele>53.599998474121</ele>
        <time>2018-02-03T13:29:59.000Z</time>
      </trkpt>
      <trkpt lat="43.38453" lon="6.65593">
        <ele>54</ele>
        <time>2018-02-03T13:30:01.000Z</time>
      </trkpt>
      <trkpt lat="43.38454" lon="6.65589">
        <ele>54.400001525879</ele>
        <time>2018-02-03T13:30:04.000Z</time>
      </trkpt>
      <trkpt lat="43.38454" lon="6.65588">
        <ele>54.599998474121</ele>
        <time>2018-02-03T13:30:05.000Z</time>
      </trkpt>
      <trkpt lat="43.38454" lon="6.65587">
        <ele>55.599998474121</ele>
        <time>2018-02-03T13:30:09.000Z</time>
      </trkpt>
      <trkpt lat="43.38454" lon="6.65582">
        <ele>55.799999237061</ele>
        <time>2018-02-03T13:30:13.000Z</time>
      </trkpt>
      <trkpt lat="43.38454" lon="6.65582">
        <ele>56</ele>
        <time>2018-02-03T13:30:14.000Z</time>
      </trkpt>
      <trkpt lat="43.38454" lon="6.65581">
        <ele>56.799999237061</ele>
        <time>2018-02-03T13:30:17.000Z</time>
      </trkpt>
      <trkpt lat="43.38454" lon="6.65581">
        <ele>57.200000762939</ele>
        <time>2018-02-03T13:30:20.000Z</time>
      </trkpt>
      <trkpt lat="43.38453" lon="6.65578">
        <ele>57</ele>
        <time>2018-02-03T13:30:22.000Z</time>
      </trkpt>
      <trkpt lat="43.38452" lon="6.65574">
        <ele>57.200000762939</ele>
        <time>2018-02-03T13:30:25.000Z</time>
      </trkpt>
      <trkpt lat="43.38448" lon="6.65567">
        <ele>57.599998474121</ele>
        <time>2018-02-03T13:30:30.000Z</time>
      </trkpt>
      <trkpt lat="43.38448" lon="6.65566">
        <ele>57.599998474121</ele>
        <time>2018-02-03T13:30:31.000Z</time>
      </trkpt>
      <trkpt lat="43.38447" lon="6.65562">
        <ele>58</ele>
        <time>2018-02-03T13:30:33.000Z</time>
      </trkpt>
      <trkpt lat="43.38447" lon="6.65554">
        <ele>58.799999237061</ele>
        <time>2018-02-03T13:30:38.000Z</time>
      </trkpt>
      <trkpt lat="43.38448" lon="6.65551">
        <ele>59.200000762939</ele>
        <time>2018-02-03T13:30:40.000Z</time>
      </trkpt>
      <trkpt lat="43.38449" lon="6.65545">
        <ele>59.799999237061</ele>
        <time>2018-02-03T13:30:44.000Z</time>
      </trkpt>
      <trkpt lat="43.3845" lon="6.65542">
        <ele>60.200000762939</ele>
        <time>2018-02-03T13:30:46.000Z</time>
      </trkpt>
      <trkpt lat="43.38453" lon="6.65537">
        <ele>60.599998474121</ele>
        <time>2018-02-03T13:30:49.000Z</time>
      </trkpt>
      <trkpt lat="43.38455" lon="6.65533">
        <ele>61.200000762939</ele>
        <time>2018-02-03T13:30:52.000Z</time>
      </trkpt>
      <trkpt lat="43.38456" lon="6.65528">
        <ele>62.200000762939</ele>
        <time>2018-02-03T13:30:55.000Z</time>
      </trkpt>
      <trkpt lat="43.38457" lon="6.65526">
        <ele>62.400001525879</ele>
        <time>2018-02-03T13:30:56.000Z</time>
      </trkpt>
      <trkpt lat="43.38459" lon="6.65517">
        <ele>63.200000762939</ele>
        <time>2018-02-03T13:31:02.000Z</time>
      </trkpt>
      <trkpt lat="43.38459" lon="6.65514">
        <ele>63.400001525879</ele>
        <time>2018-02-03T13:31:03.000Z</time>
      </trkpt>
      <trkpt lat="43.38461" lon="6.65505">
        <ele>64</ele>
        <time>2018-02-03T13:31:08.000Z</time>
      </trkpt>
      <trkpt lat="43.38464" lon="6.65501">
        <ele>64.599998474121</ele>
        <time>2018-02-03T13:31:11.000Z</time>
      </trkpt>
      <trkpt lat="43.38465" lon="6.65498">
        <ele>65</ele>
        <time>2018-02-03T13:31:13.000Z</time>
      </trkpt>
      <trkpt lat="43.38474" lon="6.65489">
        <ele>65.599998474121</ele>
        <time>2018-02-03T13:31:20.000Z</time>
      </trkpt>
      <trkpt lat="43.38481" lon="6.65481">
        <ele>66.599998474121</ele>
        <time>2018-02-03T13:31:26.000Z</time>
      </trkpt>
      <trkpt lat="43.38484" lon="6.65477">
        <ele>67</ele>
        <time>2018-02-03T13:31:29.000Z</time>
      </trkpt>
      <trkpt lat="43.3849" lon="6.6547">
        <ele>67.800003051758</ele>
        <time>2018-02-03T13:31:33.000Z</time>
      </trkpt>
      <trkpt lat="43.38496" lon="6.65463">
        <ele>68</ele>
        <time>2018-02-03T13:31:37.000Z</time>
      </trkpt>
      <trkpt lat="43.38505" lon="6.65454">
        <ele>68.800003051758</ele>
        <time>2018-02-03T13:31:43.000Z</time>
      </trkpt>
      <trkpt lat="43.38507" lon="6.65454">
        <ele>69.199996948242</ele>
        <time>2018-02-03T13:31:44.000Z</time>
      </trkpt>
      <trkpt lat="43.38514" lon="6.65456">
        <ele>69.800003051758</ele>
        <time>2018-02-03T13:31:48.000Z</time>
      </trkpt>
      <trkpt lat="43.3852" lon="6.65458">
        <ele>70</ele>
        <time>2018-02-03T13:31:51.000Z</time>
      </trkpt>
      <trkpt lat="43.38529" lon="6.65459">
        <ele>71</ele>
        <time>2018-02-03T13:31:57.000Z</time>
      </trkpt>
      <trkpt lat="43.38532" lon="6.65459">
        <ele>71.400001525879</ele>
        <time>2018-02-03T13:31:59.000Z</time>
      </trkpt>
      <trkpt lat="43.38539" lon="6.65458">
        <ele>72.199996948242</ele>
        <time>2018-02-03T13:32:03.000Z</time>
      </trkpt>
      <trkpt lat="43.38546" lon="6.65454">
        <ele>72.800003051758</ele>
        <time>2018-02-03T13:32:07.000Z</time>
      </trkpt>
      <trkpt lat="43.3855" lon="6.65451">
        <ele>73.199996948242</ele>
        <time>2018-02-03T13:32:10.000Z</time>
      </trkpt>
      <trkpt lat="43.38557" lon="6.65444">
        <ele>74.199996948242</ele>
        <time>2018-02-03T13:32:15.000Z</time>
      </trkpt>
      <trkpt lat="43.38559" lon="6.65442">
        <ele>74.599998474121</ele>
        <time>2018-02-03T13:32:16.000Z</time>
      </trkpt>
      <trkpt lat="43.38563" lon="6.65435">
        <ele>75.400001525879</ele>
        <time>2018-02-03T13:32:20.000Z</time>
      </trkpt>
      <trkpt lat="43.38567" lon="6.65429">
        <ele>75.800003051758</ele>
        <time>2018-02-03T13:32:23.000Z</time>
      </trkpt>
      <trkpt lat="43.38572" lon="6.65422">
        <ele>76.599998474121</ele>
        <time>2018-02-03T13:32:27.000Z</time>
      </trkpt>
      <trkpt lat="43.38575" lon="6.65419">
        <ele>76.800003051758</ele>
        <time>2018-02-03T13:32:29.000Z</time>
      </trkpt>
      <trkpt lat="43.38592" lon="6.65407">
        <ele>77.400001525879</ele>
        <time>2018-02-03T13:32:37.000Z</time>
      </trkpt>
      <trkpt lat="43.38594" lon="6.65406">
        <ele>77.800003051758</ele>
        <time>2018-02-03T13:32:38.000Z</time>
      </trkpt>
      <trkpt lat="43.38606" lon="6.65396">
        <ele>78.800003051758</ele>
        <time>2018-02-03T13:32:43.000Z</time>
      </trkpt>
      <trkpt lat="43.3861" lon="6.65392">
        <ele>79</ele>
        <time>2018-02-03T13:32:45.000Z</time>
      </trkpt>
      <trkpt lat="43.38621" lon="6.65379">
        <ele>79.800003051758</ele>
        <time>2018-02-03T13:32:50.000Z</time>
      </trkpt>
      <trkpt lat="43.38629" lon="6.65375">
        <ele>80.199996948242</ele>
        <time>2018-02-03T13:32:53.000Z</time>
      </trkpt>
      <trkpt lat="43.38645" lon="6.65377">
        <ele>80.599998474121</ele>
        <time>2018-02-03T13:32:58.000Z</time>
      </trkpt>
      <trkpt lat="43.38654" lon="6.65378">
        <ele>80.800003051758</ele>
        <time>2018-02-03T13:33:01.000Z</time>
      </trkpt>
      <trkpt lat="43.38668" lon="6.65375">
        <ele>81</ele>
        <time>2018-02-03T13:33:05.000Z</time>
      </trkpt>
      <trkpt lat="43.38701" lon="6.65364">
        <ele>80.800003051758</ele>
        <time>2018-02-03T13:33:14.000Z</time>
      </trkpt>
      <trkpt lat="43.38706" lon="6.65361">
        <ele>80.800003051758</ele>
        <time>2018-02-03T13:33:15.000Z</time>
      </trkpt>
      <trkpt lat="43.3872" lon="6.65353">
        <ele>79.599998474121</ele>
        <time>2018-02-03T13:33:18.000Z</time>
      </trkpt>
      <trkpt lat="43.38723" lon="6.6535">
        <ele>79.199996948242</ele>
        <time>2018-02-03T13:33:19.000Z</time>
      </trkpt>
      <trkpt lat="43.38735" lon="6.6534">
        <ele>80</ele>
        <time>2018-02-03T13:33:24.000Z</time>
      </trkpt>
      <trkpt lat="43.3874" lon="6.65337">
        <ele>80.800003051758</ele>
        <time>2018-02-03T13:33:26.000Z</time>
      </trkpt>
      <trkpt lat="43.38748" lon="6.65335">
        <ele>82.199996948242</ele>
        <time>2018-02-03T13:33:30.000Z</time>
      </trkpt>
      <trkpt lat="43.38758" lon="6.65338">
        <ele>83.199996948242</ele>
        <time>2018-02-03T13:33:36.000Z</time>
      </trkpt>
      <trkpt lat="43.38762" lon="6.6534">
        <ele>84.400001525879</ele>
        <time>2018-02-03T13:33:39.000Z</time>
      </trkpt>
      <trkpt lat="43.38766" lon="6.65343">
        <ele>85.800003051758</ele>
        <time>2018-02-03T13:33:43.000Z</time>
      </trkpt>
      <trkpt lat="43.38768" lon="6.65345">
        <ele>86.800003051758</ele>
        <time>2018-02-03T13:33:47.000Z</time>
      </trkpt>
      <trkpt lat="43.3877" lon="6.65345">
        <ele>87.199996948242</ele>
        <time>2018-02-03T13:33:48.000Z</time>
      </trkpt>
      <trkpt lat="43.38774" lon="6.65347">
        <ele>88</ele>
        <time>2018-02-03T13:33:53.000Z</time>
      </trkpt>
      <trkpt lat="43.38776" lon="6.65348">
        <ele>88.400001525879</ele>
        <time>2018-02-03T13:33:55.000Z</time>
      </trkpt>
      <trkpt lat="43.38785" lon="6.6535">
        <ele>88.800003051758</ele>
        <time>2018-02-03T13:34:01.000Z</time>
      </trkpt>
      <trkpt lat="43.38788" lon="6.6535">
        <ele>89.199996948242</ele>
        <time>2018-02-03T13:34:03.000Z</time>
      </trkpt>
      <trkpt lat="43.38797" lon="6.65351">
        <ele>90.199996948242</ele>
        <time>2018-02-03T13:34:09.000Z</time>
      </trkpt>
      <trkpt lat="43.38809" lon="6.65352">
        <ele>91.199996948242</ele>
        <time>2018-02-03T13:34:16.000Z</time>
      </trkpt>
      <trkpt lat="43.3881" lon="6.65352">
        <ele>91.400001525879</ele>
        <time>2018-02-03T13:34:17.000Z</time>
      </trkpt>
      <trkpt lat="43.38819" lon="6.65355">
        <ele>92.400001525879</ele>
        <time>2018-02-03T13:34:23.000Z</time>
      </trkpt>
      <trkpt lat="43.38824" lon="6.65356">
        <ele>92.800003051758</ele>
        <time>2018-02-03T13:34:26.000Z</time>
      </trkpt>
      <trkpt lat="43.38839" lon="6.65359">
        <ele>93</ele>
        <time>2018-02-03T13:34:32.000Z</time>
      </trkpt>
      <trkpt lat="43.38858" lon="6.65357">
        <ele>93.400001525879</ele>
        <time>2018-02-03T13:34:39.000Z</time>
      </trkpt>
      <trkpt lat="43.38861" lon="6.65355">
        <ele>93.599998474121</ele>
        <time>2018-02-03T13:34:40.000Z</time>
      </trkpt>
      <trkpt lat="43.38875" lon="6.65339">
        <ele>93.599998474121</ele>
        <time>2018-02-03T13:34:45.000Z</time>
      </trkpt>
      <trkpt lat="43.38892" lon="6.65331">
        <ele>93.599998474121</ele>
        <time>2018-02-03T13:34:50.000Z</time>
      </trkpt>
      <trkpt lat="43.38903" lon="6.65327">
        <ele>94.599998474121</ele>
        <time>2018-02-03T13:34:54.000Z</time>
      </trkpt>
      <trkpt lat="43.38909" lon="6.65324">
        <ele>95.199996948242</ele>
        <time>2018-02-03T13:34:56.000Z</time>
      </trkpt>
      <trkpt lat="43.3891" lon="6.65323">
        <ele>95.599998474121</ele>
        <time>2018-02-03T13:34:57.000Z</time>
      </trkpt>
      <trkpt lat="43.38916" lon="6.65319">
        <ele>97</ele>
        <time>2018-02-03T13:35:00.000Z</time>
      </trkpt>
      <trkpt lat="43.38917" lon="6.65317">
        <ele>97.199996948242</ele>
        <time>2018-02-03T13:35:01.000Z</time>
      </trkpt>
      <trkpt lat="43.38928" lon="6.6531">
        <ele>98.199996948242</ele>
        <time>2018-02-03T13:35:06.000Z</time>
      </trkpt>
      <trkpt lat="43.38936" lon="6.65305">
        <ele>98.199996948242</ele>
        <time>2018-02-03T13:35:09.000Z</time>
      </trkpt>
      <trkpt lat="43.38956" lon="6.65298">
        <ele>97</ele>
        <time>2018-02-03T13:35:15.000Z</time>
      </trkpt>
      <trkpt lat="43.3896" lon="6.65297">
        <ele>97</ele>
        <time>2018-02-03T13:35:16.000Z</time>
      </trkpt>
      <trkpt lat="43.38975" lon="6.65302">
        <ele>97.800003051758</ele>
        <time>2018-02-03T13:35:21.000Z</time>
      </trkpt>
      <trkpt lat="43.38984" lon="6.65309">
        <ele>98.199996948242</ele>
        <time>2018-02-03T13:35:26.000Z</time>
      </trkpt>
      <trkpt lat="43.38989" lon="6.65316">
        <ele>99.199996948242</ele>
        <time>2018-02-03T13:35:31.000Z</time>
      </trkpt>
      <trkpt lat="43.38991" lon="6.65319">
        <ele>99.800003051758</ele>
        <time>2018-02-03T13:35:33.000Z</time>
      </trkpt>
      <trkpt lat="43.38994" lon="6.6532">
        <ele>100.40000152588</ele>
        <time>2018-02-03T13:35:35.000Z</time>
      </trkpt>
      <trkpt lat="43.38999" lon="6.65321">
        <ele>101.19999694824</ele>
        <time>2018-02-03T13:35:38.000Z</time>
      </trkpt>
      <trkpt lat="43.39001" lon="6.6532">
        <ele>101.40000152588</ele>
        <time>2018-02-03T13:35:39.000Z</time>
      </trkpt>
      <trkpt lat="43.39012" lon="6.65315">
        <ele>102.19999694824</ele>
        <time>2018-02-03T13:35:44.000Z</time>
      </trkpt>
      <trkpt lat="43.39017" lon="6.65313">
        <ele>102.80000305176</ele>
        <time>2018-02-03T13:35:47.000Z</time>
      </trkpt>
      <trkpt lat="43.39021" lon="6.65311">
        <ele>103.80000305176</ele>
        <time>2018-02-03T13:35:50.000Z</time>
      </trkpt>
      <trkpt lat="43.39024" lon="6.6531">
        <ele>105</ele>
        <time>2018-02-03T13:35:53.000Z</time>
      </trkpt>
      <trkpt lat="43.3903" lon="6.6531">
        <ele>106.40000152588</ele>
        <time>2018-02-03T13:35:57.000Z</time>
      </trkpt>
      <trkpt lat="43.39034" lon="6.65311">
        <ele>107.40000152588</ele>
        <time>2018-02-03T13:36:00.000Z</time>
      </trkpt>
      <trkpt lat="43.39039" lon="6.65311">
        <ele>107.80000305176</ele>
        <time>2018-02-03T13:36:03.000Z</time>
      </trkpt>
      <trkpt lat="43.3905" lon="6.65318">
        <ele>108.40000152588</ele>
        <time>2018-02-03T13:36:10.000Z</time>
      </trkpt>
      <trkpt lat="43.39059" lon="6.65325">
        <ele>109.19999694824</ele>
        <time>2018-02-03T13:36:16.000Z</time>
      </trkpt>
      <trkpt lat="43.39062" lon="6.65326">
        <ele>109.59999847412</ele>
        <time>2018-02-03T13:36:18.000Z</time>
      </trkpt>
      <trkpt lat="43.3907" lon="6.65327">
        <ele>110.40000152588</ele>
        <time>2018-02-03T13:36:22.000Z</time>
      </trkpt>
      <trkpt lat="43.39075" lon="6.65326">
        <ele>110.59999847412</ele>
        <time>2018-02-03T13:36:25.000Z</time>
      </trkpt>
      <trkpt lat="43.39082" lon="6.65325">
        <ele>110.80000305176</ele>
        <time>2018-02-03T13:36:29.000Z</time>
      </trkpt>
      <trkpt lat="43.39095" lon="6.65321">
        <ele>111.80000305176</ele>
        <time>2018-02-03T13:36:36.000Z</time>
      </trkpt>
      <trkpt lat="43.39098" lon="6.6532">
        <ele>112</ele>
        <time>2018-02-03T13:36:38.000Z</time>
      </trkpt>
      <trkpt lat="43.39103" lon="6.6532">
        <ele>112.80000305176</ele>
        <time>2018-02-03T13:36:41.000Z</time>
      </trkpt>
      <trkpt lat="43.39109" lon="6.65321">
        <ele>114</ele>
        <time>2018-02-03T13:36:45.000Z</time>
      </trkpt>
      <trkpt lat="43.39116" lon="6.65327">
        <ele>115.19999694824</ele>
        <time>2018-02-03T13:36:50.000Z</time>
      </trkpt>
      <trkpt lat="43.39118" lon="6.65329">
        <ele>115.40000152588</ele>
        <time>2018-02-03T13:36:51.000Z</time>
      </trkpt>
      <trkpt lat="43.39123" lon="6.65335">
        <ele>116</ele>
        <time>2018-02-03T13:36:56.000Z</time>
      </trkpt>
      <trkpt lat="43.39123" lon="6.65336">
        <ele>116.40000152588</ele>
        <time>2018-02-03T13:36:57.000Z</time>
      </trkpt>
      <trkpt lat="43.39125" lon="6.65339">
        <ele>117.40000152588</ele>
        <time>2018-02-03T13:37:00.000Z</time>
      </trkpt>
      <trkpt lat="43.39126" lon="6.65341">
        <ele>118.19999694824</ele>
        <time>2018-02-03T13:37:02.000Z</time>
      </trkpt>
      <trkpt lat="43.39126" lon="6.65342">
        <ele>118.59999847412</ele>
        <time>2018-02-03T13:37:03.000Z</time>
      </trkpt>
      <trkpt lat="43.3913" lon="6.65344">
        <ele>119.80000305176</ele>
        <time>2018-02-03T13:37:08.000Z</time>
      </trkpt>
      <trkpt lat="43.39132" lon="6.65345">
        <ele>120.59999847412</ele>
        <time>2018-02-03T13:37:10.000Z</time>
      </trkpt>
      <trkpt lat="43.39133" lon="6.65346">
        <ele>121</ele>
        <time>2018-02-03T13:37:11.000Z</time>
      </trkpt>
      <trkpt lat="43.39136" lon="6.65347">
        <ele>122.19999694824</ele>
        <time>2018-02-03T13:37:16.000Z</time>
      </trkpt>
      <trkpt lat="43.39142" lon="6.65349">
        <ele>123.19999694824</ele>
        <time>2018-02-03T13:37:22.000Z</time>
      </trkpt>
      <trkpt lat="43.39143" lon="6.6535">
        <ele>123.40000152588</ele>
        <time>2018-02-03T13:37:23.000Z</time>
      </trkpt>
      <trkpt lat="43.39145" lon="6.65352">
        <ele>124.19999694824</ele>
        <time>2018-02-03T13:37:26.000Z</time>
      </trkpt>
      <trkpt lat="43.39145" lon="6.65352">
        <ele>124.80000305176</ele>
        <time>2018-02-03T13:37:28.000Z</time>
      </trkpt>
      <trkpt lat="43.39145" lon="6.65352">
        <ele>125.40000152588</ele>
        <time>2018-02-03T13:37:30.000Z</time>
      </trkpt>
      <trkpt lat="43.39145" lon="6.65351">
        <ele>125.40000152588</ele>
        <time>2018-02-03T13:37:33.000Z</time>
      </trkpt>
      <trkpt lat="43.39147" lon="6.65352">
        <ele>125.80000305176</ele>
        <time>2018-02-03T13:37:41.000Z</time>
      </trkpt>
      <trkpt lat="43.39152" lon="6.65352">
        <ele>126.19999694824</ele>
        <time>2018-02-03T13:37:46.000Z</time>
      </trkpt>
      <trkpt lat="43.39153" lon="6.65352">
        <ele>126.40000152588</ele>
        <time>2018-02-03T13:37:47.000Z</time>
      </trkpt>
      <trkpt lat="43.39157" lon="6.65355">
        <ele>127.59999847412</ele>
        <time>2018-02-03T13:37:52.000Z</time>
      </trkpt>
      <trkpt lat="43.39161" lon="6.65358">
        <ele>128.80000305176</ele>
        <time>2018-02-03T13:37:58.000Z</time>
      </trkpt>
      <trkpt lat="43.39162" lon="6.65358">
        <ele>129</ele>
        <time>2018-02-03T13:37:59.000Z</time>
      </trkpt>
      <trkpt lat="43.39166" lon="6.65361">
        <ele>130</ele>
        <time>2018-02-03T13:38:04.000Z</time>
      </trkpt>
      <trkpt lat="43.39166" lon="6.65361">
        <ele>130</ele>
        <time>2018-02-03T13:38:05.000Z</time>
      </trkpt>
      <trkpt lat="43.39173" lon="6.65364">
        <ele>130.80000305176</ele>
        <time>2018-02-03T13:38:11.000Z</time>
      </trkpt>
      <trkpt lat="43.39175" lon="6.65364">
        <ele>131</ele>
        <time>2018-02-03T13:38:13.000Z</time>
      </trkpt>
      <trkpt lat="43.39178" lon="6.65363">
        <ele>131.39999389648</ele>
        <time>2018-02-03T13:38:16.000Z</time>
      </trkpt>
      <trkpt lat="43.39177" lon="6.65363">
        <ele>132</ele>
        <time>2018-02-03T13:38:18.000Z</time>
      </trkpt>
      <trkpt lat="43.39177" lon="6.65363">
        <ele>132.39999389648</ele>
        <time>2018-02-03T13:38:20.000Z</time>
      </trkpt>
      <trkpt lat="43.39178" lon="6.65363">
        <ele>132.39999389648</ele>
        <time>2018-02-03T13:38:29.000Z</time>
      </trkpt>
      <trkpt lat="43.39182" lon="6.65363">
        <ele>132.80000305176</ele>
        <time>2018-02-03T13:38:34.000Z</time>
      </trkpt>
      <trkpt lat="43.39184" lon="6.65362">
        <ele>133.19999694824</ele>
        <time>2018-02-03T13:38:37.000Z</time>
      </trkpt>
      <trkpt lat="43.39187" lon="6.65362">
        <ele>134</ele>
        <time>2018-02-03T13:38:41.000Z</time>
      </trkpt>
      <trkpt lat="43.39189" lon="6.65361">
        <ele>134.19999694824</ele>
        <time>2018-02-03T13:38:43.000Z</time>
      </trkpt>
      <trkpt lat="43.3919" lon="6.6536">
        <ele>134.60000610352</ele>
        <time>2018-02-03T13:38:45.000Z</time>
      </trkpt>
      <trkpt lat="43.39191" lon="6.6536">
        <ele>135</ele>
        <time>2018-02-03T13:38:46.000Z</time>
      </trkpt>
      <trkpt lat="43.39192" lon="6.65359">
        <ele>135.19999694824</ele>
        <time>2018-02-03T13:38:48.000Z</time>
      </trkpt>
      <trkpt lat="43.39193" lon="6.65359">
        <ele>135.39999389648</ele>
        <time>2018-02-03T13:38:49.000Z</time>
      </trkpt>
      <trkpt lat="43.39195" lon="6.65358">
        <ele>136</ele>
        <time>2018-02-03T13:38:52.000Z</time>
      </trkpt>
      <trkpt lat="43.39196" lon="6.65358">
        <ele>136.39999389648</ele>
        <time>2018-02-03T13:38:53.000Z</time>
      </trkpt>
      <trkpt lat="43.39199" lon="6.65357">
        <ele>137.39999389648</ele>
        <time>2018-02-03T13:38:58.000Z</time>
      </trkpt>
      <trkpt lat="43.392" lon="6.65357">
        <ele>137.60000610352</ele>
        <time>2018-02-03T13:38:59.000Z</time>
      </trkpt>
      <trkpt lat="43.39202" lon="6.65357">
        <ele>138.39999389648</ele>
        <time>2018-02-03T13:39:02.000Z</time>
      </trkpt>
      <trkpt lat="43.39206" lon="6.65357">
        <ele>139.19999694824</ele>
        <time>2018-02-03T13:39:06.000Z</time>
      </trkpt>
      <trkpt lat="43.39207" lon="6.65357">
        <ele>139.60000610352</ele>
        <time>2018-02-03T13:39:08.000Z</time>
      </trkpt>
      <trkpt lat="43.39211" lon="6.65356">
        <ele>140.39999389648</ele>
        <time>2018-02-03T13:39:12.000Z</time>
      </trkpt>
      <trkpt lat="43.39212" lon="6.65356">
        <ele>140.80000305176</ele>
        <time>2018-02-03T13:39:14.000Z</time>
      </trkpt>
      <trkpt lat="43.39214" lon="6.65356">
        <ele>141.39999389648</ele>
        <time>2018-02-03T13:39:16.000Z</time>
      </trkpt>
      <trkpt lat="43.39216" lon="6.65356">
        <ele>141.80000305176</ele>
        <time>2018-02-03T13:39:19.000Z</time>
      </trkpt>
      <trkpt lat="43.39222" lon="6.65355">
        <ele>142.80000305176</ele>
        <time>2018-02-03T13:39:26.000Z</time>
      </trkpt>
      <trkpt lat="43.39225" lon="6.65355">
        <ele>144.19999694824</ele>
        <time>2018-02-03T13:39:30.000Z</time>
      </trkpt>
      <trkpt lat="43.39228" lon="6.65354">
        <ele>144.80000305176</ele>
        <time>2018-02-03T13:39:33.000Z</time>
      </trkpt>
      <trkpt lat="43.39229" lon="6.65354">
        <ele>145.19999694824</ele>
        <time>2018-02-03T13:39:35.000Z</time>
      </trkpt>
      <trkpt lat="43.39233" lon="6.65353">
        <ele>146.19999694824</ele>
        <time>2018-02-03T13:39:41.000Z</time>
      </trkpt>
      <trkpt lat="43.39236" lon="6.65351">
        <ele>147.39999389648</ele>
        <time>2018-02-03T13:39:46.000Z</time>
      </trkpt>
      <trkpt lat="43.39238" lon="6.6535">
        <ele>148.39999389648</ele>
        <time>2018-02-03T13:39:49.000Z</time>
      </trkpt>
      <trkpt lat="43.39239" lon="6.6535">
        <ele>148.60000610352</ele>
        <time>2018-02-03T13:39:50.000Z</time>
      </trkpt>
      <trkpt lat="43.39241" lon="6.65348">
        <ele>149.60000610352</ele>
        <time>2018-02-03T13:39:54.000Z</time>
      </trkpt>
      <trkpt lat="43.39243" lon="6.65347">
        <ele>150.19999694824</ele>
        <time>2018-02-03T13:39:56.000Z</time>
      </trkpt>
      <trkpt lat="43.39246" lon="6.65347">
        <ele>150.80000305176</ele>
        <time>2018-02-03T13:39:59.000Z</time>
      </trkpt>
      <trkpt lat="43.39248" lon="6.65346">
        <ele>151</ele>
        <time>2018-02-03T13:40:04.000Z</time>
      </trkpt>
      <trkpt lat="43.39252" lon="6.65345">
        <ele>151.80000305176</ele>
        <time>2018-02-03T13:40:09.000Z</time>
      </trkpt>
      <trkpt lat="43.39253" lon="6.65345">
        <ele>152.19999694824</ele>
        <time>2018-02-03T13:40:11.000Z</time>
      </trkpt>
      <trkpt lat="43.39254" lon="6.65346">
        <ele>152.80000305176</ele>
        <time>2018-02-03T13:40:14.000Z</time>
      </trkpt>
      <trkpt lat="43.39256" lon="6.65346">
        <ele>153.60000610352</ele>
        <time>2018-02-03T13:40:18.000Z</time>
      </trkpt>
      <trkpt lat="43.39258" lon="6.65346">
        <ele>154</ele>
        <time>2018-02-03T13:40:20.000Z</time>
      </trkpt>
      <trkpt lat="43.39261" lon="6.65346">
        <ele>155.19999694824</ele>
        <time>2018-02-03T13:40:25.000Z</time>
      </trkpt>
      <trkpt lat="43.39262" lon="6.65346">
        <ele>156.19999694824</ele>
        <time>2018-02-03T13:40:28.000Z</time>
      </trkpt>
      <trkpt lat="43.39263" lon="6.65346">
        <ele>156.60000610352</ele>
        <time>2018-02-03T13:40:30.000Z</time>
      </trkpt>
      <trkpt lat="43.39265" lon="6.65346">
        <ele>157.19999694824</ele>
        <time>2018-02-03T13:40:32.000Z</time>
      </trkpt>
      <trkpt lat="43.39268" lon="6.65345">
        <ele>158.19999694824</ele>
        <time>2018-02-03T13:40:37.000Z</time>
      </trkpt>
      <trkpt lat="43.39269" lon="6.65345">
        <ele>158.39999389648</ele>
        <time>2018-02-03T13:40:38.000Z</time>
      </trkpt>
      <trkpt lat="43.39271" lon="6.65345">
        <ele>159.60000610352</ele>
        <time>2018-02-03T13:40:42.000Z</time>
      </trkpt>
      <trkpt lat="43.39274" lon="6.65344">
        <ele>160.39999389648</ele>
        <time>2018-02-03T13:40:45.000Z</time>
      </trkpt>
      <trkpt lat="43.39275" lon="6.65343">
        <ele>160.80000305176</ele>
        <time>2018-02-03T13:40:47.000Z</time>
      </trkpt>
      <trkpt lat="43.39278" lon="6.65342">
        <ele>161.19999694824</ele>
        <time>2018-02-03T13:40:51.000Z</time>
      </trkpt>
      <trkpt lat="43.3928" lon="6.6534">
        <ele>161.80000305176</ele>
        <time>2018-02-03T13:40:55.000Z</time>
      </trkpt>
      <trkpt lat="43.39282" lon="6.65338">
        <ele>162.19999694824</ele>
        <time>2018-02-03T13:40:57.000Z</time>
      </trkpt>
      <trkpt lat="43.39283" lon="6.65337">
        <ele>162.80000305176</ele>
        <time>2018-02-03T13:40:59.000Z</time>
      </trkpt>
      <trkpt lat="43.39284" lon="6.65333">
        <ele>163.60000610352</ele>
        <time>2018-02-03T13:41:04.000Z</time>
      </trkpt>
      <trkpt lat="43.39285" lon="6.65331">
        <ele>164</ele>
        <time>2018-02-03T13:41:06.000Z</time>
      </trkpt>
      <trkpt lat="43.39286" lon="6.65328">
        <ele>164.60000610352</ele>
        <time>2018-02-03T13:41:09.000Z</time>
      </trkpt>
      <trkpt lat="43.39286" lon="6.65326">
        <ele>164.80000305176</ele>
        <time>2018-02-03T13:41:11.000Z</time>
      </trkpt>
      <trkpt lat="43.39287" lon="6.65322">
        <ele>165.19999694824</ele>
        <time>2018-02-03T13:41:14.000Z</time>
      </trkpt>
      <trkpt lat="43.39289" lon="6.65319">
        <ele>165.19999694824</ele>
        <time>2018-02-03T13:41:17.000Z</time>
      </trkpt>
      <trkpt lat="43.39291" lon="6.65316">
        <ele>166.19999694824</ele>
        <time>2018-02-03T13:41:22.000Z</time>
      </trkpt>
      <trkpt lat="43.39292" lon="6.65316">
        <ele>166.39999389648</ele>
        <time>2018-02-03T13:41:23.000Z</time>
      </trkpt>
      <trkpt lat="43.39293" lon="6.65314">
        <ele>167.19999694824</ele>
        <time>2018-02-03T13:41:27.000Z</time>
      </trkpt>
      <trkpt lat="43.39294" lon="6.65311">
        <ele>167.60000610352</ele>
        <time>2018-02-03T13:41:29.000Z</time>
      </trkpt>
      <trkpt lat="43.39295" lon="6.65307">
        <ele>168.39999389648</ele>
        <time>2018-02-03T13:41:34.000Z</time>
      </trkpt>
      <trkpt lat="43.39295" lon="6.65305">
        <ele>169.19999694824</ele>
        <time>2018-02-03T13:41:37.000Z</time>
      </trkpt>
      <trkpt lat="43.39296" lon="6.65303">
        <ele>169.39999389648</ele>
        <time>2018-02-03T13:41:39.000Z</time>
      </trkpt>
      <trkpt lat="43.39297" lon="6.65299">
        <ele>170.39999389648</ele>
        <time>2018-02-03T13:41:44.000Z</time>
      </trkpt>
      <trkpt lat="43.39297" lon="6.65298">
        <ele>170.60000610352</ele>
        <time>2018-02-03T13:41:45.000Z</time>
      </trkpt>
      <trkpt lat="43.39298" lon="6.65294">
        <ele>171.80000305176</ele>
        <time>2018-02-03T13:41:51.000Z</time>
      </trkpt>
      <trkpt lat="43.39298" lon="6.65289">
        <ele>173</ele>
        <time>2018-02-03T13:41:56.000Z</time>
      </trkpt>
      <trkpt lat="43.39298" lon="6.65288">
        <ele>173.19999694824</ele>
        <time>2018-02-03T13:41:58.000Z</time>
      </trkpt>
      <trkpt lat="43.39298" lon="6.65284">
        <ele>174</ele>
        <time>2018-02-03T13:42:03.000Z</time>
      </trkpt>
      <trkpt lat="43.39298" lon="6.65281">
        <ele>174.80000305176</ele>
        <time>2018-02-03T13:42:07.000Z</time>
      </trkpt>
      <trkpt lat="43.39298" lon="6.65279">
        <ele>175.19999694824</ele>
        <time>2018-02-03T13:42:09.000Z</time>
      </trkpt>
      <trkpt lat="43.39298" lon="6.65277">
        <ele>175.80000305176</ele>
        <time>2018-02-03T13:42:11.000Z</time>
      </trkpt>
      <trkpt lat="43.39298" lon="6.65274">
        <ele>176.39999389648</ele>
        <time>2018-02-03T13:42:14.000Z</time>
      </trkpt>
      <trkpt lat="43.39298" lon="6.65273">
        <ele>176.60000610352</ele>
        <time>2018-02-03T13:42:15.000Z</time>
      </trkpt>
      <trkpt lat="43.39298" lon="6.65267">
        <ele>177.19999694824</ele>
        <time>2018-02-03T13:42:22.000Z</time>
      </trkpt>
      <trkpt lat="43.39298" lon="6.65266">
        <ele>177.60000610352</ele>
        <time>2018-02-03T13:42:24.000Z</time>
      </trkpt>
      <trkpt lat="43.39298" lon="6.65262">
        <ele>178.60000610352</ele>
        <time>2018-02-03T13:42:27.000Z</time>
      </trkpt>
      <trkpt lat="43.39299" lon="6.65261">
        <ele>178.80000305176</ele>
        <time>2018-02-03T13:42:28.000Z</time>
      </trkpt>
      <trkpt lat="43.393" lon="6.65255">
        <ele>179.80000305176</ele>
        <time>2018-02-03T13:42:33.000Z</time>
      </trkpt>
      <trkpt lat="43.393" lon="6.65254">
        <ele>180</ele>
        <time>2018-02-03T13:42:34.000Z</time>
      </trkpt>
      <trkpt lat="43.39302" lon="6.6525">
        <ele>181.19999694824</ele>
        <time>2018-02-03T13:42:38.000Z</time>
      </trkpt>
      <trkpt lat="43.39303" lon="6.65248">
        <ele>181.60000610352</ele>
        <time>2018-02-03T13:42:41.000Z</time>
      </trkpt>
      <trkpt lat="43.39306" lon="6.65244">
        <ele>182.39999389648</ele>
        <time>2018-02-03T13:42:46.000Z</time>
      </trkpt>
      <trkpt lat="43.39309" lon="6.6524">
        <ele>183.19999694824</ele>
        <time>2018-02-03T13:42:51.000Z</time>
      </trkpt>
      <trkpt lat="43.3931" lon="6.65238">
        <ele>183.39999389648</ele>
        <time>2018-02-03T13:42:53.000Z</time>
      </trkpt>
      <trkpt lat="43.39311" lon="6.65237">
        <ele>183.80000305176</ele>
        <time>2018-02-03T13:42:58.000Z</time>
      </trkpt>
      <trkpt lat="43.39312" lon="6.65236">
        <ele>183.80000305176</ele>
        <time>2018-02-03T13:42:59.000Z</time>
      </trkpt>
      <trkpt lat="43.39317" lon="6.65233">
        <ele>183.60000610352</ele>
        <time>2018-02-03T13:43:03.000Z</time>
      </trkpt>
      <trkpt lat="43.39318" lon="6.65232">
        <ele>183.60000610352</ele>
        <time>2018-02-03T13:43:04.000Z</time>
      </trkpt>
      <trkpt lat="43.39325" lon="6.6522">
        <ele>184.19999694824</ele>
        <time>2018-02-03T13:43:11.000Z</time>
      </trkpt>
      <trkpt lat="43.39327" lon="6.65215">
        <ele>184.39999389648</ele>
        <time>2018-02-03T13:43:13.000Z</time>
      </trkpt>
      <trkpt lat="43.39332" lon="6.65204">
        <ele>184.80000305176</ele>
        <time>2018-02-03T13:43:17.000Z</time>
      </trkpt>
      <trkpt lat="43.39336" lon="6.65195">
        <ele>185.60000610352</ele>
        <time>2018-02-03T13:43:21.000Z</time>
      </trkpt>
      <trkpt lat="43.39341" lon="6.65185">
        <ele>186.39999389648</ele>
        <time>2018-02-03T13:43:26.000Z</time>
      </trkpt>
      <trkpt lat="43.39341" lon="6.65183">
        <ele>186.60000610352</ele>
        <time>2018-02-03T13:43:27.000Z</time>
      </trkpt>
      <trkpt lat="43.39345" lon="6.65174">
        <ele>187.80000305176</ele>
        <time>2018-02-03T13:43:33.000Z</time>
      </trkpt>
      <trkpt lat="43.39349" lon="6.65166">
        <ele>188</ele>
        <time>2018-02-03T13:43:38.000Z</time>
      </trkpt>
      <trkpt lat="43.39358" lon="6.65161">
        <ele>188.39999389648</ele>
        <time>2018-02-03T13:43:44.000Z</time>
      </trkpt>
      <trkpt lat="43.39365" lon="6.65152">
        <ele>188.60000610352</ele>
        <time>2018-02-03T13:43:49.000Z</time>
      </trkpt>
      <trkpt lat="43.39375" lon="6.65146">
        <ele>188.80000305176</ele>
        <time>2018-02-03T13:43:54.000Z</time>
      </trkpt>
      <trkpt lat="43.39377" lon="6.65146">
        <ele>189</ele>
        <time>2018-02-03T13:43:55.000Z</time>
      </trkpt>
      <trkpt lat="43.39386" lon="6.65156">
        <ele>189.80000305176</ele>
        <time>2018-02-03T13:44:00.000Z</time>
      </trkpt>
      <trkpt lat="43.39397" lon="6.65176">
        <ele>190.80000305176</ele>
        <time>2018-02-03T13:44:08.000Z</time>
      </trkpt>
      <trkpt lat="43.39398" lon="6.65177">
        <ele>190.80000305176</ele>
        <time>2018-02-03T13:44:09.000Z</time>
      </trkpt>
      <trkpt lat="43.39399" lon="6.65178">
        <ele>191</ele>
        <time>2018-02-03T13:44:10.000Z</time>
      </trkpt>
      <trkpt lat="43.39402" lon="6.65175">
        <ele>191.60000610352</ele>
        <time>2018-02-03T13:44:13.000Z</time>
      </trkpt>
      <trkpt lat="43.39401" lon="6.65169">
        <ele>192</ele>
        <time>2018-02-03T13:44:15.000Z</time>
      </trkpt>
      <trkpt lat="43.39401" lon="6.65164">
        <ele>192</ele>
        <time>2018-02-03T13:44:17.000Z</time>
      </trkpt>
      <trkpt lat="43.39399" lon="6.65148">
        <ele>192.80000305176</ele>
        <time>2018-02-03T13:44:23.000Z</time>
      </trkpt>
      <trkpt lat="43.39403" lon="6.65133">
        <ele>192.60000610352</ele>
        <time>2018-02-03T13:44:29.000Z</time>
      </trkpt>
      <trkpt lat="43.3941" lon="6.65118">
        <ele>193</ele>
        <time>2018-02-03T13:44:35.000Z</time>
      </trkpt>
      <trkpt lat="43.39412" lon="6.65113">
        <ele>193.80000305176</ele>
        <time>2018-02-03T13:44:37.000Z</time>
      </trkpt>
      <trkpt lat="43.39415" lon="6.65105">
        <ele>194.39999389648</ele>
        <time>2018-02-03T13:44:40.000Z</time>
      </trkpt>
      <trkpt lat="43.39422" lon="6.65089">
        <ele>195.39999389648</ele>
        <time>2018-02-03T13:44:45.000Z</time>
      </trkpt>
      <trkpt lat="43.39423" lon="6.65086">
        <ele>195.60000610352</ele>
        <time>2018-02-03T13:44:46.000Z</time>
      </trkpt>
      <trkpt lat="43.39434" lon="6.65069">
        <ele>196.60000610352</ele>
        <time>2018-02-03T13:44:52.000Z</time>
      </trkpt>
      <trkpt lat="43.39438" lon="6.65065">
        <ele>196.80000305176</ele>
        <time>2018-02-03T13:44:54.000Z</time>
      </trkpt>
      <trkpt lat="43.3946" lon="6.65042">
        <ele>197</ele>
        <time>2018-02-03T13:45:03.000Z</time>
      </trkpt>
      <trkpt lat="43.39479" lon="6.6503">
        <ele>197.19999694824</ele>
        <time>2018-02-03T13:45:10.000Z</time>
      </trkpt>
      <trkpt lat="43.39484" lon="6.65027">
        <ele>197.60000610352</ele>
        <time>2018-02-03T13:45:12.000Z</time>
      </trkpt>
      <trkpt lat="43.39491" lon="6.65014">
        <ele>198.39999389648</ele>
        <time>2018-02-03T13:45:16.000Z</time>
      </trkpt>
      <trkpt lat="43.39497" lon="6.64988">
        <ele>198.39999389648</ele>
        <time>2018-02-03T13:45:22.000Z</time>
      </trkpt>
      <trkpt lat="43.39497" lon="6.6496">
        <ele>197.39999389648</ele>
        <time>2018-02-03T13:45:27.000Z</time>
      </trkpt>
      <trkpt lat="43.39499" lon="6.64937">
        <ele>196.39999389648</ele>
        <time>2018-02-03T13:45:30.000Z</time>
      </trkpt>
      <trkpt lat="43.39504" lon="6.64917">
        <ele>194.80000305176</ele>
        <time>2018-02-03T13:45:33.000Z</time>
      </trkpt>
      <trkpt lat="43.39511" lon="6.64898">
        <ele>193.80000305176</ele>
        <time>2018-02-03T13:45:36.000Z</time>
      </trkpt>
      <trkpt lat="43.39517" lon="6.64887">
        <ele>193.39999389648</ele>
        <time>2018-02-03T13:45:38.000Z</time>
      </trkpt>
      <trkpt lat="43.3952" lon="6.64883">
        <ele>193.19999694824</ele>
        <time>2018-02-03T13:45:39.000Z</time>
      </trkpt>
      <trkpt lat="43.39531" lon="6.64871">
        <ele>192.80000305176</ele>
        <time>2018-02-03T13:45:42.000Z</time>
      </trkpt>
      <trkpt lat="43.39534" lon="6.64868">
        <ele>192.60000610352</ele>
        <time>2018-02-03T13:45:43.000Z</time>
      </trkpt>
      <trkpt lat="43.39562" lon="6.64848">
        <ele>192.19999694824</ele>
        <time>2018-02-03T13:45:50.000Z</time>
      </trkpt>
      <trkpt lat="43.39584" lon="6.64837">
        <ele>192.39999389648</ele>
        <time>2018-02-03T13:45:57.000Z</time>
      </trkpt>
      <trkpt lat="43.39597" lon="6.64834">
        <ele>193.80000305176</ele>
        <time>2018-02-03T13:46:02.000Z</time>
      </trkpt>
      <trkpt lat="43.396" lon="6.64833">
        <ele>193.80000305176</ele>
        <time>2018-02-03T13:46:03.000Z</time>
      </trkpt>
      <trkpt lat="43.39614" lon="6.64826">
        <ele>194.80000305176</ele>
        <time>2018-02-03T13:46:08.000Z</time>
      </trkpt>
      <trkpt lat="43.39623" lon="6.6481">
        <ele>194.39999389648</ele>
        <time>2018-02-03T13:46:13.000Z</time>
      </trkpt>
      <trkpt lat="43.39632" lon="6.64782">
        <ele>194.80000305176</ele>
        <time>2018-02-03T13:46:20.000Z</time>
      </trkpt>
      <trkpt lat="43.39632" lon="6.64769">
        <ele>194.39999389648</ele>
        <time>2018-02-03T13:46:22.000Z</time>
      </trkpt>
      <trkpt lat="43.39629" lon="6.64757">
        <ele>193.80000305176</ele>
        <time>2018-02-03T13:46:24.000Z</time>
      </trkpt>
      <trkpt lat="43.39623" lon="6.64738">
        <ele>192.39999389648</ele>
        <time>2018-02-03T13:46:27.000Z</time>
      </trkpt>
      <trkpt lat="43.39618" lon="6.64733">
        <ele>191.39999389648</ele>
        <time>2018-02-03T13:46:29.000Z</time>
      </trkpt>
      <trkpt lat="43.39615" lon="6.6473">
        <ele>190.80000305176</ele>
        <time>2018-02-03T13:46:30.000Z</time>
      </trkpt>
      <trkpt lat="43.39612" lon="6.64727">
        <ele>189.39999389648</ele>
        <time>2018-02-03T13:46:32.000Z</time>
      </trkpt>
      <trkpt lat="43.3961" lon="6.64727">
        <ele>189.19999694824</ele>
        <time>2018-02-03T13:46:33.000Z</time>
      </trkpt>
      <trkpt lat="43.39606" lon="6.64728">
        <ele>188.39999389648</ele>
        <time>2018-02-03T13:46:35.000Z</time>
      </trkpt>
      <trkpt lat="43.39597" lon="6.64732">
        <ele>188.39999389648</ele>
        <time>2018-02-03T13:46:38.000Z</time>
      </trkpt>
      <trkpt lat="43.3958" lon="6.64742">
        <ele>187</ele>
        <time>2018-02-03T13:46:42.000Z</time>
      </trkpt>
      <trkpt lat="43.39575" lon="6.64744">
        <ele>186.80000305176</ele>
        <time>2018-02-03T13:46:43.000Z</time>
      </trkpt>
      <trkpt lat="43.3956" lon="6.64747">
        <ele>185.80000305176</ele>
        <time>2018-02-03T13:46:46.000Z</time>
      </trkpt>
      <trkpt lat="43.39555" lon="6.64747">
        <ele>185.80000305176</ele>
        <time>2018-02-03T13:46:47.000Z</time>
      </trkpt>
      <trkpt lat="43.39545" lon="6.64746">
        <ele>185.60000610352</ele>
        <time>2018-02-03T13:46:49.000Z</time>
      </trkpt>
      <trkpt lat="43.3952" lon="6.64738">
        <ele>185.39999389648</ele>
        <time>2018-02-03T13:46:55.000Z</time>
      </trkpt>
      <trkpt lat="43.39488" lon="6.64738">
        <ele>184.80000305176</ele>
        <time>2018-02-03T13:47:02.000Z</time>
      </trkpt>
      <trkpt lat="43.39464" lon="6.64739">
        <ele>183.80000305176</ele>
        <time>2018-02-03T13:47:07.000Z</time>
      </trkpt>
      <trkpt lat="43.39455" lon="6.64738">
        <ele>183.60000610352</ele>
        <time>2018-02-03T13:47:09.000Z</time>
      </trkpt>
      <trkpt lat="43.39433" lon="6.64736">
        <ele>183.80000305176</ele>
        <time>2018-02-03T13:47:14.000Z</time>
      </trkpt>
      <trkpt lat="43.39424" lon="6.64734">
        <ele>183.80000305176</ele>
        <time>2018-02-03T13:47:16.000Z</time>
      </trkpt>
      <trkpt lat="43.39416" lon="6.6473">
        <ele>183.80000305176</ele>
        <time>2018-02-03T13:47:18.000Z</time>
      </trkpt>
      <trkpt lat="43.394" lon="6.64721">
        <ele>184.19999694824</ele>
        <time>2018-02-03T13:47:23.000Z</time>
      </trkpt>
      <trkpt lat="43.39393" lon="6.64714">
        <ele>184.80000305176</ele>
        <time>2018-02-03T13:47:26.000Z</time>
      </trkpt>
      <trkpt lat="43.39389" lon="6.64711">
        <ele>185.19999694824</ele>
        <time>2018-02-03T13:47:28.000Z</time>
      </trkpt>
      <trkpt lat="43.39383" lon="6.64706">
        <ele>185.80000305176</ele>
        <time>2018-02-03T13:47:31.000Z</time>
      </trkpt>
      <trkpt lat="43.39377" lon="6.647">
        <ele>186.60000610352</ele>
        <time>2018-02-03T13:47:34.000Z</time>
      </trkpt>
      <trkpt lat="43.39373" lon="6.64695">
        <ele>187</ele>
        <time>2018-02-03T13:47:36.000Z</time>
      </trkpt>
      <trkpt lat="43.39365" lon="6.64686">
        <ele>188.39999389648</ele>
        <time>2018-02-03T13:47:41.000Z</time>
      </trkpt>
      <trkpt lat="43.39358" lon="6.64677">
        <ele>189.39999389648</ele>
        <time>2018-02-03T13:47:45.000Z</time>
      </trkpt>
      <trkpt lat="43.39355" lon="6.64673">
        <ele>190</ele>
        <time>2018-02-03T13:47:47.000Z</time>
      </trkpt>
      <trkpt lat="43.39352" lon="6.6467">
        <ele>190.80000305176</ele>
        <time>2018-02-03T13:47:49.000Z</time>
      </trkpt>
      <trkpt lat="43.39346" lon="6.64663">
        <ele>191.80000305176</ele>
        <time>2018-02-03T13:47:53.000Z</time>
      </trkpt>
      <trkpt lat="43.39344" lon="6.64659">
        <ele>192.19999694824</ele>
        <time>2018-02-03T13:47:55.000Z</time>
      </trkpt>
      <trkpt lat="43.39341" lon="6.64652">
        <ele>192.80000305176</ele>
        <time>2018-02-03T13:47:58.000Z</time>
      </trkpt>
      <trkpt lat="43.3934" lon="6.64646">
        <ele>193.19999694824</ele>
        <time>2018-02-03T13:48:01.000Z</time>
      </trkpt>
      <trkpt lat="43.3934" lon="6.6464">
        <ele>194</ele>
        <time>2018-02-03T13:48:04.000Z</time>
      </trkpt>
      <trkpt lat="43.39341" lon="6.64636">
        <ele>195</ele>
        <time>2018-02-03T13:48:07.000Z</time>
      </trkpt>
      <trkpt lat="43.39342" lon="6.64635">
        <ele>195.80000305176</ele>
        <time>2018-02-03T13:48:12.000Z</time>
      </trkpt>
      <trkpt lat="43.39342" lon="6.64635">
        <ele>195.80000305176</ele>
        <time>2018-02-03T13:48:28.000Z</time>
      </trkpt>
      <trkpt lat="43.39342" lon="6.64636">
        <ele>195.39999389648</ele>
        <time>2018-02-03T13:48:45.000Z</time>
      </trkpt>
      <trkpt lat="43.39342" lon="6.64636">
        <ele>195.19999694824</ele>
        <time>2018-02-03T13:49:00.000Z</time>
      </trkpt>
      <trkpt lat="43.39341" lon="6.64636">
        <ele>195</ele>
        <time>2018-02-03T13:49:20.000Z</time>
      </trkpt>
      <trkpt lat="43.39342" lon="6.64634">
        <ele>194.80000305176</ele>
        <time>2018-02-03T13:49:33.000Z</time>
      </trkpt>
      <trkpt lat="43.39343" lon="6.64634">
        <ele>195</ele>
        <time>2018-02-03T13:49:34.000Z</time>
      </trkpt>
      <trkpt lat="43.3935" lon="6.64633">
        <ele>195.60000610352</ele>
        <time>2018-02-03T13:49:39.000Z</time>
      </trkpt>
      <trkpt lat="43.39356" lon="6.64631">
        <ele>195.80000305176</ele>
        <time>2018-02-03T13:49:43.000Z</time>
      </trkpt>
      <trkpt lat="43.39357" lon="6.64631">
        <ele>196</ele>
        <time>2018-02-03T13:49:44.000Z</time>
      </trkpt>
      <trkpt lat="43.39359" lon="6.64631">
        <ele>196.19999694824</ele>
        <time>2018-02-03T13:49:45.000Z</time>
      </trkpt>
      <trkpt lat="43.39369" lon="6.64634">
        <ele>197.19999694824</ele>
        <time>2018-02-03T13:49:51.000Z</time>
      </trkpt>
      <trkpt lat="43.39371" lon="6.64635">
        <ele>197.39999389648</ele>
        <time>2018-02-03T13:49:52.000Z</time>
      </trkpt>
      <trkpt lat="43.39383" lon="6.64638">
        <ele>197.80000305176</ele>
        <time>2018-02-03T13:49:59.000Z</time>
      </trkpt>
      <trkpt lat="43.39384" lon="6.64638">
        <ele>198.19999694824</ele>
        <time>2018-02-03T13:50:00.000Z</time>
      </trkpt>
      <trkpt lat="43.39389" lon="6.64638">
        <ele>199.19999694824</ele>
        <time>2018-02-03T13:50:03.000Z</time>
      </trkpt>
      <trkpt lat="43.39392" lon="6.64638">
        <ele>199.80000305176</ele>
        <time>2018-02-03T13:50:05.000Z</time>
      </trkpt>
      <trkpt lat="43.39395" lon="6.64639">
        <ele>200.39999389648</ele>
        <time>2018-02-03T13:50:07.000Z</time>
      </trkpt>
      <trkpt lat="43.39398" lon="6.64643">
        <ele>201.19999694824</ele>
        <time>2018-02-03T13:50:10.000Z</time>
      </trkpt>
      <trkpt lat="43.39399" lon="6.64644">
        <ele>201.39999389648</ele>
        <time>2018-02-03T13:50:11.000Z</time>
      </trkpt>
      <trkpt lat="43.39405" lon="6.64649">
        <ele>202</ele>
        <time>2018-02-03T13:50:15.000Z</time>
      </trkpt>
      <trkpt lat="43.39409" lon="6.64651">
        <ele>202.39999389648</ele>
        <time>2018-02-03T13:50:18.000Z</time>
      </trkpt>
      <trkpt lat="43.39411" lon="6.64652">
        <ele>202.60000610352</ele>
        <time>2018-02-03T13:50:19.000Z</time>
      </trkpt>
      <trkpt lat="43.3942" lon="6.64655">
        <ele>203</ele>
        <time>2018-02-03T13:50:25.000Z</time>
      </trkpt>
      <trkpt lat="43.39432" lon="6.64654">
        <ele>203.39999389648</ele>
        <time>2018-02-03T13:50:32.000Z</time>
      </trkpt>
      <trkpt lat="43.39434" lon="6.64654">
        <ele>203.60000610352</ele>
        <time>2018-02-03T13:50:33.000Z</time>
      </trkpt>
      <trkpt lat="43.39444" lon="6.64649">
        <ele>204</ele>
        <time>2018-02-03T13:50:39.000Z</time>
      </trkpt>
      <trkpt lat="43.39457" lon="6.64644">
        <ele>204.80000305176</ele>
        <time>2018-02-03T13:50:47.000Z</time>
      </trkpt>
      <trkpt lat="43.39468" lon="6.64637">
        <ele>205</ele>
        <time>2018-02-03T13:50:54.000Z</time>
      </trkpt>
      <trkpt lat="43.39478" lon="6.64632">
        <ele>205.80000305176</ele>
        <time>2018-02-03T13:51:00.000Z</time>
      </trkpt>
      <trkpt lat="43.39484" lon="6.64629">
        <ele>206.60000610352</ele>
        <time>2018-02-03T13:51:03.000Z</time>
      </trkpt>
      <trkpt lat="43.39485" lon="6.64628">
        <ele>207</ele>
        <time>2018-02-03T13:51:04.000Z</time>
      </trkpt>
      <trkpt lat="43.39493" lon="6.64625">
        <ele>208.19999694824</ele>
        <time>2018-02-03T13:51:09.000Z</time>
      </trkpt>
      <trkpt lat="43.39501" lon="6.64621">
        <ele>209.39999389648</ele>
        <time>2018-02-03T13:51:14.000Z</time>
      </trkpt>
      <trkpt lat="43.39504" lon="6.6462">
        <ele>210.39999389648</ele>
        <time>2018-02-03T13:51:16.000Z</time>
      </trkpt>
      <trkpt lat="43.39505" lon="6.64619">
        <ele>210.60000610352</ele>
        <time>2018-02-03T13:51:17.000Z</time>
      </trkpt>
      <trkpt lat="43.39509" lon="6.64617">
        <ele>211.80000305176</ele>
        <time>2018-02-03T13:51:20.000Z</time>
      </trkpt>
      <trkpt lat="43.39514" lon="6.64613">
        <ele>212.39999389648</ele>
        <time>2018-02-03T13:51:24.000Z</time>
      </trkpt>
      <trkpt lat="43.39523" lon="6.64608">
        <ele>213</ele>
        <time>2018-02-03T13:51:30.000Z</time>
      </trkpt>
      <trkpt lat="43.39527" lon="6.64607">
        <ele>213.60000610352</ele>
        <time>2018-02-03T13:51:32.000Z</time>
      </trkpt>
      <trkpt lat="43.39528" lon="6.64606">
        <ele>214</ele>
        <time>2018-02-03T13:51:33.000Z</time>
      </trkpt>
      <trkpt lat="43.39532" lon="6.64603">
        <ele>215.39999389648</ele>
        <time>2018-02-03T13:51:37.000Z</time>
      </trkpt>
      <trkpt lat="43.39534" lon="6.64603">
        <ele>215.60000610352</ele>
        <time>2018-02-03T13:51:38.000Z</time>
      </trkpt>
      <trkpt lat="43.39538" lon="6.64602">
        <ele>216.39999389648</ele>
        <time>2018-02-03T13:51:41.000Z</time>
      </trkpt>
      <trkpt lat="43.39538" lon="6.64601">
        <ele>216.80000305176</ele>
        <time>2018-02-03T13:51:42.000Z</time>
      </trkpt>
      <trkpt lat="43.3954" lon="6.64601">
        <ele>217.19999694824</ele>
        <time>2018-02-03T13:51:43.000Z</time>
      </trkpt>
      <trkpt lat="43.39541" lon="6.64601">
        <ele>217.60000610352</ele>
        <time>2018-02-03T13:51:44.000Z</time>
      </trkpt>
      <trkpt lat="43.39546" lon="6.64598">
        <ele>218.39999389648</ele>
        <time>2018-02-03T13:51:48.000Z</time>
      </trkpt>
      <trkpt lat="43.39549" lon="6.64598">
        <ele>218.80000305176</ele>
        <time>2018-02-03T13:51:50.000Z</time>
      </trkpt>
      <trkpt lat="43.39555" lon="6.64597">
        <ele>219.60000610352</ele>
        <time>2018-02-03T13:51:55.000Z</time>
      </trkpt>
      <trkpt lat="43.39556" lon="6.64597">
        <ele>220</ele>
        <time>2018-02-03T13:51:56.000Z</time>
      </trkpt>
      <trkpt lat="43.39561" lon="6.64594">
        <ele>220.60000610352</ele>
        <time>2018-02-03T13:52:00.000Z</time>
      </trkpt>
      <trkpt lat="43.39565" lon="6.6459">
        <ele>221</ele>
        <time>2018-02-03T13:52:04.000Z</time>
      </trkpt>
      <trkpt lat="43.39569" lon="6.64587">
        <ele>221.80000305176</ele>
        <time>2018-02-03T13:52:08.000Z</time>
      </trkpt>
      <trkpt lat="43.3957" lon="6.64586">
        <ele>222</ele>
        <time>2018-02-03T13:52:09.000Z</time>
      </trkpt>
      <trkpt lat="43.39576" lon="6.64583">
        <ele>223</ele>
        <time>2018-02-03T13:52:14.000Z</time>
      </trkpt>
      <trkpt lat="43.39577" lon="6.64582">
        <ele>223.39999389648</ele>
        <time>2018-02-03T13:52:15.000Z</time>
      </trkpt>
      <trkpt lat="43.3958" lon="6.64581">
        <ele>224</ele>
        <time>2018-02-03T13:52:17.000Z</time>
      </trkpt>
      <trkpt lat="43.39585" lon="6.64578">
        <ele>225.39999389648</ele>
        <time>2018-02-03T13:52:22.000Z</time>
      </trkpt>
      <trkpt lat="43.39589" lon="6.64574">
        <ele>226.60000610352</ele>
        <time>2018-02-03T13:52:26.000Z</time>
      </trkpt>
      <trkpt lat="43.3959" lon="6.64572">
        <ele>227.19999694824</ele>
        <time>2018-02-03T13:52:28.000Z</time>
      </trkpt>
      <trkpt lat="43.3959" lon="6.64571">
        <ele>227.60000610352</ele>
        <time>2018-02-03T13:52:29.000Z</time>
      </trkpt>
      <trkpt lat="43.39592" lon="6.64567">
        <ele>228</ele>
        <time>2018-02-03T13:52:31.000Z</time>
      </trkpt>
      <trkpt lat="43.39594" lon="6.64565">
        <ele>228.39999389648</ele>
        <time>2018-02-03T13:52:33.000Z</time>
      </trkpt>
      <trkpt lat="43.39597" lon="6.64562">
        <ele>228.80000305176</ele>
        <time>2018-02-03T13:52:35.000Z</time>
      </trkpt>
      <trkpt lat="43.396" lon="6.64557">
        <ele>229.60000610352</ele>
        <time>2018-02-03T13:52:39.000Z</time>
      </trkpt>
      <trkpt lat="43.39601" lon="6.64555">
        <ele>229.80000305176</ele>
        <time>2018-02-03T13:52:40.000Z</time>
      </trkpt>
      <trkpt lat="43.39604" lon="6.6455">
        <ele>230.60000610352</ele>
        <time>2018-02-03T13:52:44.000Z</time>
      </trkpt>
      <trkpt lat="43.39607" lon="6.64547">
        <ele>230.80000305176</ele>
        <time>2018-02-03T13:52:46.000Z</time>
      </trkpt>
      <trkpt lat="43.39618" lon="6.64541">
        <ele>231.60000610352</ele>
        <time>2018-02-03T13:52:53.000Z</time>
      </trkpt>
      <trkpt lat="43.3962" lon="6.64541">
        <ele>232</ele>
        <time>2018-02-03T13:52:54.000Z</time>
      </trkpt>
      <trkpt lat="43.39626" lon="6.64539">
        <ele>233</ele>
        <time>2018-02-03T13:52:58.000Z</time>
      </trkpt>
      <trkpt lat="43.3963" lon="6.64537">
        <ele>233</ele>
        <time>2018-02-03T13:53:00.000Z</time>
      </trkpt>
      <trkpt lat="43.3964" lon="6.64534">
        <ele>233.80000305176</ele>
        <time>2018-02-03T13:53:07.000Z</time>
      </trkpt>
      <trkpt lat="43.39643" lon="6.64533">
        <ele>234.19999694824</ele>
        <time>2018-02-03T13:53:09.000Z</time>
      </trkpt>
      <trkpt lat="43.39648" lon="6.64533">
        <ele>234.80000305176</ele>
        <time>2018-02-03T13:53:12.000Z</time>
      </trkpt>
      <trkpt lat="43.39656" lon="6.64532">
        <ele>235.19999694824</ele>
        <time>2018-02-03T13:53:17.000Z</time>
      </trkpt>
      <trkpt lat="43.39662" lon="6.64531">
        <ele>236.19999694824</ele>
        <time>2018-02-03T13:53:22.000Z</time>
      </trkpt>
      <trkpt lat="43.39663" lon="6.6453">
        <ele>236.39999389648</ele>
        <time>2018-02-03T13:53:23.000Z</time>
      </trkpt>
      <trkpt lat="43.39665" lon="6.64529">
        <ele>236.60000610352</ele>
        <time>2018-02-03T13:53:25.000Z</time>
      </trkpt>
      <trkpt lat="43.39669" lon="6.64528">
        <ele>237.19999694824</ele>
        <time>2018-02-03T13:53:28.000Z</time>
      </trkpt>
      <trkpt lat="43.39671" lon="6.64528">
        <ele>237.39999389648</ele>
        <time>2018-02-03T13:53:29.000Z</time>
      </trkpt>
      <trkpt lat="43.39677" lon="6.64528">
        <ele>238.60000610352</ele>
        <time>2018-02-03T13:53:33.000Z</time>
      </trkpt>
      <trkpt lat="43.39681" lon="6.64528">
        <ele>240</ele>
        <time>2018-02-03T13:53:36.000Z</time>
      </trkpt>
      <trkpt lat="43.39685" lon="6.64527">
        <ele>241.19999694824</ele>
        <time>2018-02-03T13:53:40.000Z</time>
      </trkpt>
      <trkpt lat="43.39692" lon="6.64526">
        <ele>242.19999694824</ele>
        <time>2018-02-03T13:53:46.000Z</time>
      </trkpt>
      <trkpt lat="43.39693" lon="6.64526">
        <ele>242.39999389648</ele>
        <time>2018-02-03T13:53:47.000Z</time>
      </trkpt>
      <trkpt lat="43.39698" lon="6.6452">
        <ele>242.60000610352</ele>
        <time>2018-02-03T13:53:52.000Z</time>
      </trkpt>
      <trkpt lat="43.39708" lon="6.64508">
        <ele>242.39999389648</ele>
        <time>2018-02-03T13:53:58.000Z</time>
      </trkpt>
      <trkpt lat="43.39718" lon="6.64507">
        <ele>242</ele>
        <time>2018-02-03T13:54:03.000Z</time>
      </trkpt>
      <trkpt lat="43.39734" lon="6.64511">
        <ele>243</ele>
        <time>2018-02-03T13:54:11.000Z</time>
      </trkpt>
      <trkpt lat="43.39745" lon="6.64514">
        <ele>243.39999389648</ele>
        <time>2018-02-03T13:54:16.000Z</time>
      </trkpt>
      <trkpt lat="43.3975" lon="6.64516">
        <ele>243.60000610352</ele>
        <time>2018-02-03T13:54:19.000Z</time>
      </trkpt>
      <trkpt lat="43.39762" lon="6.64517">
        <ele>243.80000305176</ele>
        <time>2018-02-03T13:54:25.000Z</time>
      </trkpt>
      <trkpt lat="43.39774" lon="6.64519">
        <ele>243.60000610352</ele>
        <time>2018-02-03T13:54:31.000Z</time>
      </trkpt>
      <trkpt lat="43.39779" lon="6.64521">
        <ele>243.19999694824</ele>
        <time>2018-02-03T13:54:36.000Z</time>
      </trkpt>
      <trkpt lat="43.39788" lon="6.64528">
        <ele>242.60000610352</ele>
        <time>2018-02-03T13:54:42.000Z</time>
      </trkpt>
      <trkpt lat="43.39789" lon="6.64529">
        <ele>242.39999389648</ele>
        <time>2018-02-03T13:54:44.000Z</time>
      </trkpt>
      <trkpt lat="43.3979" lon="6.64528">
        <ele>242.39999389648</ele>
        <time>2018-02-03T13:54:48.000Z</time>
      </trkpt>
      <trkpt lat="43.39789" lon="6.64529">
        <ele>242.19999694824</ele>
        <time>2018-02-03T13:54:54.000Z</time>
      </trkpt>
      <trkpt lat="43.3979" lon="6.64529">
        <ele>242.39999389648</ele>
        <time>2018-02-03T13:55:03.000Z</time>
      </trkpt>
      <trkpt lat="43.3979" lon="6.64528">
        <ele>242.80000305176</ele>
        <time>2018-02-03T13:55:17.000Z</time>
      </trkpt>
      <trkpt lat="43.3979" lon="6.64528">
        <ele>243.39999389648</ele>
        <time>2018-02-03T13:55:22.000Z</time>
      </trkpt>
      <trkpt lat="43.3979" lon="6.64528">
        <ele>243.19999694824</ele>
        <time>2018-02-03T13:55:25.000Z</time>
      </trkpt>
      <trkpt lat="43.39791" lon="6.64527">
        <ele>242.60000610352</ele>
        <time>2018-02-03T13:55:33.000Z</time>
      </trkpt>
      <trkpt lat="43.3979" lon="6.64527">
        <ele>242.39999389648</ele>
        <time>2018-02-03T13:55:36.000Z</time>
      </trkpt>
      <trkpt lat="43.3979" lon="6.64527">
        <ele>242.60000610352</ele>
        <time>2018-02-03T13:55:39.000Z</time>
      </trkpt>
      <trkpt lat="43.3979" lon="6.64526">
        <ele>242.80000305176</ele>
        <time>2018-02-03T13:55:49.000Z</time>
      </trkpt>
      <trkpt lat="43.3979" lon="6.64526">
        <ele>242.60000610352</ele>
        <time>2018-02-03T13:56:03.000Z</time>
      </trkpt>
      <trkpt lat="43.3979" lon="6.64526">
        <ele>242</ele>
        <time>2018-02-03T13:56:09.000Z</time>
      </trkpt>
      <trkpt lat="43.3979" lon="6.64526">
        <ele>242.19999694824</ele>
        <time>2018-02-03T13:56:19.000Z</time>
      </trkpt>
      <trkpt lat="43.39788" lon="6.64525">
        <ele>242.39999389648</ele>
        <time>2018-02-03T13:56:25.000Z</time>
      </trkpt>
      <trkpt lat="43.39788" lon="6.64525">
        <ele>242.39999389648</ele>
        <time>2018-02-03T13:56:32.000Z</time>
      </trkpt>
      <trkpt lat="43.39788" lon="6.64525">
        <ele>241.80000305176</ele>
        <time>2018-02-03T13:56:44.000Z</time>
      </trkpt>
      <trkpt lat="43.39788" lon="6.64524">
        <ele>241.60000610352</ele>
        <time>2018-02-03T13:56:50.000Z</time>
      </trkpt>
      <trkpt lat="43.39787" lon="6.64524">
        <ele>241.80000305176</ele>
        <time>2018-02-03T13:56:57.000Z</time>
      </trkpt>
      <trkpt lat="43.39789" lon="6.64527">
        <ele>241.39999389648</ele>
        <time>2018-02-03T13:57:03.000Z</time>
      </trkpt>
      <trkpt lat="43.39789" lon="6.64526">
        <ele>241.60000610352</ele>
        <time>2018-02-03T13:57:07.000Z</time>
      </trkpt>
      <trkpt lat="43.39789" lon="6.64526">
        <ele>241.80000305176</ele>
        <time>2018-02-03T13:57:17.000Z</time>
      </trkpt>
      <trkpt lat="43.39792" lon="6.64527">
        <ele>241.60000610352</ele>
        <time>2018-02-03T13:57:22.000Z</time>
      </trkpt>
      <trkpt lat="43.39806" lon="6.64525">
        <ele>241.60000610352</ele>
        <time>2018-02-03T13:57:26.000Z</time>
      </trkpt>
      <trkpt lat="43.3981" lon="6.64523">
        <ele>241.19999694824</ele>
        <time>2018-02-03T13:57:27.000Z</time>
      </trkpt>
      <trkpt lat="43.39821" lon="6.64512">
        <ele>239.80000305176</ele>
        <time>2018-02-03T13:57:30.000Z</time>
      </trkpt>
      <trkpt lat="43.39826" lon="6.6451">
        <ele>239.39999389648</ele>
        <time>2018-02-03T13:57:31.000Z</time>
      </trkpt>
      <trkpt lat="43.3983" lon="6.64509">
        <ele>238.60000610352</ele>
        <time>2018-02-03T13:57:32.000Z</time>
      </trkpt>
      <trkpt lat="43.39834" lon="6.64508">
        <ele>237.80000305176</ele>
        <time>2018-02-03T13:57:33.000Z</time>
      </trkpt>
      <trkpt lat="43.39837" lon="6.64505">
        <ele>237</ele>
        <time>2018-02-03T13:57:34.000Z</time>
      </trkpt>
      <trkpt lat="43.39845" lon="6.64494">
        <ele>235.80000305176</ele>
        <time>2018-02-03T13:57:36.000Z</time>
      </trkpt>
      <trkpt lat="43.39848" lon="6.64489">
        <ele>235</ele>
        <time>2018-02-03T13:57:37.000Z</time>
      </trkpt>
      <trkpt lat="43.39852" lon="6.64485">
        <ele>234.39999389648</ele>
        <time>2018-02-03T13:57:38.000Z</time>
      </trkpt>
      <trkpt lat="43.39858" lon="6.64477">
        <ele>232.80000305176</ele>
        <time>2018-02-03T13:57:40.000Z</time>
      </trkpt>
      <trkpt lat="43.39861" lon="6.64474">
        <ele>232</ele>
        <time>2018-02-03T13:57:41.000Z</time>
      </trkpt>
      <trkpt lat="43.39865" lon="6.6447">
        <ele>231.39999389648</ele>
        <time>2018-02-03T13:57:42.000Z</time>
      </trkpt>
      <trkpt lat="43.39874" lon="6.64463">
        <ele>230.19999694824</ele>
        <time>2018-02-03T13:57:44.000Z</time>
      </trkpt>
      <trkpt lat="43.39878" lon="6.64458">
        <ele>229.39999389648</ele>
        <time>2018-02-03T13:57:45.000Z</time>
      </trkpt>
      <trkpt lat="43.39884" lon="6.64452">
        <ele>228.60000610352</ele>
        <time>2018-02-03T13:57:46.000Z</time>
      </trkpt>
      <trkpt lat="43.39889" lon="6.6445">
        <ele>228.19999694824</ele>
        <time>2018-02-03T13:57:47.000Z</time>
      </trkpt>
      <trkpt lat="43.39896" lon="6.64447">
        <ele>227</ele>
        <time>2018-02-03T13:57:48.000Z</time>
      </trkpt>
      <trkpt lat="43.39902" lon="6.64445">
        <ele>226.39999389648</ele>
        <time>2018-02-03T13:57:49.000Z</time>
      </trkpt>
      <trkpt lat="43.39908" lon="6.64444">
        <ele>224.80000305176</ele>
        <time>2018-02-03T13:57:50.000Z</time>
      </trkpt>
      <trkpt lat="43.39913" lon="6.64444">
        <ele>223.39999389648</ele>
        <time>2018-02-03T13:57:51.000Z</time>
      </trkpt>
      <trkpt lat="43.39926" lon="6.64441">
        <ele>221.39999389648</ele>
        <time>2018-02-03T13:57:53.000Z</time>
      </trkpt>
      <trkpt lat="43.39934" lon="6.64434">
        <ele>219.60000610352</ele>
        <time>2018-02-03T13:57:55.000Z</time>
      </trkpt>
      <trkpt lat="43.39937" lon="6.64429">
        <ele>219.19999694824</ele>
        <time>2018-02-03T13:57:56.000Z</time>
      </trkpt>
      <trkpt lat="43.3994" lon="6.64424">
        <ele>218.80000305176</ele>
        <time>2018-02-03T13:57:57.000Z</time>
      </trkpt>
      <trkpt lat="43.39948" lon="6.64411">
        <ele>219.60000610352</ele>
        <time>2018-02-03T13:58:00.000Z</time>
      </trkpt>
      <trkpt lat="43.39951" lon="6.644">
        <ele>220.60000610352</ele>
        <time>2018-02-03T13:58:02.000Z</time>
      </trkpt>
      <trkpt lat="43.39953" lon="6.64396">
        <ele>220.80000305176</ele>
        <time>2018-02-03T13:58:03.000Z</time>
      </trkpt>
      <trkpt lat="43.39959" lon="6.6438">
        <ele>222</ele>
        <time>2018-02-03T13:58:07.000Z</time>
      </trkpt>
      <trkpt lat="43.3996" lon="6.64377">
        <ele>222.39999389648</ele>
        <time>2018-02-03T13:58:08.000Z</time>
      </trkpt>
      <trkpt lat="43.39964" lon="6.64371">
        <ele>223.19999694824</ele>
        <time>2018-02-03T13:58:10.000Z</time>
      </trkpt>
      <trkpt lat="43.39971" lon="6.64366">
        <ele>223.80000305176</ele>
        <time>2018-02-03T13:58:13.000Z</time>
      </trkpt>
      <trkpt lat="43.39998" lon="6.64352">
        <ele>222.39999389648</ele>
        <time>2018-02-03T13:58:20.000Z</time>
      </trkpt>
      <trkpt lat="43.40004" lon="6.64349">
        <ele>221.60000610352</ele>
        <time>2018-02-03T13:58:21.000Z</time>
      </trkpt>
      <trkpt lat="43.40009" lon="6.64347">
        <ele>220.80000305176</ele>
        <time>2018-02-03T13:58:22.000Z</time>
      </trkpt>
      <trkpt lat="43.40015" lon="6.64347">
        <ele>220</ele>
        <time>2018-02-03T13:58:23.000Z</time>
      </trkpt>
      <trkpt lat="43.4002" lon="6.64348">
        <ele>219.19999694824</ele>
        <time>2018-02-03T13:58:24.000Z</time>
      </trkpt>
      <trkpt lat="43.40025" lon="6.64348">
        <ele>218.39999389648</ele>
        <time>2018-02-03T13:58:25.000Z</time>
      </trkpt>
      <trkpt lat="43.4003" lon="6.64348">
        <ele>217.19999694824</ele>
        <time>2018-02-03T13:58:26.000Z</time>
      </trkpt>
      <trkpt lat="43.40033" lon="6.64348">
        <ele>216</ele>
        <time>2018-02-03T13:58:27.000Z</time>
      </trkpt>
      <trkpt lat="43.40036" lon="6.64347">
        <ele>215.80000305176</ele>
        <time>2018-02-03T13:58:28.000Z</time>
      </trkpt>
      <trkpt lat="43.40041" lon="6.64345">
        <ele>214.80000305176</ele>
        <time>2018-02-03T13:58:30.000Z</time>
      </trkpt>
      <trkpt lat="43.40049" lon="6.64337">
        <ele>213.19999694824</ele>
        <time>2018-02-03T13:58:33.000Z</time>
      </trkpt>
      <trkpt lat="43.40051" lon="6.64334">
        <ele>212</ele>
        <time>2018-02-03T13:58:34.000Z</time>
      </trkpt>
      <trkpt lat="43.40054" lon="6.64331">
        <ele>210.80000305176</ele>
        <time>2018-02-03T13:58:35.000Z</time>
      </trkpt>
      <trkpt lat="43.40056" lon="6.64326">
        <ele>209.39999389648</ele>
        <time>2018-02-03T13:58:36.000Z</time>
      </trkpt>
      <trkpt lat="43.40059" lon="6.64321">
        <ele>208.39999389648</ele>
        <time>2018-02-03T13:58:37.000Z</time>
      </trkpt>
      <trkpt lat="43.40062" lon="6.64316">
        <ele>207.39999389648</ele>
        <time>2018-02-03T13:58:38.000Z</time>
      </trkpt>
      <trkpt lat="43.40063" lon="6.6431">
        <ele>206.39999389648</ele>
        <time>2018-02-03T13:58:39.000Z</time>
      </trkpt>
      <trkpt lat="43.40067" lon="6.64297">
        <ele>204.19999694824</ele>
        <time>2018-02-03T13:58:41.000Z</time>
      </trkpt>
      <trkpt lat="43.40072" lon="6.6429">
        <ele>202.39999389648</ele>
        <time>2018-02-03T13:58:43.000Z</time>
      </trkpt>
      <trkpt lat="43.40072" lon="6.64286">
        <ele>202</ele>
        <time>2018-02-03T13:58:44.000Z</time>
      </trkpt>
      <trkpt lat="43.40073" lon="6.64276">
        <ele>201.39999389648</ele>
        <time>2018-02-03T13:58:46.000Z</time>
      </trkpt>
      <trkpt lat="43.40073" lon="6.6427">
        <ele>200.19999694824</ele>
        <time>2018-02-03T13:58:48.000Z</time>
      </trkpt>
      <trkpt lat="43.40074" lon="6.64262">
        <ele>198.60000610352</ele>
        <time>2018-02-03T13:58:50.000Z</time>
      </trkpt>
      <trkpt lat="43.40069" lon="6.64252">
        <ele>197.60000610352</ele>
        <time>2018-02-03T13:58:52.000Z</time>
      </trkpt>
      <trkpt lat="43.40059" lon="6.64247">
        <ele>195.60000610352</ele>
        <time>2018-02-03T13:58:54.000Z</time>
      </trkpt>
      <trkpt lat="43.40054" lon="6.64243">
        <ele>194.80000305176</ele>
        <time>2018-02-03T13:58:55.000Z</time>
      </trkpt>
      <trkpt lat="43.4005" lon="6.64236">
        <ele>193.60000610352</ele>
        <time>2018-02-03T13:58:56.000Z</time>
      </trkpt>
      <trkpt lat="43.40047" lon="6.6423">
        <ele>192.39999389648</ele>
        <time>2018-02-03T13:58:57.000Z</time>
      </trkpt>
      <trkpt lat="43.40045" lon="6.64224">
        <ele>191.39999389648</ele>
        <time>2018-02-03T13:58:58.000Z</time>
      </trkpt>
      <trkpt lat="43.40044" lon="6.64218">
        <ele>191</ele>
        <time>2018-02-03T13:58:59.000Z</time>
      </trkpt>
      <trkpt lat="43.40046" lon="6.64212">
        <ele>190.19999694824</ele>
        <time>2018-02-03T13:59:01.000Z</time>
      </trkpt>
      <trkpt lat="43.40051" lon="6.64212">
        <ele>189.80000305176</ele>
        <time>2018-02-03T13:59:04.000Z</time>
      </trkpt>
      <trkpt lat="43.40051" lon="6.64213">
        <ele>189.60000610352</ele>
        <time>2018-02-03T13:59:05.000Z</time>
      </trkpt>
      <trkpt lat="43.40052" lon="6.64212">
        <ele>190</ele>
        <time>2018-02-03T13:59:11.000Z</time>
      </trkpt>
      <trkpt lat="43.40058" lon="6.64217">
        <ele>190</ele>
        <time>2018-02-03T13:59:20.000Z</time>
      </trkpt>
      <trkpt lat="43.40066" lon="6.64223">
        <ele>189.80000305176</ele>
        <time>2018-02-03T13:59:24.000Z</time>
      </trkpt>
      <trkpt lat="43.4007" lon="6.64226">
        <ele>189.60000610352</ele>
        <time>2018-02-03T13:59:26.000Z</time>
      </trkpt>
      <trkpt lat="43.40086" lon="6.64231">
        <ele>190.60000610352</ele>
        <time>2018-02-03T13:59:33.000Z</time>
      </trkpt>
      <trkpt lat="43.40092" lon="6.64229">
        <ele>190.80000305176</ele>
        <time>2018-02-03T13:59:36.000Z</time>
      </trkpt>
      <trkpt lat="43.40102" lon="6.64228">
        <ele>190.39999389648</ele>
        <time>2018-02-03T13:59:39.000Z</time>
      </trkpt>
      <trkpt lat="43.40113" lon="6.6423">
        <ele>189.60000610352</ele>
        <time>2018-02-03T13:59:42.000Z</time>
      </trkpt>
      <trkpt lat="43.40124" lon="6.64234">
        <ele>189.39999389648</ele>
        <time>2018-02-03T13:59:45.000Z</time>
      </trkpt>
      <trkpt lat="43.40143" lon="6.64244">
        <ele>189.80000305176</ele>
        <time>2018-02-03T13:59:51.000Z</time>
      </trkpt>
      <trkpt lat="43.4016" lon="6.64252">
        <ele>190.60000610352</ele>
        <time>2018-02-03T13:59:57.000Z</time>
      </trkpt>
      <trkpt lat="43.40168" lon="6.64257">
        <ele>191.80000305176</ele>
        <time>2018-02-03T14:00:01.000Z</time>
      </trkpt>
      <trkpt lat="43.40172" lon="6.64258">
        <ele>192.60000610352</ele>
        <time>2018-02-03T14:00:03.000Z</time>
      </trkpt>
      <trkpt lat="43.40175" lon="6.6426">
        <ele>193</ele>
        <time>2018-02-03T14:00:05.000Z</time>
      </trkpt>
      <trkpt lat="43.4018" lon="6.64264">
        <ele>194.19999694824</ele>
        <time>2018-02-03T14:00:10.000Z</time>
      </trkpt>
      <trkpt lat="43.40187" lon="6.64267">
        <ele>195.39999389648</ele>
        <time>2018-02-03T14:00:15.000Z</time>
      </trkpt>
      <trkpt lat="43.40189" lon="6.64269">
        <ele>195.60000610352</ele>
        <time>2018-02-03T14:00:16.000Z</time>
      </trkpt>
      <trkpt lat="43.40195" lon="6.64269">
        <ele>196.60000610352</ele>
        <time>2018-02-03T14:00:19.000Z</time>
      </trkpt>
      <trkpt lat="43.40201" lon="6.6427">
        <ele>197.80000305176</ele>
        <time>2018-02-03T14:00:22.000Z</time>
      </trkpt>
      <trkpt lat="43.40209" lon="6.6427">
        <ele>199</ele>
        <time>2018-02-03T14:00:27.000Z</time>
      </trkpt>
      <trkpt lat="43.40211" lon="6.6427">
        <ele>199.39999389648</ele>
        <time>2018-02-03T14:00:29.000Z</time>
      </trkpt>
      <trkpt lat="43.40221" lon="6.64273">
        <ele>200</ele>
        <time>2018-02-03T14:00:35.000Z</time>
      </trkpt>
      <trkpt lat="43.40223" lon="6.64273">
        <ele>200.19999694824</ele>
        <time>2018-02-03T14:00:36.000Z</time>
      </trkpt>
      <trkpt lat="43.40229" lon="6.64275">
        <ele>201.19999694824</ele>
        <time>2018-02-03T14:00:40.000Z</time>
      </trkpt>
      <trkpt lat="43.40232" lon="6.64274">
        <ele>201.60000610352</ele>
        <time>2018-02-03T14:00:42.000Z</time>
      </trkpt>
      <trkpt lat="43.40235" lon="6.64275">
        <ele>202.19999694824</ele>
        <time>2018-02-03T14:00:45.000Z</time>
      </trkpt>
      <trkpt lat="43.40235" lon="6.64273">
        <ele>202.60000610352</ele>
        <time>2018-02-03T14:00:48.000Z</time>
      </trkpt>
      <trkpt lat="43.40236" lon="6.64273">
        <ele>203</ele>
        <time>2018-02-03T14:00:54.000Z</time>
      </trkpt>
      <trkpt lat="43.40236" lon="6.64273">
        <ele>203</ele>
        <time>2018-02-03T14:00:59.000Z</time>
      </trkpt>
      <trkpt lat="43.40237" lon="6.64272">
        <ele>202.80000305176</ele>
        <time>2018-02-03T14:01:06.000Z</time>
      </trkpt>
      <trkpt lat="43.40238" lon="6.64272">
        <ele>202.60000610352</ele>
        <time>2018-02-03T14:01:14.000Z</time>
      </trkpt>
      <trkpt lat="43.40238" lon="6.64272">
        <ele>202.39999389648</ele>
        <time>2018-02-03T14:01:19.000Z</time>
      </trkpt>
      <trkpt lat="43.40238" lon="6.64272">
        <ele>203</ele>
        <time>2018-02-03T14:01:27.000Z</time>
      </trkpt>
      <trkpt lat="43.40239" lon="6.64272">
        <ele>202.80000305176</ele>
        <time>2018-02-03T14:01:39.000Z</time>
      </trkpt>
      <trkpt lat="43.40239" lon="6.64271">
        <ele>203.19999694824</ele>
        <time>2018-02-03T14:01:51.000Z</time>
      </trkpt>
      <trkpt lat="43.40239" lon="6.64271">
        <ele>203.19999694824</ele>
        <time>2018-02-03T14:01:52.000Z</time>
      </trkpt>
      <trkpt lat="43.4024" lon="6.64272">
        <ele>203.39999389648</ele>
        <time>2018-02-03T14:02:01.000Z</time>
      </trkpt>
      <trkpt lat="43.40241" lon="6.64271">
        <ele>203.60000610352</ele>
        <time>2018-02-03T14:02:08.000Z</time>
      </trkpt>
      <trkpt lat="43.40241" lon="6.64272">
        <ele>203.80000305176</ele>
        <time>2018-02-03T14:02:15.000Z</time>
      </trkpt>
      <trkpt lat="43.40242" lon="6.64275">
        <ele>203.80000305176</ele>
        <time>2018-02-03T14:02:19.000Z</time>
      </trkpt>
      <trkpt lat="43.40243" lon="6.64274">
        <ele>203.80000305176</ele>
        <time>2018-02-03T14:02:20.000Z</time>
      </trkpt>
      <trkpt lat="43.40247" lon="6.64275">
        <ele>203.60000610352</ele>
        <time>2018-02-03T14:02:28.000Z</time>
      </trkpt>
      <trkpt lat="43.4025" lon="6.64278">
        <ele>204</ele>
        <time>2018-02-03T14:02:31.000Z</time>
      </trkpt>
      <trkpt lat="43.40252" lon="6.6428">
        <ele>204.19999694824</ele>
        <time>2018-02-03T14:02:33.000Z</time>
      </trkpt>
      <trkpt lat="43.40254" lon="6.64281">
        <ele>204.80000305176</ele>
        <time>2018-02-03T14:02:35.000Z</time>
      </trkpt>
      <trkpt lat="43.40256" lon="6.64282">
        <ele>205.39999389648</ele>
        <time>2018-02-03T14:02:37.000Z</time>
      </trkpt>
      <trkpt lat="43.40259" lon="6.64284">
        <ele>205.80000305176</ele>
        <time>2018-02-03T14:02:39.000Z</time>
      </trkpt>
      <trkpt lat="43.40264" lon="6.64288">
        <ele>206.60000610352</ele>
        <time>2018-02-03T14:02:44.000Z</time>
      </trkpt>
      <trkpt lat="43.40265" lon="6.64288">
        <ele>207</ele>
        <time>2018-02-03T14:02:45.000Z</time>
      </trkpt>
      <trkpt lat="43.40268" lon="6.64291">
        <ele>207.80000305176</ele>
        <time>2018-02-03T14:02:48.000Z</time>
      </trkpt>
      <trkpt lat="43.4027" lon="6.64294">
        <ele>208.60000610352</ele>
        <time>2018-02-03T14:02:51.000Z</time>
      </trkpt>
      <trkpt lat="43.40271" lon="6.64295">
        <ele>208.80000305176</ele>
        <time>2018-02-03T14:02:52.000Z</time>
      </trkpt>
      <trkpt lat="43.40273" lon="6.64298">
        <ele>209.39999389648</ele>
        <time>2018-02-03T14:02:55.000Z</time>
      </trkpt>
      <trkpt lat="43.40274" lon="6.643">
        <ele>209.80000305176</ele>
        <time>2018-02-03T14:02:57.000Z</time>
      </trkpt>
      <trkpt lat="43.40275" lon="6.64301">
        <ele>210</ele>
        <time>2018-02-03T14:02:58.000Z</time>
      </trkpt>
      <trkpt lat="43.40279" lon="6.64306">
        <ele>211.19999694824</ele>
        <time>2018-02-03T14:03:03.000Z</time>
      </trkpt>
      <trkpt lat="43.4028" lon="6.64307">
        <ele>211.39999389648</ele>
        <time>2018-02-03T14:03:04.000Z</time>
      </trkpt>
      <trkpt lat="43.40283" lon="6.6431">
        <ele>212.19999694824</ele>
        <time>2018-02-03T14:03:07.000Z</time>
      </trkpt>
      <trkpt lat="43.40287" lon="6.64315">
        <ele>213</ele>
        <time>2018-02-03T14:03:11.000Z</time>
      </trkpt>
      <trkpt lat="43.40288" lon="6.64316">
        <ele>213</ele>
        <time>2018-02-03T14:03:12.000Z</time>
      </trkpt>
      <trkpt lat="43.40289" lon="6.64316">
        <ele>213.19999694824</ele>
        <time>2018-02-03T14:03:13.000Z</time>
      </trkpt>
      <trkpt lat="43.40292" lon="6.64317">
        <ele>214.19999694824</ele>
        <time>2018-02-03T14:03:16.000Z</time>
      </trkpt>
      <trkpt lat="43.40292" lon="6.64317">
        <ele>214.39999389648</ele>
        <time>2018-02-03T14:03:17.000Z</time>
      </trkpt>
      <trkpt lat="43.40294" lon="6.64322">
        <ele>215.19999694824</ele>
        <time>2018-02-03T14:03:21.000Z</time>
      </trkpt>
      <trkpt lat="43.40295" lon="6.64323">
        <ele>215.60000610352</ele>
        <time>2018-02-03T14:03:22.000Z</time>
      </trkpt>
      <trkpt lat="43.40298" lon="6.64325">
        <ele>216.60000610352</ele>
        <time>2018-02-03T14:03:26.000Z</time>
      </trkpt>
      <trkpt lat="43.40299" lon="6.64326">
        <ele>217</ele>
        <time>2018-02-03T14:03:27.000Z</time>
      </trkpt>
      <trkpt lat="43.40302" lon="6.64329">
        <ele>217.80000305176</ele>
        <time>2018-02-03T14:03:31.000Z</time>
      </trkpt>
      <trkpt lat="43.40303" lon="6.64329">
        <ele>218</ele>
        <time>2018-02-03T14:03:32.000Z</time>
      </trkpt>
      <trkpt lat="43.40305" lon="6.64329">
        <ele>218.19999694824</ele>
        <time>2018-02-03T14:03:33.000Z</time>
      </trkpt>
      <trkpt lat="43.40308" lon="6.64331">
        <ele>218.80000305176</ele>
        <time>2018-02-03T14:03:36.000Z</time>
      </trkpt>
      <trkpt lat="43.40312" lon="6.64333">
        <ele>219.60000610352</ele>
        <time>2018-02-03T14:03:40.000Z</time>
      </trkpt>
      <trkpt lat="43.40313" lon="6.64333">
        <ele>219.80000305176</ele>
        <time>2018-02-03T14:03:41.000Z</time>
      </trkpt>
      <trkpt lat="43.40316" lon="6.64338">
        <ele>221</ele>
        <time>2018-02-03T14:03:46.000Z</time>
      </trkpt>
      <trkpt lat="43.40317" lon="6.64338">
        <ele>221.19999694824</ele>
        <time>2018-02-03T14:03:47.000Z</time>
      </trkpt>
      <trkpt lat="43.40321" lon="6.64341">
        <ele>222</ele>
        <time>2018-02-03T14:03:51.000Z</time>
      </trkpt>
      <trkpt lat="43.40321" lon="6.64341">
        <ele>222.19999694824</ele>
        <time>2018-02-03T14:03:52.000Z</time>
      </trkpt>
      <trkpt lat="43.40325" lon="6.64343">
        <ele>223</ele>
        <time>2018-02-03T14:03:56.000Z</time>
      </trkpt>
      <trkpt lat="43.40327" lon="6.64344">
        <ele>223.39999389648</ele>
        <time>2018-02-03T14:03:58.000Z</time>
      </trkpt>
      <trkpt lat="43.4033" lon="6.64346">
        <ele>224</ele>
        <time>2018-02-03T14:04:01.000Z</time>
      </trkpt>
      <trkpt lat="43.40334" lon="6.6435">
        <ele>225</ele>
        <time>2018-02-03T14:04:06.000Z</time>
      </trkpt>
      <trkpt lat="43.40335" lon="6.6435">
        <ele>225.19999694824</ele>
        <time>2018-02-03T14:04:07.000Z</time>
      </trkpt>
      <trkpt lat="43.40337" lon="6.64352">
        <ele>225.60000610352</ele>
        <time>2018-02-03T14:04:09.000Z</time>
      </trkpt>
      <trkpt lat="43.4034" lon="6.64355">
        <ele>226</ele>
        <time>2018-02-03T14:04:12.000Z</time>
      </trkpt>
      <trkpt lat="43.40342" lon="6.64356">
        <ele>226.39999389648</ele>
        <time>2018-02-03T14:04:14.000Z</time>
      </trkpt>
      <trkpt lat="43.40346" lon="6.6436">
        <ele>227.19999694824</ele>
        <time>2018-02-03T14:04:19.000Z</time>
      </trkpt>
      <trkpt lat="43.40347" lon="6.64361">
        <ele>227.39999389648</ele>
        <time>2018-02-03T14:04:20.000Z</time>
      </trkpt>
      <trkpt lat="43.40351" lon="6.64363">
        <ele>228.39999389648</ele>
        <time>2018-02-03T14:04:24.000Z</time>
      </trkpt>
      <trkpt lat="43.40352" lon="6.64365">
        <ele>228.60000610352</ele>
        <time>2018-02-03T14:04:26.000Z</time>
      </trkpt>
      <trkpt lat="43.40357" lon="6.64369">
        <ele>229.39999389648</ele>
        <time>2018-02-03T14:04:31.000Z</time>
      </trkpt>
      <trkpt lat="43.40358" lon="6.64371">
        <ele>229.80000305176</ele>
        <time>2018-02-03T14:04:32.000Z</time>
      </trkpt>
      <trkpt lat="43.40362" lon="6.64375">
        <ele>230.60000610352</ele>
        <time>2018-02-03T14:04:36.000Z</time>
      </trkpt>
      <trkpt lat="43.40366" lon="6.64378">
        <ele>231.39999389648</ele>
        <time>2018-02-03T14:04:40.000Z</time>
      </trkpt>
      <trkpt lat="43.40368" lon="6.64381">
        <ele>231.60000610352</ele>
        <time>2018-02-03T14:04:42.000Z</time>
      </trkpt>
      <trkpt lat="43.40371" lon="6.64387">
        <ele>232.19999694824</ele>
        <time>2018-02-03T14:04:46.000Z</time>
      </trkpt>
      <trkpt lat="43.40373" lon="6.64391">
        <ele>232.60000610352</ele>
        <time>2018-02-03T14:04:49.000Z</time>
      </trkpt>
      <trkpt lat="43.40374" lon="6.64392">
        <ele>232.80000305176</ele>
        <time>2018-02-03T14:04:50.000Z</time>
      </trkpt>
      <trkpt lat="43.40376" lon="6.64396">
        <ele>233.19999694824</ele>
        <time>2018-02-03T14:04:53.000Z</time>
      </trkpt>
      <trkpt lat="43.4038" lon="6.64401">
        <ele>233.80000305176</ele>
        <time>2018-02-03T14:04:56.000Z</time>
      </trkpt>
      <trkpt lat="43.40386" lon="6.64407">
        <ele>234.19999694824</ele>
        <time>2018-02-03T14:05:01.000Z</time>
      </trkpt>
      <trkpt lat="43.40398" lon="6.64413">
        <ele>234.80000305176</ele>
        <time>2018-02-03T14:05:07.000Z</time>
      </trkpt>
      <trkpt lat="43.40402" lon="6.64415">
        <ele>235.19999694824</ele>
        <time>2018-02-03T14:05:09.000Z</time>
      </trkpt>
      <trkpt lat="43.40418" lon="6.64416">
        <ele>236</ele>
        <time>2018-02-03T14:05:15.000Z</time>
      </trkpt>
      <trkpt lat="43.40422" lon="6.64416">
        <ele>236.39999389648</ele>
        <time>2018-02-03T14:05:17.000Z</time>
      </trkpt>
      <trkpt lat="43.40436" lon="6.64416">
        <ele>237</ele>
        <time>2018-02-03T14:05:22.000Z</time>
      </trkpt>
      <trkpt lat="43.40443" lon="6.6442">
        <ele>237.19999694824</ele>
        <time>2018-02-03T14:05:25.000Z</time>
      </trkpt>
      <trkpt lat="43.40456" lon="6.64429">
        <ele>237.60000610352</ele>
        <time>2018-02-03T14:05:31.000Z</time>
      </trkpt>
      <trkpt lat="43.40458" lon="6.64431">
        <ele>238.19999694824</ele>
        <time>2018-02-03T14:05:33.000Z</time>
      </trkpt>
      <trkpt lat="43.40462" lon="6.64434">
        <ele>239</ele>
        <time>2018-02-03T14:05:36.000Z</time>
      </trkpt>
      <trkpt lat="43.40464" lon="6.64435">
        <ele>239.39999389648</ele>
        <time>2018-02-03T14:05:37.000Z</time>
      </trkpt>
      <trkpt lat="43.4047" lon="6.64442">
        <ele>240.39999389648</ele>
        <time>2018-02-03T14:05:42.000Z</time>
      </trkpt>
      <trkpt lat="43.40475" lon="6.64447">
        <ele>241.60000610352</ele>
        <time>2018-02-03T14:05:46.000Z</time>
      </trkpt>
      <trkpt lat="43.40478" lon="6.64451">
        <ele>242.39999389648</ele>
        <time>2018-02-03T14:05:49.000Z</time>
      </trkpt>
      <trkpt lat="43.40479" lon="6.64453">
        <ele>242.60000610352</ele>
        <time>2018-02-03T14:05:50.000Z</time>
      </trkpt>
      <trkpt lat="43.40484" lon="6.64459">
        <ele>243.80000305176</ele>
        <time>2018-02-03T14:05:55.000Z</time>
      </trkpt>
      <trkpt lat="43.40486" lon="6.64461">
        <ele>244.19999694824</ele>
        <time>2018-02-03T14:05:57.000Z</time>
      </trkpt>
      <trkpt lat="43.4049" lon="6.64466">
        <ele>245</ele>
        <time>2018-02-03T14:06:01.000Z</time>
      </trkpt>
      <trkpt lat="43.40492" lon="6.64469">
        <ele>245.60000610352</ele>
        <time>2018-02-03T14:06:04.000Z</time>
      </trkpt>
      <trkpt lat="43.40495" lon="6.64473">
        <ele>246</ele>
        <time>2018-02-03T14:06:07.000Z</time>
      </trkpt>
      <trkpt lat="43.405" lon="6.64479">
        <ele>247.19999694824</ele>
        <time>2018-02-03T14:06:12.000Z</time>
      </trkpt>
      <trkpt lat="43.40501" lon="6.64481">
        <ele>247.39999389648</ele>
        <time>2018-02-03T14:06:13.000Z</time>
      </trkpt>
      <trkpt lat="43.40507" lon="6.64488">
        <ele>248.39999389648</ele>
        <time>2018-02-03T14:06:19.000Z</time>
      </trkpt>
      <trkpt lat="43.40508" lon="6.64489">
        <ele>248.60000610352</ele>
        <time>2018-02-03T14:06:20.000Z</time>
      </trkpt>
      <trkpt lat="43.40514" lon="6.64493">
        <ele>249.39999389648</ele>
        <time>2018-02-03T14:06:25.000Z</time>
      </trkpt>
      <trkpt lat="43.40516" lon="6.64495">
        <ele>249.80000305176</ele>
        <time>2018-02-03T14:06:27.000Z</time>
      </trkpt>
      <trkpt lat="43.40519" lon="6.64498">
        <ele>250.60000610352</ele>
        <time>2018-02-03T14:06:30.000Z</time>
      </trkpt>
      <trkpt lat="43.40524" lon="6.64504">
        <ele>251</ele>
        <time>2018-02-03T14:06:34.000Z</time>
      </trkpt>
      <trkpt lat="43.40529" lon="6.64509">
        <ele>251.80000305176</ele>
        <time>2018-02-03T14:06:38.000Z</time>
      </trkpt>
      <trkpt lat="43.40533" lon="6.64513">
        <ele>252.60000610352</ele>
        <time>2018-02-03T14:06:41.000Z</time>
      </trkpt>
      <trkpt lat="43.40536" lon="6.64515">
        <ele>253.19999694824</ele>
        <time>2018-02-03T14:06:43.000Z</time>
      </trkpt>
      <trkpt lat="43.40543" lon="6.6452">
        <ele>254.19999694824</ele>
        <time>2018-02-03T14:06:48.000Z</time>
      </trkpt>
      <trkpt lat="43.4055" lon="6.64525">
        <ele>255.39999389648</ele>
        <time>2018-02-03T14:06:53.000Z</time>
      </trkpt>
      <trkpt lat="43.40553" lon="6.64527">
        <ele>255.80000305176</ele>
        <time>2018-02-03T14:06:55.000Z</time>
      </trkpt>
      <trkpt lat="43.40557" lon="6.64531">
        <ele>256.39999389648</ele>
        <time>2018-02-03T14:06:58.000Z</time>
      </trkpt>
      <trkpt lat="43.40561" lon="6.64536">
        <ele>256.60000610352</ele>
        <time>2018-02-03T14:07:01.000Z</time>
      </trkpt>
      <trkpt lat="43.40568" lon="6.64543">
        <ele>257.60000610352</ele>
        <time>2018-02-03T14:07:06.000Z</time>
      </trkpt>
      <trkpt lat="43.40572" lon="6.64549">
        <ele>258</ele>
        <time>2018-02-03T14:07:09.000Z</time>
      </trkpt>
      <trkpt lat="43.40577" lon="6.64555">
        <ele>258.79998779297</ele>
        <time>2018-02-03T14:07:13.000Z</time>
      </trkpt>
      <trkpt lat="43.40579" lon="6.64559">
        <ele>259.20001220703</ele>
        <time>2018-02-03T14:07:15.000Z</time>
      </trkpt>
      <trkpt lat="43.40584" lon="6.64567">
        <ele>259.79998779297</ele>
        <time>2018-02-03T14:07:19.000Z</time>
      </trkpt>
      <trkpt lat="43.40589" lon="6.64573">
        <ele>260.39999389648</ele>
        <time>2018-02-03T14:07:22.000Z</time>
      </trkpt>
      <trkpt lat="43.406" lon="6.64577">
        <ele>260.79998779297</ele>
        <time>2018-02-03T14:07:28.000Z</time>
      </trkpt>
      <trkpt lat="43.4061" lon="6.64572">
        <ele>261.79998779297</ele>
        <time>2018-02-03T14:07:35.000Z</time>
      </trkpt>
      <trkpt lat="43.40611" lon="6.64571">
        <ele>262</ele>
        <time>2018-02-03T14:07:36.000Z</time>
      </trkpt>
      <trkpt lat="43.40618" lon="6.64568">
        <ele>263.20001220703</ele>
        <time>2018-02-03T14:07:40.000Z</time>
      </trkpt>
      <trkpt lat="43.40621" lon="6.64567">
        <ele>263.60000610352</ele>
        <time>2018-02-03T14:07:42.000Z</time>
      </trkpt>
      <trkpt lat="43.40625" lon="6.64566">
        <ele>264.39999389648</ele>
        <time>2018-02-03T14:07:45.000Z</time>
      </trkpt>
      <trkpt lat="43.40631" lon="6.64565">
        <ele>265.39999389648</ele>
        <time>2018-02-03T14:07:49.000Z</time>
      </trkpt>
      <trkpt lat="43.40633" lon="6.64565">
        <ele>265.60000610352</ele>
        <time>2018-02-03T14:07:50.000Z</time>
      </trkpt>
      <trkpt lat="43.40639" lon="6.64564">
        <ele>266.39999389648</ele>
        <time>2018-02-03T14:07:55.000Z</time>
      </trkpt>
      <trkpt lat="43.40641" lon="6.64564">
        <ele>266.60000610352</ele>
        <time>2018-02-03T14:07:56.000Z</time>
      </trkpt>
      <trkpt lat="43.40648" lon="6.64562">
        <ele>267.60000610352</ele>
        <time>2018-02-03T14:08:01.000Z</time>
      </trkpt>
      <trkpt lat="43.4065" lon="6.64562">
        <ele>268</ele>
        <time>2018-02-03T14:08:03.000Z</time>
      </trkpt>
      <trkpt lat="43.40657" lon="6.6456">
        <ele>268.60000610352</ele>
        <time>2018-02-03T14:08:07.000Z</time>
      </trkpt>
      <trkpt lat="43.4066" lon="6.6456">
        <ele>268.79998779297</ele>
        <time>2018-02-03T14:08:09.000Z</time>
      </trkpt>
      <trkpt lat="43.40669" lon="6.64558">
        <ele>270</ele>
        <time>2018-02-03T14:08:15.000Z</time>
      </trkpt>
      <trkpt lat="43.4067" lon="6.64558">
        <ele>270.20001220703</ele>
        <time>2018-02-03T14:08:16.000Z</time>
      </trkpt>
      <trkpt lat="43.40675" lon="6.64557">
        <ele>271</ele>
        <time>2018-02-03T14:08:19.000Z</time>
      </trkpt>
      <trkpt lat="43.40684" lon="6.64558">
        <ele>272</ele>
        <time>2018-02-03T14:08:24.000Z</time>
      </trkpt>
      <trkpt lat="43.40698" lon="6.64558">
        <ele>273</ele>
        <time>2018-02-03T14:08:31.000Z</time>
      </trkpt>
      <trkpt lat="43.4071" lon="6.64558">
        <ele>274.20001220703</ele>
        <time>2018-02-03T14:08:36.000Z</time>
      </trkpt>
      <trkpt lat="43.40713" lon="6.64557">
        <ele>274</ele>
        <time>2018-02-03T14:08:37.000Z</time>
      </trkpt>
      <trkpt lat="43.40737" lon="6.6455">
        <ele>273</ele>
        <time>2018-02-03T14:08:42.000Z</time>
      </trkpt>
      <trkpt lat="43.40748" lon="6.64545">
        <ele>271.79998779297</ele>
        <time>2018-02-03T14:08:44.000Z</time>
      </trkpt>
      <trkpt lat="43.4076" lon="6.64541">
        <ele>270.39999389648</ele>
        <time>2018-02-03T14:08:46.000Z</time>
      </trkpt>
      <trkpt lat="43.40764" lon="6.6454">
        <ele>269.79998779297</ele>
        <time>2018-02-03T14:08:47.000Z</time>
      </trkpt>
      <trkpt lat="43.40769" lon="6.6454">
        <ele>269.60000610352</ele>
        <time>2018-02-03T14:08:48.000Z</time>
      </trkpt>
      <trkpt lat="43.40775" lon="6.6454">
        <ele>270</ele>
        <time>2018-02-03T14:08:51.000Z</time>
      </trkpt>
      <trkpt lat="43.40779" lon="6.64539">
        <ele>271.79998779297</ele>
        <time>2018-02-03T14:08:54.000Z</time>
      </trkpt>
      <trkpt lat="43.40783" lon="6.64539">
        <ele>273</ele>
        <time>2018-02-03T14:08:57.000Z</time>
      </trkpt>
      <trkpt lat="43.40784" lon="6.64539">
        <ele>273.20001220703</ele>
        <time>2018-02-03T14:08:58.000Z</time>
      </trkpt>
      <trkpt lat="43.40788" lon="6.6454">
        <ele>274</ele>
        <time>2018-02-03T14:09:01.000Z</time>
      </trkpt>
      <trkpt lat="43.40793" lon="6.64541">
        <ele>274.79998779297</ele>
        <time>2018-02-03T14:09:04.000Z</time>
      </trkpt>
      <trkpt lat="43.40803" lon="6.64541">
        <ele>275.20001220703</ele>
        <time>2018-02-03T14:09:10.000Z</time>
      </trkpt>
      <trkpt lat="43.40804" lon="6.64541">
        <ele>275.39999389648</ele>
        <time>2018-02-03T14:09:11.000Z</time>
      </trkpt>
      <trkpt lat="43.4081" lon="6.64542">
        <ele>276.39999389648</ele>
        <time>2018-02-03T14:09:15.000Z</time>
      </trkpt>
      <trkpt lat="43.40816" lon="6.64543">
        <ele>277.39999389648</ele>
        <time>2018-02-03T14:09:19.000Z</time>
      </trkpt>
      <trkpt lat="43.40825" lon="6.64545">
        <ele>278.60000610352</ele>
        <time>2018-02-03T14:09:24.000Z</time>
      </trkpt>
      <trkpt lat="43.40829" lon="6.64546">
        <ele>279</ele>
        <time>2018-02-03T14:09:26.000Z</time>
      </trkpt>
      <trkpt lat="43.40834" lon="6.64547">
        <ele>279.79998779297</ele>
        <time>2018-02-03T14:09:29.000Z</time>
      </trkpt>
      <trkpt lat="43.4084" lon="6.64547">
        <ele>280.79998779297</ele>
        <time>2018-02-03T14:09:33.000Z</time>
      </trkpt>
      <trkpt lat="43.40847" lon="6.64549">
        <ele>281.79998779297</ele>
        <time>2018-02-03T14:09:38.000Z</time>
      </trkpt>
      <trkpt lat="43.40849" lon="6.6455">
        <ele>282.39999389648</ele>
        <time>2018-02-03T14:09:40.000Z</time>
      </trkpt>
      <trkpt lat="43.40853" lon="6.64551">
        <ele>283</ele>
        <time>2018-02-03T14:09:43.000Z</time>
      </trkpt>
      <trkpt lat="43.40856" lon="6.64552">
        <ele>283.20001220703</ele>
        <time>2018-02-03T14:09:45.000Z</time>
      </trkpt>
      <trkpt lat="43.40856" lon="6.64552">
        <ele>283.39999389648</ele>
        <time>2018-02-03T14:09:46.000Z</time>
      </trkpt>
      <trkpt lat="43.40859" lon="6.64553">
        <ele>284</ele>
        <time>2018-02-03T14:09:49.000Z</time>
      </trkpt>
      <trkpt lat="43.40861" lon="6.64554">
        <ele>284.20001220703</ele>
        <time>2018-02-03T14:09:51.000Z</time>
      </trkpt>
      <trkpt lat="43.40862" lon="6.64555">
        <ele>284.20001220703</ele>
        <time>2018-02-03T14:09:52.000Z</time>
      </trkpt>
      <trkpt lat="43.40863" lon="6.6456">
        <ele>284.60000610352</ele>
        <time>2018-02-03T14:09:57.000Z</time>
      </trkpt>
      <trkpt lat="43.40864" lon="6.6456">
        <ele>285</ele>
        <time>2018-02-03T14:10:03.000Z</time>
      </trkpt>
      <trkpt lat="43.40864" lon="6.6456">
        <ele>285.20001220703</ele>
        <time>2018-02-03T14:10:04.000Z</time>
      </trkpt>
      <trkpt lat="43.40865" lon="6.64563">
        <ele>285.60000610352</ele>
        <time>2018-02-03T14:10:12.000Z</time>
      </trkpt>
      <trkpt lat="43.40865" lon="6.64564">
        <ele>285.60000610352</ele>
        <time>2018-02-03T14:10:13.000Z</time>
      </trkpt>
      <trkpt lat="43.40864" lon="6.6457">
        <ele>285.79998779297</ele>
        <time>2018-02-03T14:10:18.000Z</time>
      </trkpt>
      <trkpt lat="43.40863" lon="6.64573">
        <ele>286.20001220703</ele>
        <time>2018-02-03T14:10:21.000Z</time>
      </trkpt>
      <trkpt lat="43.40863" lon="6.64577">
        <ele>286.79998779297</ele>
        <time>2018-02-03T14:10:24.000Z</time>
      </trkpt>
      <trkpt lat="43.40863" lon="6.6458">
        <ele>287.20001220703</ele>
        <time>2018-02-03T14:10:26.000Z</time>
      </trkpt>
      <trkpt lat="43.40862" lon="6.64587">
        <ele>288.39999389648</ele>
        <time>2018-02-03T14:10:30.000Z</time>
      </trkpt>
      <trkpt lat="43.40862" lon="6.64589">
        <ele>288.60000610352</ele>
        <time>2018-02-03T14:10:31.000Z</time>
      </trkpt>
      <trkpt lat="43.4086" lon="6.64598">
        <ele>289.79998779297</ele>
        <time>2018-02-03T14:10:36.000Z</time>
      </trkpt>
      <trkpt lat="43.40859" lon="6.64605">
        <ele>291</ele>
        <time>2018-02-03T14:10:40.000Z</time>
      </trkpt>
      <trkpt lat="43.40857" lon="6.64609">
        <ele>292</ele>
        <time>2018-02-03T14:10:43.000Z</time>
      </trkpt>
      <trkpt lat="43.40856" lon="6.64614">
        <ele>293.39999389648</ele>
        <time>2018-02-03T14:10:47.000Z</time>
      </trkpt>
      <trkpt lat="43.40854" lon="6.6462">
        <ele>294.39999389648</ele>
        <time>2018-02-03T14:10:51.000Z</time>
      </trkpt>
      <trkpt lat="43.40854" lon="6.64624">
        <ele>295.39999389648</ele>
        <time>2018-02-03T14:10:54.000Z</time>
      </trkpt>
      <trkpt lat="43.40854" lon="6.64625">
        <ele>295.60000610352</ele>
        <time>2018-02-03T14:10:55.000Z</time>
      </trkpt>
      <trkpt lat="43.40852" lon="6.64627">
        <ele>297</ele>
        <time>2018-02-03T14:10:58.000Z</time>
      </trkpt>
      <trkpt lat="43.40853" lon="6.6463">
        <ele>297.39999389648</ele>
        <time>2018-02-03T14:11:00.000Z</time>
      </trkpt>
      <trkpt lat="43.40853" lon="6.64634">
        <ele>298.20001220703</ele>
        <time>2018-02-03T14:11:03.000Z</time>
      </trkpt>
      <trkpt lat="43.40853" lon="6.64638">
        <ele>298.79998779297</ele>
        <time>2018-02-03T14:11:06.000Z</time>
      </trkpt>
      <trkpt lat="43.40852" lon="6.6464">
        <ele>299.20001220703</ele>
        <time>2018-02-03T14:11:08.000Z</time>
      </trkpt>
      <trkpt lat="43.4085" lon="6.64644">
        <ele>300.20001220703</ele>
        <time>2018-02-03T14:11:13.000Z</time>
      </trkpt>
      <trkpt lat="43.4085" lon="6.64645">
        <ele>300.39999389648</ele>
        <time>2018-02-03T14:11:14.000Z</time>
      </trkpt>
      <trkpt lat="43.4085" lon="6.64654">
        <ele>301.20001220703</ele>
        <time>2018-02-03T14:11:20.000Z</time>
      </trkpt>
      <trkpt lat="43.4085" lon="6.64657">
        <ele>301.39999389648</ele>
        <time>2018-02-03T14:11:22.000Z</time>
      </trkpt>
      <trkpt lat="43.4085" lon="6.64665">
        <ele>301.79998779297</ele>
        <time>2018-02-03T14:11:25.000Z</time>
      </trkpt>
      <trkpt lat="43.40848" lon="6.64683">
        <ele>301.79998779297</ele>
        <time>2018-02-03T14:11:32.000Z</time>
      </trkpt>
      <trkpt lat="43.40846" lon="6.64691">
        <ele>302.60000610352</ele>
        <time>2018-02-03T14:11:36.000Z</time>
      </trkpt>
      <trkpt lat="43.40845" lon="6.64696">
        <ele>303.39999389648</ele>
        <time>2018-02-03T14:11:39.000Z</time>
      </trkpt>
      <trkpt lat="43.40845" lon="6.64699">
        <ele>303.79998779297</ele>
        <time>2018-02-03T14:11:41.000Z</time>
      </trkpt>
      <trkpt lat="43.40842" lon="6.64708">
        <ele>305</ele>
        <time>2018-02-03T14:11:47.000Z</time>
      </trkpt>
      <trkpt lat="43.40841" lon="6.6471">
        <ele>305.20001220703</ele>
        <time>2018-02-03T14:11:48.000Z</time>
      </trkpt>
      <trkpt lat="43.40839" lon="6.64715">
        <ele>306.20001220703</ele>
        <time>2018-02-03T14:11:52.000Z</time>
      </trkpt>
      <trkpt lat="43.40836" lon="6.64718">
        <ele>306.79998779297</ele>
        <time>2018-02-03T14:11:55.000Z</time>
      </trkpt>
      <trkpt lat="43.40835" lon="6.6472">
        <ele>307</ele>
        <time>2018-02-03T14:11:57.000Z</time>
      </trkpt>
      <trkpt lat="43.40834" lon="6.64721">
        <ele>307.39999389648</ele>
        <time>2018-02-03T14:11:58.000Z</time>
      </trkpt>
      <trkpt lat="43.40831" lon="6.64726">
        <ele>308</ele>
        <time>2018-02-03T14:12:02.000Z</time>
      </trkpt>
      <trkpt lat="43.4083" lon="6.64728">
        <ele>308.39999389648</ele>
        <time>2018-02-03T14:12:04.000Z</time>
      </trkpt>
      <trkpt lat="43.40827" lon="6.64735">
        <ele>309.20001220703</ele>
        <time>2018-02-03T14:12:08.000Z</time>
      </trkpt>
      <trkpt lat="43.40824" lon="6.64739">
        <ele>309.39999389648</ele>
        <time>2018-02-03T14:12:10.000Z</time>
      </trkpt>
      <trkpt lat="43.40823" lon="6.64744">
        <ele>309.79998779297</ele>
        <time>2018-02-03T14:12:12.000Z</time>
      </trkpt>
      <trkpt lat="43.40821" lon="6.64749">
        <ele>310</ele>
        <time>2018-02-03T14:12:14.000Z</time>
      </trkpt>
      <trkpt lat="43.40819" lon="6.64754">
        <ele>310.60000610352</ele>
        <time>2018-02-03T14:12:16.000Z</time>
      </trkpt>
      <trkpt lat="43.40817" lon="6.64764">
        <ele>311.20001220703</ele>
        <time>2018-02-03T14:12:20.000Z</time>
      </trkpt>
      <trkpt lat="43.40813" lon="6.64773">
        <ele>311.60000610352</ele>
        <time>2018-02-03T14:12:23.000Z</time>
      </trkpt>
      <trkpt lat="43.40808" lon="6.64788">
        <ele>311.79998779297</ele>
        <time>2018-02-03T14:12:27.000Z</time>
      </trkpt>
      <trkpt lat="43.40805" lon="6.64814">
        <ele>311.60000610352</ele>
        <time>2018-02-03T14:12:33.000Z</time>
      </trkpt>
      <trkpt lat="43.40805" lon="6.64833">
        <ele>312.60000610352</ele>
        <time>2018-02-03T14:12:39.000Z</time>
      </trkpt>
      <trkpt lat="43.40804" lon="6.64837">
        <ele>313</ele>
        <time>2018-02-03T14:12:40.000Z</time>
      </trkpt>
      <trkpt lat="43.40803" lon="6.64851">
        <ele>313.39999389648</ele>
        <time>2018-02-03T14:12:44.000Z</time>
      </trkpt>
      <trkpt lat="43.40801" lon="6.64872">
        <ele>313.39999389648</ele>
        <time>2018-02-03T14:12:48.000Z</time>
      </trkpt>
      <trkpt lat="43.40804" lon="6.64891">
        <ele>312.39999389648</ele>
        <time>2018-02-03T14:12:52.000Z</time>
      </trkpt>
      <trkpt lat="43.4081" lon="6.64899">
        <ele>312.60000610352</ele>
        <time>2018-02-03T14:12:57.000Z</time>
      </trkpt>
      <trkpt lat="43.40814" lon="6.64906">
        <ele>314.20001220703</ele>
        <time>2018-02-03T14:13:01.000Z</time>
      </trkpt>
      <trkpt lat="43.40819" lon="6.64914">
        <ele>315.39999389648</ele>
        <time>2018-02-03T14:13:05.000Z</time>
      </trkpt>
      <trkpt lat="43.40827" lon="6.64919">
        <ele>316.39999389648</ele>
        <time>2018-02-03T14:13:10.000Z</time>
      </trkpt>
      <trkpt lat="43.40829" lon="6.6492">
        <ele>316.60000610352</ele>
        <time>2018-02-03T14:13:11.000Z</time>
      </trkpt>
      <trkpt lat="43.40845" lon="6.6493">
        <ele>317.60000610352</ele>
        <time>2018-02-03T14:13:19.000Z</time>
      </trkpt>
      <trkpt lat="43.40851" lon="6.6494">
        <ele>317.79998779297</ele>
        <time>2018-02-03T14:13:24.000Z</time>
      </trkpt>
      <trkpt lat="43.4085" lon="6.64949">
        <ele>318.79998779297</ele>
        <time>2018-02-03T14:13:29.000Z</time>
      </trkpt>
      <trkpt lat="43.4085" lon="6.64951">
        <ele>319</ele>
        <time>2018-02-03T14:13:30.000Z</time>
      </trkpt>
      <trkpt lat="43.40848" lon="6.64956">
        <ele>319.79998779297</ele>
        <time>2018-02-03T14:13:33.000Z</time>
      </trkpt>
      <trkpt lat="43.40846" lon="6.6496">
        <ele>320.79998779297</ele>
        <time>2018-02-03T14:13:36.000Z</time>
      </trkpt>
      <trkpt lat="43.40845" lon="6.64961">
        <ele>321</ele>
        <time>2018-02-03T14:13:37.000Z</time>
      </trkpt>
      <trkpt lat="43.40843" lon="6.64968">
        <ele>321.79998779297</ele>
        <time>2018-02-03T14:13:41.000Z</time>
      </trkpt>
      <trkpt lat="43.40843" lon="6.64973">
        <ele>322.20001220703</ele>
        <time>2018-02-03T14:13:44.000Z</time>
      </trkpt>
      <trkpt lat="43.40844" lon="6.64982">
        <ele>322.79998779297</ele>
        <time>2018-02-03T14:13:48.000Z</time>
      </trkpt>
      <trkpt lat="43.40844" lon="6.64988">
        <ele>323.39999389648</ele>
        <time>2018-02-03T14:13:51.000Z</time>
      </trkpt>
      <trkpt lat="43.40843" lon="6.64993">
        <ele>323.79998779297</ele>
        <time>2018-02-03T14:13:54.000Z</time>
      </trkpt>
      <trkpt lat="43.40843" lon="6.65">
        <ele>325</ele>
        <time>2018-02-03T14:13:58.000Z</time>
      </trkpt>
      <trkpt lat="43.40844" lon="6.65003">
        <ele>325.39999389648</ele>
        <time>2018-02-03T14:14:00.000Z</time>
      </trkpt>
      <trkpt lat="43.40845" lon="6.65006">
        <ele>326</ele>
        <time>2018-02-03T14:14:02.000Z</time>
      </trkpt>
      <trkpt lat="43.40848" lon="6.65017">
        <ele>327</ele>
        <time>2018-02-03T14:14:07.000Z</time>
      </trkpt>
      <trkpt lat="43.40851" lon="6.65037">
        <ele>327.79998779297</ele>
        <time>2018-02-03T14:14:14.000Z</time>
      </trkpt>
      <trkpt lat="43.40858" lon="6.6505">
        <ele>327.60000610352</ele>
        <time>2018-02-03T14:14:18.000Z</time>
      </trkpt>
      <trkpt lat="43.40868" lon="6.6505">
        <ele>327</ele>
        <time>2018-02-03T14:14:22.000Z</time>
      </trkpt>
      <trkpt lat="43.40874" lon="6.65048">
        <ele>328</ele>
        <time>2018-02-03T14:14:26.000Z</time>
      </trkpt>
      <trkpt lat="43.40876" lon="6.65048">
        <ele>328.60000610352</ele>
        <time>2018-02-03T14:14:27.000Z</time>
      </trkpt>
      <trkpt lat="43.40879" lon="6.65047">
        <ele>329.20001220703</ele>
        <time>2018-02-03T14:14:29.000Z</time>
      </trkpt>
      <trkpt lat="43.4088" lon="6.65048">
        <ele>329.20001220703</ele>
        <time>2018-02-03T14:14:30.000Z</time>
      </trkpt>
      <trkpt lat="43.40885" lon="6.65048">
        <ele>329.39999389648</ele>
        <time>2018-02-03T14:14:33.000Z</time>
      </trkpt>
      <trkpt lat="43.40891" lon="6.6505">
        <ele>329.79998779297</ele>
        <time>2018-02-03T14:14:38.000Z</time>
      </trkpt>
      <trkpt lat="43.40893" lon="6.65051">
        <ele>330.20001220703</ele>
        <time>2018-02-03T14:14:40.000Z</time>
      </trkpt>
      <trkpt lat="43.409" lon="6.6505">
        <ele>330.39999389648</ele>
        <time>2018-02-03T14:14:44.000Z</time>
      </trkpt>
      <trkpt lat="43.40914" lon="6.65049">
        <ele>329.79998779297</ele>
        <time>2018-02-03T14:14:49.000Z</time>
      </trkpt>
      <trkpt lat="43.40925" lon="6.65052">
        <ele>329.20001220703</ele>
        <time>2018-02-03T14:14:54.000Z</time>
      </trkpt>
      <trkpt lat="43.40926" lon="6.65053">
        <ele>329</ele>
        <time>2018-02-03T14:14:55.000Z</time>
      </trkpt>
      <trkpt lat="43.40931" lon="6.65055">
        <ele>330.20001220703</ele>
        <time>2018-02-03T14:15:00.000Z</time>
      </trkpt>
      <trkpt lat="43.40932" lon="6.65055">
        <ele>330.39999389648</ele>
        <time>2018-02-03T14:15:01.000Z</time>
      </trkpt>
      <trkpt lat="43.40934" lon="6.65057">
        <ele>330.79998779297</ele>
        <time>2018-02-03T14:15:03.000Z</time>
      </trkpt>
      <trkpt lat="43.40936" lon="6.65057">
        <ele>331.39999389648</ele>
        <time>2018-02-03T14:15:05.000Z</time>
      </trkpt>
      <trkpt lat="43.40936" lon="6.65058">
        <ele>331.60000610352</ele>
        <time>2018-02-03T14:15:06.000Z</time>
      </trkpt>
      <trkpt lat="43.40939" lon="6.65059">
        <ele>332.60000610352</ele>
        <time>2018-02-03T14:15:09.000Z</time>
      </trkpt>
      <trkpt lat="43.40946" lon="6.65059">
        <ele>332.39999389648</ele>
        <time>2018-02-03T14:15:13.000Z</time>
      </trkpt>
      <trkpt lat="43.40962" lon="6.6506">
        <ele>331.20001220703</ele>
        <time>2018-02-03T14:15:19.000Z</time>
      </trkpt>
      <trkpt lat="43.40974" lon="6.65063">
        <ele>330.60000610352</ele>
        <time>2018-02-03T14:15:22.000Z</time>
      </trkpt>
      <trkpt lat="43.40977" lon="6.65065">
        <ele>330.20001220703</ele>
        <time>2018-02-03T14:15:23.000Z</time>
      </trkpt>
      <trkpt lat="43.40996" lon="6.65067">
        <ele>329.39999389648</ele>
        <time>2018-02-03T14:15:29.000Z</time>
      </trkpt>
      <trkpt lat="43.40999" lon="6.65068">
        <ele>329.20001220703</ele>
        <time>2018-02-03T14:15:30.000Z</time>
      </trkpt>
      <trkpt lat="43.41007" lon="6.65072">
        <ele>328.60000610352</ele>
        <time>2018-02-03T14:15:35.000Z</time>
      </trkpt>
      <trkpt lat="43.41011" lon="6.65074">
        <ele>328</ele>
        <time>2018-02-03T14:15:37.000Z</time>
      </trkpt>
      <trkpt lat="43.41018" lon="6.65079">
        <ele>326.79998779297</ele>
        <time>2018-02-03T14:15:41.000Z</time>
      </trkpt>
      <trkpt lat="43.41021" lon="6.65081">
        <ele>326.20001220703</ele>
        <time>2018-02-03T14:15:43.000Z</time>
      </trkpt>
      <trkpt lat="43.41024" lon="6.65083">
        <ele>325.60000610352</ele>
        <time>2018-02-03T14:15:45.000Z</time>
      </trkpt>
      <trkpt lat="43.41027" lon="6.65085">
        <ele>324.79998779297</ele>
        <time>2018-02-03T14:15:49.000Z</time>
      </trkpt>
      <trkpt lat="43.41027" lon="6.65086">
        <ele>324.60000610352</ele>
        <time>2018-02-03T14:15:57.000Z</time>
      </trkpt>
      <trkpt lat="43.41027" lon="6.65085">
        <ele>324.60000610352</ele>
        <time>2018-02-03T14:15:58.000Z</time>
      </trkpt>
      <trkpt lat="43.41027" lon="6.65083">
        <ele>324.39999389648</ele>
        <time>2018-02-03T14:16:04.000Z</time>
      </trkpt>
      <trkpt lat="43.41019" lon="6.65078">
        <ele>325.20001220703</ele>
        <time>2018-02-03T14:16:12.000Z</time>
      </trkpt>
      <trkpt lat="43.41014" lon="6.65075">
        <ele>325.60000610352</ele>
        <time>2018-02-03T14:16:17.000Z</time>
      </trkpt>
      <trkpt lat="43.4101" lon="6.65072">
        <ele>326.60000610352</ele>
        <time>2018-02-03T14:16:21.000Z</time>
      </trkpt>
      <trkpt lat="43.41008" lon="6.65071">
        <ele>326.79998779297</ele>
        <time>2018-02-03T14:16:23.000Z</time>
      </trkpt>
      <trkpt lat="43.41007" lon="6.65071">
        <ele>327.60000610352</ele>
        <time>2018-02-03T14:16:27.000Z</time>
      </trkpt>
      <trkpt lat="43.41006" lon="6.6507">
        <ele>327.79998779297</ele>
        <time>2018-02-03T14:16:28.000Z</time>
      </trkpt>
      <trkpt lat="43.40997" lon="6.65067">
        <ele>328.20001220703</ele>
        <time>2018-02-03T14:16:34.000Z</time>
      </trkpt>
      <trkpt lat="43.40981" lon="6.65065">
        <ele>328.79998779297</ele>
        <time>2018-02-03T14:16:41.000Z</time>
      </trkpt>
      <trkpt lat="43.40969" lon="6.65061">
        <ele>329.39999389648</ele>
        <time>2018-02-03T14:16:46.000Z</time>
      </trkpt>
      <trkpt lat="43.4096" lon="6.65061">
        <ele>330</ele>
        <time>2018-02-03T14:16:51.000Z</time>
      </trkpt>
      <trkpt lat="43.40956" lon="6.65061">
        <ele>330.39999389648</ele>
        <time>2018-02-03T14:16:53.000Z</time>
      </trkpt>
      <trkpt lat="43.40952" lon="6.65061">
        <ele>331</ele>
        <time>2018-02-03T14:16:55.000Z</time>
      </trkpt>
      <trkpt lat="43.40942" lon="6.65061">
        <ele>332.20001220703</ele>
        <time>2018-02-03T14:17:02.000Z</time>
      </trkpt>
      <trkpt lat="43.40941" lon="6.65061">
        <ele>332.39999389648</ele>
        <time>2018-02-03T14:17:07.000Z</time>
      </trkpt>
      <trkpt lat="43.40939" lon="6.65063">
        <ele>332.79998779297</ele>
        <time>2018-02-03T14:17:14.000Z</time>
      </trkpt>
      <trkpt lat="43.40938" lon="6.65066">
        <ele>333.39999389648</ele>
        <time>2018-02-03T14:17:18.000Z</time>
      </trkpt>
      <trkpt lat="43.40937" lon="6.65066">
        <ele>333.79998779297</ele>
        <time>2018-02-03T14:17:20.000Z</time>
      </trkpt>
      <trkpt lat="43.40936" lon="6.65068">
        <ele>334.60000610352</ele>
        <time>2018-02-03T14:17:23.000Z</time>
      </trkpt>
      <trkpt lat="43.40936" lon="6.65071">
        <ele>335.79998779297</ele>
        <time>2018-02-03T14:17:27.000Z</time>
      </trkpt>
      <trkpt lat="43.40937" lon="6.65071">
        <ele>336.20001220703</ele>
        <time>2018-02-03T14:17:28.000Z</time>
      </trkpt>
      <trkpt lat="43.40939" lon="6.65073">
        <ele>336.79998779297</ele>
        <time>2018-02-03T14:17:31.000Z</time>
      </trkpt>
      <trkpt lat="43.40939" lon="6.65075">
        <ele>337</ele>
        <time>2018-02-03T14:17:32.000Z</time>
      </trkpt>
      <trkpt lat="43.40939" lon="6.65076">
        <ele>337.20001220703</ele>
        <time>2018-02-03T14:17:33.000Z</time>
      </trkpt>
      <trkpt lat="43.40937" lon="6.6508">
        <ele>337.60000610352</ele>
        <time>2018-02-03T14:17:39.000Z</time>
      </trkpt>
      <trkpt lat="43.40938" lon="6.6508">
        <ele>337.79998779297</ele>
        <time>2018-02-03T14:17:40.000Z</time>
      </trkpt>
      <trkpt lat="43.40938" lon="6.65084">
        <ele>339</ele>
        <time>2018-02-03T14:17:44.000Z</time>
      </trkpt>
      <trkpt lat="43.40939" lon="6.65086">
        <ele>339.20001220703</ele>
        <time>2018-02-03T14:17:45.000Z</time>
      </trkpt>
      <trkpt lat="43.40938" lon="6.65087">
        <ele>339.39999389648</ele>
        <time>2018-02-03T14:17:46.000Z</time>
      </trkpt>
      <trkpt lat="43.40936" lon="6.6509">
        <ele>340</ele>
        <time>2018-02-03T14:17:50.000Z</time>
      </trkpt>
      <trkpt lat="43.40938" lon="6.65094">
        <ele>341</ele>
        <time>2018-02-03T14:17:54.000Z</time>
      </trkpt>
      <trkpt lat="43.40939" lon="6.65094">
        <ele>341.20001220703</ele>
        <time>2018-02-03T14:17:55.000Z</time>
      </trkpt>
      <trkpt lat="43.40943" lon="6.65096">
        <ele>342</ele>
        <time>2018-02-03T14:18:01.000Z</time>
      </trkpt>
      <trkpt lat="43.40948" lon="6.65101">
        <ele>342.20001220703</ele>
        <time>2018-02-03T14:18:06.000Z</time>
      </trkpt>
      <trkpt lat="43.4095" lon="6.65102">
        <ele>342.20001220703</ele>
        <time>2018-02-03T14:18:08.000Z</time>
      </trkpt>
      <trkpt lat="43.40951" lon="6.65103">
        <ele>342.39999389648</ele>
        <time>2018-02-03T14:18:14.000Z</time>
      </trkpt>
      <trkpt lat="43.40951" lon="6.65103">
        <ele>342</ele>
        <time>2018-02-03T14:18:25.000Z</time>
      </trkpt>
      <trkpt lat="43.4095" lon="6.65103">
        <ele>342</ele>
        <time>2018-02-03T14:18:32.000Z</time>
      </trkpt>
      <trkpt lat="43.40951" lon="6.65103">
        <ele>342.39999389648</ele>
        <time>2018-02-03T14:18:50.000Z</time>
      </trkpt>
      <trkpt lat="43.40955" lon="6.65103">
        <ele>343.20001220703</ele>
        <time>2018-02-03T14:18:56.000Z</time>
      </trkpt>
      <trkpt lat="43.40955" lon="6.65103">
        <ele>343.20001220703</ele>
        <time>2018-02-03T14:18:57.000Z</time>
      </trkpt>
      <trkpt lat="43.40955" lon="6.65103">
        <ele>343.60000610352</ele>
        <time>2018-02-03T14:19:02.000Z</time>
      </trkpt>
      <trkpt lat="43.40962" lon="6.65107">
        <ele>343.79998779297</ele>
        <time>2018-02-03T14:19:08.000Z</time>
      </trkpt>
      <trkpt lat="43.40964" lon="6.65108">
        <ele>343.20001220703</ele>
        <time>2018-02-03T14:19:12.000Z</time>
      </trkpt>
      <trkpt lat="43.40965" lon="6.65109">
        <ele>342.20001220703</ele>
        <time>2018-02-03T14:19:15.000Z</time>
      </trkpt>
      <trkpt lat="43.40964" lon="6.65109">
        <ele>341.79998779297</ele>
        <time>2018-02-03T14:19:20.000Z</time>
      </trkpt>
      <trkpt lat="43.40965" lon="6.65109">
        <ele>341.39999389648</ele>
        <time>2018-02-03T14:19:26.000Z</time>
      </trkpt>
      <trkpt lat="43.40965" lon="6.65109">
        <ele>342.60000610352</ele>
        <time>2018-02-03T14:19:42.000Z</time>
      </trkpt>
      <trkpt lat="43.40966" lon="6.65109">
        <ele>342.60000610352</ele>
        <time>2018-02-03T14:19:59.000Z</time>
      </trkpt>
      <trkpt lat="43.40967" lon="6.65109">
        <ele>342.60000610352</ele>
        <time>2018-02-03T14:20:23.000Z</time>
      </trkpt>
      <trkpt lat="43.40968" lon="6.6511">
        <ele>342.60000610352</ele>
        <time>2018-02-03T14:20:49.000Z</time>
      </trkpt>
      <trkpt lat="43.40968" lon="6.6511">
        <ele>342.20001220703</ele>
        <time>2018-02-03T14:21:00.000Z</time>
      </trkpt>
      <trkpt lat="43.40977" lon="6.65116">
        <ele>342</ele>
        <time>2018-02-03T14:21:05.000Z</time>
      </trkpt>
      <trkpt lat="43.40985" lon="6.65119">
        <ele>341.60000610352</ele>
        <time>2018-02-03T14:21:07.000Z</time>
      </trkpt>
      <trkpt lat="43.40991" lon="6.65117">
        <ele>341</ele>
        <time>2018-02-03T14:21:09.000Z</time>
      </trkpt>
      <trkpt lat="43.40996" lon="6.65118">
        <ele>340.20001220703</ele>
        <time>2018-02-03T14:21:12.000Z</time>
      </trkpt>
      <trkpt lat="43.40999" lon="6.65124">
        <ele>340.39999389648</ele>
        <time>2018-02-03T14:21:14.000Z</time>
      </trkpt>
      <trkpt lat="43.41002" lon="6.65132">
        <ele>341</ele>
        <time>2018-02-03T14:21:16.000Z</time>
      </trkpt>
      <trkpt lat="43.41005" lon="6.65135">
        <ele>340.79998779297</ele>
        <time>2018-02-03T14:21:17.000Z</time>
      </trkpt>
      <trkpt lat="43.41012" lon="6.65138">
        <ele>339.39999389648</ele>
        <time>2018-02-03T14:21:19.000Z</time>
      </trkpt>
      <trkpt lat="43.41015" lon="6.65142">
        <ele>338.39999389648</ele>
        <time>2018-02-03T14:21:20.000Z</time>
      </trkpt>
      <trkpt lat="43.41018" lon="6.6515">
        <ele>336.79998779297</ele>
        <time>2018-02-03T14:21:22.000Z</time>
      </trkpt>
      <trkpt lat="43.41023" lon="6.65148">
        <ele>335.39999389648</ele>
        <time>2018-02-03T14:21:24.000Z</time>
      </trkpt>
      <trkpt lat="43.41027" lon="6.65147">
        <ele>335</ele>
        <time>2018-02-03T14:21:25.000Z</time>
      </trkpt>
      <trkpt lat="43.41034" lon="6.65144">
        <ele>333.79998779297</ele>
        <time>2018-02-03T14:21:27.000Z</time>
      </trkpt>
      <trkpt lat="43.41038" lon="6.65145">
        <ele>333</ele>
        <time>2018-02-03T14:21:29.000Z</time>
      </trkpt>
      <trkpt lat="43.41038" lon="6.65147">
        <ele>332.60000610352</ele>
        <time>2018-02-03T14:21:30.000Z</time>
      </trkpt>
      <trkpt lat="43.41039" lon="6.65148">
        <ele>332.60000610352</ele>
        <time>2018-02-03T14:21:31.000Z</time>
      </trkpt>
      <trkpt lat="43.41038" lon="6.65146">
        <ele>331.60000610352</ele>
        <time>2018-02-03T14:21:34.000Z</time>
      </trkpt>
      <trkpt lat="43.41038" lon="6.65147">
        <ele>331.39999389648</ele>
        <time>2018-02-03T14:21:36.000Z</time>
      </trkpt>
      <trkpt lat="43.41039" lon="6.65148">
        <ele>330.79998779297</ele>
        <time>2018-02-03T14:21:39.000Z</time>
      </trkpt>
      <trkpt lat="43.41038" lon="6.65155">
        <ele>331.20001220703</ele>
        <time>2018-02-03T14:21:44.000Z</time>
      </trkpt>
      <trkpt lat="43.41037" lon="6.65161">
        <ele>331.20001220703</ele>
        <time>2018-02-03T14:21:46.000Z</time>
      </trkpt>
      <trkpt lat="43.41036" lon="6.65164">
        <ele>331.20001220703</ele>
        <time>2018-02-03T14:21:48.000Z</time>
      </trkpt>
      <trkpt lat="43.41034" lon="6.6517">
        <ele>330.20001220703</ele>
        <time>2018-02-03T14:21:52.000Z</time>
      </trkpt>
      <trkpt lat="43.41033" lon="6.65172">
        <ele>329.79998779297</ele>
        <time>2018-02-03T14:21:53.000Z</time>
      </trkpt>
      <trkpt lat="43.41029" lon="6.65181">
        <ele>329</ele>
        <time>2018-02-03T14:21:58.000Z</time>
      </trkpt>
      <trkpt lat="43.41029" lon="6.65185">
        <ele>328.39999389648</ele>
        <time>2018-02-03T14:22:00.000Z</time>
      </trkpt>
      <trkpt lat="43.41028" lon="6.65185">
        <ele>328.39999389648</ele>
        <time>2018-02-03T14:22:02.000Z</time>
      </trkpt>
      <trkpt lat="43.41028" lon="6.65187">
        <ele>327.79998779297</ele>
        <time>2018-02-03T14:22:04.000Z</time>
      </trkpt>
      <trkpt lat="43.41028" lon="6.65195">
        <ele>327.39999389648</ele>
        <time>2018-02-03T14:22:07.000Z</time>
      </trkpt>
      <trkpt lat="43.41028" lon="6.65197">
        <ele>326.79998779297</ele>
        <time>2018-02-03T14:22:08.000Z</time>
      </trkpt>
      <trkpt lat="43.41028" lon="6.65199">
        <ele>326.20001220703</ele>
        <time>2018-02-03T14:22:09.000Z</time>
      </trkpt>
      <trkpt lat="43.41031" lon="6.652">
        <ele>325.39999389648</ele>
        <time>2018-02-03T14:22:10.000Z</time>
      </trkpt>
      <trkpt lat="43.41032" lon="6.652">
        <ele>324.79998779297</ele>
        <time>2018-02-03T14:22:11.000Z</time>
      </trkpt>
      <trkpt lat="43.41035" lon="6.65199">
        <ele>324</ele>
        <time>2018-02-03T14:22:12.000Z</time>
      </trkpt>
      <trkpt lat="43.4104" lon="6.65202">
        <ele>323</ele>
        <time>2018-02-03T14:22:14.000Z</time>
      </trkpt>
      <trkpt lat="43.41043" lon="6.65205">
        <ele>323</ele>
        <time>2018-02-03T14:22:15.000Z</time>
      </trkpt>
      <trkpt lat="43.41047" lon="6.65205">
        <ele>322.39999389648</ele>
        <time>2018-02-03T14:22:16.000Z</time>
      </trkpt>
      <trkpt lat="43.41055" lon="6.65203">
        <ele>321.39999389648</ele>
        <time>2018-02-03T14:22:18.000Z</time>
      </trkpt>
      <trkpt lat="43.41064" lon="6.65202">
        <ele>320</ele>
        <time>2018-02-03T14:22:20.000Z</time>
      </trkpt>
      <trkpt lat="43.41067" lon="6.65198">
        <ele>319.39999389648</ele>
        <time>2018-02-03T14:22:21.000Z</time>
      </trkpt>
      <trkpt lat="43.41071" lon="6.65195">
        <ele>318.79998779297</ele>
        <time>2018-02-03T14:22:22.000Z</time>
      </trkpt>
      <trkpt lat="43.41077" lon="6.65191">
        <ele>317.60000610352</ele>
        <time>2018-02-03T14:22:24.000Z</time>
      </trkpt>
      <trkpt lat="43.41083" lon="6.65191">
        <ele>316.79998779297</ele>
        <time>2018-02-03T14:22:26.000Z</time>
      </trkpt>
      <trkpt lat="43.41086" lon="6.65191">
        <ele>316.39999389648</ele>
        <time>2018-02-03T14:22:27.000Z</time>
      </trkpt>
      <trkpt lat="43.41089" lon="6.65194">
        <ele>316</ele>
        <time>2018-02-03T14:22:28.000Z</time>
      </trkpt>
      <trkpt lat="43.41092" lon="6.65199">
        <ele>315.39999389648</ele>
        <time>2018-02-03T14:22:30.000Z</time>
      </trkpt>
      <trkpt lat="43.41098" lon="6.65198">
        <ele>313.60000610352</ele>
        <time>2018-02-03T14:22:32.000Z</time>
      </trkpt>
      <trkpt lat="43.41103" lon="6.65198">
        <ele>312.60000610352</ele>
        <time>2018-02-03T14:22:33.000Z</time>
      </trkpt>
      <trkpt lat="43.4111" lon="6.6519">
        <ele>310.60000610352</ele>
        <time>2018-02-03T14:22:35.000Z</time>
      </trkpt>
      <trkpt lat="43.41113" lon="6.65184">
        <ele>309.79998779297</ele>
        <time>2018-02-03T14:22:36.000Z</time>
      </trkpt>
      <trkpt lat="43.41116" lon="6.65182">
        <ele>308.79998779297</ele>
        <time>2018-02-03T14:22:37.000Z</time>
      </trkpt>
      <trkpt lat="43.41125" lon="6.65186">
        <ele>307.60000610352</ele>
        <time>2018-02-03T14:22:39.000Z</time>
      </trkpt>
      <trkpt lat="43.41133" lon="6.65199">
        <ele>306.39999389648</ele>
        <time>2018-02-03T14:22:42.000Z</time>
      </trkpt>
      <trkpt lat="43.41139" lon="6.65195">
        <ele>305.39999389648</ele>
        <time>2018-02-03T14:22:44.000Z</time>
      </trkpt>
      <trkpt lat="43.41145" lon="6.65193">
        <ele>304.39999389648</ele>
        <time>2018-02-03T14:22:45.000Z</time>
      </trkpt>
      <trkpt lat="43.41149" lon="6.65194">
        <ele>303.20001220703</ele>
        <time>2018-02-03T14:22:46.000Z</time>
      </trkpt>
      <trkpt lat="43.41152" lon="6.65192">
        <ele>302</ele>
        <time>2018-02-03T14:22:47.000Z</time>
      </trkpt>
      <trkpt lat="43.41156" lon="6.65188">
        <ele>300.79998779297</ele>
        <time>2018-02-03T14:22:48.000Z</time>
      </trkpt>
      <trkpt lat="43.41161" lon="6.65194">
        <ele>298.39999389648</ele>
        <time>2018-02-03T14:22:50.000Z</time>
      </trkpt>
      <trkpt lat="43.41164" lon="6.65196">
        <ele>297.79998779297</ele>
        <time>2018-02-03T14:22:51.000Z</time>
      </trkpt>
      <trkpt lat="43.41169" lon="6.65196">
        <ele>297</ele>
        <time>2018-02-03T14:22:52.000Z</time>
      </trkpt>
      <trkpt lat="43.41172" lon="6.65199">
        <ele>295.79998779297</ele>
        <time>2018-02-03T14:22:53.000Z</time>
      </trkpt>
      <trkpt lat="43.41175" lon="6.65201">
        <ele>295</ele>
        <time>2018-02-03T14:22:54.000Z</time>
      </trkpt>
      <trkpt lat="43.41178" lon="6.65201">
        <ele>294.20001220703</ele>
        <time>2018-02-03T14:22:55.000Z</time>
      </trkpt>
      <trkpt lat="43.41182" lon="6.65202">
        <ele>292.79998779297</ele>
        <time>2018-02-03T14:22:56.000Z</time>
      </trkpt>
      <trkpt lat="43.41185" lon="6.65206">
        <ele>292</ele>
        <time>2018-02-03T14:22:57.000Z</time>
      </trkpt>
      <trkpt lat="43.41187" lon="6.65209">
        <ele>291</ele>
        <time>2018-02-03T14:22:58.000Z</time>
      </trkpt>
      <trkpt lat="43.41194" lon="6.65215">
        <ele>289.39999389648</ele>
        <time>2018-02-03T14:23:00.000Z</time>
      </trkpt>
      <trkpt lat="43.41197" lon="6.65215">
        <ele>288.60000610352</ele>
        <time>2018-02-03T14:23:01.000Z</time>
      </trkpt>
      <trkpt lat="43.412" lon="6.65217">
        <ele>287.79998779297</ele>
        <time>2018-02-03T14:23:02.000Z</time>
      </trkpt>
      <trkpt lat="43.41203" lon="6.65217">
        <ele>285.79998779297</ele>
        <time>2018-02-03T14:23:04.000Z</time>
      </trkpt>
      <trkpt lat="43.41204" lon="6.65216">
        <ele>284.20001220703</ele>
        <time>2018-02-03T14:23:05.000Z</time>
      </trkpt>
      <trkpt lat="43.41203" lon="6.65217">
        <ele>283</ele>
        <time>2018-02-03T14:23:06.000Z</time>
      </trkpt>
      <trkpt lat="43.41204" lon="6.65216">
        <ele>281.39999389648</ele>
        <time>2018-02-03T14:23:08.000Z</time>
      </trkpt>
      <trkpt lat="43.41204" lon="6.65217">
        <ele>281</ele>
        <time>2018-02-03T14:23:10.000Z</time>
      </trkpt>
      <trkpt lat="43.41205" lon="6.65217">
        <ele>281</ele>
        <time>2018-02-03T14:23:22.000Z</time>
      </trkpt>
      <trkpt lat="43.41206" lon="6.65216">
        <ele>280.79998779297</ele>
        <time>2018-02-03T14:23:31.000Z</time>
      </trkpt>
      <trkpt lat="43.41207" lon="6.65218">
        <ele>280.60000610352</ele>
        <time>2018-02-03T14:23:34.000Z</time>
      </trkpt>
      <trkpt lat="43.4121" lon="6.65225">
        <ele>280.39999389648</ele>
        <time>2018-02-03T14:23:37.000Z</time>
      </trkpt>
      <trkpt lat="43.41213" lon="6.65231">
        <ele>280.20001220703</ele>
        <time>2018-02-03T14:23:39.000Z</time>
      </trkpt>
      <trkpt lat="43.41218" lon="6.6524">
        <ele>279</ele>
        <time>2018-02-03T14:23:41.000Z</time>
      </trkpt>
      <trkpt lat="43.4122" lon="6.65245">
        <ele>278</ele>
        <time>2018-02-03T14:23:42.000Z</time>
      </trkpt>
      <trkpt lat="43.41222" lon="6.65254">
        <ele>276</ele>
        <time>2018-02-03T14:23:44.000Z</time>
      </trkpt>
      <trkpt lat="43.41225" lon="6.65256">
        <ele>274.79998779297</ele>
        <time>2018-02-03T14:23:45.000Z</time>
      </trkpt>
      <trkpt lat="43.41228" lon="6.65262">
        <ele>273.20001220703</ele>
        <time>2018-02-03T14:23:47.000Z</time>
      </trkpt>
      <trkpt lat="43.41229" lon="6.65266">
        <ele>272.20001220703</ele>
        <time>2018-02-03T14:23:48.000Z</time>
      </trkpt>
      <trkpt lat="43.41231" lon="6.65272">
        <ele>270.20001220703</ele>
        <time>2018-02-03T14:23:50.000Z</time>
      </trkpt>
      <trkpt lat="43.41231" lon="6.65275">
        <ele>269</ele>
        <time>2018-02-03T14:23:51.000Z</time>
      </trkpt>
      <trkpt lat="43.41231" lon="6.65281">
        <ele>268</ele>
        <time>2018-02-03T14:23:52.000Z</time>
      </trkpt>
      <trkpt lat="43.41233" lon="6.65292">
        <ele>266.39999389648</ele>
        <time>2018-02-03T14:23:54.000Z</time>
      </trkpt>
      <trkpt lat="43.41237" lon="6.65295">
        <ele>265.20001220703</ele>
        <time>2018-02-03T14:23:55.000Z</time>
      </trkpt>
      <trkpt lat="43.41239" lon="6.65299">
        <ele>263.60000610352</ele>
        <time>2018-02-03T14:23:56.000Z</time>
      </trkpt>
      <trkpt lat="43.41241" lon="6.65304">
        <ele>262.20001220703</ele>
        <time>2018-02-03T14:23:57.000Z</time>
      </trkpt>
      <trkpt lat="43.41241" lon="6.65309">
        <ele>260</ele>
        <time>2018-02-03T14:23:58.000Z</time>
      </trkpt>
      <trkpt lat="43.41241" lon="6.65311">
        <ele>258.60000610352</ele>
        <time>2018-02-03T14:23:59.000Z</time>
      </trkpt>
      <trkpt lat="43.41244" lon="6.65311">
        <ele>257.39999389648</ele>
        <time>2018-02-03T14:24:00.000Z</time>
      </trkpt>
      <trkpt lat="43.41247" lon="6.65312">
        <ele>256.20001220703</ele>
        <time>2018-02-03T14:24:01.000Z</time>
      </trkpt>
      <trkpt lat="43.41251" lon="6.65314">
        <ele>255.19999694824</ele>
        <time>2018-02-03T14:24:02.000Z</time>
      </trkpt>
      <trkpt lat="43.41253" lon="6.6532">
        <ele>254.19999694824</ele>
        <time>2018-02-03T14:24:03.000Z</time>
      </trkpt>
      <trkpt lat="43.41252" lon="6.65324">
        <ele>253.39999389648</ele>
        <time>2018-02-03T14:24:04.000Z</time>
      </trkpt>
      <trkpt lat="43.41256" lon="6.65329">
        <ele>252.19999694824</ele>
        <time>2018-02-03T14:24:06.000Z</time>
      </trkpt>
      <trkpt lat="43.41262" lon="6.65335">
        <ele>250.60000610352</ele>
        <time>2018-02-03T14:24:08.000Z</time>
      </trkpt>
      <trkpt lat="43.41261" lon="6.65342">
        <ele>248.39999389648</ele>
        <time>2018-02-03T14:24:10.000Z</time>
      </trkpt>
      <trkpt lat="43.41258" lon="6.65347">
        <ele>247</ele>
        <time>2018-02-03T14:24:12.000Z</time>
      </trkpt>
      <trkpt lat="43.4126" lon="6.65348">
        <ele>246.19999694824</ele>
        <time>2018-02-03T14:24:13.000Z</time>
      </trkpt>
      <trkpt lat="43.41265" lon="6.65351">
        <ele>245.80000305176</ele>
        <time>2018-02-03T14:24:14.000Z</time>
      </trkpt>
      <trkpt lat="43.41269" lon="6.65354">
        <ele>245.60000610352</ele>
        <time>2018-02-03T14:24:15.000Z</time>
      </trkpt>
      <trkpt lat="43.41273" lon="6.65358">
        <ele>245</ele>
        <time>2018-02-03T14:24:16.000Z</time>
      </trkpt>
      <trkpt lat="43.41277" lon="6.65359">
        <ele>244.19999694824</ele>
        <time>2018-02-03T14:24:17.000Z</time>
      </trkpt>
      <trkpt lat="43.41283" lon="6.6537">
        <ele>243</ele>
        <time>2018-02-03T14:24:19.000Z</time>
      </trkpt>
      <trkpt lat="43.41287" lon="6.65373">
        <ele>241.80000305176</ele>
        <time>2018-02-03T14:24:20.000Z</time>
      </trkpt>
      <trkpt lat="43.41292" lon="6.65376">
        <ele>240.39999389648</ele>
        <time>2018-02-03T14:24:21.000Z</time>
      </trkpt>
      <trkpt lat="43.41296" lon="6.65377">
        <ele>239.60000610352</ele>
        <time>2018-02-03T14:24:22.000Z</time>
      </trkpt>
      <trkpt lat="43.41299" lon="6.6538">
        <ele>238.39999389648</ele>
        <time>2018-02-03T14:24:23.000Z</time>
      </trkpt>
      <trkpt lat="43.41301" lon="6.65387">
        <ele>237.19999694824</ele>
        <time>2018-02-03T14:24:24.000Z</time>
      </trkpt>
      <trkpt lat="43.41302" lon="6.65395">
        <ele>236.19999694824</ele>
        <time>2018-02-03T14:24:25.000Z</time>
      </trkpt>
      <trkpt lat="43.41303" lon="6.654">
        <ele>235.19999694824</ele>
        <time>2018-02-03T14:24:26.000Z</time>
      </trkpt>
      <trkpt lat="43.41305" lon="6.65401">
        <ele>234</ele>
        <time>2018-02-03T14:24:27.000Z</time>
      </trkpt>
      <trkpt lat="43.41309" lon="6.65402">
        <ele>233</ele>
        <time>2018-02-03T14:24:28.000Z</time>
      </trkpt>
      <trkpt lat="43.4132" lon="6.65411">
        <ele>231.19999694824</ele>
        <time>2018-02-03T14:24:30.000Z</time>
      </trkpt>
      <trkpt lat="43.41325" lon="6.65417">
        <ele>230.39999389648</ele>
        <time>2018-02-03T14:24:31.000Z</time>
      </trkpt>
      <trkpt lat="43.41329" lon="6.65425">
        <ele>229.60000610352</ele>
        <time>2018-02-03T14:24:32.000Z</time>
      </trkpt>
      <trkpt lat="43.41337" lon="6.65435">
        <ele>227.80000305176</ele>
        <time>2018-02-03T14:24:34.000Z</time>
      </trkpt>
      <trkpt lat="43.41345" lon="6.6545">
        <ele>225.80000305176</ele>
        <time>2018-02-03T14:24:36.000Z</time>
      </trkpt>
      <trkpt lat="43.41351" lon="6.65467">
        <ele>223.60000610352</ele>
        <time>2018-02-03T14:24:38.000Z</time>
      </trkpt>
      <trkpt lat="43.41356" lon="6.65472">
        <ele>223</ele>
        <time>2018-02-03T14:24:39.000Z</time>
      </trkpt>
      <trkpt lat="43.41359" lon="6.65482">
        <ele>221.60000610352</ele>
        <time>2018-02-03T14:24:40.000Z</time>
      </trkpt>
      <trkpt lat="43.4136" lon="6.65492">
        <ele>220.80000305176</ele>
        <time>2018-02-03T14:24:41.000Z</time>
      </trkpt>
      <trkpt lat="43.41362" lon="6.655">
        <ele>219.60000610352</ele>
        <time>2018-02-03T14:24:42.000Z</time>
      </trkpt>
      <trkpt lat="43.41364" lon="6.65508">
        <ele>219</ele>
        <time>2018-02-03T14:24:43.000Z</time>
      </trkpt>
      <trkpt lat="43.41364" lon="6.65516">
        <ele>217.60000610352</ele>
        <time>2018-02-03T14:24:44.000Z</time>
      </trkpt>
      <trkpt lat="43.41365" lon="6.65522">
        <ele>217.19999694824</ele>
        <time>2018-02-03T14:24:45.000Z</time>
      </trkpt>
      <trkpt lat="43.41366" lon="6.65527">
        <ele>216.39999389648</ele>
        <time>2018-02-03T14:24:46.000Z</time>
      </trkpt>
      <trkpt lat="43.41369" lon="6.65529">
        <ele>216.19999694824</ele>
        <time>2018-02-03T14:24:47.000Z</time>
      </trkpt>
      <trkpt lat="43.41373" lon="6.65532">
        <ele>215.60000610352</ele>
        <time>2018-02-03T14:24:48.000Z</time>
      </trkpt>
      <trkpt lat="43.41377" lon="6.65535">
        <ele>215</ele>
        <time>2018-02-03T14:24:49.000Z</time>
      </trkpt>
      <trkpt lat="43.4138" lon="6.65546">
        <ele>214</ele>
        <time>2018-02-03T14:24:51.000Z</time>
      </trkpt>
      <trkpt lat="43.41382" lon="6.65551">
        <ele>212.80000305176</ele>
        <time>2018-02-03T14:24:52.000Z</time>
      </trkpt>
      <trkpt lat="43.41389" lon="6.65556">
        <ele>211</ele>
        <time>2018-02-03T14:24:54.000Z</time>
      </trkpt>
      <trkpt lat="43.41393" lon="6.65559">
        <ele>209.80000305176</ele>
        <time>2018-02-03T14:24:55.000Z</time>
      </trkpt>
      <trkpt lat="43.41393" lon="6.65564">
        <ele>208.39999389648</ele>
        <time>2018-02-03T14:24:56.000Z</time>
      </trkpt>
      <trkpt lat="43.41394" lon="6.65568">
        <ele>206.80000305176</ele>
        <time>2018-02-03T14:24:57.000Z</time>
      </trkpt>
      <trkpt lat="43.41396" lon="6.65571">
        <ele>205.60000610352</ele>
        <time>2018-02-03T14:24:58.000Z</time>
      </trkpt>
      <trkpt lat="43.41398" lon="6.65574">
        <ele>204.39999389648</ele>
        <time>2018-02-03T14:24:59.000Z</time>
      </trkpt>
      <trkpt lat="43.414" lon="6.65579">
        <ele>202.80000305176</ele>
        <time>2018-02-03T14:25:00.000Z</time>
      </trkpt>
      <trkpt lat="43.414" lon="6.65584">
        <ele>201.19999694824</ele>
        <time>2018-02-03T14:25:01.000Z</time>
      </trkpt>
      <trkpt lat="43.41398" lon="6.65587">
        <ele>200</ele>
        <time>2018-02-03T14:25:02.000Z</time>
      </trkpt>
      <trkpt lat="43.41396" lon="6.65589">
        <ele>198.60000610352</ele>
        <time>2018-02-03T14:25:03.000Z</time>
      </trkpt>
      <trkpt lat="43.41396" lon="6.65594">
        <ele>197.60000610352</ele>
        <time>2018-02-03T14:25:04.000Z</time>
      </trkpt>
      <trkpt lat="43.41399" lon="6.65605">
        <ele>196</ele>
        <time>2018-02-03T14:25:06.000Z</time>
      </trkpt>
      <trkpt lat="43.414" lon="6.65611">
        <ele>195.19999694824</ele>
        <time>2018-02-03T14:25:07.000Z</time>
      </trkpt>
      <trkpt lat="43.41403" lon="6.65615">
        <ele>194.39999389648</ele>
        <time>2018-02-03T14:25:08.000Z</time>
      </trkpt>
      <trkpt lat="43.41406" lon="6.65625">
        <ele>192.60000610352</ele>
        <time>2018-02-03T14:25:10.000Z</time>
      </trkpt>
      <trkpt lat="43.41406" lon="6.65629">
        <ele>191.60000610352</ele>
        <time>2018-02-03T14:25:11.000Z</time>
      </trkpt>
      <trkpt lat="43.41406" lon="6.65633">
        <ele>191</ele>
        <time>2018-02-03T14:25:12.000Z</time>
      </trkpt>
      <trkpt lat="43.41407" lon="6.65644">
        <ele>189.80000305176</ele>
        <time>2018-02-03T14:25:14.000Z</time>
      </trkpt>
      <trkpt lat="43.41405" lon="6.65647">
        <ele>188.60000610352</ele>
        <time>2018-02-03T14:25:15.000Z</time>
      </trkpt>
      <trkpt lat="43.41403" lon="6.65651">
        <ele>187.60000610352</ele>
        <time>2018-02-03T14:25:16.000Z</time>
      </trkpt>
      <trkpt lat="43.41403" lon="6.65661">
        <ele>185.80000305176</ele>
        <time>2018-02-03T14:25:18.000Z</time>
      </trkpt>
      <trkpt lat="43.41404" lon="6.65666">
        <ele>184.80000305176</ele>
        <time>2018-02-03T14:25:19.000Z</time>
      </trkpt>
      <trkpt lat="43.41404" lon="6.65676">
        <ele>183.60000610352</ele>
        <time>2018-02-03T14:25:21.000Z</time>
      </trkpt>
      <trkpt lat="43.41403" lon="6.65684">
        <ele>182.19999694824</ele>
        <time>2018-02-03T14:25:23.000Z</time>
      </trkpt>
      <trkpt lat="43.41401" lon="6.65687">
        <ele>181.60000610352</ele>
        <time>2018-02-03T14:25:24.000Z</time>
      </trkpt>
      <trkpt lat="43.41402" lon="6.65694">
        <ele>180.60000610352</ele>
        <time>2018-02-03T14:25:26.000Z</time>
      </trkpt>
      <trkpt lat="43.41403" lon="6.65698">
        <ele>179.60000610352</ele>
        <time>2018-02-03T14:25:27.000Z</time>
      </trkpt>
      <trkpt lat="43.41402" lon="6.65703">
        <ele>178.39999389648</ele>
        <time>2018-02-03T14:25:28.000Z</time>
      </trkpt>
      <trkpt lat="43.41399" lon="6.6571">
        <ele>177.39999389648</ele>
        <time>2018-02-03T14:25:30.000Z</time>
      </trkpt>
      <trkpt lat="43.41399" lon="6.65715">
        <ele>176.19999694824</ele>
        <time>2018-02-03T14:25:31.000Z</time>
      </trkpt>
      <trkpt lat="43.414" lon="6.65721">
        <ele>175.19999694824</ele>
        <time>2018-02-03T14:25:32.000Z</time>
      </trkpt>
      <trkpt lat="43.41398" lon="6.65725">
        <ele>174.39999389648</ele>
        <time>2018-02-03T14:25:33.000Z</time>
      </trkpt>
      <trkpt lat="43.41397" lon="6.65729">
        <ele>173.39999389648</ele>
        <time>2018-02-03T14:25:34.000Z</time>
      </trkpt>
      <trkpt lat="43.41397" lon="6.65737">
        <ele>171.60000610352</ele>
        <time>2018-02-03T14:25:36.000Z</time>
      </trkpt>
      <trkpt lat="43.41396" lon="6.65741">
        <ele>170.60000610352</ele>
        <time>2018-02-03T14:25:37.000Z</time>
      </trkpt>
      <trkpt lat="43.41394" lon="6.65749">
        <ele>169</ele>
        <time>2018-02-03T14:25:39.000Z</time>
      </trkpt>
      <trkpt lat="43.41393" lon="6.65759">
        <ele>167.39999389648</ele>
        <time>2018-02-03T14:25:41.000Z</time>
      </trkpt>
      <trkpt lat="43.41392" lon="6.65769">
        <ele>165.39999389648</ele>
        <time>2018-02-03T14:25:43.000Z</time>
      </trkpt>
      <trkpt lat="43.4139" lon="6.65778">
        <ele>163.39999389648</ele>
        <time>2018-02-03T14:25:45.000Z</time>
      </trkpt>
      <trkpt lat="43.41393" lon="6.65787">
        <ele>162.19999694824</ele>
        <time>2018-02-03T14:25:47.000Z</time>
      </trkpt>
      <trkpt lat="43.41393" lon="6.65792">
        <ele>161.60000610352</ele>
        <time>2018-02-03T14:25:48.000Z</time>
      </trkpt>
      <trkpt lat="43.41393" lon="6.65796">
        <ele>161.39999389648</ele>
        <time>2018-02-03T14:25:49.000Z</time>
      </trkpt>
      <trkpt lat="43.41395" lon="6.65801">
        <ele>160.80000305176</ele>
        <time>2018-02-03T14:25:50.000Z</time>
      </trkpt>
      <trkpt lat="43.41395" lon="6.65814">
        <ele>159.19999694824</ele>
        <time>2018-02-03T14:25:52.000Z</time>
      </trkpt>
      <trkpt lat="43.41395" lon="6.65819">
        <ele>158</ele>
        <time>2018-02-03T14:25:53.000Z</time>
      </trkpt>
      <trkpt lat="43.41394" lon="6.65825">
        <ele>156.80000305176</ele>
        <time>2018-02-03T14:25:54.000Z</time>
      </trkpt>
      <trkpt lat="43.41394" lon="6.6583">
        <ele>155.60000610352</ele>
        <time>2018-02-03T14:25:55.000Z</time>
      </trkpt>
      <trkpt lat="43.41393" lon="6.65834">
        <ele>154</ele>
        <time>2018-02-03T14:25:56.000Z</time>
      </trkpt>
      <trkpt lat="43.41393" lon="6.65839">
        <ele>153.39999389648</ele>
        <time>2018-02-03T14:25:57.000Z</time>
      </trkpt>
      <trkpt lat="43.41393" lon="6.65844">
        <ele>152</ele>
        <time>2018-02-03T14:25:58.000Z</time>
      </trkpt>
      <trkpt lat="43.41395" lon="6.65854">
        <ele>150.19999694824</ele>
        <time>2018-02-03T14:26:00.000Z</time>
      </trkpt>
      <trkpt lat="43.41397" lon="6.65858">
        <ele>149</ele>
        <time>2018-02-03T14:26:01.000Z</time>
      </trkpt>
      <trkpt lat="43.414" lon="6.6586">
        <ele>147.80000305176</ele>
        <time>2018-02-03T14:26:02.000Z</time>
      </trkpt>
      <trkpt lat="43.41403" lon="6.65869">
        <ele>146.19999694824</ele>
        <time>2018-02-03T14:26:04.000Z</time>
      </trkpt>
      <trkpt lat="43.41404" lon="6.65873">
        <ele>145.60000610352</ele>
        <time>2018-02-03T14:26:05.000Z</time>
      </trkpt>
      <trkpt lat="43.41406" lon="6.65878">
        <ele>144.60000610352</ele>
        <time>2018-02-03T14:26:06.000Z</time>
      </trkpt>
      <trkpt lat="43.41411" lon="6.65883">
        <ele>143.19999694824</ele>
        <time>2018-02-03T14:26:08.000Z</time>
      </trkpt>
      <trkpt lat="43.41414" lon="6.65886">
        <ele>142.60000610352</ele>
        <time>2018-02-03T14:26:09.000Z</time>
      </trkpt>
      <trkpt lat="43.41417" lon="6.65886">
        <ele>141.80000305176</ele>
        <time>2018-02-03T14:26:10.000Z</time>
      </trkpt>
      <trkpt lat="43.41421" lon="6.65886">
        <ele>140.80000305176</ele>
        <time>2018-02-03T14:26:11.000Z</time>
      </trkpt>
      <trkpt lat="43.41426" lon="6.65886">
        <ele>139.60000610352</ele>
        <time>2018-02-03T14:26:12.000Z</time>
      </trkpt>
      <trkpt lat="43.41431" lon="6.65888">
        <ele>138.39999389648</ele>
        <time>2018-02-03T14:26:13.000Z</time>
      </trkpt>
      <trkpt lat="43.41443" lon="6.65892">
        <ele>136.80000305176</ele>
        <time>2018-02-03T14:26:15.000Z</time>
      </trkpt>
      <trkpt lat="43.41446" lon="6.65895">
        <ele>135.80000305176</ele>
        <time>2018-02-03T14:26:16.000Z</time>
      </trkpt>
      <trkpt lat="43.41447" lon="6.659">
        <ele>135</ele>
        <time>2018-02-03T14:26:17.000Z</time>
      </trkpt>
      <trkpt lat="43.41447" lon="6.65906">
        <ele>134.19999694824</ele>
        <time>2018-02-03T14:26:18.000Z</time>
      </trkpt>
      <trkpt lat="43.41448" lon="6.65909">
        <ele>133.39999389648</ele>
        <time>2018-02-03T14:26:19.000Z</time>
      </trkpt>
      <trkpt lat="43.41449" lon="6.65913">
        <ele>132.19999694824</ele>
        <time>2018-02-03T14:26:20.000Z</time>
      </trkpt>
      <trkpt lat="43.41451" lon="6.65914">
        <ele>131.39999389648</ele>
        <time>2018-02-03T14:26:21.000Z</time>
      </trkpt>
      <trkpt lat="43.41454" lon="6.65919">
        <ele>130.39999389648</ele>
        <time>2018-02-03T14:26:22.000Z</time>
      </trkpt>
      <trkpt lat="43.41458" lon="6.65933">
        <ele>129.19999694824</ele>
        <time>2018-02-03T14:26:24.000Z</time>
      </trkpt>
      <trkpt lat="43.41458" lon="6.6594">
        <ele>128.39999389648</ele>
        <time>2018-02-03T14:26:25.000Z</time>
      </trkpt>
      <trkpt lat="43.41462" lon="6.6595">
        <ele>127.59999847412</ele>
        <time>2018-02-03T14:26:27.000Z</time>
      </trkpt>
      <trkpt lat="43.41465" lon="6.65953">
        <ele>125.19999694824</ele>
        <time>2018-02-03T14:26:28.000Z</time>
      </trkpt>
      <trkpt lat="43.41467" lon="6.65957">
        <ele>123.59999847412</ele>
        <time>2018-02-03T14:26:29.000Z</time>
      </trkpt>
      <trkpt lat="43.41467" lon="6.65963">
        <ele>121.80000305176</ele>
        <time>2018-02-03T14:26:30.000Z</time>
      </trkpt>
      <trkpt lat="43.41465" lon="6.65966">
        <ele>120</ele>
        <time>2018-02-03T14:26:31.000Z</time>
      </trkpt>
      <trkpt lat="43.41463" lon="6.6597">
        <ele>118.59999847412</ele>
        <time>2018-02-03T14:26:32.000Z</time>
      </trkpt>
      <trkpt lat="43.41461" lon="6.65974">
        <ele>118.59999847412</ele>
        <time>2018-02-03T14:26:33.000Z</time>
      </trkpt>
      <trkpt lat="43.41458" lon="6.65976">
        <ele>118.40000152588</ele>
        <time>2018-02-03T14:26:34.000Z</time>
      </trkpt>
      <trkpt lat="43.41455" lon="6.65975">
        <ele>117</ele>
        <time>2018-02-03T14:26:35.000Z</time>
      </trkpt>
      <trkpt lat="43.41451" lon="6.65974">
        <ele>116.19999694824</ele>
        <time>2018-02-03T14:26:36.000Z</time>
      </trkpt>
      <trkpt lat="43.41448" lon="6.65975">
        <ele>115.40000152588</ele>
        <time>2018-02-03T14:26:37.000Z</time>
      </trkpt>
      <trkpt lat="43.41446" lon="6.6598">
        <ele>113.19999694824</ele>
        <time>2018-02-03T14:26:39.000Z</time>
      </trkpt>
      <trkpt lat="43.41444" lon="6.65982">
        <ele>112.19999694824</ele>
        <time>2018-02-03T14:26:41.000Z</time>
      </trkpt>
      <trkpt lat="43.41442" lon="6.65988">
        <ele>110.80000305176</ele>
        <time>2018-02-03T14:26:43.000Z</time>
      </trkpt>
      <trkpt lat="43.41433" lon="6.65989">
        <ele>109.80000305176</ele>
        <time>2018-02-03T14:26:46.000Z</time>
      </trkpt>
      <trkpt lat="43.4143" lon="6.6599">
        <ele>109.40000152588</ele>
        <time>2018-02-03T14:26:47.000Z</time>
      </trkpt>
      <trkpt lat="43.41422" lon="6.65997">
        <ele>108.59999847412</ele>
        <time>2018-02-03T14:26:49.000Z</time>
      </trkpt>
      <trkpt lat="43.41418" lon="6.65999">
        <ele>108.19999694824</ele>
        <time>2018-02-03T14:26:50.000Z</time>
      </trkpt>
      <trkpt lat="43.41409" lon="6.66001">
        <ele>106.80000305176</ele>
        <time>2018-02-03T14:26:52.000Z</time>
      </trkpt>
      <trkpt lat="43.41404" lon="6.66003">
        <ele>106.19999694824</ele>
        <time>2018-02-03T14:26:53.000Z</time>
      </trkpt>
      <trkpt lat="43.41399" lon="6.66005">
        <ele>105.80000305176</ele>
        <time>2018-02-03T14:26:54.000Z</time>
      </trkpt>
      <trkpt lat="43.41382" lon="6.66013">
        <ele>104.59999847412</ele>
        <time>2018-02-03T14:26:57.000Z</time>
      </trkpt>
      <trkpt lat="43.41376" lon="6.66028">
        <ele>103.19999694824</ele>
        <time>2018-02-03T14:27:00.000Z</time>
      </trkpt>
      <trkpt lat="43.41367" lon="6.66037">
        <ele>103.40000152588</ele>
        <time>2018-02-03T14:27:03.000Z</time>
      </trkpt>
      <trkpt lat="43.41359" lon="6.66046">
        <ele>103.80000305176</ele>
        <time>2018-02-03T14:27:06.000Z</time>
      </trkpt>
      <trkpt lat="43.41355" lon="6.66052">
        <ele>101.80000305176</ele>
        <time>2018-02-03T14:27:10.000Z</time>
      </trkpt>
      <trkpt lat="43.41352" lon="6.66055">
        <ele>100</ele>
        <time>2018-02-03T14:27:12.000Z</time>
      </trkpt>
      <trkpt lat="43.41352" lon="6.66062">
        <ele>98.800003051758</ele>
        <time>2018-02-03T14:27:14.000Z</time>
      </trkpt>
      <trkpt lat="43.41356" lon="6.66071">
        <ele>97.199996948242</ele>
        <time>2018-02-03T14:27:16.000Z</time>
      </trkpt>
      <trkpt lat="43.41356" lon="6.66076">
        <ele>96.400001525879</ele>
        <time>2018-02-03T14:27:17.000Z</time>
      </trkpt>
      <trkpt lat="43.41355" lon="6.66083">
        <ele>95.599998474121</ele>
        <time>2018-02-03T14:27:18.000Z</time>
      </trkpt>
      <trkpt lat="43.41357" lon="6.66104">
        <ele>94.199996948242</ele>
        <time>2018-02-03T14:27:21.000Z</time>
      </trkpt>
      <trkpt lat="43.41346" lon="6.66116">
        <ele>93.400001525879</ele>
        <time>2018-02-03T14:27:24.000Z</time>
      </trkpt>
      <trkpt lat="43.4134" lon="6.66119">
        <ele>93.199996948242</ele>
        <time>2018-02-03T14:27:25.000Z</time>
      </trkpt>
      <trkpt lat="43.41336" lon="6.66123">
        <ele>92.800003051758</ele>
        <time>2018-02-03T14:27:26.000Z</time>
      </trkpt>
      <trkpt lat="43.41326" lon="6.66126">
        <ele>92</ele>
        <time>2018-02-03T14:27:28.000Z</time>
      </trkpt>
      <trkpt lat="43.4132" lon="6.66136">
        <ele>90.199996948242</ele>
        <time>2018-02-03T14:27:30.000Z</time>
      </trkpt>
      <trkpt lat="43.41316" lon="6.66141">
        <ele>89.400001525879</ele>
        <time>2018-02-03T14:27:31.000Z</time>
      </trkpt>
      <trkpt lat="43.41312" lon="6.66144">
        <ele>88.800003051758</ele>
        <time>2018-02-03T14:27:32.000Z</time>
      </trkpt>
      <trkpt lat="43.41303" lon="6.66148">
        <ele>87.599998474121</ele>
        <time>2018-02-03T14:27:34.000Z</time>
      </trkpt>
      <trkpt lat="43.41299" lon="6.66153">
        <ele>87.199996948242</ele>
        <time>2018-02-03T14:27:35.000Z</time>
      </trkpt>
      <trkpt lat="43.41291" lon="6.66162">
        <ele>86.199996948242</ele>
        <time>2018-02-03T14:27:37.000Z</time>
      </trkpt>
      <trkpt lat="43.41289" lon="6.66168">
        <ele>85</ele>
        <time>2018-02-03T14:27:39.000Z</time>
      </trkpt>
      <trkpt lat="43.41288" lon="6.6617">
        <ele>84.599998474121</ele>
        <time>2018-02-03T14:27:40.000Z</time>
      </trkpt>
      <trkpt lat="43.41286" lon="6.66175">
        <ele>83.800003051758</ele>
        <time>2018-02-03T14:27:42.000Z</time>
      </trkpt>
      <trkpt lat="43.41283" lon="6.66179">
        <ele>83.400001525879</ele>
        <time>2018-02-03T14:27:44.000Z</time>
      </trkpt>
      <trkpt lat="43.41279" lon="6.66184">
        <ele>82.599998474121</ele>
        <time>2018-02-03T14:27:46.000Z</time>
      </trkpt>
      <trkpt lat="43.41278" lon="6.66186">
        <ele>82</ele>
        <time>2018-02-03T14:27:47.000Z</time>
      </trkpt>
      <trkpt lat="43.41275" lon="6.66188">
        <ele>81</ele>
        <time>2018-02-03T14:27:48.000Z</time>
      </trkpt>
      <trkpt lat="43.41273" lon="6.66189">
        <ele>80</ele>
        <time>2018-02-03T14:27:49.000Z</time>
      </trkpt>
      <trkpt lat="43.4127" lon="6.6619">
        <ele>79</ele>
        <time>2018-02-03T14:27:50.000Z</time>
      </trkpt>
      <trkpt lat="43.41268" lon="6.66193">
        <ele>77.800003051758</ele>
        <time>2018-02-03T14:27:51.000Z</time>
      </trkpt>
      <trkpt lat="43.41266" lon="6.66197">
        <ele>76.599998474121</ele>
        <time>2018-02-03T14:27:52.000Z</time>
      </trkpt>
      <trkpt lat="43.41264" lon="6.66199">
        <ele>75.599998474121</ele>
        <time>2018-02-03T14:27:53.000Z</time>
      </trkpt>
      <trkpt lat="43.41261" lon="6.66202">
        <ele>74.599998474121</ele>
        <time>2018-02-03T14:27:54.000Z</time>
      </trkpt>
      <trkpt lat="43.41259" lon="6.66205">
        <ele>73.199996948242</ele>
        <time>2018-02-03T14:27:55.000Z</time>
      </trkpt>
      <trkpt lat="43.41255" lon="6.66206">
        <ele>71.800003051758</ele>
        <time>2018-02-03T14:27:57.000Z</time>
      </trkpt>
      <trkpt lat="43.41254" lon="6.66207">
        <ele>70.599998474121</ele>
        <time>2018-02-03T14:28:01.000Z</time>
      </trkpt>
      <trkpt lat="43.41253" lon="6.66208">
        <ele>70.800003051758</ele>
        <time>2018-02-03T14:28:02.000Z</time>
      </trkpt>
      <trkpt lat="43.4125" lon="6.6621">
        <ele>72</ele>
        <time>2018-02-03T14:28:07.000Z</time>
      </trkpt>
      <trkpt lat="43.41251" lon="6.66213">
        <ele>72.800003051758</ele>
        <time>2018-02-03T14:28:11.000Z</time>
      </trkpt>
      <trkpt lat="43.41252" lon="6.66214">
        <ele>73</ele>
        <time>2018-02-03T14:28:13.000Z</time>
      </trkpt>
      <trkpt lat="43.41253" lon="6.66216">
        <ele>74.199996948242</ele>
        <time>2018-02-03T14:28:18.000Z</time>
      </trkpt>
      <trkpt lat="43.41254" lon="6.66217">
        <ele>74.400001525879</ele>
        <time>2018-02-03T14:28:19.000Z</time>
      </trkpt>
      <trkpt lat="43.41255" lon="6.66217">
        <ele>75.199996948242</ele>
        <time>2018-02-03T14:28:25.000Z</time>
      </trkpt>
      <trkpt lat="43.41254" lon="6.66217">
        <ele>75.199996948242</ele>
        <time>2018-02-03T14:28:26.000Z</time>
      </trkpt>
      <trkpt lat="43.41258" lon="6.66222">
        <ele>75.199996948242</ele>
        <time>2018-02-03T14:28:35.000Z</time>
      </trkpt>
      <trkpt lat="43.41261" lon="6.66228">
        <ele>76.400001525879</ele>
        <time>2018-02-03T14:28:42.000Z</time>
      </trkpt>
      <trkpt lat="43.41261" lon="6.66229">
        <ele>76.599998474121</ele>
        <time>2018-02-03T14:28:43.000Z</time>
      </trkpt>
      <trkpt lat="43.41263" lon="6.66232">
        <ele>77.599998474121</ele>
        <time>2018-02-03T14:28:47.000Z</time>
      </trkpt>
      <trkpt lat="43.41264" lon="6.66235">
        <ele>78.599998474121</ele>
        <time>2018-02-03T14:28:50.000Z</time>
      </trkpt>
      <trkpt lat="43.41265" lon="6.66236">
        <ele>79</ele>
        <time>2018-02-03T14:28:51.000Z</time>
      </trkpt>
      <trkpt lat="43.41265" lon="6.66238">
        <ele>79.800003051758</ele>
        <time>2018-02-03T14:28:56.000Z</time>
      </trkpt>
      <trkpt lat="43.41266" lon="6.6624">
        <ele>80</ele>
        <time>2018-02-03T14:28:58.000Z</time>
      </trkpt>
      <trkpt lat="43.41267" lon="6.66243">
        <ele>80.800003051758</ele>
        <time>2018-02-03T14:29:02.000Z</time>
      </trkpt>
      <trkpt lat="43.41267" lon="6.66245">
        <ele>81.199996948242</ele>
        <time>2018-02-03T14:29:04.000Z</time>
      </trkpt>
      <trkpt lat="43.41267" lon="6.66245">
        <ele>81.800003051758</ele>
        <time>2018-02-03T14:29:06.000Z</time>
      </trkpt>
      <trkpt lat="43.41267" lon="6.66246">
        <ele>82.199996948242</ele>
        <time>2018-02-03T14:29:12.000Z</time>
      </trkpt>
      <trkpt lat="43.41266" lon="6.66246">
        <ele>81.599998474121</ele>
        <time>2018-02-03T14:29:20.000Z</time>
      </trkpt>
      <trkpt lat="43.41264" lon="6.66244">
        <ele>81.599998474121</ele>
        <time>2018-02-03T14:29:43.000Z</time>
      </trkpt>
      <trkpt lat="43.41264" lon="6.66244">
        <ele>81.800003051758</ele>
        <time>2018-02-03T14:30:01.000Z</time>
      </trkpt>
      <trkpt lat="43.41265" lon="6.66244">
        <ele>81.800003051758</ele>
        <time>2018-02-03T14:30:12.000Z</time>
      </trkpt>
      <trkpt lat="43.41266" lon="6.66244">
        <ele>81.599998474121</ele>
        <time>2018-02-03T14:30:18.000Z</time>
      </trkpt>
      <trkpt lat="43.41268" lon="6.66245">
        <ele>81.599998474121</ele>
        <time>2018-02-03T14:30:24.000Z</time>
      </trkpt>
      <trkpt lat="43.4127" lon="6.66245">
        <ele>81.800003051758</ele>
        <time>2018-02-03T14:30:26.000Z</time>
      </trkpt>
      <trkpt lat="43.41275" lon="6.66246">
        <ele>81.800003051758</ele>
        <time>2018-02-03T14:30:29.000Z</time>
      </trkpt>
      <trkpt lat="43.41284" lon="6.66249">
        <ele>81.599998474121</ele>
        <time>2018-02-03T14:30:32.000Z</time>
      </trkpt>
      <trkpt lat="43.41297" lon="6.66253">
        <ele>80.599998474121</ele>
        <time>2018-02-03T14:30:36.000Z</time>
      </trkpt>
      <trkpt lat="43.413" lon="6.66252">
        <ele>80.400001525879</ele>
        <time>2018-02-03T14:30:37.000Z</time>
      </trkpt>
      <trkpt lat="43.41308" lon="6.66252">
        <ele>79.800003051758</ele>
        <time>2018-02-03T14:30:39.000Z</time>
      </trkpt>
      <trkpt lat="43.41312" lon="6.66253">
        <ele>79.199996948242</ele>
        <time>2018-02-03T14:30:40.000Z</time>
      </trkpt>
      <trkpt lat="43.4132" lon="6.66259">
        <ele>78</ele>
        <time>2018-02-03T14:30:42.000Z</time>
      </trkpt>
      <trkpt lat="43.41327" lon="6.66267">
        <ele>76.400001525879</ele>
        <time>2018-02-03T14:30:44.000Z</time>
      </trkpt>
      <trkpt lat="43.41335" lon="6.66277">
        <ele>75.199996948242</ele>
        <time>2018-02-03T14:30:46.000Z</time>
      </trkpt>
      <trkpt lat="43.41337" lon="6.66284">
        <ele>74.400001525879</ele>
        <time>2018-02-03T14:30:47.000Z</time>
      </trkpt>
      <trkpt lat="43.41339" lon="6.66292">
        <ele>73.400001525879</ele>
        <time>2018-02-03T14:30:48.000Z</time>
      </trkpt>
      <trkpt lat="43.41342" lon="6.66309">
        <ele>71.599998474121</ele>
        <time>2018-02-03T14:30:50.000Z</time>
      </trkpt>
      <trkpt lat="43.41342" lon="6.66318">
        <ele>70.400001525879</ele>
        <time>2018-02-03T14:30:51.000Z</time>
      </trkpt>
      <trkpt lat="43.41341" lon="6.66338">
        <ele>68.800003051758</ele>
        <time>2018-02-03T14:30:53.000Z</time>
      </trkpt>
      <trkpt lat="43.4134" lon="6.66346">
        <ele>67.800003051758</ele>
        <time>2018-02-03T14:30:54.000Z</time>
      </trkpt>
      <trkpt lat="43.41341" lon="6.66356">
        <ele>66.400001525879</ele>
        <time>2018-02-03T14:30:55.000Z</time>
      </trkpt>
      <trkpt lat="43.41344" lon="6.66365">
        <ele>65.400001525879</ele>
        <time>2018-02-03T14:30:56.000Z</time>
      </trkpt>
      <trkpt lat="43.4135" lon="6.66386">
        <ele>62.599998474121</ele>
        <time>2018-02-03T14:30:58.000Z</time>
      </trkpt>
      <trkpt lat="43.41357" lon="6.66403">
        <ele>61</ele>
        <time>2018-02-03T14:31:00.000Z</time>
      </trkpt>
      <trkpt lat="43.41368" lon="6.66417">
        <ele>58.599998474121</ele>
        <time>2018-02-03T14:31:02.000Z</time>
      </trkpt>
      <trkpt lat="43.41375" lon="6.66422">
        <ele>57.400001525879</ele>
        <time>2018-02-03T14:31:03.000Z</time>
      </trkpt>
      <trkpt lat="43.41381" lon="6.66425">
        <ele>56.200000762939</ele>
        <time>2018-02-03T14:31:04.000Z</time>
      </trkpt>
      <trkpt lat="43.41387" lon="6.66428">
        <ele>55.400001525879</ele>
        <time>2018-02-03T14:31:05.000Z</time>
      </trkpt>
      <trkpt lat="43.41394" lon="6.66432">
        <ele>54.599998474121</ele>
        <time>2018-02-03T14:31:06.000Z</time>
      </trkpt>
      <trkpt lat="43.41414" lon="6.66441">
        <ele>53.400001525879</ele>
        <time>2018-02-03T14:31:09.000Z</time>
      </trkpt>
      <trkpt lat="43.41426" lon="6.6645">
        <ele>52.400001525879</ele>
        <time>2018-02-03T14:31:11.000Z</time>
      </trkpt>
      <trkpt lat="43.41433" lon="6.66465">
        <ele>50.799999237061</ele>
        <time>2018-02-03T14:31:13.000Z</time>
      </trkpt>
      <trkpt lat="43.41434" lon="6.66474">
        <ele>50</ele>
        <time>2018-02-03T14:31:14.000Z</time>
      </trkpt>
      <trkpt lat="43.41436" lon="6.66481">
        <ele>49</ele>
        <time>2018-02-03T14:31:15.000Z</time>
      </trkpt>
      <trkpt lat="43.4144" lon="6.66486">
        <ele>47.799999237061</ele>
        <time>2018-02-03T14:31:16.000Z</time>
      </trkpt>
      <trkpt lat="43.41444" lon="6.6649">
        <ele>46.400001525879</ele>
        <time>2018-02-03T14:31:17.000Z</time>
      </trkpt>
      <trkpt lat="43.41453" lon="6.66487">
        <ele>44.400001525879</ele>
        <time>2018-02-03T14:31:19.000Z</time>
      </trkpt>
      <trkpt lat="43.4146" lon="6.66488">
        <ele>43.400001525879</ele>
        <time>2018-02-03T14:31:21.000Z</time>
      </trkpt>
      <trkpt lat="43.41467" lon="6.6649">
        <ele>43</ele>
        <time>2018-02-03T14:31:23.000Z</time>
      </trkpt>
      <trkpt lat="43.41471" lon="6.66491">
        <ele>43.200000762939</ele>
        <time>2018-02-03T14:31:24.000Z</time>
      </trkpt>
      <trkpt lat="43.41487" lon="6.66493">
        <ele>44.599998474121</ele>
        <time>2018-02-03T14:31:29.000Z</time>
      </trkpt>
      <trkpt lat="43.41491" lon="6.66494">
        <ele>44.799999237061</ele>
        <time>2018-02-03T14:31:30.000Z</time>
      </trkpt>
      <trkpt lat="43.41502" lon="6.66495">
        <ele>45.599998474121</ele>
        <time>2018-02-03T14:31:33.000Z</time>
      </trkpt>
      <trkpt lat="43.41509" lon="6.66497">
        <ele>46</ele>
        <time>2018-02-03T14:31:35.000Z</time>
      </trkpt>
      <trkpt lat="43.41517" lon="6.66503">
        <ele>46.799999237061</ele>
        <time>2018-02-03T14:31:38.000Z</time>
      </trkpt>
      <trkpt lat="43.41524" lon="6.66504">
        <ele>47.400001525879</ele>
        <time>2018-02-03T14:31:40.000Z</time>
      </trkpt>
      <trkpt lat="43.41531" lon="6.66501">
        <ele>47.799999237061</ele>
        <time>2018-02-03T14:31:42.000Z</time>
      </trkpt>
      <trkpt lat="43.4154" lon="6.66497">
        <ele>49</ele>
        <time>2018-02-03T14:31:45.000Z</time>
      </trkpt>
      <trkpt lat="43.4155" lon="6.66498">
        <ele>50</ele>
        <time>2018-02-03T14:31:48.000Z</time>
      </trkpt>
      <trkpt lat="43.41556" lon="6.66501">
        <ele>50.599998474121</ele>
        <time>2018-02-03T14:31:50.000Z</time>
      </trkpt>
      <trkpt lat="43.41561" lon="6.66507">
        <ele>51</ele>
        <time>2018-02-03T14:31:52.000Z</time>
      </trkpt>
      <trkpt lat="43.4157" lon="6.6651">
        <ele>51.799999237061</ele>
        <time>2018-02-03T14:31:55.000Z</time>
      </trkpt>
      <trkpt lat="43.41574" lon="6.66507">
        <ele>52</ele>
        <time>2018-02-03T14:31:57.000Z</time>
      </trkpt>
      <trkpt lat="43.41576" lon="6.66506">
        <ele>52.200000762939</ele>
        <time>2018-02-03T14:31:58.000Z</time>
      </trkpt>
      <trkpt lat="43.41578" lon="6.66504">
        <ele>52.200000762939</ele>
        <time>2018-02-03T14:31:59.000Z</time>
      </trkpt>
      <trkpt lat="43.4158" lon="6.665">
        <ele>52.599998474121</ele>
        <time>2018-02-03T14:32:01.000Z</time>
      </trkpt>
      <trkpt lat="43.41584" lon="6.66498">
        <ele>52.799999237061</ele>
        <time>2018-02-03T14:32:04.000Z</time>
      </trkpt>
      <trkpt lat="43.41593" lon="6.6649">
        <ele>52</ele>
        <time>2018-02-03T14:32:09.000Z</time>
      </trkpt>
      <trkpt lat="43.41609" lon="6.66482">
        <ele>51</ele>
        <time>2018-02-03T14:32:14.000Z</time>
      </trkpt>
      <trkpt lat="43.41618" lon="6.66481">
        <ele>50.599998474121</ele>
        <time>2018-02-03T14:32:16.000Z</time>
      </trkpt>
      <trkpt lat="43.41628" lon="6.66484">
        <ele>50</ele>
        <time>2018-02-03T14:32:18.000Z</time>
      </trkpt>
      <trkpt lat="43.41635" lon="6.66504">
        <ele>48.799999237061</ele>
        <time>2018-02-03T14:32:21.000Z</time>
      </trkpt>
      <trkpt lat="43.41636" lon="6.66517">
        <ele>48.200000762939</ele>
        <time>2018-02-03T14:32:23.000Z</time>
      </trkpt>
      <trkpt lat="43.41639" lon="6.66522">
        <ele>48</ele>
        <time>2018-02-03T14:32:24.000Z</time>
      </trkpt>
      <trkpt lat="43.41642" lon="6.66525">
        <ele>47.799999237061</ele>
        <time>2018-02-03T14:32:25.000Z</time>
      </trkpt>
      <trkpt lat="43.41648" lon="6.66522">
        <ele>47.599998474121</ele>
        <time>2018-02-03T14:32:27.000Z</time>
      </trkpt>
      <trkpt lat="43.41652" lon="6.66519">
        <ele>47.599998474121</ele>
        <time>2018-02-03T14:32:28.000Z</time>
      </trkpt>
      <trkpt lat="43.41654" lon="6.66517">
        <ele>47.599998474121</ele>
        <time>2018-02-03T14:32:29.000Z</time>
      </trkpt>
      <trkpt lat="43.41674" lon="6.66502">
        <ele>48.799999237061</ele>
        <time>2018-02-03T14:32:35.000Z</time>
      </trkpt>
      <trkpt lat="43.41681" lon="6.66498">
        <ele>49</ele>
        <time>2018-02-03T14:32:37.000Z</time>
      </trkpt>
      <trkpt lat="43.41708" lon="6.6649">
        <ele>49.400001525879</ele>
        <time>2018-02-03T14:32:43.000Z</time>
      </trkpt>
      <trkpt lat="43.41736" lon="6.66481">
        <ele>49</ele>
        <time>2018-02-03T14:32:49.000Z</time>
      </trkpt>
      <trkpt lat="43.41746" lon="6.66486">
        <ele>48.799999237061</ele>
        <time>2018-02-03T14:32:51.000Z</time>
      </trkpt>
      <trkpt lat="43.41746" lon="6.66503">
        <ele>48.599998474121</ele>
        <time>2018-02-03T14:32:54.000Z</time>
      </trkpt>
      <trkpt lat="43.41742" lon="6.66513">
        <ele>48.599998474121</ele>
        <time>2018-02-03T14:32:56.000Z</time>
      </trkpt>
      <trkpt lat="43.41741" lon="6.66529">
        <ele>49</ele>
        <time>2018-02-03T14:32:59.000Z</time>
      </trkpt>
      <trkpt lat="43.4175" lon="6.66546">
        <ele>49.200000762939</ele>
        <time>2018-02-03T14:33:03.000Z</time>
      </trkpt>
      <trkpt lat="43.41756" lon="6.66557">
        <ele>49.400001525879</ele>
        <time>2018-02-03T14:33:08.000Z</time>
      </trkpt>
      <trkpt lat="43.41761" lon="6.66568">
        <ele>49.400001525879</ele>
        <time>2018-02-03T14:33:13.000Z</time>
      </trkpt>
      <trkpt lat="43.41762" lon="6.66568">
        <ele>49.400001525879</ele>
        <time>2018-02-03T14:33:14.000Z</time>
      </trkpt>
      <trkpt lat="43.41766" lon="6.66566">
        <ele>49.200000762939</ele>
        <time>2018-02-03T14:33:17.000Z</time>
      </trkpt>
      <trkpt lat="43.41776" lon="6.66559">
        <ele>48.799999237061</ele>
        <time>2018-02-03T14:33:22.000Z</time>
      </trkpt>
      <trkpt lat="43.41793" lon="6.66539">
        <ele>49.400001525879</ele>
        <time>2018-02-03T14:33:28.000Z</time>
      </trkpt>
      <trkpt lat="43.41804" lon="6.66527">
        <ele>49.200000762939</ele>
        <time>2018-02-03T14:33:31.000Z</time>
      </trkpt>
      <trkpt lat="43.41812" lon="6.66521">
        <ele>49</ele>
        <time>2018-02-03T14:33:33.000Z</time>
      </trkpt>
      <trkpt lat="43.41839" lon="6.66509">
        <ele>48</ele>
        <time>2018-02-03T14:33:38.000Z</time>
      </trkpt>
      <trkpt lat="43.41845" lon="6.6651">
        <ele>47.799999237061</ele>
        <time>2018-02-03T14:33:39.000Z</time>
      </trkpt>
      <trkpt lat="43.41863" lon="6.6652">
        <ele>46.400001525879</ele>
        <time>2018-02-03T14:33:42.000Z</time>
      </trkpt>
      <trkpt lat="43.41872" lon="6.66523">
        <ele>45.200000762939</ele>
        <time>2018-02-03T14:33:44.000Z</time>
      </trkpt>
      <trkpt lat="43.41876" lon="6.66521">
        <ele>44.799999237061</ele>
        <time>2018-02-03T14:33:45.000Z</time>
      </trkpt>
      <trkpt lat="43.41886" lon="6.66515">
        <ele>44.200000762939</ele>
        <time>2018-02-03T14:33:47.000Z</time>
      </trkpt>
      <trkpt lat="43.41892" lon="6.66514">
        <ele>43.799999237061</ele>
        <time>2018-02-03T14:33:48.000Z</time>
      </trkpt>
      <trkpt lat="43.41907" lon="6.66513">
        <ele>43.400001525879</ele>
        <time>2018-02-03T14:33:51.000Z</time>
      </trkpt>
      <trkpt lat="43.41914" lon="6.66511">
        <ele>43.200000762939</ele>
        <time>2018-02-03T14:33:52.000Z</time>
      </trkpt>
      <trkpt lat="43.4192" lon="6.66507">
        <ele>42.799999237061</ele>
        <time>2018-02-03T14:33:53.000Z</time>
      </trkpt>
      <trkpt lat="43.41927" lon="6.66503">
        <ele>42.200000762939</ele>
        <time>2018-02-03T14:33:54.000Z</time>
      </trkpt>
      <trkpt lat="43.41933" lon="6.66498">
        <ele>41.200000762939</ele>
        <time>2018-02-03T14:33:55.000Z</time>
      </trkpt>
      <trkpt lat="43.41939" lon="6.66492">
        <ele>39.799999237061</ele>
        <time>2018-02-03T14:33:56.000Z</time>
      </trkpt>
      <trkpt lat="43.41946" lon="6.66486">
        <ele>38</ele>
        <time>2018-02-03T14:33:57.000Z</time>
      </trkpt>
      <trkpt lat="43.41954" lon="6.66482">
        <ele>36.400001525879</ele>
        <time>2018-02-03T14:33:58.000Z</time>
      </trkpt>
      <trkpt lat="43.41961" lon="6.66478">
        <ele>34.599998474121</ele>
        <time>2018-02-03T14:33:59.000Z</time>
      </trkpt>
      <trkpt lat="43.41971" lon="6.66475">
        <ele>33</ele>
        <time>2018-02-03T14:34:00.000Z</time>
      </trkpt>
      <trkpt lat="43.41978" lon="6.66472">
        <ele>31.60000038147</ele>
        <time>2018-02-03T14:34:01.000Z</time>
      </trkpt>
      <trkpt lat="43.41984" lon="6.66469">
        <ele>30.39999961853</ele>
        <time>2018-02-03T14:34:02.000Z</time>
      </trkpt>
      <trkpt lat="43.4199" lon="6.66463">
        <ele>29.200000762939</ele>
        <time>2018-02-03T14:34:03.000Z</time>
      </trkpt>
      <trkpt lat="43.41999" lon="6.66448">
        <ele>27.60000038147</ele>
        <time>2018-02-03T14:34:05.000Z</time>
      </trkpt>
      <trkpt lat="43.42004" lon="6.6644">
        <ele>26.799999237061</ele>
        <time>2018-02-03T14:34:06.000Z</time>
      </trkpt>
      <trkpt lat="43.42008" lon="6.66433">
        <ele>26</ele>
        <time>2018-02-03T14:34:07.000Z</time>
      </trkpt>
      <trkpt lat="43.42013" lon="6.66428">
        <ele>25.60000038147</ele>
        <time>2018-02-03T14:34:08.000Z</time>
      </trkpt>
      <trkpt lat="43.42018" lon="6.66424">
        <ele>24.799999237061</ele>
        <time>2018-02-03T14:34:09.000Z</time>
      </trkpt>
      <trkpt lat="43.42026" lon="6.66419">
        <ele>23.39999961853</ele>
        <time>2018-02-03T14:34:11.000Z</time>
      </trkpt>
      <trkpt lat="43.42028" lon="6.66417">
        <ele>22.200000762939</ele>
        <time>2018-02-03T14:34:12.000Z</time>
      </trkpt>
      <trkpt lat="43.42029" lon="6.66417">
        <ele>21.200000762939</ele>
        <time>2018-02-03T14:34:13.000Z</time>
      </trkpt>
      <trkpt lat="43.42028" lon="6.66418">
        <ele>20.200000762939</ele>
        <time>2018-02-03T14:34:14.000Z</time>
      </trkpt>
      <trkpt lat="43.42028" lon="6.66417">
        <ele>19.60000038147</ele>
        <time>2018-02-03T14:34:15.000Z</time>
      </trkpt>
      <trkpt lat="43.42028" lon="6.66418">
        <ele>19.39999961853</ele>
        <time>2018-02-03T14:34:29.000Z</time>
      </trkpt>
      <trkpt lat="43.42027" lon="6.66419">
        <ele>19.60000038147</ele>
        <time>2018-02-03T14:34:32.000Z</time>
      </trkpt>
      <trkpt lat="43.42024" lon="6.66421">
        <ele>19.60000038147</ele>
        <time>2018-02-03T14:34:36.000Z</time>
      </trkpt>
      <trkpt lat="43.42019" lon="6.66423">
        <ele>20.39999961853</ele>
        <time>2018-02-03T14:34:44.000Z</time>
      </trkpt>
      <trkpt lat="43.42019" lon="6.66422">
        <ele>21.200000762939</ele>
        <time>2018-02-03T14:34:50.000Z</time>
      </trkpt>
      <trkpt lat="43.4202" lon="6.66417">
        <ele>21.39999961853</ele>
        <time>2018-02-03T14:34:52.000Z</time>
      </trkpt>
      <trkpt lat="43.42021" lon="6.66414">
        <ele>21.200000762939</ele>
        <time>2018-02-03T14:34:53.000Z</time>
      </trkpt>
      <trkpt lat="43.42021" lon="6.66409">
        <ele>20</ele>
        <time>2018-02-03T14:34:55.000Z</time>
      </trkpt>
      <trkpt lat="43.42021" lon="6.66402">
        <ele>18.799999237061</ele>
        <time>2018-02-03T14:34:57.000Z</time>
      </trkpt>
      <trkpt lat="43.42023" lon="6.66396">
        <ele>18</ele>
        <time>2018-02-03T14:34:59.000Z</time>
      </trkpt>
      <trkpt lat="43.42023" lon="6.66394">
        <ele>17.799999237061</ele>
        <time>2018-02-03T14:35:00.000Z</time>
      </trkpt>
      <trkpt lat="43.42026" lon="6.66387">
        <ele>17.39999961853</ele>
        <time>2018-02-03T14:35:04.000Z</time>
      </trkpt>
      <trkpt lat="43.42027" lon="6.66383">
        <ele>17.200000762939</ele>
        <time>2018-02-03T14:35:06.000Z</time>
      </trkpt>
      <trkpt lat="43.4203" lon="6.66375">
        <ele>17</ele>
        <time>2018-02-03T14:35:08.000Z</time>
      </trkpt>
      <trkpt lat="43.42031" lon="6.66373">
        <ele>16.60000038147</ele>
        <time>2018-02-03T14:35:09.000Z</time>
      </trkpt>
      <trkpt lat="43.42033" lon="6.66372">
        <ele>15.800000190735</ele>
        <time>2018-02-03T14:35:12.000Z</time>
      </trkpt>
      <trkpt lat="43.42037" lon="6.66376">
        <ele>17.200000762939</ele>
        <time>2018-02-03T14:35:17.000Z</time>
      </trkpt>
      <trkpt lat="43.42039" lon="6.66377">
        <ele>17.39999961853</ele>
        <time>2018-02-03T14:35:18.000Z</time>
      </trkpt>
      <trkpt lat="43.42045" lon="6.66383">
        <ele>17.39999961853</ele>
        <time>2018-02-03T14:35:20.000Z</time>
      </trkpt>
      <trkpt lat="43.42055" lon="6.66387">
        <ele>17.200000762939</ele>
        <time>2018-02-03T14:35:22.000Z</time>
      </trkpt>
      <trkpt lat="43.42065" lon="6.66391">
        <ele>17.200000762939</ele>
        <time>2018-02-03T14:35:24.000Z</time>
      </trkpt>
      <trkpt lat="43.42094" lon="6.66394">
        <ele>16.200000762939</ele>
        <time>2018-02-03T14:35:30.000Z</time>
      </trkpt>
      <trkpt lat="43.42117" lon="6.66389">
        <ele>16</ele>
        <time>2018-02-03T14:35:36.000Z</time>
      </trkpt>
      <trkpt lat="43.42132" lon="6.6638">
        <ele>16.200000762939</ele>
        <time>2018-02-03T14:35:42.000Z</time>
      </trkpt>
      <trkpt lat="43.42146" lon="6.66383">
        <ele>16.39999961853</ele>
        <time>2018-02-03T14:35:46.000Z</time>
      </trkpt>
      <trkpt lat="43.42154" lon="6.66383">
        <ele>16.200000762939</ele>
        <time>2018-02-03T14:35:48.000Z</time>
      </trkpt>
      <trkpt lat="43.42172" lon="6.66386">
        <ele>15.800000190735</ele>
        <time>2018-02-03T14:35:52.000Z</time>
      </trkpt>
      <trkpt lat="43.42176" lon="6.66386">
        <ele>15.60000038147</ele>
        <time>2018-02-03T14:35:53.000Z</time>
      </trkpt>
      <trkpt lat="43.42201" lon="6.66391">
        <ele>15.60000038147</ele>
        <time>2018-02-03T14:35:59.000Z</time>
      </trkpt>
      <trkpt lat="43.42205" lon="6.66394">
        <ele>15.39999961853</ele>
        <time>2018-02-03T14:36:00.000Z</time>
      </trkpt>
      <trkpt lat="43.42214" lon="6.66406">
        <ele>15.199999809265</ele>
        <time>2018-02-03T14:36:03.000Z</time>
      </trkpt>
      <trkpt lat="43.42217" lon="6.66409">
        <ele>15</ele>
        <time>2018-02-03T14:36:04.000Z</time>
      </trkpt>
      <trkpt lat="43.4223" lon="6.66411">
        <ele>14.800000190735</ele>
        <time>2018-02-03T14:36:07.000Z</time>
      </trkpt>
      <trkpt lat="43.42246" lon="6.66419">
        <ele>14.800000190735</ele>
        <time>2018-02-03T14:36:11.000Z</time>
      </trkpt>
      <trkpt lat="43.4225" lon="6.66422">
        <ele>14.800000190735</ele>
        <time>2018-02-03T14:36:12.000Z</time>
      </trkpt>
      <trkpt lat="43.42262" lon="6.66431">
        <ele>14.800000190735</ele>
        <time>2018-02-03T14:36:15.000Z</time>
      </trkpt>
      <trkpt lat="43.42275" lon="6.66432">
        <ele>14.800000190735</ele>
        <time>2018-02-03T14:36:18.000Z</time>
      </trkpt>
      <trkpt lat="43.42281" lon="6.66438">
        <ele>14.60000038147</ele>
        <time>2018-02-03T14:36:20.000Z</time>
      </trkpt>
      <trkpt lat="43.42281" lon="6.66441">
        <ele>14.39999961853</ele>
        <time>2018-02-03T14:36:21.000Z</time>
      </trkpt>
      <trkpt lat="43.42289" lon="6.66459">
        <ele>14.199999809265</ele>
        <time>2018-02-03T14:36:25.000Z</time>
      </trkpt>
      <trkpt lat="43.42296" lon="6.66469">
        <ele>13.39999961853</ele>
        <time>2018-02-03T14:36:28.000Z</time>
      </trkpt>
      <trkpt lat="43.42298" lon="6.6647">
        <ele>13.199999809265</ele>
        <time>2018-02-03T14:36:29.000Z</time>
      </trkpt>
      <trkpt lat="43.42301" lon="6.66471">
        <ele>14.199999809265</ele>
        <time>2018-02-03T14:36:34.000Z</time>
      </trkpt>
      <trkpt lat="43.42302" lon="6.66473">
        <ele>14.60000038147</ele>
        <time>2018-02-03T14:36:38.000Z</time>
      </trkpt>
      <trkpt lat="43.42303" lon="6.66473">
        <ele>14.60000038147</ele>
        <time>2018-02-03T14:36:40.000Z</time>
      </trkpt>
      <trkpt lat="43.42303" lon="6.66473">
        <ele>14.800000190735</ele>
        <time>2018-02-03T14:36:47.000Z</time>
      </trkpt>
      <trkpt lat="43.42305" lon="6.66473">
        <ele>14.800000190735</ele>
        <time>2018-02-03T14:36:52.000Z</time>
      </trkpt>
      <trkpt lat="43.42307" lon="6.66473">
        <ele>14.60000038147</ele>
        <time>2018-02-03T14:36:54.000Z</time>
      </trkpt>
      <trkpt lat="43.42305" lon="6.66467">
        <ele>14.39999961853</ele>
        <time>2018-02-03T14:36:58.000Z</time>
      </trkpt>
      <trkpt lat="43.42297" lon="6.66467">
        <ele>14.39999961853</ele>
        <time>2018-02-03T14:37:03.000Z</time>
      </trkpt>
      <trkpt lat="43.4229" lon="6.66462">
        <ele>13.60000038147</ele>
        <time>2018-02-03T14:37:08.000Z</time>
      </trkpt>
      <trkpt lat="43.42291" lon="6.66463">
        <ele>13.39999961853</ele>
        <time>2018-02-03T14:37:09.000Z</time>
      </trkpt>
      <trkpt lat="43.42291" lon="6.66462">
        <ele>13.199999809265</ele>
        <time>2018-02-03T14:37:13.000Z</time>
      </trkpt>
      <trkpt lat="43.42289" lon="6.66458">
        <ele>13.199999809265</ele>
        <time>2018-02-03T14:37:27.000Z</time>
      </trkpt>
      <trkpt lat="43.42287" lon="6.66446">
        <ele>13.199999809265</ele>
        <time>2018-02-03T14:37:31.000Z</time>
      </trkpt>
      <trkpt lat="43.42287" lon="6.66443">
        <ele>13</ele>
        <time>2018-02-03T14:37:32.000Z</time>
      </trkpt>
      <trkpt lat="43.42288" lon="6.6642">
        <ele>13.39999961853</ele>
        <time>2018-02-03T14:37:38.000Z</time>
      </trkpt>
      <trkpt lat="43.42283" lon="6.66395">
        <ele>13.800000190735</ele>
        <time>2018-02-03T14:37:44.000Z</time>
      </trkpt>
      <trkpt lat="43.42275" lon="6.66378">
        <ele>14.39999961853</ele>
        <time>2018-02-03T14:37:49.000Z</time>
      </trkpt>
      <trkpt lat="43.42271" lon="6.66372">
        <ele>14.39999961853</ele>
        <time>2018-02-03T14:37:51.000Z</time>
      </trkpt>
      <trkpt lat="43.42258" lon="6.66349">
        <ele>14.800000190735</ele>
        <time>2018-02-03T14:37:58.000Z</time>
      </trkpt>
      <trkpt lat="43.42241" lon="6.66329">
        <ele>15</ele>
        <time>2018-02-03T14:38:05.000Z</time>
      </trkpt>
      <trkpt lat="43.42232" lon="6.66312">
        <ele>15.39999961853</ele>
        <time>2018-02-03T14:38:11.000Z</time>
      </trkpt>
      <trkpt lat="43.42231" lon="6.6631">
        <ele>15.39999961853</ele>
        <time>2018-02-03T14:38:12.000Z</time>
      </trkpt>
      <trkpt lat="43.42232" lon="6.66307">
        <ele>15.60000038147</ele>
        <time>2018-02-03T14:38:14.000Z</time>
      </trkpt>
      <trkpt lat="43.4223" lon="6.66305">
        <ele>15.60000038147</ele>
        <time>2018-02-03T14:38:16.000Z</time>
      </trkpt>
      <trkpt lat="43.42226" lon="6.66294">
        <ele>15.800000190735</ele>
        <time>2018-02-03T14:38:21.000Z</time>
      </trkpt>
      <trkpt lat="43.42224" lon="6.66285">
        <ele>16.200000762939</ele>
        <time>2018-02-03T14:38:27.000Z</time>
      </trkpt>
      <trkpt lat="43.42223" lon="6.6628">
        <ele>16.39999961853</ele>
        <time>2018-02-03T14:38:31.000Z</time>
      </trkpt>
      <trkpt lat="43.42222" lon="6.6628">
        <ele>16.60000038147</ele>
        <time>2018-02-03T14:38:32.000Z</time>
      </trkpt>
      <trkpt lat="43.42222" lon="6.66281">
        <ele>16.60000038147</ele>
        <time>2018-02-03T14:38:33.000Z</time>
      </trkpt>
      <trkpt lat="43.42224" lon="6.66288">
        <ele>16.60000038147</ele>
        <time>2018-02-03T14:38:38.000Z</time>
      </trkpt>
      <trkpt lat="43.4223" lon="6.66307">
        <ele>16.200000762939</ele>
        <time>2018-02-03T14:38:43.000Z</time>
      </trkpt>
      <trkpt lat="43.42244" lon="6.6633">
        <ele>15.39999961853</ele>
        <time>2018-02-03T14:38:49.000Z</time>
      </trkpt>
      <trkpt lat="43.42265" lon="6.66356">
        <ele>14.800000190735</ele>
        <time>2018-02-03T14:38:56.000Z</time>
      </trkpt>
      <trkpt lat="43.42268" lon="6.66361">
        <ele>14.800000190735</ele>
        <time>2018-02-03T14:38:57.000Z</time>
      </trkpt>
      <trkpt lat="43.42281" lon="6.66385">
        <ele>14.39999961853</ele>
        <time>2018-02-03T14:39:02.000Z</time>
      </trkpt>
      <trkpt lat="43.42286" lon="6.66394">
        <ele>14</ele>
        <time>2018-02-03T14:39:04.000Z</time>
      </trkpt>
      <trkpt lat="43.42289" lon="6.6642">
        <ele>13.199999809265</ele>
        <time>2018-02-03T14:39:08.000Z</time>
      </trkpt>
      <trkpt lat="43.42289" lon="6.66425">
        <ele>13.199999809265</ele>
        <time>2018-02-03T14:39:09.000Z</time>
      </trkpt>
      <trkpt lat="43.42286" lon="6.66444">
        <ele>12.199999809265</ele>
        <time>2018-02-03T14:39:12.000Z</time>
      </trkpt>
      <trkpt lat="43.42295" lon="6.66464">
        <ele>11.800000190735</ele>
        <time>2018-02-03T14:39:16.000Z</time>
      </trkpt>
      <trkpt lat="43.42304" lon="6.66469">
        <ele>12</ele>
        <time>2018-02-03T14:39:19.000Z</time>
      </trkpt>
      <trkpt lat="43.42307" lon="6.66471">
        <ele>12.39999961853</ele>
        <time>2018-02-03T14:39:20.000Z</time>
      </trkpt>
      <trkpt lat="43.42317" lon="6.66481">
        <ele>13.39999961853</ele>
        <time>2018-02-03T14:39:23.000Z</time>
      </trkpt>
      <trkpt lat="43.42325" lon="6.6649">
        <ele>13.60000038147</ele>
        <time>2018-02-03T14:39:25.000Z</time>
      </trkpt>
      <trkpt lat="43.42348" lon="6.66514">
        <ele>13</ele>
        <time>2018-02-03T14:39:31.000Z</time>
      </trkpt>
      <trkpt lat="43.42358" lon="6.66518">
        <ele>12.800000190735</ele>
        <time>2018-02-03T14:39:33.000Z</time>
      </trkpt>
      <trkpt lat="43.42395" lon="6.66527">
        <ele>12.39999961853</ele>
        <time>2018-02-03T14:39:41.000Z</time>
      </trkpt>
      <trkpt lat="43.42401" lon="6.66528">
        <ele>12.39999961853</ele>
        <time>2018-02-03T14:39:42.000Z</time>
      </trkpt>
      <trkpt lat="43.42433" lon="6.6653">
        <ele>11.60000038147</ele>
        <time>2018-02-03T14:39:49.000Z</time>
      </trkpt>
      <trkpt lat="43.42438" lon="6.66529">
        <ele>11.60000038147</ele>
        <time>2018-02-03T14:39:50.000Z</time>
      </trkpt>
      <trkpt lat="43.42447" lon="6.66527">
        <ele>11.39999961853</ele>
        <time>2018-02-03T14:39:52.000Z</time>
      </trkpt>
      <trkpt lat="43.42457" lon="6.66523">
        <ele>10.800000190735</ele>
        <time>2018-02-03T14:39:54.000Z</time>
      </trkpt>
      <trkpt lat="43.42466" lon="6.66519">
        <ele>10.199999809265</ele>
        <time>2018-02-03T14:39:56.000Z</time>
      </trkpt>
      <trkpt lat="43.42482" lon="6.6651">
        <ele>9.6000003814697</ele>
        <time>2018-02-03T14:40:00.000Z</time>
      </trkpt>
      <trkpt lat="43.42499" lon="6.66501">
        <ele>10</ele>
        <time>2018-02-03T14:40:04.000Z</time>
      </trkpt>
      <trkpt lat="43.42512" lon="6.66494">
        <ele>10</ele>
        <time>2018-02-03T14:40:07.000Z</time>
      </trkpt>
      <trkpt lat="43.4254" lon="6.66481">
        <ele>10.800000190735</ele>
        <time>2018-02-03T14:40:14.000Z</time>
      </trkpt>
      <trkpt lat="43.42568" lon="6.66468">
        <ele>10.60000038147</ele>
        <time>2018-02-03T14:40:21.000Z</time>
      </trkpt>
      <trkpt lat="43.42572" lon="6.66467">
        <ele>10.60000038147</ele>
        <time>2018-02-03T14:40:22.000Z</time>
      </trkpt>
      <trkpt lat="43.42589" lon="6.66462">
        <ele>10.60000038147</ele>
        <time>2018-02-03T14:40:26.000Z</time>
      </trkpt>
      <trkpt lat="43.42593" lon="6.66459">
        <ele>10.60000038147</ele>
        <time>2018-02-03T14:40:27.000Z</time>
      </trkpt>
      <trkpt lat="43.42599" lon="6.66444">
        <ele>10.199999809265</ele>
        <time>2018-02-03T14:40:30.000Z</time>
      </trkpt>
      <trkpt lat="43.42595" lon="6.66428">
        <ele>9.3999996185303</ele>
        <time>2018-02-03T14:40:33.000Z</time>
      </trkpt>
      <trkpt lat="43.42594" lon="6.66423">
        <ele>9</ele>
        <time>2018-02-03T14:40:34.000Z</time>
      </trkpt>
      <trkpt lat="43.42592" lon="6.66418">
        <ele>9</ele>
        <time>2018-02-03T14:40:35.000Z</time>
      </trkpt>
      <trkpt lat="43.42586" lon="6.66398">
        <ele>9.3999996185303</ele>
        <time>2018-02-03T14:40:39.000Z</time>
      </trkpt>
      <trkpt lat="43.42579" lon="6.66374">
        <ele>9.8000001907349</ele>
        <time>2018-02-03T14:40:45.000Z</time>
      </trkpt>
      <trkpt lat="43.42583" lon="6.66349">
        <ele>10.199999809265</ele>
        <time>2018-02-03T14:40:50.000Z</time>
      </trkpt>
      <trkpt lat="43.42597" lon="6.66322">
        <ele>10.199999809265</ele>
        <time>2018-02-03T14:40:56.000Z</time>
      </trkpt>
      <trkpt lat="43.42619" lon="6.66282">
        <ele>9.8000001907349</ele>
        <time>2018-02-03T14:41:06.000Z</time>
      </trkpt>
      <trkpt lat="43.42629" lon="6.66268">
        <ele>11.39999961853</ele>
        <time>2018-02-03T14:41:10.000Z</time>
      </trkpt>
      <trkpt lat="43.42633" lon="6.6626">
        <ele>12</ele>
        <time>2018-02-03T14:41:12.000Z</time>
      </trkpt>
      <trkpt lat="43.42657" lon="6.66226">
        <ele>12</ele>
        <time>2018-02-03T14:41:21.000Z</time>
      </trkpt>
      <trkpt lat="43.42676" lon="6.66202">
        <ele>12.199999809265</ele>
        <time>2018-02-03T14:41:28.000Z</time>
      </trkpt>
      <trkpt lat="43.42678" lon="6.66199">
        <ele>12.39999961853</ele>
        <time>2018-02-03T14:41:29.000Z</time>
      </trkpt>
      <trkpt lat="43.42702" lon="6.6618">
        <ele>13.39999961853</ele>
        <time>2018-02-03T14:41:37.000Z</time>
      </trkpt>
      <trkpt lat="43.42729" lon="6.66174">
        <ele>12.39999961853</ele>
        <time>2018-02-03T14:41:43.000Z</time>
      </trkpt>
      <trkpt lat="43.42734" lon="6.66173">
        <ele>12.199999809265</ele>
        <time>2018-02-03T14:41:44.000Z</time>
      </trkpt>
      <trkpt lat="43.42754" lon="6.66168">
        <ele>11.199999809265</ele>
        <time>2018-02-03T14:41:49.000Z</time>
      </trkpt>
      <trkpt lat="43.42757" lon="6.66165">
        <ele>11.199999809265</ele>
        <time>2018-02-03T14:41:50.000Z</time>
      </trkpt>
      <trkpt lat="43.42778" lon="6.66152">
        <ele>10.800000190735</ele>
        <time>2018-02-03T14:41:55.000Z</time>
      </trkpt>
      <trkpt lat="43.42819" lon="6.66125">
        <ele>10.800000190735</ele>
        <time>2018-02-03T14:42:05.000Z</time>
      </trkpt>
      <trkpt lat="43.42856" lon="6.66101">
        <ele>10.800000190735</ele>
        <time>2018-02-03T14:42:14.000Z</time>
      </trkpt>
      <trkpt lat="43.42866" lon="6.66094">
        <ele>10.800000190735</ele>
        <time>2018-02-03T14:42:17.000Z</time>
      </trkpt>
      <trkpt lat="43.42882" lon="6.66083">
        <ele>11</ele>
        <time>2018-02-03T14:42:22.000Z</time>
      </trkpt>
      <trkpt lat="43.42898" lon="6.66075">
        <ele>11.39999961853</ele>
        <time>2018-02-03T14:42:27.000Z</time>
      </trkpt>
      <trkpt lat="43.42924" lon="6.66066">
        <ele>11.60000038147</ele>
        <time>2018-02-03T14:42:34.000Z</time>
      </trkpt>
      <trkpt lat="43.4294" lon="6.66062">
        <ele>12</ele>
        <time>2018-02-03T14:42:39.000Z</time>
      </trkpt>
      <trkpt lat="43.42943" lon="6.66062">
        <ele>12.39999961853</ele>
        <time>2018-02-03T14:42:40.000Z</time>
      </trkpt>
      <trkpt lat="43.42954" lon="6.6606">
        <ele>12.60000038147</ele>
        <time>2018-02-03T14:42:44.000Z</time>
      </trkpt>
      <trkpt lat="43.42965" lon="6.66058">
        <ele>13.39999961853</ele>
        <time>2018-02-03T14:42:48.000Z</time>
      </trkpt>
      <trkpt lat="43.42968" lon="6.66056">
        <ele>13.60000038147</ele>
        <time>2018-02-03T14:42:49.000Z</time>
      </trkpt>
      <trkpt lat="43.42993" lon="6.66046">
        <ele>14.39999961853</ele>
        <time>2018-02-03T14:42:56.000Z</time>
      </trkpt>
      <trkpt lat="43.42996" lon="6.66045">
        <ele>14.60000038147</ele>
        <time>2018-02-03T14:42:57.000Z</time>
      </trkpt>
      <trkpt lat="43.43013" lon="6.66036">
        <ele>15.60000038147</ele>
        <time>2018-02-03T14:43:03.000Z</time>
      </trkpt>
      <trkpt lat="43.43028" lon="6.66025">
        <ele>16.39999961853</ele>
        <time>2018-02-03T14:43:08.000Z</time>
      </trkpt>
      <trkpt lat="43.43048" lon="6.66006">
        <ele>15.199999809265</ele>
        <time>2018-02-03T14:43:13.000Z</time>
      </trkpt>
      <trkpt lat="43.43056" lon="6.65998">
        <ele>14.39999961853</ele>
        <time>2018-02-03T14:43:15.000Z</time>
      </trkpt>
      <trkpt lat="43.43078" lon="6.65979">
        <ele>14.199999809265</ele>
        <time>2018-02-03T14:43:20.000Z</time>
      </trkpt>
      <trkpt lat="43.43083" lon="6.65976">
        <ele>14</ele>
        <time>2018-02-03T14:43:21.000Z</time>
      </trkpt>
      <trkpt lat="43.43096" lon="6.65967">
        <ele>13.39999961853</ele>
        <time>2018-02-03T14:43:24.000Z</time>
      </trkpt>
      <trkpt lat="43.43105" lon="6.65963">
        <ele>13</ele>
        <time>2018-02-03T14:43:26.000Z</time>
      </trkpt>
      <trkpt lat="43.43143" lon="6.65945">
        <ele>12.800000190735</ele>
        <time>2018-02-03T14:43:35.000Z</time>
      </trkpt>
      <trkpt lat="43.43162" lon="6.6594">
        <ele>12.39999961853</ele>
        <time>2018-02-03T14:43:40.000Z</time>
      </trkpt>
      <trkpt lat="43.43167" lon="6.6594">
        <ele>12.199999809265</ele>
        <time>2018-02-03T14:43:41.000Z</time>
      </trkpt>
      <trkpt lat="43.43183" lon="6.65941">
        <ele>12.199999809265</ele>
        <time>2018-02-03T14:43:45.000Z</time>
      </trkpt>
      <trkpt lat="43.43198" lon="6.65945">
        <ele>12.39999961853</ele>
        <time>2018-02-03T14:43:49.000Z</time>
      </trkpt>
      <trkpt lat="43.4322" lon="6.65948">
        <ele>13.199999809265</ele>
        <time>2018-02-03T14:43:55.000Z</time>
      </trkpt>
      <trkpt lat="43.43227" lon="6.65949">
        <ele>13.39999961853</ele>
        <time>2018-02-03T14:43:57.000Z</time>
      </trkpt>
      <trkpt lat="43.43239" lon="6.65949">
        <ele>13.800000190735</ele>
        <time>2018-02-03T14:44:01.000Z</time>
      </trkpt>
      <trkpt lat="43.43253" lon="6.65952">
        <ele>14.39999961853</ele>
        <time>2018-02-03T14:44:06.000Z</time>
      </trkpt>
      <trkpt lat="43.43256" lon="6.65952">
        <ele>14.60000038147</ele>
        <time>2018-02-03T14:44:07.000Z</time>
      </trkpt>
      <trkpt lat="43.43265" lon="6.65953">
        <ele>15</ele>
        <time>2018-02-03T14:44:11.000Z</time>
      </trkpt>
      <trkpt lat="43.43268" lon="6.65953">
        <ele>15.199999809265</ele>
        <time>2018-02-03T14:44:12.000Z</time>
      </trkpt>
      <trkpt lat="43.43277" lon="6.65956">
        <ele>15.60000038147</ele>
        <time>2018-02-03T14:44:16.000Z</time>
      </trkpt>
      <trkpt lat="43.43279" lon="6.65957">
        <ele>15.800000190735</ele>
        <time>2018-02-03T14:44:17.000Z</time>
      </trkpt>
      <trkpt lat="43.43282" lon="6.65957">
        <ele>16</ele>
        <time>2018-02-03T14:44:18.000Z</time>
      </trkpt>
      <trkpt lat="43.43293" lon="6.6596">
        <ele>16.799999237061</ele>
        <time>2018-02-03T14:44:22.000Z</time>
      </trkpt>
      <trkpt lat="43.43307" lon="6.65963">
        <ele>17.799999237061</ele>
        <time>2018-02-03T14:44:28.000Z</time>
      </trkpt>
      <trkpt lat="43.43309" lon="6.65964">
        <ele>17.799999237061</ele>
        <time>2018-02-03T14:44:29.000Z</time>
      </trkpt>
      <trkpt lat="43.43319" lon="6.65966">
        <ele>19</ele>
        <time>2018-02-03T14:44:34.000Z</time>
      </trkpt>
      <trkpt lat="43.43323" lon="6.65968">
        <ele>19.39999961853</ele>
        <time>2018-02-03T14:44:36.000Z</time>
      </trkpt>
      <trkpt lat="43.43331" lon="6.65967">
        <ele>20</ele>
        <time>2018-02-03T14:44:40.000Z</time>
      </trkpt>
      <trkpt lat="43.43335" lon="6.65968">
        <ele>20.200000762939</ele>
        <time>2018-02-03T14:44:42.000Z</time>
      </trkpt>
      <trkpt lat="43.43353" lon="6.65962">
        <ele>20.39999961853</ele>
        <time>2018-02-03T14:44:48.000Z</time>
      </trkpt>
      <trkpt lat="43.43382" lon="6.65953">
        <ele>19</ele>
        <time>2018-02-03T14:44:54.000Z</time>
      </trkpt>
      <trkpt lat="43.43391" lon="6.65945">
        <ele>18.200000762939</ele>
        <time>2018-02-03T14:44:57.000Z</time>
      </trkpt>
      <trkpt lat="43.43399" lon="6.6594">
        <ele>19.39999961853</ele>
        <time>2018-02-03T14:45:01.000Z</time>
      </trkpt>
      <trkpt lat="43.43404" lon="6.65938">
        <ele>20</ele>
        <time>2018-02-03T14:45:03.000Z</time>
      </trkpt>
      <trkpt lat="43.43415" lon="6.65932">
        <ele>20.200000762939</ele>
        <time>2018-02-03T14:45:08.000Z</time>
      </trkpt>
      <trkpt lat="43.43429" lon="6.65922">
        <ele>19.799999237061</ele>
        <time>2018-02-03T14:45:12.000Z</time>
      </trkpt>
      <trkpt lat="43.43445" lon="6.65909">
        <ele>19.39999961853</ele>
        <time>2018-02-03T14:45:16.000Z</time>
      </trkpt>
      <trkpt lat="43.43453" lon="6.65901">
        <ele>19</ele>
        <time>2018-02-03T14:45:18.000Z</time>
      </trkpt>
      <trkpt lat="43.43476" lon="6.65876">
        <ele>18</ele>
        <time>2018-02-03T14:45:24.000Z</time>
      </trkpt>
      <trkpt lat="43.43496" lon="6.65857">
        <ele>18.799999237061</ele>
        <time>2018-02-03T14:45:30.000Z</time>
      </trkpt>
      <trkpt lat="43.43514" lon="6.65841">
        <ele>18.799999237061</ele>
        <time>2018-02-03T14:45:34.000Z</time>
      </trkpt>
      <trkpt lat="43.43525" lon="6.65832">
        <ele>17.60000038147</ele>
        <time>2018-02-03T14:45:36.000Z</time>
      </trkpt>
      <trkpt lat="43.43539" lon="6.6582">
        <ele>16.39999961853</ele>
        <time>2018-02-03T14:45:38.000Z</time>
      </trkpt>
      <trkpt lat="43.43552" lon="6.65808">
        <ele>14.800000190735</ele>
        <time>2018-02-03T14:45:40.000Z</time>
      </trkpt>
      <trkpt lat="43.43564" lon="6.65795">
        <ele>13.60000038147</ele>
        <time>2018-02-03T14:45:42.000Z</time>
      </trkpt>
      <trkpt lat="43.43568" lon="6.65789">
        <ele>12.39999961853</ele>
        <time>2018-02-03T14:45:43.000Z</time>
      </trkpt>
      <trkpt lat="43.43577" lon="6.65776">
        <ele>11.199999809265</ele>
        <time>2018-02-03T14:45:45.000Z</time>
      </trkpt>
      <trkpt lat="43.43598" lon="6.65748">
        <ele>11.39999961853</ele>
        <time>2018-02-03T14:45:51.000Z</time>
      </trkpt>
      <trkpt lat="43.43604" lon="6.65741">
        <ele>12.39999961853</ele>
        <time>2018-02-03T14:45:53.000Z</time>
      </trkpt>
      <trkpt lat="43.43616" lon="6.65727">
        <ele>13.60000038147</ele>
        <time>2018-02-03T14:45:57.000Z</time>
      </trkpt>
      <trkpt lat="43.43619" lon="6.65723">
        <ele>13.39999961853</ele>
        <time>2018-02-03T14:45:58.000Z</time>
      </trkpt>
      <trkpt lat="43.43622" lon="6.65718">
        <ele>13.60000038147</ele>
        <time>2018-02-03T14:45:59.000Z</time>
      </trkpt>
      <trkpt lat="43.43626" lon="6.65705">
        <ele>13.39999961853</ele>
        <time>2018-02-03T14:46:01.000Z</time>
      </trkpt>
      <trkpt lat="43.43631" lon="6.65691">
        <ele>12.39999961853</ele>
        <time>2018-02-03T14:46:03.000Z</time>
      </trkpt>
      <trkpt lat="43.43636" lon="6.65676">
        <ele>11</ele>
        <time>2018-02-03T14:46:05.000Z</time>
      </trkpt>
      <trkpt lat="43.43644" lon="6.65655">
        <ele>10.199999809265</ele>
        <time>2018-02-03T14:46:08.000Z</time>
      </trkpt>
      <trkpt lat="43.43667" lon="6.65593">
        <ele>9.8000001907349</ele>
        <time>2018-02-03T14:46:16.000Z</time>
      </trkpt>
      <trkpt lat="43.4367" lon="6.65585">
        <ele>9.6000003814697</ele>
        <time>2018-02-03T14:46:17.000Z</time>
      </trkpt>
      <trkpt lat="43.43681" lon="6.65564">
        <ele>9.3999996185303</ele>
        <time>2018-02-03T14:46:20.000Z</time>
      </trkpt>
      <trkpt lat="43.43689" lon="6.65552">
        <ele>9</ele>
        <time>2018-02-03T14:46:22.000Z</time>
      </trkpt>
      <trkpt lat="43.437" lon="6.65534">
        <ele>8.8000001907349</ele>
        <time>2018-02-03T14:46:25.000Z</time>
      </trkpt>
      <trkpt lat="43.43704" lon="6.65519">
        <ele>8.8000001907349</ele>
        <time>2018-02-03T14:46:27.000Z</time>
      </trkpt>
      <trkpt lat="43.43714" lon="6.65472">
        <ele>8.3999996185303</ele>
        <time>2018-02-03T14:46:34.000Z</time>
      </trkpt>
      <trkpt lat="43.43726" lon="6.65417">
        <ele>9.1999998092651</ele>
        <time>2018-02-03T14:46:43.000Z</time>
      </trkpt>
      <trkpt lat="43.43734" lon="6.65381">
        <ele>10</ele>
        <time>2018-02-03T14:46:50.000Z</time>
      </trkpt>
      <trkpt lat="43.43735" lon="6.65376">
        <ele>10</ele>
        <time>2018-02-03T14:46:51.000Z</time>
      </trkpt>
      <trkpt lat="43.4374" lon="6.65346">
        <ele>10.60000038147</ele>
        <time>2018-02-03T14:46:58.000Z</time>
      </trkpt>
      <trkpt lat="43.43741" lon="6.65338">
        <ele>11</ele>
        <time>2018-02-03T14:47:00.000Z</time>
      </trkpt>
      <trkpt lat="43.43743" lon="6.65321">
        <ele>11.199999809265</ele>
        <time>2018-02-03T14:47:04.000Z</time>
      </trkpt>
      <trkpt lat="43.43744" lon="6.65315">
        <ele>11.39999961853</ele>
        <time>2018-02-03T14:47:05.000Z</time>
      </trkpt>
      <trkpt lat="43.43747" lon="6.65296">
        <ele>11.39999961853</ele>
        <time>2018-02-03T14:47:08.000Z</time>
      </trkpt>
      <trkpt lat="43.43748" lon="6.6529">
        <ele>11.39999961853</ele>
        <time>2018-02-03T14:47:09.000Z</time>
      </trkpt>
      <trkpt lat="43.43755" lon="6.65264">
        <ele>11.39999961853</ele>
        <time>2018-02-03T14:47:13.000Z</time>
      </trkpt>
      <trkpt lat="43.43762" lon="6.65246">
        <ele>11.800000190735</ele>
        <time>2018-02-03T14:47:16.000Z</time>
      </trkpt>
      <trkpt lat="43.43765" lon="6.6524">
        <ele>12</ele>
        <time>2018-02-03T14:47:17.000Z</time>
      </trkpt>
      <trkpt lat="43.43769" lon="6.6523">
        <ele>12.199999809265</ele>
        <time>2018-02-03T14:47:19.000Z</time>
      </trkpt>
      <trkpt lat="43.43774" lon="6.65213">
        <ele>12.39999961853</ele>
        <time>2018-02-03T14:47:22.000Z</time>
      </trkpt>
      <trkpt lat="43.43777" lon="6.6519">
        <ele>12.800000190735</ele>
        <time>2018-02-03T14:47:26.000Z</time>
      </trkpt>
      <trkpt lat="43.43777" lon="6.65184">
        <ele>13</ele>
        <time>2018-02-03T14:47:27.000Z</time>
      </trkpt>
      <trkpt lat="43.43778" lon="6.6516">
        <ele>13.199999809265</ele>
        <time>2018-02-03T14:47:31.000Z</time>
      </trkpt>
      <trkpt lat="43.4378" lon="6.65143">
        <ele>13.800000190735</ele>
        <time>2018-02-03T14:47:34.000Z</time>
      </trkpt>
      <trkpt lat="43.43783" lon="6.65126">
        <ele>14.199999809265</ele>
        <time>2018-02-03T14:47:37.000Z</time>
      </trkpt>
      <trkpt lat="43.43788" lon="6.65104">
        <ele>14.60000038147</ele>
        <time>2018-02-03T14:47:41.000Z</time>
      </trkpt>
      <trkpt lat="43.43796" lon="6.65087">
        <ele>15.39999961853</ele>
        <time>2018-02-03T14:47:45.000Z</time>
      </trkpt>
      <trkpt lat="43.43798" lon="6.65083">
        <ele>15.60000038147</ele>
        <time>2018-02-03T14:47:46.000Z</time>
      </trkpt>
      <trkpt lat="43.43808" lon="6.65069">
        <ele>16.39999961853</ele>
        <time>2018-02-03T14:47:50.000Z</time>
      </trkpt>
      <trkpt lat="43.4382" lon="6.65051">
        <ele>17.39999961853</ele>
        <time>2018-02-03T14:47:55.000Z</time>
      </trkpt>
      <trkpt lat="43.43822" lon="6.65048">
        <ele>17.60000038147</ele>
        <time>2018-02-03T14:47:56.000Z</time>
      </trkpt>
      <trkpt lat="43.43839" lon="6.65023">
        <ele>18.60000038147</ele>
        <time>2018-02-03T14:48:03.000Z</time>
      </trkpt>
      <trkpt lat="43.43841" lon="6.6502">
        <ele>18.799999237061</ele>
        <time>2018-02-03T14:48:04.000Z</time>
      </trkpt>
      <trkpt lat="43.4386" lon="6.64987">
        <ele>19.60000038147</ele>
        <time>2018-02-03T14:48:12.000Z</time>
      </trkpt>
      <trkpt lat="43.43882" lon="6.64954">
        <ele>18</ele>
        <time>2018-02-03T14:48:19.000Z</time>
      </trkpt>
      <trkpt lat="43.43893" lon="6.6494">
        <ele>17.60000038147</ele>
        <time>2018-02-03T14:48:22.000Z</time>
      </trkpt>
      <trkpt lat="43.43911" lon="6.64912">
        <ele>16.60000038147</ele>
        <time>2018-02-03T14:48:27.000Z</time>
      </trkpt>
      <trkpt lat="43.43915" lon="6.64907">
        <ele>16.60000038147</ele>
        <time>2018-02-03T14:48:28.000Z</time>
      </trkpt>
      <trkpt lat="43.43935" lon="6.64879">
        <ele>15.39999961853</ele>
        <time>2018-02-03T14:48:33.000Z</time>
      </trkpt>
      <trkpt lat="43.43943" lon="6.64868">
        <ele>14.800000190735</ele>
        <time>2018-02-03T14:48:35.000Z</time>
      </trkpt>
      <trkpt lat="43.43953" lon="6.64855">
        <ele>14</ele>
        <time>2018-02-03T14:48:37.000Z</time>
      </trkpt>
      <trkpt lat="43.43963" lon="6.64842">
        <ele>13</ele>
        <time>2018-02-03T14:48:39.000Z</time>
      </trkpt>
      <trkpt lat="43.43968" lon="6.64837">
        <ele>12.800000190735</ele>
        <time>2018-02-03T14:48:40.000Z</time>
      </trkpt>
      <trkpt lat="43.43976" lon="6.64826">
        <ele>12</ele>
        <time>2018-02-03T14:48:42.000Z</time>
      </trkpt>
      <trkpt lat="43.43995" lon="6.64797">
        <ele>12.39999961853</ele>
        <time>2018-02-03T14:48:47.000Z</time>
      </trkpt>
      <trkpt lat="43.44023" lon="6.64753">
        <ele>11.39999961853</ele>
        <time>2018-02-03T14:48:55.000Z</time>
      </trkpt>
      <trkpt lat="43.44038" lon="6.64735">
        <ele>11.800000190735</ele>
        <time>2018-02-03T14:48:59.000Z</time>
      </trkpt>
      <trkpt lat="43.44049" lon="6.64724">
        <ele>12.39999961853</ele>
        <time>2018-02-03T14:49:02.000Z</time>
      </trkpt>
      <trkpt lat="43.44069" lon="6.6471">
        <ele>13</ele>
        <time>2018-02-03T14:49:08.000Z</time>
      </trkpt>
      <trkpt lat="43.44072" lon="6.64708">
        <ele>13.39999961853</ele>
        <time>2018-02-03T14:49:09.000Z</time>
      </trkpt>
      <trkpt lat="43.4408" lon="6.64704">
        <ele>14.199999809265</ele>
        <time>2018-02-03T14:49:12.000Z</time>
      </trkpt>
      <trkpt lat="43.44088" lon="6.64701">
        <ele>15.199999809265</ele>
        <time>2018-02-03T14:49:15.000Z</time>
      </trkpt>
      <trkpt lat="43.44094" lon="6.64698">
        <ele>16</ele>
        <time>2018-02-03T14:49:18.000Z</time>
      </trkpt>
      <trkpt lat="43.44097" lon="6.64697">
        <ele>16.39999961853</ele>
        <time>2018-02-03T14:49:19.000Z</time>
      </trkpt>
      <trkpt lat="43.44105" lon="6.64691">
        <ele>17.39999961853</ele>
        <time>2018-02-03T14:49:23.000Z</time>
      </trkpt>
      <trkpt lat="43.44107" lon="6.64689">
        <ele>17.799999237061</ele>
        <time>2018-02-03T14:49:24.000Z</time>
      </trkpt>
      <trkpt lat="43.44112" lon="6.64683">
        <ele>18.60000038147</ele>
        <time>2018-02-03T14:49:27.000Z</time>
      </trkpt>
      <trkpt lat="43.44116" lon="6.64678">
        <ele>19.799999237061</ele>
        <time>2018-02-03T14:49:30.000Z</time>
      </trkpt>
      <trkpt lat="43.44119" lon="6.64672">
        <ele>21</ele>
        <time>2018-02-03T14:49:33.000Z</time>
      </trkpt>
      <trkpt lat="43.4412" lon="6.64667">
        <ele>21.799999237061</ele>
        <time>2018-02-03T14:49:35.000Z</time>
      </trkpt>
      <trkpt lat="43.44121" lon="6.64664">
        <ele>22</ele>
        <time>2018-02-03T14:49:36.000Z</time>
      </trkpt>
      <trkpt lat="43.44123" lon="6.64654">
        <ele>23</ele>
        <time>2018-02-03T14:49:41.000Z</time>
      </trkpt>
      <trkpt lat="43.44128" lon="6.64638">
        <ele>23.799999237061</ele>
        <time>2018-02-03T14:49:47.000Z</time>
      </trkpt>
      <trkpt lat="43.44134" lon="6.64609">
        <ele>24</ele>
        <time>2018-02-03T14:49:55.000Z</time>
      </trkpt>
      <trkpt lat="43.44137" lon="6.64596">
        <ele>24.200000762939</ele>
        <time>2018-02-03T14:49:59.000Z</time>
      </trkpt>
      <trkpt lat="43.44141" lon="6.64574">
        <ele>25.200000762939</ele>
        <time>2018-02-03T14:50:06.000Z</time>
      </trkpt>
      <trkpt lat="43.44142" lon="6.64555">
        <ele>26.200000762939</ele>
        <time>2018-02-03T14:50:12.000Z</time>
      </trkpt>
      <trkpt lat="43.44143" lon="6.64549">
        <ele>26.799999237061</ele>
        <time>2018-02-03T14:50:14.000Z</time>
      </trkpt>
      <trkpt lat="43.44144" lon="6.64543">
        <ele>27.39999961853</ele>
        <time>2018-02-03T14:50:16.000Z</time>
      </trkpt>
      <trkpt lat="43.44147" lon="6.64529">
        <ele>28.200000762939</ele>
        <time>2018-02-03T14:50:21.000Z</time>
      </trkpt>
      <trkpt lat="43.44147" lon="6.64526">
        <ele>28.39999961853</ele>
        <time>2018-02-03T14:50:22.000Z</time>
      </trkpt>
      <trkpt lat="43.44152" lon="6.64502">
        <ele>29</ele>
        <time>2018-02-03T14:50:29.000Z</time>
      </trkpt>
      <trkpt lat="43.44156" lon="6.64469">
        <ele>28.200000762939</ele>
        <time>2018-02-03T14:50:35.000Z</time>
      </trkpt>
      <trkpt lat="43.44158" lon="6.64437">
        <ele>27.200000762939</ele>
        <time>2018-02-03T14:50:40.000Z</time>
      </trkpt>
      <trkpt lat="43.4416" lon="6.64417">
        <ele>26.39999961853</ele>
        <time>2018-02-03T14:50:43.000Z</time>
      </trkpt>
      <trkpt lat="43.44161" lon="6.64404">
        <ele>26.200000762939</ele>
        <time>2018-02-03T14:50:45.000Z</time>
      </trkpt>
      <trkpt lat="43.44163" lon="6.64375">
        <ele>26</ele>
        <time>2018-02-03T14:50:50.000Z</time>
      </trkpt>
      <trkpt lat="43.44162" lon="6.64341">
        <ele>27.39999961853</ele>
        <time>2018-02-03T14:50:57.000Z</time>
      </trkpt>
      <trkpt lat="43.44157" lon="6.6431">
        <ele>28.39999961853</ele>
        <time>2018-02-03T14:51:04.000Z</time>
      </trkpt>
      <trkpt lat="43.44156" lon="6.64305">
        <ele>28.60000038147</ele>
        <time>2018-02-03T14:51:05.000Z</time>
      </trkpt>
      <trkpt lat="43.4415" lon="6.64282">
        <ele>29.60000038147</ele>
        <time>2018-02-03T14:51:11.000Z</time>
      </trkpt>
      <trkpt lat="43.44148" lon="6.64278">
        <ele>29.799999237061</ele>
        <time>2018-02-03T14:51:12.000Z</time>
      </trkpt>
      <trkpt lat="43.44145" lon="6.64267">
        <ele>30</ele>
        <time>2018-02-03T14:51:15.000Z</time>
      </trkpt>
      <trkpt lat="43.4414" lon="6.64249">
        <ele>30.799999237061</ele>
        <time>2018-02-03T14:51:20.000Z</time>
      </trkpt>
      <trkpt lat="43.44138" lon="6.64238">
        <ele>31.39999961853</ele>
        <time>2018-02-03T14:51:23.000Z</time>
      </trkpt>
      <trkpt lat="43.44138" lon="6.64223">
        <ele>31.799999237061</ele>
        <time>2018-02-03T14:51:27.000Z</time>
      </trkpt>
      <trkpt lat="43.44139" lon="6.64216">
        <ele>31.799999237061</ele>
        <time>2018-02-03T14:51:29.000Z</time>
      </trkpt>
      <trkpt lat="43.44146" lon="6.64192">
        <ele>32.799999237061</ele>
        <time>2018-02-03T14:51:35.000Z</time>
      </trkpt>
      <trkpt lat="43.4415" lon="6.64182">
        <ele>33.200000762939</ele>
        <time>2018-02-03T14:51:37.000Z</time>
      </trkpt>
      <trkpt lat="43.4416" lon="6.64153">
        <ele>31.39999961853</ele>
        <time>2018-02-03T14:51:42.000Z</time>
      </trkpt>
      <trkpt lat="43.44162" lon="6.64146">
        <ele>31</ele>
        <time>2018-02-03T14:51:43.000Z</time>
      </trkpt>
      <trkpt lat="43.44165" lon="6.64139">
        <ele>30.39999961853</ele>
        <time>2018-02-03T14:51:44.000Z</time>
      </trkpt>
      <trkpt lat="43.44171" lon="6.64124">
        <ele>29</ele>
        <time>2018-02-03T14:51:46.000Z</time>
      </trkpt>
      <trkpt lat="43.44178" lon="6.64108">
        <ele>27.200000762939</ele>
        <time>2018-02-03T14:51:48.000Z</time>
      </trkpt>
      <trkpt lat="43.44182" lon="6.64099">
        <ele>26.39999961853</ele>
        <time>2018-02-03T14:51:49.000Z</time>
      </trkpt>
      <trkpt lat="43.44186" lon="6.64089">
        <ele>25.60000038147</ele>
        <time>2018-02-03T14:51:50.000Z</time>
      </trkpt>
      <trkpt lat="43.44194" lon="6.64071">
        <ele>24.39999961853</ele>
        <time>2018-02-03T14:51:52.000Z</time>
      </trkpt>
      <trkpt lat="43.44201" lon="6.64054">
        <ele>22.60000038147</ele>
        <time>2018-02-03T14:51:54.000Z</time>
      </trkpt>
      <trkpt lat="43.44208" lon="6.64043">
        <ele>21.39999961853</ele>
        <time>2018-02-03T14:51:56.000Z</time>
      </trkpt>
      <trkpt lat="43.44215" lon="6.64034">
        <ele>20.799999237061</ele>
        <time>2018-02-03T14:51:58.000Z</time>
      </trkpt>
      <trkpt lat="43.44215" lon="6.64016">
        <ele>20.39999961853</ele>
        <time>2018-02-03T14:52:01.000Z</time>
      </trkpt>
      <trkpt lat="43.44213" lon="6.64012">
        <ele>20.39999961853</ele>
        <time>2018-02-03T14:52:02.000Z</time>
      </trkpt>
      <trkpt lat="43.44211" lon="6.64009">
        <ele>20.200000762939</ele>
        <time>2018-02-03T14:52:03.000Z</time>
      </trkpt>
      <trkpt lat="43.44209" lon="6.64005">
        <ele>20.39999961853</ele>
        <time>2018-02-03T14:52:05.000Z</time>
      </trkpt>
      <trkpt lat="43.44208" lon="6.64004">
        <ele>20.60000038147</ele>
        <time>2018-02-03T14:52:06.000Z</time>
      </trkpt>
      <trkpt lat="43.44202" lon="6.64">
        <ele>21.39999961853</ele>
        <time>2018-02-03T14:52:10.000Z</time>
      </trkpt>
      <trkpt lat="43.442" lon="6.63997">
        <ele>21.60000038147</ele>
        <time>2018-02-03T14:52:12.000Z</time>
      </trkpt>
      <trkpt lat="43.44202" lon="6.63993">
        <ele>21.799999237061</ele>
        <time>2018-02-03T14:52:15.000Z</time>
      </trkpt>
      <trkpt lat="43.44207" lon="6.63999">
        <ele>22.39999961853</ele>
        <time>2018-02-03T14:52:19.000Z</time>
      </trkpt>
      <trkpt lat="43.44208" lon="6.64001">
        <ele>22.60000038147</ele>
        <time>2018-02-03T14:52:20.000Z</time>
      </trkpt>
      <trkpt lat="43.44215" lon="6.64014">
        <ele>22.200000762939</ele>
        <time>2018-02-03T14:52:27.000Z</time>
      </trkpt>
      <trkpt lat="43.44215" lon="6.64016">
        <ele>22</ele>
        <time>2018-02-03T14:52:28.000Z</time>
      </trkpt>
      <trkpt lat="43.44214" lon="6.64021">
        <ele>21.799999237061</ele>
        <time>2018-02-03T14:52:31.000Z</time>
      </trkpt>
      <trkpt lat="43.44212" lon="6.64018">
        <ele>21.39999961853</ele>
        <time>2018-02-03T14:52:35.000Z</time>
      </trkpt>
      <trkpt lat="43.44211" lon="6.64017">
        <ele>21.39999961853</ele>
        <time>2018-02-03T14:52:36.000Z</time>
      </trkpt>
      <trkpt lat="43.44211" lon="6.64012">
        <ele>21.39999961853</ele>
        <time>2018-02-03T14:52:39.000Z</time>
      </trkpt>
      <trkpt lat="43.44206" lon="6.64001">
        <ele>22</ele>
        <time>2018-02-03T14:52:44.000Z</time>
      </trkpt>
      <trkpt lat="43.44195" lon="6.63986">
        <ele>22.39999961853</ele>
        <time>2018-02-03T14:52:50.000Z</time>
      </trkpt>
      <trkpt lat="43.44193" lon="6.63984">
        <ele>22.39999961853</ele>
        <time>2018-02-03T14:52:51.000Z</time>
      </trkpt>
      <trkpt lat="43.44175" lon="6.63966">
        <ele>22.39999961853</ele>
        <time>2018-02-03T14:52:58.000Z</time>
      </trkpt>
      <trkpt lat="43.44152" lon="6.63945">
        <ele>23.200000762939</ele>
        <time>2018-02-03T14:53:07.000Z</time>
      </trkpt>
      <trkpt lat="43.44134" lon="6.63928">
        <ele>23.39999961853</ele>
        <time>2018-02-03T14:53:14.000Z</time>
      </trkpt>
      <trkpt lat="43.44132" lon="6.63926">
        <ele>23.60000038147</ele>
        <time>2018-02-03T14:53:15.000Z</time>
      </trkpt>
      <trkpt lat="43.4411" lon="6.63911">
        <ele>24.200000762939</ele>
        <time>2018-02-03T14:53:23.000Z</time>
      </trkpt>
      <trkpt lat="43.44103" lon="6.63907">
        <ele>24.60000038147</ele>
        <time>2018-02-03T14:53:25.000Z</time>
      </trkpt>
      <trkpt lat="43.44086" lon="6.63901">
        <ele>25</ele>
        <time>2018-02-03T14:53:30.000Z</time>
      </trkpt>
      <trkpt lat="43.44059" lon="6.63888">
        <ele>25</ele>
        <time>2018-02-03T14:53:39.000Z</time>
      </trkpt>
      <trkpt lat="43.44048" lon="6.63879">
        <ele>25.60000038147</ele>
        <time>2018-02-03T14:53:43.000Z</time>
      </trkpt>
      <trkpt lat="43.44041" lon="6.6387">
        <ele>26.39999961853</ele>
        <time>2018-02-03T14:53:46.000Z</time>
      </trkpt>
      <trkpt lat="43.44038" lon="6.63867">
        <ele>26.60000038147</ele>
        <time>2018-02-03T14:53:47.000Z</time>
      </trkpt>
      <trkpt lat="43.44021" lon="6.63833">
        <ele>27.60000038147</ele>
        <time>2018-02-03T14:53:57.000Z</time>
      </trkpt>
      <trkpt lat="43.44019" lon="6.6383">
        <ele>27.60000038147</ele>
        <time>2018-02-03T14:53:58.000Z</time>
      </trkpt>
      <trkpt lat="43.44011" lon="6.63803">
        <ele>28.60000038147</ele>
        <time>2018-02-03T14:54:05.000Z</time>
      </trkpt>
      <trkpt lat="43.4401" lon="6.63799">
        <ele>28.799999237061</ele>
        <time>2018-02-03T14:54:06.000Z</time>
      </trkpt>
      <trkpt lat="43.44007" lon="6.63779">
        <ele>30</ele>
        <time>2018-02-03T14:54:12.000Z</time>
      </trkpt>
      <trkpt lat="43.44007" lon="6.63775">
        <ele>30</ele>
        <time>2018-02-03T14:54:13.000Z</time>
      </trkpt>
      <trkpt lat="43.44009" lon="6.63764">
        <ele>31.200000762939</ele>
        <time>2018-02-03T14:54:16.000Z</time>
      </trkpt>
      <trkpt lat="43.44012" lon="6.63758">
        <ele>31.60000038147</ele>
        <time>2018-02-03T14:54:18.000Z</time>
      </trkpt>
      <trkpt lat="43.44016" lon="6.63752">
        <ele>32.200000762939</ele>
        <time>2018-02-03T14:54:20.000Z</time>
      </trkpt>
      <trkpt lat="43.44022" lon="6.6374">
        <ele>33</ele>
        <time>2018-02-03T14:54:24.000Z</time>
      </trkpt>
      <trkpt lat="43.44032" lon="6.63714">
        <ele>32.799999237061</ele>
        <time>2018-02-03T14:54:30.000Z</time>
      </trkpt>
      <trkpt lat="43.44033" lon="6.63709">
        <ele>32.599998474121</ele>
        <time>2018-02-03T14:54:31.000Z</time>
      </trkpt>
      <trkpt lat="43.44032" lon="6.63687">
        <ele>31.60000038147</ele>
        <time>2018-02-03T14:54:35.000Z</time>
      </trkpt>
      <trkpt lat="43.44026" lon="6.63674">
        <ele>31.799999237061</ele>
        <time>2018-02-03T14:54:38.000Z</time>
      </trkpt>
      <trkpt lat="43.44019" lon="6.63661">
        <ele>31.799999237061</ele>
        <time>2018-02-03T14:54:41.000Z</time>
      </trkpt>
      <trkpt lat="43.44006" lon="6.63641">
        <ele>33.400001525879</ele>
        <time>2018-02-03T14:54:47.000Z</time>
      </trkpt>
      <trkpt lat="43.43998" lon="6.63629">
        <ele>34.400001525879</ele>
        <time>2018-02-03T14:54:51.000Z</time>
      </trkpt>
      <trkpt lat="43.43992" lon="6.6362">
        <ele>35.400001525879</ele>
        <time>2018-02-03T14:54:54.000Z</time>
      </trkpt>
      <trkpt lat="43.4399" lon="6.63617">
        <ele>35.599998474121</ele>
        <time>2018-02-03T14:54:55.000Z</time>
      </trkpt>
      <trkpt lat="43.43985" lon="6.63609">
        <ele>36.400001525879</ele>
        <time>2018-02-03T14:54:58.000Z</time>
      </trkpt>
      <trkpt lat="43.43978" lon="6.63592">
        <ele>36.400001525879</ele>
        <time>2018-02-03T14:55:03.000Z</time>
      </trkpt>
      <trkpt lat="43.43971" lon="6.63573">
        <ele>37.400001525879</ele>
        <time>2018-02-03T14:55:08.000Z</time>
      </trkpt>
      <trkpt lat="43.43966" lon="6.63557">
        <ele>37.599998474121</ele>
        <time>2018-02-03T14:55:12.000Z</time>
      </trkpt>
      <trkpt lat="43.43956" lon="6.63525">
        <ele>38.400001525879</ele>
        <time>2018-02-03T14:55:20.000Z</time>
      </trkpt>
      <trkpt lat="43.43955" lon="6.6352">
        <ele>38.400001525879</ele>
        <time>2018-02-03T14:55:21.000Z</time>
      </trkpt>
      <trkpt lat="43.43955" lon="6.63498">
        <ele>38.799999237061</ele>
        <time>2018-02-03T14:55:26.000Z</time>
      </trkpt>
      <trkpt lat="43.4396" lon="6.6347">
        <ele>39.200000762939</ele>
        <time>2018-02-03T14:55:32.000Z</time>
      </trkpt>
      <trkpt lat="43.43975" lon="6.63441">
        <ele>39.599998474121</ele>
        <time>2018-02-03T14:55:39.000Z</time>
      </trkpt>
      <trkpt lat="43.43985" lon="6.63435">
        <ele>40.799999237061</ele>
        <time>2018-02-03T14:55:44.000Z</time>
      </trkpt>
      <trkpt lat="43.4399" lon="6.63433">
        <ele>41.799999237061</ele>
        <time>2018-02-03T14:55:47.000Z</time>
      </trkpt>
      <trkpt lat="43.43991" lon="6.63433">
        <ele>42</ele>
        <time>2018-02-03T14:55:48.000Z</time>
      </trkpt>
      <trkpt lat="43.43996" lon="6.63434">
        <ele>42.799999237061</ele>
        <time>2018-02-03T14:55:51.000Z</time>
      </trkpt>
      <trkpt lat="43.43997" lon="6.63434">
        <ele>43</ele>
        <time>2018-02-03T14:55:52.000Z</time>
      </trkpt>
      <trkpt lat="43.44009" lon="6.6344">
        <ele>44</ele>
        <time>2018-02-03T14:55:57.000Z</time>
      </trkpt>
      <trkpt lat="43.44029" lon="6.63439">
        <ele>43.799999237061</ele>
        <time>2018-02-03T14:56:03.000Z</time>
      </trkpt>
      <trkpt lat="43.44034" lon="6.63436">
        <ele>43.799999237061</ele>
        <time>2018-02-03T14:56:05.000Z</time>
      </trkpt>
      <trkpt lat="43.44035" lon="6.63433">
        <ele>43.599998474121</ele>
        <time>2018-02-03T14:56:07.000Z</time>
      </trkpt>
      <trkpt lat="43.44034" lon="6.63434">
        <ele>43.200000762939</ele>
        <time>2018-02-03T14:56:10.000Z</time>
      </trkpt>
      <trkpt lat="43.44034" lon="6.63434">
        <ele>43.400001525879</ele>
        <time>2018-02-03T14:56:15.000Z</time>
      </trkpt>
      <trkpt lat="43.44034" lon="6.63434">
        <ele>44.200000762939</ele>
        <time>2018-02-03T14:56:19.000Z</time>
      </trkpt>
      <trkpt lat="43.44034" lon="6.63436">
        <ele>43.799999237061</ele>
        <time>2018-02-03T14:56:23.000Z</time>
      </trkpt>
    </trkseg>
  </trk>
</gpx>